<?xml version="1.0" encoding="UTF-8" standalone="no" ?>
<gpx xmlns="http://www.topografix.com/GPX/1/1" xmlns:xsi="http://www.w3.org/2001/XMLSchema-instance" xsi:schemaLocation="http://www.topografix.com/GPX/1/1 http://www.topografix.com/GPX/1/1/gpx.xsd" version="1.1" creator="VisuGPX - https://www.visugpx.com">
  <metadata>
    <name>Vosges - Pyrénées 08. De Schirmeck au kiosque Charles Kommer</name>
    <desc><![CDATA[Trace AlpineQuest 16/03/2026 08:10:06]]></desc>
  </metadata>
  <trk>
    <name><![CDATA[visugpx_RCAIDt8SHT_1]]></name>
    <extensions>
      <line xmlns="http://www.topografix.com/GPX/gpx_style/0/2">
        <color>0000FF</color>
        <width>4</width>
      </line>
    </extensions>
    <trkseg>
      <trkpt lat="48.46111" lon="7.2065">
        <ele>334.4</ele>
        <time>2026-03-16T07:10:05Z</time>
      </trkpt>
      <trkpt lat="48.46106" lon="7.20646">
        <ele>334.5</ele>
        <time>2026-03-16T07:10:06Z</time>
      </trkpt>
      <trkpt lat="48.46103" lon="7.20652">
        <ele>334.6</ele>
        <time>2026-03-16T07:10:11Z</time>
      </trkpt>
      <trkpt lat="48.46107" lon="7.20651">
        <ele>334.5</ele>
        <time>2026-03-16T07:10:16Z</time>
      </trkpt>
      <trkpt lat="48.46108" lon="7.20651">
        <ele>334.5</ele>
        <time>2026-03-16T07:10:21Z</time>
      </trkpt>
      <trkpt lat="48.46108" lon="7.2065">
        <ele>334.5</ele>
        <time>2026-03-16T07:10:26Z</time>
      </trkpt>
      <trkpt lat="48.46108" lon="7.20648">
        <ele>334.5</ele>
        <time>2026-03-16T07:10:31Z</time>
      </trkpt>
      <trkpt lat="48.46104" lon="7.20642">
        <ele>334.6</ele>
        <time>2026-03-16T07:10:36Z</time>
      </trkpt>
      <trkpt lat="48.46099" lon="7.20632">
        <ele>334.7</ele>
        <time>2026-03-16T07:10:41Z</time>
      </trkpt>
      <trkpt lat="48.46094" lon="7.20623">
        <ele>334.8</ele>
        <time>2026-03-16T07:10:46Z</time>
      </trkpt>
      <trkpt lat="48.46092" lon="7.20613">
        <ele>334.9</ele>
        <time>2026-03-16T07:10:52Z</time>
      </trkpt>
      <trkpt lat="48.46092" lon="7.20602">
        <ele>334.9</ele>
        <time>2026-03-16T07:10:57Z</time>
      </trkpt>
      <trkpt lat="48.46092" lon="7.20592">
        <ele>334.9</ele>
        <time>2026-03-16T07:11:02Z</time>
      </trkpt>
      <trkpt lat="48.46091" lon="7.20582">
        <ele>335</ele>
        <time>2026-03-16T07:11:07Z</time>
      </trkpt>
      <trkpt lat="48.4609" lon="7.20571">
        <ele>335.9</ele>
        <time>2026-03-16T07:11:12Z</time>
      </trkpt>
      <trkpt lat="48.4609" lon="7.20562">
        <ele>336.7</ele>
        <time>2026-03-16T07:11:17Z</time>
      </trkpt>
      <trkpt lat="48.4609" lon="7.20552">
        <ele>337.5</ele>
        <time>2026-03-16T07:11:22Z</time>
      </trkpt>
      <trkpt lat="48.46089" lon="7.20548">
        <ele>337.8</ele>
        <time>2026-03-16T07:11:27Z</time>
      </trkpt>
      <trkpt lat="48.46093" lon="7.20541">
        <ele>338.3</ele>
        <time>2026-03-16T07:11:32Z</time>
      </trkpt>
      <trkpt lat="48.461" lon="7.20539">
        <ele>338.2</ele>
        <time>2026-03-16T07:11:37Z</time>
      </trkpt>
      <trkpt lat="48.46107" lon="7.2054">
        <ele>337.9</ele>
        <time>2026-03-16T07:11:42Z</time>
      </trkpt>
      <trkpt lat="48.46116" lon="7.20541">
        <ele>337.6</ele>
        <time>2026-03-16T07:11:47Z</time>
      </trkpt>
      <trkpt lat="48.46125" lon="7.2054">
        <ele>337.4</ele>
        <time>2026-03-16T07:11:52Z</time>
      </trkpt>
      <trkpt lat="48.46131" lon="7.20539">
        <ele>337.2</ele>
        <time>2026-03-16T07:11:57Z</time>
      </trkpt>
      <trkpt lat="48.46138" lon="7.20536">
        <ele>337.2</ele>
        <time>2026-03-16T07:12:02Z</time>
      </trkpt>
      <trkpt lat="48.46144" lon="7.20535">
        <ele>337.1</ele>
        <time>2026-03-16T07:12:07Z</time>
      </trkpt>
      <trkpt lat="48.4615" lon="7.20534">
        <ele>336.9</ele>
        <time>2026-03-16T07:12:12Z</time>
      </trkpt>
      <trkpt lat="48.46158" lon="7.20532">
        <ele>336.8</ele>
        <time>2026-03-16T07:12:17Z</time>
      </trkpt>
      <trkpt lat="48.46166" lon="7.20528">
        <ele>336.7</ele>
        <time>2026-03-16T07:12:22Z</time>
      </trkpt>
      <trkpt lat="48.46174" lon="7.20525">
        <ele>336.5</ele>
        <time>2026-03-16T07:12:27Z</time>
      </trkpt>
      <trkpt lat="48.46181" lon="7.2052">
        <ele>336.4</ele>
        <time>2026-03-16T07:12:32Z</time>
      </trkpt>
      <trkpt lat="48.46189" lon="7.20516">
        <ele>336.3</ele>
        <time>2026-03-16T07:12:37Z</time>
      </trkpt>
      <trkpt lat="48.46196" lon="7.20512">
        <ele>336.1</ele>
        <time>2026-03-16T07:12:42Z</time>
      </trkpt>
      <trkpt lat="48.462" lon="7.20507">
        <ele>336.1</ele>
        <time>2026-03-16T07:12:47Z</time>
      </trkpt>
      <trkpt lat="48.46207" lon="7.20503">
        <ele>336</ele>
        <time>2026-03-16T07:12:52Z</time>
      </trkpt>
      <trkpt lat="48.46213" lon="7.20498">
        <ele>335.9</ele>
        <time>2026-03-16T07:12:57Z</time>
      </trkpt>
      <trkpt lat="48.46221" lon="7.20493">
        <ele>335.8</ele>
        <time>2026-03-16T07:13:02Z</time>
      </trkpt>
      <trkpt lat="48.46228" lon="7.20494">
        <ele>335.4</ele>
        <time>2026-03-16T07:13:07Z</time>
      </trkpt>
      <trkpt lat="48.46234" lon="7.20494">
        <ele>335.1</ele>
        <time>2026-03-16T07:13:12Z</time>
      </trkpt>
      <trkpt lat="48.4624" lon="7.20494">
        <ele>334.8</ele>
        <time>2026-03-16T07:13:17Z</time>
      </trkpt>
      <trkpt lat="48.46248" lon="7.2049">
        <ele>334.6</ele>
        <time>2026-03-16T07:13:22Z</time>
      </trkpt>
      <trkpt lat="48.46251" lon="7.20494">
        <ele>334.3</ele>
        <time>2026-03-16T07:13:27Z</time>
      </trkpt>
      <trkpt lat="48.46258" lon="7.205">
        <ele>333.7</ele>
        <time>2026-03-16T07:13:32Z</time>
      </trkpt>
      <trkpt lat="48.46262" lon="7.20505">
        <ele>333.5</ele>
        <time>2026-03-16T07:13:37Z</time>
      </trkpt>
      <trkpt lat="48.46269" lon="7.2051">
        <ele>333.1</ele>
        <time>2026-03-16T07:13:42Z</time>
      </trkpt>
      <trkpt lat="48.46277" lon="7.20519">
        <ele>332.6</ele>
        <time>2026-03-16T07:13:47Z</time>
      </trkpt>
      <trkpt lat="48.46284" lon="7.20529">
        <ele>332.2</ele>
        <time>2026-03-16T07:13:52Z</time>
      </trkpt>
      <trkpt lat="48.46289" lon="7.20536">
        <ele>331.9</ele>
        <time>2026-03-16T07:13:57Z</time>
      </trkpt>
      <trkpt lat="48.46293" lon="7.20543">
        <ele>331.7</ele>
        <time>2026-03-16T07:14:02Z</time>
      </trkpt>
      <trkpt lat="48.46299" lon="7.2055">
        <ele>331.4</ele>
        <time>2026-03-16T07:14:07Z</time>
      </trkpt>
      <trkpt lat="48.46307" lon="7.20555">
        <ele>331.1</ele>
        <time>2026-03-16T07:14:12Z</time>
      </trkpt>
      <trkpt lat="48.46316" lon="7.20561">
        <ele>330.7</ele>
        <time>2026-03-16T07:14:17Z</time>
      </trkpt>
      <trkpt lat="48.46318" lon="7.20569">
        <ele>330.6</ele>
        <time>2026-03-16T07:14:22Z</time>
      </trkpt>
      <trkpt lat="48.46325" lon="7.20575">
        <ele>330.3</ele>
        <time>2026-03-16T07:14:27Z</time>
      </trkpt>
      <trkpt lat="48.46332" lon="7.20582">
        <ele>330</ele>
        <time>2026-03-16T07:14:32Z</time>
      </trkpt>
      <trkpt lat="48.46335" lon="7.2059">
        <ele>330</ele>
        <time>2026-03-16T07:14:37Z</time>
      </trkpt>
      <trkpt lat="48.46339" lon="7.20599">
        <ele>329.9</ele>
        <time>2026-03-16T07:14:42Z</time>
      </trkpt>
      <trkpt lat="48.46346" lon="7.20607">
        <ele>329.7</ele>
        <time>2026-03-16T07:14:47Z</time>
      </trkpt>
      <trkpt lat="48.46352" lon="7.20616">
        <ele>329.6</ele>
        <time>2026-03-16T07:14:52Z</time>
      </trkpt>
      <trkpt lat="48.46357" lon="7.20622">
        <ele>329.6</ele>
        <time>2026-03-16T07:14:57Z</time>
      </trkpt>
      <trkpt lat="48.46364" lon="7.20628">
        <ele>329.5</ele>
        <time>2026-03-16T07:15:02Z</time>
      </trkpt>
      <trkpt lat="48.46372" lon="7.20636">
        <ele>329.4</ele>
        <time>2026-03-16T07:15:07Z</time>
      </trkpt>
      <trkpt lat="48.4638" lon="7.20642">
        <ele>329.3</ele>
        <time>2026-03-16T07:15:12Z</time>
      </trkpt>
      <trkpt lat="48.4639" lon="7.20647">
        <ele>329.2</ele>
        <time>2026-03-16T07:15:17Z</time>
      </trkpt>
      <trkpt lat="48.46397" lon="7.20653">
        <ele>329.1</ele>
        <time>2026-03-16T07:15:22Z</time>
      </trkpt>
      <trkpt lat="48.46402" lon="7.20659">
        <ele>329.1</ele>
        <time>2026-03-16T07:15:27Z</time>
      </trkpt>
      <trkpt lat="48.46408" lon="7.20668">
        <ele>329.1</ele>
        <time>2026-03-16T07:15:32Z</time>
      </trkpt>
      <trkpt lat="48.46415" lon="7.20676">
        <ele>328.8</ele>
        <time>2026-03-16T07:15:37Z</time>
      </trkpt>
      <trkpt lat="48.4642" lon="7.20681">
        <ele>328.7</ele>
        <time>2026-03-16T07:15:42Z</time>
      </trkpt>
      <trkpt lat="48.46426" lon="7.20686">
        <ele>328.5</ele>
        <time>2026-03-16T07:15:47Z</time>
      </trkpt>
      <trkpt lat="48.46433" lon="7.20692">
        <ele>328.4</ele>
        <time>2026-03-16T07:15:52Z</time>
      </trkpt>
      <trkpt lat="48.4644" lon="7.20698">
        <ele>328.2</ele>
        <time>2026-03-16T07:15:57Z</time>
      </trkpt>
      <trkpt lat="48.46446" lon="7.20703">
        <ele>328.1</ele>
        <time>2026-03-16T07:16:02Z</time>
      </trkpt>
      <trkpt lat="48.46452" lon="7.20711">
        <ele>327.9</ele>
        <time>2026-03-16T07:16:07Z</time>
      </trkpt>
      <trkpt lat="48.46457" lon="7.2072">
        <ele>327.7</ele>
        <time>2026-03-16T07:16:12Z</time>
      </trkpt>
      <trkpt lat="48.46463" lon="7.20728">
        <ele>327.5</ele>
        <time>2026-03-16T07:16:17Z</time>
      </trkpt>
      <trkpt lat="48.46469" lon="7.20735">
        <ele>327.4</ele>
        <time>2026-03-16T07:16:22Z</time>
      </trkpt>
      <trkpt lat="48.46476" lon="7.20743">
        <ele>327.2</ele>
        <time>2026-03-16T07:16:27Z</time>
      </trkpt>
      <trkpt lat="48.46482" lon="7.20749">
        <ele>327</ele>
        <time>2026-03-16T07:16:32Z</time>
      </trkpt>
      <trkpt lat="48.46485" lon="7.20755">
        <ele>326.9</ele>
        <time>2026-03-16T07:16:37Z</time>
      </trkpt>
      <trkpt lat="48.4649" lon="7.20761">
        <ele>326.9</ele>
        <time>2026-03-16T07:16:42Z</time>
      </trkpt>
      <trkpt lat="48.46498" lon="7.20769">
        <ele>326.8</ele>
        <time>2026-03-16T07:16:47Z</time>
      </trkpt>
      <trkpt lat="48.46504" lon="7.20779">
        <ele>326.7</ele>
        <time>2026-03-16T07:16:52Z</time>
      </trkpt>
      <trkpt lat="48.46508" lon="7.20787">
        <ele>326.6</ele>
        <time>2026-03-16T07:16:57Z</time>
      </trkpt>
      <trkpt lat="48.46512" lon="7.20794">
        <ele>326.5</ele>
        <time>2026-03-16T07:17:02Z</time>
      </trkpt>
      <trkpt lat="48.46516" lon="7.20804">
        <ele>326.4</ele>
        <time>2026-03-16T07:17:07Z</time>
      </trkpt>
      <trkpt lat="48.46524" lon="7.20812">
        <ele>326.3</ele>
        <time>2026-03-16T07:17:12Z</time>
      </trkpt>
      <trkpt lat="48.46531" lon="7.20821">
        <ele>326.2</ele>
        <time>2026-03-16T07:17:17Z</time>
      </trkpt>
      <trkpt lat="48.46538" lon="7.20829">
        <ele>326.1</ele>
        <time>2026-03-16T07:17:22Z</time>
      </trkpt>
      <trkpt lat="48.46545" lon="7.20835">
        <ele>326</ele>
        <time>2026-03-16T07:17:27Z</time>
      </trkpt>
      <trkpt lat="48.46551" lon="7.20841">
        <ele>325.9</ele>
        <time>2026-03-16T07:17:32Z</time>
      </trkpt>
      <trkpt lat="48.46558" lon="7.20847">
        <ele>325.9</ele>
        <time>2026-03-16T07:17:37Z</time>
      </trkpt>
      <trkpt lat="48.46565" lon="7.20852">
        <ele>325.8</ele>
        <time>2026-03-16T07:17:42Z</time>
      </trkpt>
      <trkpt lat="48.46572" lon="7.20858">
        <ele>325.7</ele>
        <time>2026-03-16T07:17:47Z</time>
      </trkpt>
      <trkpt lat="48.46578" lon="7.20863">
        <ele>325.7</ele>
        <time>2026-03-16T07:17:52Z</time>
      </trkpt>
      <trkpt lat="48.46584" lon="7.20868">
        <ele>325.6</ele>
        <time>2026-03-16T07:17:57Z</time>
      </trkpt>
      <trkpt lat="48.4659" lon="7.20872">
        <ele>325.4</ele>
        <time>2026-03-16T07:18:02Z</time>
      </trkpt>
      <trkpt lat="48.46598" lon="7.20877">
        <ele>325.1</ele>
        <time>2026-03-16T07:18:07Z</time>
      </trkpt>
      <trkpt lat="48.46605" lon="7.20881">
        <ele>324.9</ele>
        <time>2026-03-16T07:18:12Z</time>
      </trkpt>
      <trkpt lat="48.46611" lon="7.20885">
        <ele>324.8</ele>
        <time>2026-03-16T07:18:17Z</time>
      </trkpt>
      <trkpt lat="48.46619" lon="7.2089">
        <ele>324.6</ele>
        <time>2026-03-16T07:18:22Z</time>
      </trkpt>
      <trkpt lat="48.46626" lon="7.20897">
        <ele>324.5</ele>
        <time>2026-03-16T07:18:27Z</time>
      </trkpt>
      <trkpt lat="48.46632" lon="7.20902">
        <ele>324.4</ele>
        <time>2026-03-16T07:18:32Z</time>
      </trkpt>
      <trkpt lat="48.46639" lon="7.20909">
        <ele>324.3</ele>
        <time>2026-03-16T07:18:37Z</time>
      </trkpt>
      <trkpt lat="48.46645" lon="7.20916">
        <ele>324.3</ele>
        <time>2026-03-16T07:18:42Z</time>
      </trkpt>
      <trkpt lat="48.46651" lon="7.20922">
        <ele>324.1</ele>
        <time>2026-03-16T07:18:47Z</time>
      </trkpt>
      <trkpt lat="48.46658" lon="7.20929">
        <ele>323.9</ele>
        <time>2026-03-16T07:18:52Z</time>
      </trkpt>
      <trkpt lat="48.46663" lon="7.20938">
        <ele>323.8</ele>
        <time>2026-03-16T07:18:57Z</time>
      </trkpt>
      <trkpt lat="48.46669" lon="7.20945">
        <ele>323.6</ele>
        <time>2026-03-16T07:19:02Z</time>
      </trkpt>
      <trkpt lat="48.46674" lon="7.20953">
        <ele>323.5</ele>
        <time>2026-03-16T07:19:07Z</time>
      </trkpt>
      <trkpt lat="48.4668" lon="7.20961">
        <ele>323.3</ele>
        <time>2026-03-16T07:19:12Z</time>
      </trkpt>
      <trkpt lat="48.46685" lon="7.20969">
        <ele>323.2</ele>
        <time>2026-03-16T07:19:17Z</time>
      </trkpt>
      <trkpt lat="48.46689" lon="7.20977">
        <ele>323</ele>
        <time>2026-03-16T07:19:22Z</time>
      </trkpt>
      <trkpt lat="48.46693" lon="7.20985">
        <ele>322.9</ele>
        <time>2026-03-16T07:19:27Z</time>
      </trkpt>
      <trkpt lat="48.46699" lon="7.20994">
        <ele>322.7</ele>
        <time>2026-03-16T07:19:32Z</time>
      </trkpt>
      <trkpt lat="48.46705" lon="7.21003">
        <ele>322.5</ele>
        <time>2026-03-16T07:19:37Z</time>
      </trkpt>
      <trkpt lat="48.46709" lon="7.21013">
        <ele>322.4</ele>
        <time>2026-03-16T07:19:42Z</time>
      </trkpt>
      <trkpt lat="48.46712" lon="7.21022">
        <ele>322.3</ele>
        <time>2026-03-16T07:19:47Z</time>
      </trkpt>
      <trkpt lat="48.46716" lon="7.2103">
        <ele>322.3</ele>
        <time>2026-03-16T07:19:52Z</time>
      </trkpt>
      <trkpt lat="48.46722" lon="7.21037">
        <ele>322.2</ele>
        <time>2026-03-16T07:19:57Z</time>
      </trkpt>
      <trkpt lat="48.4673" lon="7.21045">
        <ele>322.1</ele>
        <time>2026-03-16T07:20:02Z</time>
      </trkpt>
      <trkpt lat="48.46737" lon="7.21053">
        <ele>322.1</ele>
        <time>2026-03-16T07:20:07Z</time>
      </trkpt>
      <trkpt lat="48.46743" lon="7.21063">
        <ele>322</ele>
        <time>2026-03-16T07:20:12Z</time>
      </trkpt>
      <trkpt lat="48.46748" lon="7.21069">
        <ele>322</ele>
        <time>2026-03-16T07:20:17Z</time>
      </trkpt>
      <trkpt lat="48.46754" lon="7.21075">
        <ele>321.9</ele>
        <time>2026-03-16T07:20:22Z</time>
      </trkpt>
      <trkpt lat="48.4676" lon="7.21084">
        <ele>321.8</ele>
        <time>2026-03-16T07:20:27Z</time>
      </trkpt>
      <trkpt lat="48.46763" lon="7.2109">
        <ele>321.6</ele>
        <time>2026-03-16T07:20:32Z</time>
      </trkpt>
      <trkpt lat="48.46768" lon="7.21097">
        <ele>321.4</ele>
        <time>2026-03-16T07:20:37Z</time>
      </trkpt>
      <trkpt lat="48.46774" lon="7.21102">
        <ele>321.3</ele>
        <time>2026-03-16T07:20:42Z</time>
      </trkpt>
      <trkpt lat="48.4678" lon="7.21109">
        <ele>321.1</ele>
        <time>2026-03-16T07:20:47Z</time>
      </trkpt>
      <trkpt lat="48.46788" lon="7.21118">
        <ele>320.9</ele>
        <time>2026-03-16T07:20:52Z</time>
      </trkpt>
      <trkpt lat="48.46794" lon="7.21126">
        <ele>320.7</ele>
        <time>2026-03-16T07:20:57Z</time>
      </trkpt>
      <trkpt lat="48.46799" lon="7.21135">
        <ele>320.6</ele>
        <time>2026-03-16T07:21:02Z</time>
      </trkpt>
      <trkpt lat="48.46804" lon="7.21141">
        <ele>320.5</ele>
        <time>2026-03-16T07:21:07Z</time>
      </trkpt>
      <trkpt lat="48.4681" lon="7.21149">
        <ele>320.3</ele>
        <time>2026-03-16T07:21:12Z</time>
      </trkpt>
      <trkpt lat="48.46815" lon="7.21158">
        <ele>320.2</ele>
        <time>2026-03-16T07:21:17Z</time>
      </trkpt>
      <trkpt lat="48.46821" lon="7.21165">
        <ele>320.2</ele>
        <time>2026-03-16T07:21:22Z</time>
      </trkpt>
      <trkpt lat="48.46827" lon="7.21172">
        <ele>320.1</ele>
        <time>2026-03-16T07:21:27Z</time>
      </trkpt>
      <trkpt lat="48.46833" lon="7.21179">
        <ele>320</ele>
        <time>2026-03-16T07:21:32Z</time>
      </trkpt>
      <trkpt lat="48.4684" lon="7.21187">
        <ele>320</ele>
        <time>2026-03-16T07:21:37Z</time>
      </trkpt>
      <trkpt lat="48.46847" lon="7.21194">
        <ele>319.9</ele>
        <time>2026-03-16T07:21:42Z</time>
      </trkpt>
      <trkpt lat="48.46852" lon="7.21201">
        <ele>320</ele>
        <time>2026-03-16T07:21:47Z</time>
      </trkpt>
      <trkpt lat="48.46858" lon="7.21206">
        <ele>320</ele>
        <time>2026-03-16T07:21:52Z</time>
      </trkpt>
      <trkpt lat="48.46865" lon="7.21212">
        <ele>320</ele>
        <time>2026-03-16T07:21:57Z</time>
      </trkpt>
      <trkpt lat="48.4687" lon="7.21219">
        <ele>320.1</ele>
        <time>2026-03-16T07:22:02Z</time>
      </trkpt>
      <trkpt lat="48.46877" lon="7.21225">
        <ele>320.2</ele>
        <time>2026-03-16T07:22:07Z</time>
      </trkpt>
      <trkpt lat="48.46882" lon="7.21229">
        <ele>320.3</ele>
        <time>2026-03-16T07:22:12Z</time>
      </trkpt>
      <trkpt lat="48.4689" lon="7.21234">
        <ele>320.4</ele>
        <time>2026-03-16T07:22:17Z</time>
      </trkpt>
      <trkpt lat="48.46898" lon="7.21239">
        <ele>320.6</ele>
        <time>2026-03-16T07:22:22Z</time>
      </trkpt>
      <trkpt lat="48.46904" lon="7.21243">
        <ele>320.7</ele>
        <time>2026-03-16T07:22:27Z</time>
      </trkpt>
      <trkpt lat="48.4691" lon="7.21247">
        <ele>320.9</ele>
        <time>2026-03-16T07:22:32Z</time>
      </trkpt>
      <trkpt lat="48.46916" lon="7.21253">
        <ele>321</ele>
        <time>2026-03-16T07:22:37Z</time>
      </trkpt>
      <trkpt lat="48.46922" lon="7.21258">
        <ele>320.9</ele>
        <time>2026-03-16T07:22:42Z</time>
      </trkpt>
      <trkpt lat="48.46928" lon="7.21262">
        <ele>320.9</ele>
        <time>2026-03-16T07:22:47Z</time>
      </trkpt>
      <trkpt lat="48.46932" lon="7.21268">
        <ele>320.9</ele>
        <time>2026-03-16T07:22:52Z</time>
      </trkpt>
      <trkpt lat="48.46939" lon="7.21272">
        <ele>320.8</ele>
        <time>2026-03-16T07:22:57Z</time>
      </trkpt>
      <trkpt lat="48.46945" lon="7.21277">
        <ele>320.8</ele>
        <time>2026-03-16T07:23:02Z</time>
      </trkpt>
      <trkpt lat="48.46952" lon="7.21279">
        <ele>320.7</ele>
        <time>2026-03-16T07:23:07Z</time>
      </trkpt>
      <trkpt lat="48.4696" lon="7.21283">
        <ele>320.7</ele>
        <time>2026-03-16T07:23:12Z</time>
      </trkpt>
      <trkpt lat="48.46967" lon="7.21287">
        <ele>320.7</ele>
        <time>2026-03-16T07:23:17Z</time>
      </trkpt>
      <trkpt lat="48.46975" lon="7.21292">
        <ele>320.7</ele>
        <time>2026-03-16T07:23:22Z</time>
      </trkpt>
      <trkpt lat="48.46982" lon="7.21294">
        <ele>320.6</ele>
        <time>2026-03-16T07:23:27Z</time>
      </trkpt>
      <trkpt lat="48.46988" lon="7.21297">
        <ele>320.6</ele>
        <time>2026-03-16T07:23:32Z</time>
      </trkpt>
      <trkpt lat="48.46993" lon="7.21305">
        <ele>320.7</ele>
        <time>2026-03-16T07:23:37Z</time>
      </trkpt>
      <trkpt lat="48.46997" lon="7.2131">
        <ele>320.7</ele>
        <time>2026-03-16T07:23:42Z</time>
      </trkpt>
      <trkpt lat="48.47002" lon="7.21317">
        <ele>320.7</ele>
        <time>2026-03-16T07:23:47Z</time>
      </trkpt>
      <trkpt lat="48.4701" lon="7.21324">
        <ele>320.6</ele>
        <time>2026-03-16T07:23:52Z</time>
      </trkpt>
      <trkpt lat="48.47013" lon="7.21331">
        <ele>320.5</ele>
        <time>2026-03-16T07:23:57Z</time>
      </trkpt>
      <trkpt lat="48.47016" lon="7.21336">
        <ele>320.4</ele>
        <time>2026-03-16T07:24:02Z</time>
      </trkpt>
      <trkpt lat="48.47024" lon="7.21342">
        <ele>320.2</ele>
        <time>2026-03-16T07:24:07Z</time>
      </trkpt>
      <trkpt lat="48.47029" lon="7.21349">
        <ele>320.1</ele>
        <time>2026-03-16T07:24:12Z</time>
      </trkpt>
      <trkpt lat="48.47037" lon="7.21353">
        <ele>319.8</ele>
        <time>2026-03-16T07:24:17Z</time>
      </trkpt>
      <trkpt lat="48.47043" lon="7.21359">
        <ele>319.6</ele>
        <time>2026-03-16T07:24:22Z</time>
      </trkpt>
      <trkpt lat="48.47048" lon="7.21368">
        <ele>319.4</ele>
        <time>2026-03-16T07:24:27Z</time>
      </trkpt>
      <trkpt lat="48.47052" lon="7.21377">
        <ele>319.3</ele>
        <time>2026-03-16T07:24:32Z</time>
      </trkpt>
      <trkpt lat="48.47056" lon="7.21382">
        <ele>319.2</ele>
        <time>2026-03-16T07:24:37Z</time>
      </trkpt>
      <trkpt lat="48.47058" lon="7.21384">
        <ele>319.1</ele>
        <time>2026-03-16T07:24:42Z</time>
      </trkpt>
      <trkpt lat="48.4706" lon="7.21384">
        <ele>319</ele>
        <time>2026-03-16T07:24:47Z</time>
      </trkpt>
      <trkpt lat="48.47061" lon="7.21387">
        <ele>319</ele>
        <time>2026-03-16T07:24:52Z</time>
      </trkpt>
      <trkpt lat="48.47063" lon="7.21391">
        <ele>318.9</ele>
        <time>2026-03-16T07:24:57Z</time>
      </trkpt>
      <trkpt lat="48.47063" lon="7.21391">
        <ele>318.9</ele>
        <time>2026-03-16T07:25:02Z</time>
      </trkpt>
      <trkpt lat="48.47063" lon="7.21391">
        <ele>318.9</ele>
        <time>2026-03-16T07:25:07Z</time>
      </trkpt>
      <trkpt lat="48.47063" lon="7.21391">
        <ele>318.9</ele>
        <time>2026-03-16T07:25:12Z</time>
      </trkpt>
      <trkpt lat="48.47063" lon="7.21391">
        <ele>318.9</ele>
        <time>2026-03-16T07:25:17Z</time>
      </trkpt>
      <trkpt lat="48.47063" lon="7.21391">
        <ele>318.9</ele>
        <time>2026-03-16T07:25:22Z</time>
      </trkpt>
      <trkpt lat="48.47063" lon="7.21395">
        <ele>318.9</ele>
        <time>2026-03-16T07:25:27Z</time>
      </trkpt>
      <trkpt lat="48.47066" lon="7.21403">
        <ele>318.8</ele>
        <time>2026-03-16T07:25:32Z</time>
      </trkpt>
      <trkpt lat="48.4707" lon="7.2141">
        <ele>318.6</ele>
        <time>2026-03-16T07:25:37Z</time>
      </trkpt>
      <trkpt lat="48.47074" lon="7.21417">
        <ele>318.4</ele>
        <time>2026-03-16T07:25:42Z</time>
      </trkpt>
      <trkpt lat="48.4708" lon="7.21424">
        <ele>318.2</ele>
        <time>2026-03-16T07:25:47Z</time>
      </trkpt>
      <trkpt lat="48.47086" lon="7.21428">
        <ele>317.9</ele>
        <time>2026-03-16T07:25:52Z</time>
      </trkpt>
      <trkpt lat="48.47094" lon="7.21429">
        <ele>317.8</ele>
        <time>2026-03-16T07:25:57Z</time>
      </trkpt>
      <trkpt lat="48.47101" lon="7.21435">
        <ele>317.6</ele>
        <time>2026-03-16T07:26:02Z</time>
      </trkpt>
      <trkpt lat="48.47109" lon="7.21437">
        <ele>317.5</ele>
        <time>2026-03-16T07:26:07Z</time>
      </trkpt>
      <trkpt lat="48.47117" lon="7.21441">
        <ele>317.3</ele>
        <time>2026-03-16T07:26:12Z</time>
      </trkpt>
      <trkpt lat="48.47121" lon="7.2145">
        <ele>317.3</ele>
        <time>2026-03-16T07:26:17Z</time>
      </trkpt>
      <trkpt lat="48.47126" lon="7.21453">
        <ele>317.2</ele>
        <time>2026-03-16T07:26:22Z</time>
      </trkpt>
      <trkpt lat="48.47127" lon="7.21454">
        <ele>317.2</ele>
        <time>2026-03-16T07:26:27Z</time>
      </trkpt>
      <trkpt lat="48.47128" lon="7.21454">
        <ele>317.2</ele>
        <time>2026-03-16T07:26:32Z</time>
      </trkpt>
      <trkpt lat="48.47128" lon="7.21454">
        <ele>317.2</ele>
        <time>2026-03-16T07:26:37Z</time>
      </trkpt>
      <trkpt lat="48.47128" lon="7.21454">
        <ele>317.2</ele>
        <time>2026-03-16T07:26:42Z</time>
      </trkpt>
      <trkpt lat="48.47133" lon="7.21457">
        <ele>317.1</ele>
        <time>2026-03-16T07:26:47Z</time>
      </trkpt>
      <trkpt lat="48.47137" lon="7.21463">
        <ele>317.1</ele>
        <time>2026-03-16T07:26:52Z</time>
      </trkpt>
      <trkpt lat="48.47144" lon="7.21466">
        <ele>317</ele>
        <time>2026-03-16T07:26:57Z</time>
      </trkpt>
      <trkpt lat="48.47151" lon="7.21467">
        <ele>316.9</ele>
        <time>2026-03-16T07:27:02Z</time>
      </trkpt>
      <trkpt lat="48.47157" lon="7.21471">
        <ele>316.8</ele>
        <time>2026-03-16T07:27:07Z</time>
      </trkpt>
      <trkpt lat="48.47164" lon="7.21476">
        <ele>316.8</ele>
        <time>2026-03-16T07:27:12Z</time>
      </trkpt>
      <trkpt lat="48.4717" lon="7.2148">
        <ele>316.8</ele>
        <time>2026-03-16T07:27:17Z</time>
      </trkpt>
      <trkpt lat="48.47176" lon="7.21486">
        <ele>316.8</ele>
        <time>2026-03-16T07:27:22Z</time>
      </trkpt>
      <trkpt lat="48.47183" lon="7.21492">
        <ele>316.9</ele>
        <time>2026-03-16T07:27:27Z</time>
      </trkpt>
      <trkpt lat="48.47188" lon="7.215">
        <ele>317</ele>
        <time>2026-03-16T07:27:32Z</time>
      </trkpt>
      <trkpt lat="48.47193" lon="7.21507">
        <ele>317.1</ele>
        <time>2026-03-16T07:27:37Z</time>
      </trkpt>
      <trkpt lat="48.47199" lon="7.21511">
        <ele>317.1</ele>
        <time>2026-03-16T07:27:42Z</time>
      </trkpt>
      <trkpt lat="48.47206" lon="7.21517">
        <ele>317.2</ele>
        <time>2026-03-16T07:27:47Z</time>
      </trkpt>
      <trkpt lat="48.47212" lon="7.21523">
        <ele>317.3</ele>
        <time>2026-03-16T07:27:52Z</time>
      </trkpt>
      <trkpt lat="48.47215" lon="7.2153">
        <ele>317.4</ele>
        <time>2026-03-16T07:27:57Z</time>
      </trkpt>
      <trkpt lat="48.4722" lon="7.21537">
        <ele>317.4</ele>
        <time>2026-03-16T07:28:02Z</time>
      </trkpt>
      <trkpt lat="48.47226" lon="7.21544">
        <ele>317.5</ele>
        <time>2026-03-16T07:28:07Z</time>
      </trkpt>
      <trkpt lat="48.47232" lon="7.21547">
        <ele>317.6</ele>
        <time>2026-03-16T07:28:12Z</time>
      </trkpt>
      <trkpt lat="48.4724" lon="7.21549">
        <ele>317.6</ele>
        <time>2026-03-16T07:28:17Z</time>
      </trkpt>
      <trkpt lat="48.47242" lon="7.21557">
        <ele>317.7</ele>
        <time>2026-03-16T07:28:22Z</time>
      </trkpt>
      <trkpt lat="48.47239" lon="7.21565">
        <ele>317.8</ele>
        <time>2026-03-16T07:28:27Z</time>
      </trkpt>
      <trkpt lat="48.4724" lon="7.21575">
        <ele>317.9</ele>
        <time>2026-03-16T07:28:32Z</time>
      </trkpt>
      <trkpt lat="48.47246" lon="7.2158">
        <ele>318</ele>
        <time>2026-03-16T07:28:37Z</time>
      </trkpt>
      <trkpt lat="48.47251" lon="7.21578">
        <ele>317.9</ele>
        <time>2026-03-16T07:28:42Z</time>
      </trkpt>
      <trkpt lat="48.47259" lon="7.21577">
        <ele>317.5</ele>
        <time>2026-03-16T07:28:47Z</time>
      </trkpt>
      <trkpt lat="48.47267" lon="7.21578">
        <ele>317.1</ele>
        <time>2026-03-16T07:28:52Z</time>
      </trkpt>
      <trkpt lat="48.47274" lon="7.2158">
        <ele>316.8</ele>
        <time>2026-03-16T07:28:57Z</time>
      </trkpt>
      <trkpt lat="48.47281" lon="7.21583">
        <ele>316.5</ele>
        <time>2026-03-16T07:29:02Z</time>
      </trkpt>
      <trkpt lat="48.47289" lon="7.21587">
        <ele>316.1</ele>
        <time>2026-03-16T07:29:07Z</time>
      </trkpt>
      <trkpt lat="48.47296" lon="7.2159">
        <ele>315.8</ele>
        <time>2026-03-16T07:29:12Z</time>
      </trkpt>
      <trkpt lat="48.47302" lon="7.21595">
        <ele>315.6</ele>
        <time>2026-03-16T07:29:17Z</time>
      </trkpt>
      <trkpt lat="48.47308" lon="7.21598">
        <ele>315.4</ele>
        <time>2026-03-16T07:29:22Z</time>
      </trkpt>
      <trkpt lat="48.47315" lon="7.21602">
        <ele>315.1</ele>
        <time>2026-03-16T07:29:27Z</time>
      </trkpt>
      <trkpt lat="48.47321" lon="7.21609">
        <ele>315</ele>
        <time>2026-03-16T07:29:32Z</time>
      </trkpt>
      <trkpt lat="48.47328" lon="7.21615">
        <ele>314.9</ele>
        <time>2026-03-16T07:29:37Z</time>
      </trkpt>
      <trkpt lat="48.47336" lon="7.21616">
        <ele>314.8</ele>
        <time>2026-03-16T07:29:42Z</time>
      </trkpt>
      <trkpt lat="48.47344" lon="7.21621">
        <ele>315</ele>
        <time>2026-03-16T07:29:47Z</time>
      </trkpt>
      <trkpt lat="48.47349" lon="7.21626">
        <ele>315.1</ele>
        <time>2026-03-16T07:29:52Z</time>
      </trkpt>
      <trkpt lat="48.47353" lon="7.21631">
        <ele>315.2</ele>
        <time>2026-03-16T07:29:57Z</time>
      </trkpt>
      <trkpt lat="48.47359" lon="7.21635">
        <ele>315.4</ele>
        <time>2026-03-16T07:30:02Z</time>
      </trkpt>
      <trkpt lat="48.47368" lon="7.21637">
        <ele>315.4</ele>
        <time>2026-03-16T07:30:07Z</time>
      </trkpt>
      <trkpt lat="48.47376" lon="7.2164">
        <ele>315.5</ele>
        <time>2026-03-16T07:30:12Z</time>
      </trkpt>
      <trkpt lat="48.47384" lon="7.21641">
        <ele>315.6</ele>
        <time>2026-03-16T07:30:17Z</time>
      </trkpt>
      <trkpt lat="48.47392" lon="7.21645">
        <ele>315.7</ele>
        <time>2026-03-16T07:30:22Z</time>
      </trkpt>
      <trkpt lat="48.47399" lon="7.21649">
        <ele>315.7</ele>
        <time>2026-03-16T07:30:27Z</time>
      </trkpt>
      <trkpt lat="48.47405" lon="7.21653">
        <ele>315.8</ele>
        <time>2026-03-16T07:30:32Z</time>
      </trkpt>
      <trkpt lat="48.47414" lon="7.21655">
        <ele>315.9</ele>
        <time>2026-03-16T07:30:37Z</time>
      </trkpt>
      <trkpt lat="48.47421" lon="7.21656">
        <ele>315.8</ele>
        <time>2026-03-16T07:30:42Z</time>
      </trkpt>
      <trkpt lat="48.47421" lon="7.21657">
        <ele>315.8</ele>
        <time>2026-03-16T07:30:47Z</time>
      </trkpt>
      <trkpt lat="48.47417" lon="7.21666">
        <ele>316</ele>
        <time>2026-03-16T07:30:52Z</time>
      </trkpt>
      <trkpt lat="48.47417" lon="7.21677">
        <ele>316.4</ele>
        <time>2026-03-16T07:30:57Z</time>
      </trkpt>
      <trkpt lat="48.47417" lon="7.21686">
        <ele>316.7</ele>
        <time>2026-03-16T07:31:02Z</time>
      </trkpt>
      <trkpt lat="48.47417" lon="7.21695">
        <ele>317</ele>
        <time>2026-03-16T07:31:07Z</time>
      </trkpt>
      <trkpt lat="48.47417" lon="7.21702">
        <ele>317.3</ele>
        <time>2026-03-16T07:31:12Z</time>
      </trkpt>
      <trkpt lat="48.4742" lon="7.21705">
        <ele>317.3</ele>
        <time>2026-03-16T07:31:17Z</time>
      </trkpt>
      <trkpt lat="48.4742" lon="7.21703">
        <ele>317.2</ele>
        <time>2026-03-16T07:31:22Z</time>
      </trkpt>
      <trkpt lat="48.47417" lon="7.21695">
        <ele>317</ele>
        <time>2026-03-16T07:31:27Z</time>
      </trkpt>
      <trkpt lat="48.47414" lon="7.21686">
        <ele>316.7</ele>
        <time>2026-03-16T07:31:32Z</time>
      </trkpt>
      <trkpt lat="48.47417" lon="7.21678">
        <ele>316.4</ele>
        <time>2026-03-16T07:31:37Z</time>
      </trkpt>
      <trkpt lat="48.4742" lon="7.21668">
        <ele>316</ele>
        <time>2026-03-16T07:31:42Z</time>
      </trkpt>
      <trkpt lat="48.47424" lon="7.2166">
        <ele>315.8</ele>
        <time>2026-03-16T07:31:47Z</time>
      </trkpt>
      <trkpt lat="48.4743" lon="7.21655">
        <ele>315.6</ele>
        <time>2026-03-16T07:31:52Z</time>
      </trkpt>
      <trkpt lat="48.47439" lon="7.2166">
        <ele>315.4</ele>
        <time>2026-03-16T07:31:57Z</time>
      </trkpt>
      <trkpt lat="48.47443" lon="7.21664">
        <ele>315.3</ele>
        <time>2026-03-16T07:32:02Z</time>
      </trkpt>
      <trkpt lat="48.47448" lon="7.21666">
        <ele>315.2</ele>
        <time>2026-03-16T07:32:07Z</time>
      </trkpt>
      <trkpt lat="48.47454" lon="7.21667">
        <ele>315.1</ele>
        <time>2026-03-16T07:32:12Z</time>
      </trkpt>
      <trkpt lat="48.47459" lon="7.21668">
        <ele>315</ele>
        <time>2026-03-16T07:32:17Z</time>
      </trkpt>
      <trkpt lat="48.47464" lon="7.21666">
        <ele>314.9</ele>
        <time>2026-03-16T07:32:22Z</time>
      </trkpt>
      <trkpt lat="48.47473" lon="7.21667">
        <ele>314.7</ele>
        <time>2026-03-16T07:32:27Z</time>
      </trkpt>
      <trkpt lat="48.47481" lon="7.21669">
        <ele>314.6</ele>
        <time>2026-03-16T07:32:32Z</time>
      </trkpt>
      <trkpt lat="48.4749" lon="7.21676">
        <ele>314.7</ele>
        <time>2026-03-16T07:32:37Z</time>
      </trkpt>
      <trkpt lat="48.47498" lon="7.21678">
        <ele>314.6</ele>
        <time>2026-03-16T07:32:42Z</time>
      </trkpt>
      <trkpt lat="48.47506" lon="7.21674">
        <ele>314.5</ele>
        <time>2026-03-16T07:32:47Z</time>
      </trkpt>
      <trkpt lat="48.47512" lon="7.21667">
        <ele>314.3</ele>
        <time>2026-03-16T07:32:52Z</time>
      </trkpt>
      <trkpt lat="48.4752" lon="7.21666">
        <ele>314.5</ele>
        <time>2026-03-16T07:32:57Z</time>
      </trkpt>
      <trkpt lat="48.47526" lon="7.21664">
        <ele>314.6</ele>
        <time>2026-03-16T07:33:02Z</time>
      </trkpt>
      <trkpt lat="48.47532" lon="7.21661">
        <ele>314.7</ele>
        <time>2026-03-16T07:33:07Z</time>
      </trkpt>
      <trkpt lat="48.47538" lon="7.21657">
        <ele>314.8</ele>
        <time>2026-03-16T07:33:12Z</time>
      </trkpt>
      <trkpt lat="48.47545" lon="7.21651">
        <ele>314.9</ele>
        <time>2026-03-16T07:33:17Z</time>
      </trkpt>
      <trkpt lat="48.47552" lon="7.21648">
        <ele>315</ele>
        <time>2026-03-16T07:33:22Z</time>
      </trkpt>
      <trkpt lat="48.47559" lon="7.21645">
        <ele>315</ele>
        <time>2026-03-16T07:33:27Z</time>
      </trkpt>
      <trkpt lat="48.47566" lon="7.21646">
        <ele>315.2</ele>
        <time>2026-03-16T07:33:32Z</time>
      </trkpt>
      <trkpt lat="48.47574" lon="7.21647">
        <ele>315.4</ele>
        <time>2026-03-16T07:33:37Z</time>
      </trkpt>
      <trkpt lat="48.47582" lon="7.21647">
        <ele>315.5</ele>
        <time>2026-03-16T07:33:42Z</time>
      </trkpt>
      <trkpt lat="48.4759" lon="7.21649">
        <ele>315.4</ele>
        <time>2026-03-16T07:33:47Z</time>
      </trkpt>
      <trkpt lat="48.47598" lon="7.2165">
        <ele>315.3</ele>
        <time>2026-03-16T07:33:52Z</time>
      </trkpt>
      <trkpt lat="48.47605" lon="7.21651">
        <ele>315.2</ele>
        <time>2026-03-16T07:33:57Z</time>
      </trkpt>
      <trkpt lat="48.47612" lon="7.21652">
        <ele>315</ele>
        <time>2026-03-16T07:34:02Z</time>
      </trkpt>
      <trkpt lat="48.4762" lon="7.2165">
        <ele>314.8</ele>
        <time>2026-03-16T07:34:07Z</time>
      </trkpt>
      <trkpt lat="48.47627" lon="7.21652">
        <ele>314.7</ele>
        <time>2026-03-16T07:34:12Z</time>
      </trkpt>
      <trkpt lat="48.47633" lon="7.21653">
        <ele>314.6</ele>
        <time>2026-03-16T07:34:17Z</time>
      </trkpt>
      <trkpt lat="48.4764" lon="7.21655">
        <ele>314.5</ele>
        <time>2026-03-16T07:34:22Z</time>
      </trkpt>
      <trkpt lat="48.47646" lon="7.21658">
        <ele>314.4</ele>
        <time>2026-03-16T07:34:27Z</time>
      </trkpt>
      <trkpt lat="48.47653" lon="7.21661">
        <ele>314.2</ele>
        <time>2026-03-16T07:34:32Z</time>
      </trkpt>
      <trkpt lat="48.4766" lon="7.21665">
        <ele>314.1</ele>
        <time>2026-03-16T07:34:37Z</time>
      </trkpt>
      <trkpt lat="48.4766" lon="7.21672">
        <ele>314.4</ele>
        <time>2026-03-16T07:34:42Z</time>
      </trkpt>
      <trkpt lat="48.4766" lon="7.21672">
        <ele>314.4</ele>
        <time>2026-03-16T07:34:47Z</time>
      </trkpt>
      <trkpt lat="48.4766" lon="7.21672">
        <ele>314.4</ele>
        <time>2026-03-16T07:34:52Z</time>
      </trkpt>
      <trkpt lat="48.4766" lon="7.21672">
        <ele>314.4</ele>
        <time>2026-03-16T07:34:57Z</time>
      </trkpt>
      <trkpt lat="48.4766" lon="7.21672">
        <ele>314.4</ele>
        <time>2026-03-16T07:35:02Z</time>
      </trkpt>
      <trkpt lat="48.4766" lon="7.21672">
        <ele>314.4</ele>
        <time>2026-03-16T07:35:07Z</time>
      </trkpt>
      <trkpt lat="48.47655" lon="7.21679">
        <ele>314.9</ele>
        <time>2026-03-16T07:35:12Z</time>
      </trkpt>
      <trkpt lat="48.47656" lon="7.21688">
        <ele>315.3</ele>
        <time>2026-03-16T07:35:17Z</time>
      </trkpt>
      <trkpt lat="48.47657" lon="7.21694">
        <ele>315.6</ele>
        <time>2026-03-16T07:35:22Z</time>
      </trkpt>
      <trkpt lat="48.47658" lon="7.21697">
        <ele>315.7</ele>
        <time>2026-03-16T07:35:27Z</time>
      </trkpt>
      <trkpt lat="48.47654" lon="7.21702">
        <ele>316.1</ele>
        <time>2026-03-16T07:35:32Z</time>
      </trkpt>
      <trkpt lat="48.47647" lon="7.21705">
        <ele>316.4</ele>
        <time>2026-03-16T07:35:37Z</time>
      </trkpt>
      <trkpt lat="48.47639" lon="7.21708">
        <ele>316.8</ele>
        <time>2026-03-16T07:35:42Z</time>
      </trkpt>
      <trkpt lat="48.47632" lon="7.21716">
        <ele>317.4</ele>
        <time>2026-03-16T07:35:47Z</time>
      </trkpt>
      <trkpt lat="48.47628" lon="7.21722">
        <ele>317.9</ele>
        <time>2026-03-16T07:35:52Z</time>
      </trkpt>
      <trkpt lat="48.47629" lon="7.21732">
        <ele>318.4</ele>
        <time>2026-03-16T07:35:57Z</time>
      </trkpt>
      <trkpt lat="48.47628" lon="7.2174">
        <ele>318.9</ele>
        <time>2026-03-16T07:36:02Z</time>
      </trkpt>
      <trkpt lat="48.47624" lon="7.2174">
        <ele>319</ele>
        <time>2026-03-16T07:36:07Z</time>
      </trkpt>
      <trkpt lat="48.47622" lon="7.2174">
        <ele>319.1</ele>
        <time>2026-03-16T07:36:12Z</time>
      </trkpt>
      <trkpt lat="48.47622" lon="7.2174">
        <ele>319.1</ele>
        <time>2026-03-16T07:36:17Z</time>
      </trkpt>
      <trkpt lat="48.47622" lon="7.2174">
        <ele>319.1</ele>
        <time>2026-03-16T07:36:22Z</time>
      </trkpt>
      <trkpt lat="48.47622" lon="7.2174">
        <ele>319.1</ele>
        <time>2026-03-16T07:36:27Z</time>
      </trkpt>
      <trkpt lat="48.47618" lon="7.21737">
        <ele>319</ele>
        <time>2026-03-16T07:36:32Z</time>
      </trkpt>
      <trkpt lat="48.47618" lon="7.21737">
        <ele>319</ele>
        <time>2026-03-16T07:36:37Z</time>
      </trkpt>
      <trkpt lat="48.47618" lon="7.21737">
        <ele>319</ele>
        <time>2026-03-16T07:36:42Z</time>
      </trkpt>
      <trkpt lat="48.47611" lon="7.21738">
        <ele>319.3</ele>
        <time>2026-03-16T07:36:47Z</time>
      </trkpt>
      <trkpt lat="48.47606" lon="7.21737">
        <ele>319.4</ele>
        <time>2026-03-16T07:36:52Z</time>
      </trkpt>
      <trkpt lat="48.47603" lon="7.21738">
        <ele>319.6</ele>
        <time>2026-03-16T07:36:57Z</time>
      </trkpt>
      <trkpt lat="48.47608" lon="7.2174">
        <ele>319.5</ele>
        <time>2026-03-16T07:37:02Z</time>
      </trkpt>
      <trkpt lat="48.47615" lon="7.21745">
        <ele>319.6</ele>
        <time>2026-03-16T07:37:07Z</time>
      </trkpt>
      <trkpt lat="48.47621" lon="7.2175">
        <ele>319.6</ele>
        <time>2026-03-16T07:37:12Z</time>
      </trkpt>
      <trkpt lat="48.47626" lon="7.21757">
        <ele>322.1</ele>
        <time>2026-03-16T07:37:17Z</time>
      </trkpt>
      <trkpt lat="48.4763" lon="7.21766">
        <ele>325.3</ele>
        <time>2026-03-16T07:37:22Z</time>
      </trkpt>
      <trkpt lat="48.47632" lon="7.21776">
        <ele>328.9</ele>
        <time>2026-03-16T07:37:27Z</time>
      </trkpt>
      <trkpt lat="48.47639" lon="7.21785">
        <ele>331.7</ele>
        <time>2026-03-16T07:37:32Z</time>
      </trkpt>
      <trkpt lat="48.47646" lon="7.21793">
        <ele>334.1</ele>
        <time>2026-03-16T07:37:37Z</time>
      </trkpt>
      <trkpt lat="48.47648" lon="7.21803">
        <ele>337.5</ele>
        <time>2026-03-16T07:37:42Z</time>
      </trkpt>
      <trkpt lat="48.4765" lon="7.21812">
        <ele>340.5</ele>
        <time>2026-03-16T07:37:47Z</time>
      </trkpt>
      <trkpt lat="48.47653" lon="7.21821">
        <ele>343.3</ele>
        <time>2026-03-16T07:37:52Z</time>
      </trkpt>
      <trkpt lat="48.47658" lon="7.21829">
        <ele>345.5</ele>
        <time>2026-03-16T07:37:57Z</time>
      </trkpt>
      <trkpt lat="48.47663" lon="7.21838">
        <ele>348.4</ele>
        <time>2026-03-16T07:38:02Z</time>
      </trkpt>
      <trkpt lat="48.47664" lon="7.21847">
        <ele>352</ele>
        <time>2026-03-16T07:38:07Z</time>
      </trkpt>
      <trkpt lat="48.4766" lon="7.21854">
        <ele>355.5</ele>
        <time>2026-03-16T07:38:12Z</time>
      </trkpt>
      <trkpt lat="48.47659" lon="7.21861">
        <ele>358.5</ele>
        <time>2026-03-16T07:38:17Z</time>
      </trkpt>
      <trkpt lat="48.4766" lon="7.21867">
        <ele>360.9</ele>
        <time>2026-03-16T07:38:22Z</time>
      </trkpt>
      <trkpt lat="48.47661" lon="7.21873">
        <ele>363.2</ele>
        <time>2026-03-16T07:38:27Z</time>
      </trkpt>
      <trkpt lat="48.47662" lon="7.21879">
        <ele>365.5</ele>
        <time>2026-03-16T07:38:32Z</time>
      </trkpt>
      <trkpt lat="48.47662" lon="7.21886">
        <ele>368.4</ele>
        <time>2026-03-16T07:38:37Z</time>
      </trkpt>
      <trkpt lat="48.47664" lon="7.21894">
        <ele>371.3</ele>
        <time>2026-03-16T07:38:42Z</time>
      </trkpt>
      <trkpt lat="48.47667" lon="7.21901">
        <ele>373.4</ele>
        <time>2026-03-16T07:38:47Z</time>
      </trkpt>
      <trkpt lat="48.47669" lon="7.21904">
        <ele>373.5</ele>
        <time>2026-03-16T07:38:52Z</time>
      </trkpt>
      <trkpt lat="48.47671" lon="7.21911">
        <ele>375.2</ele>
        <time>2026-03-16T07:38:57Z</time>
      </trkpt>
      <trkpt lat="48.47674" lon="7.21916">
        <ele>375.4</ele>
        <time>2026-03-16T07:39:02Z</time>
      </trkpt>
      <trkpt lat="48.47675" lon="7.21922">
        <ele>376.7</ele>
        <time>2026-03-16T07:39:07Z</time>
      </trkpt>
      <trkpt lat="48.47677" lon="7.21926">
        <ele>376.8</ele>
        <time>2026-03-16T07:39:12Z</time>
      </trkpt>
      <trkpt lat="48.47678" lon="7.21932">
        <ele>378</ele>
        <time>2026-03-16T07:39:17Z</time>
      </trkpt>
      <trkpt lat="48.4768" lon="7.21937">
        <ele>378.4</ele>
        <time>2026-03-16T07:39:22Z</time>
      </trkpt>
      <trkpt lat="48.47681" lon="7.21941">
        <ele>379.1</ele>
        <time>2026-03-16T07:39:27Z</time>
      </trkpt>
      <trkpt lat="48.47681" lon="7.21946">
        <ele>380.6</ele>
        <time>2026-03-16T07:39:32Z</time>
      </trkpt>
      <trkpt lat="48.47681" lon="7.21951">
        <ele>382.2</ele>
        <time>2026-03-16T07:39:37Z</time>
      </trkpt>
      <trkpt lat="48.47684" lon="7.21956">
        <ele>382</ele>
        <time>2026-03-16T07:39:42Z</time>
      </trkpt>
      <trkpt lat="48.47687" lon="7.2196">
        <ele>381.6</ele>
        <time>2026-03-16T07:39:47Z</time>
      </trkpt>
      <trkpt lat="48.47687" lon="7.21967">
        <ele>383.7</ele>
        <time>2026-03-16T07:39:52Z</time>
      </trkpt>
      <trkpt lat="48.47687" lon="7.21974">
        <ele>385.9</ele>
        <time>2026-03-16T07:39:57Z</time>
      </trkpt>
      <trkpt lat="48.47686" lon="7.21979">
        <ele>388</ele>
        <time>2026-03-16T07:40:02Z</time>
      </trkpt>
      <trkpt lat="48.47686" lon="7.21981">
        <ele>388.6</ele>
        <time>2026-03-16T07:40:07Z</time>
      </trkpt>
      <trkpt lat="48.47686" lon="7.21982">
        <ele>389</ele>
        <time>2026-03-16T07:40:12Z</time>
      </trkpt>
      <trkpt lat="48.47686" lon="7.21982">
        <ele>389</ele>
        <time>2026-03-16T07:40:17Z</time>
      </trkpt>
      <trkpt lat="48.47686" lon="7.21982">
        <ele>389</ele>
        <time>2026-03-16T07:40:22Z</time>
      </trkpt>
      <trkpt lat="48.47686" lon="7.21982">
        <ele>389</ele>
        <time>2026-03-16T07:40:27Z</time>
      </trkpt>
      <trkpt lat="48.47686" lon="7.21982">
        <ele>389</ele>
        <time>2026-03-16T07:40:32Z</time>
      </trkpt>
      <trkpt lat="48.47686" lon="7.21982">
        <ele>389</ele>
        <time>2026-03-16T07:40:37Z</time>
      </trkpt>
      <trkpt lat="48.47686" lon="7.21982">
        <ele>389</ele>
        <time>2026-03-16T07:40:42Z</time>
      </trkpt>
      <trkpt lat="48.47686" lon="7.21996">
        <ele>393.3</ele>
        <time>2026-03-16T07:40:47Z</time>
      </trkpt>
      <trkpt lat="48.47686" lon="7.21998">
        <ele>393.9</ele>
        <time>2026-03-16T07:40:52Z</time>
      </trkpt>
      <trkpt lat="48.47686" lon="7.21998">
        <ele>393.9</ele>
        <time>2026-03-16T07:40:57Z</time>
      </trkpt>
      <trkpt lat="48.47686" lon="7.21998">
        <ele>393.9</ele>
        <time>2026-03-16T07:41:02Z</time>
      </trkpt>
      <trkpt lat="48.47686" lon="7.21998">
        <ele>393.9</ele>
        <time>2026-03-16T07:41:07Z</time>
      </trkpt>
      <trkpt lat="48.47686" lon="7.21998">
        <ele>393.9</ele>
        <time>2026-03-16T07:41:12Z</time>
      </trkpt>
      <trkpt lat="48.47686" lon="7.21998">
        <ele>393.9</ele>
        <time>2026-03-16T07:41:17Z</time>
      </trkpt>
      <trkpt lat="48.47686" lon="7.21998">
        <ele>393.9</ele>
        <time>2026-03-16T07:41:22Z</time>
      </trkpt>
      <trkpt lat="48.47686" lon="7.21998">
        <ele>393.9</ele>
        <time>2026-03-16T07:41:27Z</time>
      </trkpt>
      <trkpt lat="48.47686" lon="7.21998">
        <ele>393.9</ele>
        <time>2026-03-16T07:41:32Z</time>
      </trkpt>
      <trkpt lat="48.47686" lon="7.21998">
        <ele>393.9</ele>
        <time>2026-03-16T07:41:37Z</time>
      </trkpt>
      <trkpt lat="48.47686" lon="7.21998">
        <ele>393.9</ele>
        <time>2026-03-16T07:41:42Z</time>
      </trkpt>
      <trkpt lat="48.47686" lon="7.21998">
        <ele>393.9</ele>
        <time>2026-03-16T07:41:47Z</time>
      </trkpt>
      <trkpt lat="48.47683" lon="7.22012">
        <ele>399.2</ele>
        <time>2026-03-16T07:41:52Z</time>
      </trkpt>
      <trkpt lat="48.47684" lon="7.22014">
        <ele>399.2</ele>
        <time>2026-03-16T07:41:57Z</time>
      </trkpt>
      <trkpt lat="48.47684" lon="7.22014">
        <ele>399.2</ele>
        <time>2026-03-16T07:42:02Z</time>
      </trkpt>
      <trkpt lat="48.47684" lon="7.22014">
        <ele>399.2</ele>
        <time>2026-03-16T07:42:07Z</time>
      </trkpt>
      <trkpt lat="48.4769" lon="7.22025">
        <ele>398.8</ele>
        <time>2026-03-16T07:42:12Z</time>
      </trkpt>
      <trkpt lat="48.47691" lon="7.22026">
        <ele>398.6</ele>
        <time>2026-03-16T07:42:17Z</time>
      </trkpt>
      <trkpt lat="48.47691" lon="7.22026">
        <ele>398.6</ele>
        <time>2026-03-16T07:42:22Z</time>
      </trkpt>
      <trkpt lat="48.47691" lon="7.22026">
        <ele>398.6</ele>
        <time>2026-03-16T07:42:27Z</time>
      </trkpt>
      <trkpt lat="48.47691" lon="7.22026">
        <ele>398.6</ele>
        <time>2026-03-16T07:42:32Z</time>
      </trkpt>
      <trkpt lat="48.47687" lon="7.22014">
        <ele>397.6</ele>
        <time>2026-03-16T07:42:37Z</time>
      </trkpt>
      <trkpt lat="48.47684" lon="7.22008">
        <ele>397.7</ele>
        <time>2026-03-16T07:42:42Z</time>
      </trkpt>
      <trkpt lat="48.47679" lon="7.22003">
        <ele>399.1</ele>
        <time>2026-03-16T07:42:47Z</time>
      </trkpt>
      <trkpt lat="48.47674" lon="7.22">
        <ele>401</ele>
        <time>2026-03-16T07:42:52Z</time>
      </trkpt>
      <trkpt lat="48.47668" lon="7.21997">
        <ele>403.4</ele>
        <time>2026-03-16T07:42:57Z</time>
      </trkpt>
      <trkpt lat="48.47664" lon="7.21993">
        <ele>403.9</ele>
        <time>2026-03-16T07:43:02Z</time>
      </trkpt>
      <trkpt lat="48.47661" lon="7.21991">
        <ele>404.3</ele>
        <time>2026-03-16T07:43:07Z</time>
      </trkpt>
      <trkpt lat="48.47657" lon="7.2199">
        <ele>405.5</ele>
        <time>2026-03-16T07:43:12Z</time>
      </trkpt>
      <trkpt lat="48.47654" lon="7.21988">
        <ele>405.9</ele>
        <time>2026-03-16T07:43:17Z</time>
      </trkpt>
      <trkpt lat="48.47652" lon="7.21983">
        <ele>405</ele>
        <time>2026-03-16T07:43:22Z</time>
      </trkpt>
      <trkpt lat="48.47649" lon="7.21981">
        <ele>405.4</ele>
        <time>2026-03-16T07:43:27Z</time>
      </trkpt>
      <trkpt lat="48.47646" lon="7.21978">
        <ele>405.4</ele>
        <time>2026-03-16T07:43:32Z</time>
      </trkpt>
      <trkpt lat="48.47644" lon="7.21974">
        <ele>404.8</ele>
        <time>2026-03-16T07:43:37Z</time>
      </trkpt>
      <trkpt lat="48.47642" lon="7.21971">
        <ele>404.4</ele>
        <time>2026-03-16T07:43:42Z</time>
      </trkpt>
      <trkpt lat="48.47639" lon="7.21965">
        <ele>403.4</ele>
        <time>2026-03-16T07:43:47Z</time>
      </trkpt>
      <trkpt lat="48.47635" lon="7.21964">
        <ele>404.3</ele>
        <time>2026-03-16T07:43:52Z</time>
      </trkpt>
      <trkpt lat="48.47631" lon="7.21962">
        <ele>404.9</ele>
        <time>2026-03-16T07:43:57Z</time>
      </trkpt>
      <trkpt lat="48.47627" lon="7.21957">
        <ele>404.4</ele>
        <time>2026-03-16T07:44:02Z</time>
      </trkpt>
      <trkpt lat="48.47625" lon="7.21953">
        <ele>403.6</ele>
        <time>2026-03-16T07:44:07Z</time>
      </trkpt>
      <trkpt lat="48.47623" lon="7.2195">
        <ele>403.1</ele>
        <time>2026-03-16T07:44:12Z</time>
      </trkpt>
      <trkpt lat="48.4762" lon="7.21943">
        <ele>401.4</ele>
        <time>2026-03-16T07:44:17Z</time>
      </trkpt>
      <trkpt lat="48.47617" lon="7.21936">
        <ele>399.7</ele>
        <time>2026-03-16T07:44:22Z</time>
      </trkpt>
      <trkpt lat="48.47616" lon="7.21934">
        <ele>399.2</ele>
        <time>2026-03-16T07:44:27Z</time>
      </trkpt>
      <trkpt lat="48.47614" lon="7.21932">
        <ele>399</ele>
        <time>2026-03-16T07:44:32Z</time>
      </trkpt>
      <trkpt lat="48.47611" lon="7.2193">
        <ele>399.1</ele>
        <time>2026-03-16T07:44:37Z</time>
      </trkpt>
      <trkpt lat="48.4761" lon="7.21926">
        <ele>397.8</ele>
        <time>2026-03-16T07:44:42Z</time>
      </trkpt>
      <trkpt lat="48.47608" lon="7.21922">
        <ele>396.8</ele>
        <time>2026-03-16T07:44:47Z</time>
      </trkpt>
      <trkpt lat="48.47605" lon="7.21917">
        <ele>395.7</ele>
        <time>2026-03-16T07:44:52Z</time>
      </trkpt>
      <trkpt lat="48.47603" lon="7.21912">
        <ele>393.7</ele>
        <time>2026-03-16T07:44:57Z</time>
      </trkpt>
      <trkpt lat="48.47601" lon="7.21909">
        <ele>392.6</ele>
        <time>2026-03-16T07:45:02Z</time>
      </trkpt>
      <trkpt lat="48.47599" lon="7.21905">
        <ele>391</ele>
        <time>2026-03-16T07:45:07Z</time>
      </trkpt>
      <trkpt lat="48.47597" lon="7.21901">
        <ele>389.4</ele>
        <time>2026-03-16T07:45:12Z</time>
      </trkpt>
      <trkpt lat="48.47596" lon="7.21898">
        <ele>388.1</ele>
        <time>2026-03-16T07:45:17Z</time>
      </trkpt>
      <trkpt lat="48.47596" lon="7.21897">
        <ele>387.6</ele>
        <time>2026-03-16T07:45:22Z</time>
      </trkpt>
      <trkpt lat="48.47594" lon="7.21893">
        <ele>385.9</ele>
        <time>2026-03-16T07:45:27Z</time>
      </trkpt>
      <trkpt lat="48.4759" lon="7.21891">
        <ele>385.7</ele>
        <time>2026-03-16T07:45:32Z</time>
      </trkpt>
      <trkpt lat="48.47586" lon="7.2189">
        <ele>386</ele>
        <time>2026-03-16T07:45:37Z</time>
      </trkpt>
      <trkpt lat="48.47583" lon="7.21893">
        <ele>388.2</ele>
        <time>2026-03-16T07:45:42Z</time>
      </trkpt>
      <trkpt lat="48.4758" lon="7.21894">
        <ele>388.9</ele>
        <time>2026-03-16T07:45:47Z</time>
      </trkpt>
      <trkpt lat="48.47576" lon="7.21892">
        <ele>387.9</ele>
        <time>2026-03-16T07:45:52Z</time>
      </trkpt>
      <trkpt lat="48.47573" lon="7.21886">
        <ele>384.7</ele>
        <time>2026-03-16T07:45:57Z</time>
      </trkpt>
      <trkpt lat="48.4757" lon="7.2188">
        <ele>381.5</ele>
        <time>2026-03-16T07:46:02Z</time>
      </trkpt>
      <trkpt lat="48.47569" lon="7.21875">
        <ele>378.8</ele>
        <time>2026-03-16T07:46:07Z</time>
      </trkpt>
      <trkpt lat="48.47572" lon="7.21869">
        <ele>375.4</ele>
        <time>2026-03-16T07:46:12Z</time>
      </trkpt>
      <trkpt lat="48.47577" lon="7.21865">
        <ele>373.2</ele>
        <time>2026-03-16T07:46:17Z</time>
      </trkpt>
      <trkpt lat="48.47581" lon="7.21863">
        <ele>372</ele>
        <time>2026-03-16T07:46:22Z</time>
      </trkpt>
      <trkpt lat="48.47581" lon="7.21863">
        <ele>372</ele>
        <time>2026-03-16T07:46:27Z</time>
      </trkpt>
      <trkpt lat="48.47581" lon="7.21863">
        <ele>372</ele>
        <time>2026-03-16T07:46:32Z</time>
      </trkpt>
      <trkpt lat="48.47581" lon="7.21863">
        <ele>372</ele>
        <time>2026-03-16T07:46:37Z</time>
      </trkpt>
      <trkpt lat="48.47581" lon="7.21863">
        <ele>372</ele>
        <time>2026-03-16T07:46:42Z</time>
      </trkpt>
      <trkpt lat="48.47584" lon="7.21859">
        <ele>369.8</ele>
        <time>2026-03-16T07:46:47Z</time>
      </trkpt>
      <trkpt lat="48.47586" lon="7.21851">
        <ele>365.1</ele>
        <time>2026-03-16T07:46:52Z</time>
      </trkpt>
      <trkpt lat="48.47589" lon="7.21846">
        <ele>362</ele>
        <time>2026-03-16T07:46:57Z</time>
      </trkpt>
      <trkpt lat="48.47588" lon="7.21844">
        <ele>361.1</ele>
        <time>2026-03-16T07:47:02Z</time>
      </trkpt>
      <trkpt lat="48.47587" lon="7.21843">
        <ele>360.7</ele>
        <time>2026-03-16T07:47:07Z</time>
      </trkpt>
      <trkpt lat="48.47587" lon="7.21843">
        <ele>360.7</ele>
        <time>2026-03-16T07:47:12Z</time>
      </trkpt>
      <trkpt lat="48.47587" lon="7.21843">
        <ele>360.7</ele>
        <time>2026-03-16T07:47:17Z</time>
      </trkpt>
      <trkpt lat="48.47587" lon="7.21843">
        <ele>360.7</ele>
        <time>2026-03-16T07:47:22Z</time>
      </trkpt>
      <trkpt lat="48.47587" lon="7.21843">
        <ele>360.7</ele>
        <time>2026-03-16T07:47:27Z</time>
      </trkpt>
      <trkpt lat="48.47587" lon="7.21843">
        <ele>360.7</ele>
        <time>2026-03-16T07:47:32Z</time>
      </trkpt>
      <trkpt lat="48.47587" lon="7.21843">
        <ele>360.7</ele>
        <time>2026-03-16T07:47:37Z</time>
      </trkpt>
      <trkpt lat="48.47587" lon="7.21843">
        <ele>360.7</ele>
        <time>2026-03-16T07:47:42Z</time>
      </trkpt>
      <trkpt lat="48.47587" lon="7.21843">
        <ele>360.7</ele>
        <time>2026-03-16T07:47:47Z</time>
      </trkpt>
      <trkpt lat="48.47587" lon="7.21843">
        <ele>360.7</ele>
        <time>2026-03-16T07:47:52Z</time>
      </trkpt>
      <trkpt lat="48.47587" lon="7.21843">
        <ele>360.7</ele>
        <time>2026-03-16T07:47:57Z</time>
      </trkpt>
      <trkpt lat="48.47587" lon="7.21843">
        <ele>360.7</ele>
        <time>2026-03-16T07:48:02Z</time>
      </trkpt>
      <trkpt lat="48.47587" lon="7.21843">
        <ele>360.7</ele>
        <time>2026-03-16T07:48:07Z</time>
      </trkpt>
      <trkpt lat="48.47587" lon="7.21843">
        <ele>360.7</ele>
        <time>2026-03-16T07:48:12Z</time>
      </trkpt>
      <trkpt lat="48.47587" lon="7.21843">
        <ele>360.7</ele>
        <time>2026-03-16T07:48:17Z</time>
      </trkpt>
      <trkpt lat="48.47587" lon="7.21843">
        <ele>360.7</ele>
        <time>2026-03-16T07:48:22Z</time>
      </trkpt>
      <trkpt lat="48.47587" lon="7.21843">
        <ele>360.7</ele>
        <time>2026-03-16T07:48:27Z</time>
      </trkpt>
      <trkpt lat="48.47587" lon="7.21843">
        <ele>360.7</ele>
        <time>2026-03-16T07:48:32Z</time>
      </trkpt>
      <trkpt lat="48.47587" lon="7.21843">
        <ele>360.7</ele>
        <time>2026-03-16T07:48:37Z</time>
      </trkpt>
      <trkpt lat="48.47587" lon="7.21843">
        <ele>360.7</ele>
        <time>2026-03-16T07:48:42Z</time>
      </trkpt>
      <trkpt lat="48.47587" lon="7.21843">
        <ele>360.7</ele>
        <time>2026-03-16T07:48:47Z</time>
      </trkpt>
      <trkpt lat="48.47587" lon="7.21843">
        <ele>360.7</ele>
        <time>2026-03-16T07:48:52Z</time>
      </trkpt>
      <trkpt lat="48.47585" lon="7.21849">
        <ele>364.2</ele>
        <time>2026-03-16T07:48:57Z</time>
      </trkpt>
      <trkpt lat="48.4758" lon="7.21854">
        <ele>367.2</ele>
        <time>2026-03-16T07:49:02Z</time>
      </trkpt>
      <trkpt lat="48.47577" lon="7.2186">
        <ele>370.4</ele>
        <time>2026-03-16T07:49:07Z</time>
      </trkpt>
      <trkpt lat="48.47575" lon="7.21866">
        <ele>373.7</ele>
        <time>2026-03-16T07:49:12Z</time>
      </trkpt>
      <trkpt lat="48.47573" lon="7.21871">
        <ele>376.5</ele>
        <time>2026-03-16T07:49:17Z</time>
      </trkpt>
      <trkpt lat="48.47568" lon="7.21879">
        <ele>381</ele>
        <time>2026-03-16T07:49:22Z</time>
      </trkpt>
      <trkpt lat="48.47563" lon="7.21884">
        <ele>383.9</ele>
        <time>2026-03-16T07:49:27Z</time>
      </trkpt>
      <trkpt lat="48.47563" lon="7.21884">
        <ele>383.9</ele>
        <time>2026-03-16T07:49:32Z</time>
      </trkpt>
      <trkpt lat="48.47563" lon="7.21884">
        <ele>383.9</ele>
        <time>2026-03-16T07:49:37Z</time>
      </trkpt>
      <trkpt lat="48.47569" lon="7.21894">
        <ele>389.2</ele>
        <time>2026-03-16T07:49:42Z</time>
      </trkpt>
      <trkpt lat="48.4757" lon="7.21895">
        <ele>389.7</ele>
        <time>2026-03-16T07:49:47Z</time>
      </trkpt>
      <trkpt lat="48.47574" lon="7.21901">
        <ele>392.9</ele>
        <time>2026-03-16T07:49:52Z</time>
      </trkpt>
      <trkpt lat="48.47578" lon="7.21908">
        <ele>396.5</ele>
        <time>2026-03-16T07:49:57Z</time>
      </trkpt>
      <trkpt lat="48.47582" lon="7.21914">
        <ele>399.6</ele>
        <time>2026-03-16T07:50:02Z</time>
      </trkpt>
      <trkpt lat="48.47584" lon="7.21916">
        <ele>400.5</ele>
        <time>2026-03-16T07:50:07Z</time>
      </trkpt>
      <trkpt lat="48.47585" lon="7.21915">
        <ele>399.7</ele>
        <time>2026-03-16T07:50:12Z</time>
      </trkpt>
      <trkpt lat="48.47588" lon="7.21923">
        <ele>402.4</ele>
        <time>2026-03-16T07:50:17Z</time>
      </trkpt>
      <trkpt lat="48.4759" lon="7.2193">
        <ele>404.8</ele>
        <time>2026-03-16T07:50:22Z</time>
      </trkpt>
      <trkpt lat="48.47592" lon="7.21938">
        <ele>407.5</ele>
        <time>2026-03-16T07:50:27Z</time>
      </trkpt>
      <trkpt lat="48.47595" lon="7.21947">
        <ele>410.3</ele>
        <time>2026-03-16T07:50:32Z</time>
      </trkpt>
      <trkpt lat="48.47599" lon="7.21955">
        <ele>412.3</ele>
        <time>2026-03-16T07:50:37Z</time>
      </trkpt>
      <trkpt lat="48.47604" lon="7.21964">
        <ele>414.3</ele>
        <time>2026-03-16T07:50:42Z</time>
      </trkpt>
      <trkpt lat="48.47605" lon="7.21974">
        <ele>417.8</ele>
        <time>2026-03-16T07:50:47Z</time>
      </trkpt>
      <trkpt lat="48.47609" lon="7.21983">
        <ele>419.9</ele>
        <time>2026-03-16T07:50:52Z</time>
      </trkpt>
      <trkpt lat="48.47613" lon="7.21991">
        <ele>421.6</ele>
        <time>2026-03-16T07:50:57Z</time>
      </trkpt>
      <trkpt lat="48.47617" lon="7.21999">
        <ele>423.1</ele>
        <time>2026-03-16T07:51:02Z</time>
      </trkpt>
      <trkpt lat="48.47623" lon="7.22006">
        <ele>422.4</ele>
        <time>2026-03-16T07:51:07Z</time>
      </trkpt>
      <trkpt lat="48.47627" lon="7.22014">
        <ele>422.6</ele>
        <time>2026-03-16T07:51:12Z</time>
      </trkpt>
      <trkpt lat="48.47632" lon="7.22022">
        <ele>422.4</ele>
        <time>2026-03-16T07:51:17Z</time>
      </trkpt>
      <trkpt lat="48.47635" lon="7.2203">
        <ele>423</ele>
        <time>2026-03-16T07:51:22Z</time>
      </trkpt>
      <trkpt lat="48.4764" lon="7.22038">
        <ele>423</ele>
        <time>2026-03-16T07:51:27Z</time>
      </trkpt>
      <trkpt lat="48.47644" lon="7.22045">
        <ele>423.2</ele>
        <time>2026-03-16T07:51:32Z</time>
      </trkpt>
      <trkpt lat="48.47648" lon="7.22052">
        <ele>423.4</ele>
        <time>2026-03-16T07:51:37Z</time>
      </trkpt>
      <trkpt lat="48.47648" lon="7.22053">
        <ele>423.7</ele>
        <time>2026-03-16T07:51:42Z</time>
      </trkpt>
      <trkpt lat="48.47649" lon="7.22053">
        <ele>423.3</ele>
        <time>2026-03-16T07:51:47Z</time>
      </trkpt>
      <trkpt lat="48.47654" lon="7.2206">
        <ele>423.3</ele>
        <time>2026-03-16T07:51:52Z</time>
      </trkpt>
      <trkpt lat="48.47658" lon="7.22068">
        <ele>423.9</ele>
        <time>2026-03-16T07:51:57Z</time>
      </trkpt>
      <trkpt lat="48.47663" lon="7.22078">
        <ele>424.8</ele>
        <time>2026-03-16T07:52:02Z</time>
      </trkpt>
      <trkpt lat="48.47667" lon="7.22087">
        <ele>425.2</ele>
        <time>2026-03-16T07:52:07Z</time>
      </trkpt>
      <trkpt lat="48.4767" lon="7.22096">
        <ele>424.7</ele>
        <time>2026-03-16T07:52:12Z</time>
      </trkpt>
      <trkpt lat="48.47673" lon="7.22105">
        <ele>424.3</ele>
        <time>2026-03-16T07:52:17Z</time>
      </trkpt>
      <trkpt lat="48.47676" lon="7.22114">
        <ele>424</ele>
        <time>2026-03-16T07:52:22Z</time>
      </trkpt>
      <trkpt lat="48.4768" lon="7.22119">
        <ele>423</ele>
        <time>2026-03-16T07:52:27Z</time>
      </trkpt>
      <trkpt lat="48.47684" lon="7.22126">
        <ele>422.3</ele>
        <time>2026-03-16T07:52:32Z</time>
      </trkpt>
      <trkpt lat="48.47689" lon="7.22132">
        <ele>421.1</ele>
        <time>2026-03-16T07:52:37Z</time>
      </trkpt>
      <trkpt lat="48.47695" lon="7.22137">
        <ele>419.6</ele>
        <time>2026-03-16T07:52:42Z</time>
      </trkpt>
      <trkpt lat="48.47702" lon="7.22141">
        <ele>417.7</ele>
        <time>2026-03-16T07:52:47Z</time>
      </trkpt>
      <trkpt lat="48.47707" lon="7.22144">
        <ele>416.4</ele>
        <time>2026-03-16T07:52:52Z</time>
      </trkpt>
      <trkpt lat="48.47712" lon="7.22148">
        <ele>415.4</ele>
        <time>2026-03-16T07:52:57Z</time>
      </trkpt>
      <trkpt lat="48.47718" lon="7.22151">
        <ele>413.9</ele>
        <time>2026-03-16T07:53:02Z</time>
      </trkpt>
      <trkpt lat="48.47725" lon="7.22152">
        <ele>411.7</ele>
        <time>2026-03-16T07:53:07Z</time>
      </trkpt>
      <trkpt lat="48.47731" lon="7.22153">
        <ele>409.8</ele>
        <time>2026-03-16T07:53:12Z</time>
      </trkpt>
      <trkpt lat="48.47737" lon="7.22154">
        <ele>408</ele>
        <time>2026-03-16T07:53:17Z</time>
      </trkpt>
      <trkpt lat="48.47745" lon="7.22154">
        <ele>405.3</ele>
        <time>2026-03-16T07:53:22Z</time>
      </trkpt>
      <trkpt lat="48.47751" lon="7.22156">
        <ele>404</ele>
        <time>2026-03-16T07:53:27Z</time>
      </trkpt>
      <trkpt lat="48.47758" lon="7.22158">
        <ele>403.2</ele>
        <time>2026-03-16T07:53:32Z</time>
      </trkpt>
      <trkpt lat="48.47764" lon="7.22158">
        <ele>402.1</ele>
        <time>2026-03-16T07:53:37Z</time>
      </trkpt>
      <trkpt lat="48.47768" lon="7.22152">
        <ele>399.6</ele>
        <time>2026-03-16T07:53:42Z</time>
      </trkpt>
      <trkpt lat="48.47772" lon="7.22146">
        <ele>397.1</ele>
        <time>2026-03-16T07:53:47Z</time>
      </trkpt>
      <trkpt lat="48.47775" lon="7.22149">
        <ele>397.4</ele>
        <time>2026-03-16T07:53:52Z</time>
      </trkpt>
      <trkpt lat="48.47778" lon="7.22157">
        <ele>399.1</ele>
        <time>2026-03-16T07:53:57Z</time>
      </trkpt>
      <trkpt lat="48.4778" lon="7.2216">
        <ele>399.6</ele>
        <time>2026-03-16T07:54:02Z</time>
      </trkpt>
      <trkpt lat="48.47783" lon="7.22164">
        <ele>400.3</ele>
        <time>2026-03-16T07:54:07Z</time>
      </trkpt>
      <trkpt lat="48.47786" lon="7.2217">
        <ele>400.9</ele>
        <time>2026-03-16T07:54:12Z</time>
      </trkpt>
      <trkpt lat="48.47788" lon="7.22175">
        <ele>401.1</ele>
        <time>2026-03-16T07:54:17Z</time>
      </trkpt>
      <trkpt lat="48.4779" lon="7.2218">
        <ele>401.3</ele>
        <time>2026-03-16T07:54:22Z</time>
      </trkpt>
      <trkpt lat="48.47792" lon="7.22184">
        <ele>401.4</ele>
        <time>2026-03-16T07:54:27Z</time>
      </trkpt>
      <trkpt lat="48.47793" lon="7.22189">
        <ele>401.8</ele>
        <time>2026-03-16T07:54:32Z</time>
      </trkpt>
      <trkpt lat="48.47793" lon="7.22194">
        <ele>402.4</ele>
        <time>2026-03-16T07:54:37Z</time>
      </trkpt>
      <trkpt lat="48.47792" lon="7.222">
        <ele>403.2</ele>
        <time>2026-03-16T07:54:42Z</time>
      </trkpt>
      <trkpt lat="48.4779" lon="7.22205">
        <ele>404.2</ele>
        <time>2026-03-16T07:54:47Z</time>
      </trkpt>
      <trkpt lat="48.47789" lon="7.22211">
        <ele>405</ele>
        <time>2026-03-16T07:54:52Z</time>
      </trkpt>
      <trkpt lat="48.47787" lon="7.22216">
        <ele>405.9</ele>
        <time>2026-03-16T07:54:57Z</time>
      </trkpt>
      <trkpt lat="48.47785" lon="7.2222">
        <ele>406.7</ele>
        <time>2026-03-16T07:55:02Z</time>
      </trkpt>
      <trkpt lat="48.47783" lon="7.22224">
        <ele>407.5</ele>
        <time>2026-03-16T07:55:07Z</time>
      </trkpt>
      <trkpt lat="48.47782" lon="7.22228">
        <ele>408.1</ele>
        <time>2026-03-16T07:55:12Z</time>
      </trkpt>
      <trkpt lat="48.4778" lon="7.22232">
        <ele>408.9</ele>
        <time>2026-03-16T07:55:17Z</time>
      </trkpt>
      <trkpt lat="48.47777" lon="7.22235">
        <ele>409.8</ele>
        <time>2026-03-16T07:55:22Z</time>
      </trkpt>
      <trkpt lat="48.47773" lon="7.22237">
        <ele>410.7</ele>
        <time>2026-03-16T07:55:27Z</time>
      </trkpt>
      <trkpt lat="48.47769" lon="7.22239">
        <ele>411.6</ele>
        <time>2026-03-16T07:55:32Z</time>
      </trkpt>
      <trkpt lat="48.47765" lon="7.2224">
        <ele>412.4</ele>
        <time>2026-03-16T07:55:37Z</time>
      </trkpt>
      <trkpt lat="48.47761" lon="7.22241">
        <ele>413.2</ele>
        <time>2026-03-16T07:55:42Z</time>
      </trkpt>
      <trkpt lat="48.47758" lon="7.22242">
        <ele>413.8</ele>
        <time>2026-03-16T07:55:47Z</time>
      </trkpt>
      <trkpt lat="48.47754" lon="7.22244">
        <ele>414.7</ele>
        <time>2026-03-16T07:55:52Z</time>
      </trkpt>
      <trkpt lat="48.47749" lon="7.22246">
        <ele>415.8</ele>
        <time>2026-03-16T07:55:57Z</time>
      </trkpt>
      <trkpt lat="48.47745" lon="7.22249">
        <ele>416.8</ele>
        <time>2026-03-16T07:56:02Z</time>
      </trkpt>
      <trkpt lat="48.47742" lon="7.22251">
        <ele>417.4</ele>
        <time>2026-03-16T07:56:07Z</time>
      </trkpt>
      <trkpt lat="48.4774" lon="7.22255">
        <ele>417.7</ele>
        <time>2026-03-16T07:56:12Z</time>
      </trkpt>
      <trkpt lat="48.47741" lon="7.22256">
        <ele>417.6</ele>
        <time>2026-03-16T07:56:17Z</time>
      </trkpt>
      <trkpt lat="48.47741" lon="7.22256">
        <ele>417.6</ele>
        <time>2026-03-16T07:56:22Z</time>
      </trkpt>
      <trkpt lat="48.47741" lon="7.22256">
        <ele>417.6</ele>
        <time>2026-03-16T07:56:27Z</time>
      </trkpt>
      <trkpt lat="48.47738" lon="7.22258">
        <ele>418</ele>
        <time>2026-03-16T07:56:32Z</time>
      </trkpt>
      <trkpt lat="48.47734" lon="7.2226">
        <ele>418.7</ele>
        <time>2026-03-16T07:56:37Z</time>
      </trkpt>
      <trkpt lat="48.47728" lon="7.22263">
        <ele>419.6</ele>
        <time>2026-03-16T07:56:42Z</time>
      </trkpt>
      <trkpt lat="48.47723" lon="7.22268">
        <ele>420.2</ele>
        <time>2026-03-16T07:56:47Z</time>
      </trkpt>
      <trkpt lat="48.47719" lon="7.22273">
        <ele>420.7</ele>
        <time>2026-03-16T07:56:52Z</time>
      </trkpt>
      <trkpt lat="48.47715" lon="7.22278">
        <ele>421</ele>
        <time>2026-03-16T07:56:57Z</time>
      </trkpt>
      <trkpt lat="48.47713" lon="7.22281">
        <ele>421.2</ele>
        <time>2026-03-16T07:57:02Z</time>
      </trkpt>
      <trkpt lat="48.4771" lon="7.22285">
        <ele>421.4</ele>
        <time>2026-03-16T07:57:07Z</time>
      </trkpt>
      <trkpt lat="48.47707" lon="7.22288">
        <ele>421.6</ele>
        <time>2026-03-16T07:57:12Z</time>
      </trkpt>
      <trkpt lat="48.47703" lon="7.22291">
        <ele>422</ele>
        <time>2026-03-16T07:57:17Z</time>
      </trkpt>
      <trkpt lat="48.477" lon="7.22295">
        <ele>422.1</ele>
        <time>2026-03-16T07:57:22Z</time>
      </trkpt>
      <trkpt lat="48.47697" lon="7.223">
        <ele>422.1</ele>
        <time>2026-03-16T07:57:27Z</time>
      </trkpt>
      <trkpt lat="48.47694" lon="7.22303">
        <ele>422.2</ele>
        <time>2026-03-16T07:57:32Z</time>
      </trkpt>
      <trkpt lat="48.4769" lon="7.22306">
        <ele>422.4</ele>
        <time>2026-03-16T07:57:37Z</time>
      </trkpt>
      <trkpt lat="48.47685" lon="7.22309">
        <ele>422.7</ele>
        <time>2026-03-16T07:57:42Z</time>
      </trkpt>
      <trkpt lat="48.47682" lon="7.22312">
        <ele>422.8</ele>
        <time>2026-03-16T07:57:47Z</time>
      </trkpt>
      <trkpt lat="48.47679" lon="7.22315">
        <ele>422.8</ele>
        <time>2026-03-16T07:57:52Z</time>
      </trkpt>
      <trkpt lat="48.47679" lon="7.22318">
        <ele>422.5</ele>
        <time>2026-03-16T07:57:57Z</time>
      </trkpt>
      <trkpt lat="48.47677" lon="7.22318">
        <ele>422.7</ele>
        <time>2026-03-16T07:58:02Z</time>
      </trkpt>
      <trkpt lat="48.47673" lon="7.2232">
        <ele>422.9</ele>
        <time>2026-03-16T07:58:07Z</time>
      </trkpt>
      <trkpt lat="48.47668" lon="7.22323">
        <ele>423</ele>
        <time>2026-03-16T07:58:12Z</time>
      </trkpt>
      <trkpt lat="48.47665" lon="7.22326">
        <ele>422.6</ele>
        <time>2026-03-16T07:58:17Z</time>
      </trkpt>
      <trkpt lat="48.47665" lon="7.22326">
        <ele>422.6</ele>
        <time>2026-03-16T07:58:22Z</time>
      </trkpt>
      <trkpt lat="48.47665" lon="7.22326">
        <ele>422.6</ele>
        <time>2026-03-16T07:58:27Z</time>
      </trkpt>
      <trkpt lat="48.47665" lon="7.22326">
        <ele>422.6</ele>
        <time>2026-03-16T07:58:32Z</time>
      </trkpt>
      <trkpt lat="48.47665" lon="7.22325">
        <ele>422.8</ele>
        <time>2026-03-16T07:58:37Z</time>
      </trkpt>
      <trkpt lat="48.47662" lon="7.22327">
        <ele>422.2</ele>
        <time>2026-03-16T07:58:42Z</time>
      </trkpt>
      <trkpt lat="48.47657" lon="7.2233">
        <ele>421.4</ele>
        <time>2026-03-16T07:58:47Z</time>
      </trkpt>
      <trkpt lat="48.47652" lon="7.22331">
        <ele>420.7</ele>
        <time>2026-03-16T07:58:52Z</time>
      </trkpt>
      <trkpt lat="48.47646" lon="7.22333">
        <ele>419.8</ele>
        <time>2026-03-16T07:58:57Z</time>
      </trkpt>
      <trkpt lat="48.47639" lon="7.22336">
        <ele>418.4</ele>
        <time>2026-03-16T07:59:02Z</time>
      </trkpt>
      <trkpt lat="48.47633" lon="7.22339">
        <ele>417</ele>
        <time>2026-03-16T07:59:07Z</time>
      </trkpt>
      <trkpt lat="48.47627" lon="7.2234">
        <ele>416.1</ele>
        <time>2026-03-16T07:59:12Z</time>
      </trkpt>
      <trkpt lat="48.47621" lon="7.2234">
        <ele>415.5</ele>
        <time>2026-03-16T07:59:17Z</time>
      </trkpt>
      <trkpt lat="48.47615" lon="7.2234">
        <ele>414.8</ele>
        <time>2026-03-16T07:59:22Z</time>
      </trkpt>
      <trkpt lat="48.47609" lon="7.22341">
        <ele>413.9</ele>
        <time>2026-03-16T07:59:27Z</time>
      </trkpt>
      <trkpt lat="48.47604" lon="7.2234">
        <ele>413.6</ele>
        <time>2026-03-16T07:59:32Z</time>
      </trkpt>
      <trkpt lat="48.47597" lon="7.22341">
        <ele>412.6</ele>
        <time>2026-03-16T07:59:37Z</time>
      </trkpt>
      <trkpt lat="48.4759" lon="7.22342">
        <ele>411.6</ele>
        <time>2026-03-16T07:59:42Z</time>
      </trkpt>
      <trkpt lat="48.47583" lon="7.2234">
        <ele>411.3</ele>
        <time>2026-03-16T07:59:47Z</time>
      </trkpt>
      <trkpt lat="48.47575" lon="7.22338">
        <ele>412.2</ele>
        <time>2026-03-16T07:59:52Z</time>
      </trkpt>
      <trkpt lat="48.47569" lon="7.22338">
        <ele>412.5</ele>
        <time>2026-03-16T07:59:57Z</time>
      </trkpt>
      <trkpt lat="48.47563" lon="7.22336">
        <ele>413.2</ele>
        <time>2026-03-16T08:00:02Z</time>
      </trkpt>
      <trkpt lat="48.47557" lon="7.22335">
        <ele>413.6</ele>
        <time>2026-03-16T08:00:07Z</time>
      </trkpt>
      <trkpt lat="48.47551" lon="7.22331">
        <ele>414.7</ele>
        <time>2026-03-16T08:00:12Z</time>
      </trkpt>
      <trkpt lat="48.47544" lon="7.22329">
        <ele>415.4</ele>
        <time>2026-03-16T08:00:17Z</time>
      </trkpt>
      <trkpt lat="48.47536" lon="7.22326">
        <ele>416.3</ele>
        <time>2026-03-16T08:00:22Z</time>
      </trkpt>
      <trkpt lat="48.47529" lon="7.22323">
        <ele>417.1</ele>
        <time>2026-03-16T08:00:27Z</time>
      </trkpt>
      <trkpt lat="48.47522" lon="7.22318">
        <ele>418.2</ele>
        <time>2026-03-16T08:00:32Z</time>
      </trkpt>
      <trkpt lat="48.47516" lon="7.22317">
        <ele>418.4</ele>
        <time>2026-03-16T08:00:37Z</time>
      </trkpt>
      <trkpt lat="48.47508" lon="7.22316">
        <ele>418.7</ele>
        <time>2026-03-16T08:00:42Z</time>
      </trkpt>
      <trkpt lat="48.47503" lon="7.22313">
        <ele>419.2</ele>
        <time>2026-03-16T08:00:47Z</time>
      </trkpt>
      <trkpt lat="48.47497" lon="7.22314">
        <ele>419.1</ele>
        <time>2026-03-16T08:00:52Z</time>
      </trkpt>
      <trkpt lat="48.47488" lon="7.22314">
        <ele>419.2</ele>
        <time>2026-03-16T08:00:57Z</time>
      </trkpt>
      <trkpt lat="48.47481" lon="7.22313">
        <ele>419.4</ele>
        <time>2026-03-16T08:01:02Z</time>
      </trkpt>
      <trkpt lat="48.47475" lon="7.22311">
        <ele>419.7</ele>
        <time>2026-03-16T08:01:07Z</time>
      </trkpt>
      <trkpt lat="48.4747" lon="7.22309">
        <ele>419.9</ele>
        <time>2026-03-16T08:01:12Z</time>
      </trkpt>
      <trkpt lat="48.47462" lon="7.22311">
        <ele>419.8</ele>
        <time>2026-03-16T08:01:17Z</time>
      </trkpt>
      <trkpt lat="48.47455" lon="7.22312">
        <ele>419.8</ele>
        <time>2026-03-16T08:01:22Z</time>
      </trkpt>
      <trkpt lat="48.47448" lon="7.22314">
        <ele>419.9</ele>
        <time>2026-03-16T08:01:27Z</time>
      </trkpt>
      <trkpt lat="48.47442" lon="7.22312">
        <ele>419.9</ele>
        <time>2026-03-16T08:01:32Z</time>
      </trkpt>
      <trkpt lat="48.47435" lon="7.22311">
        <ele>420</ele>
        <time>2026-03-16T08:01:37Z</time>
      </trkpt>
      <trkpt lat="48.47428" lon="7.22313">
        <ele>420.1</ele>
        <time>2026-03-16T08:01:42Z</time>
      </trkpt>
      <trkpt lat="48.47422" lon="7.22313">
        <ele>420.2</ele>
        <time>2026-03-16T08:01:47Z</time>
      </trkpt>
      <trkpt lat="48.47415" lon="7.22315">
        <ele>420.7</ele>
        <time>2026-03-16T08:01:52Z</time>
      </trkpt>
      <trkpt lat="48.47409" lon="7.22317">
        <ele>421.5</ele>
        <time>2026-03-16T08:01:57Z</time>
      </trkpt>
      <trkpt lat="48.47402" lon="7.22321">
        <ele>422.8</ele>
        <time>2026-03-16T08:02:02Z</time>
      </trkpt>
      <trkpt lat="48.47395" lon="7.22325">
        <ele>424.1</ele>
        <time>2026-03-16T08:02:07Z</time>
      </trkpt>
      <trkpt lat="48.47393" lon="7.22332">
        <ele>425.2</ele>
        <time>2026-03-16T08:02:12Z</time>
      </trkpt>
      <trkpt lat="48.47397" lon="7.22336">
        <ele>425.2</ele>
        <time>2026-03-16T08:02:17Z</time>
      </trkpt>
      <trkpt lat="48.47399" lon="7.2234">
        <ele>425.3</ele>
        <time>2026-03-16T08:02:22Z</time>
      </trkpt>
      <trkpt lat="48.47399" lon="7.22345">
        <ele>425.9</ele>
        <time>2026-03-16T08:02:27Z</time>
      </trkpt>
      <trkpt lat="48.47395" lon="7.22345">
        <ele>426.5</ele>
        <time>2026-03-16T08:02:32Z</time>
      </trkpt>
      <trkpt lat="48.47395" lon="7.22346">
        <ele>426.6</ele>
        <time>2026-03-16T08:02:37Z</time>
      </trkpt>
      <trkpt lat="48.47395" lon="7.22346">
        <ele>426.6</ele>
        <time>2026-03-16T08:02:42Z</time>
      </trkpt>
      <trkpt lat="48.47391" lon="7.22349">
        <ele>427.6</ele>
        <time>2026-03-16T08:02:47Z</time>
      </trkpt>
      <trkpt lat="48.47389" lon="7.22349">
        <ele>427.9</ele>
        <time>2026-03-16T08:02:52Z</time>
      </trkpt>
      <trkpt lat="48.47385" lon="7.2235">
        <ele>428.7</ele>
        <time>2026-03-16T08:02:57Z</time>
      </trkpt>
      <trkpt lat="48.47381" lon="7.22349">
        <ele>429.1</ele>
        <time>2026-03-16T08:03:02Z</time>
      </trkpt>
      <trkpt lat="48.47376" lon="7.22351">
        <ele>430.2</ele>
        <time>2026-03-16T08:03:07Z</time>
      </trkpt>
      <trkpt lat="48.47371" lon="7.22354">
        <ele>431.4</ele>
        <time>2026-03-16T08:03:12Z</time>
      </trkpt>
      <trkpt lat="48.47367" lon="7.22357">
        <ele>432.4</ele>
        <time>2026-03-16T08:03:17Z</time>
      </trkpt>
      <trkpt lat="48.47362" lon="7.22363">
        <ele>434</ele>
        <time>2026-03-16T08:03:22Z</time>
      </trkpt>
      <trkpt lat="48.47358" lon="7.22368">
        <ele>435.4</ele>
        <time>2026-03-16T08:03:27Z</time>
      </trkpt>
      <trkpt lat="48.47355" lon="7.22372">
        <ele>436.4</ele>
        <time>2026-03-16T08:03:32Z</time>
      </trkpt>
      <trkpt lat="48.47351" lon="7.22375">
        <ele>437.5</ele>
        <time>2026-03-16T08:03:37Z</time>
      </trkpt>
      <trkpt lat="48.47347" lon="7.22378">
        <ele>438.6</ele>
        <time>2026-03-16T08:03:42Z</time>
      </trkpt>
      <trkpt lat="48.47343" lon="7.2238">
        <ele>439.6</ele>
        <time>2026-03-16T08:03:47Z</time>
      </trkpt>
      <trkpt lat="48.47339" lon="7.22383">
        <ele>440.8</ele>
        <time>2026-03-16T08:03:52Z</time>
      </trkpt>
      <trkpt lat="48.47336" lon="7.22384">
        <ele>441.4</ele>
        <time>2026-03-16T08:03:57Z</time>
      </trkpt>
      <trkpt lat="48.47332" lon="7.22385">
        <ele>442.2</ele>
        <time>2026-03-16T08:04:02Z</time>
      </trkpt>
      <trkpt lat="48.47327" lon="7.22388">
        <ele>443</ele>
        <time>2026-03-16T08:04:07Z</time>
      </trkpt>
      <trkpt lat="48.47323" lon="7.22389">
        <ele>443.5</ele>
        <time>2026-03-16T08:04:12Z</time>
      </trkpt>
      <trkpt lat="48.47318" lon="7.2239">
        <ele>444.1</ele>
        <time>2026-03-16T08:04:17Z</time>
      </trkpt>
      <trkpt lat="48.47315" lon="7.22392">
        <ele>444.6</ele>
        <time>2026-03-16T08:04:22Z</time>
      </trkpt>
      <trkpt lat="48.47312" lon="7.22394">
        <ele>445.2</ele>
        <time>2026-03-16T08:04:27Z</time>
      </trkpt>
      <trkpt lat="48.4731" lon="7.22394">
        <ele>445.3</ele>
        <time>2026-03-16T08:04:32Z</time>
      </trkpt>
      <trkpt lat="48.47307" lon="7.22395">
        <ele>445.7</ele>
        <time>2026-03-16T08:04:37Z</time>
      </trkpt>
      <trkpt lat="48.47304" lon="7.22393">
        <ele>445.7</ele>
        <time>2026-03-16T08:04:42Z</time>
      </trkpt>
      <trkpt lat="48.473" lon="7.22391">
        <ele>445.7</ele>
        <time>2026-03-16T08:04:47Z</time>
      </trkpt>
      <trkpt lat="48.47295" lon="7.22392">
        <ele>446.2</ele>
        <time>2026-03-16T08:04:52Z</time>
      </trkpt>
      <trkpt lat="48.47292" lon="7.22391">
        <ele>446.3</ele>
        <time>2026-03-16T08:04:57Z</time>
      </trkpt>
      <trkpt lat="48.47288" lon="7.22392">
        <ele>446.8</ele>
        <time>2026-03-16T08:05:02Z</time>
      </trkpt>
      <trkpt lat="48.47286" lon="7.22392">
        <ele>447</ele>
        <time>2026-03-16T08:05:07Z</time>
      </trkpt>
      <trkpt lat="48.47286" lon="7.22392">
        <ele>447</ele>
        <time>2026-03-16T08:05:12Z</time>
      </trkpt>
      <trkpt lat="48.47279" lon="7.22391">
        <ele>447.4</ele>
        <time>2026-03-16T08:05:17Z</time>
      </trkpt>
      <trkpt lat="48.47274" lon="7.22392">
        <ele>447.9</ele>
        <time>2026-03-16T08:05:22Z</time>
      </trkpt>
      <trkpt lat="48.4727" lon="7.22393">
        <ele>448.4</ele>
        <time>2026-03-16T08:05:27Z</time>
      </trkpt>
      <trkpt lat="48.47265" lon="7.22393">
        <ele>448.8</ele>
        <time>2026-03-16T08:05:32Z</time>
      </trkpt>
      <trkpt lat="48.47262" lon="7.22394">
        <ele>449.2</ele>
        <time>2026-03-16T08:05:37Z</time>
      </trkpt>
      <trkpt lat="48.47261" lon="7.22395">
        <ele>449.5</ele>
        <time>2026-03-16T08:05:42Z</time>
      </trkpt>
      <trkpt lat="48.47261" lon="7.22395">
        <ele>449.5</ele>
        <time>2026-03-16T08:05:47Z</time>
      </trkpt>
      <trkpt lat="48.47257" lon="7.22397">
        <ele>450.1</ele>
        <time>2026-03-16T08:05:52Z</time>
      </trkpt>
      <trkpt lat="48.47255" lon="7.22398">
        <ele>450.5</ele>
        <time>2026-03-16T08:05:57Z</time>
      </trkpt>
      <trkpt lat="48.47254" lon="7.224">
        <ele>450.9</ele>
        <time>2026-03-16T08:06:02Z</time>
      </trkpt>
      <trkpt lat="48.47254" lon="7.224">
        <ele>450.9</ele>
        <time>2026-03-16T08:06:07Z</time>
      </trkpt>
      <trkpt lat="48.47249" lon="7.22408">
        <ele>452.7</ele>
        <time>2026-03-16T08:06:12Z</time>
      </trkpt>
      <trkpt lat="48.47246" lon="7.22408">
        <ele>453.3</ele>
        <time>2026-03-16T08:06:17Z</time>
      </trkpt>
      <trkpt lat="48.47242" lon="7.2241">
        <ele>454.4</ele>
        <time>2026-03-16T08:06:22Z</time>
      </trkpt>
      <trkpt lat="48.47238" lon="7.22414">
        <ele>455.9</ele>
        <time>2026-03-16T08:06:27Z</time>
      </trkpt>
      <trkpt lat="48.47233" lon="7.22415">
        <ele>457</ele>
        <time>2026-03-16T08:06:32Z</time>
      </trkpt>
      <trkpt lat="48.47229" lon="7.22415">
        <ele>457.7</ele>
        <time>2026-03-16T08:06:37Z</time>
      </trkpt>
      <trkpt lat="48.47226" lon="7.22415">
        <ele>458.3</ele>
        <time>2026-03-16T08:06:42Z</time>
      </trkpt>
      <trkpt lat="48.47223" lon="7.22414">
        <ele>458.7</ele>
        <time>2026-03-16T08:06:47Z</time>
      </trkpt>
      <trkpt lat="48.47219" lon="7.22415">
        <ele>459.7</ele>
        <time>2026-03-16T08:06:52Z</time>
      </trkpt>
      <trkpt lat="48.47215" lon="7.22415">
        <ele>460.4</ele>
        <time>2026-03-16T08:06:57Z</time>
      </trkpt>
      <trkpt lat="48.47213" lon="7.22417">
        <ele>461.2</ele>
        <time>2026-03-16T08:07:02Z</time>
      </trkpt>
      <trkpt lat="48.47209" lon="7.22417">
        <ele>461.9</ele>
        <time>2026-03-16T08:07:07Z</time>
      </trkpt>
      <trkpt lat="48.47205" lon="7.22417">
        <ele>462.7</ele>
        <time>2026-03-16T08:07:12Z</time>
      </trkpt>
      <trkpt lat="48.47201" lon="7.22416">
        <ele>463.3</ele>
        <time>2026-03-16T08:07:17Z</time>
      </trkpt>
      <trkpt lat="48.47196" lon="7.22416">
        <ele>464.3</ele>
        <time>2026-03-16T08:07:22Z</time>
      </trkpt>
      <trkpt lat="48.47191" lon="7.22415">
        <ele>465</ele>
        <time>2026-03-16T08:07:27Z</time>
      </trkpt>
      <trkpt lat="48.47187" lon="7.22413">
        <ele>465.4</ele>
        <time>2026-03-16T08:07:32Z</time>
      </trkpt>
      <trkpt lat="48.47184" lon="7.22412">
        <ele>465.8</ele>
        <time>2026-03-16T08:07:37Z</time>
      </trkpt>
      <trkpt lat="48.47178" lon="7.22413">
        <ele>467.2</ele>
        <time>2026-03-16T08:07:42Z</time>
      </trkpt>
      <trkpt lat="48.47173" lon="7.22412">
        <ele>467.9</ele>
        <time>2026-03-16T08:07:47Z</time>
      </trkpt>
      <trkpt lat="48.47168" lon="7.22413">
        <ele>469.1</ele>
        <time>2026-03-16T08:07:52Z</time>
      </trkpt>
      <trkpt lat="48.47162" lon="7.22414">
        <ele>471</ele>
        <time>2026-03-16T08:07:57Z</time>
      </trkpt>
      <trkpt lat="48.47157" lon="7.22415">
        <ele>472.7</ele>
        <time>2026-03-16T08:08:02Z</time>
      </trkpt>
      <trkpt lat="48.47151" lon="7.22415">
        <ele>474.6</ele>
        <time>2026-03-16T08:08:07Z</time>
      </trkpt>
      <trkpt lat="48.47145" lon="7.22416">
        <ele>476.6</ele>
        <time>2026-03-16T08:08:12Z</time>
      </trkpt>
      <trkpt lat="48.47139" lon="7.22416">
        <ele>478.5</ele>
        <time>2026-03-16T08:08:17Z</time>
      </trkpt>
      <trkpt lat="48.47134" lon="7.22415">
        <ele>479.9</ele>
        <time>2026-03-16T08:08:22Z</time>
      </trkpt>
      <trkpt lat="48.47127" lon="7.22414">
        <ele>481.9</ele>
        <time>2026-03-16T08:08:27Z</time>
      </trkpt>
      <trkpt lat="48.47121" lon="7.22411">
        <ele>483.3</ele>
        <time>2026-03-16T08:08:32Z</time>
      </trkpt>
      <trkpt lat="48.47117" lon="7.22409">
        <ele>484.3</ele>
        <time>2026-03-16T08:08:37Z</time>
      </trkpt>
      <trkpt lat="48.47112" lon="7.22408">
        <ele>485.7</ele>
        <time>2026-03-16T08:08:42Z</time>
      </trkpt>
      <trkpt lat="48.47108" lon="7.22408">
        <ele>487</ele>
        <time>2026-03-16T08:08:47Z</time>
      </trkpt>
      <trkpt lat="48.47103" lon="7.22408">
        <ele>488.5</ele>
        <time>2026-03-16T08:08:52Z</time>
      </trkpt>
      <trkpt lat="48.47098" lon="7.22408">
        <ele>490.1</ele>
        <time>2026-03-16T08:08:57Z</time>
      </trkpt>
      <trkpt lat="48.47092" lon="7.22406">
        <ele>491.7</ele>
        <time>2026-03-16T08:09:02Z</time>
      </trkpt>
      <trkpt lat="48.47087" lon="7.22403">
        <ele>492.9</ele>
        <time>2026-03-16T08:09:07Z</time>
      </trkpt>
      <trkpt lat="48.47083" lon="7.22401">
        <ele>493.8</ele>
        <time>2026-03-16T08:09:12Z</time>
      </trkpt>
      <trkpt lat="48.47079" lon="7.22401">
        <ele>494.5</ele>
        <time>2026-03-16T08:09:17Z</time>
      </trkpt>
      <trkpt lat="48.47075" lon="7.22402">
        <ele>495.4</ele>
        <time>2026-03-16T08:09:22Z</time>
      </trkpt>
      <trkpt lat="48.47073" lon="7.22403">
        <ele>495.9</ele>
        <time>2026-03-16T08:09:27Z</time>
      </trkpt>
      <trkpt lat="48.47073" lon="7.22403">
        <ele>495.9</ele>
        <time>2026-03-16T08:09:32Z</time>
      </trkpt>
      <trkpt lat="48.47073" lon="7.22403">
        <ele>495.9</ele>
        <time>2026-03-16T08:09:37Z</time>
      </trkpt>
      <trkpt lat="48.47073" lon="7.22403">
        <ele>495.9</ele>
        <time>2026-03-16T08:09:42Z</time>
      </trkpt>
      <trkpt lat="48.47073" lon="7.22403">
        <ele>495.9</ele>
        <time>2026-03-16T08:09:47Z</time>
      </trkpt>
      <trkpt lat="48.47073" lon="7.22403">
        <ele>495.9</ele>
        <time>2026-03-16T08:09:52Z</time>
      </trkpt>
      <trkpt lat="48.47071" lon="7.22398">
        <ele>495.5</ele>
        <time>2026-03-16T08:09:57Z</time>
      </trkpt>
      <trkpt lat="48.47069" lon="7.22391">
        <ele>494.9</ele>
        <time>2026-03-16T08:10:02Z</time>
      </trkpt>
      <trkpt lat="48.47067" lon="7.22382">
        <ele>493.9</ele>
        <time>2026-03-16T08:10:07Z</time>
      </trkpt>
      <trkpt lat="48.47065" lon="7.22375">
        <ele>493.3</ele>
        <time>2026-03-16T08:10:12Z</time>
      </trkpt>
      <trkpt lat="48.47063" lon="7.22367">
        <ele>492.5</ele>
        <time>2026-03-16T08:10:17Z</time>
      </trkpt>
      <trkpt lat="48.47061" lon="7.22359">
        <ele>491.7</ele>
        <time>2026-03-16T08:10:22Z</time>
      </trkpt>
      <trkpt lat="48.47059" lon="7.22352">
        <ele>491.1</ele>
        <time>2026-03-16T08:10:27Z</time>
      </trkpt>
      <trkpt lat="48.47056" lon="7.22345">
        <ele>490.6</ele>
        <time>2026-03-16T08:10:32Z</time>
      </trkpt>
      <trkpt lat="48.47054" lon="7.22339">
        <ele>490.1</ele>
        <time>2026-03-16T08:10:37Z</time>
      </trkpt>
      <trkpt lat="48.47052" lon="7.22331">
        <ele>489.1</ele>
        <time>2026-03-16T08:10:42Z</time>
      </trkpt>
      <trkpt lat="48.47051" lon="7.22325">
        <ele>487.9</ele>
        <time>2026-03-16T08:10:47Z</time>
      </trkpt>
      <trkpt lat="48.47048" lon="7.22317">
        <ele>486.6</ele>
        <time>2026-03-16T08:10:52Z</time>
      </trkpt>
      <trkpt lat="48.47044" lon="7.2231">
        <ele>485.7</ele>
        <time>2026-03-16T08:10:57Z</time>
      </trkpt>
      <trkpt lat="48.47042" lon="7.22306">
        <ele>485.1</ele>
        <time>2026-03-16T08:11:02Z</time>
      </trkpt>
      <trkpt lat="48.47039" lon="7.22302">
        <ele>484.6</ele>
        <time>2026-03-16T08:11:07Z</time>
      </trkpt>
      <trkpt lat="48.47035" lon="7.22299">
        <ele>484.4</ele>
        <time>2026-03-16T08:11:12Z</time>
      </trkpt>
      <trkpt lat="48.47032" lon="7.22294">
        <ele>483.7</ele>
        <time>2026-03-16T08:11:17Z</time>
      </trkpt>
      <trkpt lat="48.47028" lon="7.22289">
        <ele>483</ele>
        <time>2026-03-16T08:11:22Z</time>
      </trkpt>
      <trkpt lat="48.47024" lon="7.22285">
        <ele>482.5</ele>
        <time>2026-03-16T08:11:27Z</time>
      </trkpt>
      <trkpt lat="48.4702" lon="7.22282">
        <ele>482.3</ele>
        <time>2026-03-16T08:11:32Z</time>
      </trkpt>
      <trkpt lat="48.47017" lon="7.22278">
        <ele>481.6</ele>
        <time>2026-03-16T08:11:37Z</time>
      </trkpt>
      <trkpt lat="48.47013" lon="7.22275">
        <ele>481.3</ele>
        <time>2026-03-16T08:11:42Z</time>
      </trkpt>
      <trkpt lat="48.47009" lon="7.22274">
        <ele>481.5</ele>
        <time>2026-03-16T08:11:47Z</time>
      </trkpt>
      <trkpt lat="48.47006" lon="7.22272">
        <ele>481.4</ele>
        <time>2026-03-16T08:11:52Z</time>
      </trkpt>
      <trkpt lat="48.47003" lon="7.22272">
        <ele>481.7</ele>
        <time>2026-03-16T08:11:57Z</time>
      </trkpt>
      <trkpt lat="48.47001" lon="7.2227">
        <ele>481.4</ele>
        <time>2026-03-16T08:12:02Z</time>
      </trkpt>
      <trkpt lat="48.46997" lon="7.22268">
        <ele>480.5</ele>
        <time>2026-03-16T08:12:07Z</time>
      </trkpt>
      <trkpt lat="48.46993" lon="7.22266">
        <ele>479.2</ele>
        <time>2026-03-16T08:12:12Z</time>
      </trkpt>
      <trkpt lat="48.46988" lon="7.22264">
        <ele>477.8</ele>
        <time>2026-03-16T08:12:17Z</time>
      </trkpt>
      <trkpt lat="48.46983" lon="7.22263">
        <ele>476.7</ele>
        <time>2026-03-16T08:12:22Z</time>
      </trkpt>
      <trkpt lat="48.46979" lon="7.22262">
        <ele>475.8</ele>
        <time>2026-03-16T08:12:27Z</time>
      </trkpt>
      <trkpt lat="48.46975" lon="7.22261">
        <ele>474.8</ele>
        <time>2026-03-16T08:12:32Z</time>
      </trkpt>
      <trkpt lat="48.46971" lon="7.2226">
        <ele>473.9</ele>
        <time>2026-03-16T08:12:37Z</time>
      </trkpt>
      <trkpt lat="48.46966" lon="7.22261">
        <ele>473.3</ele>
        <time>2026-03-16T08:12:42Z</time>
      </trkpt>
      <trkpt lat="48.46963" lon="7.22262">
        <ele>473.1</ele>
        <time>2026-03-16T08:12:47Z</time>
      </trkpt>
      <trkpt lat="48.46959" lon="7.22264">
        <ele>473</ele>
        <time>2026-03-16T08:12:52Z</time>
      </trkpt>
      <trkpt lat="48.46955" lon="7.22268">
        <ele>473.4</ele>
        <time>2026-03-16T08:12:57Z</time>
      </trkpt>
      <trkpt lat="48.46951" lon="7.22271">
        <ele>473.6</ele>
        <time>2026-03-16T08:13:02Z</time>
      </trkpt>
      <trkpt lat="48.46947" lon="7.22273">
        <ele>473.4</ele>
        <time>2026-03-16T08:13:07Z</time>
      </trkpt>
      <trkpt lat="48.46944" lon="7.22274">
        <ele>473.2</ele>
        <time>2026-03-16T08:13:12Z</time>
      </trkpt>
      <trkpt lat="48.46941" lon="7.22274">
        <ele>472.7</ele>
        <time>2026-03-16T08:13:17Z</time>
      </trkpt>
      <trkpt lat="48.46938" lon="7.22276">
        <ele>472.8</ele>
        <time>2026-03-16T08:13:22Z</time>
      </trkpt>
      <trkpt lat="48.46935" lon="7.22278">
        <ele>472.8</ele>
        <time>2026-03-16T08:13:27Z</time>
      </trkpt>
      <trkpt lat="48.46932" lon="7.22281">
        <ele>473.1</ele>
        <time>2026-03-16T08:13:32Z</time>
      </trkpt>
      <trkpt lat="48.46929" lon="7.22287">
        <ele>474.3</ele>
        <time>2026-03-16T08:13:37Z</time>
      </trkpt>
      <trkpt lat="48.46927" lon="7.22292">
        <ele>475.3</ele>
        <time>2026-03-16T08:13:42Z</time>
      </trkpt>
      <trkpt lat="48.46924" lon="7.22297">
        <ele>476.2</ele>
        <time>2026-03-16T08:13:47Z</time>
      </trkpt>
      <trkpt lat="48.4692" lon="7.22301">
        <ele>476.6</ele>
        <time>2026-03-16T08:13:52Z</time>
      </trkpt>
      <trkpt lat="48.46917" lon="7.22308">
        <ele>478.1</ele>
        <time>2026-03-16T08:13:57Z</time>
      </trkpt>
      <trkpt lat="48.46913" lon="7.22311">
        <ele>479.2</ele>
        <time>2026-03-16T08:14:02Z</time>
      </trkpt>
      <trkpt lat="48.46909" lon="7.22314">
        <ele>480.4</ele>
        <time>2026-03-16T08:14:07Z</time>
      </trkpt>
      <trkpt lat="48.46907" lon="7.22319">
        <ele>481.9</ele>
        <time>2026-03-16T08:14:12Z</time>
      </trkpt>
      <trkpt lat="48.46904" lon="7.22323">
        <ele>483.3</ele>
        <time>2026-03-16T08:14:17Z</time>
      </trkpt>
      <trkpt lat="48.469" lon="7.22328">
        <ele>485</ele>
        <time>2026-03-16T08:14:22Z</time>
      </trkpt>
      <trkpt lat="48.46896" lon="7.22331">
        <ele>486.1</ele>
        <time>2026-03-16T08:14:27Z</time>
      </trkpt>
      <trkpt lat="48.46893" lon="7.22332">
        <ele>486.6</ele>
        <time>2026-03-16T08:14:32Z</time>
      </trkpt>
      <trkpt lat="48.46891" lon="7.22335">
        <ele>487.5</ele>
        <time>2026-03-16T08:14:37Z</time>
      </trkpt>
      <trkpt lat="48.46887" lon="7.2234">
        <ele>488.8</ele>
        <time>2026-03-16T08:14:42Z</time>
      </trkpt>
      <trkpt lat="48.46884" lon="7.22343">
        <ele>489.6</ele>
        <time>2026-03-16T08:14:47Z</time>
      </trkpt>
      <trkpt lat="48.46881" lon="7.22347">
        <ele>490.5</ele>
        <time>2026-03-16T08:14:52Z</time>
      </trkpt>
      <trkpt lat="48.46877" lon="7.22351">
        <ele>491.5</ele>
        <time>2026-03-16T08:14:57Z</time>
      </trkpt>
      <trkpt lat="48.46874" lon="7.22355">
        <ele>492.5</ele>
        <time>2026-03-16T08:15:02Z</time>
      </trkpt>
      <trkpt lat="48.46869" lon="7.22359">
        <ele>493.5</ele>
        <time>2026-03-16T08:15:07Z</time>
      </trkpt>
      <trkpt lat="48.46865" lon="7.22362">
        <ele>494.3</ele>
        <time>2026-03-16T08:15:12Z</time>
      </trkpt>
      <trkpt lat="48.4686" lon="7.22363">
        <ele>494.7</ele>
        <time>2026-03-16T08:15:17Z</time>
      </trkpt>
      <trkpt lat="48.46855" lon="7.22366">
        <ele>495.5</ele>
        <time>2026-03-16T08:15:22Z</time>
      </trkpt>
      <trkpt lat="48.46853" lon="7.22374">
        <ele>496.9</ele>
        <time>2026-03-16T08:15:27Z</time>
      </trkpt>
      <trkpt lat="48.46852" lon="7.22383">
        <ele>498.4</ele>
        <time>2026-03-16T08:15:32Z</time>
      </trkpt>
      <trkpt lat="48.46851" lon="7.2239">
        <ele>499.5</ele>
        <time>2026-03-16T08:15:37Z</time>
      </trkpt>
      <trkpt lat="48.46847" lon="7.22395">
        <ele>500.5</ele>
        <time>2026-03-16T08:15:42Z</time>
      </trkpt>
      <trkpt lat="48.46845" lon="7.22401">
        <ele>501.4</ele>
        <time>2026-03-16T08:15:47Z</time>
      </trkpt>
      <trkpt lat="48.46842" lon="7.22408">
        <ele>502.6</ele>
        <time>2026-03-16T08:15:52Z</time>
      </trkpt>
      <trkpt lat="48.46841" lon="7.22415">
        <ele>503.7</ele>
        <time>2026-03-16T08:15:57Z</time>
      </trkpt>
      <trkpt lat="48.46837" lon="7.22421">
        <ele>504.5</ele>
        <time>2026-03-16T08:16:02Z</time>
      </trkpt>
      <trkpt lat="48.46832" lon="7.22427">
        <ele>505.7</ele>
        <time>2026-03-16T08:16:07Z</time>
      </trkpt>
      <trkpt lat="48.46828" lon="7.22433">
        <ele>507.4</ele>
        <time>2026-03-16T08:16:12Z</time>
      </trkpt>
      <trkpt lat="48.46826" lon="7.22438">
        <ele>508.5</ele>
        <time>2026-03-16T08:16:17Z</time>
      </trkpt>
      <trkpt lat="48.46823" lon="7.22444">
        <ele>510</ele>
        <time>2026-03-16T08:16:22Z</time>
      </trkpt>
      <trkpt lat="48.4682" lon="7.22451">
        <ele>511.5</ele>
        <time>2026-03-16T08:16:27Z</time>
      </trkpt>
      <trkpt lat="48.46818" lon="7.2246">
        <ele>513.1</ele>
        <time>2026-03-16T08:16:32Z</time>
      </trkpt>
      <trkpt lat="48.46816" lon="7.22468">
        <ele>514.6</ele>
        <time>2026-03-16T08:16:37Z</time>
      </trkpt>
      <trkpt lat="48.46813" lon="7.22476">
        <ele>516.2</ele>
        <time>2026-03-16T08:16:42Z</time>
      </trkpt>
      <trkpt lat="48.46812" lon="7.22484">
        <ele>517.4</ele>
        <time>2026-03-16T08:16:47Z</time>
      </trkpt>
      <trkpt lat="48.46811" lon="7.22491">
        <ele>518.5</ele>
        <time>2026-03-16T08:16:52Z</time>
      </trkpt>
      <trkpt lat="48.46811" lon="7.22499">
        <ele>519.4</ele>
        <time>2026-03-16T08:16:57Z</time>
      </trkpt>
      <trkpt lat="48.46809" lon="7.22506">
        <ele>520.3</ele>
        <time>2026-03-16T08:17:02Z</time>
      </trkpt>
      <trkpt lat="48.46807" lon="7.22514">
        <ele>521</ele>
        <time>2026-03-16T08:17:07Z</time>
      </trkpt>
      <trkpt lat="48.46803" lon="7.22519">
        <ele>522.1</ele>
        <time>2026-03-16T08:17:12Z</time>
      </trkpt>
      <trkpt lat="48.46798" lon="7.22524">
        <ele>523.4</ele>
        <time>2026-03-16T08:17:17Z</time>
      </trkpt>
      <trkpt lat="48.46794" lon="7.2253">
        <ele>524.5</ele>
        <time>2026-03-16T08:17:22Z</time>
      </trkpt>
      <trkpt lat="48.4679" lon="7.22536">
        <ele>525.6</ele>
        <time>2026-03-16T08:17:27Z</time>
      </trkpt>
      <trkpt lat="48.46787" lon="7.22542">
        <ele>526.5</ele>
        <time>2026-03-16T08:17:32Z</time>
      </trkpt>
      <trkpt lat="48.46784" lon="7.22547">
        <ele>527.3</ele>
        <time>2026-03-16T08:17:37Z</time>
      </trkpt>
      <trkpt lat="48.46782" lon="7.22554">
        <ele>528.1</ele>
        <time>2026-03-16T08:17:42Z</time>
      </trkpt>
      <trkpt lat="48.46779" lon="7.2256">
        <ele>529</ele>
        <time>2026-03-16T08:17:47Z</time>
      </trkpt>
      <trkpt lat="48.46778" lon="7.22562">
        <ele>529.3</ele>
        <time>2026-03-16T08:17:52Z</time>
      </trkpt>
      <trkpt lat="48.46778" lon="7.22564">
        <ele>529.4</ele>
        <time>2026-03-16T08:17:57Z</time>
      </trkpt>
      <trkpt lat="48.46778" lon="7.22564">
        <ele>529.4</ele>
        <time>2026-03-16T08:18:02Z</time>
      </trkpt>
      <trkpt lat="48.46774" lon="7.22573">
        <ele>530.6</ele>
        <time>2026-03-16T08:18:07Z</time>
      </trkpt>
      <trkpt lat="48.46771" lon="7.22578">
        <ele>531.5</ele>
        <time>2026-03-16T08:18:12Z</time>
      </trkpt>
      <trkpt lat="48.46768" lon="7.22585">
        <ele>532.4</ele>
        <time>2026-03-16T08:18:17Z</time>
      </trkpt>
      <trkpt lat="48.46766" lon="7.22592">
        <ele>533</ele>
        <time>2026-03-16T08:18:22Z</time>
      </trkpt>
      <trkpt lat="48.46764" lon="7.226">
        <ele>533.7</ele>
        <time>2026-03-16T08:18:27Z</time>
      </trkpt>
      <trkpt lat="48.46762" lon="7.2261">
        <ele>534.5</ele>
        <time>2026-03-16T08:18:32Z</time>
      </trkpt>
      <trkpt lat="48.46759" lon="7.22617">
        <ele>535.3</ele>
        <time>2026-03-16T08:18:37Z</time>
      </trkpt>
      <trkpt lat="48.46753" lon="7.2262">
        <ele>536.7</ele>
        <time>2026-03-16T08:18:42Z</time>
      </trkpt>
      <trkpt lat="48.4675" lon="7.22625">
        <ele>537.5</ele>
        <time>2026-03-16T08:18:47Z</time>
      </trkpt>
      <trkpt lat="48.46746" lon="7.22628">
        <ele>538.2</ele>
        <time>2026-03-16T08:18:52Z</time>
      </trkpt>
      <trkpt lat="48.46743" lon="7.22632">
        <ele>538.7</ele>
        <time>2026-03-16T08:18:57Z</time>
      </trkpt>
      <trkpt lat="48.46741" lon="7.22635">
        <ele>539.1</ele>
        <time>2026-03-16T08:19:02Z</time>
      </trkpt>
      <trkpt lat="48.46742" lon="7.22639">
        <ele>539.2</ele>
        <time>2026-03-16T08:19:07Z</time>
      </trkpt>
      <trkpt lat="48.46744" lon="7.22644">
        <ele>539.1</ele>
        <time>2026-03-16T08:19:12Z</time>
      </trkpt>
      <trkpt lat="48.46745" lon="7.22645">
        <ele>539</ele>
        <time>2026-03-16T08:19:17Z</time>
      </trkpt>
      <trkpt lat="48.46745" lon="7.22645">
        <ele>539</ele>
        <time>2026-03-16T08:19:22Z</time>
      </trkpt>
      <trkpt lat="48.46745" lon="7.22645">
        <ele>539</ele>
        <time>2026-03-16T08:19:27Z</time>
      </trkpt>
      <trkpt lat="48.46744" lon="7.22661">
        <ele>539.7</ele>
        <time>2026-03-16T08:19:32Z</time>
      </trkpt>
      <trkpt lat="48.46743" lon="7.22667">
        <ele>540.1</ele>
        <time>2026-03-16T08:19:37Z</time>
      </trkpt>
      <trkpt lat="48.46742" lon="7.22671">
        <ele>539.8</ele>
        <time>2026-03-16T08:19:42Z</time>
      </trkpt>
      <trkpt lat="48.4674" lon="7.22676">
        <ele>539.7</ele>
        <time>2026-03-16T08:19:47Z</time>
      </trkpt>
      <trkpt lat="48.4674" lon="7.2268">
        <ele>539.3</ele>
        <time>2026-03-16T08:19:52Z</time>
      </trkpt>
      <trkpt lat="48.46741" lon="7.22686">
        <ele>538.6</ele>
        <time>2026-03-16T08:19:57Z</time>
      </trkpt>
      <trkpt lat="48.46743" lon="7.22691">
        <ele>537.8</ele>
        <time>2026-03-16T08:20:02Z</time>
      </trkpt>
      <trkpt lat="48.46743" lon="7.22697">
        <ele>537.2</ele>
        <time>2026-03-16T08:20:07Z</time>
      </trkpt>
      <trkpt lat="48.46743" lon="7.22701">
        <ele>536.8</ele>
        <time>2026-03-16T08:20:12Z</time>
      </trkpt>
      <trkpt lat="48.46744" lon="7.22706">
        <ele>536.2</ele>
        <time>2026-03-16T08:20:17Z</time>
      </trkpt>
      <trkpt lat="48.46745" lon="7.22711">
        <ele>535.6</ele>
        <time>2026-03-16T08:20:22Z</time>
      </trkpt>
      <trkpt lat="48.46745" lon="7.22718">
        <ele>534.9</ele>
        <time>2026-03-16T08:20:27Z</time>
      </trkpt>
      <trkpt lat="48.46746" lon="7.22722">
        <ele>534.3</ele>
        <time>2026-03-16T08:20:32Z</time>
      </trkpt>
      <trkpt lat="48.46748" lon="7.22726">
        <ele>533.6</ele>
        <time>2026-03-16T08:20:37Z</time>
      </trkpt>
      <trkpt lat="48.46748" lon="7.22728">
        <ele>533.4</ele>
        <time>2026-03-16T08:20:42Z</time>
      </trkpt>
      <trkpt lat="48.46749" lon="7.22729">
        <ele>533.2</ele>
        <time>2026-03-16T08:20:47Z</time>
      </trkpt>
      <trkpt lat="48.46749" lon="7.22729">
        <ele>533.2</ele>
        <time>2026-03-16T08:20:52Z</time>
      </trkpt>
      <trkpt lat="48.46749" lon="7.22729">
        <ele>533.2</ele>
        <time>2026-03-16T08:20:57Z</time>
      </trkpt>
      <trkpt lat="48.46749" lon="7.22729">
        <ele>533.2</ele>
        <time>2026-03-16T08:21:02Z</time>
      </trkpt>
      <trkpt lat="48.46746" lon="7.22726">
        <ele>534</ele>
        <time>2026-03-16T08:21:07Z</time>
      </trkpt>
      <trkpt lat="48.46742" lon="7.22724">
        <ele>534.8</ele>
        <time>2026-03-16T08:21:12Z</time>
      </trkpt>
      <trkpt lat="48.4674" lon="7.22718">
        <ele>535.7</ele>
        <time>2026-03-16T08:21:17Z</time>
      </trkpt>
      <trkpt lat="48.46735" lon="7.22719">
        <ele>536.4</ele>
        <time>2026-03-16T08:21:22Z</time>
      </trkpt>
      <trkpt lat="48.4673" lon="7.22717">
        <ele>537.4</ele>
        <time>2026-03-16T08:21:27Z</time>
      </trkpt>
      <trkpt lat="48.46723" lon="7.22716">
        <ele>538.7</ele>
        <time>2026-03-16T08:21:32Z</time>
      </trkpt>
      <trkpt lat="48.46719" lon="7.22716">
        <ele>539.3</ele>
        <time>2026-03-16T08:21:37Z</time>
      </trkpt>
      <trkpt lat="48.46715" lon="7.22716">
        <ele>540</ele>
        <time>2026-03-16T08:21:42Z</time>
      </trkpt>
      <trkpt lat="48.46714" lon="7.22714">
        <ele>540.3</ele>
        <time>2026-03-16T08:21:47Z</time>
      </trkpt>
      <trkpt lat="48.46711" lon="7.22715">
        <ele>540.7</ele>
        <time>2026-03-16T08:21:52Z</time>
      </trkpt>
      <trkpt lat="48.46708" lon="7.22714">
        <ele>541.3</ele>
        <time>2026-03-16T08:21:57Z</time>
      </trkpt>
      <trkpt lat="48.46704" lon="7.22713">
        <ele>542</ele>
        <time>2026-03-16T08:22:02Z</time>
      </trkpt>
      <trkpt lat="48.467" lon="7.22711">
        <ele>542.9</ele>
        <time>2026-03-16T08:22:07Z</time>
      </trkpt>
      <trkpt lat="48.46694" lon="7.22711">
        <ele>543.8</ele>
        <time>2026-03-16T08:22:12Z</time>
      </trkpt>
      <trkpt lat="48.46689" lon="7.2271">
        <ele>544.7</ele>
        <time>2026-03-16T08:22:17Z</time>
      </trkpt>
      <trkpt lat="48.46684" lon="7.22711">
        <ele>545.5</ele>
        <time>2026-03-16T08:22:22Z</time>
      </trkpt>
      <trkpt lat="48.46679" lon="7.22713">
        <ele>546.1</ele>
        <time>2026-03-16T08:22:27Z</time>
      </trkpt>
      <trkpt lat="48.46674" lon="7.22715">
        <ele>546.7</ele>
        <time>2026-03-16T08:22:32Z</time>
      </trkpt>
      <trkpt lat="48.46668" lon="7.22716">
        <ele>547.6</ele>
        <time>2026-03-16T08:22:37Z</time>
      </trkpt>
      <trkpt lat="48.46663" lon="7.22717">
        <ele>548.5</ele>
        <time>2026-03-16T08:22:42Z</time>
      </trkpt>
      <trkpt lat="48.46657" lon="7.22717">
        <ele>549.6</ele>
        <time>2026-03-16T08:22:47Z</time>
      </trkpt>
      <trkpt lat="48.4665" lon="7.22718">
        <ele>550.8</ele>
        <time>2026-03-16T08:22:52Z</time>
      </trkpt>
      <trkpt lat="48.46644" lon="7.22716">
        <ele>552</ele>
        <time>2026-03-16T08:22:57Z</time>
      </trkpt>
      <trkpt lat="48.4664" lon="7.22715">
        <ele>552.8</ele>
        <time>2026-03-16T08:23:02Z</time>
      </trkpt>
      <trkpt lat="48.46634" lon="7.22716">
        <ele>553.9</ele>
        <time>2026-03-16T08:23:07Z</time>
      </trkpt>
      <trkpt lat="48.4663" lon="7.22717">
        <ele>554.6</ele>
        <time>2026-03-16T08:23:12Z</time>
      </trkpt>
      <trkpt lat="48.46624" lon="7.22715">
        <ele>555.8</ele>
        <time>2026-03-16T08:23:17Z</time>
      </trkpt>
      <trkpt lat="48.4662" lon="7.22713">
        <ele>556.6</ele>
        <time>2026-03-16T08:23:22Z</time>
      </trkpt>
      <trkpt lat="48.46616" lon="7.22711">
        <ele>557.5</ele>
        <time>2026-03-16T08:23:27Z</time>
      </trkpt>
      <trkpt lat="48.46613" lon="7.22708">
        <ele>558.2</ele>
        <time>2026-03-16T08:23:32Z</time>
      </trkpt>
      <trkpt lat="48.46609" lon="7.22706">
        <ele>559</ele>
        <time>2026-03-16T08:23:37Z</time>
      </trkpt>
      <trkpt lat="48.46606" lon="7.22703">
        <ele>559.7</ele>
        <time>2026-03-16T08:23:42Z</time>
      </trkpt>
      <trkpt lat="48.46603" lon="7.22704">
        <ele>560.2</ele>
        <time>2026-03-16T08:23:47Z</time>
      </trkpt>
      <trkpt lat="48.46597" lon="7.22702">
        <ele>561.3</ele>
        <time>2026-03-16T08:23:52Z</time>
      </trkpt>
      <trkpt lat="48.46594" lon="7.227">
        <ele>561.9</ele>
        <time>2026-03-16T08:23:57Z</time>
      </trkpt>
      <trkpt lat="48.46589" lon="7.22702">
        <ele>562.7</ele>
        <time>2026-03-16T08:24:02Z</time>
      </trkpt>
      <trkpt lat="48.46585" lon="7.22704">
        <ele>563.4</ele>
        <time>2026-03-16T08:24:07Z</time>
      </trkpt>
      <trkpt lat="48.4658" lon="7.22706">
        <ele>564.6</ele>
        <time>2026-03-16T08:24:12Z</time>
      </trkpt>
      <trkpt lat="48.46576" lon="7.22708">
        <ele>565.8</ele>
        <time>2026-03-16T08:24:17Z</time>
      </trkpt>
      <trkpt lat="48.46573" lon="7.22711">
        <ele>566.6</ele>
        <time>2026-03-16T08:24:22Z</time>
      </trkpt>
      <trkpt lat="48.4657" lon="7.22712">
        <ele>567.4</ele>
        <time>2026-03-16T08:24:27Z</time>
      </trkpt>
      <trkpt lat="48.46567" lon="7.22714">
        <ele>568.3</ele>
        <time>2026-03-16T08:24:32Z</time>
      </trkpt>
      <trkpt lat="48.46562" lon="7.22715">
        <ele>569.8</ele>
        <time>2026-03-16T08:24:37Z</time>
      </trkpt>
      <trkpt lat="48.46558" lon="7.22717">
        <ele>570.9</ele>
        <time>2026-03-16T08:24:42Z</time>
      </trkpt>
      <trkpt lat="48.46554" lon="7.2272">
        <ele>572</ele>
        <time>2026-03-16T08:24:47Z</time>
      </trkpt>
      <trkpt lat="48.46552" lon="7.22724">
        <ele>572.5</ele>
        <time>2026-03-16T08:24:52Z</time>
      </trkpt>
      <trkpt lat="48.46549" lon="7.22728">
        <ele>573.2</ele>
        <time>2026-03-16T08:24:57Z</time>
      </trkpt>
      <trkpt lat="48.46547" lon="7.22731">
        <ele>573.7</ele>
        <time>2026-03-16T08:25:02Z</time>
      </trkpt>
      <trkpt lat="48.46545" lon="7.22735">
        <ele>574.1</ele>
        <time>2026-03-16T08:25:07Z</time>
      </trkpt>
      <trkpt lat="48.46542" lon="7.2274">
        <ele>574.8</ele>
        <time>2026-03-16T08:25:12Z</time>
      </trkpt>
      <trkpt lat="48.46538" lon="7.22744">
        <ele>575.9</ele>
        <time>2026-03-16T08:25:17Z</time>
      </trkpt>
      <trkpt lat="48.46535" lon="7.22748">
        <ele>576.6</ele>
        <time>2026-03-16T08:25:22Z</time>
      </trkpt>
      <trkpt lat="48.46533" lon="7.22752">
        <ele>576.7</ele>
        <time>2026-03-16T08:25:27Z</time>
      </trkpt>
      <trkpt lat="48.46531" lon="7.22755">
        <ele>576.6</ele>
        <time>2026-03-16T08:25:32Z</time>
      </trkpt>
      <trkpt lat="48.46529" lon="7.22759">
        <ele>576.4</ele>
        <time>2026-03-16T08:25:37Z</time>
      </trkpt>
      <trkpt lat="48.46527" lon="7.22762">
        <ele>576.3</ele>
        <time>2026-03-16T08:25:42Z</time>
      </trkpt>
      <trkpt lat="48.46524" lon="7.22766">
        <ele>576.3</ele>
        <time>2026-03-16T08:25:47Z</time>
      </trkpt>
      <trkpt lat="48.46521" lon="7.22769">
        <ele>576.5</ele>
        <time>2026-03-16T08:25:52Z</time>
      </trkpt>
      <trkpt lat="48.46518" lon="7.22773">
        <ele>576.5</ele>
        <time>2026-03-16T08:25:57Z</time>
      </trkpt>
      <trkpt lat="48.46515" lon="7.22775">
        <ele>577</ele>
        <time>2026-03-16T08:26:02Z</time>
      </trkpt>
      <trkpt lat="48.46513" lon="7.22776">
        <ele>577.3</ele>
        <time>2026-03-16T08:26:07Z</time>
      </trkpt>
      <trkpt lat="48.46512" lon="7.22775">
        <ele>577.8</ele>
        <time>2026-03-16T08:26:12Z</time>
      </trkpt>
      <trkpt lat="48.46508" lon="7.22776">
        <ele>578.8</ele>
        <time>2026-03-16T08:26:17Z</time>
      </trkpt>
      <trkpt lat="48.46505" lon="7.2278">
        <ele>578.7</ele>
        <time>2026-03-16T08:26:22Z</time>
      </trkpt>
      <trkpt lat="48.46501" lon="7.22786">
        <ele>578.5</ele>
        <time>2026-03-16T08:26:27Z</time>
      </trkpt>
      <trkpt lat="48.46496" lon="7.22792">
        <ele>578.8</ele>
        <time>2026-03-16T08:26:32Z</time>
      </trkpt>
      <trkpt lat="48.46489" lon="7.22795">
        <ele>580.4</ele>
        <time>2026-03-16T08:26:37Z</time>
      </trkpt>
      <trkpt lat="48.46484" lon="7.22795">
        <ele>582.1</ele>
        <time>2026-03-16T08:26:42Z</time>
      </trkpt>
      <trkpt lat="48.4648" lon="7.22796">
        <ele>583.2</ele>
        <time>2026-03-16T08:26:47Z</time>
      </trkpt>
      <trkpt lat="48.46474" lon="7.22797">
        <ele>585</ele>
        <time>2026-03-16T08:26:52Z</time>
      </trkpt>
      <trkpt lat="48.46467" lon="7.22799">
        <ele>586.8</ele>
        <time>2026-03-16T08:26:57Z</time>
      </trkpt>
      <trkpt lat="48.46461" lon="7.22804">
        <ele>587.7</ele>
        <time>2026-03-16T08:27:02Z</time>
      </trkpt>
      <trkpt lat="48.46456" lon="7.22811">
        <ele>587.6</ele>
        <time>2026-03-16T08:27:07Z</time>
      </trkpt>
      <trkpt lat="48.4645" lon="7.22813">
        <ele>589.1</ele>
        <time>2026-03-16T08:27:12Z</time>
      </trkpt>
      <trkpt lat="48.46443" lon="7.22815">
        <ele>590.9</ele>
        <time>2026-03-16T08:27:17Z</time>
      </trkpt>
      <trkpt lat="48.46437" lon="7.22813">
        <ele>593.4</ele>
        <time>2026-03-16T08:27:22Z</time>
      </trkpt>
      <trkpt lat="48.46433" lon="7.2281">
        <ele>595.5</ele>
        <time>2026-03-16T08:27:27Z</time>
      </trkpt>
      <trkpt lat="48.46427" lon="7.22816">
        <ele>596</ele>
        <time>2026-03-16T08:27:32Z</time>
      </trkpt>
      <trkpt lat="48.46422" lon="7.22822">
        <ele>596.1</ele>
        <time>2026-03-16T08:27:37Z</time>
      </trkpt>
      <trkpt lat="48.46419" lon="7.22825">
        <ele>596.3</ele>
        <time>2026-03-16T08:27:42Z</time>
      </trkpt>
      <trkpt lat="48.46416" lon="7.22827">
        <ele>596.8</ele>
        <time>2026-03-16T08:27:47Z</time>
      </trkpt>
      <trkpt lat="48.46412" lon="7.22833">
        <ele>596.4</ele>
        <time>2026-03-16T08:27:52Z</time>
      </trkpt>
      <trkpt lat="48.46408" lon="7.22842">
        <ele>594.2</ele>
        <time>2026-03-16T08:27:57Z</time>
      </trkpt>
      <trkpt lat="48.46406" lon="7.22846">
        <ele>593.2</ele>
        <time>2026-03-16T08:28:02Z</time>
      </trkpt>
      <trkpt lat="48.46401" lon="7.2285">
        <ele>593.1</ele>
        <time>2026-03-16T08:28:07Z</time>
      </trkpt>
      <trkpt lat="48.46397" lon="7.22855">
        <ele>592.3</ele>
        <time>2026-03-16T08:28:12Z</time>
      </trkpt>
      <trkpt lat="48.46392" lon="7.22858">
        <ele>592.6</ele>
        <time>2026-03-16T08:28:17Z</time>
      </trkpt>
      <trkpt lat="48.46388" lon="7.22862">
        <ele>592.2</ele>
        <time>2026-03-16T08:28:22Z</time>
      </trkpt>
      <trkpt lat="48.46383" lon="7.22867">
        <ele>591.8</ele>
        <time>2026-03-16T08:28:27Z</time>
      </trkpt>
      <trkpt lat="48.46377" lon="7.22871">
        <ele>592</ele>
        <time>2026-03-16T08:28:32Z</time>
      </trkpt>
      <trkpt lat="48.46373" lon="7.22873">
        <ele>592.3</ele>
        <time>2026-03-16T08:28:37Z</time>
      </trkpt>
      <trkpt lat="48.4637" lon="7.22874">
        <ele>592.8</ele>
        <time>2026-03-16T08:28:42Z</time>
      </trkpt>
      <trkpt lat="48.46367" lon="7.22876">
        <ele>592.9</ele>
        <time>2026-03-16T08:28:47Z</time>
      </trkpt>
      <trkpt lat="48.46365" lon="7.22875">
        <ele>593.9</ele>
        <time>2026-03-16T08:28:52Z</time>
      </trkpt>
      <trkpt lat="48.4636" lon="7.22879">
        <ele>593.8</ele>
        <time>2026-03-16T08:28:57Z</time>
      </trkpt>
      <trkpt lat="48.46352" lon="7.22887">
        <ele>593</ele>
        <time>2026-03-16T08:29:02Z</time>
      </trkpt>
      <trkpt lat="48.46346" lon="7.22889">
        <ele>594</ele>
        <time>2026-03-16T08:29:07Z</time>
      </trkpt>
      <trkpt lat="48.46342" lon="7.22888">
        <ele>595.5</ele>
        <time>2026-03-16T08:29:12Z</time>
      </trkpt>
      <trkpt lat="48.46338" lon="7.22888">
        <ele>596.7</ele>
        <time>2026-03-16T08:29:17Z</time>
      </trkpt>
      <trkpt lat="48.46332" lon="7.22892">
        <ele>596.8</ele>
        <time>2026-03-16T08:29:22Z</time>
      </trkpt>
      <trkpt lat="48.46328" lon="7.22895">
        <ele>596.7</ele>
        <time>2026-03-16T08:29:27Z</time>
      </trkpt>
      <trkpt lat="48.46325" lon="7.22896">
        <ele>597</ele>
        <time>2026-03-16T08:29:32Z</time>
      </trkpt>
      <trkpt lat="48.4632" lon="7.22896">
        <ele>598.3</ele>
        <time>2026-03-16T08:29:37Z</time>
      </trkpt>
      <trkpt lat="48.46317" lon="7.22896">
        <ele>599.1</ele>
        <time>2026-03-16T08:29:42Z</time>
      </trkpt>
      <trkpt lat="48.46312" lon="7.22899">
        <ele>599.2</ele>
        <time>2026-03-16T08:29:47Z</time>
      </trkpt>
      <trkpt lat="48.46307" lon="7.22902">
        <ele>599.5</ele>
        <time>2026-03-16T08:29:52Z</time>
      </trkpt>
      <trkpt lat="48.46304" lon="7.22905">
        <ele>599.2</ele>
        <time>2026-03-16T08:29:57Z</time>
      </trkpt>
      <trkpt lat="48.463" lon="7.22907">
        <ele>599.5</ele>
        <time>2026-03-16T08:30:02Z</time>
      </trkpt>
      <trkpt lat="48.46295" lon="7.22911">
        <ele>599.5</ele>
        <time>2026-03-16T08:30:07Z</time>
      </trkpt>
      <trkpt lat="48.46291" lon="7.22911">
        <ele>600.6</ele>
        <time>2026-03-16T08:30:12Z</time>
      </trkpt>
      <trkpt lat="48.46289" lon="7.22913">
        <ele>600.5</ele>
        <time>2026-03-16T08:30:17Z</time>
      </trkpt>
      <trkpt lat="48.46288" lon="7.22915">
        <ele>600.1</ele>
        <time>2026-03-16T08:30:22Z</time>
      </trkpt>
      <trkpt lat="48.46288" lon="7.22915">
        <ele>600.1</ele>
        <time>2026-03-16T08:30:27Z</time>
      </trkpt>
      <trkpt lat="48.46288" lon="7.22915">
        <ele>600.1</ele>
        <time>2026-03-16T08:30:32Z</time>
      </trkpt>
      <trkpt lat="48.46288" lon="7.22915">
        <ele>600.1</ele>
        <time>2026-03-16T08:30:37Z</time>
      </trkpt>
      <trkpt lat="48.46279" lon="7.22915">
        <ele>602.5</ele>
        <time>2026-03-16T08:30:42Z</time>
      </trkpt>
      <trkpt lat="48.46274" lon="7.22918">
        <ele>603.1</ele>
        <time>2026-03-16T08:30:47Z</time>
      </trkpt>
      <trkpt lat="48.4627" lon="7.22917">
        <ele>604.4</ele>
        <time>2026-03-16T08:30:52Z</time>
      </trkpt>
      <trkpt lat="48.46267" lon="7.22916">
        <ele>605.5</ele>
        <time>2026-03-16T08:30:57Z</time>
      </trkpt>
      <trkpt lat="48.46263" lon="7.22914">
        <ele>607.2</ele>
        <time>2026-03-16T08:31:02Z</time>
      </trkpt>
      <trkpt lat="48.46259" lon="7.22914">
        <ele>608.3</ele>
        <time>2026-03-16T08:31:07Z</time>
      </trkpt>
      <trkpt lat="48.46253" lon="7.22915">
        <ele>609.7</ele>
        <time>2026-03-16T08:31:12Z</time>
      </trkpt>
      <trkpt lat="48.46248" lon="7.22913">
        <ele>611.9</ele>
        <time>2026-03-16T08:31:17Z</time>
      </trkpt>
      <trkpt lat="48.46243" lon="7.2291">
        <ele>614.8</ele>
        <time>2026-03-16T08:31:22Z</time>
      </trkpt>
      <trkpt lat="48.46237" lon="7.22909">
        <ele>617.6</ele>
        <time>2026-03-16T08:31:27Z</time>
      </trkpt>
      <trkpt lat="48.46234" lon="7.22909">
        <ele>618.9</ele>
        <time>2026-03-16T08:31:32Z</time>
      </trkpt>
      <trkpt lat="48.46231" lon="7.22912">
        <ele>619.3</ele>
        <time>2026-03-16T08:31:37Z</time>
      </trkpt>
      <trkpt lat="48.46226" lon="7.22913">
        <ele>621.1</ele>
        <time>2026-03-16T08:31:42Z</time>
      </trkpt>
      <trkpt lat="48.46222" lon="7.22914">
        <ele>622.5</ele>
        <time>2026-03-16T08:31:47Z</time>
      </trkpt>
      <trkpt lat="48.46218" lon="7.22915">
        <ele>623.9</ele>
        <time>2026-03-16T08:31:52Z</time>
      </trkpt>
      <trkpt lat="48.46214" lon="7.22918">
        <ele>624.9</ele>
        <time>2026-03-16T08:31:57Z</time>
      </trkpt>
      <trkpt lat="48.46213" lon="7.22922">
        <ele>624.5</ele>
        <time>2026-03-16T08:32:02Z</time>
      </trkpt>
      <trkpt lat="48.46209" lon="7.22927">
        <ele>625.2</ele>
        <time>2026-03-16T08:32:07Z</time>
      </trkpt>
      <trkpt lat="48.46207" lon="7.22929">
        <ele>625.7</ele>
        <time>2026-03-16T08:32:12Z</time>
      </trkpt>
      <trkpt lat="48.46206" lon="7.22934">
        <ele>625.2</ele>
        <time>2026-03-16T08:32:17Z</time>
      </trkpt>
      <trkpt lat="48.46206" lon="7.22934">
        <ele>625.2</ele>
        <time>2026-03-16T08:32:22Z</time>
      </trkpt>
      <trkpt lat="48.46206" lon="7.22934">
        <ele>625.2</ele>
        <time>2026-03-16T08:32:27Z</time>
      </trkpt>
      <trkpt lat="48.46206" lon="7.22934">
        <ele>625.2</ele>
        <time>2026-03-16T08:32:32Z</time>
      </trkpt>
      <trkpt lat="48.46206" lon="7.22934">
        <ele>625.2</ele>
        <time>2026-03-16T08:32:37Z</time>
      </trkpt>
      <trkpt lat="48.46206" lon="7.22934">
        <ele>625.2</ele>
        <time>2026-03-16T08:32:42Z</time>
      </trkpt>
      <trkpt lat="48.46206" lon="7.22934">
        <ele>625.2</ele>
        <time>2026-03-16T08:32:47Z</time>
      </trkpt>
      <trkpt lat="48.46202" lon="7.22934">
        <ele>626.9</ele>
        <time>2026-03-16T08:32:52Z</time>
      </trkpt>
      <trkpt lat="48.46196" lon="7.22936">
        <ele>629.2</ele>
        <time>2026-03-16T08:32:57Z</time>
      </trkpt>
      <trkpt lat="48.4619" lon="7.22941">
        <ele>630.9</ele>
        <time>2026-03-16T08:33:02Z</time>
      </trkpt>
      <trkpt lat="48.46187" lon="7.22944">
        <ele>631.7</ele>
        <time>2026-03-16T08:33:07Z</time>
      </trkpt>
      <trkpt lat="48.46183" lon="7.22947">
        <ele>633</ele>
        <time>2026-03-16T08:33:12Z</time>
      </trkpt>
      <trkpt lat="48.46179" lon="7.2295">
        <ele>634.3</ele>
        <time>2026-03-16T08:33:17Z</time>
      </trkpt>
      <trkpt lat="48.46176" lon="7.22955">
        <ele>634.8</ele>
        <time>2026-03-16T08:33:22Z</time>
      </trkpt>
      <trkpt lat="48.46172" lon="7.22959">
        <ele>636</ele>
        <time>2026-03-16T08:33:27Z</time>
      </trkpt>
      <trkpt lat="48.46167" lon="7.22963">
        <ele>637.6</ele>
        <time>2026-03-16T08:33:32Z</time>
      </trkpt>
      <trkpt lat="48.46162" lon="7.22966">
        <ele>639.3</ele>
        <time>2026-03-16T08:33:37Z</time>
      </trkpt>
      <trkpt lat="48.4616" lon="7.2297">
        <ele>639.6</ele>
        <time>2026-03-16T08:33:42Z</time>
      </trkpt>
      <trkpt lat="48.46158" lon="7.22976">
        <ele>639.5</ele>
        <time>2026-03-16T08:33:47Z</time>
      </trkpt>
      <trkpt lat="48.46154" lon="7.2298">
        <ele>640.6</ele>
        <time>2026-03-16T08:33:52Z</time>
      </trkpt>
      <trkpt lat="48.46149" lon="7.22992">
        <ele>641</ele>
        <time>2026-03-16T08:33:57Z</time>
      </trkpt>
      <trkpt lat="48.46146" lon="7.22999">
        <ele>641.3</ele>
        <time>2026-03-16T08:34:02Z</time>
      </trkpt>
      <trkpt lat="48.46142" lon="7.23003">
        <ele>642.7</ele>
        <time>2026-03-16T08:34:07Z</time>
      </trkpt>
      <trkpt lat="48.46139" lon="7.23008">
        <ele>643.7</ele>
        <time>2026-03-16T08:34:12Z</time>
      </trkpt>
      <trkpt lat="48.46138" lon="7.2301">
        <ele>644</ele>
        <time>2026-03-16T08:34:17Z</time>
      </trkpt>
      <trkpt lat="48.46136" lon="7.23014">
        <ele>644.5</ele>
        <time>2026-03-16T08:34:22Z</time>
      </trkpt>
      <trkpt lat="48.46134" lon="7.23018">
        <ele>645.1</ele>
        <time>2026-03-16T08:34:27Z</time>
      </trkpt>
      <trkpt lat="48.46132" lon="7.23021">
        <ele>645.8</ele>
        <time>2026-03-16T08:34:32Z</time>
      </trkpt>
      <trkpt lat="48.4613" lon="7.23027">
        <ele>646.2</ele>
        <time>2026-03-16T08:34:37Z</time>
      </trkpt>
      <trkpt lat="48.46127" lon="7.23036">
        <ele>646.8</ele>
        <time>2026-03-16T08:34:42Z</time>
      </trkpt>
      <trkpt lat="48.46124" lon="7.23044">
        <ele>647.5</ele>
        <time>2026-03-16T08:34:47Z</time>
      </trkpt>
      <trkpt lat="48.46121" lon="7.2305">
        <ele>648.3</ele>
        <time>2026-03-16T08:34:52Z</time>
      </trkpt>
      <trkpt lat="48.4612" lon="7.23057">
        <ele>648.2</ele>
        <time>2026-03-16T08:34:57Z</time>
      </trkpt>
      <trkpt lat="48.46119" lon="7.23066">
        <ele>648</ele>
        <time>2026-03-16T08:35:02Z</time>
      </trkpt>
      <trkpt lat="48.46117" lon="7.23071">
        <ele>648.4</ele>
        <time>2026-03-16T08:35:07Z</time>
      </trkpt>
      <trkpt lat="48.46118" lon="7.23078">
        <ele>647.4</ele>
        <time>2026-03-16T08:35:12Z</time>
      </trkpt>
      <trkpt lat="48.46116" lon="7.23085">
        <ele>647.8</ele>
        <time>2026-03-16T08:35:17Z</time>
      </trkpt>
      <trkpt lat="48.46115" lon="7.23091">
        <ele>647.7</ele>
        <time>2026-03-16T08:35:22Z</time>
      </trkpt>
      <trkpt lat="48.46113" lon="7.23097">
        <ele>648.1</ele>
        <time>2026-03-16T08:35:27Z</time>
      </trkpt>
      <trkpt lat="48.46112" lon="7.23103">
        <ele>648.1</ele>
        <time>2026-03-16T08:35:32Z</time>
      </trkpt>
      <trkpt lat="48.46111" lon="7.23109">
        <ele>648</ele>
        <time>2026-03-16T08:35:37Z</time>
      </trkpt>
      <trkpt lat="48.4611" lon="7.23116">
        <ele>647.8</ele>
        <time>2026-03-16T08:35:42Z</time>
      </trkpt>
      <trkpt lat="48.46111" lon="7.23126">
        <ele>646.6</ele>
        <time>2026-03-16T08:35:47Z</time>
      </trkpt>
      <trkpt lat="48.4611" lon="7.23135">
        <ele>646.3</ele>
        <time>2026-03-16T08:35:52Z</time>
      </trkpt>
      <trkpt lat="48.46111" lon="7.23142">
        <ele>645.3</ele>
        <time>2026-03-16T08:35:57Z</time>
      </trkpt>
      <trkpt lat="48.46111" lon="7.23147">
        <ele>644.9</ele>
        <time>2026-03-16T08:36:02Z</time>
      </trkpt>
      <trkpt lat="48.46112" lon="7.23154">
        <ele>644</ele>
        <time>2026-03-16T08:36:07Z</time>
      </trkpt>
      <trkpt lat="48.46114" lon="7.2316">
        <ele>642.8</ele>
        <time>2026-03-16T08:36:12Z</time>
      </trkpt>
      <trkpt lat="48.46115" lon="7.23168">
        <ele>642</ele>
        <time>2026-03-16T08:36:17Z</time>
      </trkpt>
      <trkpt lat="48.46118" lon="7.23175">
        <ele>641.2</ele>
        <time>2026-03-16T08:36:22Z</time>
      </trkpt>
      <trkpt lat="48.46121" lon="7.23181">
        <ele>640.4</ele>
        <time>2026-03-16T08:36:27Z</time>
      </trkpt>
      <trkpt lat="48.46123" lon="7.23187">
        <ele>639.9</ele>
        <time>2026-03-16T08:36:32Z</time>
      </trkpt>
      <trkpt lat="48.46124" lon="7.23193">
        <ele>639.8</ele>
        <time>2026-03-16T08:36:37Z</time>
      </trkpt>
      <trkpt lat="48.46125" lon="7.23199">
        <ele>639.7</ele>
        <time>2026-03-16T08:36:42Z</time>
      </trkpt>
      <trkpt lat="48.46125" lon="7.23204">
        <ele>639.8</ele>
        <time>2026-03-16T08:36:47Z</time>
      </trkpt>
      <trkpt lat="48.46125" lon="7.23211">
        <ele>640.1</ele>
        <time>2026-03-16T08:36:52Z</time>
      </trkpt>
      <trkpt lat="48.46124" lon="7.23218">
        <ele>640.7</ele>
        <time>2026-03-16T08:36:57Z</time>
      </trkpt>
      <trkpt lat="48.46123" lon="7.23224">
        <ele>641.3</ele>
        <time>2026-03-16T08:37:02Z</time>
      </trkpt>
      <trkpt lat="48.46122" lon="7.23231">
        <ele>641.9</ele>
        <time>2026-03-16T08:37:07Z</time>
      </trkpt>
      <trkpt lat="48.46122" lon="7.23236">
        <ele>642</ele>
        <time>2026-03-16T08:37:12Z</time>
      </trkpt>
      <trkpt lat="48.4612" lon="7.23242">
        <ele>643</ele>
        <time>2026-03-16T08:37:17Z</time>
      </trkpt>
      <trkpt lat="48.46118" lon="7.23249">
        <ele>643.9</ele>
        <time>2026-03-16T08:37:22Z</time>
      </trkpt>
      <trkpt lat="48.46117" lon="7.23256">
        <ele>644.8</ele>
        <time>2026-03-16T08:37:27Z</time>
      </trkpt>
      <trkpt lat="48.46116" lon="7.23261">
        <ele>645.5</ele>
        <time>2026-03-16T08:37:32Z</time>
      </trkpt>
      <trkpt lat="48.46116" lon="7.23267">
        <ele>646</ele>
        <time>2026-03-16T08:37:37Z</time>
      </trkpt>
      <trkpt lat="48.46116" lon="7.23275">
        <ele>646.6</ele>
        <time>2026-03-16T08:37:42Z</time>
      </trkpt>
      <trkpt lat="48.46116" lon="7.23281">
        <ele>647.1</ele>
        <time>2026-03-16T08:37:47Z</time>
      </trkpt>
      <trkpt lat="48.46116" lon="7.23288">
        <ele>647.7</ele>
        <time>2026-03-16T08:37:52Z</time>
      </trkpt>
      <trkpt lat="48.46115" lon="7.23295">
        <ele>648.6</ele>
        <time>2026-03-16T08:37:57Z</time>
      </trkpt>
      <trkpt lat="48.46115" lon="7.23301">
        <ele>649.1</ele>
        <time>2026-03-16T08:38:02Z</time>
      </trkpt>
      <trkpt lat="48.46115" lon="7.23307">
        <ele>649.6</ele>
        <time>2026-03-16T08:38:07Z</time>
      </trkpt>
      <trkpt lat="48.46114" lon="7.23315">
        <ele>650.6</ele>
        <time>2026-03-16T08:38:12Z</time>
      </trkpt>
      <trkpt lat="48.46114" lon="7.2332">
        <ele>651</ele>
        <time>2026-03-16T08:38:17Z</time>
      </trkpt>
      <trkpt lat="48.46112" lon="7.23325">
        <ele>652.3</ele>
        <time>2026-03-16T08:38:22Z</time>
      </trkpt>
      <trkpt lat="48.46112" lon="7.23332">
        <ele>652.8</ele>
        <time>2026-03-16T08:38:27Z</time>
      </trkpt>
      <trkpt lat="48.46111" lon="7.23337">
        <ele>653.4</ele>
        <time>2026-03-16T08:38:32Z</time>
      </trkpt>
      <trkpt lat="48.4611" lon="7.23343">
        <ele>653.8</ele>
        <time>2026-03-16T08:38:37Z</time>
      </trkpt>
      <trkpt lat="48.46109" lon="7.23349">
        <ele>654.2</ele>
        <time>2026-03-16T08:38:42Z</time>
      </trkpt>
      <trkpt lat="48.46108" lon="7.23356">
        <ele>654.6</ele>
        <time>2026-03-16T08:38:47Z</time>
      </trkpt>
      <trkpt lat="48.46106" lon="7.23363">
        <ele>655.5</ele>
        <time>2026-03-16T08:38:52Z</time>
      </trkpt>
      <trkpt lat="48.46105" lon="7.2337">
        <ele>655.9</ele>
        <time>2026-03-16T08:38:57Z</time>
      </trkpt>
      <trkpt lat="48.46105" lon="7.23375">
        <ele>655.9</ele>
        <time>2026-03-16T08:39:02Z</time>
      </trkpt>
      <trkpt lat="48.46103" lon="7.23382">
        <ele>656.7</ele>
        <time>2026-03-16T08:39:07Z</time>
      </trkpt>
      <trkpt lat="48.46102" lon="7.23391">
        <ele>657.2</ele>
        <time>2026-03-16T08:39:12Z</time>
      </trkpt>
      <trkpt lat="48.461" lon="7.23398">
        <ele>658</ele>
        <time>2026-03-16T08:39:17Z</time>
      </trkpt>
      <trkpt lat="48.46099" lon="7.23404">
        <ele>658.4</ele>
        <time>2026-03-16T08:39:22Z</time>
      </trkpt>
      <trkpt lat="48.46098" lon="7.23411">
        <ele>658.8</ele>
        <time>2026-03-16T08:39:27Z</time>
      </trkpt>
      <trkpt lat="48.46096" lon="7.23417">
        <ele>659.7</ele>
        <time>2026-03-16T08:39:32Z</time>
      </trkpt>
      <trkpt lat="48.46094" lon="7.23421">
        <ele>660.7</ele>
        <time>2026-03-16T08:39:37Z</time>
      </trkpt>
      <trkpt lat="48.46094" lon="7.23423">
        <ele>660.7</ele>
        <time>2026-03-16T08:39:42Z</time>
      </trkpt>
      <trkpt lat="48.46093" lon="7.23425">
        <ele>661.2</ele>
        <time>2026-03-16T08:39:47Z</time>
      </trkpt>
      <trkpt lat="48.46093" lon="7.23425">
        <ele>661.2</ele>
        <time>2026-03-16T08:39:52Z</time>
      </trkpt>
      <trkpt lat="48.46093" lon="7.23425">
        <ele>661.2</ele>
        <time>2026-03-16T08:39:57Z</time>
      </trkpt>
      <trkpt lat="48.46093" lon="7.23425">
        <ele>661.2</ele>
        <time>2026-03-16T08:40:02Z</time>
      </trkpt>
      <trkpt lat="48.46093" lon="7.23425">
        <ele>661.2</ele>
        <time>2026-03-16T08:40:07Z</time>
      </trkpt>
      <trkpt lat="48.46095" lon="7.23432">
        <ele>660.6</ele>
        <time>2026-03-16T08:40:12Z</time>
      </trkpt>
      <trkpt lat="48.46091" lon="7.23435">
        <ele>662.3</ele>
        <time>2026-03-16T08:40:17Z</time>
      </trkpt>
      <trkpt lat="48.46086" lon="7.23438">
        <ele>664.4</ele>
        <time>2026-03-16T08:40:22Z</time>
      </trkpt>
      <trkpt lat="48.46087" lon="7.23437">
        <ele>664</ele>
        <time>2026-03-16T08:40:27Z</time>
      </trkpt>
      <trkpt lat="48.46093" lon="7.23428">
        <ele>661.3</ele>
        <time>2026-03-16T08:40:32Z</time>
      </trkpt>
      <trkpt lat="48.46098" lon="7.23419">
        <ele>658.9</ele>
        <time>2026-03-16T08:40:37Z</time>
      </trkpt>
      <trkpt lat="48.461" lon="7.23413">
        <ele>658</ele>
        <time>2026-03-16T08:40:42Z</time>
      </trkpt>
      <trkpt lat="48.461" lon="7.23413">
        <ele>658</ele>
        <time>2026-03-16T08:40:47Z</time>
      </trkpt>
      <trkpt lat="48.461" lon="7.23416">
        <ele>658</ele>
        <time>2026-03-16T08:40:52Z</time>
      </trkpt>
      <trkpt lat="48.46099" lon="7.23425">
        <ele>658.7</ele>
        <time>2026-03-16T08:40:57Z</time>
      </trkpt>
      <trkpt lat="48.46096" lon="7.2343">
        <ele>660.1</ele>
        <time>2026-03-16T08:41:02Z</time>
      </trkpt>
      <trkpt lat="48.46095" lon="7.23434">
        <ele>660.7</ele>
        <time>2026-03-16T08:41:07Z</time>
      </trkpt>
      <trkpt lat="48.46093" lon="7.23435">
        <ele>661.5</ele>
        <time>2026-03-16T08:41:12Z</time>
      </trkpt>
      <trkpt lat="48.46093" lon="7.23434">
        <ele>661.5</ele>
        <time>2026-03-16T08:41:17Z</time>
      </trkpt>
      <trkpt lat="48.46093" lon="7.23434">
        <ele>661.5</ele>
        <time>2026-03-16T08:41:22Z</time>
      </trkpt>
      <trkpt lat="48.4609" lon="7.23437">
        <ele>662.8</ele>
        <time>2026-03-16T08:41:27Z</time>
      </trkpt>
      <trkpt lat="48.4609" lon="7.23445">
        <ele>663</ele>
        <time>2026-03-16T08:41:32Z</time>
      </trkpt>
      <trkpt lat="48.4609" lon="7.23453">
        <ele>663.3</ele>
        <time>2026-03-16T08:41:37Z</time>
      </trkpt>
      <trkpt lat="48.46089" lon="7.23458">
        <ele>663.8</ele>
        <time>2026-03-16T08:41:42Z</time>
      </trkpt>
      <trkpt lat="48.46091" lon="7.23466">
        <ele>663.3</ele>
        <time>2026-03-16T08:41:47Z</time>
      </trkpt>
      <trkpt lat="48.46093" lon="7.23472">
        <ele>662.7</ele>
        <time>2026-03-16T08:41:52Z</time>
      </trkpt>
      <trkpt lat="48.46095" lon="7.23476">
        <ele>662.1</ele>
        <time>2026-03-16T08:41:57Z</time>
      </trkpt>
      <trkpt lat="48.46098" lon="7.23486">
        <ele>661.4</ele>
        <time>2026-03-16T08:42:02Z</time>
      </trkpt>
      <trkpt lat="48.46103" lon="7.23497">
        <ele>660</ele>
        <time>2026-03-16T08:42:07Z</time>
      </trkpt>
      <trkpt lat="48.46109" lon="7.23505">
        <ele>658.9</ele>
        <time>2026-03-16T08:42:12Z</time>
      </trkpt>
      <trkpt lat="48.46112" lon="7.23512">
        <ele>659</ele>
        <time>2026-03-16T08:42:17Z</time>
      </trkpt>
      <trkpt lat="48.46114" lon="7.23519">
        <ele>659.5</ele>
        <time>2026-03-16T08:42:22Z</time>
      </trkpt>
      <trkpt lat="48.46116" lon="7.23525">
        <ele>659.9</ele>
        <time>2026-03-16T08:42:27Z</time>
      </trkpt>
      <trkpt lat="48.46117" lon="7.23531">
        <ele>660.6</ele>
        <time>2026-03-16T08:42:32Z</time>
      </trkpt>
      <trkpt lat="48.46118" lon="7.23536">
        <ele>661.1</ele>
        <time>2026-03-16T08:42:37Z</time>
      </trkpt>
      <trkpt lat="48.4612" lon="7.23543">
        <ele>661.6</ele>
        <time>2026-03-16T08:42:42Z</time>
      </trkpt>
      <trkpt lat="48.46123" lon="7.23546">
        <ele>661.2</ele>
        <time>2026-03-16T08:42:47Z</time>
      </trkpt>
      <trkpt lat="48.46123" lon="7.23552">
        <ele>662.2</ele>
        <time>2026-03-16T08:42:52Z</time>
      </trkpt>
      <trkpt lat="48.46125" lon="7.23557">
        <ele>662.4</ele>
        <time>2026-03-16T08:42:57Z</time>
      </trkpt>
      <trkpt lat="48.46127" lon="7.23564">
        <ele>663</ele>
        <time>2026-03-16T08:43:02Z</time>
      </trkpt>
      <trkpt lat="48.46128" lon="7.23568">
        <ele>663.4</ele>
        <time>2026-03-16T08:43:07Z</time>
      </trkpt>
      <trkpt lat="48.46132" lon="7.23575">
        <ele>663.3</ele>
        <time>2026-03-16T08:43:12Z</time>
      </trkpt>
      <trkpt lat="48.46136" lon="7.23582">
        <ele>663.3</ele>
        <time>2026-03-16T08:43:17Z</time>
      </trkpt>
      <trkpt lat="48.46138" lon="7.23587">
        <ele>663.6</ele>
        <time>2026-03-16T08:43:22Z</time>
      </trkpt>
      <trkpt lat="48.46139" lon="7.23592">
        <ele>664.2</ele>
        <time>2026-03-16T08:43:27Z</time>
      </trkpt>
      <trkpt lat="48.4614" lon="7.23597">
        <ele>664.8</ele>
        <time>2026-03-16T08:43:32Z</time>
      </trkpt>
      <trkpt lat="48.46142" lon="7.23601">
        <ele>664.9</ele>
        <time>2026-03-16T08:43:37Z</time>
      </trkpt>
      <trkpt lat="48.46144" lon="7.23609">
        <ele>665.8</ele>
        <time>2026-03-16T08:43:42Z</time>
      </trkpt>
      <trkpt lat="48.46145" lon="7.23615">
        <ele>666.6</ele>
        <time>2026-03-16T08:43:47Z</time>
      </trkpt>
      <trkpt lat="48.46147" lon="7.23623">
        <ele>667.4</ele>
        <time>2026-03-16T08:43:52Z</time>
      </trkpt>
      <trkpt lat="48.46148" lon="7.23629">
        <ele>668.2</ele>
        <time>2026-03-16T08:43:57Z</time>
      </trkpt>
      <trkpt lat="48.46149" lon="7.23635">
        <ele>668.9</ele>
        <time>2026-03-16T08:44:02Z</time>
      </trkpt>
      <trkpt lat="48.46151" lon="7.23642">
        <ele>669.6</ele>
        <time>2026-03-16T08:44:07Z</time>
      </trkpt>
      <trkpt lat="48.46153" lon="7.23647">
        <ele>669.8</ele>
        <time>2026-03-16T08:44:12Z</time>
      </trkpt>
      <trkpt lat="48.46156" lon="7.23653">
        <ele>670</ele>
        <time>2026-03-16T08:44:17Z</time>
      </trkpt>
      <trkpt lat="48.46159" lon="7.2366">
        <ele>670.3</ele>
        <time>2026-03-16T08:44:22Z</time>
      </trkpt>
      <trkpt lat="48.46162" lon="7.23668">
        <ele>670.8</ele>
        <time>2026-03-16T08:44:27Z</time>
      </trkpt>
      <trkpt lat="48.46165" lon="7.23674">
        <ele>671</ele>
        <time>2026-03-16T08:44:32Z</time>
      </trkpt>
      <trkpt lat="48.46167" lon="7.23678">
        <ele>671.2</ele>
        <time>2026-03-16T08:44:37Z</time>
      </trkpt>
      <trkpt lat="48.46169" lon="7.23684">
        <ele>671.9</ele>
        <time>2026-03-16T08:44:42Z</time>
      </trkpt>
      <trkpt lat="48.46172" lon="7.23689">
        <ele>672.1</ele>
        <time>2026-03-16T08:44:47Z</time>
      </trkpt>
      <trkpt lat="48.46176" lon="7.23694">
        <ele>672</ele>
        <time>2026-03-16T08:44:52Z</time>
      </trkpt>
      <trkpt lat="48.46179" lon="7.237">
        <ele>672.5</ele>
        <time>2026-03-16T08:44:57Z</time>
      </trkpt>
      <trkpt lat="48.46182" lon="7.23703">
        <ele>672.3</ele>
        <time>2026-03-16T08:45:02Z</time>
      </trkpt>
      <trkpt lat="48.46184" lon="7.23704">
        <ele>671.9</ele>
        <time>2026-03-16T08:45:07Z</time>
      </trkpt>
      <trkpt lat="48.46188" lon="7.23707">
        <ele>671.5</ele>
        <time>2026-03-16T08:45:12Z</time>
      </trkpt>
      <trkpt lat="48.46192" lon="7.2371">
        <ele>671</ele>
        <time>2026-03-16T08:45:17Z</time>
      </trkpt>
      <trkpt lat="48.46197" lon="7.23713">
        <ele>670.3</ele>
        <time>2026-03-16T08:45:22Z</time>
      </trkpt>
      <trkpt lat="48.46199" lon="7.23717">
        <ele>670.6</ele>
        <time>2026-03-16T08:45:27Z</time>
      </trkpt>
      <trkpt lat="48.46203" lon="7.2372">
        <ele>670.1</ele>
        <time>2026-03-16T08:45:32Z</time>
      </trkpt>
      <trkpt lat="48.46206" lon="7.23724">
        <ele>670.2</ele>
        <time>2026-03-16T08:45:37Z</time>
      </trkpt>
      <trkpt lat="48.4621" lon="7.23729">
        <ele>670.1</ele>
        <time>2026-03-16T08:45:42Z</time>
      </trkpt>
      <trkpt lat="48.46213" lon="7.23733">
        <ele>670.2</ele>
        <time>2026-03-16T08:45:47Z</time>
      </trkpt>
      <trkpt lat="48.46216" lon="7.23737">
        <ele>670.2</ele>
        <time>2026-03-16T08:45:52Z</time>
      </trkpt>
      <trkpt lat="48.46221" lon="7.23738">
        <ele>669.1</ele>
        <time>2026-03-16T08:45:57Z</time>
      </trkpt>
      <trkpt lat="48.46225" lon="7.23742">
        <ele>668.9</ele>
        <time>2026-03-16T08:46:02Z</time>
      </trkpt>
      <trkpt lat="48.46226" lon="7.23744">
        <ele>669.1</ele>
        <time>2026-03-16T08:46:07Z</time>
      </trkpt>
      <trkpt lat="48.4623" lon="7.23746">
        <ele>668.4</ele>
        <time>2026-03-16T08:46:12Z</time>
      </trkpt>
      <trkpt lat="48.46233" lon="7.23751">
        <ele>668.6</ele>
        <time>2026-03-16T08:46:17Z</time>
      </trkpt>
      <trkpt lat="48.46236" lon="7.23755">
        <ele>668.3</ele>
        <time>2026-03-16T08:46:22Z</time>
      </trkpt>
      <trkpt lat="48.4624" lon="7.2376">
        <ele>667.9</ele>
        <time>2026-03-16T08:46:27Z</time>
      </trkpt>
      <trkpt lat="48.46242" lon="7.23764">
        <ele>667.8</ele>
        <time>2026-03-16T08:46:32Z</time>
      </trkpt>
      <trkpt lat="48.46245" lon="7.2377">
        <ele>667.7</ele>
        <time>2026-03-16T08:46:37Z</time>
      </trkpt>
      <trkpt lat="48.46249" lon="7.23774">
        <ele>667.1</ele>
        <time>2026-03-16T08:46:42Z</time>
      </trkpt>
      <trkpt lat="48.46252" lon="7.23779">
        <ele>667.2</ele>
        <time>2026-03-16T08:46:47Z</time>
      </trkpt>
      <trkpt lat="48.46255" lon="7.23785">
        <ele>667.6</ele>
        <time>2026-03-16T08:46:52Z</time>
      </trkpt>
      <trkpt lat="48.46259" lon="7.2379">
        <ele>667.7</ele>
        <time>2026-03-16T08:46:57Z</time>
      </trkpt>
      <trkpt lat="48.46262" lon="7.23793">
        <ele>667.7</ele>
        <time>2026-03-16T08:47:02Z</time>
      </trkpt>
      <trkpt lat="48.46265" lon="7.23799">
        <ele>668.1</ele>
        <time>2026-03-16T08:47:07Z</time>
      </trkpt>
      <trkpt lat="48.46268" lon="7.23806">
        <ele>668.7</ele>
        <time>2026-03-16T08:47:12Z</time>
      </trkpt>
      <trkpt lat="48.46271" lon="7.23812">
        <ele>669.2</ele>
        <time>2026-03-16T08:47:17Z</time>
      </trkpt>
      <trkpt lat="48.46275" lon="7.23817">
        <ele>669.4</ele>
        <time>2026-03-16T08:47:22Z</time>
      </trkpt>
      <trkpt lat="48.46277" lon="7.23823">
        <ele>670</ele>
        <time>2026-03-16T08:47:27Z</time>
      </trkpt>
      <trkpt lat="48.46278" lon="7.2383">
        <ele>670.9</ele>
        <time>2026-03-16T08:47:32Z</time>
      </trkpt>
      <trkpt lat="48.46279" lon="7.23836">
        <ele>671.2</ele>
        <time>2026-03-16T08:47:37Z</time>
      </trkpt>
      <trkpt lat="48.4628" lon="7.23845">
        <ele>671.2</ele>
        <time>2026-03-16T08:47:42Z</time>
      </trkpt>
      <trkpt lat="48.4628" lon="7.23853">
        <ele>671.3</ele>
        <time>2026-03-16T08:47:47Z</time>
      </trkpt>
      <trkpt lat="48.46279" lon="7.23861">
        <ele>671.4</ele>
        <time>2026-03-16T08:47:52Z</time>
      </trkpt>
      <trkpt lat="48.46278" lon="7.23867">
        <ele>671.6</ele>
        <time>2026-03-16T08:47:57Z</time>
      </trkpt>
      <trkpt lat="48.46278" lon="7.23873">
        <ele>671.6</ele>
        <time>2026-03-16T08:48:02Z</time>
      </trkpt>
      <trkpt lat="48.46277" lon="7.23879">
        <ele>671.8</ele>
        <time>2026-03-16T08:48:07Z</time>
      </trkpt>
      <trkpt lat="48.46274" lon="7.23886">
        <ele>672.1</ele>
        <time>2026-03-16T08:48:12Z</time>
      </trkpt>
      <trkpt lat="48.46269" lon="7.23892">
        <ele>672.7</ele>
        <time>2026-03-16T08:48:17Z</time>
      </trkpt>
      <trkpt lat="48.46262" lon="7.23894">
        <ele>673.5</ele>
        <time>2026-03-16T08:48:22Z</time>
      </trkpt>
      <trkpt lat="48.46256" lon="7.23899">
        <ele>674.2</ele>
        <time>2026-03-16T08:48:27Z</time>
      </trkpt>
      <trkpt lat="48.46253" lon="7.23902">
        <ele>674.5</ele>
        <time>2026-03-16T08:48:32Z</time>
      </trkpt>
      <trkpt lat="48.46251" lon="7.23905">
        <ele>674.8</ele>
        <time>2026-03-16T08:48:37Z</time>
      </trkpt>
      <trkpt lat="48.46249" lon="7.2391">
        <ele>675.2</ele>
        <time>2026-03-16T08:48:42Z</time>
      </trkpt>
      <trkpt lat="48.46245" lon="7.23915">
        <ele>676.4</ele>
        <time>2026-03-16T08:48:47Z</time>
      </trkpt>
      <trkpt lat="48.46241" lon="7.23916">
        <ele>677.6</ele>
        <time>2026-03-16T08:48:52Z</time>
      </trkpt>
      <trkpt lat="48.46239" lon="7.23916">
        <ele>678.2</ele>
        <time>2026-03-16T08:48:57Z</time>
      </trkpt>
      <trkpt lat="48.46239" lon="7.23916">
        <ele>678.2</ele>
        <time>2026-03-16T08:49:02Z</time>
      </trkpt>
      <trkpt lat="48.46239" lon="7.23916">
        <ele>678.2</ele>
        <time>2026-03-16T08:49:07Z</time>
      </trkpt>
      <trkpt lat="48.46239" lon="7.23916">
        <ele>678.2</ele>
        <time>2026-03-16T08:49:12Z</time>
      </trkpt>
      <trkpt lat="48.46239" lon="7.23916">
        <ele>678.2</ele>
        <time>2026-03-16T08:49:17Z</time>
      </trkpt>
      <trkpt lat="48.46236" lon="7.23918">
        <ele>678.8</ele>
        <time>2026-03-16T08:49:22Z</time>
      </trkpt>
      <trkpt lat="48.46233" lon="7.23916">
        <ele>679.9</ele>
        <time>2026-03-16T08:49:27Z</time>
      </trkpt>
      <trkpt lat="48.46222" lon="7.23914">
        <ele>683</ele>
        <time>2026-03-16T08:49:32Z</time>
      </trkpt>
      <trkpt lat="48.46217" lon="7.23916">
        <ele>684.5</ele>
        <time>2026-03-16T08:49:37Z</time>
      </trkpt>
      <trkpt lat="48.46214" lon="7.23921">
        <ele>684.6</ele>
        <time>2026-03-16T08:49:42Z</time>
      </trkpt>
      <trkpt lat="48.4621" lon="7.23925">
        <ele>685</ele>
        <time>2026-03-16T08:49:47Z</time>
      </trkpt>
      <trkpt lat="48.46205" lon="7.23929">
        <ele>685.6</ele>
        <time>2026-03-16T08:49:52Z</time>
      </trkpt>
      <trkpt lat="48.46202" lon="7.2393">
        <ele>686.3</ele>
        <time>2026-03-16T08:49:57Z</time>
      </trkpt>
      <trkpt lat="48.462" lon="7.23933">
        <ele>686.3</ele>
        <time>2026-03-16T08:50:02Z</time>
      </trkpt>
      <trkpt lat="48.46193" lon="7.23937">
        <ele>687.5</ele>
        <time>2026-03-16T08:50:07Z</time>
      </trkpt>
      <trkpt lat="48.46186" lon="7.23941">
        <ele>688.7</ele>
        <time>2026-03-16T08:50:12Z</time>
      </trkpt>
      <trkpt lat="48.46181" lon="7.23943">
        <ele>689.7</ele>
        <time>2026-03-16T08:50:17Z</time>
      </trkpt>
      <trkpt lat="48.46177" lon="7.23946">
        <ele>690.2</ele>
        <time>2026-03-16T08:50:22Z</time>
      </trkpt>
      <trkpt lat="48.46173" lon="7.23952">
        <ele>690.1</ele>
        <time>2026-03-16T08:50:27Z</time>
      </trkpt>
      <trkpt lat="48.46166" lon="7.2396">
        <ele>690.4</ele>
        <time>2026-03-16T08:50:32Z</time>
      </trkpt>
      <trkpt lat="48.46162" lon="7.23965">
        <ele>690.8</ele>
        <time>2026-03-16T08:50:37Z</time>
      </trkpt>
      <trkpt lat="48.46156" lon="7.2397">
        <ele>691.9</ele>
        <time>2026-03-16T08:50:42Z</time>
      </trkpt>
      <trkpt lat="48.4615" lon="7.23971">
        <ele>693.8</ele>
        <time>2026-03-16T08:50:47Z</time>
      </trkpt>
      <trkpt lat="48.46146" lon="7.23976">
        <ele>694.2</ele>
        <time>2026-03-16T08:50:52Z</time>
      </trkpt>
      <trkpt lat="48.4614" lon="7.2398">
        <ele>695.5</ele>
        <time>2026-03-16T08:50:57Z</time>
      </trkpt>
      <trkpt lat="48.46137" lon="7.23984">
        <ele>695.8</ele>
        <time>2026-03-16T08:51:02Z</time>
      </trkpt>
      <trkpt lat="48.46133" lon="7.23987">
        <ele>696.6</ele>
        <time>2026-03-16T08:51:07Z</time>
      </trkpt>
      <trkpt lat="48.46129" lon="7.23989">
        <ele>697.7</ele>
        <time>2026-03-16T08:51:12Z</time>
      </trkpt>
      <trkpt lat="48.46125" lon="7.2399">
        <ele>698.9</ele>
        <time>2026-03-16T08:51:17Z</time>
      </trkpt>
      <trkpt lat="48.4612" lon="7.23993">
        <ele>700.1</ele>
        <time>2026-03-16T08:51:22Z</time>
      </trkpt>
      <trkpt lat="48.46115" lon="7.23995">
        <ele>701.5</ele>
        <time>2026-03-16T08:51:27Z</time>
      </trkpt>
      <trkpt lat="48.4611" lon="7.23997">
        <ele>703</ele>
        <time>2026-03-16T08:51:32Z</time>
      </trkpt>
      <trkpt lat="48.46105" lon="7.24">
        <ele>704.2</ele>
        <time>2026-03-16T08:51:37Z</time>
      </trkpt>
      <trkpt lat="48.46102" lon="7.24003">
        <ele>704.5</ele>
        <time>2026-03-16T08:51:42Z</time>
      </trkpt>
      <trkpt lat="48.46098" lon="7.24007">
        <ele>704.8</ele>
        <time>2026-03-16T08:51:47Z</time>
      </trkpt>
      <trkpt lat="48.46094" lon="7.2401">
        <ele>705.5</ele>
        <time>2026-03-16T08:51:52Z</time>
      </trkpt>
      <trkpt lat="48.46091" lon="7.24012">
        <ele>706</ele>
        <time>2026-03-16T08:51:57Z</time>
      </trkpt>
      <trkpt lat="48.46087" lon="7.24014">
        <ele>707</ele>
        <time>2026-03-16T08:52:02Z</time>
      </trkpt>
      <trkpt lat="48.46083" lon="7.24016">
        <ele>707.9</ele>
        <time>2026-03-16T08:52:07Z</time>
      </trkpt>
      <trkpt lat="48.46079" lon="7.24018">
        <ele>708.5</ele>
        <time>2026-03-16T08:52:12Z</time>
      </trkpt>
      <trkpt lat="48.46075" lon="7.24019">
        <ele>709.4</ele>
        <time>2026-03-16T08:52:17Z</time>
      </trkpt>
      <trkpt lat="48.4607" lon="7.24023">
        <ele>709.9</ele>
        <time>2026-03-16T08:52:22Z</time>
      </trkpt>
      <trkpt lat="48.46063" lon="7.24026">
        <ele>711.3</ele>
        <time>2026-03-16T08:52:27Z</time>
      </trkpt>
      <trkpt lat="48.46058" lon="7.24029">
        <ele>712.1</ele>
        <time>2026-03-16T08:52:32Z</time>
      </trkpt>
      <trkpt lat="48.46052" lon="7.24035">
        <ele>712.6</ele>
        <time>2026-03-16T08:52:37Z</time>
      </trkpt>
      <trkpt lat="48.46047" lon="7.2404">
        <ele>713.1</ele>
        <time>2026-03-16T08:52:42Z</time>
      </trkpt>
      <trkpt lat="48.46043" lon="7.24045">
        <ele>713.4</ele>
        <time>2026-03-16T08:52:47Z</time>
      </trkpt>
      <trkpt lat="48.4604" lon="7.24047">
        <ele>714</ele>
        <time>2026-03-16T08:52:52Z</time>
      </trkpt>
      <trkpt lat="48.46035" lon="7.24049">
        <ele>715.2</ele>
        <time>2026-03-16T08:52:57Z</time>
      </trkpt>
      <trkpt lat="48.4603" lon="7.24053">
        <ele>716.2</ele>
        <time>2026-03-16T08:53:02Z</time>
      </trkpt>
      <trkpt lat="48.46025" lon="7.24058">
        <ele>717</ele>
        <time>2026-03-16T08:53:07Z</time>
      </trkpt>
      <trkpt lat="48.46021" lon="7.24064">
        <ele>717.3</ele>
        <time>2026-03-16T08:53:12Z</time>
      </trkpt>
      <trkpt lat="48.46018" lon="7.24071">
        <ele>717.2</ele>
        <time>2026-03-16T08:53:17Z</time>
      </trkpt>
      <trkpt lat="48.46015" lon="7.24075">
        <ele>717.6</ele>
        <time>2026-03-16T08:53:22Z</time>
      </trkpt>
      <trkpt lat="48.46012" lon="7.24079">
        <ele>718.1</ele>
        <time>2026-03-16T08:53:27Z</time>
      </trkpt>
      <trkpt lat="48.46008" lon="7.24084">
        <ele>718.8</ele>
        <time>2026-03-16T08:53:32Z</time>
      </trkpt>
      <trkpt lat="48.46004" lon="7.24088">
        <ele>719.5</ele>
        <time>2026-03-16T08:53:37Z</time>
      </trkpt>
      <trkpt lat="48.46004" lon="7.2409">
        <ele>719.1</ele>
        <time>2026-03-16T08:53:42Z</time>
      </trkpt>
      <trkpt lat="48.46004" lon="7.24091">
        <ele>718.9</ele>
        <time>2026-03-16T08:53:47Z</time>
      </trkpt>
      <trkpt lat="48.46001" lon="7.24101">
        <ele>718</ele>
        <time>2026-03-16T08:53:52Z</time>
      </trkpt>
      <trkpt lat="48.45999" lon="7.24102">
        <ele>718.3</ele>
        <time>2026-03-16T08:53:57Z</time>
      </trkpt>
      <trkpt lat="48.45995" lon="7.24106">
        <ele>718.2</ele>
        <time>2026-03-16T08:54:02Z</time>
      </trkpt>
      <trkpt lat="48.45987" lon="7.24116">
        <ele>717.5</ele>
        <time>2026-03-16T08:54:07Z</time>
      </trkpt>
      <trkpt lat="48.45983" lon="7.24125">
        <ele>716.4</ele>
        <time>2026-03-16T08:54:12Z</time>
      </trkpt>
      <trkpt lat="48.45979" lon="7.24136">
        <ele>714.9</ele>
        <time>2026-03-16T08:54:17Z</time>
      </trkpt>
      <trkpt lat="48.45977" lon="7.24144">
        <ele>713.7</ele>
        <time>2026-03-16T08:54:22Z</time>
      </trkpt>
      <trkpt lat="48.45973" lon="7.24147">
        <ele>713.9</ele>
        <time>2026-03-16T08:54:27Z</time>
      </trkpt>
      <trkpt lat="48.45968" lon="7.24154">
        <ele>713.5</ele>
        <time>2026-03-16T08:54:32Z</time>
      </trkpt>
      <trkpt lat="48.45963" lon="7.24159">
        <ele>713.5</ele>
        <time>2026-03-16T08:54:37Z</time>
      </trkpt>
      <trkpt lat="48.45957" lon="7.24164">
        <ele>713.7</ele>
        <time>2026-03-16T08:54:42Z</time>
      </trkpt>
      <trkpt lat="48.45951" lon="7.24168">
        <ele>714.1</ele>
        <time>2026-03-16T08:54:47Z</time>
      </trkpt>
      <trkpt lat="48.45946" lon="7.24169">
        <ele>714.9</ele>
        <time>2026-03-16T08:54:52Z</time>
      </trkpt>
      <trkpt lat="48.45941" lon="7.24171">
        <ele>715.5</ele>
        <time>2026-03-16T08:54:57Z</time>
      </trkpt>
      <trkpt lat="48.45937" lon="7.24174">
        <ele>715.7</ele>
        <time>2026-03-16T08:55:02Z</time>
      </trkpt>
      <trkpt lat="48.45931" lon="7.24176">
        <ele>716.5</ele>
        <time>2026-03-16T08:55:07Z</time>
      </trkpt>
      <trkpt lat="48.45925" lon="7.24175">
        <ele>717.9</ele>
        <time>2026-03-16T08:55:12Z</time>
      </trkpt>
      <trkpt lat="48.45918" lon="7.24178">
        <ele>718.7</ele>
        <time>2026-03-16T08:55:17Z</time>
      </trkpt>
      <trkpt lat="48.45918" lon="7.24178">
        <ele>718.7</ele>
        <time>2026-03-16T08:55:22Z</time>
      </trkpt>
      <trkpt lat="48.45914" lon="7.24182">
        <ele>718.2</ele>
        <time>2026-03-16T08:55:27Z</time>
      </trkpt>
      <trkpt lat="48.45906" lon="7.24183">
        <ele>718</ele>
        <time>2026-03-16T08:55:32Z</time>
      </trkpt>
      <trkpt lat="48.45898" lon="7.24184">
        <ele>717.7</ele>
        <time>2026-03-16T08:55:37Z</time>
      </trkpt>
      <trkpt lat="48.45889" lon="7.24185">
        <ele>717.5</ele>
        <time>2026-03-16T08:55:42Z</time>
      </trkpt>
      <trkpt lat="48.45882" lon="7.24188">
        <ele>717</ele>
        <time>2026-03-16T08:55:47Z</time>
      </trkpt>
      <trkpt lat="48.45876" lon="7.24192">
        <ele>716.2</ele>
        <time>2026-03-16T08:55:52Z</time>
      </trkpt>
      <trkpt lat="48.4587" lon="7.24196">
        <ele>715.6</ele>
        <time>2026-03-16T08:55:57Z</time>
      </trkpt>
      <trkpt lat="48.45866" lon="7.242">
        <ele>714.9</ele>
        <time>2026-03-16T08:56:02Z</time>
      </trkpt>
      <trkpt lat="48.45864" lon="7.24201">
        <ele>714.7</ele>
        <time>2026-03-16T08:56:07Z</time>
      </trkpt>
      <trkpt lat="48.4586" lon="7.24206">
        <ele>713.9</ele>
        <time>2026-03-16T08:56:12Z</time>
      </trkpt>
      <trkpt lat="48.45857" lon="7.2421">
        <ele>713.2</ele>
        <time>2026-03-16T08:56:17Z</time>
      </trkpt>
      <trkpt lat="48.45852" lon="7.24214">
        <ele>712.6</ele>
        <time>2026-03-16T08:56:22Z</time>
      </trkpt>
      <trkpt lat="48.45848" lon="7.24215">
        <ele>712.4</ele>
        <time>2026-03-16T08:56:27Z</time>
      </trkpt>
      <trkpt lat="48.45843" lon="7.24218">
        <ele>712</ele>
        <time>2026-03-16T08:56:32Z</time>
      </trkpt>
      <trkpt lat="48.4584" lon="7.24223">
        <ele>711.2</ele>
        <time>2026-03-16T08:56:37Z</time>
      </trkpt>
      <trkpt lat="48.45834" lon="7.24228">
        <ele>710.4</ele>
        <time>2026-03-16T08:56:42Z</time>
      </trkpt>
      <trkpt lat="48.45828" lon="7.24235">
        <ele>708.8</ele>
        <time>2026-03-16T08:56:48Z</time>
      </trkpt>
      <trkpt lat="48.45822" lon="7.24239">
        <ele>707.6</ele>
        <time>2026-03-16T08:56:53Z</time>
      </trkpt>
      <trkpt lat="48.45818" lon="7.24241">
        <ele>707</ele>
        <time>2026-03-16T08:56:58Z</time>
      </trkpt>
      <trkpt lat="48.45813" lon="7.24243">
        <ele>706.2</ele>
        <time>2026-03-16T08:57:03Z</time>
      </trkpt>
      <trkpt lat="48.45807" lon="7.24245">
        <ele>705.4</ele>
        <time>2026-03-16T08:57:08Z</time>
      </trkpt>
      <trkpt lat="48.45802" lon="7.24247">
        <ele>704.7</ele>
        <time>2026-03-16T08:57:13Z</time>
      </trkpt>
      <trkpt lat="48.45795" lon="7.2425">
        <ele>703.8</ele>
        <time>2026-03-16T08:57:18Z</time>
      </trkpt>
      <trkpt lat="48.45789" lon="7.24252">
        <ele>703.1</ele>
        <time>2026-03-16T08:57:23Z</time>
      </trkpt>
      <trkpt lat="48.45782" lon="7.24253">
        <ele>702.4</ele>
        <time>2026-03-16T08:57:28Z</time>
      </trkpt>
      <trkpt lat="48.45776" lon="7.24253">
        <ele>701.9</ele>
        <time>2026-03-16T08:57:33Z</time>
      </trkpt>
      <trkpt lat="48.4577" lon="7.24254">
        <ele>701.4</ele>
        <time>2026-03-16T08:57:38Z</time>
      </trkpt>
      <trkpt lat="48.45766" lon="7.24253">
        <ele>701.1</ele>
        <time>2026-03-16T08:57:43Z</time>
      </trkpt>
      <trkpt lat="48.45761" lon="7.24252">
        <ele>700.8</ele>
        <time>2026-03-16T08:57:48Z</time>
      </trkpt>
      <trkpt lat="48.45756" lon="7.24253">
        <ele>700.3</ele>
        <time>2026-03-16T08:57:53Z</time>
      </trkpt>
      <trkpt lat="48.45751" lon="7.24251">
        <ele>700</ele>
        <time>2026-03-16T08:57:58Z</time>
      </trkpt>
      <trkpt lat="48.45747" lon="7.24247">
        <ele>700</ele>
        <time>2026-03-16T08:58:03Z</time>
      </trkpt>
      <trkpt lat="48.45741" lon="7.24249">
        <ele>699.4</ele>
        <time>2026-03-16T08:58:08Z</time>
      </trkpt>
      <trkpt lat="48.45736" lon="7.24251">
        <ele>699</ele>
        <time>2026-03-16T08:58:13Z</time>
      </trkpt>
      <trkpt lat="48.4573" lon="7.2425">
        <ele>698.6</ele>
        <time>2026-03-16T08:58:18Z</time>
      </trkpt>
      <trkpt lat="48.45724" lon="7.2425">
        <ele>698.1</ele>
        <time>2026-03-16T08:58:23Z</time>
      </trkpt>
      <trkpt lat="48.45717" lon="7.2425">
        <ele>697.6</ele>
        <time>2026-03-16T08:58:28Z</time>
      </trkpt>
      <trkpt lat="48.45709" lon="7.24252">
        <ele>697.1</ele>
        <time>2026-03-16T08:58:33Z</time>
      </trkpt>
      <trkpt lat="48.45701" lon="7.24252">
        <ele>696.5</ele>
        <time>2026-03-16T08:58:38Z</time>
      </trkpt>
      <trkpt lat="48.45695" lon="7.24251">
        <ele>696.1</ele>
        <time>2026-03-16T08:58:43Z</time>
      </trkpt>
      <trkpt lat="48.45689" lon="7.24251">
        <ele>695.6</ele>
        <time>2026-03-16T08:58:48Z</time>
      </trkpt>
      <trkpt lat="48.45683" lon="7.2425">
        <ele>695.2</ele>
        <time>2026-03-16T08:58:53Z</time>
      </trkpt>
      <trkpt lat="48.45677" lon="7.24251">
        <ele>694.8</ele>
        <time>2026-03-16T08:58:58Z</time>
      </trkpt>
      <trkpt lat="48.4567" lon="7.24254">
        <ele>694.5</ele>
        <time>2026-03-16T08:59:03Z</time>
      </trkpt>
      <trkpt lat="48.45662" lon="7.24257">
        <ele>694.4</ele>
        <time>2026-03-16T08:59:08Z</time>
      </trkpt>
      <trkpt lat="48.45655" lon="7.24261">
        <ele>694.5</ele>
        <time>2026-03-16T08:59:13Z</time>
      </trkpt>
      <trkpt lat="48.45648" lon="7.24265">
        <ele>694.6</ele>
        <time>2026-03-16T08:59:18Z</time>
      </trkpt>
      <trkpt lat="48.45642" lon="7.24269">
        <ele>694.8</ele>
        <time>2026-03-16T08:59:23Z</time>
      </trkpt>
      <trkpt lat="48.45638" lon="7.24271">
        <ele>694.9</ele>
        <time>2026-03-16T08:59:28Z</time>
      </trkpt>
      <trkpt lat="48.45634" lon="7.24276">
        <ele>695.3</ele>
        <time>2026-03-16T08:59:33Z</time>
      </trkpt>
      <trkpt lat="48.45629" lon="7.24279">
        <ele>695.5</ele>
        <time>2026-03-16T08:59:38Z</time>
      </trkpt>
      <trkpt lat="48.45623" lon="7.24284">
        <ele>695.9</ele>
        <time>2026-03-16T08:59:43Z</time>
      </trkpt>
      <trkpt lat="48.45616" lon="7.24289">
        <ele>696.4</ele>
        <time>2026-03-16T08:59:48Z</time>
      </trkpt>
      <trkpt lat="48.45609" lon="7.24292">
        <ele>696.7</ele>
        <time>2026-03-16T08:59:53Z</time>
      </trkpt>
      <trkpt lat="48.45602" lon="7.24295">
        <ele>697</ele>
        <time>2026-03-16T08:59:58Z</time>
      </trkpt>
      <trkpt lat="48.45595" lon="7.24299">
        <ele>697.5</ele>
        <time>2026-03-16T09:00:03Z</time>
      </trkpt>
      <trkpt lat="48.45588" lon="7.24301">
        <ele>697.7</ele>
        <time>2026-03-16T09:00:08Z</time>
      </trkpt>
      <trkpt lat="48.45581" lon="7.24303">
        <ele>698.1</ele>
        <time>2026-03-16T09:00:13Z</time>
      </trkpt>
      <trkpt lat="48.45574" lon="7.24304">
        <ele>698.5</ele>
        <time>2026-03-16T09:00:18Z</time>
      </trkpt>
      <trkpt lat="48.45568" lon="7.24305">
        <ele>698.8</ele>
        <time>2026-03-16T09:00:23Z</time>
      </trkpt>
      <trkpt lat="48.45561" lon="7.24308">
        <ele>699.5</ele>
        <time>2026-03-16T09:00:28Z</time>
      </trkpt>
      <trkpt lat="48.45554" lon="7.24309">
        <ele>699.9</ele>
        <time>2026-03-16T09:00:33Z</time>
      </trkpt>
      <trkpt lat="48.45548" lon="7.24311">
        <ele>700.4</ele>
        <time>2026-03-16T09:00:38Z</time>
      </trkpt>
      <trkpt lat="48.4554" lon="7.24315">
        <ele>701.3</ele>
        <time>2026-03-16T09:00:43Z</time>
      </trkpt>
      <trkpt lat="48.45532" lon="7.24318">
        <ele>702.1</ele>
        <time>2026-03-16T09:00:48Z</time>
      </trkpt>
      <trkpt lat="48.45524" lon="7.2432">
        <ele>702.7</ele>
        <time>2026-03-16T09:00:53Z</time>
      </trkpt>
      <trkpt lat="48.45518" lon="7.24322">
        <ele>703.3</ele>
        <time>2026-03-16T09:00:58Z</time>
      </trkpt>
      <trkpt lat="48.45518" lon="7.24324">
        <ele>703.6</ele>
        <time>2026-03-16T09:01:03Z</time>
      </trkpt>
      <trkpt lat="48.45513" lon="7.24321">
        <ele>703.4</ele>
        <time>2026-03-16T09:01:08Z</time>
      </trkpt>
      <trkpt lat="48.45508" lon="7.2432">
        <ele>703.4</ele>
        <time>2026-03-16T09:01:13Z</time>
      </trkpt>
      <trkpt lat="48.45506" lon="7.24319">
        <ele>703.3</ele>
        <time>2026-03-16T09:01:18Z</time>
      </trkpt>
      <trkpt lat="48.45503" lon="7.2432">
        <ele>703.6</ele>
        <time>2026-03-16T09:01:23Z</time>
      </trkpt>
      <trkpt lat="48.45497" lon="7.24324">
        <ele>704.5</ele>
        <time>2026-03-16T09:01:28Z</time>
      </trkpt>
      <trkpt lat="48.45491" lon="7.24323">
        <ele>704.5</ele>
        <time>2026-03-16T09:01:33Z</time>
      </trkpt>
      <trkpt lat="48.45483" lon="7.24326">
        <ele>705.2</ele>
        <time>2026-03-16T09:01:38Z</time>
      </trkpt>
      <trkpt lat="48.45477" lon="7.24325">
        <ele>705.2</ele>
        <time>2026-03-16T09:01:43Z</time>
      </trkpt>
      <trkpt lat="48.45471" lon="7.24325">
        <ele>705.4</ele>
        <time>2026-03-16T09:01:48Z</time>
      </trkpt>
      <trkpt lat="48.45464" lon="7.24325">
        <ele>705.6</ele>
        <time>2026-03-16T09:01:53Z</time>
      </trkpt>
      <trkpt lat="48.45457" lon="7.24325">
        <ele>705.8</ele>
        <time>2026-03-16T09:01:58Z</time>
      </trkpt>
      <trkpt lat="48.45451" lon="7.24324">
        <ele>705.8</ele>
        <time>2026-03-16T09:02:03Z</time>
      </trkpt>
      <trkpt lat="48.45443" lon="7.24325">
        <ele>706.2</ele>
        <time>2026-03-16T09:02:08Z</time>
      </trkpt>
      <trkpt lat="48.45436" lon="7.24323">
        <ele>706.1</ele>
        <time>2026-03-16T09:02:13Z</time>
      </trkpt>
      <trkpt lat="48.45431" lon="7.24322">
        <ele>706.1</ele>
        <time>2026-03-16T09:02:18Z</time>
      </trkpt>
      <trkpt lat="48.45426" lon="7.24322">
        <ele>706.2</ele>
        <time>2026-03-16T09:02:23Z</time>
      </trkpt>
      <trkpt lat="48.45419" lon="7.24318">
        <ele>705.9</ele>
        <time>2026-03-16T09:02:28Z</time>
      </trkpt>
      <trkpt lat="48.45413" lon="7.24314">
        <ele>705.9</ele>
        <time>2026-03-16T09:02:33Z</time>
      </trkpt>
      <trkpt lat="48.45407" lon="7.24312">
        <ele>706.3</ele>
        <time>2026-03-16T09:02:38Z</time>
      </trkpt>
      <trkpt lat="48.454" lon="7.24308">
        <ele>706.6</ele>
        <time>2026-03-16T09:02:43Z</time>
      </trkpt>
      <trkpt lat="48.45393" lon="7.24305">
        <ele>706.9</ele>
        <time>2026-03-16T09:02:48Z</time>
      </trkpt>
      <trkpt lat="48.45385" lon="7.24305">
        <ele>707.8</ele>
        <time>2026-03-16T09:02:53Z</time>
      </trkpt>
      <trkpt lat="48.45382" lon="7.24307">
        <ele>708.4</ele>
        <time>2026-03-16T09:02:58Z</time>
      </trkpt>
      <trkpt lat="48.45377" lon="7.24303">
        <ele>708.4</ele>
        <time>2026-03-16T09:03:03Z</time>
      </trkpt>
      <trkpt lat="48.45376" lon="7.24301">
        <ele>708.2</ele>
        <time>2026-03-16T09:03:08Z</time>
      </trkpt>
      <trkpt lat="48.45377" lon="7.24303">
        <ele>708.4</ele>
        <time>2026-03-16T09:03:13Z</time>
      </trkpt>
      <trkpt lat="48.45381" lon="7.24306">
        <ele>708.4</ele>
        <time>2026-03-16T09:03:18Z</time>
      </trkpt>
      <trkpt lat="48.45387" lon="7.2431">
        <ele>708.3</ele>
        <time>2026-03-16T09:03:23Z</time>
      </trkpt>
      <trkpt lat="48.45392" lon="7.24315">
        <ele>708.5</ele>
        <time>2026-03-16T09:03:28Z</time>
      </trkpt>
      <trkpt lat="48.45397" lon="7.24318">
        <ele>708.4</ele>
        <time>2026-03-16T09:03:33Z</time>
      </trkpt>
      <trkpt lat="48.454" lon="7.24323">
        <ele>708.7</ele>
        <time>2026-03-16T09:03:38Z</time>
      </trkpt>
      <trkpt lat="48.45408" lon="7.24331">
        <ele>708.8</ele>
        <time>2026-03-16T09:03:43Z</time>
      </trkpt>
      <trkpt lat="48.45416" lon="7.2434">
        <ele>709.4</ele>
        <time>2026-03-16T09:03:48Z</time>
      </trkpt>
      <trkpt lat="48.4542" lon="7.24343">
        <ele>709.7</ele>
        <time>2026-03-16T09:03:53Z</time>
      </trkpt>
      <trkpt lat="48.45427" lon="7.2435">
        <ele>710.8</ele>
        <time>2026-03-16T09:03:58Z</time>
      </trkpt>
      <trkpt lat="48.45433" lon="7.24352">
        <ele>710.9</ele>
        <time>2026-03-16T09:04:03Z</time>
      </trkpt>
      <trkpt lat="48.45437" lon="7.24354">
        <ele>711.1</ele>
        <time>2026-03-16T09:04:08Z</time>
      </trkpt>
      <trkpt lat="48.45441" lon="7.24359">
        <ele>711.8</ele>
        <time>2026-03-16T09:04:13Z</time>
      </trkpt>
      <trkpt lat="48.45446" lon="7.24365">
        <ele>712.6</ele>
        <time>2026-03-16T09:04:18Z</time>
      </trkpt>
      <trkpt lat="48.45451" lon="7.24371">
        <ele>713.3</ele>
        <time>2026-03-16T09:04:23Z</time>
      </trkpt>
      <trkpt lat="48.45456" lon="7.24376">
        <ele>713.8</ele>
        <time>2026-03-16T09:04:28Z</time>
      </trkpt>
      <trkpt lat="48.45461" lon="7.24379">
        <ele>714</ele>
        <time>2026-03-16T09:04:33Z</time>
      </trkpt>
      <trkpt lat="48.45467" lon="7.24384">
        <ele>714.3</ele>
        <time>2026-03-16T09:04:38Z</time>
      </trkpt>
      <trkpt lat="48.45472" lon="7.2439">
        <ele>714.8</ele>
        <time>2026-03-16T09:04:43Z</time>
      </trkpt>
      <trkpt lat="48.45477" lon="7.24393">
        <ele>714.9</ele>
        <time>2026-03-16T09:04:48Z</time>
      </trkpt>
      <trkpt lat="48.45481" lon="7.24392">
        <ele>714.5</ele>
        <time>2026-03-16T09:04:53Z</time>
      </trkpt>
      <trkpt lat="48.45483" lon="7.24393">
        <ele>714.4</ele>
        <time>2026-03-16T09:04:58Z</time>
      </trkpt>
      <trkpt lat="48.45488" lon="7.24395">
        <ele>714.3</ele>
        <time>2026-03-16T09:05:03Z</time>
      </trkpt>
      <trkpt lat="48.45494" lon="7.24393">
        <ele>713.6</ele>
        <time>2026-03-16T09:05:08Z</time>
      </trkpt>
      <trkpt lat="48.455" lon="7.24395">
        <ele>713.4</ele>
        <time>2026-03-16T09:05:13Z</time>
      </trkpt>
      <trkpt lat="48.45507" lon="7.24398">
        <ele>713.3</ele>
        <time>2026-03-16T09:05:18Z</time>
      </trkpt>
      <trkpt lat="48.45512" lon="7.24398">
        <ele>713</ele>
        <time>2026-03-16T09:05:23Z</time>
      </trkpt>
      <trkpt lat="48.45515" lon="7.244">
        <ele>713</ele>
        <time>2026-03-16T09:05:28Z</time>
      </trkpt>
      <trkpt lat="48.45517" lon="7.24404">
        <ele>713.3</ele>
        <time>2026-03-16T09:05:33Z</time>
      </trkpt>
      <trkpt lat="48.45515" lon="7.24408">
        <ele>713.9</ele>
        <time>2026-03-16T09:05:38Z</time>
      </trkpt>
      <trkpt lat="48.45512" lon="7.24413">
        <ele>714.7</ele>
        <time>2026-03-16T09:05:43Z</time>
      </trkpt>
      <trkpt lat="48.45509" lon="7.2441">
        <ele>714.6</ele>
        <time>2026-03-16T09:05:48Z</time>
      </trkpt>
      <trkpt lat="48.4551" lon="7.24406">
        <ele>714</ele>
        <time>2026-03-16T09:05:53Z</time>
      </trkpt>
      <trkpt lat="48.4551" lon="7.24406">
        <ele>714</ele>
        <time>2026-03-16T09:05:58Z</time>
      </trkpt>
      <trkpt lat="48.4551" lon="7.24406">
        <ele>714</ele>
        <time>2026-03-16T09:06:03Z</time>
      </trkpt>
      <trkpt lat="48.4551" lon="7.24406">
        <ele>714</ele>
        <time>2026-03-16T09:06:08Z</time>
      </trkpt>
      <trkpt lat="48.4551" lon="7.24406">
        <ele>714</ele>
        <time>2026-03-16T09:06:13Z</time>
      </trkpt>
      <trkpt lat="48.4551" lon="7.24406">
        <ele>714</ele>
        <time>2026-03-16T09:06:18Z</time>
      </trkpt>
      <trkpt lat="48.4551" lon="7.24406">
        <ele>714</ele>
        <time>2026-03-16T09:06:23Z</time>
      </trkpt>
      <trkpt lat="48.4551" lon="7.24406">
        <ele>714</ele>
        <time>2026-03-16T09:06:28Z</time>
      </trkpt>
      <trkpt lat="48.4551" lon="7.24406">
        <ele>714</ele>
        <time>2026-03-16T09:06:33Z</time>
      </trkpt>
      <trkpt lat="48.4551" lon="7.24406">
        <ele>714</ele>
        <time>2026-03-16T09:06:38Z</time>
      </trkpt>
      <trkpt lat="48.4551" lon="7.24406">
        <ele>714</ele>
        <time>2026-03-16T09:06:43Z</time>
      </trkpt>
      <trkpt lat="48.45516" lon="7.24406">
        <ele>713.6</ele>
        <time>2026-03-16T09:06:48Z</time>
      </trkpt>
      <trkpt lat="48.45516" lon="7.24412">
        <ele>714.3</ele>
        <time>2026-03-16T09:06:53Z</time>
      </trkpt>
      <trkpt lat="48.45519" lon="7.24415">
        <ele>714.4</ele>
        <time>2026-03-16T09:06:58Z</time>
      </trkpt>
      <trkpt lat="48.4552" lon="7.24421">
        <ele>715.2</ele>
        <time>2026-03-16T09:07:03Z</time>
      </trkpt>
      <trkpt lat="48.45519" lon="7.24422">
        <ele>715.5</ele>
        <time>2026-03-16T09:07:08Z</time>
      </trkpt>
      <trkpt lat="48.45517" lon="7.24427">
        <ele>716.4</ele>
        <time>2026-03-16T09:07:13Z</time>
      </trkpt>
      <trkpt lat="48.45515" lon="7.24434">
        <ele>717.7</ele>
        <time>2026-03-16T09:07:18Z</time>
      </trkpt>
      <trkpt lat="48.45513" lon="7.24441">
        <ele>719</ele>
        <time>2026-03-16T09:07:23Z</time>
      </trkpt>
      <trkpt lat="48.4551" lon="7.24447">
        <ele>720.2</ele>
        <time>2026-03-16T09:07:28Z</time>
      </trkpt>
      <trkpt lat="48.45508" lon="7.24452">
        <ele>721.2</ele>
        <time>2026-03-16T09:07:33Z</time>
      </trkpt>
      <trkpt lat="48.45508" lon="7.24452">
        <ele>721.2</ele>
        <time>2026-03-16T09:07:38Z</time>
      </trkpt>
      <trkpt lat="48.45508" lon="7.24452">
        <ele>721.2</ele>
        <time>2026-03-16T09:07:43Z</time>
      </trkpt>
      <trkpt lat="48.45508" lon="7.24452">
        <ele>721.2</ele>
        <time>2026-03-16T09:07:48Z</time>
      </trkpt>
      <trkpt lat="48.45508" lon="7.24452">
        <ele>721.2</ele>
        <time>2026-03-16T09:07:53Z</time>
      </trkpt>
      <trkpt lat="48.45511" lon="7.24456">
        <ele>721.6</ele>
        <time>2026-03-16T09:07:58Z</time>
      </trkpt>
      <trkpt lat="48.4551" lon="7.24463">
        <ele>722.8</ele>
        <time>2026-03-16T09:08:03Z</time>
      </trkpt>
      <trkpt lat="48.45508" lon="7.24468">
        <ele>723.8</ele>
        <time>2026-03-16T09:08:08Z</time>
      </trkpt>
      <trkpt lat="48.45506" lon="7.24474">
        <ele>725</ele>
        <time>2026-03-16T09:08:13Z</time>
      </trkpt>
      <trkpt lat="48.45504" lon="7.24482">
        <ele>726.5</ele>
        <time>2026-03-16T09:08:18Z</time>
      </trkpt>
      <trkpt lat="48.45502" lon="7.24489">
        <ele>727.9</ele>
        <time>2026-03-16T09:08:23Z</time>
      </trkpt>
      <trkpt lat="48.45501" lon="7.24495">
        <ele>729</ele>
        <time>2026-03-16T09:08:28Z</time>
      </trkpt>
      <trkpt lat="48.45499" lon="7.24501">
        <ele>730.3</ele>
        <time>2026-03-16T09:08:33Z</time>
      </trkpt>
      <trkpt lat="48.45498" lon="7.24506">
        <ele>731.4</ele>
        <time>2026-03-16T09:08:38Z</time>
      </trkpt>
      <trkpt lat="48.45498" lon="7.2451">
        <ele>732.1</ele>
        <time>2026-03-16T09:08:43Z</time>
      </trkpt>
      <trkpt lat="48.45498" lon="7.24517">
        <ele>733.4</ele>
        <time>2026-03-16T09:08:48Z</time>
      </trkpt>
      <trkpt lat="48.45497" lon="7.24524">
        <ele>734.8</ele>
        <time>2026-03-16T09:08:53Z</time>
      </trkpt>
      <trkpt lat="48.45496" lon="7.24526">
        <ele>735.3</ele>
        <time>2026-03-16T09:08:58Z</time>
      </trkpt>
      <trkpt lat="48.45497" lon="7.24527">
        <ele>735.3</ele>
        <time>2026-03-16T09:09:03Z</time>
      </trkpt>
      <trkpt lat="48.45497" lon="7.24527">
        <ele>735.3</ele>
        <time>2026-03-16T09:09:08Z</time>
      </trkpt>
      <trkpt lat="48.45497" lon="7.24527">
        <ele>735.3</ele>
        <time>2026-03-16T09:09:13Z</time>
      </trkpt>
      <trkpt lat="48.45497" lon="7.24527">
        <ele>735.3</ele>
        <time>2026-03-16T09:09:18Z</time>
      </trkpt>
      <trkpt lat="48.45497" lon="7.24527">
        <ele>735.3</ele>
        <time>2026-03-16T09:09:23Z</time>
      </trkpt>
      <trkpt lat="48.45497" lon="7.24527">
        <ele>735.3</ele>
        <time>2026-03-16T09:09:28Z</time>
      </trkpt>
      <trkpt lat="48.45497" lon="7.24527">
        <ele>735.3</ele>
        <time>2026-03-16T09:09:33Z</time>
      </trkpt>
      <trkpt lat="48.45494" lon="7.24531">
        <ele>736.4</ele>
        <time>2026-03-16T09:09:38Z</time>
      </trkpt>
      <trkpt lat="48.45494" lon="7.24535">
        <ele>737.1</ele>
        <time>2026-03-16T09:09:43Z</time>
      </trkpt>
      <trkpt lat="48.45495" lon="7.24543">
        <ele>738.4</ele>
        <time>2026-03-16T09:09:48Z</time>
      </trkpt>
      <trkpt lat="48.45494" lon="7.24551">
        <ele>740</ele>
        <time>2026-03-16T09:09:53Z</time>
      </trkpt>
      <trkpt lat="48.45496" lon="7.24558">
        <ele>741</ele>
        <time>2026-03-16T09:09:58Z</time>
      </trkpt>
      <trkpt lat="48.45495" lon="7.24561">
        <ele>741.6</ele>
        <time>2026-03-16T09:10:03Z</time>
      </trkpt>
      <trkpt lat="48.45493" lon="7.24565">
        <ele>742.6</ele>
        <time>2026-03-16T09:10:08Z</time>
      </trkpt>
      <trkpt lat="48.4549" lon="7.24568">
        <ele>743.5</ele>
        <time>2026-03-16T09:10:13Z</time>
      </trkpt>
      <trkpt lat="48.45488" lon="7.24567">
        <ele>743.6</ele>
        <time>2026-03-16T09:10:18Z</time>
      </trkpt>
      <trkpt lat="48.45487" lon="7.24566">
        <ele>743.5</ele>
        <time>2026-03-16T09:10:23Z</time>
      </trkpt>
      <trkpt lat="48.45487" lon="7.24566">
        <ele>743.5</ele>
        <time>2026-03-16T09:10:28Z</time>
      </trkpt>
      <trkpt lat="48.45491" lon="7.24569">
        <ele>743.6</ele>
        <time>2026-03-16T09:10:33Z</time>
      </trkpt>
      <trkpt lat="48.45492" lon="7.24579">
        <ele>745.2</ele>
        <time>2026-03-16T09:10:38Z</time>
      </trkpt>
      <trkpt lat="48.45491" lon="7.24585">
        <ele>746.4</ele>
        <time>2026-03-16T09:10:43Z</time>
      </trkpt>
      <trkpt lat="48.45488" lon="7.24591">
        <ele>747.8</ele>
        <time>2026-03-16T09:10:48Z</time>
      </trkpt>
      <trkpt lat="48.45487" lon="7.24596">
        <ele>748.8</ele>
        <time>2026-03-16T09:10:53Z</time>
      </trkpt>
      <trkpt lat="48.45485" lon="7.24601">
        <ele>749.9</ele>
        <time>2026-03-16T09:10:58Z</time>
      </trkpt>
      <trkpt lat="48.45485" lon="7.24606">
        <ele>750.8</ele>
        <time>2026-03-16T09:11:03Z</time>
      </trkpt>
      <trkpt lat="48.45484" lon="7.24611">
        <ele>751.8</ele>
        <time>2026-03-16T09:11:08Z</time>
      </trkpt>
      <trkpt lat="48.45483" lon="7.24616">
        <ele>752.8</ele>
        <time>2026-03-16T09:11:13Z</time>
      </trkpt>
      <trkpt lat="48.45482" lon="7.24621">
        <ele>753.8</ele>
        <time>2026-03-16T09:11:18Z</time>
      </trkpt>
      <trkpt lat="48.45482" lon="7.24624">
        <ele>754.4</ele>
        <time>2026-03-16T09:11:23Z</time>
      </trkpt>
      <trkpt lat="48.45479" lon="7.24631">
        <ele>756</ele>
        <time>2026-03-16T09:11:28Z</time>
      </trkpt>
      <trkpt lat="48.45477" lon="7.24638">
        <ele>757.4</ele>
        <time>2026-03-16T09:11:33Z</time>
      </trkpt>
      <trkpt lat="48.45476" lon="7.24645">
        <ele>758.8</ele>
        <time>2026-03-16T09:11:38Z</time>
      </trkpt>
      <trkpt lat="48.45474" lon="7.24649">
        <ele>759.7</ele>
        <time>2026-03-16T09:11:43Z</time>
      </trkpt>
      <trkpt lat="48.45472" lon="7.24653">
        <ele>760.6</ele>
        <time>2026-03-16T09:11:48Z</time>
      </trkpt>
      <trkpt lat="48.45469" lon="7.24657">
        <ele>761.7</ele>
        <time>2026-03-16T09:11:53Z</time>
      </trkpt>
      <trkpt lat="48.4547" lon="7.24661">
        <ele>762.2</ele>
        <time>2026-03-16T09:11:58Z</time>
      </trkpt>
      <trkpt lat="48.45473" lon="7.24667">
        <ele>763</ele>
        <time>2026-03-16T09:12:03Z</time>
      </trkpt>
      <trkpt lat="48.45475" lon="7.24673">
        <ele>763.5</ele>
        <time>2026-03-16T09:12:08Z</time>
      </trkpt>
      <trkpt lat="48.45478" lon="7.24676">
        <ele>763.6</ele>
        <time>2026-03-16T09:12:13Z</time>
      </trkpt>
      <trkpt lat="48.45481" lon="7.2468">
        <ele>763.8</ele>
        <time>2026-03-16T09:12:18Z</time>
      </trkpt>
      <trkpt lat="48.45484" lon="7.24686">
        <ele>764.2</ele>
        <time>2026-03-16T09:12:23Z</time>
      </trkpt>
      <trkpt lat="48.45485" lon="7.24694">
        <ele>765.1</ele>
        <time>2026-03-16T09:12:28Z</time>
      </trkpt>
      <trkpt lat="48.45485" lon="7.24701">
        <ele>766</ele>
        <time>2026-03-16T09:12:33Z</time>
      </trkpt>
      <trkpt lat="48.45486" lon="7.24708">
        <ele>766.7</ele>
        <time>2026-03-16T09:12:38Z</time>
      </trkpt>
      <trkpt lat="48.45485" lon="7.24716">
        <ele>767.9</ele>
        <time>2026-03-16T09:12:43Z</time>
      </trkpt>
      <trkpt lat="48.45483" lon="7.24723">
        <ele>769</ele>
        <time>2026-03-16T09:12:48Z</time>
      </trkpt>
      <trkpt lat="48.45485" lon="7.24728">
        <ele>769.4</ele>
        <time>2026-03-16T09:12:53Z</time>
      </trkpt>
      <trkpt lat="48.45485" lon="7.24728">
        <ele>769.4</ele>
        <time>2026-03-16T09:12:58Z</time>
      </trkpt>
      <trkpt lat="48.45485" lon="7.24728">
        <ele>769.4</ele>
        <time>2026-03-16T09:13:03Z</time>
      </trkpt>
      <trkpt lat="48.45488" lon="7.24736">
        <ele>770</ele>
        <time>2026-03-16T09:13:08Z</time>
      </trkpt>
      <trkpt lat="48.45488" lon="7.24747">
        <ele>771.4</ele>
        <time>2026-03-16T09:13:13Z</time>
      </trkpt>
      <trkpt lat="48.45485" lon="7.24756">
        <ele>772.5</ele>
        <time>2026-03-16T09:13:18Z</time>
      </trkpt>
      <trkpt lat="48.45482" lon="7.24763">
        <ele>773.4</ele>
        <time>2026-03-16T09:13:23Z</time>
      </trkpt>
      <trkpt lat="48.45481" lon="7.24768">
        <ele>773.8</ele>
        <time>2026-03-16T09:13:28Z</time>
      </trkpt>
      <trkpt lat="48.4548" lon="7.24774">
        <ele>774.3</ele>
        <time>2026-03-16T09:13:33Z</time>
      </trkpt>
      <trkpt lat="48.4548" lon="7.2478">
        <ele>774.7</ele>
        <time>2026-03-16T09:13:38Z</time>
      </trkpt>
      <trkpt lat="48.45479" lon="7.24787">
        <ele>775.2</ele>
        <time>2026-03-16T09:13:43Z</time>
      </trkpt>
      <trkpt lat="48.45478" lon="7.24795">
        <ele>775.9</ele>
        <time>2026-03-16T09:13:48Z</time>
      </trkpt>
      <trkpt lat="48.45478" lon="7.24803">
        <ele>776.4</ele>
        <time>2026-03-16T09:13:53Z</time>
      </trkpt>
      <trkpt lat="48.45477" lon="7.24809">
        <ele>776.9</ele>
        <time>2026-03-16T09:13:58Z</time>
      </trkpt>
      <trkpt lat="48.45475" lon="7.24814">
        <ele>777.6</ele>
        <time>2026-03-16T09:14:03Z</time>
      </trkpt>
      <trkpt lat="48.45475" lon="7.24818">
        <ele>777.8</ele>
        <time>2026-03-16T09:14:08Z</time>
      </trkpt>
      <trkpt lat="48.45476" lon="7.2482">
        <ele>777.8</ele>
        <time>2026-03-16T09:14:13Z</time>
      </trkpt>
      <trkpt lat="48.45475" lon="7.24828">
        <ele>778.5</ele>
        <time>2026-03-16T09:14:18Z</time>
      </trkpt>
      <trkpt lat="48.45475" lon="7.24832">
        <ele>778.7</ele>
        <time>2026-03-16T09:14:23Z</time>
      </trkpt>
      <trkpt lat="48.45474" lon="7.24837">
        <ele>779.2</ele>
        <time>2026-03-16T09:14:28Z</time>
      </trkpt>
      <trkpt lat="48.45473" lon="7.24844">
        <ele>779.9</ele>
        <time>2026-03-16T09:14:33Z</time>
      </trkpt>
      <trkpt lat="48.45471" lon="7.2485">
        <ele>780.7</ele>
        <time>2026-03-16T09:14:38Z</time>
      </trkpt>
      <trkpt lat="48.45471" lon="7.24856">
        <ele>781.1</ele>
        <time>2026-03-16T09:14:43Z</time>
      </trkpt>
      <trkpt lat="48.45469" lon="7.24861">
        <ele>781.9</ele>
        <time>2026-03-16T09:14:48Z</time>
      </trkpt>
      <trkpt lat="48.45466" lon="7.24866">
        <ele>782.8</ele>
        <time>2026-03-16T09:14:53Z</time>
      </trkpt>
      <trkpt lat="48.45467" lon="7.24869">
        <ele>782.8</ele>
        <time>2026-03-16T09:14:58Z</time>
      </trkpt>
      <trkpt lat="48.45462" lon="7.24876">
        <ele>784.3</ele>
        <time>2026-03-16T09:15:03Z</time>
      </trkpt>
      <trkpt lat="48.45461" lon="7.24886">
        <ele>785.2</ele>
        <time>2026-03-16T09:15:08Z</time>
      </trkpt>
      <trkpt lat="48.4546" lon="7.24897">
        <ele>786.2</ele>
        <time>2026-03-16T09:15:13Z</time>
      </trkpt>
      <trkpt lat="48.45459" lon="7.24909">
        <ele>787.3</ele>
        <time>2026-03-16T09:15:18Z</time>
      </trkpt>
      <trkpt lat="48.45461" lon="7.24914">
        <ele>787.2</ele>
        <time>2026-03-16T09:15:23Z</time>
      </trkpt>
      <trkpt lat="48.45461" lon="7.24918">
        <ele>787.5</ele>
        <time>2026-03-16T09:15:28Z</time>
      </trkpt>
      <trkpt lat="48.45461" lon="7.24924">
        <ele>788.1</ele>
        <time>2026-03-16T09:15:33Z</time>
      </trkpt>
      <trkpt lat="48.4546" lon="7.2493">
        <ele>788.8</ele>
        <time>2026-03-16T09:15:38Z</time>
      </trkpt>
      <trkpt lat="48.45458" lon="7.24932">
        <ele>789.5</ele>
        <time>2026-03-16T09:15:43Z</time>
      </trkpt>
      <trkpt lat="48.45458" lon="7.24933">
        <ele>789.5</ele>
        <time>2026-03-16T09:15:48Z</time>
      </trkpt>
      <trkpt lat="48.45458" lon="7.24933">
        <ele>789.5</ele>
        <time>2026-03-16T09:15:53Z</time>
      </trkpt>
      <trkpt lat="48.45458" lon="7.24933">
        <ele>789.5</ele>
        <time>2026-03-16T09:15:58Z</time>
      </trkpt>
      <trkpt lat="48.45458" lon="7.24933">
        <ele>789.5</ele>
        <time>2026-03-16T09:16:03Z</time>
      </trkpt>
      <trkpt lat="48.45458" lon="7.24933">
        <ele>789.5</ele>
        <time>2026-03-16T09:16:08Z</time>
      </trkpt>
      <trkpt lat="48.45458" lon="7.24933">
        <ele>789.5</ele>
        <time>2026-03-16T09:16:13Z</time>
      </trkpt>
      <trkpt lat="48.45458" lon="7.24933">
        <ele>789.5</ele>
        <time>2026-03-16T09:16:18Z</time>
      </trkpt>
      <trkpt lat="48.45458" lon="7.24933">
        <ele>789.5</ele>
        <time>2026-03-16T09:16:23Z</time>
      </trkpt>
      <trkpt lat="48.4546" lon="7.24944">
        <ele>790.1</ele>
        <time>2026-03-16T09:16:28Z</time>
      </trkpt>
      <trkpt lat="48.45458" lon="7.24949">
        <ele>791</ele>
        <time>2026-03-16T09:16:33Z</time>
      </trkpt>
      <trkpt lat="48.45457" lon="7.24955">
        <ele>791.8</ele>
        <time>2026-03-16T09:16:38Z</time>
      </trkpt>
      <trkpt lat="48.45457" lon="7.24962">
        <ele>792.4</ele>
        <time>2026-03-16T09:16:43Z</time>
      </trkpt>
      <trkpt lat="48.45458" lon="7.2497">
        <ele>792.9</ele>
        <time>2026-03-16T09:16:48Z</time>
      </trkpt>
      <trkpt lat="48.45458" lon="7.24978">
        <ele>793.6</ele>
        <time>2026-03-16T09:16:53Z</time>
      </trkpt>
      <trkpt lat="48.45457" lon="7.24985">
        <ele>794.5</ele>
        <time>2026-03-16T09:16:58Z</time>
      </trkpt>
      <trkpt lat="48.45455" lon="7.2499">
        <ele>795.6</ele>
        <time>2026-03-16T09:17:03Z</time>
      </trkpt>
      <trkpt lat="48.45455" lon="7.24997">
        <ele>796.2</ele>
        <time>2026-03-16T09:17:08Z</time>
      </trkpt>
      <trkpt lat="48.45455" lon="7.25004">
        <ele>796.8</ele>
        <time>2026-03-16T09:17:13Z</time>
      </trkpt>
      <trkpt lat="48.45454" lon="7.2501">
        <ele>797.5</ele>
        <time>2026-03-16T09:17:18Z</time>
      </trkpt>
      <trkpt lat="48.45453" lon="7.25016">
        <ele>798.3</ele>
        <time>2026-03-16T09:17:23Z</time>
      </trkpt>
      <trkpt lat="48.45453" lon="7.25023">
        <ele>798.8</ele>
        <time>2026-03-16T09:17:28Z</time>
      </trkpt>
      <trkpt lat="48.45453" lon="7.2503">
        <ele>799.3</ele>
        <time>2026-03-16T09:17:33Z</time>
      </trkpt>
      <trkpt lat="48.45453" lon="7.25037">
        <ele>799.8</ele>
        <time>2026-03-16T09:17:38Z</time>
      </trkpt>
      <trkpt lat="48.45453" lon="7.25044">
        <ele>800.3</ele>
        <time>2026-03-16T09:17:43Z</time>
      </trkpt>
      <trkpt lat="48.45453" lon="7.25052">
        <ele>800.9</ele>
        <time>2026-03-16T09:17:48Z</time>
      </trkpt>
      <trkpt lat="48.45453" lon="7.25058">
        <ele>801.4</ele>
        <time>2026-03-16T09:17:53Z</time>
      </trkpt>
      <trkpt lat="48.45453" lon="7.25063">
        <ele>801.7</ele>
        <time>2026-03-16T09:17:58Z</time>
      </trkpt>
      <trkpt lat="48.45453" lon="7.25069">
        <ele>802.2</ele>
        <time>2026-03-16T09:18:03Z</time>
      </trkpt>
      <trkpt lat="48.45453" lon="7.25076">
        <ele>802.7</ele>
        <time>2026-03-16T09:18:08Z</time>
      </trkpt>
      <trkpt lat="48.45452" lon="7.25083">
        <ele>803.5</ele>
        <time>2026-03-16T09:18:13Z</time>
      </trkpt>
      <trkpt lat="48.45452" lon="7.25089">
        <ele>803.9</ele>
        <time>2026-03-16T09:18:18Z</time>
      </trkpt>
      <trkpt lat="48.45452" lon="7.25096">
        <ele>804.2</ele>
        <time>2026-03-16T09:18:23Z</time>
      </trkpt>
      <trkpt lat="48.45451" lon="7.25101">
        <ele>804.8</ele>
        <time>2026-03-16T09:18:28Z</time>
      </trkpt>
      <trkpt lat="48.45451" lon="7.25107">
        <ele>805.1</ele>
        <time>2026-03-16T09:18:33Z</time>
      </trkpt>
      <trkpt lat="48.4545" lon="7.25114">
        <ele>805.8</ele>
        <time>2026-03-16T09:18:38Z</time>
      </trkpt>
      <trkpt lat="48.4545" lon="7.2512">
        <ele>806.1</ele>
        <time>2026-03-16T09:18:43Z</time>
      </trkpt>
      <trkpt lat="48.4545" lon="7.25125">
        <ele>806.4</ele>
        <time>2026-03-16T09:18:48Z</time>
      </trkpt>
      <trkpt lat="48.45452" lon="7.25132">
        <ele>806.1</ele>
        <time>2026-03-16T09:18:53Z</time>
      </trkpt>
      <trkpt lat="48.45453" lon="7.25136">
        <ele>806</ele>
        <time>2026-03-16T09:18:58Z</time>
      </trkpt>
      <trkpt lat="48.45455" lon="7.25138">
        <ele>805.5</ele>
        <time>2026-03-16T09:19:03Z</time>
      </trkpt>
      <trkpt lat="48.45455" lon="7.2514">
        <ele>805.6</ele>
        <time>2026-03-16T09:19:08Z</time>
      </trkpt>
      <trkpt lat="48.45454" lon="7.2514">
        <ele>805.9</ele>
        <time>2026-03-16T09:19:13Z</time>
      </trkpt>
      <trkpt lat="48.45454" lon="7.2514">
        <ele>805.9</ele>
        <time>2026-03-16T09:19:18Z</time>
      </trkpt>
      <trkpt lat="48.45454" lon="7.2514">
        <ele>805.9</ele>
        <time>2026-03-16T09:19:23Z</time>
      </trkpt>
      <trkpt lat="48.45455" lon="7.25143">
        <ele>805.8</ele>
        <time>2026-03-16T09:19:28Z</time>
      </trkpt>
      <trkpt lat="48.45454" lon="7.25147">
        <ele>806.3</ele>
        <time>2026-03-16T09:19:33Z</time>
      </trkpt>
      <trkpt lat="48.45452" lon="7.25153">
        <ele>807.3</ele>
        <time>2026-03-16T09:19:38Z</time>
      </trkpt>
      <trkpt lat="48.45451" lon="7.2516">
        <ele>807.9</ele>
        <time>2026-03-16T09:19:43Z</time>
      </trkpt>
      <trkpt lat="48.45451" lon="7.25167">
        <ele>808.3</ele>
        <time>2026-03-16T09:19:48Z</time>
      </trkpt>
      <trkpt lat="48.45451" lon="7.25173">
        <ele>808.6</ele>
        <time>2026-03-16T09:19:53Z</time>
      </trkpt>
      <trkpt lat="48.45451" lon="7.25181">
        <ele>809</ele>
        <time>2026-03-16T09:19:58Z</time>
      </trkpt>
      <trkpt lat="48.45451" lon="7.25188">
        <ele>809.4</ele>
        <time>2026-03-16T09:20:03Z</time>
      </trkpt>
      <trkpt lat="48.45451" lon="7.25196">
        <ele>809.8</ele>
        <time>2026-03-16T09:20:08Z</time>
      </trkpt>
      <trkpt lat="48.4545" lon="7.25203">
        <ele>810.5</ele>
        <time>2026-03-16T09:20:13Z</time>
      </trkpt>
      <trkpt lat="48.4545" lon="7.2521">
        <ele>810.9</ele>
        <time>2026-03-16T09:20:18Z</time>
      </trkpt>
      <trkpt lat="48.4545" lon="7.25215">
        <ele>811.2</ele>
        <time>2026-03-16T09:20:23Z</time>
      </trkpt>
      <trkpt lat="48.4545" lon="7.25222">
        <ele>811.5</ele>
        <time>2026-03-16T09:20:28Z</time>
      </trkpt>
      <trkpt lat="48.45449" lon="7.25232">
        <ele>812.4</ele>
        <time>2026-03-16T09:20:33Z</time>
      </trkpt>
      <trkpt lat="48.45449" lon="7.25239">
        <ele>812.7</ele>
        <time>2026-03-16T09:20:38Z</time>
      </trkpt>
      <trkpt lat="48.45449" lon="7.25245">
        <ele>813</ele>
        <time>2026-03-16T09:20:43Z</time>
      </trkpt>
      <trkpt lat="48.45449" lon="7.2525">
        <ele>813.3</ele>
        <time>2026-03-16T09:20:48Z</time>
      </trkpt>
      <trkpt lat="48.45449" lon="7.25256">
        <ele>813.5</ele>
        <time>2026-03-16T09:20:53Z</time>
      </trkpt>
      <trkpt lat="48.45448" lon="7.25261">
        <ele>814</ele>
        <time>2026-03-16T09:20:58Z</time>
      </trkpt>
      <trkpt lat="48.45447" lon="7.25264">
        <ele>814.4</ele>
        <time>2026-03-16T09:21:03Z</time>
      </trkpt>
      <trkpt lat="48.45447" lon="7.25269">
        <ele>814.6</ele>
        <time>2026-03-16T09:21:08Z</time>
      </trkpt>
      <trkpt lat="48.45444" lon="7.25271">
        <ele>815.6</ele>
        <time>2026-03-16T09:21:13Z</time>
      </trkpt>
      <trkpt lat="48.45445" lon="7.25275">
        <ele>815.4</ele>
        <time>2026-03-16T09:21:18Z</time>
      </trkpt>
      <trkpt lat="48.45446" lon="7.2528">
        <ele>815.3</ele>
        <time>2026-03-16T09:21:23Z</time>
      </trkpt>
      <trkpt lat="48.45445" lon="7.25287">
        <ele>815.8</ele>
        <time>2026-03-16T09:21:28Z</time>
      </trkpt>
      <trkpt lat="48.45445" lon="7.25292">
        <ele>816</ele>
        <time>2026-03-16T09:21:33Z</time>
      </trkpt>
      <trkpt lat="48.45445" lon="7.25295">
        <ele>816.1</ele>
        <time>2026-03-16T09:21:38Z</time>
      </trkpt>
      <trkpt lat="48.45445" lon="7.25295">
        <ele>816.1</ele>
        <time>2026-03-16T09:21:43Z</time>
      </trkpt>
      <trkpt lat="48.45444" lon="7.25298">
        <ele>816.5</ele>
        <time>2026-03-16T09:21:48Z</time>
      </trkpt>
      <trkpt lat="48.45442" lon="7.25305">
        <ele>817.4</ele>
        <time>2026-03-16T09:21:53Z</time>
      </trkpt>
      <trkpt lat="48.45441" lon="7.25311">
        <ele>817.9</ele>
        <time>2026-03-16T09:21:58Z</time>
      </trkpt>
      <trkpt lat="48.45439" lon="7.25317">
        <ele>818.7</ele>
        <time>2026-03-16T09:22:03Z</time>
      </trkpt>
      <trkpt lat="48.45438" lon="7.25323">
        <ele>819.2</ele>
        <time>2026-03-16T09:22:08Z</time>
      </trkpt>
      <trkpt lat="48.45436" lon="7.25329">
        <ele>820</ele>
        <time>2026-03-16T09:22:13Z</time>
      </trkpt>
      <trkpt lat="48.45435" lon="7.25335">
        <ele>820.4</ele>
        <time>2026-03-16T09:22:18Z</time>
      </trkpt>
      <trkpt lat="48.45437" lon="7.25339">
        <ele>819.4</ele>
        <time>2026-03-16T09:22:23Z</time>
      </trkpt>
      <trkpt lat="48.45439" lon="7.25344">
        <ele>818.4</ele>
        <time>2026-03-16T09:22:28Z</time>
      </trkpt>
      <trkpt lat="48.45442" lon="7.25344">
        <ele>817.6</ele>
        <time>2026-03-16T09:22:33Z</time>
      </trkpt>
      <trkpt lat="48.45443" lon="7.25343">
        <ele>817.4</ele>
        <time>2026-03-16T09:22:38Z</time>
      </trkpt>
      <trkpt lat="48.45443" lon="7.25342">
        <ele>817.4</ele>
        <time>2026-03-16T09:22:43Z</time>
      </trkpt>
      <trkpt lat="48.45443" lon="7.25342">
        <ele>817.4</ele>
        <time>2026-03-16T09:22:48Z</time>
      </trkpt>
      <trkpt lat="48.45443" lon="7.25342">
        <ele>817.4</ele>
        <time>2026-03-16T09:22:53Z</time>
      </trkpt>
      <trkpt lat="48.4544" lon="7.25345">
        <ele>818.1</ele>
        <time>2026-03-16T09:22:58Z</time>
      </trkpt>
      <trkpt lat="48.45435" lon="7.25344">
        <ele>819.6</ele>
        <time>2026-03-16T09:23:03Z</time>
      </trkpt>
      <trkpt lat="48.45433" lon="7.2535">
        <ele>819.7</ele>
        <time>2026-03-16T09:23:08Z</time>
      </trkpt>
      <trkpt lat="48.45433" lon="7.25359">
        <ele>818.9</ele>
        <time>2026-03-16T09:23:13Z</time>
      </trkpt>
      <trkpt lat="48.45433" lon="7.25368">
        <ele>818.2</ele>
        <time>2026-03-16T09:23:18Z</time>
      </trkpt>
      <trkpt lat="48.45431" lon="7.25375">
        <ele>818.1</ele>
        <time>2026-03-16T09:23:23Z</time>
      </trkpt>
      <trkpt lat="48.45431" lon="7.25383">
        <ele>817.4</ele>
        <time>2026-03-16T09:23:28Z</time>
      </trkpt>
      <trkpt lat="48.45432" lon="7.25392">
        <ele>816.4</ele>
        <time>2026-03-16T09:23:33Z</time>
      </trkpt>
      <trkpt lat="48.45433" lon="7.25399">
        <ele>815.6</ele>
        <time>2026-03-16T09:23:38Z</time>
      </trkpt>
      <trkpt lat="48.45433" lon="7.25401">
        <ele>815.4</ele>
        <time>2026-03-16T09:23:43Z</time>
      </trkpt>
      <trkpt lat="48.45434" lon="7.25409">
        <ele>814.5</ele>
        <time>2026-03-16T09:23:48Z</time>
      </trkpt>
      <trkpt lat="48.45435" lon="7.25416">
        <ele>813.7</ele>
        <time>2026-03-16T09:23:53Z</time>
      </trkpt>
      <trkpt lat="48.45425" lon="7.25427">
        <ele>815</ele>
        <time>2026-03-16T09:23:58Z</time>
      </trkpt>
      <trkpt lat="48.4542" lon="7.2543">
        <ele>815.9</ele>
        <time>2026-03-16T09:24:03Z</time>
      </trkpt>
      <trkpt lat="48.4543" lon="7.25429">
        <ele>813.7</ele>
        <time>2026-03-16T09:24:08Z</time>
      </trkpt>
      <trkpt lat="48.45438" lon="7.25433">
        <ele>811.4</ele>
        <time>2026-03-16T09:24:13Z</time>
      </trkpt>
      <trkpt lat="48.45444" lon="7.25436">
        <ele>809.7</ele>
        <time>2026-03-16T09:24:18Z</time>
      </trkpt>
      <trkpt lat="48.45451" lon="7.25436">
        <ele>808.1</ele>
        <time>2026-03-16T09:24:23Z</time>
      </trkpt>
      <trkpt lat="48.45456" lon="7.25435">
        <ele>807</ele>
        <time>2026-03-16T09:24:28Z</time>
      </trkpt>
      <trkpt lat="48.45458" lon="7.25434">
        <ele>806.6</ele>
        <time>2026-03-16T09:24:33Z</time>
      </trkpt>
      <trkpt lat="48.45459" lon="7.25433">
        <ele>806.5</ele>
        <time>2026-03-16T09:24:38Z</time>
      </trkpt>
      <trkpt lat="48.45459" lon="7.25433">
        <ele>806.5</ele>
        <time>2026-03-16T09:24:43Z</time>
      </trkpt>
      <trkpt lat="48.45459" lon="7.25433">
        <ele>806.5</ele>
        <time>2026-03-16T09:24:48Z</time>
      </trkpt>
      <trkpt lat="48.45454" lon="7.25437">
        <ele>807.3</ele>
        <time>2026-03-16T09:24:53Z</time>
      </trkpt>
      <trkpt lat="48.45452" lon="7.25443">
        <ele>807.3</ele>
        <time>2026-03-16T09:24:58Z</time>
      </trkpt>
      <trkpt lat="48.45451" lon="7.25447">
        <ele>807.1</ele>
        <time>2026-03-16T09:25:03Z</time>
      </trkpt>
      <trkpt lat="48.45451" lon="7.25448">
        <ele>807.1</ele>
        <time>2026-03-16T09:25:08Z</time>
      </trkpt>
      <trkpt lat="48.45452" lon="7.25452">
        <ele>806.5</ele>
        <time>2026-03-16T09:25:13Z</time>
      </trkpt>
      <trkpt lat="48.45453" lon="7.25455">
        <ele>806</ele>
        <time>2026-03-16T09:25:18Z</time>
      </trkpt>
      <trkpt lat="48.45452" lon="7.25454">
        <ele>806.3</ele>
        <time>2026-03-16T09:25:23Z</time>
      </trkpt>
      <trkpt lat="48.4545" lon="7.25454">
        <ele>806.8</ele>
        <time>2026-03-16T09:25:28Z</time>
      </trkpt>
      <trkpt lat="48.45446" lon="7.25452">
        <ele>807.9</ele>
        <time>2026-03-16T09:25:33Z</time>
      </trkpt>
      <trkpt lat="48.45442" lon="7.25452">
        <ele>808.8</ele>
        <time>2026-03-16T09:25:38Z</time>
      </trkpt>
      <trkpt lat="48.45439" lon="7.25456">
        <ele>809.1</ele>
        <time>2026-03-16T09:25:43Z</time>
      </trkpt>
      <trkpt lat="48.45434" lon="7.25457">
        <ele>810.2</ele>
        <time>2026-03-16T09:25:48Z</time>
      </trkpt>
      <trkpt lat="48.45431" lon="7.25455">
        <ele>811</ele>
        <time>2026-03-16T09:25:53Z</time>
      </trkpt>
      <trkpt lat="48.45429" lon="7.2545">
        <ele>812</ele>
        <time>2026-03-16T09:25:58Z</time>
      </trkpt>
      <trkpt lat="48.45426" lon="7.25447">
        <ele>812.9</ele>
        <time>2026-03-16T09:26:03Z</time>
      </trkpt>
      <trkpt lat="48.45425" lon="7.2545">
        <ele>812.9</ele>
        <time>2026-03-16T09:26:08Z</time>
      </trkpt>
      <trkpt lat="48.45423" lon="7.25458">
        <ele>812.6</ele>
        <time>2026-03-16T09:26:13Z</time>
      </trkpt>
      <trkpt lat="48.45419" lon="7.25469">
        <ele>812.5</ele>
        <time>2026-03-16T09:26:18Z</time>
      </trkpt>
      <trkpt lat="48.45416" lon="7.25476">
        <ele>812.4</ele>
        <time>2026-03-16T09:26:23Z</time>
      </trkpt>
      <trkpt lat="48.45414" lon="7.25482">
        <ele>812.1</ele>
        <time>2026-03-16T09:26:28Z</time>
      </trkpt>
      <trkpt lat="48.45412" lon="7.25489">
        <ele>811.7</ele>
        <time>2026-03-16T09:26:33Z</time>
      </trkpt>
      <trkpt lat="48.45409" lon="7.25496">
        <ele>811.5</ele>
        <time>2026-03-16T09:26:38Z</time>
      </trkpt>
      <trkpt lat="48.45407" lon="7.25495">
        <ele>811.9</ele>
        <time>2026-03-16T09:26:43Z</time>
      </trkpt>
      <trkpt lat="48.45405" lon="7.25494">
        <ele>812.3</ele>
        <time>2026-03-16T09:26:48Z</time>
      </trkpt>
      <trkpt lat="48.45404" lon="7.25492">
        <ele>812.6</ele>
        <time>2026-03-16T09:26:53Z</time>
      </trkpt>
      <trkpt lat="48.45401" lon="7.25491">
        <ele>813.1</ele>
        <time>2026-03-16T09:26:58Z</time>
      </trkpt>
      <trkpt lat="48.45397" lon="7.25489">
        <ele>813.9</ele>
        <time>2026-03-16T09:27:03Z</time>
      </trkpt>
      <trkpt lat="48.45393" lon="7.25487">
        <ele>814.7</ele>
        <time>2026-03-16T09:27:08Z</time>
      </trkpt>
      <trkpt lat="48.4539" lon="7.25485">
        <ele>815.3</ele>
        <time>2026-03-16T09:27:13Z</time>
      </trkpt>
      <trkpt lat="48.45388" lon="7.25484">
        <ele>815.7</ele>
        <time>2026-03-16T09:27:18Z</time>
      </trkpt>
      <trkpt lat="48.45386" lon="7.25483">
        <ele>816.1</ele>
        <time>2026-03-16T09:27:23Z</time>
      </trkpt>
      <trkpt lat="48.45385" lon="7.25482">
        <ele>816.4</ele>
        <time>2026-03-16T09:27:28Z</time>
      </trkpt>
      <trkpt lat="48.45384" lon="7.25481">
        <ele>816.6</ele>
        <time>2026-03-16T09:27:33Z</time>
      </trkpt>
      <trkpt lat="48.45382" lon="7.25481">
        <ele>816.9</ele>
        <time>2026-03-16T09:27:38Z</time>
      </trkpt>
      <trkpt lat="48.45382" lon="7.25481">
        <ele>816.9</ele>
        <time>2026-03-16T09:27:43Z</time>
      </trkpt>
      <trkpt lat="48.45382" lon="7.25481">
        <ele>816.9</ele>
        <time>2026-03-16T09:27:48Z</time>
      </trkpt>
      <trkpt lat="48.45382" lon="7.25481">
        <ele>816.9</ele>
        <time>2026-03-16T09:27:53Z</time>
      </trkpt>
      <trkpt lat="48.45382" lon="7.25481">
        <ele>816.9</ele>
        <time>2026-03-16T09:27:58Z</time>
      </trkpt>
      <trkpt lat="48.45379" lon="7.25482">
        <ele>817.2</ele>
        <time>2026-03-16T09:28:03Z</time>
      </trkpt>
      <trkpt lat="48.45378" lon="7.25484">
        <ele>817.2</ele>
        <time>2026-03-16T09:28:08Z</time>
      </trkpt>
      <trkpt lat="48.45378" lon="7.25484">
        <ele>817.2</ele>
        <time>2026-03-16T09:28:13Z</time>
      </trkpt>
      <trkpt lat="48.45376" lon="7.25487">
        <ele>817.2</ele>
        <time>2026-03-16T09:28:18Z</time>
      </trkpt>
      <trkpt lat="48.45372" lon="7.2549">
        <ele>817.5</ele>
        <time>2026-03-16T09:28:23Z</time>
      </trkpt>
      <trkpt lat="48.45368" lon="7.25493">
        <ele>817.7</ele>
        <time>2026-03-16T09:28:28Z</time>
      </trkpt>
      <trkpt lat="48.45365" lon="7.25497">
        <ele>817.8</ele>
        <time>2026-03-16T09:28:33Z</time>
      </trkpt>
      <trkpt lat="48.4536" lon="7.25499">
        <ele>818.3</ele>
        <time>2026-03-16T09:28:38Z</time>
      </trkpt>
      <trkpt lat="48.45355" lon="7.25502">
        <ele>818.4</ele>
        <time>2026-03-16T09:28:43Z</time>
      </trkpt>
      <trkpt lat="48.4535" lon="7.25504">
        <ele>818.7</ele>
        <time>2026-03-16T09:28:48Z</time>
      </trkpt>
      <trkpt lat="48.45344" lon="7.25508">
        <ele>818.5</ele>
        <time>2026-03-16T09:28:53Z</time>
      </trkpt>
      <trkpt lat="48.45339" lon="7.25509">
        <ele>818.9</ele>
        <time>2026-03-16T09:28:58Z</time>
      </trkpt>
      <trkpt lat="48.45333" lon="7.25512">
        <ele>818.9</ele>
        <time>2026-03-16T09:29:03Z</time>
      </trkpt>
      <trkpt lat="48.45329" lon="7.25513">
        <ele>818.8</ele>
        <time>2026-03-16T09:29:08Z</time>
      </trkpt>
      <trkpt lat="48.45324" lon="7.25511">
        <ele>819.6</ele>
        <time>2026-03-16T09:29:13Z</time>
      </trkpt>
      <trkpt lat="48.4532" lon="7.2551">
        <ele>820.1</ele>
        <time>2026-03-16T09:29:18Z</time>
      </trkpt>
      <trkpt lat="48.45316" lon="7.25509">
        <ele>820.6</ele>
        <time>2026-03-16T09:29:23Z</time>
      </trkpt>
      <trkpt lat="48.45311" lon="7.25509">
        <ele>820.9</ele>
        <time>2026-03-16T09:29:28Z</time>
      </trkpt>
      <trkpt lat="48.4531" lon="7.2551">
        <ele>820.7</ele>
        <time>2026-03-16T09:29:33Z</time>
      </trkpt>
      <trkpt lat="48.45311" lon="7.25515">
        <ele>819.3</ele>
        <time>2026-03-16T09:29:38Z</time>
      </trkpt>
      <trkpt lat="48.45313" lon="7.25517">
        <ele>818.7</ele>
        <time>2026-03-16T09:29:43Z</time>
      </trkpt>
      <trkpt lat="48.45316" lon="7.25522">
        <ele>817.2</ele>
        <time>2026-03-16T09:29:48Z</time>
      </trkpt>
      <trkpt lat="48.45316" lon="7.25522">
        <ele>817.2</ele>
        <time>2026-03-16T09:29:53Z</time>
      </trkpt>
      <trkpt lat="48.45316" lon="7.25522">
        <ele>817.2</ele>
        <time>2026-03-16T09:29:58Z</time>
      </trkpt>
      <trkpt lat="48.45314" lon="7.25522">
        <ele>817.3</ele>
        <time>2026-03-16T09:30:03Z</time>
      </trkpt>
      <trkpt lat="48.45308" lon="7.25521">
        <ele>817.9</ele>
        <time>2026-03-16T09:30:08Z</time>
      </trkpt>
      <trkpt lat="48.45305" lon="7.25525">
        <ele>817</ele>
        <time>2026-03-16T09:30:13Z</time>
      </trkpt>
      <trkpt lat="48.45303" lon="7.25529">
        <ele>816</ele>
        <time>2026-03-16T09:30:18Z</time>
      </trkpt>
      <trkpt lat="48.45299" lon="7.25528">
        <ele>816.5</ele>
        <time>2026-03-16T09:30:23Z</time>
      </trkpt>
      <trkpt lat="48.45295" lon="7.25527">
        <ele>817</ele>
        <time>2026-03-16T09:30:28Z</time>
      </trkpt>
      <trkpt lat="48.45289" lon="7.25527">
        <ele>817.4</ele>
        <time>2026-03-16T09:30:33Z</time>
      </trkpt>
      <trkpt lat="48.45285" lon="7.25526">
        <ele>817.9</ele>
        <time>2026-03-16T09:30:38Z</time>
      </trkpt>
      <trkpt lat="48.45284" lon="7.25527">
        <ele>817.6</ele>
        <time>2026-03-16T09:30:43Z</time>
      </trkpt>
      <trkpt lat="48.45282" lon="7.25528">
        <ele>817.5</ele>
        <time>2026-03-16T09:30:48Z</time>
      </trkpt>
      <trkpt lat="48.45277" lon="7.25527">
        <ele>818</ele>
        <time>2026-03-16T09:30:53Z</time>
      </trkpt>
      <trkpt lat="48.45273" lon="7.25525">
        <ele>818.8</ele>
        <time>2026-03-16T09:30:58Z</time>
      </trkpt>
      <trkpt lat="48.45268" lon="7.25525">
        <ele>819.1</ele>
        <time>2026-03-16T09:31:03Z</time>
      </trkpt>
      <trkpt lat="48.45262" lon="7.25525">
        <ele>819.4</ele>
        <time>2026-03-16T09:31:08Z</time>
      </trkpt>
      <trkpt lat="48.45256" lon="7.25528">
        <ele>818.9</ele>
        <time>2026-03-16T09:31:13Z</time>
      </trkpt>
      <trkpt lat="48.45251" lon="7.25529">
        <ele>818.9</ele>
        <time>2026-03-16T09:31:18Z</time>
      </trkpt>
      <trkpt lat="48.45248" lon="7.25531">
        <ele>818.7</ele>
        <time>2026-03-16T09:31:23Z</time>
      </trkpt>
      <trkpt lat="48.45246" lon="7.25532">
        <ele>818.8</ele>
        <time>2026-03-16T09:31:28Z</time>
      </trkpt>
      <trkpt lat="48.45246" lon="7.25532">
        <ele>818.8</ele>
        <time>2026-03-16T09:31:33Z</time>
      </trkpt>
      <trkpt lat="48.45246" lon="7.25532">
        <ele>818.8</ele>
        <time>2026-03-16T09:31:38Z</time>
      </trkpt>
      <trkpt lat="48.45246" lon="7.25532">
        <ele>818.8</ele>
        <time>2026-03-16T09:31:43Z</time>
      </trkpt>
      <trkpt lat="48.45246" lon="7.25532">
        <ele>818.8</ele>
        <time>2026-03-16T09:31:48Z</time>
      </trkpt>
      <trkpt lat="48.45246" lon="7.25532">
        <ele>818.8</ele>
        <time>2026-03-16T09:31:53Z</time>
      </trkpt>
      <trkpt lat="48.45246" lon="7.25532">
        <ele>818.8</ele>
        <time>2026-03-16T09:31:58Z</time>
      </trkpt>
      <trkpt lat="48.45246" lon="7.25532">
        <ele>818.8</ele>
        <time>2026-03-16T09:32:03Z</time>
      </trkpt>
      <trkpt lat="48.45246" lon="7.25532">
        <ele>818.8</ele>
        <time>2026-03-16T09:32:08Z</time>
      </trkpt>
      <trkpt lat="48.45246" lon="7.25532">
        <ele>818.8</ele>
        <time>2026-03-16T09:32:13Z</time>
      </trkpt>
      <trkpt lat="48.45246" lon="7.25532">
        <ele>818.8</ele>
        <time>2026-03-16T09:32:18Z</time>
      </trkpt>
      <trkpt lat="48.45246" lon="7.25532">
        <ele>818.8</ele>
        <time>2026-03-16T09:32:23Z</time>
      </trkpt>
      <trkpt lat="48.45243" lon="7.25534">
        <ele>818.7</ele>
        <time>2026-03-16T09:32:28Z</time>
      </trkpt>
      <trkpt lat="48.45239" lon="7.25532">
        <ele>819.8</ele>
        <time>2026-03-16T09:32:33Z</time>
      </trkpt>
      <trkpt lat="48.45234" lon="7.25531">
        <ele>820.8</ele>
        <time>2026-03-16T09:32:38Z</time>
      </trkpt>
      <trkpt lat="48.45228" lon="7.2553">
        <ele>821.9</ele>
        <time>2026-03-16T09:32:43Z</time>
      </trkpt>
      <trkpt lat="48.45223" lon="7.2553">
        <ele>822.7</ele>
        <time>2026-03-16T09:32:48Z</time>
      </trkpt>
      <trkpt lat="48.45218" lon="7.2553">
        <ele>823.4</ele>
        <time>2026-03-16T09:32:53Z</time>
      </trkpt>
      <trkpt lat="48.45212" lon="7.25531">
        <ele>824</ele>
        <time>2026-03-16T09:32:58Z</time>
      </trkpt>
      <trkpt lat="48.45207" lon="7.2553">
        <ele>825</ele>
        <time>2026-03-16T09:33:03Z</time>
      </trkpt>
      <trkpt lat="48.45201" lon="7.2553">
        <ele>825.9</ele>
        <time>2026-03-16T09:33:08Z</time>
      </trkpt>
      <trkpt lat="48.45195" lon="7.25528">
        <ele>827.2</ele>
        <time>2026-03-16T09:33:13Z</time>
      </trkpt>
      <trkpt lat="48.45189" lon="7.25529">
        <ele>827.8</ele>
        <time>2026-03-16T09:33:18Z</time>
      </trkpt>
      <trkpt lat="48.45184" lon="7.25529">
        <ele>828.6</ele>
        <time>2026-03-16T09:33:23Z</time>
      </trkpt>
      <trkpt lat="48.45179" lon="7.25529">
        <ele>829.3</ele>
        <time>2026-03-16T09:33:28Z</time>
      </trkpt>
      <trkpt lat="48.45173" lon="7.25529">
        <ele>830.2</ele>
        <time>2026-03-16T09:33:33Z</time>
      </trkpt>
      <trkpt lat="48.45166" lon="7.2553">
        <ele>831</ele>
        <time>2026-03-16T09:33:38Z</time>
      </trkpt>
      <trkpt lat="48.45159" lon="7.25532">
        <ele>831.5</ele>
        <time>2026-03-16T09:33:43Z</time>
      </trkpt>
      <trkpt lat="48.45153" lon="7.25531">
        <ele>832.4</ele>
        <time>2026-03-16T09:33:48Z</time>
      </trkpt>
      <trkpt lat="48.45148" lon="7.25531">
        <ele>833.1</ele>
        <time>2026-03-16T09:33:53Z</time>
      </trkpt>
      <trkpt lat="48.45141" lon="7.25531">
        <ele>833.9</ele>
        <time>2026-03-16T09:33:58Z</time>
      </trkpt>
      <trkpt lat="48.45133" lon="7.25534">
        <ele>834.4</ele>
        <time>2026-03-16T09:34:03Z</time>
      </trkpt>
      <trkpt lat="48.45126" lon="7.25538">
        <ele>834.7</ele>
        <time>2026-03-16T09:34:08Z</time>
      </trkpt>
      <trkpt lat="48.4512" lon="7.25543">
        <ele>834.7</ele>
        <time>2026-03-16T09:34:13Z</time>
      </trkpt>
      <trkpt lat="48.45115" lon="7.25548">
        <ele>834.7</ele>
        <time>2026-03-16T09:34:18Z</time>
      </trkpt>
      <trkpt lat="48.45109" lon="7.25554">
        <ele>834.7</ele>
        <time>2026-03-16T09:34:23Z</time>
      </trkpt>
      <trkpt lat="48.45103" lon="7.25562">
        <ele>834.4</ele>
        <time>2026-03-16T09:34:28Z</time>
      </trkpt>
      <trkpt lat="48.45098" lon="7.25568">
        <ele>834.4</ele>
        <time>2026-03-16T09:34:33Z</time>
      </trkpt>
      <trkpt lat="48.45092" lon="7.25574">
        <ele>834.6</ele>
        <time>2026-03-16T09:34:38Z</time>
      </trkpt>
      <trkpt lat="48.45085" lon="7.25578">
        <ele>835.3</ele>
        <time>2026-03-16T09:34:43Z</time>
      </trkpt>
      <trkpt lat="48.4508" lon="7.25584">
        <ele>835</ele>
        <time>2026-03-16T09:34:48Z</time>
      </trkpt>
      <trkpt lat="48.45073" lon="7.25588">
        <ele>834.6</ele>
        <time>2026-03-16T09:34:53Z</time>
      </trkpt>
      <trkpt lat="48.45068" lon="7.25595">
        <ele>833.7</ele>
        <time>2026-03-16T09:34:58Z</time>
      </trkpt>
      <trkpt lat="48.45063" lon="7.25602">
        <ele>833.1</ele>
        <time>2026-03-16T09:35:03Z</time>
      </trkpt>
      <trkpt lat="48.45058" lon="7.25607">
        <ele>832.8</ele>
        <time>2026-03-16T09:35:08Z</time>
      </trkpt>
      <trkpt lat="48.45052" lon="7.25612">
        <ele>832.6</ele>
        <time>2026-03-16T09:35:13Z</time>
      </trkpt>
      <trkpt lat="48.45046" lon="7.25616">
        <ele>832.7</ele>
        <time>2026-03-16T09:35:18Z</time>
      </trkpt>
      <trkpt lat="48.45041" lon="7.25621">
        <ele>832.7</ele>
        <time>2026-03-16T09:35:23Z</time>
      </trkpt>
      <trkpt lat="48.45035" lon="7.25624">
        <ele>833</ele>
        <time>2026-03-16T09:35:28Z</time>
      </trkpt>
      <trkpt lat="48.45029" lon="7.25627">
        <ele>833.4</ele>
        <time>2026-03-16T09:35:33Z</time>
      </trkpt>
      <trkpt lat="48.45022" lon="7.25631">
        <ele>833.9</ele>
        <time>2026-03-16T09:35:38Z</time>
      </trkpt>
      <trkpt lat="48.45016" lon="7.25638">
        <ele>834.3</ele>
        <time>2026-03-16T09:35:43Z</time>
      </trkpt>
      <trkpt lat="48.45011" lon="7.25642">
        <ele>834.8</ele>
        <time>2026-03-16T09:35:48Z</time>
      </trkpt>
      <trkpt lat="48.45007" lon="7.25647">
        <ele>835.2</ele>
        <time>2026-03-16T09:35:53Z</time>
      </trkpt>
      <trkpt lat="48.45002" lon="7.2565">
        <ele>835.9</ele>
        <time>2026-03-16T09:35:58Z</time>
      </trkpt>
      <trkpt lat="48.44996" lon="7.25653">
        <ele>836.4</ele>
        <time>2026-03-16T09:36:03Z</time>
      </trkpt>
      <trkpt lat="48.4499" lon="7.25656">
        <ele>836.8</ele>
        <time>2026-03-16T09:36:08Z</time>
      </trkpt>
      <trkpt lat="48.44985" lon="7.25664">
        <ele>837.2</ele>
        <time>2026-03-16T09:36:13Z</time>
      </trkpt>
      <trkpt lat="48.4498" lon="7.25669">
        <ele>837.6</ele>
        <time>2026-03-16T09:36:18Z</time>
      </trkpt>
      <trkpt lat="48.44976" lon="7.25672">
        <ele>837.8</ele>
        <time>2026-03-16T09:36:23Z</time>
      </trkpt>
      <trkpt lat="48.44972" lon="7.25675">
        <ele>838</ele>
        <time>2026-03-16T09:36:28Z</time>
      </trkpt>
      <trkpt lat="48.44968" lon="7.25683">
        <ele>838.2</ele>
        <time>2026-03-16T09:36:33Z</time>
      </trkpt>
      <trkpt lat="48.44964" lon="7.25689">
        <ele>838.5</ele>
        <time>2026-03-16T09:36:38Z</time>
      </trkpt>
      <trkpt lat="48.44961" lon="7.25693">
        <ele>838.8</ele>
        <time>2026-03-16T09:36:43Z</time>
      </trkpt>
      <trkpt lat="48.44958" lon="7.25697">
        <ele>839.2</ele>
        <time>2026-03-16T09:36:48Z</time>
      </trkpt>
      <trkpt lat="48.44958" lon="7.25696">
        <ele>839.2</ele>
        <time>2026-03-16T09:36:53Z</time>
      </trkpt>
      <trkpt lat="48.44958" lon="7.25696">
        <ele>839.2</ele>
        <time>2026-03-16T09:36:58Z</time>
      </trkpt>
      <trkpt lat="48.44958" lon="7.25696">
        <ele>839.2</ele>
        <time>2026-03-16T09:37:03Z</time>
      </trkpt>
      <trkpt lat="48.44958" lon="7.25696">
        <ele>839.2</ele>
        <time>2026-03-16T09:37:08Z</time>
      </trkpt>
      <trkpt lat="48.44958" lon="7.25696">
        <ele>839.2</ele>
        <time>2026-03-16T09:37:13Z</time>
      </trkpt>
      <trkpt lat="48.44958" lon="7.25696">
        <ele>839.2</ele>
        <time>2026-03-16T09:37:18Z</time>
      </trkpt>
      <trkpt lat="48.44958" lon="7.25696">
        <ele>839.2</ele>
        <time>2026-03-16T09:37:23Z</time>
      </trkpt>
      <trkpt lat="48.44958" lon="7.25696">
        <ele>839.2</ele>
        <time>2026-03-16T09:37:28Z</time>
      </trkpt>
      <trkpt lat="48.44958" lon="7.25696">
        <ele>839.2</ele>
        <time>2026-03-16T09:37:33Z</time>
      </trkpt>
      <trkpt lat="48.44958" lon="7.25696">
        <ele>839.2</ele>
        <time>2026-03-16T09:37:38Z</time>
      </trkpt>
      <trkpt lat="48.44958" lon="7.25696">
        <ele>839.2</ele>
        <time>2026-03-16T09:37:43Z</time>
      </trkpt>
      <trkpt lat="48.44958" lon="7.25696">
        <ele>839.2</ele>
        <time>2026-03-16T09:37:48Z</time>
      </trkpt>
      <trkpt lat="48.44958" lon="7.25696">
        <ele>839.2</ele>
        <time>2026-03-16T09:37:53Z</time>
      </trkpt>
      <trkpt lat="48.44958" lon="7.25696">
        <ele>839.2</ele>
        <time>2026-03-16T09:37:58Z</time>
      </trkpt>
      <trkpt lat="48.44958" lon="7.25696">
        <ele>839.2</ele>
        <time>2026-03-16T09:38:03Z</time>
      </trkpt>
      <trkpt lat="48.44958" lon="7.25696">
        <ele>839.2</ele>
        <time>2026-03-16T09:38:08Z</time>
      </trkpt>
      <trkpt lat="48.44958" lon="7.25696">
        <ele>839.2</ele>
        <time>2026-03-16T09:38:13Z</time>
      </trkpt>
      <trkpt lat="48.44958" lon="7.25696">
        <ele>839.2</ele>
        <time>2026-03-16T09:38:18Z</time>
      </trkpt>
      <trkpt lat="48.44958" lon="7.25696">
        <ele>839.2</ele>
        <time>2026-03-16T09:38:23Z</time>
      </trkpt>
      <trkpt lat="48.44958" lon="7.25696">
        <ele>839.2</ele>
        <time>2026-03-16T09:38:28Z</time>
      </trkpt>
      <trkpt lat="48.44958" lon="7.25696">
        <ele>839.2</ele>
        <time>2026-03-16T09:38:33Z</time>
      </trkpt>
      <trkpt lat="48.44958" lon="7.25696">
        <ele>839.2</ele>
        <time>2026-03-16T09:38:38Z</time>
      </trkpt>
      <trkpt lat="48.44958" lon="7.25696">
        <ele>839.2</ele>
        <time>2026-03-16T09:38:43Z</time>
      </trkpt>
      <trkpt lat="48.44958" lon="7.25696">
        <ele>839.2</ele>
        <time>2026-03-16T09:38:48Z</time>
      </trkpt>
      <trkpt lat="48.44958" lon="7.25696">
        <ele>839.2</ele>
        <time>2026-03-16T09:38:53Z</time>
      </trkpt>
      <trkpt lat="48.44958" lon="7.25696">
        <ele>839.2</ele>
        <time>2026-03-16T09:38:58Z</time>
      </trkpt>
      <trkpt lat="48.44955" lon="7.25709">
        <ele>839.6</ele>
        <time>2026-03-16T09:39:03Z</time>
      </trkpt>
      <trkpt lat="48.44953" lon="7.25709">
        <ele>839.9</ele>
        <time>2026-03-16T09:39:08Z</time>
      </trkpt>
      <trkpt lat="48.44953" lon="7.25709">
        <ele>839.9</ele>
        <time>2026-03-16T09:39:13Z</time>
      </trkpt>
      <trkpt lat="48.44953" lon="7.25709">
        <ele>839.9</ele>
        <time>2026-03-16T09:39:18Z</time>
      </trkpt>
      <trkpt lat="48.44953" lon="7.25709">
        <ele>839.9</ele>
        <time>2026-03-16T09:39:23Z</time>
      </trkpt>
      <trkpt lat="48.44952" lon="7.25717">
        <ele>840.1</ele>
        <time>2026-03-16T09:39:28Z</time>
      </trkpt>
      <trkpt lat="48.44948" lon="7.2572">
        <ele>840.8</ele>
        <time>2026-03-16T09:39:33Z</time>
      </trkpt>
      <trkpt lat="48.44943" lon="7.25722">
        <ele>841.8</ele>
        <time>2026-03-16T09:39:38Z</time>
      </trkpt>
      <trkpt lat="48.44938" lon="7.25724">
        <ele>842.9</ele>
        <time>2026-03-16T09:39:43Z</time>
      </trkpt>
      <trkpt lat="48.44937" lon="7.25727">
        <ele>843.2</ele>
        <time>2026-03-16T09:39:48Z</time>
      </trkpt>
      <trkpt lat="48.44935" lon="7.2573">
        <ele>843.7</ele>
        <time>2026-03-16T09:39:53Z</time>
      </trkpt>
      <trkpt lat="48.44933" lon="7.25734">
        <ele>844.3</ele>
        <time>2026-03-16T09:39:58Z</time>
      </trkpt>
      <trkpt lat="48.44932" lon="7.25738">
        <ele>844.6</ele>
        <time>2026-03-16T09:40:03Z</time>
      </trkpt>
      <trkpt lat="48.44933" lon="7.25739">
        <ele>844.5</ele>
        <time>2026-03-16T09:40:08Z</time>
      </trkpt>
      <trkpt lat="48.44933" lon="7.25739">
        <ele>844.5</ele>
        <time>2026-03-16T09:40:13Z</time>
      </trkpt>
      <trkpt lat="48.44933" lon="7.25739">
        <ele>844.5</ele>
        <time>2026-03-16T09:40:18Z</time>
      </trkpt>
      <trkpt lat="48.44933" lon="7.25739">
        <ele>844.5</ele>
        <time>2026-03-16T09:40:23Z</time>
      </trkpt>
      <trkpt lat="48.44924" lon="7.2575">
        <ele>847.2</ele>
        <time>2026-03-16T09:40:28Z</time>
      </trkpt>
      <trkpt lat="48.44921" lon="7.25753">
        <ele>848</ele>
        <time>2026-03-16T09:40:33Z</time>
      </trkpt>
      <trkpt lat="48.44917" lon="7.25758">
        <ele>849.2</ele>
        <time>2026-03-16T09:40:38Z</time>
      </trkpt>
      <trkpt lat="48.44913" lon="7.25762">
        <ele>849.5</ele>
        <time>2026-03-16T09:40:43Z</time>
      </trkpt>
      <trkpt lat="48.4491" lon="7.25765">
        <ele>849.8</ele>
        <time>2026-03-16T09:40:48Z</time>
      </trkpt>
      <trkpt lat="48.44908" lon="7.25767">
        <ele>849.9</ele>
        <time>2026-03-16T09:40:53Z</time>
      </trkpt>
      <trkpt lat="48.44905" lon="7.25768">
        <ele>850.1</ele>
        <time>2026-03-16T09:40:58Z</time>
      </trkpt>
      <trkpt lat="48.44905" lon="7.25768">
        <ele>850.1</ele>
        <time>2026-03-16T09:41:03Z</time>
      </trkpt>
      <trkpt lat="48.44905" lon="7.25768">
        <ele>850.1</ele>
        <time>2026-03-16T09:41:08Z</time>
      </trkpt>
      <trkpt lat="48.44895" lon="7.25776">
        <ele>851</ele>
        <time>2026-03-16T09:41:13Z</time>
      </trkpt>
      <trkpt lat="48.44895" lon="7.25775">
        <ele>850.9</ele>
        <time>2026-03-16T09:41:18Z</time>
      </trkpt>
      <trkpt lat="48.44895" lon="7.25775">
        <ele>850.9</ele>
        <time>2026-03-16T09:41:23Z</time>
      </trkpt>
      <trkpt lat="48.44895" lon="7.25775">
        <ele>850.9</ele>
        <time>2026-03-16T09:41:28Z</time>
      </trkpt>
      <trkpt lat="48.44895" lon="7.25775">
        <ele>850.9</ele>
        <time>2026-03-16T09:41:33Z</time>
      </trkpt>
      <trkpt lat="48.44895" lon="7.25775">
        <ele>850.9</ele>
        <time>2026-03-16T09:41:38Z</time>
      </trkpt>
      <trkpt lat="48.4489" lon="7.2576">
        <ele>850.1</ele>
        <time>2026-03-16T09:41:43Z</time>
      </trkpt>
      <trkpt lat="48.4489" lon="7.25752">
        <ele>849.5</ele>
        <time>2026-03-16T09:41:48Z</time>
      </trkpt>
      <trkpt lat="48.44889" lon="7.25747">
        <ele>849.1</ele>
        <time>2026-03-16T09:41:53Z</time>
      </trkpt>
      <trkpt lat="48.44887" lon="7.25741">
        <ele>848.5</ele>
        <time>2026-03-16T09:41:58Z</time>
      </trkpt>
      <trkpt lat="48.44885" lon="7.25734">
        <ele>847.9</ele>
        <time>2026-03-16T09:42:03Z</time>
      </trkpt>
      <trkpt lat="48.44884" lon="7.25729">
        <ele>847.4</ele>
        <time>2026-03-16T09:42:08Z</time>
      </trkpt>
      <trkpt lat="48.44882" lon="7.25723">
        <ele>846.8</ele>
        <time>2026-03-16T09:42:13Z</time>
      </trkpt>
      <trkpt lat="48.44882" lon="7.25718">
        <ele>846.3</ele>
        <time>2026-03-16T09:42:18Z</time>
      </trkpt>
      <trkpt lat="48.44881" lon="7.25712">
        <ele>845.7</ele>
        <time>2026-03-16T09:42:23Z</time>
      </trkpt>
      <trkpt lat="48.44881" lon="7.25707">
        <ele>845.2</ele>
        <time>2026-03-16T09:42:28Z</time>
      </trkpt>
      <trkpt lat="48.44881" lon="7.25704">
        <ele>844.9</ele>
        <time>2026-03-16T09:42:33Z</time>
      </trkpt>
      <trkpt lat="48.44881" lon="7.25704">
        <ele>844.9</ele>
        <time>2026-03-16T09:42:38Z</time>
      </trkpt>
      <trkpt lat="48.44881" lon="7.25704">
        <ele>844.9</ele>
        <time>2026-03-16T09:42:43Z</time>
      </trkpt>
      <trkpt lat="48.4488" lon="7.25691">
        <ele>843.6</ele>
        <time>2026-03-16T09:42:48Z</time>
      </trkpt>
      <trkpt lat="48.44881" lon="7.25686">
        <ele>843.2</ele>
        <time>2026-03-16T09:42:53Z</time>
      </trkpt>
      <trkpt lat="48.44881" lon="7.25681">
        <ele>842.7</ele>
        <time>2026-03-16T09:42:58Z</time>
      </trkpt>
      <trkpt lat="48.44881" lon="7.25677">
        <ele>842.3</ele>
        <time>2026-03-16T09:43:03Z</time>
      </trkpt>
      <trkpt lat="48.4488" lon="7.25676">
        <ele>842.2</ele>
        <time>2026-03-16T09:43:08Z</time>
      </trkpt>
      <trkpt lat="48.4488" lon="7.25676">
        <ele>842.2</ele>
        <time>2026-03-16T09:43:13Z</time>
      </trkpt>
      <trkpt lat="48.44876" lon="7.25668">
        <ele>841.2</ele>
        <time>2026-03-16T09:43:18Z</time>
      </trkpt>
      <trkpt lat="48.44876" lon="7.25665">
        <ele>840.8</ele>
        <time>2026-03-16T09:43:23Z</time>
      </trkpt>
      <trkpt lat="48.44877" lon="7.2566">
        <ele>840.3</ele>
        <time>2026-03-16T09:43:28Z</time>
      </trkpt>
      <trkpt lat="48.44874" lon="7.25655">
        <ele>839.5</ele>
        <time>2026-03-16T09:43:33Z</time>
      </trkpt>
      <trkpt lat="48.44871" lon="7.25653">
        <ele>839.1</ele>
        <time>2026-03-16T09:43:38Z</time>
      </trkpt>
      <trkpt lat="48.4487" lon="7.2565">
        <ele>838.7</ele>
        <time>2026-03-16T09:43:43Z</time>
      </trkpt>
      <trkpt lat="48.44869" lon="7.25644">
        <ele>837.9</ele>
        <time>2026-03-16T09:43:48Z</time>
      </trkpt>
      <trkpt lat="48.4487" lon="7.25637">
        <ele>837.1</ele>
        <time>2026-03-16T09:43:53Z</time>
      </trkpt>
      <trkpt lat="48.44871" lon="7.25632">
        <ele>836.6</ele>
        <time>2026-03-16T09:43:58Z</time>
      </trkpt>
      <trkpt lat="48.44871" lon="7.25626">
        <ele>835.8</ele>
        <time>2026-03-16T09:44:03Z</time>
      </trkpt>
      <trkpt lat="48.44869" lon="7.2562">
        <ele>835</ele>
        <time>2026-03-16T09:44:08Z</time>
      </trkpt>
      <trkpt lat="48.44863" lon="7.2562">
        <ele>834.5</ele>
        <time>2026-03-16T09:44:13Z</time>
      </trkpt>
      <trkpt lat="48.44857" lon="7.25624">
        <ele>834.6</ele>
        <time>2026-03-16T09:44:18Z</time>
      </trkpt>
      <trkpt lat="48.44853" lon="7.25628">
        <ele>834.8</ele>
        <time>2026-03-16T09:44:23Z</time>
      </trkpt>
      <trkpt lat="48.44851" lon="7.25634">
        <ele>835.5</ele>
        <time>2026-03-16T09:44:28Z</time>
      </trkpt>
      <trkpt lat="48.44848" lon="7.25639">
        <ele>836</ele>
        <time>2026-03-16T09:44:33Z</time>
      </trkpt>
      <trkpt lat="48.44846" lon="7.25645">
        <ele>836.6</ele>
        <time>2026-03-16T09:44:38Z</time>
      </trkpt>
      <trkpt lat="48.44843" lon="7.25651">
        <ele>837.3</ele>
        <time>2026-03-16T09:44:43Z</time>
      </trkpt>
      <trkpt lat="48.4484" lon="7.25657">
        <ele>838</ele>
        <time>2026-03-16T09:44:48Z</time>
      </trkpt>
      <trkpt lat="48.44838" lon="7.25664">
        <ele>838.8</ele>
        <time>2026-03-16T09:44:53Z</time>
      </trkpt>
      <trkpt lat="48.44834" lon="7.2567">
        <ele>839.5</ele>
        <time>2026-03-16T09:44:58Z</time>
      </trkpt>
      <trkpt lat="48.44831" lon="7.25675">
        <ele>839.8</ele>
        <time>2026-03-16T09:45:03Z</time>
      </trkpt>
      <trkpt lat="48.44829" lon="7.25679">
        <ele>840.1</ele>
        <time>2026-03-16T09:45:08Z</time>
      </trkpt>
      <trkpt lat="48.44827" lon="7.25685">
        <ele>840.6</ele>
        <time>2026-03-16T09:45:13Z</time>
      </trkpt>
      <trkpt lat="48.44825" lon="7.2569">
        <ele>841</ele>
        <time>2026-03-16T09:45:18Z</time>
      </trkpt>
      <trkpt lat="48.44822" lon="7.25694">
        <ele>841.2</ele>
        <time>2026-03-16T09:45:23Z</time>
      </trkpt>
      <trkpt lat="48.44818" lon="7.25698">
        <ele>841.2</ele>
        <time>2026-03-16T09:45:28Z</time>
      </trkpt>
      <trkpt lat="48.44814" lon="7.25702">
        <ele>841.2</ele>
        <time>2026-03-16T09:45:33Z</time>
      </trkpt>
      <trkpt lat="48.4481" lon="7.25708">
        <ele>841.5</ele>
        <time>2026-03-16T09:45:38Z</time>
      </trkpt>
      <trkpt lat="48.44806" lon="7.25711">
        <ele>841.4</ele>
        <time>2026-03-16T09:45:43Z</time>
      </trkpt>
      <trkpt lat="48.44802" lon="7.25713">
        <ele>841.2</ele>
        <time>2026-03-16T09:45:48Z</time>
      </trkpt>
      <trkpt lat="48.44799" lon="7.25713">
        <ele>840.8</ele>
        <time>2026-03-16T09:45:53Z</time>
      </trkpt>
      <trkpt lat="48.44793" lon="7.25714">
        <ele>840.2</ele>
        <time>2026-03-16T09:45:58Z</time>
      </trkpt>
      <trkpt lat="48.4479" lon="7.25714">
        <ele>839.8</ele>
        <time>2026-03-16T09:46:03Z</time>
      </trkpt>
      <trkpt lat="48.44786" lon="7.25713">
        <ele>839.2</ele>
        <time>2026-03-16T09:46:08Z</time>
      </trkpt>
      <trkpt lat="48.44783" lon="7.25715">
        <ele>839.1</ele>
        <time>2026-03-16T09:46:13Z</time>
      </trkpt>
      <trkpt lat="48.44782" lon="7.25717">
        <ele>839.2</ele>
        <time>2026-03-16T09:46:18Z</time>
      </trkpt>
      <trkpt lat="48.44781" lon="7.25717">
        <ele>839.1</ele>
        <time>2026-03-16T09:46:23Z</time>
      </trkpt>
      <trkpt lat="48.44781" lon="7.25717">
        <ele>839.1</ele>
        <time>2026-03-16T09:46:28Z</time>
      </trkpt>
      <trkpt lat="48.44781" lon="7.25717">
        <ele>839.1</ele>
        <time>2026-03-16T09:46:33Z</time>
      </trkpt>
      <trkpt lat="48.44781" lon="7.25717">
        <ele>839.1</ele>
        <time>2026-03-16T09:46:38Z</time>
      </trkpt>
      <trkpt lat="48.44781" lon="7.25717">
        <ele>839.1</ele>
        <time>2026-03-16T09:46:43Z</time>
      </trkpt>
      <trkpt lat="48.44781" lon="7.25717">
        <ele>839.1</ele>
        <time>2026-03-16T09:46:48Z</time>
      </trkpt>
      <trkpt lat="48.44781" lon="7.25717">
        <ele>839.1</ele>
        <time>2026-03-16T09:46:53Z</time>
      </trkpt>
      <trkpt lat="48.44781" lon="7.25717">
        <ele>839.1</ele>
        <time>2026-03-16T09:46:58Z</time>
      </trkpt>
      <trkpt lat="48.44781" lon="7.25717">
        <ele>839.1</ele>
        <time>2026-03-16T09:47:03Z</time>
      </trkpt>
      <trkpt lat="48.44781" lon="7.25717">
        <ele>839.1</ele>
        <time>2026-03-16T09:47:08Z</time>
      </trkpt>
      <trkpt lat="48.44781" lon="7.25717">
        <ele>839.1</ele>
        <time>2026-03-16T09:47:13Z</time>
      </trkpt>
      <trkpt lat="48.44781" lon="7.25717">
        <ele>839.1</ele>
        <time>2026-03-16T09:47:18Z</time>
      </trkpt>
      <trkpt lat="48.44781" lon="7.25717">
        <ele>839.1</ele>
        <time>2026-03-16T09:47:23Z</time>
      </trkpt>
      <trkpt lat="48.44781" lon="7.25717">
        <ele>839.1</ele>
        <time>2026-03-16T09:47:28Z</time>
      </trkpt>
      <trkpt lat="48.44781" lon="7.25717">
        <ele>839.1</ele>
        <time>2026-03-16T09:47:33Z</time>
      </trkpt>
      <trkpt lat="48.44781" lon="7.25717">
        <ele>839.1</ele>
        <time>2026-03-16T09:47:38Z</time>
      </trkpt>
      <trkpt lat="48.44781" lon="7.25717">
        <ele>839.1</ele>
        <time>2026-03-16T09:47:43Z</time>
      </trkpt>
      <trkpt lat="48.44781" lon="7.25717">
        <ele>839.1</ele>
        <time>2026-03-16T09:47:48Z</time>
      </trkpt>
      <trkpt lat="48.44781" lon="7.25717">
        <ele>839.1</ele>
        <time>2026-03-16T09:47:53Z</time>
      </trkpt>
      <trkpt lat="48.44781" lon="7.25717">
        <ele>839.1</ele>
        <time>2026-03-16T09:47:58Z</time>
      </trkpt>
      <trkpt lat="48.44781" lon="7.25717">
        <ele>839.1</ele>
        <time>2026-03-16T09:48:03Z</time>
      </trkpt>
      <trkpt lat="48.44781" lon="7.25717">
        <ele>839.1</ele>
        <time>2026-03-16T09:48:08Z</time>
      </trkpt>
      <trkpt lat="48.44781" lon="7.25717">
        <ele>839.1</ele>
        <time>2026-03-16T09:48:13Z</time>
      </trkpt>
      <trkpt lat="48.44779" lon="7.25717">
        <ele>838.9</ele>
        <time>2026-03-16T09:48:18Z</time>
      </trkpt>
      <trkpt lat="48.44774" lon="7.2572">
        <ele>838.7</ele>
        <time>2026-03-16T09:48:23Z</time>
      </trkpt>
      <trkpt lat="48.44769" lon="7.25726">
        <ele>838.9</ele>
        <time>2026-03-16T09:48:28Z</time>
      </trkpt>
      <trkpt lat="48.44765" lon="7.25731">
        <ele>839.1</ele>
        <time>2026-03-16T09:48:33Z</time>
      </trkpt>
      <trkpt lat="48.4476" lon="7.25733">
        <ele>838.8</ele>
        <time>2026-03-16T09:48:38Z</time>
      </trkpt>
      <trkpt lat="48.44757" lon="7.25736">
        <ele>838.8</ele>
        <time>2026-03-16T09:48:43Z</time>
      </trkpt>
      <trkpt lat="48.44753" lon="7.25739">
        <ele>838.8</ele>
        <time>2026-03-16T09:48:48Z</time>
      </trkpt>
      <trkpt lat="48.44754" lon="7.25744">
        <ele>839.6</ele>
        <time>2026-03-16T09:48:53Z</time>
      </trkpt>
      <trkpt lat="48.44755" lon="7.25749">
        <ele>840.5</ele>
        <time>2026-03-16T09:48:58Z</time>
      </trkpt>
      <trkpt lat="48.44754" lon="7.25752">
        <ele>840.9</ele>
        <time>2026-03-16T09:49:03Z</time>
      </trkpt>
      <trkpt lat="48.44753" lon="7.25759">
        <ele>842.2</ele>
        <time>2026-03-16T09:49:08Z</time>
      </trkpt>
      <trkpt lat="48.44754" lon="7.25767">
        <ele>843.9</ele>
        <time>2026-03-16T09:49:13Z</time>
      </trkpt>
      <trkpt lat="48.44755" lon="7.25774">
        <ele>845.4</ele>
        <time>2026-03-16T09:49:18Z</time>
      </trkpt>
      <trkpt lat="48.44755" lon="7.25781">
        <ele>846.8</ele>
        <time>2026-03-16T09:49:23Z</time>
      </trkpt>
      <trkpt lat="48.44756" lon="7.25788">
        <ele>848.3</ele>
        <time>2026-03-16T09:49:28Z</time>
      </trkpt>
      <trkpt lat="48.44758" lon="7.25795">
        <ele>849.9</ele>
        <time>2026-03-16T09:49:33Z</time>
      </trkpt>
      <trkpt lat="48.44759" lon="7.25802">
        <ele>851.4</ele>
        <time>2026-03-16T09:49:38Z</time>
      </trkpt>
      <trkpt lat="48.4476" lon="7.2581">
        <ele>853.1</ele>
        <time>2026-03-16T09:49:43Z</time>
      </trkpt>
      <trkpt lat="48.44762" lon="7.25817">
        <ele>854.6</ele>
        <time>2026-03-16T09:49:48Z</time>
      </trkpt>
      <trkpt lat="48.44764" lon="7.25824">
        <ele>856.2</ele>
        <time>2026-03-16T09:49:53Z</time>
      </trkpt>
      <trkpt lat="48.44766" lon="7.25829">
        <ele>857.3</ele>
        <time>2026-03-16T09:49:58Z</time>
      </trkpt>
      <trkpt lat="48.44768" lon="7.25835">
        <ele>858.6</ele>
        <time>2026-03-16T09:50:03Z</time>
      </trkpt>
      <trkpt lat="48.44771" lon="7.25842">
        <ele>859.9</ele>
        <time>2026-03-16T09:50:08Z</time>
      </trkpt>
      <trkpt lat="48.44772" lon="7.25848">
        <ele>860.9</ele>
        <time>2026-03-16T09:50:13Z</time>
      </trkpt>
      <trkpt lat="48.44773" lon="7.25855">
        <ele>862</ele>
        <time>2026-03-16T09:50:18Z</time>
      </trkpt>
      <trkpt lat="48.44776" lon="7.2586">
        <ele>863</ele>
        <time>2026-03-16T09:50:23Z</time>
      </trkpt>
      <trkpt lat="48.44778" lon="7.25864">
        <ele>863.8</ele>
        <time>2026-03-16T09:50:28Z</time>
      </trkpt>
      <trkpt lat="48.44779" lon="7.2587">
        <ele>864.8</ele>
        <time>2026-03-16T09:50:33Z</time>
      </trkpt>
      <trkpt lat="48.4478" lon="7.25876">
        <ele>865.8</ele>
        <time>2026-03-16T09:50:38Z</time>
      </trkpt>
      <trkpt lat="48.44782" lon="7.25881">
        <ele>866.7</ele>
        <time>2026-03-16T09:50:43Z</time>
      </trkpt>
      <trkpt lat="48.44785" lon="7.25885">
        <ele>867.6</ele>
        <time>2026-03-16T09:50:48Z</time>
      </trkpt>
      <trkpt lat="48.44787" lon="7.2589">
        <ele>868.5</ele>
        <time>2026-03-16T09:50:53Z</time>
      </trkpt>
      <trkpt lat="48.44788" lon="7.25896">
        <ele>869.5</ele>
        <time>2026-03-16T09:50:58Z</time>
      </trkpt>
      <trkpt lat="48.44789" lon="7.25902">
        <ele>870.5</ele>
        <time>2026-03-16T09:51:03Z</time>
      </trkpt>
      <trkpt lat="48.44791" lon="7.25906">
        <ele>871.3</ele>
        <time>2026-03-16T09:51:08Z</time>
      </trkpt>
      <trkpt lat="48.44792" lon="7.25911">
        <ele>872.1</ele>
        <time>2026-03-16T09:51:13Z</time>
      </trkpt>
      <trkpt lat="48.44795" lon="7.25915">
        <ele>873</ele>
        <time>2026-03-16T09:51:18Z</time>
      </trkpt>
      <trkpt lat="48.44796" lon="7.25921">
        <ele>873.8</ele>
        <time>2026-03-16T09:51:23Z</time>
      </trkpt>
      <trkpt lat="48.44795" lon="7.25926">
        <ele>874.2</ele>
        <time>2026-03-16T09:51:28Z</time>
      </trkpt>
      <trkpt lat="48.44796" lon="7.25933">
        <ele>875</ele>
        <time>2026-03-16T09:51:33Z</time>
      </trkpt>
      <trkpt lat="48.44796" lon="7.25939">
        <ele>875.6</ele>
        <time>2026-03-16T09:51:38Z</time>
      </trkpt>
      <trkpt lat="48.44798" lon="7.25946">
        <ele>876.6</ele>
        <time>2026-03-16T09:51:43Z</time>
      </trkpt>
      <trkpt lat="48.448" lon="7.25953">
        <ele>877.6</ele>
        <time>2026-03-16T09:51:48Z</time>
      </trkpt>
      <trkpt lat="48.44801" lon="7.25958">
        <ele>878.3</ele>
        <time>2026-03-16T09:51:53Z</time>
      </trkpt>
      <trkpt lat="48.44801" lon="7.25962">
        <ele>878.8</ele>
        <time>2026-03-16T09:51:58Z</time>
      </trkpt>
      <trkpt lat="48.44803" lon="7.25966">
        <ele>879.5</ele>
        <time>2026-03-16T09:52:03Z</time>
      </trkpt>
      <trkpt lat="48.44806" lon="7.25971">
        <ele>880.6</ele>
        <time>2026-03-16T09:52:08Z</time>
      </trkpt>
      <trkpt lat="48.44807" lon="7.25976">
        <ele>881.4</ele>
        <time>2026-03-16T09:52:13Z</time>
      </trkpt>
      <trkpt lat="48.44808" lon="7.2598">
        <ele>882</ele>
        <time>2026-03-16T09:52:18Z</time>
      </trkpt>
      <trkpt lat="48.44808" lon="7.25985">
        <ele>882.7</ele>
        <time>2026-03-16T09:52:23Z</time>
      </trkpt>
      <trkpt lat="48.44808" lon="7.25986">
        <ele>882.8</ele>
        <time>2026-03-16T09:52:28Z</time>
      </trkpt>
      <trkpt lat="48.44808" lon="7.25986">
        <ele>882.8</ele>
        <time>2026-03-16T09:52:33Z</time>
      </trkpt>
      <trkpt lat="48.4481" lon="7.25991">
        <ele>883.8</ele>
        <time>2026-03-16T09:52:38Z</time>
      </trkpt>
      <trkpt lat="48.44809" lon="7.25992">
        <ele>883.7</ele>
        <time>2026-03-16T09:52:43Z</time>
      </trkpt>
      <trkpt lat="48.44809" lon="7.25992">
        <ele>883.7</ele>
        <time>2026-03-16T09:52:48Z</time>
      </trkpt>
      <trkpt lat="48.44812" lon="7.25999">
        <ele>885.3</ele>
        <time>2026-03-16T09:52:53Z</time>
      </trkpt>
      <trkpt lat="48.44813" lon="7.26004">
        <ele>886</ele>
        <time>2026-03-16T09:52:58Z</time>
      </trkpt>
      <trkpt lat="48.44813" lon="7.26009">
        <ele>886.4</ele>
        <time>2026-03-16T09:53:03Z</time>
      </trkpt>
      <trkpt lat="48.44816" lon="7.26012">
        <ele>887.4</ele>
        <time>2026-03-16T09:53:08Z</time>
      </trkpt>
      <trkpt lat="48.44817" lon="7.26017">
        <ele>888.1</ele>
        <time>2026-03-16T09:53:13Z</time>
      </trkpt>
      <trkpt lat="48.44819" lon="7.26023">
        <ele>889.1</ele>
        <time>2026-03-16T09:53:18Z</time>
      </trkpt>
      <trkpt lat="48.44821" lon="7.2603">
        <ele>890.3</ele>
        <time>2026-03-16T09:53:23Z</time>
      </trkpt>
      <trkpt lat="48.44823" lon="7.26036">
        <ele>891.3</ele>
        <time>2026-03-16T09:53:28Z</time>
      </trkpt>
      <trkpt lat="48.44824" lon="7.26045">
        <ele>892.5</ele>
        <time>2026-03-16T09:53:33Z</time>
      </trkpt>
      <trkpt lat="48.44825" lon="7.26053">
        <ele>893.5</ele>
        <time>2026-03-16T09:53:38Z</time>
      </trkpt>
      <trkpt lat="48.44827" lon="7.2606">
        <ele>894.8</ele>
        <time>2026-03-16T09:53:43Z</time>
      </trkpt>
      <trkpt lat="48.44829" lon="7.26068">
        <ele>896.2</ele>
        <time>2026-03-16T09:53:48Z</time>
      </trkpt>
      <trkpt lat="48.44831" lon="7.26076">
        <ele>897.6</ele>
        <time>2026-03-16T09:53:53Z</time>
      </trkpt>
      <trkpt lat="48.44832" lon="7.26082">
        <ele>898.5</ele>
        <time>2026-03-16T09:53:58Z</time>
      </trkpt>
      <trkpt lat="48.44835" lon="7.26091">
        <ele>899.5</ele>
        <time>2026-03-16T09:54:03Z</time>
      </trkpt>
      <trkpt lat="48.44838" lon="7.26099">
        <ele>899.8</ele>
        <time>2026-03-16T09:54:08Z</time>
      </trkpt>
      <trkpt lat="48.44841" lon="7.26106">
        <ele>900.1</ele>
        <time>2026-03-16T09:54:13Z</time>
      </trkpt>
      <trkpt lat="48.44844" lon="7.26112">
        <ele>900.3</ele>
        <time>2026-03-16T09:54:18Z</time>
      </trkpt>
      <trkpt lat="48.44846" lon="7.2612">
        <ele>900.7</ele>
        <time>2026-03-16T09:54:23Z</time>
      </trkpt>
      <trkpt lat="48.44849" lon="7.26128">
        <ele>901.1</ele>
        <time>2026-03-16T09:54:28Z</time>
      </trkpt>
      <trkpt lat="48.44853" lon="7.26135">
        <ele>901.2</ele>
        <time>2026-03-16T09:54:33Z</time>
      </trkpt>
      <trkpt lat="48.44855" lon="7.26142">
        <ele>901.6</ele>
        <time>2026-03-16T09:54:38Z</time>
      </trkpt>
      <trkpt lat="48.44857" lon="7.26149">
        <ele>902</ele>
        <time>2026-03-16T09:54:43Z</time>
      </trkpt>
      <trkpt lat="48.44859" lon="7.26156">
        <ele>902.3</ele>
        <time>2026-03-16T09:54:48Z</time>
      </trkpt>
      <trkpt lat="48.44862" lon="7.26164">
        <ele>902.7</ele>
        <time>2026-03-16T09:54:53Z</time>
      </trkpt>
      <trkpt lat="48.44866" lon="7.26174">
        <ele>903</ele>
        <time>2026-03-16T09:54:58Z</time>
      </trkpt>
      <trkpt lat="48.44868" lon="7.26182">
        <ele>903.4</ele>
        <time>2026-03-16T09:55:03Z</time>
      </trkpt>
      <trkpt lat="48.44869" lon="7.26188">
        <ele>903.7</ele>
        <time>2026-03-16T09:55:08Z</time>
      </trkpt>
      <trkpt lat="48.4487" lon="7.26197">
        <ele>904.3</ele>
        <time>2026-03-16T09:55:13Z</time>
      </trkpt>
      <trkpt lat="48.44873" lon="7.26204">
        <ele>904.6</ele>
        <time>2026-03-16T09:55:18Z</time>
      </trkpt>
      <trkpt lat="48.44876" lon="7.26212">
        <ele>905</ele>
        <time>2026-03-16T09:55:23Z</time>
      </trkpt>
      <trkpt lat="48.44878" lon="7.26221">
        <ele>905.5</ele>
        <time>2026-03-16T09:55:28Z</time>
      </trkpt>
      <trkpt lat="48.44881" lon="7.2623">
        <ele>906.1</ele>
        <time>2026-03-16T09:55:33Z</time>
      </trkpt>
      <trkpt lat="48.44885" lon="7.26239">
        <ele>906.6</ele>
        <time>2026-03-16T09:55:38Z</time>
      </trkpt>
      <trkpt lat="48.44887" lon="7.26248">
        <ele>907.3</ele>
        <time>2026-03-16T09:55:43Z</time>
      </trkpt>
      <trkpt lat="48.4489" lon="7.26257">
        <ele>908.1</ele>
        <time>2026-03-16T09:55:48Z</time>
      </trkpt>
      <trkpt lat="48.44895" lon="7.26265">
        <ele>908.9</ele>
        <time>2026-03-16T09:55:53Z</time>
      </trkpt>
      <trkpt lat="48.44897" lon="7.26274">
        <ele>910</ele>
        <time>2026-03-16T09:55:58Z</time>
      </trkpt>
      <trkpt lat="48.44899" lon="7.26281">
        <ele>910.8</ele>
        <time>2026-03-16T09:56:03Z</time>
      </trkpt>
      <trkpt lat="48.44901" lon="7.26284">
        <ele>911.2</ele>
        <time>2026-03-16T09:56:08Z</time>
      </trkpt>
      <trkpt lat="48.44901" lon="7.26284">
        <ele>911.2</ele>
        <time>2026-03-16T09:56:13Z</time>
      </trkpt>
      <trkpt lat="48.44901" lon="7.26284">
        <ele>911.2</ele>
        <time>2026-03-16T09:56:18Z</time>
      </trkpt>
      <trkpt lat="48.44901" lon="7.26284">
        <ele>911.2</ele>
        <time>2026-03-16T09:56:23Z</time>
      </trkpt>
      <trkpt lat="48.44905" lon="7.26295">
        <ele>912.6</ele>
        <time>2026-03-16T09:56:28Z</time>
      </trkpt>
      <trkpt lat="48.44907" lon="7.26301">
        <ele>913.4</ele>
        <time>2026-03-16T09:56:33Z</time>
      </trkpt>
      <trkpt lat="48.44908" lon="7.2631">
        <ele>914.6</ele>
        <time>2026-03-16T09:56:38Z</time>
      </trkpt>
      <trkpt lat="48.44909" lon="7.26319">
        <ele>915.8</ele>
        <time>2026-03-16T09:56:43Z</time>
      </trkpt>
      <trkpt lat="48.44908" lon="7.26325">
        <ele>916.7</ele>
        <time>2026-03-16T09:56:48Z</time>
      </trkpt>
      <trkpt lat="48.44907" lon="7.26332">
        <ele>917.6</ele>
        <time>2026-03-16T09:56:53Z</time>
      </trkpt>
      <trkpt lat="48.44906" lon="7.26343">
        <ele>919.1</ele>
        <time>2026-03-16T09:56:58Z</time>
      </trkpt>
      <trkpt lat="48.44907" lon="7.26353">
        <ele>920.5</ele>
        <time>2026-03-16T09:57:03Z</time>
      </trkpt>
      <trkpt lat="48.44908" lon="7.26361">
        <ele>921.6</ele>
        <time>2026-03-16T09:57:08Z</time>
      </trkpt>
      <trkpt lat="48.44909" lon="7.26372">
        <ele>923.2</ele>
        <time>2026-03-16T09:57:13Z</time>
      </trkpt>
      <trkpt lat="48.44912" lon="7.26382">
        <ele>924.8</ele>
        <time>2026-03-16T09:57:18Z</time>
      </trkpt>
      <trkpt lat="48.44916" lon="7.26391">
        <ele>926.3</ele>
        <time>2026-03-16T09:57:23Z</time>
      </trkpt>
      <trkpt lat="48.44916" lon="7.264">
        <ele>927.6</ele>
        <time>2026-03-16T09:57:28Z</time>
      </trkpt>
      <trkpt lat="48.44917" lon="7.26407">
        <ele>928.5</ele>
        <time>2026-03-16T09:57:33Z</time>
      </trkpt>
      <trkpt lat="48.44918" lon="7.26414">
        <ele>929.2</ele>
        <time>2026-03-16T09:57:38Z</time>
      </trkpt>
      <trkpt lat="48.44918" lon="7.26417">
        <ele>929.6</ele>
        <time>2026-03-16T09:57:43Z</time>
      </trkpt>
      <trkpt lat="48.44919" lon="7.2642">
        <ele>929.7</ele>
        <time>2026-03-16T09:57:48Z</time>
      </trkpt>
      <trkpt lat="48.44919" lon="7.26427">
        <ele>930.6</ele>
        <time>2026-03-16T09:57:53Z</time>
      </trkpt>
      <trkpt lat="48.44921" lon="7.26434">
        <ele>930.9</ele>
        <time>2026-03-16T09:57:58Z</time>
      </trkpt>
      <trkpt lat="48.44923" lon="7.2644">
        <ele>931.2</ele>
        <time>2026-03-16T09:58:03Z</time>
      </trkpt>
      <trkpt lat="48.44924" lon="7.26447">
        <ele>931.8</ele>
        <time>2026-03-16T09:58:08Z</time>
      </trkpt>
      <trkpt lat="48.44925" lon="7.26452">
        <ele>932.2</ele>
        <time>2026-03-16T09:58:13Z</time>
      </trkpt>
      <trkpt lat="48.44927" lon="7.26458">
        <ele>932.5</ele>
        <time>2026-03-16T09:58:18Z</time>
      </trkpt>
      <trkpt lat="48.44929" lon="7.26466">
        <ele>933</ele>
        <time>2026-03-16T09:58:23Z</time>
      </trkpt>
      <trkpt lat="48.44928" lon="7.26472">
        <ele>934.2</ele>
        <time>2026-03-16T09:58:28Z</time>
      </trkpt>
      <trkpt lat="48.44927" lon="7.26479">
        <ele>935.4</ele>
        <time>2026-03-16T09:58:33Z</time>
      </trkpt>
      <trkpt lat="48.44927" lon="7.26488">
        <ele>936.7</ele>
        <time>2026-03-16T09:58:38Z</time>
      </trkpt>
      <trkpt lat="48.44928" lon="7.26495">
        <ele>937.4</ele>
        <time>2026-03-16T09:58:43Z</time>
      </trkpt>
      <trkpt lat="48.44928" lon="7.26502">
        <ele>938.4</ele>
        <time>2026-03-16T09:58:48Z</time>
      </trkpt>
      <trkpt lat="48.44928" lon="7.2651">
        <ele>939.6</ele>
        <time>2026-03-16T09:58:53Z</time>
      </trkpt>
      <trkpt lat="48.44929" lon="7.26514">
        <ele>940</ele>
        <time>2026-03-16T09:58:58Z</time>
      </trkpt>
      <trkpt lat="48.4493" lon="7.2652">
        <ele>940.6</ele>
        <time>2026-03-16T09:59:03Z</time>
      </trkpt>
      <trkpt lat="48.44933" lon="7.26526">
        <ele>940.8</ele>
        <time>2026-03-16T09:59:08Z</time>
      </trkpt>
      <trkpt lat="48.44935" lon="7.26532">
        <ele>941.2</ele>
        <time>2026-03-16T09:59:13Z</time>
      </trkpt>
      <trkpt lat="48.44935" lon="7.2654">
        <ele>942.4</ele>
        <time>2026-03-16T09:59:18Z</time>
      </trkpt>
      <trkpt lat="48.44936" lon="7.26549">
        <ele>943.5</ele>
        <time>2026-03-16T09:59:23Z</time>
      </trkpt>
      <trkpt lat="48.44938" lon="7.26557">
        <ele>944.2</ele>
        <time>2026-03-16T09:59:28Z</time>
      </trkpt>
      <trkpt lat="48.4494" lon="7.26564">
        <ele>944.8</ele>
        <time>2026-03-16T09:59:33Z</time>
      </trkpt>
      <trkpt lat="48.4494" lon="7.2657">
        <ele>945.7</ele>
        <time>2026-03-16T09:59:38Z</time>
      </trkpt>
      <trkpt lat="48.44939" lon="7.26574">
        <ele>946.5</ele>
        <time>2026-03-16T09:59:43Z</time>
      </trkpt>
      <trkpt lat="48.4494" lon="7.26577">
        <ele>946.7</ele>
        <time>2026-03-16T09:59:48Z</time>
      </trkpt>
      <trkpt lat="48.44944" lon="7.26578">
        <ele>946</ele>
        <time>2026-03-16T09:59:53Z</time>
      </trkpt>
      <trkpt lat="48.44941" lon="7.26581">
        <ele>947.1</ele>
        <time>2026-03-16T09:59:58Z</time>
      </trkpt>
      <trkpt lat="48.44942" lon="7.26586">
        <ele>947.6</ele>
        <time>2026-03-16T10:00:03Z</time>
      </trkpt>
      <trkpt lat="48.44943" lon="7.26593">
        <ele>948.3</ele>
        <time>2026-03-16T10:00:08Z</time>
      </trkpt>
      <trkpt lat="48.44947" lon="7.26595">
        <ele>947.7</ele>
        <time>2026-03-16T10:00:13Z</time>
      </trkpt>
      <trkpt lat="48.44949" lon="7.26594">
        <ele>947.1</ele>
        <time>2026-03-16T10:00:18Z</time>
      </trkpt>
      <trkpt lat="48.4495" lon="7.26601">
        <ele>947.9</ele>
        <time>2026-03-16T10:00:23Z</time>
      </trkpt>
      <trkpt lat="48.44951" lon="7.26609">
        <ele>948.8</ele>
        <time>2026-03-16T10:00:28Z</time>
      </trkpt>
      <trkpt lat="48.44952" lon="7.26615">
        <ele>949.4</ele>
        <time>2026-03-16T10:00:33Z</time>
      </trkpt>
      <trkpt lat="48.44952" lon="7.26618">
        <ele>949.8</ele>
        <time>2026-03-16T10:00:38Z</time>
      </trkpt>
      <trkpt lat="48.44953" lon="7.26624">
        <ele>950.4</ele>
        <time>2026-03-16T10:00:43Z</time>
      </trkpt>
      <trkpt lat="48.44953" lon="7.2663">
        <ele>951.3</ele>
        <time>2026-03-16T10:00:48Z</time>
      </trkpt>
      <trkpt lat="48.44954" lon="7.2664">
        <ele>952.5</ele>
        <time>2026-03-16T10:00:53Z</time>
      </trkpt>
      <trkpt lat="48.44956" lon="7.26649">
        <ele>953.4</ele>
        <time>2026-03-16T10:00:58Z</time>
      </trkpt>
      <trkpt lat="48.44958" lon="7.26656">
        <ele>954</ele>
        <time>2026-03-16T10:01:03Z</time>
      </trkpt>
      <trkpt lat="48.44958" lon="7.26663">
        <ele>955</ele>
        <time>2026-03-16T10:01:08Z</time>
      </trkpt>
      <trkpt lat="48.4496" lon="7.26669">
        <ele>955.4</ele>
        <time>2026-03-16T10:01:13Z</time>
      </trkpt>
      <trkpt lat="48.4496" lon="7.26673">
        <ele>955.7</ele>
        <time>2026-03-16T10:01:18Z</time>
      </trkpt>
      <trkpt lat="48.44961" lon="7.26678">
        <ele>955.9</ele>
        <time>2026-03-16T10:01:23Z</time>
      </trkpt>
      <trkpt lat="48.44963" lon="7.26684">
        <ele>956</ele>
        <time>2026-03-16T10:01:28Z</time>
      </trkpt>
      <trkpt lat="48.44964" lon="7.26691">
        <ele>956.4</ele>
        <time>2026-03-16T10:01:33Z</time>
      </trkpt>
      <trkpt lat="48.44964" lon="7.26698">
        <ele>957</ele>
        <time>2026-03-16T10:01:38Z</time>
      </trkpt>
      <trkpt lat="48.44967" lon="7.26703">
        <ele>956.9</ele>
        <time>2026-03-16T10:01:43Z</time>
      </trkpt>
      <trkpt lat="48.44969" lon="7.26708">
        <ele>957</ele>
        <time>2026-03-16T10:01:48Z</time>
      </trkpt>
      <trkpt lat="48.44971" lon="7.26714">
        <ele>957.2</ele>
        <time>2026-03-16T10:01:53Z</time>
      </trkpt>
      <trkpt lat="48.44973" lon="7.26719">
        <ele>957.3</ele>
        <time>2026-03-16T10:01:58Z</time>
      </trkpt>
      <trkpt lat="48.44974" lon="7.26726">
        <ele>957.7</ele>
        <time>2026-03-16T10:02:03Z</time>
      </trkpt>
      <trkpt lat="48.44975" lon="7.26734">
        <ele>958.2</ele>
        <time>2026-03-16T10:02:08Z</time>
      </trkpt>
      <trkpt lat="48.44977" lon="7.2674">
        <ele>958.5</ele>
        <time>2026-03-16T10:02:13Z</time>
      </trkpt>
      <trkpt lat="48.44979" lon="7.26745">
        <ele>958.6</ele>
        <time>2026-03-16T10:02:18Z</time>
      </trkpt>
      <trkpt lat="48.4498" lon="7.26752">
        <ele>959.1</ele>
        <time>2026-03-16T10:02:23Z</time>
      </trkpt>
      <trkpt lat="48.44981" lon="7.26758">
        <ele>959.5</ele>
        <time>2026-03-16T10:02:28Z</time>
      </trkpt>
      <trkpt lat="48.44981" lon="7.26763">
        <ele>959.9</ele>
        <time>2026-03-16T10:02:33Z</time>
      </trkpt>
      <trkpt lat="48.4498" lon="7.26768">
        <ele>960.5</ele>
        <time>2026-03-16T10:02:38Z</time>
      </trkpt>
      <trkpt lat="48.44981" lon="7.26776">
        <ele>961.1</ele>
        <time>2026-03-16T10:02:43Z</time>
      </trkpt>
      <trkpt lat="48.44982" lon="7.26782">
        <ele>961.5</ele>
        <time>2026-03-16T10:02:48Z</time>
      </trkpt>
      <trkpt lat="48.44983" lon="7.26789">
        <ele>962</ele>
        <time>2026-03-16T10:02:53Z</time>
      </trkpt>
      <trkpt lat="48.44985" lon="7.26794">
        <ele>962.2</ele>
        <time>2026-03-16T10:02:58Z</time>
      </trkpt>
      <trkpt lat="48.44986" lon="7.26798">
        <ele>962.4</ele>
        <time>2026-03-16T10:03:03Z</time>
      </trkpt>
      <trkpt lat="48.44989" lon="7.26802">
        <ele>962.4</ele>
        <time>2026-03-16T10:03:08Z</time>
      </trkpt>
      <trkpt lat="48.4499" lon="7.2681">
        <ele>963</ele>
        <time>2026-03-16T10:03:13Z</time>
      </trkpt>
      <trkpt lat="48.44991" lon="7.26818">
        <ele>963.6</ele>
        <time>2026-03-16T10:03:18Z</time>
      </trkpt>
      <trkpt lat="48.44992" lon="7.26827">
        <ele>964.4</ele>
        <time>2026-03-16T10:03:23Z</time>
      </trkpt>
      <trkpt lat="48.44994" lon="7.26834">
        <ele>964.8</ele>
        <time>2026-03-16T10:03:28Z</time>
      </trkpt>
      <trkpt lat="48.44994" lon="7.26842">
        <ele>965.4</ele>
        <time>2026-03-16T10:03:33Z</time>
      </trkpt>
      <trkpt lat="48.44995" lon="7.26847">
        <ele>965.6</ele>
        <time>2026-03-16T10:03:38Z</time>
      </trkpt>
      <trkpt lat="48.44995" lon="7.26854">
        <ele>966.2</ele>
        <time>2026-03-16T10:03:43Z</time>
      </trkpt>
      <trkpt lat="48.44996" lon="7.2686">
        <ele>966.5</ele>
        <time>2026-03-16T10:03:48Z</time>
      </trkpt>
      <trkpt lat="48.44997" lon="7.26869">
        <ele>967</ele>
        <time>2026-03-16T10:03:53Z</time>
      </trkpt>
      <trkpt lat="48.44998" lon="7.26879">
        <ele>967.6</ele>
        <time>2026-03-16T10:03:58Z</time>
      </trkpt>
      <trkpt lat="48.44998" lon="7.26886">
        <ele>968.1</ele>
        <time>2026-03-16T10:04:03Z</time>
      </trkpt>
      <trkpt lat="48.44998" lon="7.26891">
        <ele>968.5</ele>
        <time>2026-03-16T10:04:08Z</time>
      </trkpt>
      <trkpt lat="48.44997" lon="7.26899">
        <ele>969.2</ele>
        <time>2026-03-16T10:04:13Z</time>
      </trkpt>
      <trkpt lat="48.44998" lon="7.26905">
        <ele>969.5</ele>
        <time>2026-03-16T10:04:18Z</time>
      </trkpt>
      <trkpt lat="48.44998" lon="7.26912">
        <ele>970</ele>
        <time>2026-03-16T10:04:23Z</time>
      </trkpt>
      <trkpt lat="48.44998" lon="7.26918">
        <ele>970.4</ele>
        <time>2026-03-16T10:04:28Z</time>
      </trkpt>
      <trkpt lat="48.44998" lon="7.26925">
        <ele>970.8</ele>
        <time>2026-03-16T10:04:33Z</time>
      </trkpt>
      <trkpt lat="48.44999" lon="7.26932">
        <ele>970.9</ele>
        <time>2026-03-16T10:04:38Z</time>
      </trkpt>
      <trkpt lat="48.45" lon="7.2694">
        <ele>971.1</ele>
        <time>2026-03-16T10:04:43Z</time>
      </trkpt>
      <trkpt lat="48.45002" lon="7.26948">
        <ele>970.8</ele>
        <time>2026-03-16T10:04:48Z</time>
      </trkpt>
      <trkpt lat="48.45003" lon="7.26958">
        <ele>970.9</ele>
        <time>2026-03-16T10:04:53Z</time>
      </trkpt>
      <trkpt lat="48.45004" lon="7.26967">
        <ele>971</ele>
        <time>2026-03-16T10:04:58Z</time>
      </trkpt>
      <trkpt lat="48.45004" lon="7.26977">
        <ele>971.5</ele>
        <time>2026-03-16T10:05:03Z</time>
      </trkpt>
      <trkpt lat="48.45004" lon="7.26982">
        <ele>971.7</ele>
        <time>2026-03-16T10:05:08Z</time>
      </trkpt>
      <trkpt lat="48.45003" lon="7.26989">
        <ele>972.4</ele>
        <time>2026-03-16T10:05:13Z</time>
      </trkpt>
      <trkpt lat="48.45003" lon="7.26997">
        <ele>972.8</ele>
        <time>2026-03-16T10:05:18Z</time>
      </trkpt>
      <trkpt lat="48.45002" lon="7.27008">
        <ele>973.5</ele>
        <time>2026-03-16T10:05:23Z</time>
      </trkpt>
      <trkpt lat="48.44999" lon="7.27016">
        <ele>974.6</ele>
        <time>2026-03-16T10:05:28Z</time>
      </trkpt>
      <trkpt lat="48.44998" lon="7.27025">
        <ele>975</ele>
        <time>2026-03-16T10:05:33Z</time>
      </trkpt>
      <trkpt lat="48.44998" lon="7.27033">
        <ele>975.2</ele>
        <time>2026-03-16T10:05:38Z</time>
      </trkpt>
      <trkpt lat="48.44998" lon="7.27042">
        <ele>975.4</ele>
        <time>2026-03-16T10:05:43Z</time>
      </trkpt>
      <trkpt lat="48.44999" lon="7.2705">
        <ele>975.4</ele>
        <time>2026-03-16T10:05:48Z</time>
      </trkpt>
      <trkpt lat="48.44999" lon="7.2705">
        <ele>975.4</ele>
        <time>2026-03-16T10:05:53Z</time>
      </trkpt>
      <trkpt lat="48.44999" lon="7.2705">
        <ele>975.4</ele>
        <time>2026-03-16T10:05:58Z</time>
      </trkpt>
      <trkpt lat="48.44999" lon="7.2705">
        <ele>975.4</ele>
        <time>2026-03-16T10:06:03Z</time>
      </trkpt>
      <trkpt lat="48.44999" lon="7.27058">
        <ele>975.6</ele>
        <time>2026-03-16T10:06:08Z</time>
      </trkpt>
      <trkpt lat="48.44999" lon="7.27063">
        <ele>975.7</ele>
        <time>2026-03-16T10:06:13Z</time>
      </trkpt>
      <trkpt lat="48.44998" lon="7.27069">
        <ele>976.1</ele>
        <time>2026-03-16T10:06:18Z</time>
      </trkpt>
      <trkpt lat="48.44996" lon="7.27076">
        <ele>976.7</ele>
        <time>2026-03-16T10:06:23Z</time>
      </trkpt>
      <trkpt lat="48.44993" lon="7.27082">
        <ele>977.6</ele>
        <time>2026-03-16T10:06:28Z</time>
      </trkpt>
      <trkpt lat="48.44992" lon="7.2709">
        <ele>977.8</ele>
        <time>2026-03-16T10:06:33Z</time>
      </trkpt>
      <trkpt lat="48.44993" lon="7.27093">
        <ele>977.6</ele>
        <time>2026-03-16T10:06:38Z</time>
      </trkpt>
      <trkpt lat="48.44993" lon="7.27093">
        <ele>977.6</ele>
        <time>2026-03-16T10:06:43Z</time>
      </trkpt>
      <trkpt lat="48.44995" lon="7.27096">
        <ele>977.1</ele>
        <time>2026-03-16T10:06:48Z</time>
      </trkpt>
      <trkpt lat="48.44996" lon="7.27105">
        <ele>976.9</ele>
        <time>2026-03-16T10:06:53Z</time>
      </trkpt>
      <trkpt lat="48.44993" lon="7.27112">
        <ele>977.6</ele>
        <time>2026-03-16T10:06:58Z</time>
      </trkpt>
      <trkpt lat="48.44992" lon="7.27117">
        <ele>977.9</ele>
        <time>2026-03-16T10:07:03Z</time>
      </trkpt>
      <trkpt lat="48.4499" lon="7.27122">
        <ele>978.3</ele>
        <time>2026-03-16T10:07:08Z</time>
      </trkpt>
      <trkpt lat="48.44986" lon="7.27129">
        <ele>979.3</ele>
        <time>2026-03-16T10:07:13Z</time>
      </trkpt>
      <trkpt lat="48.44984" lon="7.27136">
        <ele>979.8</ele>
        <time>2026-03-16T10:07:18Z</time>
      </trkpt>
      <trkpt lat="48.44981" lon="7.27143">
        <ele>980.5</ele>
        <time>2026-03-16T10:07:23Z</time>
      </trkpt>
      <trkpt lat="48.44979" lon="7.27149">
        <ele>981</ele>
        <time>2026-03-16T10:07:28Z</time>
      </trkpt>
      <trkpt lat="48.44978" lon="7.27158">
        <ele>981.3</ele>
        <time>2026-03-16T10:07:33Z</time>
      </trkpt>
      <trkpt lat="48.44976" lon="7.27165">
        <ele>981.8</ele>
        <time>2026-03-16T10:07:38Z</time>
      </trkpt>
      <trkpt lat="48.44974" lon="7.27172">
        <ele>982.3</ele>
        <time>2026-03-16T10:07:43Z</time>
      </trkpt>
      <trkpt lat="48.44971" lon="7.27178">
        <ele>983</ele>
        <time>2026-03-16T10:07:48Z</time>
      </trkpt>
      <trkpt lat="48.4497" lon="7.27188">
        <ele>983.3</ele>
        <time>2026-03-16T10:07:53Z</time>
      </trkpt>
      <trkpt lat="48.44969" lon="7.27197">
        <ele>983.5</ele>
        <time>2026-03-16T10:07:58Z</time>
      </trkpt>
      <trkpt lat="48.4497" lon="7.27204">
        <ele>983.3</ele>
        <time>2026-03-16T10:08:03Z</time>
      </trkpt>
      <trkpt lat="48.4497" lon="7.27212">
        <ele>983.3</ele>
        <time>2026-03-16T10:08:08Z</time>
      </trkpt>
      <trkpt lat="48.44969" lon="7.2722">
        <ele>983.5</ele>
        <time>2026-03-16T10:08:13Z</time>
      </trkpt>
      <trkpt lat="48.4497" lon="7.27226">
        <ele>983.3</ele>
        <time>2026-03-16T10:08:18Z</time>
      </trkpt>
      <trkpt lat="48.44969" lon="7.27233">
        <ele>983.6</ele>
        <time>2026-03-16T10:08:23Z</time>
      </trkpt>
      <trkpt lat="48.44967" lon="7.27242">
        <ele>983.9</ele>
        <time>2026-03-16T10:08:28Z</time>
      </trkpt>
      <trkpt lat="48.44966" lon="7.27248">
        <ele>984.1</ele>
        <time>2026-03-16T10:08:33Z</time>
      </trkpt>
      <trkpt lat="48.44965" lon="7.27255">
        <ele>984.5</ele>
        <time>2026-03-16T10:08:38Z</time>
      </trkpt>
      <trkpt lat="48.44962" lon="7.27261">
        <ele>985.2</ele>
        <time>2026-03-16T10:08:43Z</time>
      </trkpt>
      <trkpt lat="48.44961" lon="7.27269">
        <ele>985.6</ele>
        <time>2026-03-16T10:08:48Z</time>
      </trkpt>
      <trkpt lat="48.44959" lon="7.27275">
        <ele>986.1</ele>
        <time>2026-03-16T10:08:53Z</time>
      </trkpt>
      <trkpt lat="48.44958" lon="7.27281">
        <ele>986.5</ele>
        <time>2026-03-16T10:08:58Z</time>
      </trkpt>
      <trkpt lat="48.44956" lon="7.27288">
        <ele>987</ele>
        <time>2026-03-16T10:09:03Z</time>
      </trkpt>
      <trkpt lat="48.44956" lon="7.27296">
        <ele>987.3</ele>
        <time>2026-03-16T10:09:08Z</time>
      </trkpt>
      <trkpt lat="48.44955" lon="7.27302">
        <ele>987.6</ele>
        <time>2026-03-16T10:09:13Z</time>
      </trkpt>
      <trkpt lat="48.44955" lon="7.27311">
        <ele>987.9</ele>
        <time>2026-03-16T10:09:18Z</time>
      </trkpt>
      <trkpt lat="48.44954" lon="7.27319">
        <ele>988.3</ele>
        <time>2026-03-16T10:09:23Z</time>
      </trkpt>
      <trkpt lat="48.44953" lon="7.27326">
        <ele>988.7</ele>
        <time>2026-03-16T10:09:28Z</time>
      </trkpt>
      <trkpt lat="48.44952" lon="7.27334">
        <ele>989.1</ele>
        <time>2026-03-16T10:09:33Z</time>
      </trkpt>
      <trkpt lat="48.44951" lon="7.27339">
        <ele>989.2</ele>
        <time>2026-03-16T10:09:38Z</time>
      </trkpt>
      <trkpt lat="48.44949" lon="7.27342">
        <ele>989.5</ele>
        <time>2026-03-16T10:09:43Z</time>
      </trkpt>
      <trkpt lat="48.44949" lon="7.27342">
        <ele>989.5</ele>
        <time>2026-03-16T10:09:48Z</time>
      </trkpt>
      <trkpt lat="48.44949" lon="7.27342">
        <ele>989.5</ele>
        <time>2026-03-16T10:09:53Z</time>
      </trkpt>
      <trkpt lat="48.44949" lon="7.27342">
        <ele>989.5</ele>
        <time>2026-03-16T10:09:58Z</time>
      </trkpt>
      <trkpt lat="48.44949" lon="7.27342">
        <ele>989.5</ele>
        <time>2026-03-16T10:10:03Z</time>
      </trkpt>
      <trkpt lat="48.44949" lon="7.27342">
        <ele>989.5</ele>
        <time>2026-03-16T10:10:08Z</time>
      </trkpt>
      <trkpt lat="48.44949" lon="7.27342">
        <ele>989.5</ele>
        <time>2026-03-16T10:10:13Z</time>
      </trkpt>
      <trkpt lat="48.44949" lon="7.27342">
        <ele>989.5</ele>
        <time>2026-03-16T10:10:18Z</time>
      </trkpt>
      <trkpt lat="48.44949" lon="7.27342">
        <ele>989.5</ele>
        <time>2026-03-16T10:10:23Z</time>
      </trkpt>
      <trkpt lat="48.44949" lon="7.27342">
        <ele>989.5</ele>
        <time>2026-03-16T10:10:28Z</time>
      </trkpt>
      <trkpt lat="48.44949" lon="7.27348">
        <ele>989.4</ele>
        <time>2026-03-16T10:10:33Z</time>
      </trkpt>
      <trkpt lat="48.44947" lon="7.27357">
        <ele>989.7</ele>
        <time>2026-03-16T10:10:38Z</time>
      </trkpt>
      <trkpt lat="48.44947" lon="7.27362">
        <ele>989.7</ele>
        <time>2026-03-16T10:10:43Z</time>
      </trkpt>
      <trkpt lat="48.44945" lon="7.27368">
        <ele>990</ele>
        <time>2026-03-16T10:10:48Z</time>
      </trkpt>
      <trkpt lat="48.44944" lon="7.27372">
        <ele>990.1</ele>
        <time>2026-03-16T10:10:53Z</time>
      </trkpt>
      <trkpt lat="48.44942" lon="7.27376">
        <ele>990.4</ele>
        <time>2026-03-16T10:10:58Z</time>
      </trkpt>
      <trkpt lat="48.44939" lon="7.27379">
        <ele>991</ele>
        <time>2026-03-16T10:11:03Z</time>
      </trkpt>
      <trkpt lat="48.44938" lon="7.27384">
        <ele>991.1</ele>
        <time>2026-03-16T10:11:08Z</time>
      </trkpt>
      <trkpt lat="48.44937" lon="7.27387">
        <ele>991.3</ele>
        <time>2026-03-16T10:11:13Z</time>
      </trkpt>
      <trkpt lat="48.44937" lon="7.27387">
        <ele>991.3</ele>
        <time>2026-03-16T10:11:18Z</time>
      </trkpt>
      <trkpt lat="48.44937" lon="7.27387">
        <ele>991.3</ele>
        <time>2026-03-16T10:11:23Z</time>
      </trkpt>
      <trkpt lat="48.44937" lon="7.27397">
        <ele>991.2</ele>
        <time>2026-03-16T10:11:28Z</time>
      </trkpt>
      <trkpt lat="48.44939" lon="7.27409">
        <ele>990.8</ele>
        <time>2026-03-16T10:11:33Z</time>
      </trkpt>
      <trkpt lat="48.4494" lon="7.27409">
        <ele>990.6</ele>
        <time>2026-03-16T10:11:38Z</time>
      </trkpt>
      <trkpt lat="48.4494" lon="7.2741">
        <ele>990.6</ele>
        <time>2026-03-16T10:11:43Z</time>
      </trkpt>
      <trkpt lat="48.4494" lon="7.2741">
        <ele>990.6</ele>
        <time>2026-03-16T10:11:48Z</time>
      </trkpt>
      <trkpt lat="48.4494" lon="7.2741">
        <ele>990.6</ele>
        <time>2026-03-16T10:11:53Z</time>
      </trkpt>
      <trkpt lat="48.4494" lon="7.2741">
        <ele>990.6</ele>
        <time>2026-03-16T10:11:58Z</time>
      </trkpt>
      <trkpt lat="48.44939" lon="7.27421">
        <ele>990.9</ele>
        <time>2026-03-16T10:12:03Z</time>
      </trkpt>
      <trkpt lat="48.44938" lon="7.2743">
        <ele>991.3</ele>
        <time>2026-03-16T10:12:08Z</time>
      </trkpt>
      <trkpt lat="48.44936" lon="7.27435">
        <ele>991.9</ele>
        <time>2026-03-16T10:12:13Z</time>
      </trkpt>
      <trkpt lat="48.44936" lon="7.2744">
        <ele>992.1</ele>
        <time>2026-03-16T10:12:18Z</time>
      </trkpt>
      <trkpt lat="48.44937" lon="7.27447">
        <ele>992.1</ele>
        <time>2026-03-16T10:12:23Z</time>
      </trkpt>
      <trkpt lat="48.44935" lon="7.27453">
        <ele>992.7</ele>
        <time>2026-03-16T10:12:28Z</time>
      </trkpt>
      <trkpt lat="48.44933" lon="7.27462">
        <ele>993.4</ele>
        <time>2026-03-16T10:12:33Z</time>
      </trkpt>
      <trkpt lat="48.44934" lon="7.27469">
        <ele>993.4</ele>
        <time>2026-03-16T10:12:38Z</time>
      </trkpt>
      <trkpt lat="48.44935" lon="7.27477">
        <ele>993.5</ele>
        <time>2026-03-16T10:12:43Z</time>
      </trkpt>
      <trkpt lat="48.44935" lon="7.27483">
        <ele>993.7</ele>
        <time>2026-03-16T10:12:48Z</time>
      </trkpt>
      <trkpt lat="48.44935" lon="7.27491">
        <ele>994</ele>
        <time>2026-03-16T10:12:53Z</time>
      </trkpt>
      <trkpt lat="48.44936" lon="7.275">
        <ele>994.1</ele>
        <time>2026-03-16T10:12:58Z</time>
      </trkpt>
      <trkpt lat="48.44936" lon="7.27509">
        <ele>994.4</ele>
        <time>2026-03-16T10:13:03Z</time>
      </trkpt>
      <trkpt lat="48.44936" lon="7.2752">
        <ele>994.7</ele>
        <time>2026-03-16T10:13:08Z</time>
      </trkpt>
      <trkpt lat="48.44936" lon="7.2753">
        <ele>995.1</ele>
        <time>2026-03-16T10:13:13Z</time>
      </trkpt>
      <trkpt lat="48.44936" lon="7.27539">
        <ele>995.4</ele>
        <time>2026-03-16T10:13:18Z</time>
      </trkpt>
      <trkpt lat="48.44936" lon="7.27549">
        <ele>995.7</ele>
        <time>2026-03-16T10:13:23Z</time>
      </trkpt>
      <trkpt lat="48.44936" lon="7.27557">
        <ele>996</ele>
        <time>2026-03-16T10:13:28Z</time>
      </trkpt>
      <trkpt lat="48.44936" lon="7.27565">
        <ele>996.3</ele>
        <time>2026-03-16T10:13:33Z</time>
      </trkpt>
      <trkpt lat="48.44936" lon="7.27572">
        <ele>996.5</ele>
        <time>2026-03-16T10:13:38Z</time>
      </trkpt>
      <trkpt lat="48.44935" lon="7.27581">
        <ele>997.1</ele>
        <time>2026-03-16T10:13:43Z</time>
      </trkpt>
      <trkpt lat="48.44935" lon="7.27586">
        <ele>997.1</ele>
        <time>2026-03-16T10:13:48Z</time>
      </trkpt>
      <trkpt lat="48.44934" lon="7.2759">
        <ele>997.2</ele>
        <time>2026-03-16T10:13:53Z</time>
      </trkpt>
      <trkpt lat="48.44935" lon="7.27594">
        <ele>996.8</ele>
        <time>2026-03-16T10:13:58Z</time>
      </trkpt>
      <trkpt lat="48.44935" lon="7.27594">
        <ele>996.8</ele>
        <time>2026-03-16T10:14:03Z</time>
      </trkpt>
      <trkpt lat="48.44935" lon="7.27594">
        <ele>996.8</ele>
        <time>2026-03-16T10:14:08Z</time>
      </trkpt>
      <trkpt lat="48.44934" lon="7.27594">
        <ele>997.1</ele>
        <time>2026-03-16T10:14:13Z</time>
      </trkpt>
      <trkpt lat="48.44936" lon="7.27601">
        <ele>996.4</ele>
        <time>2026-03-16T10:14:18Z</time>
      </trkpt>
      <trkpt lat="48.44936" lon="7.27606">
        <ele>996.2</ele>
        <time>2026-03-16T10:14:23Z</time>
      </trkpt>
      <trkpt lat="48.44935" lon="7.27615">
        <ele>996.2</ele>
        <time>2026-03-16T10:14:28Z</time>
      </trkpt>
      <trkpt lat="48.44934" lon="7.27623">
        <ele>996.3</ele>
        <time>2026-03-16T10:14:33Z</time>
      </trkpt>
      <trkpt lat="48.44933" lon="7.27631">
        <ele>996.3</ele>
        <time>2026-03-16T10:14:38Z</time>
      </trkpt>
      <trkpt lat="48.44936" lon="7.27641">
        <ele>995.2</ele>
        <time>2026-03-16T10:14:43Z</time>
      </trkpt>
      <trkpt lat="48.44931" lon="7.27652">
        <ele>996.3</ele>
        <time>2026-03-16T10:14:48Z</time>
      </trkpt>
      <trkpt lat="48.44929" lon="7.27663">
        <ele>996.5</ele>
        <time>2026-03-16T10:14:53Z</time>
      </trkpt>
      <trkpt lat="48.44929" lon="7.27673">
        <ele>996.6</ele>
        <time>2026-03-16T10:14:58Z</time>
      </trkpt>
      <trkpt lat="48.4493" lon="7.27682">
        <ele>996.5</ele>
        <time>2026-03-16T10:15:03Z</time>
      </trkpt>
      <trkpt lat="48.44928" lon="7.27691">
        <ele>997.3</ele>
        <time>2026-03-16T10:15:08Z</time>
      </trkpt>
      <trkpt lat="48.44928" lon="7.277">
        <ele>997.5</ele>
        <time>2026-03-16T10:15:13Z</time>
      </trkpt>
      <trkpt lat="48.44927" lon="7.27709">
        <ele>998</ele>
        <time>2026-03-16T10:15:18Z</time>
      </trkpt>
      <trkpt lat="48.44924" lon="7.27717">
        <ele>999.1</ele>
        <time>2026-03-16T10:15:23Z</time>
      </trkpt>
      <trkpt lat="48.44922" lon="7.27727">
        <ele>999.9</ele>
        <time>2026-03-16T10:15:28Z</time>
      </trkpt>
      <trkpt lat="48.44922" lon="7.27734">
        <ele>1000.1</ele>
        <time>2026-03-16T10:15:33Z</time>
      </trkpt>
      <trkpt lat="48.4492" lon="7.27742">
        <ele>1000.8</ele>
        <time>2026-03-16T10:15:38Z</time>
      </trkpt>
      <trkpt lat="48.44919" lon="7.2775">
        <ele>1001.3</ele>
        <time>2026-03-16T10:15:43Z</time>
      </trkpt>
      <trkpt lat="48.44919" lon="7.27758">
        <ele>1001</ele>
        <time>2026-03-16T10:15:48Z</time>
      </trkpt>
      <trkpt lat="48.44917" lon="7.2777">
        <ele>1001.2</ele>
        <time>2026-03-16T10:15:53Z</time>
      </trkpt>
      <trkpt lat="48.44916" lon="7.2778">
        <ele>1001</ele>
        <time>2026-03-16T10:15:58Z</time>
      </trkpt>
      <trkpt lat="48.44914" lon="7.27788">
        <ele>1001</ele>
        <time>2026-03-16T10:16:03Z</time>
      </trkpt>
      <trkpt lat="48.44909" lon="7.27799">
        <ele>1001.4</ele>
        <time>2026-03-16T10:16:08Z</time>
      </trkpt>
      <trkpt lat="48.44905" lon="7.27807">
        <ele>1001.6</ele>
        <time>2026-03-16T10:16:13Z</time>
      </trkpt>
      <trkpt lat="48.44901" lon="7.27814">
        <ele>1001.9</ele>
        <time>2026-03-16T10:16:18Z</time>
      </trkpt>
      <trkpt lat="48.44896" lon="7.27818">
        <ele>1002.4</ele>
        <time>2026-03-16T10:16:23Z</time>
      </trkpt>
      <trkpt lat="48.44891" lon="7.27823">
        <ele>1002.9</ele>
        <time>2026-03-16T10:16:28Z</time>
      </trkpt>
      <trkpt lat="48.44884" lon="7.2783">
        <ele>1003.5</ele>
        <time>2026-03-16T10:16:33Z</time>
      </trkpt>
      <trkpt lat="48.44878" lon="7.27835">
        <ele>1003.9</ele>
        <time>2026-03-16T10:16:38Z</time>
      </trkpt>
      <trkpt lat="48.44873" lon="7.2784">
        <ele>1003.8</ele>
        <time>2026-03-16T10:16:43Z</time>
      </trkpt>
      <trkpt lat="48.44868" lon="7.27843">
        <ele>1004.1</ele>
        <time>2026-03-16T10:16:48Z</time>
      </trkpt>
      <trkpt lat="48.44863" lon="7.27845">
        <ele>1004.4</ele>
        <time>2026-03-16T10:16:53Z</time>
      </trkpt>
      <trkpt lat="48.44858" lon="7.27851">
        <ele>1004.3</ele>
        <time>2026-03-16T10:16:58Z</time>
      </trkpt>
      <trkpt lat="48.44853" lon="7.27855">
        <ele>1004.4</ele>
        <time>2026-03-16T10:17:03Z</time>
      </trkpt>
      <trkpt lat="48.44847" lon="7.27862">
        <ele>1004.3</ele>
        <time>2026-03-16T10:17:08Z</time>
      </trkpt>
      <trkpt lat="48.44841" lon="7.27868">
        <ele>1004.3</ele>
        <time>2026-03-16T10:17:13Z</time>
      </trkpt>
      <trkpt lat="48.44835" lon="7.27873">
        <ele>1004.5</ele>
        <time>2026-03-16T10:17:18Z</time>
      </trkpt>
      <trkpt lat="48.44832" lon="7.27876">
        <ele>1004.1</ele>
        <time>2026-03-16T10:17:23Z</time>
      </trkpt>
      <trkpt lat="48.44829" lon="7.27878">
        <ele>1003.2</ele>
        <time>2026-03-16T10:17:28Z</time>
      </trkpt>
      <trkpt lat="48.44829" lon="7.27878">
        <ele>1003.2</ele>
        <time>2026-03-16T10:17:33Z</time>
      </trkpt>
      <trkpt lat="48.44829" lon="7.27878">
        <ele>1003.2</ele>
        <time>2026-03-16T10:17:38Z</time>
      </trkpt>
      <trkpt lat="48.44829" lon="7.27878">
        <ele>1003.2</ele>
        <time>2026-03-16T10:17:43Z</time>
      </trkpt>
      <trkpt lat="48.44829" lon="7.27878">
        <ele>1003.2</ele>
        <time>2026-03-16T10:17:48Z</time>
      </trkpt>
      <trkpt lat="48.44829" lon="7.27878">
        <ele>1003.2</ele>
        <time>2026-03-16T10:17:53Z</time>
      </trkpt>
      <trkpt lat="48.44829" lon="7.27878">
        <ele>1003.2</ele>
        <time>2026-03-16T10:17:58Z</time>
      </trkpt>
      <trkpt lat="48.4483" lon="7.27883">
        <ele>1002.8</ele>
        <time>2026-03-16T10:18:03Z</time>
      </trkpt>
      <trkpt lat="48.44826" lon="7.27888">
        <ele>1001.3</ele>
        <time>2026-03-16T10:18:08Z</time>
      </trkpt>
      <trkpt lat="48.44824" lon="7.27893">
        <ele>1000.3</ele>
        <time>2026-03-16T10:18:13Z</time>
      </trkpt>
      <trkpt lat="48.44816" lon="7.27903">
        <ele>997.3</ele>
        <time>2026-03-16T10:18:18Z</time>
      </trkpt>
      <trkpt lat="48.44811" lon="7.27911">
        <ele>995.2</ele>
        <time>2026-03-16T10:18:23Z</time>
      </trkpt>
      <trkpt lat="48.44806" lon="7.27915">
        <ele>993.7</ele>
        <time>2026-03-16T10:18:28Z</time>
      </trkpt>
      <trkpt lat="48.44804" lon="7.27917">
        <ele>993</ele>
        <time>2026-03-16T10:18:33Z</time>
      </trkpt>
      <trkpt lat="48.44801" lon="7.27923">
        <ele>991.7</ele>
        <time>2026-03-16T10:18:38Z</time>
      </trkpt>
      <trkpt lat="48.44799" lon="7.27929">
        <ele>990.7</ele>
        <time>2026-03-16T10:18:43Z</time>
      </trkpt>
      <trkpt lat="48.44796" lon="7.27934">
        <ele>989.7</ele>
        <time>2026-03-16T10:18:48Z</time>
      </trkpt>
      <trkpt lat="48.44794" lon="7.27943">
        <ele>988.4</ele>
        <time>2026-03-16T10:18:53Z</time>
      </trkpt>
      <trkpt lat="48.44791" lon="7.2795">
        <ele>987.2</ele>
        <time>2026-03-16T10:18:58Z</time>
      </trkpt>
      <trkpt lat="48.4479" lon="7.27959">
        <ele>986.2</ele>
        <time>2026-03-16T10:19:03Z</time>
      </trkpt>
      <trkpt lat="48.44788" lon="7.27968">
        <ele>985</ele>
        <time>2026-03-16T10:19:08Z</time>
      </trkpt>
      <trkpt lat="48.44786" lon="7.27976">
        <ele>983.9</ele>
        <time>2026-03-16T10:19:13Z</time>
      </trkpt>
      <trkpt lat="48.44784" lon="7.27984">
        <ele>982.9</ele>
        <time>2026-03-16T10:19:18Z</time>
      </trkpt>
      <trkpt lat="48.44782" lon="7.27991">
        <ele>982</ele>
        <time>2026-03-16T10:19:23Z</time>
      </trkpt>
      <trkpt lat="48.44777" lon="7.27999">
        <ele>980.6</ele>
        <time>2026-03-16T10:19:28Z</time>
      </trkpt>
      <trkpt lat="48.44773" lon="7.28007">
        <ele>980</ele>
        <time>2026-03-16T10:19:33Z</time>
      </trkpt>
      <trkpt lat="48.4477" lon="7.28015">
        <ele>979.5</ele>
        <time>2026-03-16T10:19:38Z</time>
      </trkpt>
      <trkpt lat="48.44766" lon="7.28022">
        <ele>978.9</ele>
        <time>2026-03-16T10:19:43Z</time>
      </trkpt>
      <trkpt lat="48.44762" lon="7.28029">
        <ele>978.3</ele>
        <time>2026-03-16T10:19:48Z</time>
      </trkpt>
      <trkpt lat="48.44758" lon="7.28037">
        <ele>977.7</ele>
        <time>2026-03-16T10:19:53Z</time>
      </trkpt>
      <trkpt lat="48.44754" lon="7.28042">
        <ele>977</ele>
        <time>2026-03-16T10:19:58Z</time>
      </trkpt>
      <trkpt lat="48.44751" lon="7.28045">
        <ele>976.6</ele>
        <time>2026-03-16T10:20:03Z</time>
      </trkpt>
      <trkpt lat="48.44747" lon="7.28048">
        <ele>975.9</ele>
        <time>2026-03-16T10:20:08Z</time>
      </trkpt>
      <trkpt lat="48.44743" lon="7.28053">
        <ele>975.3</ele>
        <time>2026-03-16T10:20:13Z</time>
      </trkpt>
      <trkpt lat="48.44739" lon="7.2806">
        <ele>974.6</ele>
        <time>2026-03-16T10:20:18Z</time>
      </trkpt>
      <trkpt lat="48.44738" lon="7.28064">
        <ele>974.4</ele>
        <time>2026-03-16T10:20:23Z</time>
      </trkpt>
      <trkpt lat="48.44738" lon="7.28064">
        <ele>974.4</ele>
        <time>2026-03-16T10:20:28Z</time>
      </trkpt>
      <trkpt lat="48.44738" lon="7.28071">
        <ele>974.4</ele>
        <time>2026-03-16T10:20:33Z</time>
      </trkpt>
      <trkpt lat="48.4474" lon="7.2808">
        <ele>974.7</ele>
        <time>2026-03-16T10:20:38Z</time>
      </trkpt>
      <trkpt lat="48.4474" lon="7.28089">
        <ele>974.9</ele>
        <time>2026-03-16T10:20:43Z</time>
      </trkpt>
      <trkpt lat="48.4474" lon="7.28096">
        <ele>975.2</ele>
        <time>2026-03-16T10:20:48Z</time>
      </trkpt>
      <trkpt lat="48.44742" lon="7.28103">
        <ele>975.7</ele>
        <time>2026-03-16T10:20:53Z</time>
      </trkpt>
      <trkpt lat="48.44741" lon="7.28109">
        <ele>975.9</ele>
        <time>2026-03-16T10:20:58Z</time>
      </trkpt>
      <trkpt lat="48.44738" lon="7.28116">
        <ele>975.8</ele>
        <time>2026-03-16T10:21:03Z</time>
      </trkpt>
      <trkpt lat="48.44736" lon="7.28125">
        <ele>976</ele>
        <time>2026-03-16T10:21:08Z</time>
      </trkpt>
      <trkpt lat="48.44734" lon="7.28133">
        <ele>976.1</ele>
        <time>2026-03-16T10:21:13Z</time>
      </trkpt>
      <trkpt lat="48.44734" lon="7.28142">
        <ele>976.5</ele>
        <time>2026-03-16T10:21:18Z</time>
      </trkpt>
      <trkpt lat="48.44735" lon="7.28151">
        <ele>977</ele>
        <time>2026-03-16T10:21:23Z</time>
      </trkpt>
      <trkpt lat="48.44735" lon="7.28163">
        <ele>977.6</ele>
        <time>2026-03-16T10:21:28Z</time>
      </trkpt>
      <trkpt lat="48.44738" lon="7.28171">
        <ele>978.4</ele>
        <time>2026-03-16T10:21:33Z</time>
      </trkpt>
      <trkpt lat="48.4474" lon="7.28179">
        <ele>979.4</ele>
        <time>2026-03-16T10:21:38Z</time>
      </trkpt>
      <trkpt lat="48.44742" lon="7.28186">
        <ele>980.2</ele>
        <time>2026-03-16T10:21:43Z</time>
      </trkpt>
      <trkpt lat="48.44744" lon="7.28194">
        <ele>981.1</ele>
        <time>2026-03-16T10:21:48Z</time>
      </trkpt>
      <trkpt lat="48.44747" lon="7.28201">
        <ele>982.1</ele>
        <time>2026-03-16T10:21:53Z</time>
      </trkpt>
      <trkpt lat="48.4475" lon="7.28209">
        <ele>983.1</ele>
        <time>2026-03-16T10:21:58Z</time>
      </trkpt>
      <trkpt lat="48.44753" lon="7.28218">
        <ele>984.3</ele>
        <time>2026-03-16T10:22:03Z</time>
      </trkpt>
      <trkpt lat="48.44756" lon="7.28226">
        <ele>985.4</ele>
        <time>2026-03-16T10:22:08Z</time>
      </trkpt>
      <trkpt lat="48.44757" lon="7.28234">
        <ele>986.2</ele>
        <time>2026-03-16T10:22:13Z</time>
      </trkpt>
      <trkpt lat="48.44755" lon="7.28236">
        <ele>986.2</ele>
        <time>2026-03-16T10:22:18Z</time>
      </trkpt>
      <trkpt lat="48.44752" lon="7.28239">
        <ele>986.1</ele>
        <time>2026-03-16T10:22:23Z</time>
      </trkpt>
      <trkpt lat="48.44749" lon="7.28243">
        <ele>986.3</ele>
        <time>2026-03-16T10:22:28Z</time>
      </trkpt>
      <trkpt lat="48.44745" lon="7.28245">
        <ele>986.2</ele>
        <time>2026-03-16T10:22:33Z</time>
      </trkpt>
      <trkpt lat="48.44743" lon="7.2825">
        <ele>986.5</ele>
        <time>2026-03-16T10:22:38Z</time>
      </trkpt>
      <trkpt lat="48.4474" lon="7.28256">
        <ele>987.1</ele>
        <time>2026-03-16T10:22:43Z</time>
      </trkpt>
      <trkpt lat="48.44737" lon="7.28262">
        <ele>987.7</ele>
        <time>2026-03-16T10:22:48Z</time>
      </trkpt>
      <trkpt lat="48.44736" lon="7.28264">
        <ele>988</ele>
        <time>2026-03-16T10:22:53Z</time>
      </trkpt>
      <trkpt lat="48.44736" lon="7.28268">
        <ele>988.5</ele>
        <time>2026-03-16T10:22:58Z</time>
      </trkpt>
      <trkpt lat="48.44737" lon="7.28275">
        <ele>989.6</ele>
        <time>2026-03-16T10:23:03Z</time>
      </trkpt>
      <trkpt lat="48.44738" lon="7.28282">
        <ele>990.6</ele>
        <time>2026-03-16T10:23:08Z</time>
      </trkpt>
      <trkpt lat="48.44739" lon="7.28288">
        <ele>991.6</ele>
        <time>2026-03-16T10:23:13Z</time>
      </trkpt>
      <trkpt lat="48.44737" lon="7.28294">
        <ele>992.2</ele>
        <time>2026-03-16T10:23:18Z</time>
      </trkpt>
      <trkpt lat="48.44736" lon="7.28298">
        <ele>992.7</ele>
        <time>2026-03-16T10:23:23Z</time>
      </trkpt>
      <trkpt lat="48.44732" lon="7.28302">
        <ele>992.9</ele>
        <time>2026-03-16T10:23:28Z</time>
      </trkpt>
      <trkpt lat="48.4473" lon="7.28307">
        <ele>993.4</ele>
        <time>2026-03-16T10:23:33Z</time>
      </trkpt>
      <trkpt lat="48.44726" lon="7.28311">
        <ele>993.6</ele>
        <time>2026-03-16T10:23:38Z</time>
      </trkpt>
      <trkpt lat="48.44723" lon="7.28315">
        <ele>993.9</ele>
        <time>2026-03-16T10:23:43Z</time>
      </trkpt>
      <trkpt lat="48.4472" lon="7.28319">
        <ele>994.2</ele>
        <time>2026-03-16T10:23:48Z</time>
      </trkpt>
      <trkpt lat="48.44717" lon="7.28324">
        <ele>994.6</ele>
        <time>2026-03-16T10:23:53Z</time>
      </trkpt>
      <trkpt lat="48.44714" lon="7.28331">
        <ele>995.2</ele>
        <time>2026-03-16T10:23:58Z</time>
      </trkpt>
      <trkpt lat="48.44712" lon="7.28336">
        <ele>995.7</ele>
        <time>2026-03-16T10:24:03Z</time>
      </trkpt>
      <trkpt lat="48.44708" lon="7.28343">
        <ele>996.4</ele>
        <time>2026-03-16T10:24:08Z</time>
      </trkpt>
      <trkpt lat="48.44704" lon="7.28349">
        <ele>996.8</ele>
        <time>2026-03-16T10:24:13Z</time>
      </trkpt>
      <trkpt lat="48.447" lon="7.28354">
        <ele>997.1</ele>
        <time>2026-03-16T10:24:18Z</time>
      </trkpt>
      <trkpt lat="48.44696" lon="7.28358">
        <ele>997.3</ele>
        <time>2026-03-16T10:24:23Z</time>
      </trkpt>
      <trkpt lat="48.44692" lon="7.28363">
        <ele>997.6</ele>
        <time>2026-03-16T10:24:28Z</time>
      </trkpt>
      <trkpt lat="48.44688" lon="7.2837">
        <ele>998.1</ele>
        <time>2026-03-16T10:24:33Z</time>
      </trkpt>
      <trkpt lat="48.44685" lon="7.28376">
        <ele>998.6</ele>
        <time>2026-03-16T10:24:38Z</time>
      </trkpt>
      <trkpt lat="48.44681" lon="7.2838">
        <ele>998.7</ele>
        <time>2026-03-16T10:24:43Z</time>
      </trkpt>
      <trkpt lat="48.44676" lon="7.28386">
        <ele>999</ele>
        <time>2026-03-16T10:24:48Z</time>
      </trkpt>
      <trkpt lat="48.44672" lon="7.28393">
        <ele>999.5</ele>
        <time>2026-03-16T10:24:53Z</time>
      </trkpt>
      <trkpt lat="48.44667" lon="7.28397">
        <ele>999.4</ele>
        <time>2026-03-16T10:24:58Z</time>
      </trkpt>
      <trkpt lat="48.44663" lon="7.28402">
        <ele>1000</ele>
        <time>2026-03-16T10:25:03Z</time>
      </trkpt>
      <trkpt lat="48.44657" lon="7.28408">
        <ele>1000.8</ele>
        <time>2026-03-16T10:25:08Z</time>
      </trkpt>
      <trkpt lat="48.4465" lon="7.28416">
        <ele>1001.7</ele>
        <time>2026-03-16T10:25:13Z</time>
      </trkpt>
      <trkpt lat="48.44644" lon="7.28421">
        <ele>1002.3</ele>
        <time>2026-03-16T10:25:18Z</time>
      </trkpt>
      <trkpt lat="48.4464" lon="7.28426">
        <ele>1002.9</ele>
        <time>2026-03-16T10:25:23Z</time>
      </trkpt>
      <trkpt lat="48.44635" lon="7.28431">
        <ele>1003.6</ele>
        <time>2026-03-16T10:25:28Z</time>
      </trkpt>
      <trkpt lat="48.44632" lon="7.28438">
        <ele>1004.5</ele>
        <time>2026-03-16T10:25:33Z</time>
      </trkpt>
      <trkpt lat="48.44629" lon="7.28441">
        <ele>1004.9</ele>
        <time>2026-03-16T10:25:38Z</time>
      </trkpt>
      <trkpt lat="48.44626" lon="7.28446">
        <ele>1005.6</ele>
        <time>2026-03-16T10:25:43Z</time>
      </trkpt>
      <trkpt lat="48.44623" lon="7.28454">
        <ele>1006.6</ele>
        <time>2026-03-16T10:25:48Z</time>
      </trkpt>
      <trkpt lat="48.4462" lon="7.28461">
        <ele>1007.6</ele>
        <time>2026-03-16T10:25:53Z</time>
      </trkpt>
      <trkpt lat="48.44619" lon="7.28467">
        <ele>1008.4</ele>
        <time>2026-03-16T10:25:58Z</time>
      </trkpt>
      <trkpt lat="48.44617" lon="7.28473">
        <ele>1009.2</ele>
        <time>2026-03-16T10:26:03Z</time>
      </trkpt>
      <trkpt lat="48.44614" lon="7.2848">
        <ele>1010.2</ele>
        <time>2026-03-16T10:26:08Z</time>
      </trkpt>
      <trkpt lat="48.44612" lon="7.28487">
        <ele>1011.2</ele>
        <time>2026-03-16T10:26:13Z</time>
      </trkpt>
      <trkpt lat="48.44608" lon="7.28492">
        <ele>1011.9</ele>
        <time>2026-03-16T10:26:18Z</time>
      </trkpt>
      <trkpt lat="48.44603" lon="7.28499">
        <ele>1012.9</ele>
        <time>2026-03-16T10:26:23Z</time>
      </trkpt>
      <trkpt lat="48.44597" lon="7.28504">
        <ele>1013.5</ele>
        <time>2026-03-16T10:26:28Z</time>
      </trkpt>
      <trkpt lat="48.44592" lon="7.28509">
        <ele>1014.2</ele>
        <time>2026-03-16T10:26:33Z</time>
      </trkpt>
      <trkpt lat="48.44587" lon="7.28511">
        <ele>1014.4</ele>
        <time>2026-03-16T10:26:38Z</time>
      </trkpt>
      <trkpt lat="48.44583" lon="7.28516">
        <ele>1015.1</ele>
        <time>2026-03-16T10:26:43Z</time>
      </trkpt>
      <trkpt lat="48.4458" lon="7.28521">
        <ele>1016</ele>
        <time>2026-03-16T10:26:48Z</time>
      </trkpt>
      <trkpt lat="48.44579" lon="7.28528">
        <ele>1016.9</ele>
        <time>2026-03-16T10:26:53Z</time>
      </trkpt>
      <trkpt lat="48.44578" lon="7.28535">
        <ele>1017.9</ele>
        <time>2026-03-16T10:26:58Z</time>
      </trkpt>
      <trkpt lat="48.44576" lon="7.2854">
        <ele>1018.6</ele>
        <time>2026-03-16T10:27:03Z</time>
      </trkpt>
      <trkpt lat="48.44572" lon="7.28544">
        <ele>1019.3</ele>
        <time>2026-03-16T10:27:08Z</time>
      </trkpt>
      <trkpt lat="48.44566" lon="7.28544">
        <ele>1019.6</ele>
        <time>2026-03-16T10:27:13Z</time>
      </trkpt>
      <trkpt lat="48.44559" lon="7.28545">
        <ele>1020.1</ele>
        <time>2026-03-16T10:27:18Z</time>
      </trkpt>
      <trkpt lat="48.44554" lon="7.28547">
        <ele>1020.6</ele>
        <time>2026-03-16T10:27:23Z</time>
      </trkpt>
      <trkpt lat="48.44549" lon="7.28551">
        <ele>1021.3</ele>
        <time>2026-03-16T10:27:28Z</time>
      </trkpt>
      <trkpt lat="48.44547" lon="7.28552">
        <ele>1021.5</ele>
        <time>2026-03-16T10:27:33Z</time>
      </trkpt>
      <trkpt lat="48.44545" lon="7.28556">
        <ele>1022.1</ele>
        <time>2026-03-16T10:27:38Z</time>
      </trkpt>
      <trkpt lat="48.44542" lon="7.2856">
        <ele>1022.7</ele>
        <time>2026-03-16T10:27:43Z</time>
      </trkpt>
      <trkpt lat="48.4454" lon="7.28566">
        <ele>1023.5</ele>
        <time>2026-03-16T10:27:48Z</time>
      </trkpt>
      <trkpt lat="48.44538" lon="7.28572">
        <ele>1024.3</ele>
        <time>2026-03-16T10:27:53Z</time>
      </trkpt>
      <trkpt lat="48.44536" lon="7.28578">
        <ele>1025.1</ele>
        <time>2026-03-16T10:27:58Z</time>
      </trkpt>
      <trkpt lat="48.44534" lon="7.28583">
        <ele>1025.7</ele>
        <time>2026-03-16T10:28:03Z</time>
      </trkpt>
      <trkpt lat="48.44531" lon="7.28589">
        <ele>1026.2</ele>
        <time>2026-03-16T10:28:08Z</time>
      </trkpt>
      <trkpt lat="48.44527" lon="7.28595">
        <ele>1026.8</ele>
        <time>2026-03-16T10:28:13Z</time>
      </trkpt>
      <trkpt lat="48.44522" lon="7.28597">
        <ele>1027.1</ele>
        <time>2026-03-16T10:28:18Z</time>
      </trkpt>
      <trkpt lat="48.44516" lon="7.28597">
        <ele>1027.3</ele>
        <time>2026-03-16T10:28:23Z</time>
      </trkpt>
      <trkpt lat="48.44511" lon="7.28598">
        <ele>1027.5</ele>
        <time>2026-03-16T10:28:28Z</time>
      </trkpt>
      <trkpt lat="48.44506" lon="7.28599">
        <ele>1027.7</ele>
        <time>2026-03-16T10:28:33Z</time>
      </trkpt>
      <trkpt lat="48.44502" lon="7.28601">
        <ele>1028</ele>
        <time>2026-03-16T10:28:38Z</time>
      </trkpt>
      <trkpt lat="48.44496" lon="7.286">
        <ele>1027.6</ele>
        <time>2026-03-16T10:28:43Z</time>
      </trkpt>
      <trkpt lat="48.44491" lon="7.28599">
        <ele>1027.1</ele>
        <time>2026-03-16T10:28:48Z</time>
      </trkpt>
      <trkpt lat="48.44487" lon="7.28598">
        <ele>1026.7</ele>
        <time>2026-03-16T10:28:53Z</time>
      </trkpt>
      <trkpt lat="48.44482" lon="7.28598">
        <ele>1026.3</ele>
        <time>2026-03-16T10:28:58Z</time>
      </trkpt>
      <trkpt lat="48.44477" lon="7.28596">
        <ele>1025.7</ele>
        <time>2026-03-16T10:29:03Z</time>
      </trkpt>
      <trkpt lat="48.4447" lon="7.28595">
        <ele>1025</ele>
        <time>2026-03-16T10:29:08Z</time>
      </trkpt>
      <trkpt lat="48.44464" lon="7.28591">
        <ele>1024.1</ele>
        <time>2026-03-16T10:29:13Z</time>
      </trkpt>
      <trkpt lat="48.44459" lon="7.2859">
        <ele>1023.6</ele>
        <time>2026-03-16T10:29:18Z</time>
      </trkpt>
      <trkpt lat="48.44453" lon="7.28589">
        <ele>1022.9</ele>
        <time>2026-03-16T10:29:23Z</time>
      </trkpt>
      <trkpt lat="48.44447" lon="7.28588">
        <ele>1022.3</ele>
        <time>2026-03-16T10:29:28Z</time>
      </trkpt>
      <trkpt lat="48.44441" lon="7.28587">
        <ele>1021.6</ele>
        <time>2026-03-16T10:29:33Z</time>
      </trkpt>
      <trkpt lat="48.44434" lon="7.28584">
        <ele>1020.7</ele>
        <time>2026-03-16T10:29:38Z</time>
      </trkpt>
      <trkpt lat="48.44429" lon="7.28582">
        <ele>1020.1</ele>
        <time>2026-03-16T10:29:43Z</time>
      </trkpt>
      <trkpt lat="48.44422" lon="7.28581">
        <ele>1019.3</ele>
        <time>2026-03-16T10:29:48Z</time>
      </trkpt>
      <trkpt lat="48.44416" lon="7.28578">
        <ele>1018.4</ele>
        <time>2026-03-16T10:29:53Z</time>
      </trkpt>
      <trkpt lat="48.44414" lon="7.28578">
        <ele>1018</ele>
        <time>2026-03-16T10:29:58Z</time>
      </trkpt>
      <trkpt lat="48.44413" lon="7.28579">
        <ele>1017.9</ele>
        <time>2026-03-16T10:30:03Z</time>
      </trkpt>
      <trkpt lat="48.44408" lon="7.28579">
        <ele>1016.9</ele>
        <time>2026-03-16T10:30:08Z</time>
      </trkpt>
      <trkpt lat="48.44402" lon="7.28576">
        <ele>1015.5</ele>
        <time>2026-03-16T10:30:13Z</time>
      </trkpt>
      <trkpt lat="48.44392" lon="7.28561">
        <ele>1012</ele>
        <time>2026-03-16T10:30:18Z</time>
      </trkpt>
      <trkpt lat="48.44388" lon="7.28558">
        <ele>1011</ele>
        <time>2026-03-16T10:30:23Z</time>
      </trkpt>
      <trkpt lat="48.44382" lon="7.28557">
        <ele>1009.7</ele>
        <time>2026-03-16T10:30:28Z</time>
      </trkpt>
      <trkpt lat="48.44375" lon="7.28566">
        <ele>1009.2</ele>
        <time>2026-03-16T10:30:33Z</time>
      </trkpt>
      <trkpt lat="48.44369" lon="7.28572">
        <ele>1008.7</ele>
        <time>2026-03-16T10:30:38Z</time>
      </trkpt>
      <trkpt lat="48.44365" lon="7.28575">
        <ele>1008.2</ele>
        <time>2026-03-16T10:30:43Z</time>
      </trkpt>
      <trkpt lat="48.44361" lon="7.2858">
        <ele>1008</ele>
        <time>2026-03-16T10:30:48Z</time>
      </trkpt>
      <trkpt lat="48.44357" lon="7.28584">
        <ele>1007.6</ele>
        <time>2026-03-16T10:30:53Z</time>
      </trkpt>
      <trkpt lat="48.44352" lon="7.28588">
        <ele>1007</ele>
        <time>2026-03-16T10:30:58Z</time>
      </trkpt>
      <trkpt lat="48.44346" lon="7.28591">
        <ele>1006.2</ele>
        <time>2026-03-16T10:31:03Z</time>
      </trkpt>
      <trkpt lat="48.44341" lon="7.28592">
        <ele>1005.3</ele>
        <time>2026-03-16T10:31:08Z</time>
      </trkpt>
      <trkpt lat="48.44336" lon="7.28593">
        <ele>1004.4</ele>
        <time>2026-03-16T10:31:13Z</time>
      </trkpt>
      <trkpt lat="48.44334" lon="7.28599">
        <ele>1004.6</ele>
        <time>2026-03-16T10:31:18Z</time>
      </trkpt>
      <trkpt lat="48.44329" lon="7.28605">
        <ele>1003.8</ele>
        <time>2026-03-16T10:31:23Z</time>
      </trkpt>
      <trkpt lat="48.44323" lon="7.28611">
        <ele>1002.7</ele>
        <time>2026-03-16T10:31:28Z</time>
      </trkpt>
      <trkpt lat="48.44316" lon="7.28617">
        <ele>1001.3</ele>
        <time>2026-03-16T10:31:33Z</time>
      </trkpt>
      <trkpt lat="48.44312" lon="7.28622">
        <ele>1000.7</ele>
        <time>2026-03-16T10:31:38Z</time>
      </trkpt>
      <trkpt lat="48.44306" lon="7.28629">
        <ele>999.7</ele>
        <time>2026-03-16T10:31:43Z</time>
      </trkpt>
      <trkpt lat="48.443" lon="7.28638">
        <ele>999</ele>
        <time>2026-03-16T10:31:48Z</time>
      </trkpt>
      <trkpt lat="48.44295" lon="7.28645">
        <ele>998.4</ele>
        <time>2026-03-16T10:31:53Z</time>
      </trkpt>
      <trkpt lat="48.4429" lon="7.28652">
        <ele>997.9</ele>
        <time>2026-03-16T10:31:58Z</time>
      </trkpt>
      <trkpt lat="48.44285" lon="7.28659">
        <ele>997.3</ele>
        <time>2026-03-16T10:32:03Z</time>
      </trkpt>
      <trkpt lat="48.4428" lon="7.28666">
        <ele>996.8</ele>
        <time>2026-03-16T10:32:08Z</time>
      </trkpt>
      <trkpt lat="48.44278" lon="7.28675">
        <ele>997.4</ele>
        <time>2026-03-16T10:32:13Z</time>
      </trkpt>
      <trkpt lat="48.44274" lon="7.28682">
        <ele>997.2</ele>
        <time>2026-03-16T10:32:18Z</time>
      </trkpt>
      <trkpt lat="48.44271" lon="7.28689">
        <ele>997.3</ele>
        <time>2026-03-16T10:32:23Z</time>
      </trkpt>
      <trkpt lat="48.44267" lon="7.28695">
        <ele>997</ele>
        <time>2026-03-16T10:32:28Z</time>
      </trkpt>
      <trkpt lat="48.44263" lon="7.28701">
        <ele>996.8</ele>
        <time>2026-03-16T10:32:33Z</time>
      </trkpt>
      <trkpt lat="48.44253" lon="7.28708">
        <ele>995.2</ele>
        <time>2026-03-16T10:32:38Z</time>
      </trkpt>
      <trkpt lat="48.44246" lon="7.28713">
        <ele>994.3</ele>
        <time>2026-03-16T10:32:43Z</time>
      </trkpt>
      <trkpt lat="48.44242" lon="7.28721">
        <ele>994.5</ele>
        <time>2026-03-16T10:32:48Z</time>
      </trkpt>
      <trkpt lat="48.44238" lon="7.28728">
        <ele>994.6</ele>
        <time>2026-03-16T10:32:53Z</time>
      </trkpt>
      <trkpt lat="48.4423" lon="7.28733">
        <ele>993.7</ele>
        <time>2026-03-16T10:32:58Z</time>
      </trkpt>
      <trkpt lat="48.44225" lon="7.28737">
        <ele>993.3</ele>
        <time>2026-03-16T10:33:03Z</time>
      </trkpt>
      <trkpt lat="48.44219" lon="7.28747">
        <ele>993.6</ele>
        <time>2026-03-16T10:33:08Z</time>
      </trkpt>
      <trkpt lat="48.44214" lon="7.28753">
        <ele>993.5</ele>
        <time>2026-03-16T10:33:13Z</time>
      </trkpt>
      <trkpt lat="48.4421" lon="7.28759">
        <ele>993.6</ele>
        <time>2026-03-16T10:33:18Z</time>
      </trkpt>
      <trkpt lat="48.44205" lon="7.28766">
        <ele>993.7</ele>
        <time>2026-03-16T10:33:23Z</time>
      </trkpt>
      <trkpt lat="48.44201" lon="7.28769">
        <ele>993.4</ele>
        <time>2026-03-16T10:33:28Z</time>
      </trkpt>
      <trkpt lat="48.442" lon="7.28769">
        <ele>993.2</ele>
        <time>2026-03-16T10:33:33Z</time>
      </trkpt>
      <trkpt lat="48.442" lon="7.2877">
        <ele>993.4</ele>
        <time>2026-03-16T10:33:38Z</time>
      </trkpt>
      <trkpt lat="48.44197" lon="7.28779">
        <ele>994.2</ele>
        <time>2026-03-16T10:33:43Z</time>
      </trkpt>
      <trkpt lat="48.44193" lon="7.28786">
        <ele>994.6</ele>
        <time>2026-03-16T10:33:48Z</time>
      </trkpt>
      <trkpt lat="48.44188" lon="7.28793">
        <ele>994.8</ele>
        <time>2026-03-16T10:33:53Z</time>
      </trkpt>
      <trkpt lat="48.44182" lon="7.288">
        <ele>994.9</ele>
        <time>2026-03-16T10:33:58Z</time>
      </trkpt>
      <trkpt lat="48.44176" lon="7.28806">
        <ele>994.9</ele>
        <time>2026-03-16T10:34:03Z</time>
      </trkpt>
      <trkpt lat="48.44172" lon="7.28812">
        <ele>995.2</ele>
        <time>2026-03-16T10:34:08Z</time>
      </trkpt>
      <trkpt lat="48.44166" lon="7.28819">
        <ele>995.5</ele>
        <time>2026-03-16T10:34:13Z</time>
      </trkpt>
      <trkpt lat="48.44161" lon="7.28823">
        <ele>995.5</ele>
        <time>2026-03-16T10:34:18Z</time>
      </trkpt>
      <trkpt lat="48.44156" lon="7.28827">
        <ele>995.5</ele>
        <time>2026-03-16T10:34:23Z</time>
      </trkpt>
      <trkpt lat="48.44151" lon="7.28832">
        <ele>995.7</ele>
        <time>2026-03-16T10:34:28Z</time>
      </trkpt>
      <trkpt lat="48.44147" lon="7.28839">
        <ele>996.1</ele>
        <time>2026-03-16T10:34:33Z</time>
      </trkpt>
      <trkpt lat="48.44141" lon="7.28843">
        <ele>995.8</ele>
        <time>2026-03-16T10:34:38Z</time>
      </trkpt>
      <trkpt lat="48.44134" lon="7.28848">
        <ele>995.5</ele>
        <time>2026-03-16T10:34:43Z</time>
      </trkpt>
      <trkpt lat="48.44128" lon="7.28852">
        <ele>995.2</ele>
        <time>2026-03-16T10:34:48Z</time>
      </trkpt>
      <trkpt lat="48.44121" lon="7.28857">
        <ele>995</ele>
        <time>2026-03-16T10:34:53Z</time>
      </trkpt>
      <trkpt lat="48.44113" lon="7.28862">
        <ele>994.6</ele>
        <time>2026-03-16T10:34:58Z</time>
      </trkpt>
      <trkpt lat="48.44106" lon="7.28867">
        <ele>994.3</ele>
        <time>2026-03-16T10:35:03Z</time>
      </trkpt>
      <trkpt lat="48.44099" lon="7.28872">
        <ele>994.1</ele>
        <time>2026-03-16T10:35:08Z</time>
      </trkpt>
      <trkpt lat="48.44092" lon="7.28876">
        <ele>993.7</ele>
        <time>2026-03-16T10:35:13Z</time>
      </trkpt>
      <trkpt lat="48.44087" lon="7.2888">
        <ele>993.6</ele>
        <time>2026-03-16T10:35:18Z</time>
      </trkpt>
      <trkpt lat="48.44081" lon="7.28885">
        <ele>993.7</ele>
        <time>2026-03-16T10:35:23Z</time>
      </trkpt>
      <trkpt lat="48.44074" lon="7.28889">
        <ele>993.8</ele>
        <time>2026-03-16T10:35:28Z</time>
      </trkpt>
      <trkpt lat="48.44063" lon="7.28897">
        <ele>994.3</ele>
        <time>2026-03-16T10:35:33Z</time>
      </trkpt>
      <trkpt lat="48.44054" lon="7.28904">
        <ele>994.8</ele>
        <time>2026-03-16T10:35:38Z</time>
      </trkpt>
      <trkpt lat="48.44048" lon="7.2891">
        <ele>995.3</ele>
        <time>2026-03-16T10:35:43Z</time>
      </trkpt>
      <trkpt lat="48.44041" lon="7.28913">
        <ele>995.4</ele>
        <time>2026-03-16T10:35:48Z</time>
      </trkpt>
      <trkpt lat="48.44035" lon="7.28918">
        <ele>995.8</ele>
        <time>2026-03-16T10:35:53Z</time>
      </trkpt>
      <trkpt lat="48.44029" lon="7.28922">
        <ele>996.1</ele>
        <time>2026-03-16T10:35:58Z</time>
      </trkpt>
      <trkpt lat="48.44023" lon="7.28926">
        <ele>996.3</ele>
        <time>2026-03-16T10:36:03Z</time>
      </trkpt>
      <trkpt lat="48.44015" lon="7.28932">
        <ele>996.6</ele>
        <time>2026-03-16T10:36:08Z</time>
      </trkpt>
      <trkpt lat="48.44009" lon="7.28936">
        <ele>996.8</ele>
        <time>2026-03-16T10:36:13Z</time>
      </trkpt>
      <trkpt lat="48.44" lon="7.2894">
        <ele>996.8</ele>
        <time>2026-03-16T10:36:18Z</time>
      </trkpt>
      <trkpt lat="48.43994" lon="7.28945">
        <ele>997.1</ele>
        <time>2026-03-16T10:36:23Z</time>
      </trkpt>
      <trkpt lat="48.43988" lon="7.28949">
        <ele>997.2</ele>
        <time>2026-03-16T10:36:28Z</time>
      </trkpt>
      <trkpt lat="48.43982" lon="7.28955">
        <ele>997.6</ele>
        <time>2026-03-16T10:36:33Z</time>
      </trkpt>
      <trkpt lat="48.43977" lon="7.28959">
        <ele>997.8</ele>
        <time>2026-03-16T10:36:38Z</time>
      </trkpt>
      <trkpt lat="48.43969" lon="7.28962">
        <ele>997.7</ele>
        <time>2026-03-16T10:36:43Z</time>
      </trkpt>
      <trkpt lat="48.43962" lon="7.28967">
        <ele>997.9</ele>
        <time>2026-03-16T10:36:48Z</time>
      </trkpt>
      <trkpt lat="48.43955" lon="7.28972">
        <ele>998.1</ele>
        <time>2026-03-16T10:36:53Z</time>
      </trkpt>
      <trkpt lat="48.43949" lon="7.28974">
        <ele>998</ele>
        <time>2026-03-16T10:36:58Z</time>
      </trkpt>
      <trkpt lat="48.43943" lon="7.28976">
        <ele>997.9</ele>
        <time>2026-03-16T10:37:03Z</time>
      </trkpt>
      <trkpt lat="48.43936" lon="7.28979">
        <ele>997.8</ele>
        <time>2026-03-16T10:37:08Z</time>
      </trkpt>
      <trkpt lat="48.43928" lon="7.28982">
        <ele>997.7</ele>
        <time>2026-03-16T10:37:13Z</time>
      </trkpt>
      <trkpt lat="48.43922" lon="7.28986">
        <ele>997.8</ele>
        <time>2026-03-16T10:37:18Z</time>
      </trkpt>
      <trkpt lat="48.43916" lon="7.28989">
        <ele>997.7</ele>
        <time>2026-03-16T10:37:23Z</time>
      </trkpt>
      <trkpt lat="48.4391" lon="7.28994">
        <ele>997.5</ele>
        <time>2026-03-16T10:37:28Z</time>
      </trkpt>
      <trkpt lat="48.43903" lon="7.29">
        <ele>997.2</ele>
        <time>2026-03-16T10:37:33Z</time>
      </trkpt>
      <trkpt lat="48.43895" lon="7.29006">
        <ele>996.5</ele>
        <time>2026-03-16T10:37:38Z</time>
      </trkpt>
      <trkpt lat="48.43888" lon="7.29013">
        <ele>996</ele>
        <time>2026-03-16T10:37:43Z</time>
      </trkpt>
      <trkpt lat="48.43882" lon="7.29016">
        <ele>995.3</ele>
        <time>2026-03-16T10:37:48Z</time>
      </trkpt>
      <trkpt lat="48.43875" lon="7.29026">
        <ele>994.9</ele>
        <time>2026-03-16T10:37:53Z</time>
      </trkpt>
      <trkpt lat="48.43868" lon="7.29035">
        <ele>994.4</ele>
        <time>2026-03-16T10:37:58Z</time>
      </trkpt>
      <trkpt lat="48.43862" lon="7.29041">
        <ele>993.8</ele>
        <time>2026-03-16T10:38:03Z</time>
      </trkpt>
      <trkpt lat="48.43858" lon="7.29048">
        <ele>993.5</ele>
        <time>2026-03-16T10:38:08Z</time>
      </trkpt>
      <trkpt lat="48.43852" lon="7.29055">
        <ele>992.9</ele>
        <time>2026-03-16T10:38:13Z</time>
      </trkpt>
      <trkpt lat="48.43848" lon="7.29063">
        <ele>992.6</ele>
        <time>2026-03-16T10:38:18Z</time>
      </trkpt>
      <trkpt lat="48.43842" lon="7.2907">
        <ele>991.9</ele>
        <time>2026-03-16T10:38:23Z</time>
      </trkpt>
      <trkpt lat="48.43836" lon="7.29078">
        <ele>991.2</ele>
        <time>2026-03-16T10:38:28Z</time>
      </trkpt>
      <trkpt lat="48.43831" lon="7.29085">
        <ele>990.8</ele>
        <time>2026-03-16T10:38:33Z</time>
      </trkpt>
      <trkpt lat="48.43824" lon="7.29092">
        <ele>990.2</ele>
        <time>2026-03-16T10:38:38Z</time>
      </trkpt>
      <trkpt lat="48.43819" lon="7.29098">
        <ele>989.9</ele>
        <time>2026-03-16T10:38:43Z</time>
      </trkpt>
      <trkpt lat="48.43814" lon="7.29105">
        <ele>989.6</ele>
        <time>2026-03-16T10:38:48Z</time>
      </trkpt>
      <trkpt lat="48.4381" lon="7.29114">
        <ele>989.6</ele>
        <time>2026-03-16T10:38:53Z</time>
      </trkpt>
      <trkpt lat="48.43806" lon="7.29123">
        <ele>989.6</ele>
        <time>2026-03-16T10:38:58Z</time>
      </trkpt>
      <trkpt lat="48.43801" lon="7.29132">
        <ele>989.5</ele>
        <time>2026-03-16T10:39:03Z</time>
      </trkpt>
      <trkpt lat="48.43796" lon="7.29141">
        <ele>989.5</ele>
        <time>2026-03-16T10:39:08Z</time>
      </trkpt>
      <trkpt lat="48.43791" lon="7.2915">
        <ele>989.4</ele>
        <time>2026-03-16T10:39:13Z</time>
      </trkpt>
      <trkpt lat="48.43786" lon="7.29158">
        <ele>989.4</ele>
        <time>2026-03-16T10:39:18Z</time>
      </trkpt>
      <trkpt lat="48.43781" lon="7.29168">
        <ele>989.4</ele>
        <time>2026-03-16T10:39:23Z</time>
      </trkpt>
      <trkpt lat="48.43777" lon="7.29176">
        <ele>989.2</ele>
        <time>2026-03-16T10:39:28Z</time>
      </trkpt>
      <trkpt lat="48.43772" lon="7.29183">
        <ele>988.9</ele>
        <time>2026-03-16T10:39:33Z</time>
      </trkpt>
      <trkpt lat="48.43768" lon="7.29194">
        <ele>988.8</ele>
        <time>2026-03-16T10:39:38Z</time>
      </trkpt>
      <trkpt lat="48.43764" lon="7.29203">
        <ele>988.6</ele>
        <time>2026-03-16T10:39:43Z</time>
      </trkpt>
      <trkpt lat="48.43761" lon="7.29214">
        <ele>988.5</ele>
        <time>2026-03-16T10:39:48Z</time>
      </trkpt>
      <trkpt lat="48.43757" lon="7.29223">
        <ele>988.3</ele>
        <time>2026-03-16T10:39:53Z</time>
      </trkpt>
      <trkpt lat="48.43754" lon="7.29233">
        <ele>988.1</ele>
        <time>2026-03-16T10:39:58Z</time>
      </trkpt>
      <trkpt lat="48.4375" lon="7.29242">
        <ele>987.8</ele>
        <time>2026-03-16T10:40:03Z</time>
      </trkpt>
      <trkpt lat="48.43747" lon="7.29251">
        <ele>987.7</ele>
        <time>2026-03-16T10:40:08Z</time>
      </trkpt>
      <trkpt lat="48.43745" lon="7.29258">
        <ele>988</ele>
        <time>2026-03-16T10:40:13Z</time>
      </trkpt>
      <trkpt lat="48.43743" lon="7.29269">
        <ele>988.4</ele>
        <time>2026-03-16T10:40:18Z</time>
      </trkpt>
      <trkpt lat="48.4374" lon="7.2928">
        <ele>988.8</ele>
        <time>2026-03-16T10:40:23Z</time>
      </trkpt>
      <trkpt lat="48.43735" lon="7.2929">
        <ele>989</ele>
        <time>2026-03-16T10:40:28Z</time>
      </trkpt>
      <trkpt lat="48.43733" lon="7.29301">
        <ele>989.5</ele>
        <time>2026-03-16T10:40:33Z</time>
      </trkpt>
      <trkpt lat="48.43728" lon="7.2931">
        <ele>989.6</ele>
        <time>2026-03-16T10:40:38Z</time>
      </trkpt>
      <trkpt lat="48.43726" lon="7.2932">
        <ele>990.1</ele>
        <time>2026-03-16T10:40:43Z</time>
      </trkpt>
      <trkpt lat="48.43722" lon="7.2933">
        <ele>990.4</ele>
        <time>2026-03-16T10:40:48Z</time>
      </trkpt>
      <trkpt lat="48.4372" lon="7.2934">
        <ele>991</ele>
        <time>2026-03-16T10:40:53Z</time>
      </trkpt>
      <trkpt lat="48.43717" lon="7.2935">
        <ele>991.5</ele>
        <time>2026-03-16T10:40:58Z</time>
      </trkpt>
      <trkpt lat="48.43713" lon="7.29359">
        <ele>991.8</ele>
        <time>2026-03-16T10:41:03Z</time>
      </trkpt>
      <trkpt lat="48.43712" lon="7.29372">
        <ele>992.8</ele>
        <time>2026-03-16T10:41:08Z</time>
      </trkpt>
      <trkpt lat="48.43709" lon="7.29385">
        <ele>993.6</ele>
        <time>2026-03-16T10:41:13Z</time>
      </trkpt>
      <trkpt lat="48.43708" lon="7.29395">
        <ele>994.3</ele>
        <time>2026-03-16T10:41:18Z</time>
      </trkpt>
      <trkpt lat="48.43706" lon="7.29404">
        <ele>994.9</ele>
        <time>2026-03-16T10:41:23Z</time>
      </trkpt>
      <trkpt lat="48.43703" lon="7.29416">
        <ele>995.7</ele>
        <time>2026-03-16T10:41:28Z</time>
      </trkpt>
      <trkpt lat="48.43702" lon="7.29426">
        <ele>996.2</ele>
        <time>2026-03-16T10:41:33Z</time>
      </trkpt>
      <trkpt lat="48.43699" lon="7.29437">
        <ele>996.6</ele>
        <time>2026-03-16T10:41:38Z</time>
      </trkpt>
      <trkpt lat="48.43695" lon="7.29447">
        <ele>997</ele>
        <time>2026-03-16T10:41:43Z</time>
      </trkpt>
      <trkpt lat="48.43693" lon="7.29455">
        <ele>997.4</ele>
        <time>2026-03-16T10:41:48Z</time>
      </trkpt>
      <trkpt lat="48.4369" lon="7.29464">
        <ele>997.9</ele>
        <time>2026-03-16T10:41:53Z</time>
      </trkpt>
      <trkpt lat="48.43685" lon="7.29473">
        <ele>998.3</ele>
        <time>2026-03-16T10:41:58Z</time>
      </trkpt>
      <trkpt lat="48.43679" lon="7.29481">
        <ele>998.8</ele>
        <time>2026-03-16T10:42:03Z</time>
      </trkpt>
      <trkpt lat="48.43674" lon="7.29488">
        <ele>999.2</ele>
        <time>2026-03-16T10:42:08Z</time>
      </trkpt>
      <trkpt lat="48.43669" lon="7.29494">
        <ele>999.6</ele>
        <time>2026-03-16T10:42:13Z</time>
      </trkpt>
      <trkpt lat="48.43663" lon="7.29501">
        <ele>999.9</ele>
        <time>2026-03-16T10:42:18Z</time>
      </trkpt>
      <trkpt lat="48.43658" lon="7.29507">
        <ele>999.7</ele>
        <time>2026-03-16T10:42:23Z</time>
      </trkpt>
      <trkpt lat="48.43653" lon="7.29511">
        <ele>999.6</ele>
        <time>2026-03-16T10:42:28Z</time>
      </trkpt>
      <trkpt lat="48.43649" lon="7.29513">
        <ele>999.6</ele>
        <time>2026-03-16T10:42:33Z</time>
      </trkpt>
      <trkpt lat="48.43644" lon="7.29519">
        <ele>999.6</ele>
        <time>2026-03-16T10:42:38Z</time>
      </trkpt>
      <trkpt lat="48.43639" lon="7.29525">
        <ele>999.6</ele>
        <time>2026-03-16T10:42:43Z</time>
      </trkpt>
      <trkpt lat="48.43633" lon="7.29528">
        <ele>999.6</ele>
        <time>2026-03-16T10:42:48Z</time>
      </trkpt>
      <trkpt lat="48.43627" lon="7.29529">
        <ele>999.6</ele>
        <time>2026-03-16T10:42:53Z</time>
      </trkpt>
      <trkpt lat="48.43622" lon="7.29531">
        <ele>999.6</ele>
        <time>2026-03-16T10:42:58Z</time>
      </trkpt>
      <trkpt lat="48.43617" lon="7.29532">
        <ele>999.6</ele>
        <time>2026-03-16T10:43:03Z</time>
      </trkpt>
      <trkpt lat="48.43611" lon="7.29533">
        <ele>999.6</ele>
        <time>2026-03-16T10:43:08Z</time>
      </trkpt>
      <trkpt lat="48.43606" lon="7.29532">
        <ele>999.5</ele>
        <time>2026-03-16T10:43:13Z</time>
      </trkpt>
      <trkpt lat="48.43602" lon="7.29535">
        <ele>999.6</ele>
        <time>2026-03-16T10:43:18Z</time>
      </trkpt>
      <trkpt lat="48.43597" lon="7.29538">
        <ele>999.8</ele>
        <time>2026-03-16T10:43:23Z</time>
      </trkpt>
      <trkpt lat="48.43592" lon="7.29536">
        <ele>999.6</ele>
        <time>2026-03-16T10:43:28Z</time>
      </trkpt>
      <trkpt lat="48.43586" lon="7.29537">
        <ele>999.7</ele>
        <time>2026-03-16T10:43:33Z</time>
      </trkpt>
      <trkpt lat="48.4358" lon="7.29539">
        <ele>999.8</ele>
        <time>2026-03-16T10:43:38Z</time>
      </trkpt>
      <trkpt lat="48.43574" lon="7.29541">
        <ele>999.8</ele>
        <time>2026-03-16T10:43:43Z</time>
      </trkpt>
      <trkpt lat="48.4357" lon="7.29545">
        <ele>1000.1</ele>
        <time>2026-03-16T10:43:48Z</time>
      </trkpt>
      <trkpt lat="48.43568" lon="7.29548">
        <ele>1000.4</ele>
        <time>2026-03-16T10:43:53Z</time>
      </trkpt>
      <trkpt lat="48.43565" lon="7.2955">
        <ele>1000.5</ele>
        <time>2026-03-16T10:43:58Z</time>
      </trkpt>
      <trkpt lat="48.43564" lon="7.2955">
        <ele>1000.5</ele>
        <time>2026-03-16T10:44:03Z</time>
      </trkpt>
      <trkpt lat="48.43563" lon="7.2955">
        <ele>1000.5</ele>
        <time>2026-03-16T10:44:08Z</time>
      </trkpt>
      <trkpt lat="48.43563" lon="7.2955">
        <ele>1000.5</ele>
        <time>2026-03-16T10:44:13Z</time>
      </trkpt>
      <trkpt lat="48.43563" lon="7.2955">
        <ele>1000.5</ele>
        <time>2026-03-16T10:44:18Z</time>
      </trkpt>
      <trkpt lat="48.43563" lon="7.2955">
        <ele>1000.5</ele>
        <time>2026-03-16T10:44:23Z</time>
      </trkpt>
      <trkpt lat="48.43563" lon="7.2955">
        <ele>1000.5</ele>
        <time>2026-03-16T10:44:28Z</time>
      </trkpt>
      <trkpt lat="48.43563" lon="7.2955">
        <ele>1000.5</ele>
        <time>2026-03-16T10:44:33Z</time>
      </trkpt>
      <trkpt lat="48.43563" lon="7.2955">
        <ele>1000.5</ele>
        <time>2026-03-16T10:44:38Z</time>
      </trkpt>
      <trkpt lat="48.43563" lon="7.2955">
        <ele>1000.5</ele>
        <time>2026-03-16T10:44:43Z</time>
      </trkpt>
      <trkpt lat="48.43563" lon="7.2955">
        <ele>1000.5</ele>
        <time>2026-03-16T10:44:48Z</time>
      </trkpt>
      <trkpt lat="48.43563" lon="7.2955">
        <ele>1000.5</ele>
        <time>2026-03-16T10:44:53Z</time>
      </trkpt>
      <trkpt lat="48.43563" lon="7.2955">
        <ele>1000.5</ele>
        <time>2026-03-16T10:44:58Z</time>
      </trkpt>
      <trkpt lat="48.43563" lon="7.2955">
        <ele>1000.5</ele>
        <time>2026-03-16T10:45:03Z</time>
      </trkpt>
      <trkpt lat="48.43563" lon="7.2955">
        <ele>1000.5</ele>
        <time>2026-03-16T10:45:08Z</time>
      </trkpt>
      <trkpt lat="48.43563" lon="7.2955">
        <ele>1000.5</ele>
        <time>2026-03-16T10:45:13Z</time>
      </trkpt>
      <trkpt lat="48.43563" lon="7.2955">
        <ele>1000.5</ele>
        <time>2026-03-16T10:45:18Z</time>
      </trkpt>
      <trkpt lat="48.43563" lon="7.2955">
        <ele>1000.5</ele>
        <time>2026-03-16T10:45:23Z</time>
      </trkpt>
      <trkpt lat="48.43555" lon="7.29548">
        <ele>1000.3</ele>
        <time>2026-03-16T10:45:28Z</time>
      </trkpt>
      <trkpt lat="48.43552" lon="7.29545">
        <ele>1000</ele>
        <time>2026-03-16T10:45:33Z</time>
      </trkpt>
      <trkpt lat="48.43548" lon="7.29543">
        <ele>999.7</ele>
        <time>2026-03-16T10:45:38Z</time>
      </trkpt>
      <trkpt lat="48.43544" lon="7.29545">
        <ele>999.9</ele>
        <time>2026-03-16T10:45:43Z</time>
      </trkpt>
      <trkpt lat="48.43542" lon="7.29546">
        <ele>1000</ele>
        <time>2026-03-16T10:45:48Z</time>
      </trkpt>
      <trkpt lat="48.43538" lon="7.29552">
        <ele>1000.6</ele>
        <time>2026-03-16T10:45:53Z</time>
      </trkpt>
      <trkpt lat="48.43532" lon="7.29555">
        <ele>1000.9</ele>
        <time>2026-03-16T10:45:58Z</time>
      </trkpt>
      <trkpt lat="48.43527" lon="7.29558">
        <ele>1001.3</ele>
        <time>2026-03-16T10:46:03Z</time>
      </trkpt>
      <trkpt lat="48.43522" lon="7.29559">
        <ele>1001.4</ele>
        <time>2026-03-16T10:46:08Z</time>
      </trkpt>
      <trkpt lat="48.43518" lon="7.29558">
        <ele>1001.3</ele>
        <time>2026-03-16T10:46:13Z</time>
      </trkpt>
      <trkpt lat="48.43512" lon="7.29561">
        <ele>1001.7</ele>
        <time>2026-03-16T10:46:18Z</time>
      </trkpt>
      <trkpt lat="48.43504" lon="7.29568">
        <ele>1002.7</ele>
        <time>2026-03-16T10:46:23Z</time>
      </trkpt>
      <trkpt lat="48.43499" lon="7.29572">
        <ele>1003.3</ele>
        <time>2026-03-16T10:46:28Z</time>
      </trkpt>
      <trkpt lat="48.43493" lon="7.29576">
        <ele>1003.5</ele>
        <time>2026-03-16T10:46:33Z</time>
      </trkpt>
      <trkpt lat="48.43487" lon="7.29577">
        <ele>1003.3</ele>
        <time>2026-03-16T10:46:38Z</time>
      </trkpt>
      <trkpt lat="48.43481" lon="7.29578">
        <ele>1003.1</ele>
        <time>2026-03-16T10:46:43Z</time>
      </trkpt>
      <trkpt lat="48.43474" lon="7.29578">
        <ele>1002.6</ele>
        <time>2026-03-16T10:46:48Z</time>
      </trkpt>
      <trkpt lat="48.43466" lon="7.2958">
        <ele>1002.4</ele>
        <time>2026-03-16T10:46:53Z</time>
      </trkpt>
      <trkpt lat="48.43458" lon="7.2958">
        <ele>1002</ele>
        <time>2026-03-16T10:46:58Z</time>
      </trkpt>
      <trkpt lat="48.43454" lon="7.29582">
        <ele>1002</ele>
        <time>2026-03-16T10:47:03Z</time>
      </trkpt>
      <trkpt lat="48.43451" lon="7.29583">
        <ele>1002</ele>
        <time>2026-03-16T10:47:08Z</time>
      </trkpt>
      <trkpt lat="48.43449" lon="7.29584">
        <ele>1002</ele>
        <time>2026-03-16T10:47:13Z</time>
      </trkpt>
      <trkpt lat="48.43449" lon="7.29584">
        <ele>1002</ele>
        <time>2026-03-16T10:47:18Z</time>
      </trkpt>
      <trkpt lat="48.43449" lon="7.29584">
        <ele>1002</ele>
        <time>2026-03-16T10:47:23Z</time>
      </trkpt>
      <trkpt lat="48.43449" lon="7.29584">
        <ele>1002</ele>
        <time>2026-03-16T10:47:28Z</time>
      </trkpt>
      <trkpt lat="48.43449" lon="7.29584">
        <ele>1002</ele>
        <time>2026-03-16T10:47:33Z</time>
      </trkpt>
      <trkpt lat="48.43449" lon="7.29584">
        <ele>1002</ele>
        <time>2026-03-16T10:47:38Z</time>
      </trkpt>
      <trkpt lat="48.43449" lon="7.29584">
        <ele>1002</ele>
        <time>2026-03-16T10:47:43Z</time>
      </trkpt>
      <trkpt lat="48.43449" lon="7.29584">
        <ele>1002</ele>
        <time>2026-03-16T10:47:48Z</time>
      </trkpt>
      <trkpt lat="48.43449" lon="7.29584">
        <ele>1002</ele>
        <time>2026-03-16T10:47:53Z</time>
      </trkpt>
      <trkpt lat="48.43449" lon="7.29584">
        <ele>1002</ele>
        <time>2026-03-16T10:47:58Z</time>
      </trkpt>
      <trkpt lat="48.43449" lon="7.29584">
        <ele>1002</ele>
        <time>2026-03-16T10:48:03Z</time>
      </trkpt>
      <trkpt lat="48.43449" lon="7.29584">
        <ele>1002</ele>
        <time>2026-03-16T10:48:08Z</time>
      </trkpt>
      <trkpt lat="48.43441" lon="7.29581">
        <ele>1001.1</ele>
        <time>2026-03-16T10:48:13Z</time>
      </trkpt>
      <trkpt lat="48.43436" lon="7.29582">
        <ele>1000.9</ele>
        <time>2026-03-16T10:48:18Z</time>
      </trkpt>
      <trkpt lat="48.43432" lon="7.29583">
        <ele>1000.9</ele>
        <time>2026-03-16T10:48:23Z</time>
      </trkpt>
      <trkpt lat="48.43427" lon="7.29583">
        <ele>1000.6</ele>
        <time>2026-03-16T10:48:28Z</time>
      </trkpt>
      <trkpt lat="48.43422" lon="7.29584">
        <ele>1000.4</ele>
        <time>2026-03-16T10:48:33Z</time>
      </trkpt>
      <trkpt lat="48.43418" lon="7.29585">
        <ele>1000.3</ele>
        <time>2026-03-16T10:48:38Z</time>
      </trkpt>
      <trkpt lat="48.43412" lon="7.29589">
        <ele>1000.4</ele>
        <time>2026-03-16T10:48:43Z</time>
      </trkpt>
      <trkpt lat="48.43406" lon="7.29592">
        <ele>1000.3</ele>
        <time>2026-03-16T10:48:48Z</time>
      </trkpt>
      <trkpt lat="48.43401" lon="7.29595">
        <ele>1000.3</ele>
        <time>2026-03-16T10:48:53Z</time>
      </trkpt>
      <trkpt lat="48.43396" lon="7.29599">
        <ele>1000.5</ele>
        <time>2026-03-16T10:48:58Z</time>
      </trkpt>
      <trkpt lat="48.43391" lon="7.29603">
        <ele>1000.7</ele>
        <time>2026-03-16T10:49:03Z</time>
      </trkpt>
      <trkpt lat="48.43387" lon="7.29607">
        <ele>1000.9</ele>
        <time>2026-03-16T10:49:08Z</time>
      </trkpt>
      <trkpt lat="48.43383" lon="7.29613">
        <ele>1001.4</ele>
        <time>2026-03-16T10:49:13Z</time>
      </trkpt>
      <trkpt lat="48.43378" lon="7.2962">
        <ele>1002</ele>
        <time>2026-03-16T10:49:18Z</time>
      </trkpt>
      <trkpt lat="48.43374" lon="7.29627">
        <ele>1002.7</ele>
        <time>2026-03-16T10:49:23Z</time>
      </trkpt>
      <trkpt lat="48.4337" lon="7.29633">
        <ele>1003.3</ele>
        <time>2026-03-16T10:49:28Z</time>
      </trkpt>
      <trkpt lat="48.43366" lon="7.29639">
        <ele>1003.8</ele>
        <time>2026-03-16T10:49:33Z</time>
      </trkpt>
      <trkpt lat="48.43361" lon="7.29645">
        <ele>1004.4</ele>
        <time>2026-03-16T10:49:38Z</time>
      </trkpt>
      <trkpt lat="48.43355" lon="7.29652">
        <ele>1005</ele>
        <time>2026-03-16T10:49:43Z</time>
      </trkpt>
      <trkpt lat="48.4335" lon="7.29658">
        <ele>1005.6</ele>
        <time>2026-03-16T10:49:48Z</time>
      </trkpt>
      <trkpt lat="48.43345" lon="7.29662">
        <ele>1005.9</ele>
        <time>2026-03-16T10:49:53Z</time>
      </trkpt>
      <trkpt lat="48.43338" lon="7.29668">
        <ele>1006.3</ele>
        <time>2026-03-16T10:49:58Z</time>
      </trkpt>
      <trkpt lat="48.43333" lon="7.29671">
        <ele>1006.2</ele>
        <time>2026-03-16T10:50:03Z</time>
      </trkpt>
      <trkpt lat="48.43327" lon="7.29677">
        <ele>1006.1</ele>
        <time>2026-03-16T10:50:08Z</time>
      </trkpt>
      <trkpt lat="48.43321" lon="7.29683">
        <ele>1006</ele>
        <time>2026-03-16T10:50:13Z</time>
      </trkpt>
      <trkpt lat="48.43315" lon="7.29688">
        <ele>1005.8</ele>
        <time>2026-03-16T10:50:18Z</time>
      </trkpt>
      <trkpt lat="48.43308" lon="7.2969">
        <ele>1005.5</ele>
        <time>2026-03-16T10:50:23Z</time>
      </trkpt>
      <trkpt lat="48.43303" lon="7.29696">
        <ele>1005.5</ele>
        <time>2026-03-16T10:50:28Z</time>
      </trkpt>
      <trkpt lat="48.43297" lon="7.29704">
        <ele>1005.6</ele>
        <time>2026-03-16T10:50:33Z</time>
      </trkpt>
      <trkpt lat="48.43291" lon="7.29709">
        <ele>1005.5</ele>
        <time>2026-03-16T10:50:38Z</time>
      </trkpt>
      <trkpt lat="48.43286" lon="7.29712">
        <ele>1005.4</ele>
        <time>2026-03-16T10:50:43Z</time>
      </trkpt>
      <trkpt lat="48.43281" lon="7.29714">
        <ele>1005.2</ele>
        <time>2026-03-16T10:50:48Z</time>
      </trkpt>
      <trkpt lat="48.43275" lon="7.2972">
        <ele>1005.3</ele>
        <time>2026-03-16T10:50:53Z</time>
      </trkpt>
      <trkpt lat="48.4327" lon="7.29727">
        <ele>1005.4</ele>
        <time>2026-03-16T10:50:58Z</time>
      </trkpt>
      <trkpt lat="48.43264" lon="7.29732">
        <ele>1005.4</ele>
        <time>2026-03-16T10:51:03Z</time>
      </trkpt>
      <trkpt lat="48.43257" lon="7.29738">
        <ele>1005.5</ele>
        <time>2026-03-16T10:51:08Z</time>
      </trkpt>
      <trkpt lat="48.4325" lon="7.29746">
        <ele>1005.7</ele>
        <time>2026-03-16T10:51:13Z</time>
      </trkpt>
      <trkpt lat="48.43244" lon="7.29752">
        <ele>1005.8</ele>
        <time>2026-03-16T10:51:18Z</time>
      </trkpt>
      <trkpt lat="48.43239" lon="7.29759">
        <ele>1006</ele>
        <time>2026-03-16T10:51:23Z</time>
      </trkpt>
      <trkpt lat="48.43232" lon="7.29766">
        <ele>1006.1</ele>
        <time>2026-03-16T10:51:28Z</time>
      </trkpt>
      <trkpt lat="48.43225" lon="7.29776">
        <ele>1006.5</ele>
        <time>2026-03-16T10:51:33Z</time>
      </trkpt>
      <trkpt lat="48.43219" lon="7.29783">
        <ele>1006.6</ele>
        <time>2026-03-16T10:51:38Z</time>
      </trkpt>
      <trkpt lat="48.43215" lon="7.29788">
        <ele>1006.8</ele>
        <time>2026-03-16T10:51:43Z</time>
      </trkpt>
      <trkpt lat="48.43209" lon="7.29794">
        <ele>1006.9</ele>
        <time>2026-03-16T10:51:48Z</time>
      </trkpt>
      <trkpt lat="48.43203" lon="7.29802">
        <ele>1007.2</ele>
        <time>2026-03-16T10:51:53Z</time>
      </trkpt>
      <trkpt lat="48.43201" lon="7.29809">
        <ele>1007.6</ele>
        <time>2026-03-16T10:51:58Z</time>
      </trkpt>
      <trkpt lat="48.43196" lon="7.29815">
        <ele>1007.8</ele>
        <time>2026-03-16T10:52:03Z</time>
      </trkpt>
      <trkpt lat="48.43192" lon="7.29821">
        <ele>1008.1</ele>
        <time>2026-03-16T10:52:08Z</time>
      </trkpt>
      <trkpt lat="48.43187" lon="7.29826">
        <ele>1008.2</ele>
        <time>2026-03-16T10:52:13Z</time>
      </trkpt>
      <trkpt lat="48.4318" lon="7.29833">
        <ele>1008.5</ele>
        <time>2026-03-16T10:52:18Z</time>
      </trkpt>
      <trkpt lat="48.43175" lon="7.2984">
        <ele>1008.7</ele>
        <time>2026-03-16T10:52:23Z</time>
      </trkpt>
      <trkpt lat="48.4317" lon="7.29845">
        <ele>1008.8</ele>
        <time>2026-03-16T10:52:28Z</time>
      </trkpt>
      <trkpt lat="48.43163" lon="7.29848">
        <ele>1009</ele>
        <time>2026-03-16T10:52:33Z</time>
      </trkpt>
      <trkpt lat="48.43158" lon="7.29855">
        <ele>1009.6</ele>
        <time>2026-03-16T10:52:38Z</time>
      </trkpt>
      <trkpt lat="48.43152" lon="7.29863">
        <ele>1010.3</ele>
        <time>2026-03-16T10:52:43Z</time>
      </trkpt>
      <trkpt lat="48.43147" lon="7.29868">
        <ele>1010.8</ele>
        <time>2026-03-16T10:52:48Z</time>
      </trkpt>
      <trkpt lat="48.43142" lon="7.29875">
        <ele>1011.4</ele>
        <time>2026-03-16T10:52:53Z</time>
      </trkpt>
      <trkpt lat="48.43135" lon="7.2988">
        <ele>1011.9</ele>
        <time>2026-03-16T10:52:58Z</time>
      </trkpt>
      <trkpt lat="48.4313" lon="7.29887">
        <ele>1012.5</ele>
        <time>2026-03-16T10:53:03Z</time>
      </trkpt>
      <trkpt lat="48.43124" lon="7.29894">
        <ele>1013.2</ele>
        <time>2026-03-16T10:53:08Z</time>
      </trkpt>
      <trkpt lat="48.4312" lon="7.299">
        <ele>1013.7</ele>
        <time>2026-03-16T10:53:13Z</time>
      </trkpt>
      <trkpt lat="48.43113" lon="7.29904">
        <ele>1014.2</ele>
        <time>2026-03-16T10:53:18Z</time>
      </trkpt>
      <trkpt lat="48.43105" lon="7.29908">
        <ele>1014.7</ele>
        <time>2026-03-16T10:53:23Z</time>
      </trkpt>
      <trkpt lat="48.43098" lon="7.29912">
        <ele>1015.2</ele>
        <time>2026-03-16T10:53:28Z</time>
      </trkpt>
      <trkpt lat="48.43092" lon="7.29919">
        <ele>1015.7</ele>
        <time>2026-03-16T10:53:33Z</time>
      </trkpt>
      <trkpt lat="48.43086" lon="7.29924">
        <ele>1016</ele>
        <time>2026-03-16T10:53:38Z</time>
      </trkpt>
      <trkpt lat="48.43081" lon="7.29929">
        <ele>1016.4</ele>
        <time>2026-03-16T10:53:43Z</time>
      </trkpt>
      <trkpt lat="48.43076" lon="7.29933">
        <ele>1017</ele>
        <time>2026-03-16T10:53:48Z</time>
      </trkpt>
      <trkpt lat="48.43069" lon="7.29937">
        <ele>1017.8</ele>
        <time>2026-03-16T10:53:53Z</time>
      </trkpt>
      <trkpt lat="48.43064" lon="7.29942">
        <ele>1018.4</ele>
        <time>2026-03-16T10:53:58Z</time>
      </trkpt>
      <trkpt lat="48.4306" lon="7.29948">
        <ele>1018.9</ele>
        <time>2026-03-16T10:54:03Z</time>
      </trkpt>
      <trkpt lat="48.43055" lon="7.29952">
        <ele>1019.4</ele>
        <time>2026-03-16T10:54:08Z</time>
      </trkpt>
      <trkpt lat="48.43051" lon="7.29958">
        <ele>1019.8</ele>
        <time>2026-03-16T10:54:13Z</time>
      </trkpt>
      <trkpt lat="48.43046" lon="7.29964">
        <ele>1020.3</ele>
        <time>2026-03-16T10:54:18Z</time>
      </trkpt>
      <trkpt lat="48.43039" lon="7.2997">
        <ele>1020.9</ele>
        <time>2026-03-16T10:54:23Z</time>
      </trkpt>
      <trkpt lat="48.43033" lon="7.29974">
        <ele>1021.5</ele>
        <time>2026-03-16T10:54:28Z</time>
      </trkpt>
      <trkpt lat="48.43029" lon="7.29978">
        <ele>1021.8</ele>
        <time>2026-03-16T10:54:33Z</time>
      </trkpt>
      <trkpt lat="48.43024" lon="7.29983">
        <ele>1022.2</ele>
        <time>2026-03-16T10:54:38Z</time>
      </trkpt>
      <trkpt lat="48.43019" lon="7.29987">
        <ele>1022.6</ele>
        <time>2026-03-16T10:54:43Z</time>
      </trkpt>
      <trkpt lat="48.43014" lon="7.29991">
        <ele>1023</ele>
        <time>2026-03-16T10:54:48Z</time>
      </trkpt>
      <trkpt lat="48.43009" lon="7.29995">
        <ele>1023.3</ele>
        <time>2026-03-16T10:54:53Z</time>
      </trkpt>
      <trkpt lat="48.43004" lon="7.3">
        <ele>1023.7</ele>
        <time>2026-03-16T10:54:58Z</time>
      </trkpt>
      <trkpt lat="48.43" lon="7.30005">
        <ele>1023.9</ele>
        <time>2026-03-16T10:55:03Z</time>
      </trkpt>
      <trkpt lat="48.42995" lon="7.30009">
        <ele>1024.9</ele>
        <time>2026-03-16T10:55:08Z</time>
      </trkpt>
      <trkpt lat="48.42991" lon="7.30014">
        <ele>1025.5</ele>
        <time>2026-03-16T10:55:13Z</time>
      </trkpt>
      <trkpt lat="48.42986" lon="7.30016">
        <ele>1026.4</ele>
        <time>2026-03-16T10:55:18Z</time>
      </trkpt>
      <trkpt lat="48.42982" lon="7.30014">
        <ele>1027.2</ele>
        <time>2026-03-16T10:55:23Z</time>
      </trkpt>
      <trkpt lat="48.42977" lon="7.30016">
        <ele>1028</ele>
        <time>2026-03-16T10:55:28Z</time>
      </trkpt>
      <trkpt lat="48.42973" lon="7.30013">
        <ele>1028.9</ele>
        <time>2026-03-16T10:55:33Z</time>
      </trkpt>
      <trkpt lat="48.42972" lon="7.30003">
        <ele>1029.6</ele>
        <time>2026-03-16T10:55:38Z</time>
      </trkpt>
      <trkpt lat="48.4297" lon="7.29995">
        <ele>1030.2</ele>
        <time>2026-03-16T10:55:43Z</time>
      </trkpt>
      <trkpt lat="48.42969" lon="7.29988">
        <ele>1030.5</ele>
        <time>2026-03-16T10:55:48Z</time>
      </trkpt>
      <trkpt lat="48.42967" lon="7.29978">
        <ele>1030.9</ele>
        <time>2026-03-16T10:55:53Z</time>
      </trkpt>
      <trkpt lat="48.42962" lon="7.29969">
        <ele>1032</ele>
        <time>2026-03-16T10:55:58Z</time>
      </trkpt>
      <trkpt lat="48.42959" lon="7.2996">
        <ele>1032.6</ele>
        <time>2026-03-16T10:56:03Z</time>
      </trkpt>
      <trkpt lat="48.42957" lon="7.29951">
        <ele>1033</ele>
        <time>2026-03-16T10:56:08Z</time>
      </trkpt>
      <trkpt lat="48.42956" lon="7.29943">
        <ele>1033.3</ele>
        <time>2026-03-16T10:56:13Z</time>
      </trkpt>
      <trkpt lat="48.42954" lon="7.29934">
        <ele>1033.7</ele>
        <time>2026-03-16T10:56:18Z</time>
      </trkpt>
      <trkpt lat="48.42953" lon="7.29919">
        <ele>1033.9</ele>
        <time>2026-03-16T10:56:23Z</time>
      </trkpt>
      <trkpt lat="48.4295" lon="7.29908">
        <ele>1034.3</ele>
        <time>2026-03-16T10:56:28Z</time>
      </trkpt>
      <trkpt lat="48.42949" lon="7.299">
        <ele>1034.4</ele>
        <time>2026-03-16T10:56:33Z</time>
      </trkpt>
      <trkpt lat="48.42945" lon="7.2989">
        <ele>1035</ele>
        <time>2026-03-16T10:56:38Z</time>
      </trkpt>
      <trkpt lat="48.42943" lon="7.29883">
        <ele>1035.3</ele>
        <time>2026-03-16T10:56:43Z</time>
      </trkpt>
      <trkpt lat="48.4294" lon="7.29872">
        <ele>1035.8</ele>
        <time>2026-03-16T10:56:48Z</time>
      </trkpt>
      <trkpt lat="48.42941" lon="7.29864">
        <ele>1035.5</ele>
        <time>2026-03-16T10:56:53Z</time>
      </trkpt>
      <trkpt lat="48.4294" lon="7.29856">
        <ele>1035.7</ele>
        <time>2026-03-16T10:56:58Z</time>
      </trkpt>
      <trkpt lat="48.42938" lon="7.29846">
        <ele>1036</ele>
        <time>2026-03-16T10:57:03Z</time>
      </trkpt>
      <trkpt lat="48.42933" lon="7.29838">
        <ele>1036.9</ele>
        <time>2026-03-16T10:57:08Z</time>
      </trkpt>
      <trkpt lat="48.4293" lon="7.2983">
        <ele>1037.2</ele>
        <time>2026-03-16T10:57:13Z</time>
      </trkpt>
      <trkpt lat="48.42928" lon="7.2982">
        <ele>1036.7</ele>
        <time>2026-03-16T10:57:18Z</time>
      </trkpt>
      <trkpt lat="48.42925" lon="7.29814">
        <ele>1036.8</ele>
        <time>2026-03-16T10:57:23Z</time>
      </trkpt>
      <trkpt lat="48.42922" lon="7.29804">
        <ele>1036.5</ele>
        <time>2026-03-16T10:57:28Z</time>
      </trkpt>
      <trkpt lat="48.4292" lon="7.29798">
        <ele>1036.4</ele>
        <time>2026-03-16T10:57:33Z</time>
      </trkpt>
      <trkpt lat="48.42917" lon="7.29789">
        <ele>1036.2</ele>
        <time>2026-03-16T10:57:38Z</time>
      </trkpt>
      <trkpt lat="48.42914" lon="7.2978">
        <ele>1035.9</ele>
        <time>2026-03-16T10:57:43Z</time>
      </trkpt>
      <trkpt lat="48.4291" lon="7.2977">
        <ele>1035.7</ele>
        <time>2026-03-16T10:57:48Z</time>
      </trkpt>
      <trkpt lat="48.42907" lon="7.29758">
        <ele>1035.2</ele>
        <time>2026-03-16T10:57:53Z</time>
      </trkpt>
      <trkpt lat="48.42903" lon="7.29749">
        <ele>1035.2</ele>
        <time>2026-03-16T10:57:58Z</time>
      </trkpt>
      <trkpt lat="48.42899" lon="7.29739">
        <ele>1035.2</ele>
        <time>2026-03-16T10:58:03Z</time>
      </trkpt>
      <trkpt lat="48.42897" lon="7.29731">
        <ele>1035</ele>
        <time>2026-03-16T10:58:08Z</time>
      </trkpt>
      <trkpt lat="48.42893" lon="7.29722">
        <ele>1035.2</ele>
        <time>2026-03-16T10:58:13Z</time>
      </trkpt>
      <trkpt lat="48.42889" lon="7.29719">
        <ele>1035.7</ele>
        <time>2026-03-16T10:58:18Z</time>
      </trkpt>
      <trkpt lat="48.42888" lon="7.29716">
        <ele>1035.6</ele>
        <time>2026-03-16T10:58:23Z</time>
      </trkpt>
      <trkpt lat="48.42887" lon="7.29709">
        <ele>1035.4</ele>
        <time>2026-03-16T10:58:28Z</time>
      </trkpt>
      <trkpt lat="48.42886" lon="7.29702">
        <ele>1035.1</ele>
        <time>2026-03-16T10:58:33Z</time>
      </trkpt>
      <trkpt lat="48.42882" lon="7.29694">
        <ele>1035.4</ele>
        <time>2026-03-16T10:58:38Z</time>
      </trkpt>
      <trkpt lat="48.42879" lon="7.29684">
        <ele>1035.3</ele>
        <time>2026-03-16T10:58:43Z</time>
      </trkpt>
      <trkpt lat="48.42876" lon="7.29676">
        <ele>1035.4</ele>
        <time>2026-03-16T10:58:48Z</time>
      </trkpt>
      <trkpt lat="48.42872" lon="7.29667">
        <ele>1035.6</ele>
        <time>2026-03-16T10:58:53Z</time>
      </trkpt>
      <trkpt lat="48.4287" lon="7.29659">
        <ele>1035.4</ele>
        <time>2026-03-16T10:58:58Z</time>
      </trkpt>
      <trkpt lat="48.42867" lon="7.29653">
        <ele>1035.6</ele>
        <time>2026-03-16T10:59:03Z</time>
      </trkpt>
      <trkpt lat="48.42863" lon="7.29649">
        <ele>1036.1</ele>
        <time>2026-03-16T10:59:08Z</time>
      </trkpt>
      <trkpt lat="48.42861" lon="7.29644">
        <ele>1036.1</ele>
        <time>2026-03-16T10:59:13Z</time>
      </trkpt>
      <trkpt lat="48.42858" lon="7.29638">
        <ele>1036.3</ele>
        <time>2026-03-16T10:59:18Z</time>
      </trkpt>
      <trkpt lat="48.42853" lon="7.29626">
        <ele>1036.4</ele>
        <time>2026-03-16T10:59:23Z</time>
      </trkpt>
      <trkpt lat="48.42847" lon="7.29607">
        <ele>1036.2</ele>
        <time>2026-03-16T10:59:28Z</time>
      </trkpt>
      <trkpt lat="48.42843" lon="7.29595">
        <ele>1036.1</ele>
        <time>2026-03-16T10:59:33Z</time>
      </trkpt>
      <trkpt lat="48.42839" lon="7.29589">
        <ele>1036.4</ele>
        <time>2026-03-16T10:59:38Z</time>
      </trkpt>
      <trkpt lat="48.42835" lon="7.29583">
        <ele>1036.7</ele>
        <time>2026-03-16T10:59:43Z</time>
      </trkpt>
      <trkpt lat="48.4283" lon="7.29579">
        <ele>1037</ele>
        <time>2026-03-16T10:59:48Z</time>
      </trkpt>
      <trkpt lat="48.42827" lon="7.29572">
        <ele>1036.8</ele>
        <time>2026-03-16T10:59:53Z</time>
      </trkpt>
      <trkpt lat="48.42823" lon="7.29564">
        <ele>1036.5</ele>
        <time>2026-03-16T10:59:58Z</time>
      </trkpt>
      <trkpt lat="48.4282" lon="7.29554">
        <ele>1036</ele>
        <time>2026-03-16T11:00:03Z</time>
      </trkpt>
      <trkpt lat="48.42816" lon="7.29544">
        <ele>1035.5</ele>
        <time>2026-03-16T11:00:08Z</time>
      </trkpt>
      <trkpt lat="48.42812" lon="7.29534">
        <ele>1035</ele>
        <time>2026-03-16T11:00:13Z</time>
      </trkpt>
      <trkpt lat="48.42809" lon="7.29525">
        <ele>1034.4</ele>
        <time>2026-03-16T11:00:18Z</time>
      </trkpt>
      <trkpt lat="48.42808" lon="7.29522">
        <ele>1034.2</ele>
        <time>2026-03-16T11:00:23Z</time>
      </trkpt>
      <trkpt lat="48.42805" lon="7.29517">
        <ele>1034</ele>
        <time>2026-03-16T11:00:28Z</time>
      </trkpt>
      <trkpt lat="48.428" lon="7.2951">
        <ele>1033.8</ele>
        <time>2026-03-16T11:00:33Z</time>
      </trkpt>
      <trkpt lat="48.42795" lon="7.29498">
        <ele>1032.9</ele>
        <time>2026-03-16T11:00:38Z</time>
      </trkpt>
      <trkpt lat="48.4279" lon="7.29488">
        <ele>1031.7</ele>
        <time>2026-03-16T11:00:43Z</time>
      </trkpt>
      <trkpt lat="48.42784" lon="7.29479">
        <ele>1030.6</ele>
        <time>2026-03-16T11:00:48Z</time>
      </trkpt>
      <trkpt lat="48.42779" lon="7.29477">
        <ele>1030.5</ele>
        <time>2026-03-16T11:00:53Z</time>
      </trkpt>
      <trkpt lat="48.42772" lon="7.29473">
        <ele>1030.2</ele>
        <time>2026-03-16T11:00:58Z</time>
      </trkpt>
      <trkpt lat="48.42766" lon="7.29463">
        <ele>1028.7</ele>
        <time>2026-03-16T11:01:03Z</time>
      </trkpt>
      <trkpt lat="48.42762" lon="7.29459">
        <ele>1028.1</ele>
        <time>2026-03-16T11:01:08Z</time>
      </trkpt>
      <trkpt lat="48.42757" lon="7.29454">
        <ele>1027.4</ele>
        <time>2026-03-16T11:01:13Z</time>
      </trkpt>
      <trkpt lat="48.42754" lon="7.29449">
        <ele>1026.5</ele>
        <time>2026-03-16T11:01:18Z</time>
      </trkpt>
      <trkpt lat="48.4275" lon="7.29443">
        <ele>1025.4</ele>
        <time>2026-03-16T11:01:23Z</time>
      </trkpt>
      <trkpt lat="48.42747" lon="7.29437">
        <ele>1024</ele>
        <time>2026-03-16T11:01:28Z</time>
      </trkpt>
      <trkpt lat="48.42744" lon="7.29435">
        <ele>1023.5</ele>
        <time>2026-03-16T11:01:33Z</time>
      </trkpt>
      <trkpt lat="48.4274" lon="7.29434">
        <ele>1023.2</ele>
        <time>2026-03-16T11:01:38Z</time>
      </trkpt>
      <trkpt lat="48.42733" lon="7.29433">
        <ele>1022.7</ele>
        <time>2026-03-16T11:01:43Z</time>
      </trkpt>
      <trkpt lat="48.42727" lon="7.29431">
        <ele>1022.1</ele>
        <time>2026-03-16T11:01:48Z</time>
      </trkpt>
      <trkpt lat="48.42718" lon="7.29428">
        <ele>1021.3</ele>
        <time>2026-03-16T11:01:53Z</time>
      </trkpt>
      <trkpt lat="48.42711" lon="7.2943">
        <ele>1021.4</ele>
        <time>2026-03-16T11:01:58Z</time>
      </trkpt>
      <trkpt lat="48.42706" lon="7.2943">
        <ele>1021.2</ele>
        <time>2026-03-16T11:02:03Z</time>
      </trkpt>
      <trkpt lat="48.42699" lon="7.29429">
        <ele>1020.8</ele>
        <time>2026-03-16T11:02:08Z</time>
      </trkpt>
      <trkpt lat="48.42692" lon="7.29432">
        <ele>1021.1</ele>
        <time>2026-03-16T11:02:13Z</time>
      </trkpt>
      <trkpt lat="48.42688" lon="7.29438">
        <ele>1021.9</ele>
        <time>2026-03-16T11:02:18Z</time>
      </trkpt>
      <trkpt lat="48.42683" lon="7.29442">
        <ele>1022.3</ele>
        <time>2026-03-16T11:02:23Z</time>
      </trkpt>
      <trkpt lat="48.42677" lon="7.29444">
        <ele>1022.4</ele>
        <time>2026-03-16T11:02:28Z</time>
      </trkpt>
      <trkpt lat="48.4267" lon="7.29446">
        <ele>1022.4</ele>
        <time>2026-03-16T11:02:33Z</time>
      </trkpt>
      <trkpt lat="48.42665" lon="7.2945">
        <ele>1022.7</ele>
        <time>2026-03-16T11:02:38Z</time>
      </trkpt>
      <trkpt lat="48.42659" lon="7.29456">
        <ele>1023</ele>
        <time>2026-03-16T11:02:43Z</time>
      </trkpt>
      <trkpt lat="48.42652" lon="7.29465">
        <ele>1023.6</ele>
        <time>2026-03-16T11:02:48Z</time>
      </trkpt>
      <trkpt lat="48.42643" lon="7.2947">
        <ele>1023.4</ele>
        <time>2026-03-16T11:02:53Z</time>
      </trkpt>
      <trkpt lat="48.42638" lon="7.29475">
        <ele>1023.6</ele>
        <time>2026-03-16T11:02:58Z</time>
      </trkpt>
      <trkpt lat="48.42634" lon="7.29479">
        <ele>1023.7</ele>
        <time>2026-03-16T11:03:03Z</time>
      </trkpt>
      <trkpt lat="48.42627" lon="7.29483">
        <ele>1023.6</ele>
        <time>2026-03-16T11:03:08Z</time>
      </trkpt>
      <trkpt lat="48.4262" lon="7.2949">
        <ele>1023.7</ele>
        <time>2026-03-16T11:03:13Z</time>
      </trkpt>
      <trkpt lat="48.42611" lon="7.29497">
        <ele>1023.6</ele>
        <time>2026-03-16T11:03:18Z</time>
      </trkpt>
      <trkpt lat="48.42605" lon="7.29501">
        <ele>1023.5</ele>
        <time>2026-03-16T11:03:23Z</time>
      </trkpt>
      <trkpt lat="48.42599" lon="7.29508">
        <ele>1023.9</ele>
        <time>2026-03-16T11:03:28Z</time>
      </trkpt>
      <trkpt lat="48.42593" lon="7.29516">
        <ele>1024.4</ele>
        <time>2026-03-16T11:03:33Z</time>
      </trkpt>
      <trkpt lat="48.42587" lon="7.29521">
        <ele>1024.4</ele>
        <time>2026-03-16T11:03:38Z</time>
      </trkpt>
      <trkpt lat="48.42581" lon="7.29523">
        <ele>1024.3</ele>
        <time>2026-03-16T11:03:43Z</time>
      </trkpt>
      <trkpt lat="48.42576" lon="7.29528">
        <ele>1025</ele>
        <time>2026-03-16T11:03:48Z</time>
      </trkpt>
      <trkpt lat="48.4257" lon="7.29534">
        <ele>1025.8</ele>
        <time>2026-03-16T11:03:53Z</time>
      </trkpt>
      <trkpt lat="48.42563" lon="7.2954">
        <ele>1026.5</ele>
        <time>2026-03-16T11:03:58Z</time>
      </trkpt>
      <trkpt lat="48.42556" lon="7.29545">
        <ele>1027.1</ele>
        <time>2026-03-16T11:04:03Z</time>
      </trkpt>
      <trkpt lat="48.4255" lon="7.29552">
        <ele>1027.9</ele>
        <time>2026-03-16T11:04:08Z</time>
      </trkpt>
      <trkpt lat="48.42545" lon="7.29558">
        <ele>1028.5</ele>
        <time>2026-03-16T11:04:13Z</time>
      </trkpt>
      <trkpt lat="48.4254" lon="7.29562">
        <ele>1028.9</ele>
        <time>2026-03-16T11:04:18Z</time>
      </trkpt>
      <trkpt lat="48.42535" lon="7.29567">
        <ele>1029.4</ele>
        <time>2026-03-16T11:04:23Z</time>
      </trkpt>
      <trkpt lat="48.42527" lon="7.29574">
        <ele>1029.9</ele>
        <time>2026-03-16T11:04:28Z</time>
      </trkpt>
      <trkpt lat="48.4252" lon="7.29579">
        <ele>1030.3</ele>
        <time>2026-03-16T11:04:33Z</time>
      </trkpt>
      <trkpt lat="48.4252" lon="7.29583">
        <ele>1030.7</ele>
        <time>2026-03-16T11:04:38Z</time>
      </trkpt>
      <trkpt lat="48.4252" lon="7.29583">
        <ele>1030.7</ele>
        <time>2026-03-16T11:04:43Z</time>
      </trkpt>
      <trkpt lat="48.42518" lon="7.29582">
        <ele>1030.5</ele>
        <time>2026-03-16T11:04:48Z</time>
      </trkpt>
      <trkpt lat="48.42516" lon="7.29583">
        <ele>1030.5</ele>
        <time>2026-03-16T11:04:53Z</time>
      </trkpt>
      <trkpt lat="48.42514" lon="7.29584">
        <ele>1030.6</ele>
        <time>2026-03-16T11:04:58Z</time>
      </trkpt>
      <trkpt lat="48.42507" lon="7.29585">
        <ele>1030.4</ele>
        <time>2026-03-16T11:05:03Z</time>
      </trkpt>
      <trkpt lat="48.42504" lon="7.29585">
        <ele>1030.3</ele>
        <time>2026-03-16T11:05:08Z</time>
      </trkpt>
      <trkpt lat="48.42499" lon="7.29586">
        <ele>1030.3</ele>
        <time>2026-03-16T11:05:13Z</time>
      </trkpt>
      <trkpt lat="48.42492" lon="7.29591">
        <ele>1031.1</ele>
        <time>2026-03-16T11:05:18Z</time>
      </trkpt>
      <trkpt lat="48.42484" lon="7.29591">
        <ele>1031.5</ele>
        <time>2026-03-16T11:05:23Z</time>
      </trkpt>
      <trkpt lat="48.42478" lon="7.29594">
        <ele>1032.1</ele>
        <time>2026-03-16T11:05:28Z</time>
      </trkpt>
      <trkpt lat="48.42473" lon="7.29597">
        <ele>1032.6</ele>
        <time>2026-03-16T11:05:33Z</time>
      </trkpt>
      <trkpt lat="48.42467" lon="7.29602">
        <ele>1033.2</ele>
        <time>2026-03-16T11:05:38Z</time>
      </trkpt>
      <trkpt lat="48.42461" lon="7.29607">
        <ele>1033.8</ele>
        <time>2026-03-16T11:05:43Z</time>
      </trkpt>
      <trkpt lat="48.42455" lon="7.29612">
        <ele>1034.4</ele>
        <time>2026-03-16T11:05:48Z</time>
      </trkpt>
      <trkpt lat="48.4245" lon="7.29617">
        <ele>1034.9</ele>
        <time>2026-03-16T11:05:53Z</time>
      </trkpt>
      <trkpt lat="48.42443" lon="7.29622">
        <ele>1035.4</ele>
        <time>2026-03-16T11:05:58Z</time>
      </trkpt>
      <trkpt lat="48.42434" lon="7.29625">
        <ele>1035.9</ele>
        <time>2026-03-16T11:06:03Z</time>
      </trkpt>
      <trkpt lat="48.42427" lon="7.29627">
        <ele>1036.2</ele>
        <time>2026-03-16T11:06:08Z</time>
      </trkpt>
      <trkpt lat="48.42422" lon="7.29628">
        <ele>1036.4</ele>
        <time>2026-03-16T11:06:13Z</time>
      </trkpt>
      <trkpt lat="48.42417" lon="7.29629">
        <ele>1036.6</ele>
        <time>2026-03-16T11:06:18Z</time>
      </trkpt>
      <trkpt lat="48.42409" lon="7.29627">
        <ele>1036.8</ele>
        <time>2026-03-16T11:06:23Z</time>
      </trkpt>
      <trkpt lat="48.42401" lon="7.29627">
        <ele>1037.1</ele>
        <time>2026-03-16T11:06:28Z</time>
      </trkpt>
      <trkpt lat="48.42395" lon="7.29625">
        <ele>1037.3</ele>
        <time>2026-03-16T11:06:33Z</time>
      </trkpt>
      <trkpt lat="48.42387" lon="7.29624">
        <ele>1037.5</ele>
        <time>2026-03-16T11:06:38Z</time>
      </trkpt>
      <trkpt lat="48.4238" lon="7.29623">
        <ele>1037.8</ele>
        <time>2026-03-16T11:06:43Z</time>
      </trkpt>
      <trkpt lat="48.42374" lon="7.29623">
        <ele>1038</ele>
        <time>2026-03-16T11:06:48Z</time>
      </trkpt>
      <trkpt lat="48.42367" lon="7.29621">
        <ele>1038.3</ele>
        <time>2026-03-16T11:06:53Z</time>
      </trkpt>
      <trkpt lat="48.42364" lon="7.29615">
        <ele>1038.3</ele>
        <time>2026-03-16T11:06:58Z</time>
      </trkpt>
      <trkpt lat="48.4236" lon="7.2961">
        <ele>1038.5</ele>
        <time>2026-03-16T11:07:03Z</time>
      </trkpt>
      <trkpt lat="48.42355" lon="7.29608">
        <ele>1038.7</ele>
        <time>2026-03-16T11:07:08Z</time>
      </trkpt>
      <trkpt lat="48.4235" lon="7.29602">
        <ele>1039</ele>
        <time>2026-03-16T11:07:13Z</time>
      </trkpt>
      <trkpt lat="48.42343" lon="7.29597">
        <ele>1039.3</ele>
        <time>2026-03-16T11:07:18Z</time>
      </trkpt>
      <trkpt lat="48.42337" lon="7.29592">
        <ele>1039.7</ele>
        <time>2026-03-16T11:07:23Z</time>
      </trkpt>
      <trkpt lat="48.42331" lon="7.2959">
        <ele>1039.9</ele>
        <time>2026-03-16T11:07:28Z</time>
      </trkpt>
      <trkpt lat="48.42326" lon="7.29587">
        <ele>1040</ele>
        <time>2026-03-16T11:07:33Z</time>
      </trkpt>
      <trkpt lat="48.42322" lon="7.29579">
        <ele>1040.2</ele>
        <time>2026-03-16T11:07:38Z</time>
      </trkpt>
      <trkpt lat="48.42318" lon="7.29572">
        <ele>1040.3</ele>
        <time>2026-03-16T11:07:43Z</time>
      </trkpt>
      <trkpt lat="48.42315" lon="7.29568">
        <ele>1040.4</ele>
        <time>2026-03-16T11:07:48Z</time>
      </trkpt>
      <trkpt lat="48.42307" lon="7.29558">
        <ele>1040.7</ele>
        <time>2026-03-16T11:07:53Z</time>
      </trkpt>
      <trkpt lat="48.42301" lon="7.29551">
        <ele>1040.9</ele>
        <time>2026-03-16T11:07:58Z</time>
      </trkpt>
      <trkpt lat="48.42294" lon="7.29546">
        <ele>1041.1</ele>
        <time>2026-03-16T11:08:03Z</time>
      </trkpt>
      <trkpt lat="48.42288" lon="7.2954">
        <ele>1041.3</ele>
        <time>2026-03-16T11:08:08Z</time>
      </trkpt>
      <trkpt lat="48.42282" lon="7.29534">
        <ele>1041.6</ele>
        <time>2026-03-16T11:08:13Z</time>
      </trkpt>
      <trkpt lat="48.42275" lon="7.29528">
        <ele>1041.8</ele>
        <time>2026-03-16T11:08:18Z</time>
      </trkpt>
      <trkpt lat="48.4227" lon="7.29527">
        <ele>1041.9</ele>
        <time>2026-03-16T11:08:23Z</time>
      </trkpt>
      <trkpt lat="48.42264" lon="7.29529">
        <ele>1042</ele>
        <time>2026-03-16T11:08:28Z</time>
      </trkpt>
      <trkpt lat="48.42257" lon="7.29522">
        <ele>1042.3</ele>
        <time>2026-03-16T11:08:33Z</time>
      </trkpt>
      <trkpt lat="48.42247" lon="7.29518">
        <ele>1042.4</ele>
        <time>2026-03-16T11:08:38Z</time>
      </trkpt>
      <trkpt lat="48.42238" lon="7.29513">
        <ele>1041.8</ele>
        <time>2026-03-16T11:08:43Z</time>
      </trkpt>
      <trkpt lat="48.42233" lon="7.29506">
        <ele>1041.6</ele>
        <time>2026-03-16T11:08:48Z</time>
      </trkpt>
      <trkpt lat="48.42227" lon="7.29503">
        <ele>1041.3</ele>
        <time>2026-03-16T11:08:53Z</time>
      </trkpt>
      <trkpt lat="48.4222" lon="7.29504">
        <ele>1040.7</ele>
        <time>2026-03-16T11:08:58Z</time>
      </trkpt>
      <trkpt lat="48.42212" lon="7.29504">
        <ele>1040.2</ele>
        <time>2026-03-16T11:09:03Z</time>
      </trkpt>
      <trkpt lat="48.42206" lon="7.29505">
        <ele>1039.7</ele>
        <time>2026-03-16T11:09:08Z</time>
      </trkpt>
      <trkpt lat="48.42202" lon="7.29504">
        <ele>1039.4</ele>
        <time>2026-03-16T11:09:13Z</time>
      </trkpt>
      <trkpt lat="48.42197" lon="7.29502">
        <ele>1039.1</ele>
        <time>2026-03-16T11:09:18Z</time>
      </trkpt>
      <trkpt lat="48.4219" lon="7.29499">
        <ele>1038.6</ele>
        <time>2026-03-16T11:09:23Z</time>
      </trkpt>
      <trkpt lat="48.42183" lon="7.29496">
        <ele>1038</ele>
        <time>2026-03-16T11:09:28Z</time>
      </trkpt>
      <trkpt lat="48.42176" lon="7.29491">
        <ele>1037.3</ele>
        <time>2026-03-16T11:09:33Z</time>
      </trkpt>
      <trkpt lat="48.42169" lon="7.29486">
        <ele>1036.6</ele>
        <time>2026-03-16T11:09:38Z</time>
      </trkpt>
      <trkpt lat="48.42163" lon="7.29485">
        <ele>1036.1</ele>
        <time>2026-03-16T11:09:43Z</time>
      </trkpt>
      <trkpt lat="48.42156" lon="7.29483">
        <ele>1035.5</ele>
        <time>2026-03-16T11:09:48Z</time>
      </trkpt>
      <trkpt lat="48.42151" lon="7.29478">
        <ele>1034.8</ele>
        <time>2026-03-16T11:09:53Z</time>
      </trkpt>
      <trkpt lat="48.42147" lon="7.29474">
        <ele>1034.3</ele>
        <time>2026-03-16T11:09:58Z</time>
      </trkpt>
      <trkpt lat="48.42143" lon="7.29468">
        <ele>1033.8</ele>
        <time>2026-03-16T11:10:03Z</time>
      </trkpt>
      <trkpt lat="48.42136" lon="7.29461">
        <ele>1032.8</ele>
        <time>2026-03-16T11:10:08Z</time>
      </trkpt>
      <trkpt lat="48.42131" lon="7.29454">
        <ele>1032.1</ele>
        <time>2026-03-16T11:10:13Z</time>
      </trkpt>
      <trkpt lat="48.42126" lon="7.29447">
        <ele>1031.4</ele>
        <time>2026-03-16T11:10:18Z</time>
      </trkpt>
      <trkpt lat="48.4212" lon="7.29437">
        <ele>1030.4</ele>
        <time>2026-03-16T11:10:23Z</time>
      </trkpt>
      <trkpt lat="48.4212" lon="7.2943">
        <ele>1030.1</ele>
        <time>2026-03-16T11:10:28Z</time>
      </trkpt>
      <trkpt lat="48.42117" lon="7.29429">
        <ele>1029.8</ele>
        <time>2026-03-16T11:10:33Z</time>
      </trkpt>
      <trkpt lat="48.42116" lon="7.29429">
        <ele>1029.7</ele>
        <time>2026-03-16T11:10:38Z</time>
      </trkpt>
      <trkpt lat="48.42116" lon="7.29429">
        <ele>1029.7</ele>
        <time>2026-03-16T11:10:43Z</time>
      </trkpt>
      <trkpt lat="48.42116" lon="7.29429">
        <ele>1029.7</ele>
        <time>2026-03-16T11:10:48Z</time>
      </trkpt>
      <trkpt lat="48.42116" lon="7.29429">
        <ele>1029.7</ele>
        <time>2026-03-16T11:10:53Z</time>
      </trkpt>
      <trkpt lat="48.42116" lon="7.29429">
        <ele>1029.7</ele>
        <time>2026-03-16T11:10:58Z</time>
      </trkpt>
      <trkpt lat="48.42111" lon="7.29433">
        <ele>1029.4</ele>
        <time>2026-03-16T11:11:03Z</time>
      </trkpt>
      <trkpt lat="48.4211" lon="7.29434">
        <ele>1029.3</ele>
        <time>2026-03-16T11:11:08Z</time>
      </trkpt>
      <trkpt lat="48.42104" lon="7.29436">
        <ele>1028.9</ele>
        <time>2026-03-16T11:11:13Z</time>
      </trkpt>
      <trkpt lat="48.42098" lon="7.2944">
        <ele>1028.5</ele>
        <time>2026-03-16T11:11:18Z</time>
      </trkpt>
      <trkpt lat="48.42091" lon="7.29442">
        <ele>1027.9</ele>
        <time>2026-03-16T11:11:23Z</time>
      </trkpt>
      <trkpt lat="48.42086" lon="7.29445">
        <ele>1027.6</ele>
        <time>2026-03-16T11:11:28Z</time>
      </trkpt>
      <trkpt lat="48.4208" lon="7.29449">
        <ele>1027.3</ele>
        <time>2026-03-16T11:11:33Z</time>
      </trkpt>
      <trkpt lat="48.42073" lon="7.2945">
        <ele>1026.8</ele>
        <time>2026-03-16T11:11:38Z</time>
      </trkpt>
      <trkpt lat="48.42065" lon="7.29451">
        <ele>1026.2</ele>
        <time>2026-03-16T11:11:43Z</time>
      </trkpt>
      <trkpt lat="48.42062" lon="7.29456">
        <ele>1026.1</ele>
        <time>2026-03-16T11:11:48Z</time>
      </trkpt>
      <trkpt lat="48.42058" lon="7.29461">
        <ele>1026</ele>
        <time>2026-03-16T11:11:53Z</time>
      </trkpt>
      <trkpt lat="48.42056" lon="7.29462">
        <ele>1025.8</ele>
        <time>2026-03-16T11:11:58Z</time>
      </trkpt>
      <trkpt lat="48.42056" lon="7.29463">
        <ele>1025.9</ele>
        <time>2026-03-16T11:12:03Z</time>
      </trkpt>
      <trkpt lat="48.42056" lon="7.29463">
        <ele>1025.9</ele>
        <time>2026-03-16T11:12:08Z</time>
      </trkpt>
      <trkpt lat="48.42056" lon="7.29463">
        <ele>1025.9</ele>
        <time>2026-03-16T11:12:13Z</time>
      </trkpt>
      <trkpt lat="48.42052" lon="7.2947">
        <ele>1025.7</ele>
        <time>2026-03-16T11:12:18Z</time>
      </trkpt>
      <trkpt lat="48.42049" lon="7.29474">
        <ele>1025.6</ele>
        <time>2026-03-16T11:12:23Z</time>
      </trkpt>
      <trkpt lat="48.42046" lon="7.29479">
        <ele>1025.4</ele>
        <time>2026-03-16T11:12:28Z</time>
      </trkpt>
      <trkpt lat="48.42043" lon="7.29485">
        <ele>1025.3</ele>
        <time>2026-03-16T11:12:33Z</time>
      </trkpt>
      <trkpt lat="48.42037" lon="7.29494">
        <ele>1024.9</ele>
        <time>2026-03-16T11:12:38Z</time>
      </trkpt>
      <trkpt lat="48.42032" lon="7.29504">
        <ele>1024.3</ele>
        <time>2026-03-16T11:12:43Z</time>
      </trkpt>
      <trkpt lat="48.42028" lon="7.29513">
        <ele>1023.5</ele>
        <time>2026-03-16T11:12:48Z</time>
      </trkpt>
      <trkpt lat="48.42024" lon="7.29516">
        <ele>1022.9</ele>
        <time>2026-03-16T11:12:53Z</time>
      </trkpt>
      <trkpt lat="48.42019" lon="7.29511">
        <ele>1022.6</ele>
        <time>2026-03-16T11:12:58Z</time>
      </trkpt>
      <trkpt lat="48.42017" lon="7.29506">
        <ele>1022.6</ele>
        <time>2026-03-16T11:13:03Z</time>
      </trkpt>
      <trkpt lat="48.42009" lon="7.29502">
        <ele>1021.9</ele>
        <time>2026-03-16T11:13:08Z</time>
      </trkpt>
      <trkpt lat="48.42003" lon="7.29496">
        <ele>1021.3</ele>
        <time>2026-03-16T11:13:13Z</time>
      </trkpt>
      <trkpt lat="48.41995" lon="7.29489">
        <ele>1020.2</ele>
        <time>2026-03-16T11:13:18Z</time>
      </trkpt>
      <trkpt lat="48.41988" lon="7.29482">
        <ele>1019.2</ele>
        <time>2026-03-16T11:13:23Z</time>
      </trkpt>
      <trkpt lat="48.41982" lon="7.29479">
        <ele>1018.3</ele>
        <time>2026-03-16T11:13:28Z</time>
      </trkpt>
      <trkpt lat="48.41975" lon="7.29475">
        <ele>1017.4</ele>
        <time>2026-03-16T11:13:33Z</time>
      </trkpt>
      <trkpt lat="48.41969" lon="7.29471">
        <ele>1016.7</ele>
        <time>2026-03-16T11:13:38Z</time>
      </trkpt>
      <trkpt lat="48.41963" lon="7.29468">
        <ele>1016</ele>
        <time>2026-03-16T11:13:43Z</time>
      </trkpt>
      <trkpt lat="48.41957" lon="7.29463">
        <ele>1015.6</ele>
        <time>2026-03-16T11:13:48Z</time>
      </trkpt>
      <trkpt lat="48.41952" lon="7.29459">
        <ele>1015.2</ele>
        <time>2026-03-16T11:13:53Z</time>
      </trkpt>
      <trkpt lat="48.41946" lon="7.29455">
        <ele>1014.8</ele>
        <time>2026-03-16T11:13:58Z</time>
      </trkpt>
      <trkpt lat="48.41943" lon="7.29449">
        <ele>1014.9</ele>
        <time>2026-03-16T11:14:03Z</time>
      </trkpt>
      <trkpt lat="48.41939" lon="7.29448">
        <ele>1014.6</ele>
        <time>2026-03-16T11:14:08Z</time>
      </trkpt>
      <trkpt lat="48.41933" lon="7.29445">
        <ele>1014.2</ele>
        <time>2026-03-16T11:14:13Z</time>
      </trkpt>
      <trkpt lat="48.41926" lon="7.29442">
        <ele>1013.9</ele>
        <time>2026-03-16T11:14:18Z</time>
      </trkpt>
      <trkpt lat="48.4192" lon="7.29438">
        <ele>1013.7</ele>
        <time>2026-03-16T11:14:23Z</time>
      </trkpt>
      <trkpt lat="48.41913" lon="7.29436">
        <ele>1012.9</ele>
        <time>2026-03-16T11:14:28Z</time>
      </trkpt>
      <trkpt lat="48.41905" lon="7.29436">
        <ele>1011.3</ele>
        <time>2026-03-16T11:14:33Z</time>
      </trkpt>
      <trkpt lat="48.41897" lon="7.29436">
        <ele>1009.7</ele>
        <time>2026-03-16T11:14:38Z</time>
      </trkpt>
      <trkpt lat="48.41889" lon="7.29431">
        <ele>1008.8</ele>
        <time>2026-03-16T11:14:43Z</time>
      </trkpt>
      <trkpt lat="48.41883" lon="7.29424">
        <ele>1008.5</ele>
        <time>2026-03-16T11:14:48Z</time>
      </trkpt>
      <trkpt lat="48.41877" lon="7.29416">
        <ele>1008.4</ele>
        <time>2026-03-16T11:14:53Z</time>
      </trkpt>
      <trkpt lat="48.41869" lon="7.29409">
        <ele>1007.5</ele>
        <time>2026-03-16T11:14:58Z</time>
      </trkpt>
      <trkpt lat="48.41864" lon="7.29402">
        <ele>1007.3</ele>
        <time>2026-03-16T11:15:03Z</time>
      </trkpt>
      <trkpt lat="48.41856" lon="7.29397">
        <ele>1006.4</ele>
        <time>2026-03-16T11:15:08Z</time>
      </trkpt>
      <trkpt lat="48.4185" lon="7.29389">
        <ele>1006.3</ele>
        <time>2026-03-16T11:15:13Z</time>
      </trkpt>
      <trkpt lat="48.41844" lon="7.29381">
        <ele>1006.3</ele>
        <time>2026-03-16T11:15:18Z</time>
      </trkpt>
      <trkpt lat="48.41839" lon="7.29376">
        <ele>1006.2</ele>
        <time>2026-03-16T11:15:23Z</time>
      </trkpt>
      <trkpt lat="48.4183" lon="7.29378">
        <ele>1004.5</ele>
        <time>2026-03-16T11:15:28Z</time>
      </trkpt>
      <trkpt lat="48.41824" lon="7.2938">
        <ele>1003.2</ele>
        <time>2026-03-16T11:15:33Z</time>
      </trkpt>
      <trkpt lat="48.41818" lon="7.29382">
        <ele>1001.9</ele>
        <time>2026-03-16T11:15:38Z</time>
      </trkpt>
      <trkpt lat="48.41812" lon="7.29383">
        <ele>1000.8</ele>
        <time>2026-03-16T11:15:43Z</time>
      </trkpt>
      <trkpt lat="48.41806" lon="7.29383">
        <ele>999.7</ele>
        <time>2026-03-16T11:15:48Z</time>
      </trkpt>
      <trkpt lat="48.418" lon="7.29381">
        <ele>999</ele>
        <time>2026-03-16T11:15:53Z</time>
      </trkpt>
      <trkpt lat="48.41793" lon="7.2938">
        <ele>997.9</ele>
        <time>2026-03-16T11:15:58Z</time>
      </trkpt>
      <trkpt lat="48.41785" lon="7.29382">
        <ele>996.3</ele>
        <time>2026-03-16T11:16:03Z</time>
      </trkpt>
      <trkpt lat="48.41775" lon="7.29383">
        <ele>994.4</ele>
        <time>2026-03-16T11:16:08Z</time>
      </trkpt>
      <trkpt lat="48.41768" lon="7.29382">
        <ele>993.3</ele>
        <time>2026-03-16T11:16:13Z</time>
      </trkpt>
      <trkpt lat="48.41763" lon="7.2938">
        <ele>992.8</ele>
        <time>2026-03-16T11:16:18Z</time>
      </trkpt>
      <trkpt lat="48.41756" lon="7.2938">
        <ele>991.6</ele>
        <time>2026-03-16T11:16:23Z</time>
      </trkpt>
      <trkpt lat="48.4175" lon="7.2938">
        <ele>990.6</ele>
        <time>2026-03-16T11:16:28Z</time>
      </trkpt>
      <trkpt lat="48.41743" lon="7.29379">
        <ele>989.8</ele>
        <time>2026-03-16T11:16:33Z</time>
      </trkpt>
      <trkpt lat="48.41734" lon="7.29377">
        <ele>988.9</ele>
        <time>2026-03-16T11:16:38Z</time>
      </trkpt>
      <trkpt lat="48.41726" lon="7.29376">
        <ele>988</ele>
        <time>2026-03-16T11:16:43Z</time>
      </trkpt>
      <trkpt lat="48.4172" lon="7.29374">
        <ele>987.5</ele>
        <time>2026-03-16T11:16:48Z</time>
      </trkpt>
      <trkpt lat="48.41714" lon="7.29372">
        <ele>987.1</ele>
        <time>2026-03-16T11:16:53Z</time>
      </trkpt>
      <trkpt lat="48.41707" lon="7.29369">
        <ele>986.7</ele>
        <time>2026-03-16T11:16:58Z</time>
      </trkpt>
      <trkpt lat="48.41699" lon="7.29367">
        <ele>986</ele>
        <time>2026-03-16T11:17:03Z</time>
      </trkpt>
      <trkpt lat="48.4169" lon="7.29367">
        <ele>984.7</ele>
        <time>2026-03-16T11:17:08Z</time>
      </trkpt>
      <trkpt lat="48.41683" lon="7.29365">
        <ele>984.2</ele>
        <time>2026-03-16T11:17:13Z</time>
      </trkpt>
      <trkpt lat="48.41678" lon="7.29364">
        <ele>983.7</ele>
        <time>2026-03-16T11:17:18Z</time>
      </trkpt>
      <trkpt lat="48.41672" lon="7.29361">
        <ele>983.4</ele>
        <time>2026-03-16T11:17:23Z</time>
      </trkpt>
      <trkpt lat="48.41664" lon="7.2936">
        <ele>982.4</ele>
        <time>2026-03-16T11:17:28Z</time>
      </trkpt>
      <trkpt lat="48.41658" lon="7.29358">
        <ele>981.7</ele>
        <time>2026-03-16T11:17:33Z</time>
      </trkpt>
      <trkpt lat="48.4165" lon="7.29354">
        <ele>981.1</ele>
        <time>2026-03-16T11:17:38Z</time>
      </trkpt>
      <trkpt lat="48.41643" lon="7.29351">
        <ele>980.4</ele>
        <time>2026-03-16T11:17:43Z</time>
      </trkpt>
      <trkpt lat="48.41635" lon="7.29348">
        <ele>979.6</ele>
        <time>2026-03-16T11:17:48Z</time>
      </trkpt>
      <trkpt lat="48.41627" lon="7.29348">
        <ele>978.1</ele>
        <time>2026-03-16T11:17:53Z</time>
      </trkpt>
      <trkpt lat="48.41619" lon="7.29347">
        <ele>976.9</ele>
        <time>2026-03-16T11:17:58Z</time>
      </trkpt>
      <trkpt lat="48.41614" lon="7.29349">
        <ele>975.6</ele>
        <time>2026-03-16T11:18:03Z</time>
      </trkpt>
      <trkpt lat="48.41608" lon="7.29346">
        <ele>975.1</ele>
        <time>2026-03-16T11:18:08Z</time>
      </trkpt>
      <trkpt lat="48.416" lon="7.29343">
        <ele>974.2</ele>
        <time>2026-03-16T11:18:13Z</time>
      </trkpt>
      <trkpt lat="48.41591" lon="7.2934">
        <ele>973.2</ele>
        <time>2026-03-16T11:18:18Z</time>
      </trkpt>
      <trkpt lat="48.41582" lon="7.29338">
        <ele>971.9</ele>
        <time>2026-03-16T11:18:23Z</time>
      </trkpt>
      <trkpt lat="48.41574" lon="7.29339">
        <ele>969.9</ele>
        <time>2026-03-16T11:18:28Z</time>
      </trkpt>
      <trkpt lat="48.41566" lon="7.2934">
        <ele>967.9</ele>
        <time>2026-03-16T11:18:33Z</time>
      </trkpt>
      <trkpt lat="48.4156" lon="7.29343">
        <ele>966</ele>
        <time>2026-03-16T11:18:38Z</time>
      </trkpt>
      <trkpt lat="48.41553" lon="7.29343">
        <ele>964.5</ele>
        <time>2026-03-16T11:18:43Z</time>
      </trkpt>
      <trkpt lat="48.41546" lon="7.29346">
        <ele>962.4</ele>
        <time>2026-03-16T11:18:48Z</time>
      </trkpt>
      <trkpt lat="48.41541" lon="7.29348">
        <ele>961</ele>
        <time>2026-03-16T11:18:53Z</time>
      </trkpt>
      <trkpt lat="48.41535" lon="7.29351">
        <ele>959.2</ele>
        <time>2026-03-16T11:18:58Z</time>
      </trkpt>
      <trkpt lat="48.4153" lon="7.29354">
        <ele>957.6</ele>
        <time>2026-03-16T11:19:03Z</time>
      </trkpt>
      <trkpt lat="48.41525" lon="7.29352">
        <ele>956.8</ele>
        <time>2026-03-16T11:19:08Z</time>
      </trkpt>
      <trkpt lat="48.41524" lon="7.29352">
        <ele>956.6</ele>
        <time>2026-03-16T11:19:13Z</time>
      </trkpt>
      <trkpt lat="48.41524" lon="7.29352">
        <ele>956.6</ele>
        <time>2026-03-16T11:19:18Z</time>
      </trkpt>
      <trkpt lat="48.41519" lon="7.29355">
        <ele>955</ele>
        <time>2026-03-16T11:19:23Z</time>
      </trkpt>
      <trkpt lat="48.41513" lon="7.29358">
        <ele>953.3</ele>
        <time>2026-03-16T11:19:28Z</time>
      </trkpt>
      <trkpt lat="48.4151" lon="7.29359">
        <ele>952.5</ele>
        <time>2026-03-16T11:19:33Z</time>
      </trkpt>
      <trkpt lat="48.41504" lon="7.29363">
        <ele>950.6</ele>
        <time>2026-03-16T11:19:38Z</time>
      </trkpt>
      <trkpt lat="48.41499" lon="7.29363">
        <ele>949.5</ele>
        <time>2026-03-16T11:19:43Z</time>
      </trkpt>
      <trkpt lat="48.41491" lon="7.2936">
        <ele>948</ele>
        <time>2026-03-16T11:19:48Z</time>
      </trkpt>
      <trkpt lat="48.41484" lon="7.29363">
        <ele>945.8</ele>
        <time>2026-03-16T11:19:53Z</time>
      </trkpt>
      <trkpt lat="48.41479" lon="7.29365">
        <ele>944.3</ele>
        <time>2026-03-16T11:19:58Z</time>
      </trkpt>
      <trkpt lat="48.41475" lon="7.29366">
        <ele>943.2</ele>
        <time>2026-03-16T11:20:03Z</time>
      </trkpt>
      <trkpt lat="48.41471" lon="7.29367">
        <ele>942.1</ele>
        <time>2026-03-16T11:20:08Z</time>
      </trkpt>
      <trkpt lat="48.41466" lon="7.29367">
        <ele>940.8</ele>
        <time>2026-03-16T11:20:13Z</time>
      </trkpt>
      <trkpt lat="48.41462" lon="7.29368">
        <ele>939.7</ele>
        <time>2026-03-16T11:20:18Z</time>
      </trkpt>
      <trkpt lat="48.41456" lon="7.2937">
        <ele>937.9</ele>
        <time>2026-03-16T11:20:23Z</time>
      </trkpt>
      <trkpt lat="48.41451" lon="7.29372">
        <ele>936.4</ele>
        <time>2026-03-16T11:20:28Z</time>
      </trkpt>
      <trkpt lat="48.41446" lon="7.29375">
        <ele>934.7</ele>
        <time>2026-03-16T11:20:33Z</time>
      </trkpt>
      <trkpt lat="48.41441" lon="7.29374">
        <ele>933.6</ele>
        <time>2026-03-16T11:20:38Z</time>
      </trkpt>
      <trkpt lat="48.41438" lon="7.29372">
        <ele>933.2</ele>
        <time>2026-03-16T11:20:43Z</time>
      </trkpt>
      <trkpt lat="48.41433" lon="7.29367">
        <ele>932.7</ele>
        <time>2026-03-16T11:20:48Z</time>
      </trkpt>
      <trkpt lat="48.41427" lon="7.29366">
        <ele>931.4</ele>
        <time>2026-03-16T11:20:53Z</time>
      </trkpt>
      <trkpt lat="48.41421" lon="7.29365">
        <ele>930.1</ele>
        <time>2026-03-16T11:20:58Z</time>
      </trkpt>
      <trkpt lat="48.41413" lon="7.29359">
        <ele>929.4</ele>
        <time>2026-03-16T11:21:03Z</time>
      </trkpt>
      <trkpt lat="48.41407" lon="7.29351">
        <ele>929.7</ele>
        <time>2026-03-16T11:21:08Z</time>
      </trkpt>
      <trkpt lat="48.41402" lon="7.29346">
        <ele>929.7</ele>
        <time>2026-03-16T11:21:13Z</time>
      </trkpt>
      <trkpt lat="48.41395" lon="7.29342">
        <ele>929.3</ele>
        <time>2026-03-16T11:21:18Z</time>
      </trkpt>
      <trkpt lat="48.41389" lon="7.29336">
        <ele>929.3</ele>
        <time>2026-03-16T11:21:23Z</time>
      </trkpt>
      <trkpt lat="48.41384" lon="7.29329">
        <ele>930</ele>
        <time>2026-03-16T11:21:28Z</time>
      </trkpt>
      <trkpt lat="48.4138" lon="7.29326">
        <ele>930.2</ele>
        <time>2026-03-16T11:21:33Z</time>
      </trkpt>
      <trkpt lat="48.41374" lon="7.29325">
        <ele>929.5</ele>
        <time>2026-03-16T11:21:38Z</time>
      </trkpt>
      <trkpt lat="48.41368" lon="7.29322">
        <ele>929.4</ele>
        <time>2026-03-16T11:21:43Z</time>
      </trkpt>
      <trkpt lat="48.4136" lon="7.29315">
        <ele>930</ele>
        <time>2026-03-16T11:21:48Z</time>
      </trkpt>
      <trkpt lat="48.41354" lon="7.2931">
        <ele>930.5</ele>
        <time>2026-03-16T11:21:53Z</time>
      </trkpt>
      <trkpt lat="48.41348" lon="7.29307">
        <ele>930.4</ele>
        <time>2026-03-16T11:21:58Z</time>
      </trkpt>
      <trkpt lat="48.41345" lon="7.29307">
        <ele>930</ele>
        <time>2026-03-16T11:22:03Z</time>
      </trkpt>
      <trkpt lat="48.41344" lon="7.29307">
        <ele>929.8</ele>
        <time>2026-03-16T11:22:08Z</time>
      </trkpt>
      <trkpt lat="48.41344" lon="7.29307">
        <ele>929.8</ele>
        <time>2026-03-16T11:22:13Z</time>
      </trkpt>
      <trkpt lat="48.41344" lon="7.29307">
        <ele>929.8</ele>
        <time>2026-03-16T11:22:18Z</time>
      </trkpt>
      <trkpt lat="48.4134" lon="7.29302">
        <ele>930.6</ele>
        <time>2026-03-16T11:22:23Z</time>
      </trkpt>
      <trkpt lat="48.41335" lon="7.29297">
        <ele>931.3</ele>
        <time>2026-03-16T11:22:28Z</time>
      </trkpt>
      <trkpt lat="48.41329" lon="7.29292">
        <ele>932.2</ele>
        <time>2026-03-16T11:22:33Z</time>
      </trkpt>
      <trkpt lat="48.41323" lon="7.29285">
        <ele>933.8</ele>
        <time>2026-03-16T11:22:38Z</time>
      </trkpt>
      <trkpt lat="48.4132" lon="7.2928">
        <ele>935</ele>
        <time>2026-03-16T11:22:43Z</time>
      </trkpt>
      <trkpt lat="48.41315" lon="7.29277">
        <ele>935.6</ele>
        <time>2026-03-16T11:22:48Z</time>
      </trkpt>
      <trkpt lat="48.41307" lon="7.29273">
        <ele>936.2</ele>
        <time>2026-03-16T11:22:53Z</time>
      </trkpt>
      <trkpt lat="48.413" lon="7.29273">
        <ele>935.9</ele>
        <time>2026-03-16T11:22:58Z</time>
      </trkpt>
      <trkpt lat="48.41294" lon="7.29277">
        <ele>934.5</ele>
        <time>2026-03-16T11:23:03Z</time>
      </trkpt>
      <trkpt lat="48.41294" lon="7.29279">
        <ele>934</ele>
        <time>2026-03-16T11:23:08Z</time>
      </trkpt>
      <trkpt lat="48.41293" lon="7.29278">
        <ele>934.2</ele>
        <time>2026-03-16T11:23:13Z</time>
      </trkpt>
      <trkpt lat="48.41292" lon="7.29278">
        <ele>934.1</ele>
        <time>2026-03-16T11:23:18Z</time>
      </trkpt>
      <trkpt lat="48.41292" lon="7.29278">
        <ele>934.1</ele>
        <time>2026-03-16T11:23:23Z</time>
      </trkpt>
      <trkpt lat="48.41292" lon="7.29278">
        <ele>934.1</ele>
        <time>2026-03-16T11:23:28Z</time>
      </trkpt>
      <trkpt lat="48.41292" lon="7.29278">
        <ele>934.1</ele>
        <time>2026-03-16T11:23:33Z</time>
      </trkpt>
      <trkpt lat="48.41292" lon="7.29278">
        <ele>934.1</ele>
        <time>2026-03-16T11:23:38Z</time>
      </trkpt>
      <trkpt lat="48.41292" lon="7.29278">
        <ele>934.1</ele>
        <time>2026-03-16T11:23:43Z</time>
      </trkpt>
      <trkpt lat="48.41292" lon="7.29278">
        <ele>934.1</ele>
        <time>2026-03-16T11:23:48Z</time>
      </trkpt>
      <trkpt lat="48.41292" lon="7.29278">
        <ele>934.1</ele>
        <time>2026-03-16T11:23:53Z</time>
      </trkpt>
      <trkpt lat="48.41292" lon="7.29278">
        <ele>934.1</ele>
        <time>2026-03-16T11:23:58Z</time>
      </trkpt>
      <trkpt lat="48.41292" lon="7.29278">
        <ele>934.1</ele>
        <time>2026-03-16T11:24:03Z</time>
      </trkpt>
      <trkpt lat="48.41292" lon="7.29278">
        <ele>934.1</ele>
        <time>2026-03-16T11:24:08Z</time>
      </trkpt>
      <trkpt lat="48.41292" lon="7.29278">
        <ele>934.1</ele>
        <time>2026-03-16T11:24:13Z</time>
      </trkpt>
      <trkpt lat="48.41292" lon="7.29278">
        <ele>934.1</ele>
        <time>2026-03-16T11:24:18Z</time>
      </trkpt>
      <trkpt lat="48.41292" lon="7.29278">
        <ele>934.1</ele>
        <time>2026-03-16T11:24:23Z</time>
      </trkpt>
      <trkpt lat="48.41292" lon="7.29278">
        <ele>934.1</ele>
        <time>2026-03-16T11:24:28Z</time>
      </trkpt>
      <trkpt lat="48.41292" lon="7.29278">
        <ele>934.1</ele>
        <time>2026-03-16T11:24:33Z</time>
      </trkpt>
      <trkpt lat="48.41292" lon="7.29278">
        <ele>934.1</ele>
        <time>2026-03-16T11:24:38Z</time>
      </trkpt>
      <trkpt lat="48.41292" lon="7.29278">
        <ele>934.1</ele>
        <time>2026-03-16T11:24:43Z</time>
      </trkpt>
      <trkpt lat="48.41292" lon="7.29278">
        <ele>934.1</ele>
        <time>2026-03-16T11:24:48Z</time>
      </trkpt>
      <trkpt lat="48.41292" lon="7.29278">
        <ele>934.1</ele>
        <time>2026-03-16T11:24:53Z</time>
      </trkpt>
      <trkpt lat="48.41292" lon="7.29278">
        <ele>934.1</ele>
        <time>2026-03-16T11:24:58Z</time>
      </trkpt>
      <trkpt lat="48.41292" lon="7.29278">
        <ele>934.1</ele>
        <time>2026-03-16T11:25:03Z</time>
      </trkpt>
      <trkpt lat="48.41292" lon="7.29278">
        <ele>934.1</ele>
        <time>2026-03-16T11:25:08Z</time>
      </trkpt>
      <trkpt lat="48.41292" lon="7.29278">
        <ele>934.1</ele>
        <time>2026-03-16T11:25:13Z</time>
      </trkpt>
      <trkpt lat="48.41292" lon="7.29278">
        <ele>934.1</ele>
        <time>2026-03-16T11:25:18Z</time>
      </trkpt>
      <trkpt lat="48.41292" lon="7.29278">
        <ele>934.1</ele>
        <time>2026-03-16T11:25:23Z</time>
      </trkpt>
      <trkpt lat="48.41292" lon="7.29278">
        <ele>934.1</ele>
        <time>2026-03-16T11:25:28Z</time>
      </trkpt>
      <trkpt lat="48.41292" lon="7.29278">
        <ele>934.1</ele>
        <time>2026-03-16T11:25:33Z</time>
      </trkpt>
      <trkpt lat="48.41292" lon="7.29278">
        <ele>934.1</ele>
        <time>2026-03-16T11:25:38Z</time>
      </trkpt>
      <trkpt lat="48.41292" lon="7.29278">
        <ele>934.1</ele>
        <time>2026-03-16T11:25:43Z</time>
      </trkpt>
      <trkpt lat="48.41292" lon="7.29278">
        <ele>934.1</ele>
        <time>2026-03-16T11:25:48Z</time>
      </trkpt>
      <trkpt lat="48.41292" lon="7.29278">
        <ele>934.1</ele>
        <time>2026-03-16T11:25:53Z</time>
      </trkpt>
      <trkpt lat="48.41292" lon="7.29278">
        <ele>934.1</ele>
        <time>2026-03-16T11:25:58Z</time>
      </trkpt>
      <trkpt lat="48.41292" lon="7.29278">
        <ele>934.1</ele>
        <time>2026-03-16T11:26:03Z</time>
      </trkpt>
      <trkpt lat="48.41292" lon="7.29278">
        <ele>934.1</ele>
        <time>2026-03-16T11:26:08Z</time>
      </trkpt>
      <trkpt lat="48.41292" lon="7.29278">
        <ele>934.1</ele>
        <time>2026-03-16T11:26:13Z</time>
      </trkpt>
      <trkpt lat="48.41292" lon="7.29278">
        <ele>934.1</ele>
        <time>2026-03-16T11:26:18Z</time>
      </trkpt>
      <trkpt lat="48.41292" lon="7.29278">
        <ele>934.1</ele>
        <time>2026-03-16T11:26:23Z</time>
      </trkpt>
      <trkpt lat="48.41292" lon="7.29278">
        <ele>934.1</ele>
        <time>2026-03-16T11:26:28Z</time>
      </trkpt>
      <trkpt lat="48.41292" lon="7.29278">
        <ele>934.1</ele>
        <time>2026-03-16T11:26:33Z</time>
      </trkpt>
      <trkpt lat="48.41292" lon="7.29278">
        <ele>934.1</ele>
        <time>2026-03-16T11:26:38Z</time>
      </trkpt>
      <trkpt lat="48.41292" lon="7.29278">
        <ele>934.1</ele>
        <time>2026-03-16T11:26:43Z</time>
      </trkpt>
      <trkpt lat="48.41292" lon="7.29278">
        <ele>934.1</ele>
        <time>2026-03-16T11:26:48Z</time>
      </trkpt>
      <trkpt lat="48.41283" lon="7.29283">
        <ele>932.4</ele>
        <time>2026-03-16T11:26:53Z</time>
      </trkpt>
      <trkpt lat="48.41282" lon="7.29283">
        <ele>932.3</ele>
        <time>2026-03-16T11:26:58Z</time>
      </trkpt>
      <trkpt lat="48.41282" lon="7.29283">
        <ele>932.3</ele>
        <time>2026-03-16T11:27:03Z</time>
      </trkpt>
      <trkpt lat="48.41282" lon="7.29283">
        <ele>932.3</ele>
        <time>2026-03-16T11:27:08Z</time>
      </trkpt>
      <trkpt lat="48.41282" lon="7.29283">
        <ele>932.3</ele>
        <time>2026-03-16T11:27:13Z</time>
      </trkpt>
      <trkpt lat="48.41282" lon="7.29283">
        <ele>932.3</ele>
        <time>2026-03-16T11:27:18Z</time>
      </trkpt>
      <trkpt lat="48.4128" lon="7.29276">
        <ele>934</ele>
        <time>2026-03-16T11:27:23Z</time>
      </trkpt>
      <trkpt lat="48.41276" lon="7.29271">
        <ele>935.1</ele>
        <time>2026-03-16T11:27:28Z</time>
      </trkpt>
      <trkpt lat="48.41272" lon="7.29271">
        <ele>934.9</ele>
        <time>2026-03-16T11:27:33Z</time>
      </trkpt>
      <trkpt lat="48.41267" lon="7.29267">
        <ele>935.7</ele>
        <time>2026-03-16T11:27:38Z</time>
      </trkpt>
      <trkpt lat="48.41261" lon="7.29265">
        <ele>935.8</ele>
        <time>2026-03-16T11:27:43Z</time>
      </trkpt>
      <trkpt lat="48.41252" lon="7.29262">
        <ele>936.1</ele>
        <time>2026-03-16T11:27:48Z</time>
      </trkpt>
      <trkpt lat="48.41245" lon="7.29263">
        <ele>935.3</ele>
        <time>2026-03-16T11:27:53Z</time>
      </trkpt>
      <trkpt lat="48.41237" lon="7.29261">
        <ele>935.1</ele>
        <time>2026-03-16T11:27:58Z</time>
      </trkpt>
      <trkpt lat="48.4123" lon="7.29262">
        <ele>934.3</ele>
        <time>2026-03-16T11:28:03Z</time>
      </trkpt>
      <trkpt lat="48.41222" lon="7.29264">
        <ele>933.2</ele>
        <time>2026-03-16T11:28:08Z</time>
      </trkpt>
      <trkpt lat="48.41215" lon="7.29267">
        <ele>932</ele>
        <time>2026-03-16T11:28:13Z</time>
      </trkpt>
      <trkpt lat="48.41209" lon="7.29271">
        <ele>930.8</ele>
        <time>2026-03-16T11:28:18Z</time>
      </trkpt>
      <trkpt lat="48.41203" lon="7.29279">
        <ele>928.8</ele>
        <time>2026-03-16T11:28:23Z</time>
      </trkpt>
      <trkpt lat="48.41197" lon="7.29287">
        <ele>926.8</ele>
        <time>2026-03-16T11:28:28Z</time>
      </trkpt>
      <trkpt lat="48.41192" lon="7.29293">
        <ele>925.5</ele>
        <time>2026-03-16T11:28:33Z</time>
      </trkpt>
      <trkpt lat="48.41187" lon="7.29298">
        <ele>924.3</ele>
        <time>2026-03-16T11:28:38Z</time>
      </trkpt>
      <trkpt lat="48.41184" lon="7.29301">
        <ele>923.7</ele>
        <time>2026-03-16T11:28:43Z</time>
      </trkpt>
      <trkpt lat="48.41179" lon="7.29305">
        <ele>922.8</ele>
        <time>2026-03-16T11:28:48Z</time>
      </trkpt>
      <trkpt lat="48.41174" lon="7.29312">
        <ele>921.5</ele>
        <time>2026-03-16T11:28:53Z</time>
      </trkpt>
      <trkpt lat="48.41168" lon="7.29322">
        <ele>919.8</ele>
        <time>2026-03-16T11:28:58Z</time>
      </trkpt>
      <trkpt lat="48.41164" lon="7.29322">
        <ele>919.5</ele>
        <time>2026-03-16T11:29:03Z</time>
      </trkpt>
      <trkpt lat="48.41165" lon="7.29321">
        <ele>919.7</ele>
        <time>2026-03-16T11:29:08Z</time>
      </trkpt>
      <trkpt lat="48.4117" lon="7.29307">
        <ele>922.2</ele>
        <time>2026-03-16T11:29:13Z</time>
      </trkpt>
      <trkpt lat="48.41176" lon="7.29308">
        <ele>922.2</ele>
        <time>2026-03-16T11:29:18Z</time>
      </trkpt>
      <trkpt lat="48.41181" lon="7.29316">
        <ele>921</ele>
        <time>2026-03-16T11:29:23Z</time>
      </trkpt>
      <trkpt lat="48.41186" lon="7.2931">
        <ele>922.2</ele>
        <time>2026-03-16T11:29:28Z</time>
      </trkpt>
      <trkpt lat="48.41188" lon="7.29312">
        <ele>921.9</ele>
        <time>2026-03-16T11:29:33Z</time>
      </trkpt>
      <trkpt lat="48.41192" lon="7.29306">
        <ele>923.1</ele>
        <time>2026-03-16T11:29:38Z</time>
      </trkpt>
      <trkpt lat="48.41196" lon="7.29297">
        <ele>924.9</ele>
        <time>2026-03-16T11:29:43Z</time>
      </trkpt>
      <trkpt lat="48.412" lon="7.29288">
        <ele>926.8</ele>
        <time>2026-03-16T11:29:48Z</time>
      </trkpt>
      <trkpt lat="48.41202" lon="7.29283">
        <ele>927.9</ele>
        <time>2026-03-16T11:29:53Z</time>
      </trkpt>
      <trkpt lat="48.41206" lon="7.29277">
        <ele>929.3</ele>
        <time>2026-03-16T11:29:58Z</time>
      </trkpt>
      <trkpt lat="48.4121" lon="7.29273">
        <ele>930.4</ele>
        <time>2026-03-16T11:30:03Z</time>
      </trkpt>
      <trkpt lat="48.41211" lon="7.29272">
        <ele>930.7</ele>
        <time>2026-03-16T11:30:08Z</time>
      </trkpt>
      <trkpt lat="48.41217" lon="7.2927">
        <ele>931.6</ele>
        <time>2026-03-16T11:30:13Z</time>
      </trkpt>
      <trkpt lat="48.41221" lon="7.29268">
        <ele>932.3</ele>
        <time>2026-03-16T11:30:18Z</time>
      </trkpt>
      <trkpt lat="48.41224" lon="7.29267">
        <ele>932.7</ele>
        <time>2026-03-16T11:30:23Z</time>
      </trkpt>
      <trkpt lat="48.41223" lon="7.29263">
        <ele>933.5</ele>
        <time>2026-03-16T11:30:28Z</time>
      </trkpt>
      <trkpt lat="48.41226" lon="7.2926">
        <ele>934.5</ele>
        <time>2026-03-16T11:30:33Z</time>
      </trkpt>
      <trkpt lat="48.41232" lon="7.2926">
        <ele>935</ele>
        <time>2026-03-16T11:30:38Z</time>
      </trkpt>
      <trkpt lat="48.41238" lon="7.29259">
        <ele>935.7</ele>
        <time>2026-03-16T11:30:43Z</time>
      </trkpt>
      <trkpt lat="48.41243" lon="7.29261">
        <ele>935.6</ele>
        <time>2026-03-16T11:30:48Z</time>
      </trkpt>
      <trkpt lat="48.41249" lon="7.29266">
        <ele>934.9</ele>
        <time>2026-03-16T11:30:53Z</time>
      </trkpt>
      <trkpt lat="48.41255" lon="7.29268">
        <ele>934.7</ele>
        <time>2026-03-16T11:30:58Z</time>
      </trkpt>
      <trkpt lat="48.41261" lon="7.29271">
        <ele>934.3</ele>
        <time>2026-03-16T11:31:03Z</time>
      </trkpt>
      <trkpt lat="48.41264" lon="7.29271">
        <ele>934.5</ele>
        <time>2026-03-16T11:31:08Z</time>
      </trkpt>
      <trkpt lat="48.41271" lon="7.29274">
        <ele>934.1</ele>
        <time>2026-03-16T11:31:13Z</time>
      </trkpt>
      <trkpt lat="48.41278" lon="7.29274">
        <ele>934.4</ele>
        <time>2026-03-16T11:31:18Z</time>
      </trkpt>
      <trkpt lat="48.41282" lon="7.29275">
        <ele>934.4</ele>
        <time>2026-03-16T11:31:23Z</time>
      </trkpt>
      <trkpt lat="48.41287" lon="7.29276">
        <ele>934.4</ele>
        <time>2026-03-16T11:31:28Z</time>
      </trkpt>
      <trkpt lat="48.41294" lon="7.29277">
        <ele>934.5</ele>
        <time>2026-03-16T11:31:33Z</time>
      </trkpt>
      <trkpt lat="48.41299" lon="7.29279">
        <ele>934.2</ele>
        <time>2026-03-16T11:31:38Z</time>
      </trkpt>
      <trkpt lat="48.41307" lon="7.29281">
        <ele>934.1</ele>
        <time>2026-03-16T11:31:43Z</time>
      </trkpt>
      <trkpt lat="48.41313" lon="7.29285">
        <ele>933.3</ele>
        <time>2026-03-16T11:31:48Z</time>
      </trkpt>
      <trkpt lat="48.41318" lon="7.29284">
        <ele>933.8</ele>
        <time>2026-03-16T11:31:53Z</time>
      </trkpt>
      <trkpt lat="48.41321" lon="7.29282">
        <ele>934.5</ele>
        <time>2026-03-16T11:31:58Z</time>
      </trkpt>
      <trkpt lat="48.41319" lon="7.29278">
        <ele>935.5</ele>
        <time>2026-03-16T11:32:03Z</time>
      </trkpt>
      <trkpt lat="48.41316" lon="7.29273">
        <ele>936.7</ele>
        <time>2026-03-16T11:32:08Z</time>
      </trkpt>
      <trkpt lat="48.41312" lon="7.29268">
        <ele>937.9</ele>
        <time>2026-03-16T11:32:13Z</time>
      </trkpt>
      <trkpt lat="48.41309" lon="7.29263">
        <ele>939</ele>
        <time>2026-03-16T11:32:18Z</time>
      </trkpt>
      <trkpt lat="48.41305" lon="7.29257">
        <ele>940.4</ele>
        <time>2026-03-16T11:32:23Z</time>
      </trkpt>
      <trkpt lat="48.41302" lon="7.29252">
        <ele>941.6</ele>
        <time>2026-03-16T11:32:28Z</time>
      </trkpt>
      <trkpt lat="48.41298" lon="7.29246">
        <ele>943.1</ele>
        <time>2026-03-16T11:32:33Z</time>
      </trkpt>
      <trkpt lat="48.41292" lon="7.29242">
        <ele>943.9</ele>
        <time>2026-03-16T11:32:38Z</time>
      </trkpt>
      <trkpt lat="48.41286" lon="7.29238">
        <ele>944.7</ele>
        <time>2026-03-16T11:32:43Z</time>
      </trkpt>
      <trkpt lat="48.4128" lon="7.29233">
        <ele>945.7</ele>
        <time>2026-03-16T11:32:48Z</time>
      </trkpt>
      <trkpt lat="48.41275" lon="7.29232">
        <ele>945.7</ele>
        <time>2026-03-16T11:32:53Z</time>
      </trkpt>
      <trkpt lat="48.4127" lon="7.29229">
        <ele>946.2</ele>
        <time>2026-03-16T11:32:58Z</time>
      </trkpt>
      <trkpt lat="48.41266" lon="7.29226">
        <ele>946.7</ele>
        <time>2026-03-16T11:33:03Z</time>
      </trkpt>
      <trkpt lat="48.41261" lon="7.29225">
        <ele>946.7</ele>
        <time>2026-03-16T11:33:08Z</time>
      </trkpt>
      <trkpt lat="48.41258" lon="7.29223">
        <ele>947</ele>
        <time>2026-03-16T11:33:13Z</time>
      </trkpt>
      <trkpt lat="48.41256" lon="7.2922">
        <ele>947.7</ele>
        <time>2026-03-16T11:33:18Z</time>
      </trkpt>
      <trkpt lat="48.41254" lon="7.29217">
        <ele>948.4</ele>
        <time>2026-03-16T11:33:23Z</time>
      </trkpt>
      <trkpt lat="48.4125" lon="7.29215">
        <ele>948.7</ele>
        <time>2026-03-16T11:33:28Z</time>
      </trkpt>
      <trkpt lat="48.41246" lon="7.29214">
        <ele>948.4</ele>
        <time>2026-03-16T11:33:33Z</time>
      </trkpt>
      <trkpt lat="48.4124" lon="7.29216">
        <ele>947.2</ele>
        <time>2026-03-16T11:33:38Z</time>
      </trkpt>
      <trkpt lat="48.41234" lon="7.29216">
        <ele>946.5</ele>
        <time>2026-03-16T11:33:43Z</time>
      </trkpt>
      <trkpt lat="48.4123" lon="7.29215">
        <ele>946.2</ele>
        <time>2026-03-16T11:33:48Z</time>
      </trkpt>
      <trkpt lat="48.41224" lon="7.29215">
        <ele>945.5</ele>
        <time>2026-03-16T11:33:53Z</time>
      </trkpt>
      <trkpt lat="48.41219" lon="7.29215">
        <ele>944.9</ele>
        <time>2026-03-16T11:33:58Z</time>
      </trkpt>
      <trkpt lat="48.41216" lon="7.29214">
        <ele>944.8</ele>
        <time>2026-03-16T11:34:03Z</time>
      </trkpt>
      <trkpt lat="48.41211" lon="7.29214">
        <ele>944.2</ele>
        <time>2026-03-16T11:34:08Z</time>
      </trkpt>
      <trkpt lat="48.41206" lon="7.29214">
        <ele>943.6</ele>
        <time>2026-03-16T11:34:13Z</time>
      </trkpt>
      <trkpt lat="48.41201" lon="7.29213">
        <ele>943.2</ele>
        <time>2026-03-16T11:34:18Z</time>
      </trkpt>
      <trkpt lat="48.41195" lon="7.29212">
        <ele>942.7</ele>
        <time>2026-03-16T11:34:23Z</time>
      </trkpt>
      <trkpt lat="48.41189" lon="7.29214">
        <ele>941.5</ele>
        <time>2026-03-16T11:34:28Z</time>
      </trkpt>
      <trkpt lat="48.41184" lon="7.29215">
        <ele>940.7</ele>
        <time>2026-03-16T11:34:33Z</time>
      </trkpt>
      <trkpt lat="48.4118" lon="7.29214">
        <ele>940.4</ele>
        <time>2026-03-16T11:34:38Z</time>
      </trkpt>
      <trkpt lat="48.41174" lon="7.29213">
        <ele>939.9</ele>
        <time>2026-03-16T11:34:43Z</time>
      </trkpt>
      <trkpt lat="48.41168" lon="7.29211">
        <ele>939.6</ele>
        <time>2026-03-16T11:34:48Z</time>
      </trkpt>
      <trkpt lat="48.41163" lon="7.29209">
        <ele>939.1</ele>
        <time>2026-03-16T11:34:53Z</time>
      </trkpt>
      <trkpt lat="48.41156" lon="7.29208">
        <ele>937.9</ele>
        <time>2026-03-16T11:34:58Z</time>
      </trkpt>
      <trkpt lat="48.41153" lon="7.29204">
        <ele>938.1</ele>
        <time>2026-03-16T11:35:03Z</time>
      </trkpt>
      <trkpt lat="48.41148" lon="7.292">
        <ele>937.9</ele>
        <time>2026-03-16T11:35:08Z</time>
      </trkpt>
      <trkpt lat="48.41142" lon="7.29198">
        <ele>937</ele>
        <time>2026-03-16T11:35:13Z</time>
      </trkpt>
      <trkpt lat="48.41138" lon="7.29192">
        <ele>937.3</ele>
        <time>2026-03-16T11:35:18Z</time>
      </trkpt>
      <trkpt lat="48.41134" lon="7.29187">
        <ele>937.3</ele>
        <time>2026-03-16T11:35:23Z</time>
      </trkpt>
      <trkpt lat="48.4113" lon="7.29183">
        <ele>937.2</ele>
        <time>2026-03-16T11:35:28Z</time>
      </trkpt>
      <trkpt lat="48.41125" lon="7.29177">
        <ele>937.1</ele>
        <time>2026-03-16T11:35:33Z</time>
      </trkpt>
      <trkpt lat="48.41121" lon="7.29173">
        <ele>936.9</ele>
        <time>2026-03-16T11:35:38Z</time>
      </trkpt>
      <trkpt lat="48.41115" lon="7.29167">
        <ele>936.5</ele>
        <time>2026-03-16T11:35:43Z</time>
      </trkpt>
      <trkpt lat="48.4111" lon="7.2916">
        <ele>937</ele>
        <time>2026-03-16T11:35:48Z</time>
      </trkpt>
      <trkpt lat="48.41107" lon="7.29153">
        <ele>938</ele>
        <time>2026-03-16T11:35:53Z</time>
      </trkpt>
      <trkpt lat="48.41102" lon="7.29148">
        <ele>937.9</ele>
        <time>2026-03-16T11:35:58Z</time>
      </trkpt>
      <trkpt lat="48.41095" lon="7.29144">
        <ele>937.1</ele>
        <time>2026-03-16T11:36:03Z</time>
      </trkpt>
      <trkpt lat="48.41089" lon="7.29141">
        <ele>936.3</ele>
        <time>2026-03-16T11:36:08Z</time>
      </trkpt>
      <trkpt lat="48.41085" lon="7.29136">
        <ele>936.4</ele>
        <time>2026-03-16T11:36:13Z</time>
      </trkpt>
      <trkpt lat="48.41082" lon="7.29129">
        <ele>937.5</ele>
        <time>2026-03-16T11:36:18Z</time>
      </trkpt>
      <trkpt lat="48.41079" lon="7.29121">
        <ele>939.3</ele>
        <time>2026-03-16T11:36:23Z</time>
      </trkpt>
      <trkpt lat="48.41076" lon="7.29113">
        <ele>941</ele>
        <time>2026-03-16T11:36:28Z</time>
      </trkpt>
      <trkpt lat="48.41072" lon="7.29106">
        <ele>942.6</ele>
        <time>2026-03-16T11:36:33Z</time>
      </trkpt>
      <trkpt lat="48.41068" lon="7.29098">
        <ele>944.5</ele>
        <time>2026-03-16T11:36:38Z</time>
      </trkpt>
      <trkpt lat="48.41064" lon="7.29091">
        <ele>946.1</ele>
        <time>2026-03-16T11:36:43Z</time>
      </trkpt>
      <trkpt lat="48.41063" lon="7.29085">
        <ele>947.6</ele>
        <time>2026-03-16T11:36:48Z</time>
      </trkpt>
      <trkpt lat="48.41059" lon="7.29078">
        <ele>949.5</ele>
        <time>2026-03-16T11:36:53Z</time>
      </trkpt>
      <trkpt lat="48.41056" lon="7.29068">
        <ele>952.3</ele>
        <time>2026-03-16T11:36:58Z</time>
      </trkpt>
      <trkpt lat="48.41053" lon="7.2906">
        <ele>954.5</ele>
        <time>2026-03-16T11:37:03Z</time>
      </trkpt>
      <trkpt lat="48.4105" lon="7.29052">
        <ele>956.6</ele>
        <time>2026-03-16T11:37:08Z</time>
      </trkpt>
      <trkpt lat="48.41046" lon="7.29043">
        <ele>959</ele>
        <time>2026-03-16T11:37:13Z</time>
      </trkpt>
      <trkpt lat="48.41042" lon="7.29035">
        <ele>961.1</ele>
        <time>2026-03-16T11:37:18Z</time>
      </trkpt>
      <trkpt lat="48.41037" lon="7.29028">
        <ele>962.8</ele>
        <time>2026-03-16T11:37:23Z</time>
      </trkpt>
      <trkpt lat="48.41031" lon="7.29023">
        <ele>963.8</ele>
        <time>2026-03-16T11:37:28Z</time>
      </trkpt>
      <trkpt lat="48.41024" lon="7.2902">
        <ele>964.3</ele>
        <time>2026-03-16T11:37:33Z</time>
      </trkpt>
      <trkpt lat="48.41019" lon="7.29017">
        <ele>964.8</ele>
        <time>2026-03-16T11:37:38Z</time>
      </trkpt>
      <trkpt lat="48.41015" lon="7.29013">
        <ele>965.6</ele>
        <time>2026-03-16T11:37:43Z</time>
      </trkpt>
      <trkpt lat="48.4101" lon="7.29008">
        <ele>966.6</ele>
        <time>2026-03-16T11:37:48Z</time>
      </trkpt>
      <trkpt lat="48.41005" lon="7.29006">
        <ele>966.8</ele>
        <time>2026-03-16T11:37:53Z</time>
      </trkpt>
      <trkpt lat="48.41001" lon="7.29004">
        <ele>967.1</ele>
        <time>2026-03-16T11:37:58Z</time>
      </trkpt>
      <trkpt lat="48.40997" lon="7.29003">
        <ele>966.9</ele>
        <time>2026-03-16T11:38:03Z</time>
      </trkpt>
      <trkpt lat="48.40992" lon="7.29">
        <ele>966.8</ele>
        <time>2026-03-16T11:38:08Z</time>
      </trkpt>
      <trkpt lat="48.40986" lon="7.28997">
        <ele>966.6</ele>
        <time>2026-03-16T11:38:13Z</time>
      </trkpt>
      <trkpt lat="48.4098" lon="7.28993">
        <ele>966.5</ele>
        <time>2026-03-16T11:38:18Z</time>
      </trkpt>
      <trkpt lat="48.40973" lon="7.28992">
        <ele>965.7</ele>
        <time>2026-03-16T11:38:23Z</time>
      </trkpt>
      <trkpt lat="48.40967" lon="7.28993">
        <ele>964.6</ele>
        <time>2026-03-16T11:38:28Z</time>
      </trkpt>
      <trkpt lat="48.40961" lon="7.28993">
        <ele>963.7</ele>
        <time>2026-03-16T11:38:33Z</time>
      </trkpt>
      <trkpt lat="48.40955" lon="7.28993">
        <ele>962.9</ele>
        <time>2026-03-16T11:38:38Z</time>
      </trkpt>
      <trkpt lat="48.40947" lon="7.28996">
        <ele>961.1</ele>
        <time>2026-03-16T11:38:43Z</time>
      </trkpt>
      <trkpt lat="48.40941" lon="7.28995">
        <ele>960.4</ele>
        <time>2026-03-16T11:38:48Z</time>
      </trkpt>
      <trkpt lat="48.40935" lon="7.28996">
        <ele>959.4</ele>
        <time>2026-03-16T11:38:53Z</time>
      </trkpt>
      <trkpt lat="48.40929" lon="7.28994">
        <ele>958.9</ele>
        <time>2026-03-16T11:38:58Z</time>
      </trkpt>
      <trkpt lat="48.40923" lon="7.28993">
        <ele>958.2</ele>
        <time>2026-03-16T11:39:03Z</time>
      </trkpt>
      <trkpt lat="48.40918" lon="7.28988">
        <ele>958.4</ele>
        <time>2026-03-16T11:39:08Z</time>
      </trkpt>
      <trkpt lat="48.40914" lon="7.28984">
        <ele>958.4</ele>
        <time>2026-03-16T11:39:13Z</time>
      </trkpt>
      <trkpt lat="48.40911" lon="7.2898">
        <ele>958.5</ele>
        <time>2026-03-16T11:39:18Z</time>
      </trkpt>
      <trkpt lat="48.40905" lon="7.28975">
        <ele>958.2</ele>
        <time>2026-03-16T11:39:23Z</time>
      </trkpt>
      <trkpt lat="48.40901" lon="7.28972">
        <ele>957.9</ele>
        <time>2026-03-16T11:39:28Z</time>
      </trkpt>
      <trkpt lat="48.40892" lon="7.28969">
        <ele>956.6</ele>
        <time>2026-03-16T11:39:33Z</time>
      </trkpt>
      <trkpt lat="48.40883" lon="7.28966">
        <ele>955.2</ele>
        <time>2026-03-16T11:39:38Z</time>
      </trkpt>
      <trkpt lat="48.4088" lon="7.28958">
        <ele>955.9</ele>
        <time>2026-03-16T11:39:43Z</time>
      </trkpt>
      <trkpt lat="48.40876" lon="7.28952">
        <ele>955.9</ele>
        <time>2026-03-16T11:39:48Z</time>
      </trkpt>
      <trkpt lat="48.4087" lon="7.28944">
        <ele>955.8</ele>
        <time>2026-03-16T11:39:53Z</time>
      </trkpt>
      <trkpt lat="48.40862" lon="7.28934">
        <ele>955.4</ele>
        <time>2026-03-16T11:39:58Z</time>
      </trkpt>
      <trkpt lat="48.40858" lon="7.2893">
        <ele>955.1</ele>
        <time>2026-03-16T11:40:03Z</time>
      </trkpt>
      <trkpt lat="48.40855" lon="7.28926">
        <ele>954.9</ele>
        <time>2026-03-16T11:40:08Z</time>
      </trkpt>
      <trkpt lat="48.40852" lon="7.28919">
        <ele>955.2</ele>
        <time>2026-03-16T11:40:13Z</time>
      </trkpt>
      <trkpt lat="48.40848" lon="7.28911">
        <ele>955.2</ele>
        <time>2026-03-16T11:40:18Z</time>
      </trkpt>
      <trkpt lat="48.40845" lon="7.28905">
        <ele>955.2</ele>
        <time>2026-03-16T11:40:23Z</time>
      </trkpt>
      <trkpt lat="48.40843" lon="7.28897">
        <ele>955.7</ele>
        <time>2026-03-16T11:40:28Z</time>
      </trkpt>
      <trkpt lat="48.40842" lon="7.28889">
        <ele>956.5</ele>
        <time>2026-03-16T11:40:33Z</time>
      </trkpt>
      <trkpt lat="48.40839" lon="7.28882">
        <ele>956.6</ele>
        <time>2026-03-16T11:40:38Z</time>
      </trkpt>
      <trkpt lat="48.40835" lon="7.28874">
        <ele>956.5</ele>
        <time>2026-03-16T11:40:43Z</time>
      </trkpt>
      <trkpt lat="48.40831" lon="7.28866">
        <ele>956.5</ele>
        <time>2026-03-16T11:40:48Z</time>
      </trkpt>
      <trkpt lat="48.40827" lon="7.28861">
        <ele>956</ele>
        <time>2026-03-16T11:40:53Z</time>
      </trkpt>
      <trkpt lat="48.40824" lon="7.28854">
        <ele>956.1</ele>
        <time>2026-03-16T11:40:58Z</time>
      </trkpt>
      <trkpt lat="48.40821" lon="7.28845">
        <ele>956.4</ele>
        <time>2026-03-16T11:41:03Z</time>
      </trkpt>
      <trkpt lat="48.40819" lon="7.28838">
        <ele>956.7</ele>
        <time>2026-03-16T11:41:08Z</time>
      </trkpt>
      <trkpt lat="48.40815" lon="7.28831">
        <ele>956.5</ele>
        <time>2026-03-16T11:41:13Z</time>
      </trkpt>
      <trkpt lat="48.40812" lon="7.28824">
        <ele>956.6</ele>
        <time>2026-03-16T11:41:18Z</time>
      </trkpt>
      <trkpt lat="48.40809" lon="7.28816">
        <ele>956.9</ele>
        <time>2026-03-16T11:41:23Z</time>
      </trkpt>
      <trkpt lat="48.40806" lon="7.28808">
        <ele>957.1</ele>
        <time>2026-03-16T11:41:28Z</time>
      </trkpt>
      <trkpt lat="48.40804" lon="7.28802">
        <ele>957.4</ele>
        <time>2026-03-16T11:41:33Z</time>
      </trkpt>
      <trkpt lat="48.40803" lon="7.28795">
        <ele>958.1</ele>
        <time>2026-03-16T11:41:38Z</time>
      </trkpt>
      <trkpt lat="48.408" lon="7.28787">
        <ele>958.3</ele>
        <time>2026-03-16T11:41:43Z</time>
      </trkpt>
      <trkpt lat="48.40797" lon="7.28778">
        <ele>958.7</ele>
        <time>2026-03-16T11:41:48Z</time>
      </trkpt>
      <trkpt lat="48.40795" lon="7.28771">
        <ele>959.1</ele>
        <time>2026-03-16T11:41:53Z</time>
      </trkpt>
      <trkpt lat="48.40792" lon="7.28764">
        <ele>959.2</ele>
        <time>2026-03-16T11:41:58Z</time>
      </trkpt>
      <trkpt lat="48.40791" lon="7.28758">
        <ele>959.8</ele>
        <time>2026-03-16T11:42:03Z</time>
      </trkpt>
      <trkpt lat="48.40788" lon="7.28751">
        <ele>959.9</ele>
        <time>2026-03-16T11:42:08Z</time>
      </trkpt>
      <trkpt lat="48.40787" lon="7.28741">
        <ele>960.8</ele>
        <time>2026-03-16T11:42:13Z</time>
      </trkpt>
      <trkpt lat="48.40784" lon="7.28733">
        <ele>961</ele>
        <time>2026-03-16T11:42:18Z</time>
      </trkpt>
      <trkpt lat="48.40781" lon="7.28723">
        <ele>961.3</ele>
        <time>2026-03-16T11:42:23Z</time>
      </trkpt>
      <trkpt lat="48.40777" lon="7.28715">
        <ele>961.2</ele>
        <time>2026-03-16T11:42:28Z</time>
      </trkpt>
      <trkpt lat="48.40775" lon="7.28706">
        <ele>961.7</ele>
        <time>2026-03-16T11:42:33Z</time>
      </trkpt>
      <trkpt lat="48.40772" lon="7.28698">
        <ele>961.8</ele>
        <time>2026-03-16T11:42:38Z</time>
      </trkpt>
      <trkpt lat="48.40771" lon="7.2869">
        <ele>962.4</ele>
        <time>2026-03-16T11:42:43Z</time>
      </trkpt>
      <trkpt lat="48.40769" lon="7.2868">
        <ele>963</ele>
        <time>2026-03-16T11:42:48Z</time>
      </trkpt>
      <trkpt lat="48.40766" lon="7.28671">
        <ele>963.1</ele>
        <time>2026-03-16T11:42:53Z</time>
      </trkpt>
      <trkpt lat="48.40763" lon="7.28662">
        <ele>963</ele>
        <time>2026-03-16T11:42:58Z</time>
      </trkpt>
      <trkpt lat="48.40762" lon="7.28655">
        <ele>963.2</ele>
        <time>2026-03-16T11:43:03Z</time>
      </trkpt>
      <trkpt lat="48.4076" lon="7.28648">
        <ele>963.1</ele>
        <time>2026-03-16T11:43:08Z</time>
      </trkpt>
      <trkpt lat="48.40759" lon="7.28641">
        <ele>963.2</ele>
        <time>2026-03-16T11:43:13Z</time>
      </trkpt>
      <trkpt lat="48.40759" lon="7.28636">
        <ele>963.5</ele>
        <time>2026-03-16T11:43:18Z</time>
      </trkpt>
      <trkpt lat="48.40759" lon="7.28628">
        <ele>964</ele>
        <time>2026-03-16T11:43:23Z</time>
      </trkpt>
      <trkpt lat="48.4076" lon="7.28618">
        <ele>964.9</ele>
        <time>2026-03-16T11:43:28Z</time>
      </trkpt>
      <trkpt lat="48.40761" lon="7.2861">
        <ele>965.7</ele>
        <time>2026-03-16T11:43:33Z</time>
      </trkpt>
      <trkpt lat="48.40763" lon="7.28601">
        <ele>966.9</ele>
        <time>2026-03-16T11:43:38Z</time>
      </trkpt>
      <trkpt lat="48.40763" lon="7.28595">
        <ele>967.3</ele>
        <time>2026-03-16T11:43:43Z</time>
      </trkpt>
      <trkpt lat="48.40762" lon="7.28588">
        <ele>967.4</ele>
        <time>2026-03-16T11:43:48Z</time>
      </trkpt>
      <trkpt lat="48.40761" lon="7.28579">
        <ele>967.7</ele>
        <time>2026-03-16T11:43:53Z</time>
      </trkpt>
      <trkpt lat="48.40761" lon="7.28571">
        <ele>968.3</ele>
        <time>2026-03-16T11:43:58Z</time>
      </trkpt>
      <trkpt lat="48.40761" lon="7.28563">
        <ele>968.8</ele>
        <time>2026-03-16T11:44:03Z</time>
      </trkpt>
      <trkpt lat="48.40762" lon="7.28556">
        <ele>969.6</ele>
        <time>2026-03-16T11:44:08Z</time>
      </trkpt>
      <trkpt lat="48.40762" lon="7.28546">
        <ele>970.2</ele>
        <time>2026-03-16T11:44:13Z</time>
      </trkpt>
      <trkpt lat="48.40762" lon="7.28535">
        <ele>971</ele>
        <time>2026-03-16T11:44:18Z</time>
      </trkpt>
      <trkpt lat="48.40761" lon="7.28524">
        <ele>971.4</ele>
        <time>2026-03-16T11:44:23Z</time>
      </trkpt>
      <trkpt lat="48.40762" lon="7.28515">
        <ele>972.3</ele>
        <time>2026-03-16T11:44:28Z</time>
      </trkpt>
      <trkpt lat="48.40763" lon="7.28506">
        <ele>973.2</ele>
        <time>2026-03-16T11:44:33Z</time>
      </trkpt>
      <trkpt lat="48.40764" lon="7.28499">
        <ele>973.9</ele>
        <time>2026-03-16T11:44:38Z</time>
      </trkpt>
      <trkpt lat="48.40764" lon="7.2849">
        <ele>974.6</ele>
        <time>2026-03-16T11:44:43Z</time>
      </trkpt>
      <trkpt lat="48.40765" lon="7.2848">
        <ele>975.7</ele>
        <time>2026-03-16T11:44:48Z</time>
      </trkpt>
      <trkpt lat="48.40765" lon="7.28469">
        <ele>976.5</ele>
        <time>2026-03-16T11:44:53Z</time>
      </trkpt>
      <trkpt lat="48.40764" lon="7.2846">
        <ele>977</ele>
        <time>2026-03-16T11:44:58Z</time>
      </trkpt>
      <trkpt lat="48.40763" lon="7.28451">
        <ele>977.4</ele>
        <time>2026-03-16T11:45:03Z</time>
      </trkpt>
      <trkpt lat="48.40765" lon="7.28444">
        <ele>978.5</ele>
        <time>2026-03-16T11:45:08Z</time>
      </trkpt>
      <trkpt lat="48.40766" lon="7.28435">
        <ele>979.4</ele>
        <time>2026-03-16T11:45:13Z</time>
      </trkpt>
      <trkpt lat="48.40765" lon="7.28426">
        <ele>979.9</ele>
        <time>2026-03-16T11:45:18Z</time>
      </trkpt>
      <trkpt lat="48.40765" lon="7.28419">
        <ele>980.4</ele>
        <time>2026-03-16T11:45:23Z</time>
      </trkpt>
      <trkpt lat="48.40764" lon="7.28411">
        <ele>980.8</ele>
        <time>2026-03-16T11:45:28Z</time>
      </trkpt>
      <trkpt lat="48.40765" lon="7.28405">
        <ele>981.5</ele>
        <time>2026-03-16T11:45:33Z</time>
      </trkpt>
      <trkpt lat="48.40766" lon="7.28399">
        <ele>982.2</ele>
        <time>2026-03-16T11:45:38Z</time>
      </trkpt>
      <trkpt lat="48.40766" lon="7.2839">
        <ele>982.8</ele>
        <time>2026-03-16T11:45:43Z</time>
      </trkpt>
      <trkpt lat="48.40765" lon="7.28383">
        <ele>983.1</ele>
        <time>2026-03-16T11:45:48Z</time>
      </trkpt>
      <trkpt lat="48.40764" lon="7.28374">
        <ele>983.5</ele>
        <time>2026-03-16T11:45:53Z</time>
      </trkpt>
      <trkpt lat="48.40763" lon="7.28365">
        <ele>983.9</ele>
        <time>2026-03-16T11:45:58Z</time>
      </trkpt>
      <trkpt lat="48.40764" lon="7.28357">
        <ele>984.8</ele>
        <time>2026-03-16T11:46:03Z</time>
      </trkpt>
      <trkpt lat="48.40763" lon="7.28348">
        <ele>985.2</ele>
        <time>2026-03-16T11:46:08Z</time>
      </trkpt>
      <trkpt lat="48.40763" lon="7.28342">
        <ele>985.6</ele>
        <time>2026-03-16T11:46:13Z</time>
      </trkpt>
      <trkpt lat="48.40763" lon="7.28331">
        <ele>986.4</ele>
        <time>2026-03-16T11:46:18Z</time>
      </trkpt>
      <trkpt lat="48.40762" lon="7.28322">
        <ele>986.5</ele>
        <time>2026-03-16T11:46:23Z</time>
      </trkpt>
      <trkpt lat="48.40761" lon="7.28314">
        <ele>986.5</ele>
        <time>2026-03-16T11:46:28Z</time>
      </trkpt>
      <trkpt lat="48.4076" lon="7.28305">
        <ele>986.6</ele>
        <time>2026-03-16T11:46:33Z</time>
      </trkpt>
      <trkpt lat="48.4076" lon="7.28298">
        <ele>986.9</ele>
        <time>2026-03-16T11:46:38Z</time>
      </trkpt>
      <trkpt lat="48.4076" lon="7.28289">
        <ele>987.2</ele>
        <time>2026-03-16T11:46:43Z</time>
      </trkpt>
      <trkpt lat="48.40759" lon="7.28281">
        <ele>987.3</ele>
        <time>2026-03-16T11:46:48Z</time>
      </trkpt>
      <trkpt lat="48.40758" lon="7.28273">
        <ele>987.3</ele>
        <time>2026-03-16T11:46:53Z</time>
      </trkpt>
      <trkpt lat="48.40756" lon="7.28265">
        <ele>987.1</ele>
        <time>2026-03-16T11:46:58Z</time>
      </trkpt>
      <trkpt lat="48.40755" lon="7.28257">
        <ele>987.1</ele>
        <time>2026-03-16T11:47:03Z</time>
      </trkpt>
      <trkpt lat="48.40755" lon="7.28247">
        <ele>987.7</ele>
        <time>2026-03-16T11:47:08Z</time>
      </trkpt>
      <trkpt lat="48.40756" lon="7.28238">
        <ele>988.9</ele>
        <time>2026-03-16T11:47:13Z</time>
      </trkpt>
      <trkpt lat="48.40755" lon="7.2823">
        <ele>989.5</ele>
        <time>2026-03-16T11:47:18Z</time>
      </trkpt>
      <trkpt lat="48.40754" lon="7.28222">
        <ele>990.1</ele>
        <time>2026-03-16T11:47:23Z</time>
      </trkpt>
      <trkpt lat="48.40753" lon="7.28216">
        <ele>990.5</ele>
        <time>2026-03-16T11:47:28Z</time>
      </trkpt>
      <trkpt lat="48.40754" lon="7.28213">
        <ele>991.1</ele>
        <time>2026-03-16T11:47:33Z</time>
      </trkpt>
      <trkpt lat="48.40753" lon="7.28205">
        <ele>991.7</ele>
        <time>2026-03-16T11:47:38Z</time>
      </trkpt>
      <trkpt lat="48.4075" lon="7.28197">
        <ele>991.7</ele>
        <time>2026-03-16T11:47:43Z</time>
      </trkpt>
      <trkpt lat="48.4075" lon="7.28188">
        <ele>992.7</ele>
        <time>2026-03-16T11:47:48Z</time>
      </trkpt>
      <trkpt lat="48.40749" lon="7.28182">
        <ele>993.1</ele>
        <time>2026-03-16T11:47:53Z</time>
      </trkpt>
      <trkpt lat="48.40748" lon="7.28175">
        <ele>993.5</ele>
        <time>2026-03-16T11:47:58Z</time>
      </trkpt>
      <trkpt lat="48.40747" lon="7.2817">
        <ele>993.8</ele>
        <time>2026-03-16T11:48:03Z</time>
      </trkpt>
      <trkpt lat="48.40747" lon="7.28166">
        <ele>994.2</ele>
        <time>2026-03-16T11:48:08Z</time>
      </trkpt>
      <trkpt lat="48.40746" lon="7.2816">
        <ele>994.5</ele>
        <time>2026-03-16T11:48:13Z</time>
      </trkpt>
      <trkpt lat="48.40745" lon="7.28154">
        <ele>994.8</ele>
        <time>2026-03-16T11:48:18Z</time>
      </trkpt>
      <trkpt lat="48.40743" lon="7.28149">
        <ele>994.7</ele>
        <time>2026-03-16T11:48:23Z</time>
      </trkpt>
      <trkpt lat="48.40742" lon="7.28141">
        <ele>995.2</ele>
        <time>2026-03-16T11:48:28Z</time>
      </trkpt>
      <trkpt lat="48.40741" lon="7.2813">
        <ele>995.9</ele>
        <time>2026-03-16T11:48:33Z</time>
      </trkpt>
      <trkpt lat="48.4074" lon="7.28121">
        <ele>996.5</ele>
        <time>2026-03-16T11:48:38Z</time>
      </trkpt>
      <trkpt lat="48.40739" lon="7.28118">
        <ele>996.5</ele>
        <time>2026-03-16T11:48:43Z</time>
      </trkpt>
      <trkpt lat="48.40739" lon="7.28116">
        <ele>996.7</ele>
        <time>2026-03-16T11:48:48Z</time>
      </trkpt>
      <trkpt lat="48.40738" lon="7.28104">
        <ele>997.6</ele>
        <time>2026-03-16T11:48:53Z</time>
      </trkpt>
      <trkpt lat="48.40737" lon="7.28096">
        <ele>998</ele>
        <time>2026-03-16T11:48:58Z</time>
      </trkpt>
      <trkpt lat="48.40736" lon="7.28088">
        <ele>998.5</ele>
        <time>2026-03-16T11:49:03Z</time>
      </trkpt>
      <trkpt lat="48.40733" lon="7.28079">
        <ele>998.3</ele>
        <time>2026-03-16T11:49:08Z</time>
      </trkpt>
      <trkpt lat="48.40732" lon="7.28072">
        <ele>998.4</ele>
        <time>2026-03-16T11:49:13Z</time>
      </trkpt>
      <trkpt lat="48.40733" lon="7.28065">
        <ele>999</ele>
        <time>2026-03-16T11:49:18Z</time>
      </trkpt>
      <trkpt lat="48.40733" lon="7.28056">
        <ele>999.4</ele>
        <time>2026-03-16T11:49:23Z</time>
      </trkpt>
      <trkpt lat="48.40731" lon="7.28046">
        <ele>999.3</ele>
        <time>2026-03-16T11:49:28Z</time>
      </trkpt>
      <trkpt lat="48.4073" lon="7.28039">
        <ele>999.4</ele>
        <time>2026-03-16T11:49:33Z</time>
      </trkpt>
      <trkpt lat="48.4073" lon="7.28029">
        <ele>999.8</ele>
        <time>2026-03-16T11:49:38Z</time>
      </trkpt>
      <trkpt lat="48.40728" lon="7.28022">
        <ele>999.6</ele>
        <time>2026-03-16T11:49:43Z</time>
      </trkpt>
      <trkpt lat="48.40725" lon="7.28018">
        <ele>998.9</ele>
        <time>2026-03-16T11:49:48Z</time>
      </trkpt>
      <trkpt lat="48.40722" lon="7.28016">
        <ele>998.2</ele>
        <time>2026-03-16T11:49:53Z</time>
      </trkpt>
      <trkpt lat="48.40722" lon="7.2801">
        <ele>998.5</ele>
        <time>2026-03-16T11:49:58Z</time>
      </trkpt>
      <trkpt lat="48.40724" lon="7.28001">
        <ele>999.5</ele>
        <time>2026-03-16T11:50:03Z</time>
      </trkpt>
      <trkpt lat="48.40724" lon="7.27998">
        <ele>999.7</ele>
        <time>2026-03-16T11:50:08Z</time>
      </trkpt>
      <trkpt lat="48.40721" lon="7.27986">
        <ele>999.6</ele>
        <time>2026-03-16T11:50:13Z</time>
      </trkpt>
      <trkpt lat="48.40719" lon="7.27977">
        <ele>999.7</ele>
        <time>2026-03-16T11:50:18Z</time>
      </trkpt>
      <trkpt lat="48.40715" lon="7.27968">
        <ele>999</ele>
        <time>2026-03-16T11:50:23Z</time>
      </trkpt>
      <trkpt lat="48.40712" lon="7.2796">
        <ele>998.6</ele>
        <time>2026-03-16T11:50:28Z</time>
      </trkpt>
      <trkpt lat="48.4071" lon="7.27951">
        <ele>998.5</ele>
        <time>2026-03-16T11:50:33Z</time>
      </trkpt>
      <trkpt lat="48.40707" lon="7.27943">
        <ele>998</ele>
        <time>2026-03-16T11:50:38Z</time>
      </trkpt>
      <trkpt lat="48.40705" lon="7.27935">
        <ele>997.8</ele>
        <time>2026-03-16T11:50:43Z</time>
      </trkpt>
      <trkpt lat="48.40704" lon="7.27924">
        <ele>998</ele>
        <time>2026-03-16T11:50:48Z</time>
      </trkpt>
      <trkpt lat="48.40703" lon="7.27917">
        <ele>998.1</ele>
        <time>2026-03-16T11:50:53Z</time>
      </trkpt>
      <trkpt lat="48.40703" lon="7.2791">
        <ele>998.2</ele>
        <time>2026-03-16T11:50:58Z</time>
      </trkpt>
      <trkpt lat="48.40703" lon="7.279">
        <ele>998.4</ele>
        <time>2026-03-16T11:51:03Z</time>
      </trkpt>
      <trkpt lat="48.40704" lon="7.2789">
        <ele>998.9</ele>
        <time>2026-03-16T11:51:08Z</time>
      </trkpt>
      <trkpt lat="48.40705" lon="7.27883">
        <ele>999.4</ele>
        <time>2026-03-16T11:51:13Z</time>
      </trkpt>
      <trkpt lat="48.40704" lon="7.27876">
        <ele>999.1</ele>
        <time>2026-03-16T11:51:18Z</time>
      </trkpt>
      <trkpt lat="48.40704" lon="7.27868">
        <ele>999.3</ele>
        <time>2026-03-16T11:51:23Z</time>
      </trkpt>
      <trkpt lat="48.40704" lon="7.27861">
        <ele>999.4</ele>
        <time>2026-03-16T11:51:28Z</time>
      </trkpt>
      <trkpt lat="48.40704" lon="7.2785">
        <ele>999.6</ele>
        <time>2026-03-16T11:51:33Z</time>
      </trkpt>
      <trkpt lat="48.40703" lon="7.27838">
        <ele>999.4</ele>
        <time>2026-03-16T11:51:38Z</time>
      </trkpt>
      <trkpt lat="48.40705" lon="7.27831">
        <ele>1000.4</ele>
        <time>2026-03-16T11:51:43Z</time>
      </trkpt>
      <trkpt lat="48.40706" lon="7.27824">
        <ele>1001.1</ele>
        <time>2026-03-16T11:51:48Z</time>
      </trkpt>
      <trkpt lat="48.40704" lon="7.27817">
        <ele>1000.7</ele>
        <time>2026-03-16T11:51:53Z</time>
      </trkpt>
      <trkpt lat="48.40702" lon="7.27809">
        <ele>1000.3</ele>
        <time>2026-03-16T11:51:58Z</time>
      </trkpt>
      <trkpt lat="48.407" lon="7.27804">
        <ele>999.7</ele>
        <time>2026-03-16T11:52:03Z</time>
      </trkpt>
      <trkpt lat="48.40698" lon="7.27798">
        <ele>999.2</ele>
        <time>2026-03-16T11:52:08Z</time>
      </trkpt>
      <trkpt lat="48.40698" lon="7.2779">
        <ele>999.6</ele>
        <time>2026-03-16T11:52:13Z</time>
      </trkpt>
      <trkpt lat="48.40698" lon="7.27782">
        <ele>1000</ele>
        <time>2026-03-16T11:52:18Z</time>
      </trkpt>
      <trkpt lat="48.40699" lon="7.27773">
        <ele>1000.8</ele>
        <time>2026-03-16T11:52:23Z</time>
      </trkpt>
      <trkpt lat="48.40698" lon="7.27764">
        <ele>1000.8</ele>
        <time>2026-03-16T11:52:28Z</time>
      </trkpt>
      <trkpt lat="48.40697" lon="7.27755">
        <ele>1000.8</ele>
        <time>2026-03-16T11:52:33Z</time>
      </trkpt>
      <trkpt lat="48.40697" lon="7.27747">
        <ele>1001.4</ele>
        <time>2026-03-16T11:52:38Z</time>
      </trkpt>
      <trkpt lat="48.40697" lon="7.2774">
        <ele>1002.2</ele>
        <time>2026-03-16T11:52:43Z</time>
      </trkpt>
      <trkpt lat="48.40697" lon="7.27733">
        <ele>1003.1</ele>
        <time>2026-03-16T11:52:48Z</time>
      </trkpt>
      <trkpt lat="48.40696" lon="7.27725">
        <ele>1003.7</ele>
        <time>2026-03-16T11:52:53Z</time>
      </trkpt>
      <trkpt lat="48.40697" lon="7.27716">
        <ele>1005.1</ele>
        <time>2026-03-16T11:52:58Z</time>
      </trkpt>
      <trkpt lat="48.40696" lon="7.27713">
        <ele>1005.1</ele>
        <time>2026-03-16T11:53:03Z</time>
      </trkpt>
      <trkpt lat="48.40695" lon="7.27706">
        <ele>1005.6</ele>
        <time>2026-03-16T11:53:08Z</time>
      </trkpt>
      <trkpt lat="48.40696" lon="7.27702">
        <ele>1006.5</ele>
        <time>2026-03-16T11:53:13Z</time>
      </trkpt>
      <trkpt lat="48.40697" lon="7.27684">
        <ele>1009</ele>
        <time>2026-03-16T11:53:18Z</time>
      </trkpt>
      <trkpt lat="48.40698" lon="7.27675">
        <ele>1010.4</ele>
        <time>2026-03-16T11:53:23Z</time>
      </trkpt>
      <trkpt lat="48.407" lon="7.27668">
        <ele>1011.8</ele>
        <time>2026-03-16T11:53:28Z</time>
      </trkpt>
      <trkpt lat="48.40702" lon="7.27658">
        <ele>1014.6</ele>
        <time>2026-03-16T11:53:33Z</time>
      </trkpt>
      <trkpt lat="48.40703" lon="7.27645">
        <ele>1017.8</ele>
        <time>2026-03-16T11:53:38Z</time>
      </trkpt>
      <trkpt lat="48.40705" lon="7.27634">
        <ele>1020.8</ele>
        <time>2026-03-16T11:53:43Z</time>
      </trkpt>
      <trkpt lat="48.40706" lon="7.27627">
        <ele>1022.6</ele>
        <time>2026-03-16T11:53:48Z</time>
      </trkpt>
      <trkpt lat="48.40706" lon="7.27622">
        <ele>1023.7</ele>
        <time>2026-03-16T11:53:53Z</time>
      </trkpt>
      <trkpt lat="48.40706" lon="7.27614">
        <ele>1025.4</ele>
        <time>2026-03-16T11:53:58Z</time>
      </trkpt>
      <trkpt lat="48.40705" lon="7.27604">
        <ele>1027.5</ele>
        <time>2026-03-16T11:54:03Z</time>
      </trkpt>
      <trkpt lat="48.40704" lon="7.27595">
        <ele>1029.3</ele>
        <time>2026-03-16T11:54:08Z</time>
      </trkpt>
      <trkpt lat="48.40705" lon="7.27586">
        <ele>1031.5</ele>
        <time>2026-03-16T11:54:13Z</time>
      </trkpt>
      <trkpt lat="48.40705" lon="7.27578">
        <ele>1033.2</ele>
        <time>2026-03-16T11:54:18Z</time>
      </trkpt>
      <trkpt lat="48.40705" lon="7.27572">
        <ele>1034.4</ele>
        <time>2026-03-16T11:54:23Z</time>
      </trkpt>
      <trkpt lat="48.40705" lon="7.27568">
        <ele>1035.2</ele>
        <time>2026-03-16T11:54:28Z</time>
      </trkpt>
      <trkpt lat="48.40706" lon="7.27564">
        <ele>1036.1</ele>
        <time>2026-03-16T11:54:33Z</time>
      </trkpt>
      <trkpt lat="48.40708" lon="7.27557">
        <ele>1037.8</ele>
        <time>2026-03-16T11:54:38Z</time>
      </trkpt>
      <trkpt lat="48.40705" lon="7.27549">
        <ele>1039.1</ele>
        <time>2026-03-16T11:54:43Z</time>
      </trkpt>
      <trkpt lat="48.407" lon="7.27543">
        <ele>1039.7</ele>
        <time>2026-03-16T11:54:48Z</time>
      </trkpt>
      <trkpt lat="48.40695" lon="7.27535">
        <ele>1040.8</ele>
        <time>2026-03-16T11:54:53Z</time>
      </trkpt>
      <trkpt lat="48.4069" lon="7.2753">
        <ele>1041.2</ele>
        <time>2026-03-16T11:54:58Z</time>
      </trkpt>
      <trkpt lat="48.40684" lon="7.27528">
        <ele>1041</ele>
        <time>2026-03-16T11:55:03Z</time>
      </trkpt>
      <trkpt lat="48.40676" lon="7.27524">
        <ele>1040.9</ele>
        <time>2026-03-16T11:55:08Z</time>
      </trkpt>
      <trkpt lat="48.40669" lon="7.27522">
        <ele>1040.5</ele>
        <time>2026-03-16T11:55:13Z</time>
      </trkpt>
      <trkpt lat="48.40664" lon="7.27518">
        <ele>1041</ele>
        <time>2026-03-16T11:55:18Z</time>
      </trkpt>
      <trkpt lat="48.40658" lon="7.27515">
        <ele>1041.4</ele>
        <time>2026-03-16T11:55:23Z</time>
      </trkpt>
      <trkpt lat="48.40653" lon="7.27514">
        <ele>1041.5</ele>
        <time>2026-03-16T11:55:28Z</time>
      </trkpt>
      <trkpt lat="48.40647" lon="7.27511">
        <ele>1041.8</ele>
        <time>2026-03-16T11:55:33Z</time>
      </trkpt>
      <trkpt lat="48.40643" lon="7.27509">
        <ele>1042.1</ele>
        <time>2026-03-16T11:55:38Z</time>
      </trkpt>
      <trkpt lat="48.40636" lon="7.27505">
        <ele>1042.6</ele>
        <time>2026-03-16T11:55:43Z</time>
      </trkpt>
      <trkpt lat="48.40631" lon="7.27502">
        <ele>1042.9</ele>
        <time>2026-03-16T11:55:48Z</time>
      </trkpt>
      <trkpt lat="48.40627" lon="7.27499">
        <ele>1043.3</ele>
        <time>2026-03-16T11:55:53Z</time>
      </trkpt>
      <trkpt lat="48.40623" lon="7.27495">
        <ele>1043.8</ele>
        <time>2026-03-16T11:55:58Z</time>
      </trkpt>
      <trkpt lat="48.40617" lon="7.27491">
        <ele>1044.2</ele>
        <time>2026-03-16T11:56:03Z</time>
      </trkpt>
      <trkpt lat="48.40612" lon="7.27485">
        <ele>1045</ele>
        <time>2026-03-16T11:56:08Z</time>
      </trkpt>
      <trkpt lat="48.40607" lon="7.27482">
        <ele>1045.3</ele>
        <time>2026-03-16T11:56:13Z</time>
      </trkpt>
      <trkpt lat="48.40604" lon="7.27478">
        <ele>1045.9</ele>
        <time>2026-03-16T11:56:18Z</time>
      </trkpt>
      <trkpt lat="48.40602" lon="7.27478">
        <ele>1045.8</ele>
        <time>2026-03-16T11:56:23Z</time>
      </trkpt>
      <trkpt lat="48.40602" lon="7.27478">
        <ele>1045.8</ele>
        <time>2026-03-16T11:56:28Z</time>
      </trkpt>
      <trkpt lat="48.40602" lon="7.27478">
        <ele>1045.8</ele>
        <time>2026-03-16T11:56:33Z</time>
      </trkpt>
      <trkpt lat="48.40602" lon="7.27478">
        <ele>1045.8</ele>
        <time>2026-03-16T11:56:38Z</time>
      </trkpt>
      <trkpt lat="48.40595" lon="7.27472">
        <ele>1046.6</ele>
        <time>2026-03-16T11:56:43Z</time>
      </trkpt>
      <trkpt lat="48.40593" lon="7.27468">
        <ele>1047.2</ele>
        <time>2026-03-16T11:56:48Z</time>
      </trkpt>
      <trkpt lat="48.40593" lon="7.27468">
        <ele>1047.2</ele>
        <time>2026-03-16T11:56:53Z</time>
      </trkpt>
      <trkpt lat="48.4059" lon="7.27462">
        <ele>1048.1</ele>
        <time>2026-03-16T11:56:58Z</time>
      </trkpt>
      <trkpt lat="48.40588" lon="7.27458">
        <ele>1048.8</ele>
        <time>2026-03-16T11:57:03Z</time>
      </trkpt>
      <trkpt lat="48.40586" lon="7.27455">
        <ele>1049.2</ele>
        <time>2026-03-16T11:57:08Z</time>
      </trkpt>
      <trkpt lat="48.40581" lon="7.27451">
        <ele>1050</ele>
        <time>2026-03-16T11:57:13Z</time>
      </trkpt>
      <trkpt lat="48.40576" lon="7.27447">
        <ele>1051.2</ele>
        <time>2026-03-16T11:57:18Z</time>
      </trkpt>
      <trkpt lat="48.40573" lon="7.27443">
        <ele>1052.1</ele>
        <time>2026-03-16T11:57:23Z</time>
      </trkpt>
      <trkpt lat="48.40571" lon="7.27439">
        <ele>1053</ele>
        <time>2026-03-16T11:57:28Z</time>
      </trkpt>
      <trkpt lat="48.40571" lon="7.27435">
        <ele>1053.7</ele>
        <time>2026-03-16T11:57:33Z</time>
      </trkpt>
      <trkpt lat="48.4057" lon="7.27435">
        <ele>1053.8</ele>
        <time>2026-03-16T11:57:38Z</time>
      </trkpt>
      <trkpt lat="48.4057" lon="7.27435">
        <ele>1053.8</ele>
        <time>2026-03-16T11:57:43Z</time>
      </trkpt>
      <trkpt lat="48.4057" lon="7.27435">
        <ele>1053.8</ele>
        <time>2026-03-16T11:57:48Z</time>
      </trkpt>
      <trkpt lat="48.4057" lon="7.27435">
        <ele>1053.8</ele>
        <time>2026-03-16T11:57:53Z</time>
      </trkpt>
      <trkpt lat="48.4057" lon="7.27435">
        <ele>1053.8</ele>
        <time>2026-03-16T11:57:58Z</time>
      </trkpt>
      <trkpt lat="48.4057" lon="7.27435">
        <ele>1053.8</ele>
        <time>2026-03-16T11:58:03Z</time>
      </trkpt>
      <trkpt lat="48.4057" lon="7.27435">
        <ele>1053.8</ele>
        <time>2026-03-16T11:58:08Z</time>
      </trkpt>
      <trkpt lat="48.40566" lon="7.27437">
        <ele>1053.7</ele>
        <time>2026-03-16T11:58:13Z</time>
      </trkpt>
      <trkpt lat="48.40562" lon="7.27434">
        <ele>1054.6</ele>
        <time>2026-03-16T11:58:18Z</time>
      </trkpt>
      <trkpt lat="48.40559" lon="7.27432">
        <ele>1055.2</ele>
        <time>2026-03-16T11:58:23Z</time>
      </trkpt>
      <trkpt lat="48.40555" lon="7.27429">
        <ele>1056</ele>
        <time>2026-03-16T11:58:28Z</time>
      </trkpt>
      <trkpt lat="48.40551" lon="7.27421">
        <ele>1057.6</ele>
        <time>2026-03-16T11:58:33Z</time>
      </trkpt>
      <trkpt lat="48.40544" lon="7.27413">
        <ele>1059.3</ele>
        <time>2026-03-16T11:58:38Z</time>
      </trkpt>
      <trkpt lat="48.40537" lon="7.27409">
        <ele>1060.2</ele>
        <time>2026-03-16T11:58:43Z</time>
      </trkpt>
      <trkpt lat="48.40529" lon="7.2741">
        <ele>1060.7</ele>
        <time>2026-03-16T11:58:48Z</time>
      </trkpt>
      <trkpt lat="48.40525" lon="7.27411">
        <ele>1060.9</ele>
        <time>2026-03-16T11:58:53Z</time>
      </trkpt>
      <trkpt lat="48.40519" lon="7.27409">
        <ele>1061.5</ele>
        <time>2026-03-16T11:58:58Z</time>
      </trkpt>
      <trkpt lat="48.40513" lon="7.27408">
        <ele>1062</ele>
        <time>2026-03-16T11:59:03Z</time>
      </trkpt>
      <trkpt lat="48.40504" lon="7.27408">
        <ele>1062.7</ele>
        <time>2026-03-16T11:59:08Z</time>
      </trkpt>
      <trkpt lat="48.40496" lon="7.27407">
        <ele>1063</ele>
        <time>2026-03-16T11:59:13Z</time>
      </trkpt>
      <trkpt lat="48.40489" lon="7.27408">
        <ele>1062.9</ele>
        <time>2026-03-16T11:59:18Z</time>
      </trkpt>
      <trkpt lat="48.40483" lon="7.27405">
        <ele>1063.3</ele>
        <time>2026-03-16T11:59:23Z</time>
      </trkpt>
      <trkpt lat="48.40477" lon="7.27406">
        <ele>1063.2</ele>
        <time>2026-03-16T11:59:28Z</time>
      </trkpt>
      <trkpt lat="48.40471" lon="7.27404">
        <ele>1063.4</ele>
        <time>2026-03-16T11:59:33Z</time>
      </trkpt>
      <trkpt lat="48.40465" lon="7.27402">
        <ele>1063.7</ele>
        <time>2026-03-16T11:59:38Z</time>
      </trkpt>
      <trkpt lat="48.40459" lon="7.27399">
        <ele>1064</ele>
        <time>2026-03-16T11:59:43Z</time>
      </trkpt>
      <trkpt lat="48.40453" lon="7.27396">
        <ele>1064.4</ele>
        <time>2026-03-16T11:59:48Z</time>
      </trkpt>
      <trkpt lat="48.40447" lon="7.27395">
        <ele>1064.5</ele>
        <time>2026-03-16T11:59:53Z</time>
      </trkpt>
      <trkpt lat="48.40441" lon="7.27394">
        <ele>1064.6</ele>
        <time>2026-03-16T11:59:58Z</time>
      </trkpt>
      <trkpt lat="48.40434" lon="7.27394">
        <ele>1064.7</ele>
        <time>2026-03-16T12:00:03Z</time>
      </trkpt>
      <trkpt lat="48.40427" lon="7.27394">
        <ele>1064.7</ele>
        <time>2026-03-16T12:00:08Z</time>
      </trkpt>
      <trkpt lat="48.4042" lon="7.27393">
        <ele>1064.8</ele>
        <time>2026-03-16T12:00:13Z</time>
      </trkpt>
      <trkpt lat="48.40414" lon="7.2739">
        <ele>1065.2</ele>
        <time>2026-03-16T12:00:18Z</time>
      </trkpt>
      <trkpt lat="48.40407" lon="7.2739">
        <ele>1065.1</ele>
        <time>2026-03-16T12:00:23Z</time>
      </trkpt>
      <trkpt lat="48.40401" lon="7.2739">
        <ele>1065</ele>
        <time>2026-03-16T12:00:28Z</time>
      </trkpt>
      <trkpt lat="48.40395" lon="7.27388">
        <ele>1065.2</ele>
        <time>2026-03-16T12:00:33Z</time>
      </trkpt>
      <trkpt lat="48.40389" lon="7.27385">
        <ele>1065.5</ele>
        <time>2026-03-16T12:00:38Z</time>
      </trkpt>
      <trkpt lat="48.40383" lon="7.27382">
        <ele>1065.9</ele>
        <time>2026-03-16T12:00:43Z</time>
      </trkpt>
      <trkpt lat="48.40377" lon="7.2738">
        <ele>1066.1</ele>
        <time>2026-03-16T12:00:48Z</time>
      </trkpt>
      <trkpt lat="48.4037" lon="7.27378">
        <ele>1066.3</ele>
        <time>2026-03-16T12:00:53Z</time>
      </trkpt>
      <trkpt lat="48.40365" lon="7.27377">
        <ele>1066.4</ele>
        <time>2026-03-16T12:00:58Z</time>
      </trkpt>
      <trkpt lat="48.4036" lon="7.27374">
        <ele>1066.8</ele>
        <time>2026-03-16T12:01:03Z</time>
      </trkpt>
      <trkpt lat="48.40353" lon="7.27372">
        <ele>1067.1</ele>
        <time>2026-03-16T12:01:08Z</time>
      </trkpt>
      <trkpt lat="48.40347" lon="7.27372">
        <ele>1067</ele>
        <time>2026-03-16T12:01:13Z</time>
      </trkpt>
      <trkpt lat="48.40341" lon="7.27367">
        <ele>1067.8</ele>
        <time>2026-03-16T12:01:18Z</time>
      </trkpt>
      <trkpt lat="48.40334" lon="7.27363">
        <ele>1068.4</ele>
        <time>2026-03-16T12:01:23Z</time>
      </trkpt>
      <trkpt lat="48.40328" lon="7.27358">
        <ele>1068.8</ele>
        <time>2026-03-16T12:01:28Z</time>
      </trkpt>
      <trkpt lat="48.40323" lon="7.27355">
        <ele>1068.9</ele>
        <time>2026-03-16T12:01:33Z</time>
      </trkpt>
      <trkpt lat="48.40318" lon="7.27354">
        <ele>1068.8</ele>
        <time>2026-03-16T12:01:38Z</time>
      </trkpt>
      <trkpt lat="48.40312" lon="7.27353">
        <ele>1068.5</ele>
        <time>2026-03-16T12:01:43Z</time>
      </trkpt>
      <trkpt lat="48.40305" lon="7.27354">
        <ele>1067.9</ele>
        <time>2026-03-16T12:01:48Z</time>
      </trkpt>
      <trkpt lat="48.40298" lon="7.27353">
        <ele>1067.6</ele>
        <time>2026-03-16T12:01:53Z</time>
      </trkpt>
      <trkpt lat="48.40292" lon="7.27352">
        <ele>1067.4</ele>
        <time>2026-03-16T12:01:58Z</time>
      </trkpt>
      <trkpt lat="48.40285" lon="7.27351">
        <ele>1067.1</ele>
        <time>2026-03-16T12:02:03Z</time>
      </trkpt>
      <trkpt lat="48.40279" lon="7.2735">
        <ele>1066.9</ele>
        <time>2026-03-16T12:02:08Z</time>
      </trkpt>
      <trkpt lat="48.40273" lon="7.27349">
        <ele>1066.7</ele>
        <time>2026-03-16T12:02:13Z</time>
      </trkpt>
      <trkpt lat="48.40266" lon="7.27348">
        <ele>1066.4</ele>
        <time>2026-03-16T12:02:18Z</time>
      </trkpt>
      <trkpt lat="48.40259" lon="7.27347">
        <ele>1066.1</ele>
        <time>2026-03-16T12:02:23Z</time>
      </trkpt>
      <trkpt lat="48.40256" lon="7.27348">
        <ele>1065.7</ele>
        <time>2026-03-16T12:02:28Z</time>
      </trkpt>
      <trkpt lat="48.4025" lon="7.27349">
        <ele>1065.2</ele>
        <time>2026-03-16T12:02:33Z</time>
      </trkpt>
      <trkpt lat="48.40244" lon="7.27348">
        <ele>1064.5</ele>
        <time>2026-03-16T12:02:38Z</time>
      </trkpt>
      <trkpt lat="48.40237" lon="7.27345">
        <ele>1064.1</ele>
        <time>2026-03-16T12:02:43Z</time>
      </trkpt>
      <trkpt lat="48.4023" lon="7.27342">
        <ele>1063.6</ele>
        <time>2026-03-16T12:02:48Z</time>
      </trkpt>
      <trkpt lat="48.40225" lon="7.2734">
        <ele>1063.2</ele>
        <time>2026-03-16T12:02:53Z</time>
      </trkpt>
      <trkpt lat="48.40219" lon="7.27335">
        <ele>1063.3</ele>
        <time>2026-03-16T12:02:58Z</time>
      </trkpt>
      <trkpt lat="48.40213" lon="7.27333">
        <ele>1062.7</ele>
        <time>2026-03-16T12:03:03Z</time>
      </trkpt>
      <trkpt lat="48.40208" lon="7.27329">
        <ele>1062.5</ele>
        <time>2026-03-16T12:03:08Z</time>
      </trkpt>
      <trkpt lat="48.40203" lon="7.27324">
        <ele>1062.4</ele>
        <time>2026-03-16T12:03:13Z</time>
      </trkpt>
      <trkpt lat="48.40198" lon="7.27319">
        <ele>1062.2</ele>
        <time>2026-03-16T12:03:18Z</time>
      </trkpt>
      <trkpt lat="48.40195" lon="7.27315">
        <ele>1062.3</ele>
        <time>2026-03-16T12:03:23Z</time>
      </trkpt>
      <trkpt lat="48.40192" lon="7.2731">
        <ele>1062.4</ele>
        <time>2026-03-16T12:03:28Z</time>
      </trkpt>
      <trkpt lat="48.40187" lon="7.27307">
        <ele>1062.1</ele>
        <time>2026-03-16T12:03:33Z</time>
      </trkpt>
      <trkpt lat="48.40184" lon="7.27303">
        <ele>1062.1</ele>
        <time>2026-03-16T12:03:38Z</time>
      </trkpt>
      <trkpt lat="48.4018" lon="7.27298">
        <ele>1062.2</ele>
        <time>2026-03-16T12:03:43Z</time>
      </trkpt>
      <trkpt lat="48.40175" lon="7.27293">
        <ele>1062</ele>
        <time>2026-03-16T12:03:48Z</time>
      </trkpt>
      <trkpt lat="48.40169" lon="7.27288">
        <ele>1061.8</ele>
        <time>2026-03-16T12:03:53Z</time>
      </trkpt>
      <trkpt lat="48.40164" lon="7.27283">
        <ele>1061.6</ele>
        <time>2026-03-16T12:03:58Z</time>
      </trkpt>
      <trkpt lat="48.4016" lon="7.27275">
        <ele>1061.9</ele>
        <time>2026-03-16T12:04:03Z</time>
      </trkpt>
      <trkpt lat="48.40155" lon="7.27266">
        <ele>1062.2</ele>
        <time>2026-03-16T12:04:08Z</time>
      </trkpt>
      <trkpt lat="48.4015" lon="7.27259">
        <ele>1062.3</ele>
        <time>2026-03-16T12:04:13Z</time>
      </trkpt>
      <trkpt lat="48.40146" lon="7.27253">
        <ele>1062.4</ele>
        <time>2026-03-16T12:04:18Z</time>
      </trkpt>
      <trkpt lat="48.4014" lon="7.27244">
        <ele>1062.5</ele>
        <time>2026-03-16T12:04:23Z</time>
      </trkpt>
      <trkpt lat="48.40136" lon="7.27236">
        <ele>1062.7</ele>
        <time>2026-03-16T12:04:28Z</time>
      </trkpt>
      <trkpt lat="48.40133" lon="7.27227">
        <ele>1063.2</ele>
        <time>2026-03-16T12:04:33Z</time>
      </trkpt>
      <trkpt lat="48.40129" lon="7.2722">
        <ele>1063.4</ele>
        <time>2026-03-16T12:04:38Z</time>
      </trkpt>
      <trkpt lat="48.40125" lon="7.27212">
        <ele>1063.6</ele>
        <time>2026-03-16T12:04:43Z</time>
      </trkpt>
      <trkpt lat="48.40122" lon="7.27205">
        <ele>1063.9</ele>
        <time>2026-03-16T12:04:48Z</time>
      </trkpt>
      <trkpt lat="48.40117" lon="7.27198">
        <ele>1063.9</ele>
        <time>2026-03-16T12:04:53Z</time>
      </trkpt>
      <trkpt lat="48.40113" lon="7.2719">
        <ele>1064.1</ele>
        <time>2026-03-16T12:04:58Z</time>
      </trkpt>
      <trkpt lat="48.40108" lon="7.27182">
        <ele>1064.2</ele>
        <time>2026-03-16T12:05:03Z</time>
      </trkpt>
      <trkpt lat="48.40106" lon="7.27174">
        <ele>1064.7</ele>
        <time>2026-03-16T12:05:08Z</time>
      </trkpt>
      <trkpt lat="48.40104" lon="7.27167">
        <ele>1065.2</ele>
        <time>2026-03-16T12:05:13Z</time>
      </trkpt>
      <trkpt lat="48.40102" lon="7.27161">
        <ele>1065.3</ele>
        <time>2026-03-16T12:05:18Z</time>
      </trkpt>
      <trkpt lat="48.40098" lon="7.27153">
        <ele>1065.2</ele>
        <time>2026-03-16T12:05:23Z</time>
      </trkpt>
      <trkpt lat="48.40097" lon="7.27146">
        <ele>1065.6</ele>
        <time>2026-03-16T12:05:28Z</time>
      </trkpt>
      <trkpt lat="48.40095" lon="7.2714">
        <ele>1065.7</ele>
        <time>2026-03-16T12:05:33Z</time>
      </trkpt>
      <trkpt lat="48.40091" lon="7.27135">
        <ele>1065.4</ele>
        <time>2026-03-16T12:05:38Z</time>
      </trkpt>
      <trkpt lat="48.4009" lon="7.27125">
        <ele>1066</ele>
        <time>2026-03-16T12:05:43Z</time>
      </trkpt>
      <trkpt lat="48.40087" lon="7.27116">
        <ele>1066.2</ele>
        <time>2026-03-16T12:05:48Z</time>
      </trkpt>
      <trkpt lat="48.40084" lon="7.27108">
        <ele>1066.3</ele>
        <time>2026-03-16T12:05:53Z</time>
      </trkpt>
      <trkpt lat="48.4008" lon="7.27101">
        <ele>1066.3</ele>
        <time>2026-03-16T12:05:58Z</time>
      </trkpt>
      <trkpt lat="48.40079" lon="7.27093">
        <ele>1066.7</ele>
        <time>2026-03-16T12:06:03Z</time>
      </trkpt>
      <trkpt lat="48.40078" lon="7.27086">
        <ele>1067.1</ele>
        <time>2026-03-16T12:06:08Z</time>
      </trkpt>
      <trkpt lat="48.40077" lon="7.27079">
        <ele>1067.4</ele>
        <time>2026-03-16T12:06:13Z</time>
      </trkpt>
      <trkpt lat="48.40075" lon="7.27071">
        <ele>1067.7</ele>
        <time>2026-03-16T12:06:18Z</time>
      </trkpt>
      <trkpt lat="48.40072" lon="7.27064">
        <ele>1067.8</ele>
        <time>2026-03-16T12:06:23Z</time>
      </trkpt>
      <trkpt lat="48.40071" lon="7.27057">
        <ele>1068.1</ele>
        <time>2026-03-16T12:06:28Z</time>
      </trkpt>
      <trkpt lat="48.40068" lon="7.27048">
        <ele>1068.3</ele>
        <time>2026-03-16T12:06:33Z</time>
      </trkpt>
      <trkpt lat="48.40065" lon="7.2704">
        <ele>1068.5</ele>
        <time>2026-03-16T12:06:38Z</time>
      </trkpt>
      <trkpt lat="48.40063" lon="7.27031">
        <ele>1068.9</ele>
        <time>2026-03-16T12:06:43Z</time>
      </trkpt>
      <trkpt lat="48.40061" lon="7.27022">
        <ele>1069.3</ele>
        <time>2026-03-16T12:06:48Z</time>
      </trkpt>
      <trkpt lat="48.40057" lon="7.27013">
        <ele>1069.5</ele>
        <time>2026-03-16T12:06:53Z</time>
      </trkpt>
      <trkpt lat="48.40054" lon="7.27008">
        <ele>1069.6</ele>
        <time>2026-03-16T12:06:58Z</time>
      </trkpt>
      <trkpt lat="48.40049" lon="7.27003">
        <ele>1069.5</ele>
        <time>2026-03-16T12:07:03Z</time>
      </trkpt>
      <trkpt lat="48.40044" lon="7.26999">
        <ele>1069.3</ele>
        <time>2026-03-16T12:07:08Z</time>
      </trkpt>
      <trkpt lat="48.40038" lon="7.26994">
        <ele>1068.9</ele>
        <time>2026-03-16T12:07:13Z</time>
      </trkpt>
      <trkpt lat="48.40033" lon="7.2699">
        <ele>1068.6</ele>
        <time>2026-03-16T12:07:18Z</time>
      </trkpt>
      <trkpt lat="48.4003" lon="7.26985">
        <ele>1068.6</ele>
        <time>2026-03-16T12:07:23Z</time>
      </trkpt>
      <trkpt lat="48.40026" lon="7.26978">
        <ele>1068.6</ele>
        <time>2026-03-16T12:07:28Z</time>
      </trkpt>
      <trkpt lat="48.4002" lon="7.26975">
        <ele>1068.2</ele>
        <time>2026-03-16T12:07:33Z</time>
      </trkpt>
      <trkpt lat="48.40017" lon="7.26968">
        <ele>1068.3</ele>
        <time>2026-03-16T12:07:38Z</time>
      </trkpt>
      <trkpt lat="48.40014" lon="7.26962">
        <ele>1068.4</ele>
        <time>2026-03-16T12:07:43Z</time>
      </trkpt>
      <trkpt lat="48.40012" lon="7.26954">
        <ele>1068.7</ele>
        <time>2026-03-16T12:07:48Z</time>
      </trkpt>
      <trkpt lat="48.40013" lon="7.26947">
        <ele>1069.1</ele>
        <time>2026-03-16T12:07:53Z</time>
      </trkpt>
      <trkpt lat="48.40013" lon="7.26943">
        <ele>1069.3</ele>
        <time>2026-03-16T12:07:58Z</time>
      </trkpt>
      <trkpt lat="48.40014" lon="7.26938">
        <ele>1069.7</ele>
        <time>2026-03-16T12:08:03Z</time>
      </trkpt>
      <trkpt lat="48.40013" lon="7.2693">
        <ele>1070.1</ele>
        <time>2026-03-16T12:08:08Z</time>
      </trkpt>
      <trkpt lat="48.4001" lon="7.26922">
        <ele>1070.3</ele>
        <time>2026-03-16T12:08:13Z</time>
      </trkpt>
      <trkpt lat="48.40008" lon="7.26915">
        <ele>1070.6</ele>
        <time>2026-03-16T12:08:18Z</time>
      </trkpt>
      <trkpt lat="48.40005" lon="7.26909">
        <ele>1070.7</ele>
        <time>2026-03-16T12:08:23Z</time>
      </trkpt>
      <trkpt lat="48.40002" lon="7.26904">
        <ele>1070.9</ele>
        <time>2026-03-16T12:08:28Z</time>
      </trkpt>
      <trkpt lat="48.39999" lon="7.26897">
        <ele>1071.2</ele>
        <time>2026-03-16T12:08:33Z</time>
      </trkpt>
      <trkpt lat="48.39997" lon="7.26889">
        <ele>1071.7</ele>
        <time>2026-03-16T12:08:38Z</time>
      </trkpt>
      <trkpt lat="48.39994" lon="7.26881">
        <ele>1072.2</ele>
        <time>2026-03-16T12:08:43Z</time>
      </trkpt>
      <trkpt lat="48.39989" lon="7.26874">
        <ele>1072.8</ele>
        <time>2026-03-16T12:08:48Z</time>
      </trkpt>
      <trkpt lat="48.39986" lon="7.26866">
        <ele>1073.3</ele>
        <time>2026-03-16T12:08:53Z</time>
      </trkpt>
      <trkpt lat="48.39982" lon="7.26859">
        <ele>1073.9</ele>
        <time>2026-03-16T12:08:58Z</time>
      </trkpt>
      <trkpt lat="48.39981" lon="7.2685">
        <ele>1074.5</ele>
        <time>2026-03-16T12:09:03Z</time>
      </trkpt>
      <trkpt lat="48.39979" lon="7.26842">
        <ele>1075.2</ele>
        <time>2026-03-16T12:09:08Z</time>
      </trkpt>
      <trkpt lat="48.39976" lon="7.26836">
        <ele>1075.7</ele>
        <time>2026-03-16T12:09:13Z</time>
      </trkpt>
      <trkpt lat="48.39973" lon="7.26828">
        <ele>1076.1</ele>
        <time>2026-03-16T12:09:18Z</time>
      </trkpt>
      <trkpt lat="48.39973" lon="7.26823">
        <ele>1076.1</ele>
        <time>2026-03-16T12:09:23Z</time>
      </trkpt>
      <trkpt lat="48.39972" lon="7.26819">
        <ele>1076.2</ele>
        <time>2026-03-16T12:09:28Z</time>
      </trkpt>
      <trkpt lat="48.3997" lon="7.26818">
        <ele>1076.3</ele>
        <time>2026-03-16T12:09:33Z</time>
      </trkpt>
      <trkpt lat="48.3997" lon="7.26818">
        <ele>1076.3</ele>
        <time>2026-03-16T12:09:38Z</time>
      </trkpt>
      <trkpt lat="48.39965" lon="7.26819">
        <ele>1076.5</ele>
        <time>2026-03-16T12:09:43Z</time>
      </trkpt>
      <trkpt lat="48.39963" lon="7.26824">
        <ele>1076.5</ele>
        <time>2026-03-16T12:09:48Z</time>
      </trkpt>
      <trkpt lat="48.39962" lon="7.26829">
        <ele>1076.4</ele>
        <time>2026-03-16T12:09:53Z</time>
      </trkpt>
      <trkpt lat="48.39961" lon="7.26836">
        <ele>1076.2</ele>
        <time>2026-03-16T12:09:58Z</time>
      </trkpt>
      <trkpt lat="48.39958" lon="7.26844">
        <ele>1075.7</ele>
        <time>2026-03-16T12:10:03Z</time>
      </trkpt>
      <trkpt lat="48.39956" lon="7.26854">
        <ele>1075</ele>
        <time>2026-03-16T12:10:08Z</time>
      </trkpt>
      <trkpt lat="48.39954" lon="7.26863">
        <ele>1074.3</ele>
        <time>2026-03-16T12:10:13Z</time>
      </trkpt>
      <trkpt lat="48.39952" lon="7.26874">
        <ele>1073.4</ele>
        <time>2026-03-16T12:10:18Z</time>
      </trkpt>
      <trkpt lat="48.39951" lon="7.26887">
        <ele>1072.4</ele>
        <time>2026-03-16T12:10:23Z</time>
      </trkpt>
      <trkpt lat="48.39948" lon="7.26897">
        <ele>1071.6</ele>
        <time>2026-03-16T12:10:28Z</time>
      </trkpt>
      <trkpt lat="48.39946" lon="7.26904">
        <ele>1071.1</ele>
        <time>2026-03-16T12:10:33Z</time>
      </trkpt>
      <trkpt lat="48.39946" lon="7.2691">
        <ele>1070.6</ele>
        <time>2026-03-16T12:10:38Z</time>
      </trkpt>
      <trkpt lat="48.39946" lon="7.26913">
        <ele>1070.3</ele>
        <time>2026-03-16T12:10:43Z</time>
      </trkpt>
      <trkpt lat="48.39946" lon="7.26913">
        <ele>1070.3</ele>
        <time>2026-03-16T12:10:48Z</time>
      </trkpt>
      <trkpt lat="48.39946" lon="7.26913">
        <ele>1070.3</ele>
        <time>2026-03-16T12:10:53Z</time>
      </trkpt>
      <trkpt lat="48.39946" lon="7.26913">
        <ele>1070.3</ele>
        <time>2026-03-16T12:10:58Z</time>
      </trkpt>
      <trkpt lat="48.39941" lon="7.26928">
        <ele>1068.9</ele>
        <time>2026-03-16T12:11:03Z</time>
      </trkpt>
      <trkpt lat="48.39941" lon="7.26929">
        <ele>1068.8</ele>
        <time>2026-03-16T12:11:08Z</time>
      </trkpt>
      <trkpt lat="48.39941" lon="7.26929">
        <ele>1068.8</ele>
        <time>2026-03-16T12:11:13Z</time>
      </trkpt>
      <trkpt lat="48.39941" lon="7.26929">
        <ele>1068.8</ele>
        <time>2026-03-16T12:11:18Z</time>
      </trkpt>
      <trkpt lat="48.3994" lon="7.26937">
        <ele>1068.1</ele>
        <time>2026-03-16T12:11:23Z</time>
      </trkpt>
      <trkpt lat="48.39941" lon="7.26945">
        <ele>1067.3</ele>
        <time>2026-03-16T12:11:28Z</time>
      </trkpt>
      <trkpt lat="48.39942" lon="7.26952">
        <ele>1066.7</ele>
        <time>2026-03-16T12:11:33Z</time>
      </trkpt>
      <trkpt lat="48.39942" lon="7.26955">
        <ele>1066.4</ele>
        <time>2026-03-16T12:11:38Z</time>
      </trkpt>
      <trkpt lat="48.39942" lon="7.26957">
        <ele>1066.2</ele>
        <time>2026-03-16T12:11:43Z</time>
      </trkpt>
      <trkpt lat="48.39942" lon="7.26957">
        <ele>1066.2</ele>
        <time>2026-03-16T12:11:48Z</time>
      </trkpt>
      <trkpt lat="48.39942" lon="7.26957">
        <ele>1066.2</ele>
        <time>2026-03-16T12:11:53Z</time>
      </trkpt>
      <trkpt lat="48.39942" lon="7.26957">
        <ele>1066.2</ele>
        <time>2026-03-16T12:11:58Z</time>
      </trkpt>
      <trkpt lat="48.39942" lon="7.26957">
        <ele>1066.2</ele>
        <time>2026-03-16T12:12:03Z</time>
      </trkpt>
      <trkpt lat="48.39944" lon="7.26967">
        <ele>1065.4</ele>
        <time>2026-03-16T12:12:08Z</time>
      </trkpt>
      <trkpt lat="48.39945" lon="7.26969">
        <ele>1065.2</ele>
        <time>2026-03-16T12:12:13Z</time>
      </trkpt>
      <trkpt lat="48.39945" lon="7.26969">
        <ele>1065.2</ele>
        <time>2026-03-16T12:12:18Z</time>
      </trkpt>
      <trkpt lat="48.39945" lon="7.26984">
        <ele>1063.8</ele>
        <time>2026-03-16T12:12:23Z</time>
      </trkpt>
      <trkpt lat="48.39944" lon="7.26988">
        <ele>1063.4</ele>
        <time>2026-03-16T12:12:28Z</time>
      </trkpt>
      <trkpt lat="48.39944" lon="7.26989">
        <ele>1063.3</ele>
        <time>2026-03-16T12:12:33Z</time>
      </trkpt>
      <trkpt lat="48.39943" lon="7.26999">
        <ele>1062.4</ele>
        <time>2026-03-16T12:12:38Z</time>
      </trkpt>
      <trkpt lat="48.39945" lon="7.27006">
        <ele>1062</ele>
        <time>2026-03-16T12:12:43Z</time>
      </trkpt>
      <trkpt lat="48.39949" lon="7.27013">
        <ele>1061.8</ele>
        <time>2026-03-16T12:12:48Z</time>
      </trkpt>
      <trkpt lat="48.39952" lon="7.27017">
        <ele>1061.7</ele>
        <time>2026-03-16T12:12:53Z</time>
      </trkpt>
      <trkpt lat="48.39954" lon="7.2702">
        <ele>1061.5</ele>
        <time>2026-03-16T12:12:58Z</time>
      </trkpt>
      <trkpt lat="48.39954" lon="7.27022">
        <ele>1061.4</ele>
        <time>2026-03-16T12:13:03Z</time>
      </trkpt>
      <trkpt lat="48.39954" lon="7.27022">
        <ele>1061.4</ele>
        <time>2026-03-16T12:13:08Z</time>
      </trkpt>
      <trkpt lat="48.3996" lon="7.2703">
        <ele>1061.1</ele>
        <time>2026-03-16T12:13:13Z</time>
      </trkpt>
      <trkpt lat="48.39963" lon="7.27037">
        <ele>1060.7</ele>
        <time>2026-03-16T12:13:18Z</time>
      </trkpt>
      <trkpt lat="48.39968" lon="7.27044">
        <ele>1060.3</ele>
        <time>2026-03-16T12:13:23Z</time>
      </trkpt>
      <trkpt lat="48.39973" lon="7.27049">
        <ele>1060</ele>
        <time>2026-03-16T12:13:28Z</time>
      </trkpt>
      <trkpt lat="48.39978" lon="7.27053">
        <ele>1059.7</ele>
        <time>2026-03-16T12:13:33Z</time>
      </trkpt>
      <trkpt lat="48.39981" lon="7.27058">
        <ele>1059.3</ele>
        <time>2026-03-16T12:13:38Z</time>
      </trkpt>
      <trkpt lat="48.39985" lon="7.27062">
        <ele>1059</ele>
        <time>2026-03-16T12:13:43Z</time>
      </trkpt>
      <trkpt lat="48.39988" lon="7.27068">
        <ele>1058.5</ele>
        <time>2026-03-16T12:13:48Z</time>
      </trkpt>
      <trkpt lat="48.39991" lon="7.27068">
        <ele>1058.5</ele>
        <time>2026-03-16T12:13:53Z</time>
      </trkpt>
      <trkpt lat="48.39994" lon="7.27072">
        <ele>1058.1</ele>
        <time>2026-03-16T12:13:58Z</time>
      </trkpt>
      <trkpt lat="48.39995" lon="7.2708">
        <ele>1057.4</ele>
        <time>2026-03-16T12:14:03Z</time>
      </trkpt>
      <trkpt lat="48.39997" lon="7.2709">
        <ele>1056.5</ele>
        <time>2026-03-16T12:14:08Z</time>
      </trkpt>
      <trkpt lat="48.4" lon="7.27096">
        <ele>1055.9</ele>
        <time>2026-03-16T12:14:13Z</time>
      </trkpt>
      <trkpt lat="48.40004" lon="7.27102">
        <ele>1056</ele>
        <time>2026-03-16T12:14:18Z</time>
      </trkpt>
      <trkpt lat="48.40008" lon="7.27109">
        <ele>1055.9</ele>
        <time>2026-03-16T12:14:23Z</time>
      </trkpt>
      <trkpt lat="48.40011" lon="7.27118">
        <ele>1055.6</ele>
        <time>2026-03-16T12:14:28Z</time>
      </trkpt>
      <trkpt lat="48.40013" lon="7.27128">
        <ele>1055</ele>
        <time>2026-03-16T12:14:33Z</time>
      </trkpt>
      <trkpt lat="48.40014" lon="7.27134">
        <ele>1054.7</ele>
        <time>2026-03-16T12:14:38Z</time>
      </trkpt>
      <trkpt lat="48.40015" lon="7.27137">
        <ele>1054.6</ele>
        <time>2026-03-16T12:14:43Z</time>
      </trkpt>
      <trkpt lat="48.40019" lon="7.27141">
        <ele>1054.8</ele>
        <time>2026-03-16T12:14:48Z</time>
      </trkpt>
      <trkpt lat="48.4002" lon="7.2715">
        <ele>1054.2</ele>
        <time>2026-03-16T12:14:53Z</time>
      </trkpt>
      <trkpt lat="48.40019" lon="7.27152">
        <ele>1053.9</ele>
        <time>2026-03-16T12:14:58Z</time>
      </trkpt>
      <trkpt lat="48.40021" lon="7.27155">
        <ele>1054</ele>
        <time>2026-03-16T12:15:03Z</time>
      </trkpt>
      <trkpt lat="48.40024" lon="7.27161">
        <ele>1053.9</ele>
        <time>2026-03-16T12:15:08Z</time>
      </trkpt>
      <trkpt lat="48.40025" lon="7.27173">
        <ele>1053</ele>
        <time>2026-03-16T12:15:13Z</time>
      </trkpt>
      <trkpt lat="48.40028" lon="7.27182">
        <ele>1052.5</ele>
        <time>2026-03-16T12:15:18Z</time>
      </trkpt>
      <trkpt lat="48.40029" lon="7.27193">
        <ele>1051.5</ele>
        <time>2026-03-16T12:15:23Z</time>
      </trkpt>
      <trkpt lat="48.40031" lon="7.27203">
        <ele>1050.8</ele>
        <time>2026-03-16T12:15:28Z</time>
      </trkpt>
      <trkpt lat="48.40034" lon="7.27213">
        <ele>1050.2</ele>
        <time>2026-03-16T12:15:33Z</time>
      </trkpt>
      <trkpt lat="48.40037" lon="7.27224">
        <ele>1049.5</ele>
        <time>2026-03-16T12:15:38Z</time>
      </trkpt>
      <trkpt lat="48.40042" lon="7.27234">
        <ele>1049.2</ele>
        <time>2026-03-16T12:15:43Z</time>
      </trkpt>
      <trkpt lat="48.40046" lon="7.27243">
        <ele>1048.8</ele>
        <time>2026-03-16T12:15:48Z</time>
      </trkpt>
      <trkpt lat="48.40049" lon="7.27253">
        <ele>1048.1</ele>
        <time>2026-03-16T12:15:53Z</time>
      </trkpt>
      <trkpt lat="48.40053" lon="7.27259">
        <ele>1047.8</ele>
        <time>2026-03-16T12:15:58Z</time>
      </trkpt>
      <trkpt lat="48.40057" lon="7.27267">
        <ele>1047.2</ele>
        <time>2026-03-16T12:16:03Z</time>
      </trkpt>
      <trkpt lat="48.40062" lon="7.27278">
        <ele>1046.3</ele>
        <time>2026-03-16T12:16:08Z</time>
      </trkpt>
      <trkpt lat="48.40067" lon="7.27286">
        <ele>1045.8</ele>
        <time>2026-03-16T12:16:13Z</time>
      </trkpt>
      <trkpt lat="48.4007" lon="7.27291">
        <ele>1045.5</ele>
        <time>2026-03-16T12:16:18Z</time>
      </trkpt>
      <trkpt lat="48.40072" lon="7.27293">
        <ele>1045.5</ele>
        <time>2026-03-16T12:16:23Z</time>
      </trkpt>
      <trkpt lat="48.40071" lon="7.27294">
        <ele>1045.2</ele>
        <time>2026-03-16T12:16:28Z</time>
      </trkpt>
      <trkpt lat="48.40078" lon="7.27296">
        <ele>1045.7</ele>
        <time>2026-03-16T12:16:33Z</time>
      </trkpt>
      <trkpt lat="48.40081" lon="7.27303">
        <ele>1045.1</ele>
        <time>2026-03-16T12:16:38Z</time>
      </trkpt>
      <trkpt lat="48.40083" lon="7.2731">
        <ele>1044.3</ele>
        <time>2026-03-16T12:16:43Z</time>
      </trkpt>
      <trkpt lat="48.40086" lon="7.27314">
        <ele>1044.2</ele>
        <time>2026-03-16T12:16:48Z</time>
      </trkpt>
      <trkpt lat="48.40087" lon="7.27321">
        <ele>1043.4</ele>
        <time>2026-03-16T12:16:53Z</time>
      </trkpt>
      <trkpt lat="48.40087" lon="7.27323">
        <ele>1043.1</ele>
        <time>2026-03-16T12:16:58Z</time>
      </trkpt>
      <trkpt lat="48.40087" lon="7.27323">
        <ele>1043.1</ele>
        <time>2026-03-16T12:17:03Z</time>
      </trkpt>
      <trkpt lat="48.40087" lon="7.27323">
        <ele>1043.1</ele>
        <time>2026-03-16T12:17:08Z</time>
      </trkpt>
      <trkpt lat="48.40087" lon="7.27323">
        <ele>1043.1</ele>
        <time>2026-03-16T12:17:13Z</time>
      </trkpt>
      <trkpt lat="48.40087" lon="7.27323">
        <ele>1043.1</ele>
        <time>2026-03-16T12:17:18Z</time>
      </trkpt>
      <trkpt lat="48.40087" lon="7.27323">
        <ele>1043.1</ele>
        <time>2026-03-16T12:17:23Z</time>
      </trkpt>
      <trkpt lat="48.40087" lon="7.27327">
        <ele>1042.6</ele>
        <time>2026-03-16T12:17:28Z</time>
      </trkpt>
      <trkpt lat="48.4009" lon="7.27333">
        <ele>1042.2</ele>
        <time>2026-03-16T12:17:33Z</time>
      </trkpt>
      <trkpt lat="48.40094" lon="7.2734">
        <ele>1042.2</ele>
        <time>2026-03-16T12:17:38Z</time>
      </trkpt>
      <trkpt lat="48.40099" lon="7.27346">
        <ele>1042.3</ele>
        <time>2026-03-16T12:17:43Z</time>
      </trkpt>
      <trkpt lat="48.40104" lon="7.27353">
        <ele>1042.4</ele>
        <time>2026-03-16T12:17:48Z</time>
      </trkpt>
      <trkpt lat="48.40107" lon="7.2736">
        <ele>1042</ele>
        <time>2026-03-16T12:17:53Z</time>
      </trkpt>
      <trkpt lat="48.40111" lon="7.27368">
        <ele>1041.7</ele>
        <time>2026-03-16T12:17:58Z</time>
      </trkpt>
      <trkpt lat="48.40117" lon="7.27377">
        <ele>1041.5</ele>
        <time>2026-03-16T12:18:03Z</time>
      </trkpt>
      <trkpt lat="48.40123" lon="7.27383">
        <ele>1041.6</ele>
        <time>2026-03-16T12:18:08Z</time>
      </trkpt>
      <trkpt lat="48.40128" lon="7.27389">
        <ele>1041.6</ele>
        <time>2026-03-16T12:18:13Z</time>
      </trkpt>
      <trkpt lat="48.40134" lon="7.27399">
        <ele>1041.1</ele>
        <time>2026-03-16T12:18:18Z</time>
      </trkpt>
      <trkpt lat="48.40139" lon="7.27404">
        <ele>1041.1</ele>
        <time>2026-03-16T12:18:23Z</time>
      </trkpt>
      <trkpt lat="48.40146" lon="7.27411">
        <ele>1041.1</ele>
        <time>2026-03-16T12:18:28Z</time>
      </trkpt>
      <trkpt lat="48.40149" lon="7.27419">
        <ele>1040.4</ele>
        <time>2026-03-16T12:18:33Z</time>
      </trkpt>
      <trkpt lat="48.40152" lon="7.27426">
        <ele>1039.8</ele>
        <time>2026-03-16T12:18:38Z</time>
      </trkpt>
      <trkpt lat="48.40157" lon="7.27431">
        <ele>1039.8</ele>
        <time>2026-03-16T12:18:43Z</time>
      </trkpt>
      <trkpt lat="48.4016" lon="7.27436">
        <ele>1039.6</ele>
        <time>2026-03-16T12:18:48Z</time>
      </trkpt>
      <trkpt lat="48.40166" lon="7.27442">
        <ele>1039.6</ele>
        <time>2026-03-16T12:18:53Z</time>
      </trkpt>
      <trkpt lat="48.40171" lon="7.2745">
        <ele>1039</ele>
        <time>2026-03-16T12:18:58Z</time>
      </trkpt>
      <trkpt lat="48.40176" lon="7.27459">
        <ele>1038.2</ele>
        <time>2026-03-16T12:19:03Z</time>
      </trkpt>
      <trkpt lat="48.40183" lon="7.27467">
        <ele>1037.7</ele>
        <time>2026-03-16T12:19:08Z</time>
      </trkpt>
      <trkpt lat="48.40188" lon="7.27474">
        <ele>1037.1</ele>
        <time>2026-03-16T12:19:13Z</time>
      </trkpt>
      <trkpt lat="48.40194" lon="7.27479">
        <ele>1036.8</ele>
        <time>2026-03-16T12:19:18Z</time>
      </trkpt>
      <trkpt lat="48.402" lon="7.27485">
        <ele>1036.3</ele>
        <time>2026-03-16T12:19:23Z</time>
      </trkpt>
      <trkpt lat="48.40208" lon="7.27488">
        <ele>1036.4</ele>
        <time>2026-03-16T12:19:28Z</time>
      </trkpt>
      <trkpt lat="48.40215" lon="7.27488">
        <ele>1036.9</ele>
        <time>2026-03-16T12:19:33Z</time>
      </trkpt>
      <trkpt lat="48.40223" lon="7.27489">
        <ele>1037.3</ele>
        <time>2026-03-16T12:19:38Z</time>
      </trkpt>
      <trkpt lat="48.4023" lon="7.27492">
        <ele>1037.2</ele>
        <time>2026-03-16T12:19:43Z</time>
      </trkpt>
      <trkpt lat="48.40238" lon="7.27493">
        <ele>1037.6</ele>
        <time>2026-03-16T12:19:48Z</time>
      </trkpt>
      <trkpt lat="48.40244" lon="7.27493">
        <ele>1038</ele>
        <time>2026-03-16T12:19:53Z</time>
      </trkpt>
      <trkpt lat="48.4025" lon="7.27495">
        <ele>1038</ele>
        <time>2026-03-16T12:19:58Z</time>
      </trkpt>
      <trkpt lat="48.40258" lon="7.27498">
        <ele>1038.4</ele>
        <time>2026-03-16T12:20:03Z</time>
      </trkpt>
      <trkpt lat="48.40265" lon="7.27502">
        <ele>1038.7</ele>
        <time>2026-03-16T12:20:08Z</time>
      </trkpt>
      <trkpt lat="48.40272" lon="7.27506">
        <ele>1039</ele>
        <time>2026-03-16T12:20:13Z</time>
      </trkpt>
      <trkpt lat="48.40279" lon="7.27508">
        <ele>1039.6</ele>
        <time>2026-03-16T12:20:18Z</time>
      </trkpt>
      <trkpt lat="48.40287" lon="7.27511">
        <ele>1040.1</ele>
        <time>2026-03-16T12:20:23Z</time>
      </trkpt>
      <trkpt lat="48.40295" lon="7.27516">
        <ele>1040.3</ele>
        <time>2026-03-16T12:20:28Z</time>
      </trkpt>
      <trkpt lat="48.40302" lon="7.27518">
        <ele>1040.9</ele>
        <time>2026-03-16T12:20:33Z</time>
      </trkpt>
      <trkpt lat="48.40308" lon="7.2752">
        <ele>1041.3</ele>
        <time>2026-03-16T12:20:38Z</time>
      </trkpt>
      <trkpt lat="48.40314" lon="7.27523">
        <ele>1041.5</ele>
        <time>2026-03-16T12:20:43Z</time>
      </trkpt>
      <trkpt lat="48.4032" lon="7.27529">
        <ele>1041.2</ele>
        <time>2026-03-16T12:20:48Z</time>
      </trkpt>
      <trkpt lat="48.40328" lon="7.27534">
        <ele>1041.3</ele>
        <time>2026-03-16T12:20:53Z</time>
      </trkpt>
      <trkpt lat="48.40337" lon="7.27537">
        <ele>1041.4</ele>
        <time>2026-03-16T12:20:58Z</time>
      </trkpt>
      <trkpt lat="48.40344" lon="7.2754">
        <ele>1040.9</ele>
        <time>2026-03-16T12:21:03Z</time>
      </trkpt>
      <trkpt lat="48.40353" lon="7.2754">
        <ele>1041</ele>
        <time>2026-03-16T12:21:08Z</time>
      </trkpt>
      <trkpt lat="48.4036" lon="7.27544">
        <ele>1040.4</ele>
        <time>2026-03-16T12:21:13Z</time>
      </trkpt>
      <trkpt lat="48.40366" lon="7.27552">
        <ele>1039.1</ele>
        <time>2026-03-16T12:21:18Z</time>
      </trkpt>
      <trkpt lat="48.40374" lon="7.27555">
        <ele>1038.7</ele>
        <time>2026-03-16T12:21:23Z</time>
      </trkpt>
      <trkpt lat="48.40381" lon="7.27558">
        <ele>1038.4</ele>
        <time>2026-03-16T12:21:28Z</time>
      </trkpt>
      <trkpt lat="48.40387" lon="7.27564">
        <ele>1037.5</ele>
        <time>2026-03-16T12:21:33Z</time>
      </trkpt>
      <trkpt lat="48.40393" lon="7.27572">
        <ele>1036.3</ele>
        <time>2026-03-16T12:21:38Z</time>
      </trkpt>
      <trkpt lat="48.404" lon="7.27578">
        <ele>1035.5</ele>
        <time>2026-03-16T12:21:43Z</time>
      </trkpt>
      <trkpt lat="48.40406" lon="7.27579">
        <ele>1035.4</ele>
        <time>2026-03-16T12:21:48Z</time>
      </trkpt>
      <trkpt lat="48.40413" lon="7.27581">
        <ele>1035.3</ele>
        <time>2026-03-16T12:21:53Z</time>
      </trkpt>
      <trkpt lat="48.40422" lon="7.27582">
        <ele>1035.3</ele>
        <time>2026-03-16T12:21:58Z</time>
      </trkpt>
      <trkpt lat="48.40431" lon="7.27583">
        <ele>1035.2</ele>
        <time>2026-03-16T12:22:03Z</time>
      </trkpt>
      <trkpt lat="48.40438" lon="7.27581">
        <ele>1035.6</ele>
        <time>2026-03-16T12:22:08Z</time>
      </trkpt>
      <trkpt lat="48.40445" lon="7.27579">
        <ele>1036</ele>
        <time>2026-03-16T12:22:13Z</time>
      </trkpt>
      <trkpt lat="48.40452" lon="7.27575">
        <ele>1036.8</ele>
        <time>2026-03-16T12:22:18Z</time>
      </trkpt>
      <trkpt lat="48.40457" lon="7.27573">
        <ele>1037.2</ele>
        <time>2026-03-16T12:22:23Z</time>
      </trkpt>
      <trkpt lat="48.40463" lon="7.2757">
        <ele>1037.7</ele>
        <time>2026-03-16T12:22:28Z</time>
      </trkpt>
      <trkpt lat="48.4047" lon="7.27566">
        <ele>1038.5</ele>
        <time>2026-03-16T12:22:33Z</time>
      </trkpt>
      <trkpt lat="48.40477" lon="7.27562">
        <ele>1039.2</ele>
        <time>2026-03-16T12:22:38Z</time>
      </trkpt>
      <trkpt lat="48.40485" lon="7.27557">
        <ele>1040.2</ele>
        <time>2026-03-16T12:22:43Z</time>
      </trkpt>
      <trkpt lat="48.40492" lon="7.27552">
        <ele>1041.1</ele>
        <time>2026-03-16T12:22:48Z</time>
      </trkpt>
      <trkpt lat="48.405" lon="7.27548">
        <ele>1041.9</ele>
        <time>2026-03-16T12:22:53Z</time>
      </trkpt>
      <trkpt lat="48.40505" lon="7.27547">
        <ele>1041.6</ele>
        <time>2026-03-16T12:22:58Z</time>
      </trkpt>
      <trkpt lat="48.40511" lon="7.27545">
        <ele>1041.3</ele>
        <time>2026-03-16T12:23:03Z</time>
      </trkpt>
      <trkpt lat="48.40519" lon="7.27544">
        <ele>1040.7</ele>
        <time>2026-03-16T12:23:08Z</time>
      </trkpt>
      <trkpt lat="48.40526" lon="7.27541">
        <ele>1040.5</ele>
        <time>2026-03-16T12:23:13Z</time>
      </trkpt>
      <trkpt lat="48.4053" lon="7.27543">
        <ele>1039.7</ele>
        <time>2026-03-16T12:23:18Z</time>
      </trkpt>
      <trkpt lat="48.40536" lon="7.27546">
        <ele>1038.6</ele>
        <time>2026-03-16T12:23:23Z</time>
      </trkpt>
      <trkpt lat="48.40543" lon="7.27551">
        <ele>1037.1</ele>
        <time>2026-03-16T12:23:28Z</time>
      </trkpt>
      <trkpt lat="48.40551" lon="7.27554">
        <ele>1035.8</ele>
        <time>2026-03-16T12:23:33Z</time>
      </trkpt>
      <trkpt lat="48.40558" lon="7.27555">
        <ele>1035</ele>
        <time>2026-03-16T12:23:38Z</time>
      </trkpt>
      <trkpt lat="48.40566" lon="7.2756">
        <ele>1033.4</ele>
        <time>2026-03-16T12:23:43Z</time>
      </trkpt>
      <trkpt lat="48.40573" lon="7.27566">
        <ele>1031.7</ele>
        <time>2026-03-16T12:23:48Z</time>
      </trkpt>
      <trkpt lat="48.4058" lon="7.27568">
        <ele>1030.7</ele>
        <time>2026-03-16T12:23:53Z</time>
      </trkpt>
      <trkpt lat="48.40588" lon="7.2757">
        <ele>1030.1</ele>
        <time>2026-03-16T12:23:58Z</time>
      </trkpt>
      <trkpt lat="48.40596" lon="7.27575">
        <ele>1029.2</ele>
        <time>2026-03-16T12:24:03Z</time>
      </trkpt>
      <trkpt lat="48.40602" lon="7.27581">
        <ele>1028.2</ele>
        <time>2026-03-16T12:24:08Z</time>
      </trkpt>
      <trkpt lat="48.40606" lon="7.27589">
        <ele>1026.1</ele>
        <time>2026-03-16T12:24:13Z</time>
      </trkpt>
      <trkpt lat="48.4061" lon="7.27594">
        <ele>1024.7</ele>
        <time>2026-03-16T12:24:18Z</time>
      </trkpt>
      <trkpt lat="48.40615" lon="7.27598">
        <ele>1023.4</ele>
        <time>2026-03-16T12:24:23Z</time>
      </trkpt>
      <trkpt lat="48.40623" lon="7.27602">
        <ele>1022.2</ele>
        <time>2026-03-16T12:24:28Z</time>
      </trkpt>
      <trkpt lat="48.40623" lon="7.27615">
        <ele>1018.4</ele>
        <time>2026-03-16T12:24:33Z</time>
      </trkpt>
      <trkpt lat="48.40625" lon="7.27624">
        <ele>1015.8</ele>
        <time>2026-03-16T12:24:38Z</time>
      </trkpt>
      <trkpt lat="48.40626" lon="7.27629">
        <ele>1014.3</ele>
        <time>2026-03-16T12:24:43Z</time>
      </trkpt>
      <trkpt lat="48.40628" lon="7.27636">
        <ele>1012.3</ele>
        <time>2026-03-16T12:24:48Z</time>
      </trkpt>
      <trkpt lat="48.40631" lon="7.27643">
        <ele>1010.1</ele>
        <time>2026-03-16T12:24:53Z</time>
      </trkpt>
      <trkpt lat="48.40631" lon="7.27653">
        <ele>1007.2</ele>
        <time>2026-03-16T12:24:58Z</time>
      </trkpt>
      <trkpt lat="48.40631" lon="7.27664">
        <ele>1004.1</ele>
        <time>2026-03-16T12:25:03Z</time>
      </trkpt>
      <trkpt lat="48.40632" lon="7.27672">
        <ele>1001.9</ele>
        <time>2026-03-16T12:25:08Z</time>
      </trkpt>
      <trkpt lat="48.40633" lon="7.27673">
        <ele>1001.6</ele>
        <time>2026-03-16T12:25:13Z</time>
      </trkpt>
      <trkpt lat="48.40634" lon="7.27675">
        <ele>1001.1</ele>
        <time>2026-03-16T12:25:18Z</time>
      </trkpt>
      <trkpt lat="48.40637" lon="7.27675">
        <ele>1001.1</ele>
        <time>2026-03-16T12:25:23Z</time>
      </trkpt>
      <trkpt lat="48.40637" lon="7.27675">
        <ele>1001.1</ele>
        <time>2026-03-16T12:25:28Z</time>
      </trkpt>
      <trkpt lat="48.40637" lon="7.27675">
        <ele>1001.1</ele>
        <time>2026-03-16T12:25:33Z</time>
      </trkpt>
      <trkpt lat="48.40637" lon="7.27675">
        <ele>1001.1</ele>
        <time>2026-03-16T12:25:38Z</time>
      </trkpt>
      <trkpt lat="48.40636" lon="7.27673">
        <ele>1001.6</ele>
        <time>2026-03-16T12:25:43Z</time>
      </trkpt>
      <trkpt lat="48.40636" lon="7.27673">
        <ele>1001.6</ele>
        <time>2026-03-16T12:25:48Z</time>
      </trkpt>
      <trkpt lat="48.40631" lon="7.2767">
        <ele>1002.4</ele>
        <time>2026-03-16T12:25:53Z</time>
      </trkpt>
      <trkpt lat="48.40624" lon="7.2768">
        <ele>999.8</ele>
        <time>2026-03-16T12:25:58Z</time>
      </trkpt>
      <trkpt lat="48.40618" lon="7.27685">
        <ele>998.3</ele>
        <time>2026-03-16T12:26:03Z</time>
      </trkpt>
      <trkpt lat="48.40615" lon="7.27692">
        <ele>996.1</ele>
        <time>2026-03-16T12:26:08Z</time>
      </trkpt>
      <trkpt lat="48.40609" lon="7.27704">
        <ele>992.1</ele>
        <time>2026-03-16T12:26:13Z</time>
      </trkpt>
      <trkpt lat="48.40609" lon="7.2771">
        <ele>990.1</ele>
        <time>2026-03-16T12:26:18Z</time>
      </trkpt>
      <trkpt lat="48.40608" lon="7.27719">
        <ele>987.1</ele>
        <time>2026-03-16T12:26:23Z</time>
      </trkpt>
      <trkpt lat="48.40606" lon="7.27729">
        <ele>983.6</ele>
        <time>2026-03-16T12:26:28Z</time>
      </trkpt>
      <trkpt lat="48.40603" lon="7.27738">
        <ele>980.1</ele>
        <time>2026-03-16T12:26:33Z</time>
      </trkpt>
      <trkpt lat="48.40602" lon="7.27742">
        <ele>978.5</ele>
        <time>2026-03-16T12:26:38Z</time>
      </trkpt>
      <trkpt lat="48.40597" lon="7.2775">
        <ele>974.8</ele>
        <time>2026-03-16T12:26:43Z</time>
      </trkpt>
      <trkpt lat="48.40594" lon="7.27759">
        <ele>972.4</ele>
        <time>2026-03-16T12:26:48Z</time>
      </trkpt>
      <trkpt lat="48.40595" lon="7.2777">
        <ele>970.6</ele>
        <time>2026-03-16T12:26:53Z</time>
      </trkpt>
      <trkpt lat="48.40595" lon="7.27778">
        <ele>969</ele>
        <time>2026-03-16T12:26:58Z</time>
      </trkpt>
      <trkpt lat="48.40595" lon="7.27788">
        <ele>967.1</ele>
        <time>2026-03-16T12:27:03Z</time>
      </trkpt>
      <trkpt lat="48.40595" lon="7.27799">
        <ele>965</ele>
        <time>2026-03-16T12:27:08Z</time>
      </trkpt>
      <trkpt lat="48.40593" lon="7.27812">
        <ele>961.9</ele>
        <time>2026-03-16T12:27:13Z</time>
      </trkpt>
      <trkpt lat="48.40591" lon="7.27822">
        <ele>959.2</ele>
        <time>2026-03-16T12:27:18Z</time>
      </trkpt>
      <trkpt lat="48.40587" lon="7.27833">
        <ele>955.5</ele>
        <time>2026-03-16T12:27:23Z</time>
      </trkpt>
      <trkpt lat="48.40583" lon="7.27843">
        <ele>953.5</ele>
        <time>2026-03-16T12:27:28Z</time>
      </trkpt>
      <trkpt lat="48.4058" lon="7.27852">
        <ele>952.9</ele>
        <time>2026-03-16T12:27:33Z</time>
      </trkpt>
      <trkpt lat="48.40577" lon="7.27863">
        <ele>952.1</ele>
        <time>2026-03-16T12:27:38Z</time>
      </trkpt>
      <trkpt lat="48.40574" lon="7.27875">
        <ele>951.1</ele>
        <time>2026-03-16T12:27:43Z</time>
      </trkpt>
      <trkpt lat="48.4057" lon="7.27886">
        <ele>949.9</ele>
        <time>2026-03-16T12:27:48Z</time>
      </trkpt>
      <trkpt lat="48.40568" lon="7.27894">
        <ele>949.1</ele>
        <time>2026-03-16T12:27:53Z</time>
      </trkpt>
      <trkpt lat="48.40565" lon="7.27902">
        <ele>948.1</ele>
        <time>2026-03-16T12:27:58Z</time>
      </trkpt>
      <trkpt lat="48.40563" lon="7.27913">
        <ele>946.9</ele>
        <time>2026-03-16T12:28:03Z</time>
      </trkpt>
      <trkpt lat="48.40563" lon="7.27923">
        <ele>946.7</ele>
        <time>2026-03-16T12:28:08Z</time>
      </trkpt>
      <trkpt lat="48.40563" lon="7.27931">
        <ele>946.9</ele>
        <time>2026-03-16T12:28:13Z</time>
      </trkpt>
      <trkpt lat="48.40562" lon="7.2794">
        <ele>946.9</ele>
        <time>2026-03-16T12:28:18Z</time>
      </trkpt>
      <trkpt lat="48.4056" lon="7.27947">
        <ele>946.6</ele>
        <time>2026-03-16T12:28:23Z</time>
      </trkpt>
      <trkpt lat="48.40556" lon="7.27954">
        <ele>945.7</ele>
        <time>2026-03-16T12:28:28Z</time>
      </trkpt>
      <trkpt lat="48.40553" lon="7.27962">
        <ele>945</ele>
        <time>2026-03-16T12:28:33Z</time>
      </trkpt>
      <trkpt lat="48.40552" lon="7.2797">
        <ele>944.8</ele>
        <time>2026-03-16T12:28:38Z</time>
      </trkpt>
      <trkpt lat="48.40549" lon="7.27979">
        <ele>944</ele>
        <time>2026-03-16T12:28:43Z</time>
      </trkpt>
      <trkpt lat="48.40546" lon="7.27988">
        <ele>943</ele>
        <time>2026-03-16T12:28:48Z</time>
      </trkpt>
      <trkpt lat="48.40544" lon="7.27998">
        <ele>942.3</ele>
        <time>2026-03-16T12:28:53Z</time>
      </trkpt>
      <trkpt lat="48.40542" lon="7.2801">
        <ele>941.5</ele>
        <time>2026-03-16T12:28:58Z</time>
      </trkpt>
      <trkpt lat="48.4054" lon="7.28023">
        <ele>940.8</ele>
        <time>2026-03-16T12:29:03Z</time>
      </trkpt>
      <trkpt lat="48.40539" lon="7.28034">
        <ele>940.4</ele>
        <time>2026-03-16T12:29:08Z</time>
      </trkpt>
      <trkpt lat="48.40538" lon="7.28043">
        <ele>940.1</ele>
        <time>2026-03-16T12:29:13Z</time>
      </trkpt>
      <trkpt lat="48.40538" lon="7.28053">
        <ele>940</ele>
        <time>2026-03-16T12:29:18Z</time>
      </trkpt>
      <trkpt lat="48.40538" lon="7.28064">
        <ele>940</ele>
        <time>2026-03-16T12:29:23Z</time>
      </trkpt>
      <trkpt lat="48.40536" lon="7.28074">
        <ele>939.3</ele>
        <time>2026-03-16T12:29:28Z</time>
      </trkpt>
      <trkpt lat="48.40535" lon="7.28083">
        <ele>938.9</ele>
        <time>2026-03-16T12:29:33Z</time>
      </trkpt>
      <trkpt lat="48.40534" lon="7.28094">
        <ele>938.1</ele>
        <time>2026-03-16T12:29:38Z</time>
      </trkpt>
      <trkpt lat="48.40534" lon="7.28105">
        <ele>937.7</ele>
        <time>2026-03-16T12:29:43Z</time>
      </trkpt>
      <trkpt lat="48.40532" lon="7.28114">
        <ele>936.7</ele>
        <time>2026-03-16T12:29:48Z</time>
      </trkpt>
      <trkpt lat="48.40532" lon="7.28125">
        <ele>936.2</ele>
        <time>2026-03-16T12:29:53Z</time>
      </trkpt>
      <trkpt lat="48.40532" lon="7.28135">
        <ele>935.8</ele>
        <time>2026-03-16T12:29:58Z</time>
      </trkpt>
      <trkpt lat="48.40531" lon="7.28145">
        <ele>935.1</ele>
        <time>2026-03-16T12:30:03Z</time>
      </trkpt>
      <trkpt lat="48.40531" lon="7.28155">
        <ele>934.7</ele>
        <time>2026-03-16T12:30:08Z</time>
      </trkpt>
      <trkpt lat="48.40533" lon="7.28163">
        <ele>934.9</ele>
        <time>2026-03-16T12:30:13Z</time>
      </trkpt>
      <trkpt lat="48.40534" lon="7.28173">
        <ele>934.8</ele>
        <time>2026-03-16T12:30:18Z</time>
      </trkpt>
      <trkpt lat="48.40535" lon="7.28181">
        <ele>934.8</ele>
        <time>2026-03-16T12:30:23Z</time>
      </trkpt>
      <trkpt lat="48.40537" lon="7.28186">
        <ele>935.1</ele>
        <time>2026-03-16T12:30:28Z</time>
      </trkpt>
      <trkpt lat="48.40538" lon="7.28191">
        <ele>935.2</ele>
        <time>2026-03-16T12:30:33Z</time>
      </trkpt>
      <trkpt lat="48.40538" lon="7.28198">
        <ele>935</ele>
        <time>2026-03-16T12:30:38Z</time>
      </trkpt>
      <trkpt lat="48.40538" lon="7.28207">
        <ele>934.7</ele>
        <time>2026-03-16T12:30:43Z</time>
      </trkpt>
      <trkpt lat="48.40539" lon="7.28216">
        <ele>934.6</ele>
        <time>2026-03-16T12:30:48Z</time>
      </trkpt>
      <trkpt lat="48.40541" lon="7.28226">
        <ele>934.7</ele>
        <time>2026-03-16T12:30:53Z</time>
      </trkpt>
      <trkpt lat="48.40542" lon="7.28237">
        <ele>934.5</ele>
        <time>2026-03-16T12:30:58Z</time>
      </trkpt>
      <trkpt lat="48.40543" lon="7.28247">
        <ele>934.4</ele>
        <time>2026-03-16T12:31:03Z</time>
      </trkpt>
      <trkpt lat="48.40545" lon="7.28259">
        <ele>934</ele>
        <time>2026-03-16T12:31:08Z</time>
      </trkpt>
      <trkpt lat="48.40549" lon="7.28267">
        <ele>934.1</ele>
        <time>2026-03-16T12:31:13Z</time>
      </trkpt>
      <trkpt lat="48.40554" lon="7.28274">
        <ele>934.5</ele>
        <time>2026-03-16T12:31:18Z</time>
      </trkpt>
      <trkpt lat="48.40559" lon="7.28284">
        <ele>934.5</ele>
        <time>2026-03-16T12:31:23Z</time>
      </trkpt>
      <trkpt lat="48.40561" lon="7.28292">
        <ele>934.2</ele>
        <time>2026-03-16T12:31:28Z</time>
      </trkpt>
      <trkpt lat="48.40562" lon="7.28301">
        <ele>933.6</ele>
        <time>2026-03-16T12:31:33Z</time>
      </trkpt>
      <trkpt lat="48.40564" lon="7.28308">
        <ele>933.4</ele>
        <time>2026-03-16T12:31:38Z</time>
      </trkpt>
      <trkpt lat="48.40564" lon="7.28319">
        <ele>932.4</ele>
        <time>2026-03-16T12:31:43Z</time>
      </trkpt>
      <trkpt lat="48.40567" lon="7.2833">
        <ele>931.9</ele>
        <time>2026-03-16T12:31:48Z</time>
      </trkpt>
      <trkpt lat="48.40567" lon="7.28339">
        <ele>931</ele>
        <time>2026-03-16T12:31:53Z</time>
      </trkpt>
      <trkpt lat="48.40566" lon="7.2835">
        <ele>929.5</ele>
        <time>2026-03-16T12:31:58Z</time>
      </trkpt>
      <trkpt lat="48.40564" lon="7.28361">
        <ele>927.9</ele>
        <time>2026-03-16T12:32:03Z</time>
      </trkpt>
      <trkpt lat="48.40559" lon="7.28374">
        <ele>925.5</ele>
        <time>2026-03-16T12:32:08Z</time>
      </trkpt>
      <trkpt lat="48.40555" lon="7.28384">
        <ele>923.6</ele>
        <time>2026-03-16T12:32:13Z</time>
      </trkpt>
      <trkpt lat="48.40551" lon="7.28394">
        <ele>921.7</ele>
        <time>2026-03-16T12:32:18Z</time>
      </trkpt>
      <trkpt lat="48.40547" lon="7.28402">
        <ele>919.9</ele>
        <time>2026-03-16T12:32:23Z</time>
      </trkpt>
      <trkpt lat="48.40546" lon="7.28409">
        <ele>918.8</ele>
        <time>2026-03-16T12:32:28Z</time>
      </trkpt>
      <trkpt lat="48.40544" lon="7.28413">
        <ele>917.9</ele>
        <time>2026-03-16T12:32:33Z</time>
      </trkpt>
      <trkpt lat="48.40547" lon="7.28419">
        <ele>917.9</ele>
        <time>2026-03-16T12:32:38Z</time>
      </trkpt>
      <trkpt lat="48.40548" lon="7.28418">
        <ele>918.1</ele>
        <time>2026-03-16T12:32:43Z</time>
      </trkpt>
      <trkpt lat="48.40548" lon="7.28418">
        <ele>918.1</ele>
        <time>2026-03-16T12:32:48Z</time>
      </trkpt>
      <trkpt lat="48.40548" lon="7.28418">
        <ele>918.1</ele>
        <time>2026-03-16T12:32:53Z</time>
      </trkpt>
      <trkpt lat="48.40548" lon="7.28418">
        <ele>918.1</ele>
        <time>2026-03-16T12:32:58Z</time>
      </trkpt>
      <trkpt lat="48.40548" lon="7.28425">
        <ele>917.7</ele>
        <time>2026-03-16T12:33:03Z</time>
      </trkpt>
      <trkpt lat="48.40544" lon="7.28427">
        <ele>916.7</ele>
        <time>2026-03-16T12:33:08Z</time>
      </trkpt>
      <trkpt lat="48.40542" lon="7.28428">
        <ele>916.3</ele>
        <time>2026-03-16T12:33:13Z</time>
      </trkpt>
      <trkpt lat="48.40538" lon="7.28436">
        <ele>914.8</ele>
        <time>2026-03-16T12:33:18Z</time>
      </trkpt>
      <trkpt lat="48.40532" lon="7.28448">
        <ele>912.6</ele>
        <time>2026-03-16T12:33:23Z</time>
      </trkpt>
      <trkpt lat="48.40528" lon="7.28457">
        <ele>911</ele>
        <time>2026-03-16T12:33:28Z</time>
      </trkpt>
      <trkpt lat="48.40527" lon="7.28466">
        <ele>910</ele>
        <time>2026-03-16T12:33:33Z</time>
      </trkpt>
      <trkpt lat="48.4053" lon="7.28479">
        <ele>909.6</ele>
        <time>2026-03-16T12:33:38Z</time>
      </trkpt>
      <trkpt lat="48.40533" lon="7.28489">
        <ele>909.6</ele>
        <time>2026-03-16T12:33:43Z</time>
      </trkpt>
      <trkpt lat="48.40534" lon="7.28498">
        <ele>909.1</ele>
        <time>2026-03-16T12:33:48Z</time>
      </trkpt>
      <trkpt lat="48.40532" lon="7.28504">
        <ele>908.4</ele>
        <time>2026-03-16T12:33:53Z</time>
      </trkpt>
      <trkpt lat="48.40528" lon="7.28512">
        <ele>907.2</ele>
        <time>2026-03-16T12:33:58Z</time>
      </trkpt>
      <trkpt lat="48.40527" lon="7.28519">
        <ele>906.9</ele>
        <time>2026-03-16T12:34:03Z</time>
      </trkpt>
      <trkpt lat="48.40524" lon="7.28528">
        <ele>906</ele>
        <time>2026-03-16T12:34:08Z</time>
      </trkpt>
      <trkpt lat="48.40521" lon="7.28538">
        <ele>905.1</ele>
        <time>2026-03-16T12:34:13Z</time>
      </trkpt>
      <trkpt lat="48.4052" lon="7.28544">
        <ele>904.8</ele>
        <time>2026-03-16T12:34:18Z</time>
      </trkpt>
      <trkpt lat="48.40519" lon="7.28552">
        <ele>904.4</ele>
        <time>2026-03-16T12:34:23Z</time>
      </trkpt>
      <trkpt lat="48.40517" lon="7.28562">
        <ele>903.7</ele>
        <time>2026-03-16T12:34:28Z</time>
      </trkpt>
      <trkpt lat="48.40515" lon="7.2857">
        <ele>903.1</ele>
        <time>2026-03-16T12:34:33Z</time>
      </trkpt>
      <trkpt lat="48.40513" lon="7.2858">
        <ele>902.5</ele>
        <time>2026-03-16T12:34:38Z</time>
      </trkpt>
      <trkpt lat="48.40512" lon="7.28586">
        <ele>902</ele>
        <time>2026-03-16T12:34:43Z</time>
      </trkpt>
      <trkpt lat="48.40511" lon="7.28594">
        <ele>901.4</ele>
        <time>2026-03-16T12:34:48Z</time>
      </trkpt>
      <trkpt lat="48.40511" lon="7.28604">
        <ele>900.9</ele>
        <time>2026-03-16T12:34:53Z</time>
      </trkpt>
      <trkpt lat="48.40508" lon="7.28616">
        <ele>899.5</ele>
        <time>2026-03-16T12:34:58Z</time>
      </trkpt>
      <trkpt lat="48.40505" lon="7.28626">
        <ele>898.3</ele>
        <time>2026-03-16T12:35:03Z</time>
      </trkpt>
      <trkpt lat="48.40503" lon="7.28637">
        <ele>897.2</ele>
        <time>2026-03-16T12:35:08Z</time>
      </trkpt>
      <trkpt lat="48.40501" lon="7.28649">
        <ele>896.1</ele>
        <time>2026-03-16T12:35:13Z</time>
      </trkpt>
      <trkpt lat="48.40501" lon="7.28658">
        <ele>895.7</ele>
        <time>2026-03-16T12:35:18Z</time>
      </trkpt>
      <trkpt lat="48.40502" lon="7.28665">
        <ele>895.6</ele>
        <time>2026-03-16T12:35:23Z</time>
      </trkpt>
      <trkpt lat="48.40502" lon="7.28675">
        <ele>895</ele>
        <time>2026-03-16T12:35:28Z</time>
      </trkpt>
      <trkpt lat="48.40502" lon="7.28684">
        <ele>894.5</ele>
        <time>2026-03-16T12:35:33Z</time>
      </trkpt>
      <trkpt lat="48.40503" lon="7.28691">
        <ele>894.3</ele>
        <time>2026-03-16T12:35:38Z</time>
      </trkpt>
      <trkpt lat="48.40502" lon="7.28704">
        <ele>893.3</ele>
        <time>2026-03-16T12:35:43Z</time>
      </trkpt>
      <trkpt lat="48.40502" lon="7.28714">
        <ele>892.7</ele>
        <time>2026-03-16T12:35:48Z</time>
      </trkpt>
      <trkpt lat="48.40502" lon="7.28724">
        <ele>892.1</ele>
        <time>2026-03-16T12:35:53Z</time>
      </trkpt>
      <trkpt lat="48.40503" lon="7.28733">
        <ele>891.8</ele>
        <time>2026-03-16T12:35:58Z</time>
      </trkpt>
      <trkpt lat="48.40504" lon="7.28744">
        <ele>891.4</ele>
        <time>2026-03-16T12:36:03Z</time>
      </trkpt>
      <trkpt lat="48.40504" lon="7.28753">
        <ele>890.8</ele>
        <time>2026-03-16T12:36:08Z</time>
      </trkpt>
      <trkpt lat="48.40507" lon="7.28764">
        <ele>890.9</ele>
        <time>2026-03-16T12:36:13Z</time>
      </trkpt>
      <trkpt lat="48.40507" lon="7.28774">
        <ele>890.3</ele>
        <time>2026-03-16T12:36:18Z</time>
      </trkpt>
      <trkpt lat="48.40508" lon="7.28783">
        <ele>890</ele>
        <time>2026-03-16T12:36:23Z</time>
      </trkpt>
      <trkpt lat="48.40509" lon="7.28792">
        <ele>889.7</ele>
        <time>2026-03-16T12:36:28Z</time>
      </trkpt>
      <trkpt lat="48.40509" lon="7.28803">
        <ele>889.1</ele>
        <time>2026-03-16T12:36:33Z</time>
      </trkpt>
      <trkpt lat="48.40511" lon="7.28813">
        <ele>889</ele>
        <time>2026-03-16T12:36:38Z</time>
      </trkpt>
      <trkpt lat="48.40512" lon="7.28822">
        <ele>888.7</ele>
        <time>2026-03-16T12:36:43Z</time>
      </trkpt>
      <trkpt lat="48.40514" lon="7.28832">
        <ele>888.6</ele>
        <time>2026-03-16T12:36:48Z</time>
      </trkpt>
      <trkpt lat="48.40515" lon="7.28839">
        <ele>888.4</ele>
        <time>2026-03-16T12:36:53Z</time>
      </trkpt>
      <trkpt lat="48.40514" lon="7.28847">
        <ele>887.5</ele>
        <time>2026-03-16T12:36:58Z</time>
      </trkpt>
      <trkpt lat="48.40512" lon="7.28856">
        <ele>886.4</ele>
        <time>2026-03-16T12:37:03Z</time>
      </trkpt>
      <trkpt lat="48.40511" lon="7.28865">
        <ele>885.5</ele>
        <time>2026-03-16T12:37:08Z</time>
      </trkpt>
      <trkpt lat="48.40509" lon="7.28872">
        <ele>884.5</ele>
        <time>2026-03-16T12:37:13Z</time>
      </trkpt>
      <trkpt lat="48.40507" lon="7.28878">
        <ele>883.5</ele>
        <time>2026-03-16T12:37:18Z</time>
      </trkpt>
      <trkpt lat="48.40503" lon="7.28889">
        <ele>881.7</ele>
        <time>2026-03-16T12:37:23Z</time>
      </trkpt>
      <trkpt lat="48.40499" lon="7.28901">
        <ele>879.9</ele>
        <time>2026-03-16T12:37:28Z</time>
      </trkpt>
      <trkpt lat="48.40496" lon="7.28911">
        <ele>878.4</ele>
        <time>2026-03-16T12:37:33Z</time>
      </trkpt>
      <trkpt lat="48.40495" lon="7.28917">
        <ele>877.7</ele>
        <time>2026-03-16T12:37:38Z</time>
      </trkpt>
      <trkpt lat="48.40491" lon="7.28927">
        <ele>875.7</ele>
        <time>2026-03-16T12:37:43Z</time>
      </trkpt>
      <trkpt lat="48.40488" lon="7.28938">
        <ele>873.9</ele>
        <time>2026-03-16T12:37:48Z</time>
      </trkpt>
      <trkpt lat="48.40486" lon="7.28947">
        <ele>872.6</ele>
        <time>2026-03-16T12:37:53Z</time>
      </trkpt>
      <trkpt lat="48.40485" lon="7.28957">
        <ele>871.4</ele>
        <time>2026-03-16T12:37:58Z</time>
      </trkpt>
      <trkpt lat="48.40485" lon="7.28968">
        <ele>870.3</ele>
        <time>2026-03-16T12:38:03Z</time>
      </trkpt>
      <trkpt lat="48.40483" lon="7.28978">
        <ele>869</ele>
        <time>2026-03-16T12:38:08Z</time>
      </trkpt>
      <trkpt lat="48.40481" lon="7.28987">
        <ele>867.8</ele>
        <time>2026-03-16T12:38:13Z</time>
      </trkpt>
      <trkpt lat="48.40479" lon="7.28996">
        <ele>866.6</ele>
        <time>2026-03-16T12:38:18Z</time>
      </trkpt>
      <trkpt lat="48.40479" lon="7.29004">
        <ele>866.2</ele>
        <time>2026-03-16T12:38:23Z</time>
      </trkpt>
      <trkpt lat="48.40477" lon="7.29017">
        <ele>865.8</ele>
        <time>2026-03-16T12:38:28Z</time>
      </trkpt>
      <trkpt lat="48.40476" lon="7.29026">
        <ele>865.5</ele>
        <time>2026-03-16T12:38:33Z</time>
      </trkpt>
      <trkpt lat="48.40474" lon="7.29034">
        <ele>865.1</ele>
        <time>2026-03-16T12:38:38Z</time>
      </trkpt>
      <trkpt lat="48.40472" lon="7.29043">
        <ele>864.6</ele>
        <time>2026-03-16T12:38:43Z</time>
      </trkpt>
      <trkpt lat="48.40469" lon="7.29051">
        <ele>863.9</ele>
        <time>2026-03-16T12:38:48Z</time>
      </trkpt>
      <trkpt lat="48.40466" lon="7.29062">
        <ele>863.1</ele>
        <time>2026-03-16T12:38:53Z</time>
      </trkpt>
      <trkpt lat="48.40466" lon="7.29072">
        <ele>863</ele>
        <time>2026-03-16T12:38:58Z</time>
      </trkpt>
      <trkpt lat="48.40464" lon="7.29084">
        <ele>862.3</ele>
        <time>2026-03-16T12:39:03Z</time>
      </trkpt>
      <trkpt lat="48.40462" lon="7.29094">
        <ele>861.6</ele>
        <time>2026-03-16T12:39:08Z</time>
      </trkpt>
      <trkpt lat="48.4046" lon="7.29104">
        <ele>860.9</ele>
        <time>2026-03-16T12:39:13Z</time>
      </trkpt>
      <trkpt lat="48.40461" lon="7.2911">
        <ele>861</ele>
        <time>2026-03-16T12:39:18Z</time>
      </trkpt>
      <trkpt lat="48.40461" lon="7.29117">
        <ele>860.8</ele>
        <time>2026-03-16T12:39:23Z</time>
      </trkpt>
      <trkpt lat="48.40459" lon="7.29127">
        <ele>860.1</ele>
        <time>2026-03-16T12:39:28Z</time>
      </trkpt>
      <trkpt lat="48.40458" lon="7.29138">
        <ele>859.6</ele>
        <time>2026-03-16T12:39:33Z</time>
      </trkpt>
      <trkpt lat="48.40455" lon="7.29149">
        <ele>858.8</ele>
        <time>2026-03-16T12:39:38Z</time>
      </trkpt>
      <trkpt lat="48.4045" lon="7.29159">
        <ele>857.5</ele>
        <time>2026-03-16T12:39:43Z</time>
      </trkpt>
      <trkpt lat="48.40448" lon="7.29168">
        <ele>857</ele>
        <time>2026-03-16T12:39:48Z</time>
      </trkpt>
      <trkpt lat="48.40445" lon="7.29177">
        <ele>856.1</ele>
        <time>2026-03-16T12:39:53Z</time>
      </trkpt>
      <trkpt lat="48.40443" lon="7.29188">
        <ele>855.5</ele>
        <time>2026-03-16T12:39:58Z</time>
      </trkpt>
      <trkpt lat="48.40443" lon="7.29198">
        <ele>855.2</ele>
        <time>2026-03-16T12:40:03Z</time>
      </trkpt>
      <trkpt lat="48.40445" lon="7.29208">
        <ele>855.3</ele>
        <time>2026-03-16T12:40:08Z</time>
      </trkpt>
      <trkpt lat="48.4045" lon="7.29217">
        <ele>856</ele>
        <time>2026-03-16T12:40:13Z</time>
      </trkpt>
      <trkpt lat="48.40451" lon="7.29226">
        <ele>855.9</ele>
        <time>2026-03-16T12:40:18Z</time>
      </trkpt>
      <trkpt lat="48.40451" lon="7.29232">
        <ele>855.7</ele>
        <time>2026-03-16T12:40:23Z</time>
      </trkpt>
      <trkpt lat="48.40454" lon="7.29235">
        <ele>856.2</ele>
        <time>2026-03-16T12:40:28Z</time>
      </trkpt>
      <trkpt lat="48.40455" lon="7.29237">
        <ele>856.3</ele>
        <time>2026-03-16T12:40:33Z</time>
      </trkpt>
      <trkpt lat="48.40458" lon="7.29237">
        <ele>856.8</ele>
        <time>2026-03-16T12:40:38Z</time>
      </trkpt>
      <trkpt lat="48.40458" lon="7.29237">
        <ele>856.8</ele>
        <time>2026-03-16T12:40:43Z</time>
      </trkpt>
      <trkpt lat="48.40458" lon="7.29237">
        <ele>856.8</ele>
        <time>2026-03-16T12:40:48Z</time>
      </trkpt>
      <trkpt lat="48.40458" lon="7.29237">
        <ele>856.8</ele>
        <time>2026-03-16T12:40:53Z</time>
      </trkpt>
      <trkpt lat="48.40456" lon="7.29247">
        <ele>856.2</ele>
        <time>2026-03-16T12:40:58Z</time>
      </trkpt>
      <trkpt lat="48.40454" lon="7.29251">
        <ele>855.7</ele>
        <time>2026-03-16T12:41:03Z</time>
      </trkpt>
      <trkpt lat="48.40454" lon="7.29255">
        <ele>855.4</ele>
        <time>2026-03-16T12:41:08Z</time>
      </trkpt>
      <trkpt lat="48.40453" lon="7.29258">
        <ele>855</ele>
        <time>2026-03-16T12:41:13Z</time>
      </trkpt>
      <trkpt lat="48.40453" lon="7.29261">
        <ele>854.8</ele>
        <time>2026-03-16T12:41:18Z</time>
      </trkpt>
      <trkpt lat="48.40484" lon="7.29304">
        <ele>857.4</ele>
        <time>2026-03-16T12:41:23Z</time>
      </trkpt>
      <trkpt lat="48.40494" lon="7.29314">
        <ele>858.4</ele>
        <time>2026-03-16T12:41:25Z</time>
      </trkpt>
      <trkpt lat="48.40517" lon="7.29303">
        <ele>863</ele>
        <time>2026-03-16T12:41:30Z</time>
      </trkpt>
      <trkpt lat="48.40474" lon="7.29279">
        <ele>857.3</ele>
        <time>2026-03-16T12:41:35Z</time>
      </trkpt>
      <trkpt lat="48.4046" lon="7.29274">
        <ele>855.2</ele>
        <time>2026-03-16T12:41:40Z</time>
      </trkpt>
      <trkpt lat="48.40451" lon="7.29274">
        <ele>853.6</ele>
        <time>2026-03-16T12:41:45Z</time>
      </trkpt>
      <trkpt lat="48.40444" lon="7.29286">
        <ele>851.6</ele>
        <time>2026-03-16T12:41:50Z</time>
      </trkpt>
      <trkpt lat="48.4044" lon="7.293">
        <ele>850</ele>
        <time>2026-03-16T12:41:55Z</time>
      </trkpt>
      <trkpt lat="48.40437" lon="7.29305">
        <ele>849.2</ele>
        <time>2026-03-16T12:42:00Z</time>
      </trkpt>
      <trkpt lat="48.40437" lon="7.29305">
        <ele>849.2</ele>
        <time>2026-03-16T12:42:05Z</time>
      </trkpt>
      <trkpt lat="48.40437" lon="7.29305">
        <ele>849.2</ele>
        <time>2026-03-16T12:42:10Z</time>
      </trkpt>
      <trkpt lat="48.40428" lon="7.29322">
        <ele>846.6</ele>
        <time>2026-03-16T12:42:15Z</time>
      </trkpt>
      <trkpt lat="48.40418" lon="7.29337">
        <ele>844</ele>
        <time>2026-03-16T12:42:20Z</time>
      </trkpt>
      <trkpt lat="48.40415" lon="7.29346">
        <ele>843.1</ele>
        <time>2026-03-16T12:42:25Z</time>
      </trkpt>
      <trkpt lat="48.40414" lon="7.2935">
        <ele>842.7</ele>
        <time>2026-03-16T12:42:30Z</time>
      </trkpt>
      <trkpt lat="48.40414" lon="7.2935">
        <ele>842.7</ele>
        <time>2026-03-16T12:42:35Z</time>
      </trkpt>
      <trkpt lat="48.40414" lon="7.2935">
        <ele>842.7</ele>
        <time>2026-03-16T12:42:40Z</time>
      </trkpt>
      <trkpt lat="48.40408" lon="7.29375">
        <ele>840.3</ele>
        <time>2026-03-16T12:42:45Z</time>
      </trkpt>
      <trkpt lat="48.4041" lon="7.29379">
        <ele>840.5</ele>
        <time>2026-03-16T12:42:50Z</time>
      </trkpt>
      <trkpt lat="48.40412" lon="7.29398">
        <ele>840</ele>
        <time>2026-03-16T12:42:55Z</time>
      </trkpt>
      <trkpt lat="48.40413" lon="7.29402">
        <ele>840</ele>
        <time>2026-03-16T12:43:00Z</time>
      </trkpt>
      <trkpt lat="48.40417" lon="7.29416">
        <ele>840.1</ele>
        <time>2026-03-16T12:43:05Z</time>
      </trkpt>
      <trkpt lat="48.40418" lon="7.2942">
        <ele>840</ele>
        <time>2026-03-16T12:43:10Z</time>
      </trkpt>
      <trkpt lat="48.40418" lon="7.2942">
        <ele>840</ele>
        <time>2026-03-16T12:43:15Z</time>
      </trkpt>
      <trkpt lat="48.40428" lon="7.29443">
        <ele>840.3</ele>
        <time>2026-03-16T12:43:20Z</time>
      </trkpt>
      <trkpt lat="48.40432" lon="7.29457">
        <ele>840.1</ele>
        <time>2026-03-16T12:43:25Z</time>
      </trkpt>
      <trkpt lat="48.40432" lon="7.29469">
        <ele>839.3</ele>
        <time>2026-03-16T12:43:30Z</time>
      </trkpt>
      <trkpt lat="48.40434" lon="7.29474">
        <ele>839.3</ele>
        <time>2026-03-16T12:43:35Z</time>
      </trkpt>
      <trkpt lat="48.40434" lon="7.29474">
        <ele>839.3</ele>
        <time>2026-03-16T12:43:40Z</time>
      </trkpt>
      <trkpt lat="48.40432" lon="7.29492">
        <ele>837.7</ele>
        <time>2026-03-16T12:43:45Z</time>
      </trkpt>
      <trkpt lat="48.40431" lon="7.29493">
        <ele>837.5</ele>
        <time>2026-03-16T12:43:50Z</time>
      </trkpt>
      <trkpt lat="48.40431" lon="7.29493">
        <ele>837.5</ele>
        <time>2026-03-16T12:43:55Z</time>
      </trkpt>
      <trkpt lat="48.40421" lon="7.29505">
        <ele>835.3</ele>
        <time>2026-03-16T12:44:00Z</time>
      </trkpt>
      <trkpt lat="48.40421" lon="7.29505">
        <ele>835.3</ele>
        <time>2026-03-16T12:44:05Z</time>
      </trkpt>
      <trkpt lat="48.40411" lon="7.29514">
        <ele>833.3</ele>
        <time>2026-03-16T12:44:10Z</time>
      </trkpt>
      <trkpt lat="48.40405" lon="7.29522">
        <ele>831.9</ele>
        <time>2026-03-16T12:44:15Z</time>
      </trkpt>
      <trkpt lat="48.40403" lon="7.29526">
        <ele>831.3</ele>
        <time>2026-03-16T12:44:20Z</time>
      </trkpt>
      <trkpt lat="48.40403" lon="7.29526">
        <ele>831.3</ele>
        <time>2026-03-16T12:44:25Z</time>
      </trkpt>
      <trkpt lat="48.40396" lon="7.29537">
        <ele>829.5</ele>
        <time>2026-03-16T12:44:30Z</time>
      </trkpt>
      <trkpt lat="48.40391" lon="7.29546">
        <ele>828</ele>
        <time>2026-03-16T12:44:35Z</time>
      </trkpt>
      <trkpt lat="48.4039" lon="7.29549">
        <ele>827.7</ele>
        <time>2026-03-16T12:44:40Z</time>
      </trkpt>
      <trkpt lat="48.40382" lon="7.2956">
        <ele>825.5</ele>
        <time>2026-03-16T12:44:45Z</time>
      </trkpt>
      <trkpt lat="48.4038" lon="7.29562">
        <ele>825</ele>
        <time>2026-03-16T12:44:50Z</time>
      </trkpt>
      <trkpt lat="48.40371" lon="7.29569">
        <ele>822.9</ele>
        <time>2026-03-16T12:44:55Z</time>
      </trkpt>
      <trkpt lat="48.40358" lon="7.29575">
        <ele>820.2</ele>
        <time>2026-03-16T12:45:00Z</time>
      </trkpt>
      <trkpt lat="48.40349" lon="7.29576">
        <ele>818.5</ele>
        <time>2026-03-16T12:45:05Z</time>
      </trkpt>
      <trkpt lat="48.40347" lon="7.29574">
        <ele>818.3</ele>
        <time>2026-03-16T12:45:10Z</time>
      </trkpt>
      <trkpt lat="48.4034" lon="7.29567">
        <ele>817.7</ele>
        <time>2026-03-16T12:45:15Z</time>
      </trkpt>
      <trkpt lat="48.40333" lon="7.29568">
        <ele>816.4</ele>
        <time>2026-03-16T12:45:20Z</time>
      </trkpt>
      <trkpt lat="48.40328" lon="7.29561">
        <ele>816</ele>
        <time>2026-03-16T12:45:25Z</time>
      </trkpt>
      <trkpt lat="48.40326" lon="7.29558">
        <ele>815.8</ele>
        <time>2026-03-16T12:45:30Z</time>
      </trkpt>
      <trkpt lat="48.40326" lon="7.29558">
        <ele>815.8</ele>
        <time>2026-03-16T12:45:35Z</time>
      </trkpt>
      <trkpt lat="48.40315" lon="7.29549">
        <ele>814.2</ele>
        <time>2026-03-16T12:45:40Z</time>
      </trkpt>
      <trkpt lat="48.40306" lon="7.29538">
        <ele>813.1</ele>
        <time>2026-03-16T12:45:45Z</time>
      </trkpt>
      <trkpt lat="48.40304" lon="7.29537">
        <ele>812.7</ele>
        <time>2026-03-16T12:45:50Z</time>
      </trkpt>
      <trkpt lat="48.40304" lon="7.29537">
        <ele>812.7</ele>
        <time>2026-03-16T12:45:55Z</time>
      </trkpt>
      <trkpt lat="48.40293" lon="7.29531">
        <ele>810.7</ele>
        <time>2026-03-16T12:46:00Z</time>
      </trkpt>
      <trkpt lat="48.40293" lon="7.29531">
        <ele>810.7</ele>
        <time>2026-03-16T12:46:05Z</time>
      </trkpt>
      <trkpt lat="48.4028" lon="7.29539">
        <ele>807.1</ele>
        <time>2026-03-16T12:46:10Z</time>
      </trkpt>
      <trkpt lat="48.4028" lon="7.2954">
        <ele>807</ele>
        <time>2026-03-16T12:46:15Z</time>
      </trkpt>
      <trkpt lat="48.40279" lon="7.29564">
        <ele>804.8</ele>
        <time>2026-03-16T12:46:20Z</time>
      </trkpt>
      <trkpt lat="48.4028" lon="7.29567">
        <ele>804.8</ele>
        <time>2026-03-16T12:46:25Z</time>
      </trkpt>
      <trkpt lat="48.40275" lon="7.29581">
        <ele>802.6</ele>
        <time>2026-03-16T12:46:30Z</time>
      </trkpt>
      <trkpt lat="48.40271" lon="7.29587">
        <ele>801.4</ele>
        <time>2026-03-16T12:46:35Z</time>
      </trkpt>
      <trkpt lat="48.40271" lon="7.29588">
        <ele>801.4</ele>
        <time>2026-03-16T12:46:40Z</time>
      </trkpt>
      <trkpt lat="48.40266" lon="7.29612">
        <ele>799.8</ele>
        <time>2026-03-16T12:46:45Z</time>
      </trkpt>
      <trkpt lat="48.40265" lon="7.29619">
        <ele>799.4</ele>
        <time>2026-03-16T12:46:50Z</time>
      </trkpt>
      <trkpt lat="48.40261" lon="7.29631">
        <ele>798.4</ele>
        <time>2026-03-16T12:46:55Z</time>
      </trkpt>
      <trkpt lat="48.4026" lon="7.29635">
        <ele>798.2</ele>
        <time>2026-03-16T12:47:00Z</time>
      </trkpt>
      <trkpt lat="48.4026" lon="7.29635">
        <ele>798.2</ele>
        <time>2026-03-16T12:47:05Z</time>
      </trkpt>
      <trkpt lat="48.4026" lon="7.2965">
        <ele>797.9</ele>
        <time>2026-03-16T12:47:10Z</time>
      </trkpt>
      <trkpt lat="48.40261" lon="7.29654">
        <ele>798</ele>
        <time>2026-03-16T12:47:15Z</time>
      </trkpt>
      <trkpt lat="48.40261" lon="7.29654">
        <ele>798</ele>
        <time>2026-03-16T12:47:20Z</time>
      </trkpt>
      <trkpt lat="48.40261" lon="7.29673">
        <ele>797.6</ele>
        <time>2026-03-16T12:47:25Z</time>
      </trkpt>
      <trkpt lat="48.40261" lon="7.29673">
        <ele>797.6</ele>
        <time>2026-03-16T12:47:30Z</time>
      </trkpt>
      <trkpt lat="48.40259" lon="7.2969">
        <ele>797.1</ele>
        <time>2026-03-16T12:47:35Z</time>
      </trkpt>
      <trkpt lat="48.40259" lon="7.29692">
        <ele>797.1</ele>
        <time>2026-03-16T12:47:40Z</time>
      </trkpt>
      <trkpt lat="48.40251" lon="7.29698">
        <ele>795.8</ele>
        <time>2026-03-16T12:47:45Z</time>
      </trkpt>
      <trkpt lat="48.40245" lon="7.29702">
        <ele>794.9</ele>
        <time>2026-03-16T12:47:50Z</time>
      </trkpt>
      <trkpt lat="48.4024" lon="7.29704">
        <ele>794.1</ele>
        <time>2026-03-16T12:47:55Z</time>
      </trkpt>
      <trkpt lat="48.40233" lon="7.29708">
        <ele>793.1</ele>
        <time>2026-03-16T12:48:00Z</time>
      </trkpt>
      <trkpt lat="48.4023" lon="7.29708">
        <ele>792.6</ele>
        <time>2026-03-16T12:48:05Z</time>
      </trkpt>
      <trkpt lat="48.40222" lon="7.29706">
        <ele>791.5</ele>
        <time>2026-03-16T12:48:10Z</time>
      </trkpt>
      <trkpt lat="48.4022" lon="7.29707">
        <ele>791.2</ele>
        <time>2026-03-16T12:48:15Z</time>
      </trkpt>
      <trkpt lat="48.4022" lon="7.29707">
        <ele>791.2</ele>
        <time>2026-03-16T12:48:20Z</time>
      </trkpt>
      <trkpt lat="48.40205" lon="7.29716">
        <ele>788.7</ele>
        <time>2026-03-16T12:48:25Z</time>
      </trkpt>
      <trkpt lat="48.40204" lon="7.29717">
        <ele>788.5</ele>
        <time>2026-03-16T12:48:30Z</time>
      </trkpt>
      <trkpt lat="48.40193" lon="7.29731">
        <ele>786.3</ele>
        <time>2026-03-16T12:48:35Z</time>
      </trkpt>
      <trkpt lat="48.40189" lon="7.29733">
        <ele>785.6</ele>
        <time>2026-03-16T12:48:40Z</time>
      </trkpt>
      <trkpt lat="48.40189" lon="7.29733">
        <ele>785.6</ele>
        <time>2026-03-16T12:48:45Z</time>
      </trkpt>
      <trkpt lat="48.40184" lon="7.29758">
        <ele>783.1</ele>
        <time>2026-03-16T12:48:50Z</time>
      </trkpt>
      <trkpt lat="48.40185" lon="7.29765">
        <ele>782.5</ele>
        <time>2026-03-16T12:48:55Z</time>
      </trkpt>
      <trkpt lat="48.40185" lon="7.29765">
        <ele>782.5</ele>
        <time>2026-03-16T12:49:00Z</time>
      </trkpt>
      <trkpt lat="48.40189" lon="7.29784">
        <ele>781.3</ele>
        <time>2026-03-16T12:49:05Z</time>
      </trkpt>
      <trkpt lat="48.40189" lon="7.29784">
        <ele>781.3</ele>
        <time>2026-03-16T12:49:10Z</time>
      </trkpt>
      <trkpt lat="48.40195" lon="7.29802">
        <ele>780.6</ele>
        <time>2026-03-16T12:49:15Z</time>
      </trkpt>
      <trkpt lat="48.40195" lon="7.29802">
        <ele>780.6</ele>
        <time>2026-03-16T12:49:20Z</time>
      </trkpt>
      <trkpt lat="48.40201" lon="7.2982">
        <ele>779.9</ele>
        <time>2026-03-16T12:49:25Z</time>
      </trkpt>
      <trkpt lat="48.40205" lon="7.29836">
        <ele>779</ele>
        <time>2026-03-16T12:49:30Z</time>
      </trkpt>
      <trkpt lat="48.40206" lon="7.29847">
        <ele>777.9</ele>
        <time>2026-03-16T12:49:35Z</time>
      </trkpt>
      <trkpt lat="48.40207" lon="7.29854">
        <ele>777.3</ele>
        <time>2026-03-16T12:49:40Z</time>
      </trkpt>
      <trkpt lat="48.40208" lon="7.29868">
        <ele>775.8</ele>
        <time>2026-03-16T12:49:45Z</time>
      </trkpt>
      <trkpt lat="48.40207" lon="7.2988">
        <ele>774.1</ele>
        <time>2026-03-16T12:49:50Z</time>
      </trkpt>
      <trkpt lat="48.40208" lon="7.29882">
        <ele>774.1</ele>
        <time>2026-03-16T12:49:55Z</time>
      </trkpt>
      <trkpt lat="48.40207" lon="7.29902">
        <ele>771.5</ele>
        <time>2026-03-16T12:50:00Z</time>
      </trkpt>
      <trkpt lat="48.40207" lon="7.29905">
        <ele>771.1</ele>
        <time>2026-03-16T12:50:05Z</time>
      </trkpt>
      <trkpt lat="48.40207" lon="7.29905">
        <ele>771.1</ele>
        <time>2026-03-16T12:50:10Z</time>
      </trkpt>
      <trkpt lat="48.40213" lon="7.29922">
        <ele>770.4</ele>
        <time>2026-03-16T12:50:15Z</time>
      </trkpt>
      <trkpt lat="48.40213" lon="7.29922">
        <ele>770.4</ele>
        <time>2026-03-16T12:50:20Z</time>
      </trkpt>
      <trkpt lat="48.40223" lon="7.29934">
        <ele>771.2</ele>
        <time>2026-03-16T12:50:25Z</time>
      </trkpt>
      <trkpt lat="48.40223" lon="7.29934">
        <ele>771.2</ele>
        <time>2026-03-16T12:50:30Z</time>
      </trkpt>
      <trkpt lat="48.40223" lon="7.29934">
        <ele>771.2</ele>
        <time>2026-03-16T12:50:35Z</time>
      </trkpt>
      <trkpt lat="48.40223" lon="7.29934">
        <ele>771.2</ele>
        <time>2026-03-16T12:50:40Z</time>
      </trkpt>
      <trkpt lat="48.40223" lon="7.29934">
        <ele>771.2</ele>
        <time>2026-03-16T12:50:45Z</time>
      </trkpt>
      <trkpt lat="48.40223" lon="7.29934">
        <ele>771.2</ele>
        <time>2026-03-16T12:50:50Z</time>
      </trkpt>
      <trkpt lat="48.40223" lon="7.29934">
        <ele>771.2</ele>
        <time>2026-03-16T12:50:55Z</time>
      </trkpt>
      <trkpt lat="48.40223" lon="7.29934">
        <ele>771.2</ele>
        <time>2026-03-16T12:51:00Z</time>
      </trkpt>
      <trkpt lat="48.40223" lon="7.29934">
        <ele>771.2</ele>
        <time>2026-03-16T12:51:05Z</time>
      </trkpt>
      <trkpt lat="48.40223" lon="7.29934">
        <ele>771.2</ele>
        <time>2026-03-16T12:51:10Z</time>
      </trkpt>
      <trkpt lat="48.40223" lon="7.29934">
        <ele>771.2</ele>
        <time>2026-03-16T12:51:15Z</time>
      </trkpt>
      <trkpt lat="48.40223" lon="7.29934">
        <ele>771.2</ele>
        <time>2026-03-16T12:51:20Z</time>
      </trkpt>
      <trkpt lat="48.40223" lon="7.29934">
        <ele>771.2</ele>
        <time>2026-03-16T12:51:25Z</time>
      </trkpt>
      <trkpt lat="48.40223" lon="7.29934">
        <ele>771.2</ele>
        <time>2026-03-16T12:51:30Z</time>
      </trkpt>
      <trkpt lat="48.40223" lon="7.29934">
        <ele>771.2</ele>
        <time>2026-03-16T12:51:35Z</time>
      </trkpt>
      <trkpt lat="48.40223" lon="7.29934">
        <ele>771.2</ele>
        <time>2026-03-16T12:51:40Z</time>
      </trkpt>
      <trkpt lat="48.40223" lon="7.29934">
        <ele>771.2</ele>
        <time>2026-03-16T12:51:45Z</time>
      </trkpt>
      <trkpt lat="48.40223" lon="7.29934">
        <ele>771.2</ele>
        <time>2026-03-16T12:51:50Z</time>
      </trkpt>
      <trkpt lat="48.40223" lon="7.29934">
        <ele>771.2</ele>
        <time>2026-03-16T12:51:55Z</time>
      </trkpt>
      <trkpt lat="48.40223" lon="7.29934">
        <ele>771.2</ele>
        <time>2026-03-16T12:52:00Z</time>
      </trkpt>
      <trkpt lat="48.40223" lon="7.29934">
        <ele>771.2</ele>
        <time>2026-03-16T12:52:05Z</time>
      </trkpt>
      <trkpt lat="48.40223" lon="7.29934">
        <ele>771.2</ele>
        <time>2026-03-16T12:52:10Z</time>
      </trkpt>
      <trkpt lat="48.40223" lon="7.29934">
        <ele>771.2</ele>
        <time>2026-03-16T12:52:15Z</time>
      </trkpt>
      <trkpt lat="48.40223" lon="7.29934">
        <ele>771.2</ele>
        <time>2026-03-16T12:52:20Z</time>
      </trkpt>
      <trkpt lat="48.40223" lon="7.29934">
        <ele>771.2</ele>
        <time>2026-03-16T12:52:25Z</time>
      </trkpt>
      <trkpt lat="48.40223" lon="7.29934">
        <ele>771.2</ele>
        <time>2026-03-16T12:52:30Z</time>
      </trkpt>
      <trkpt lat="48.40223" lon="7.29934">
        <ele>771.2</ele>
        <time>2026-03-16T12:52:35Z</time>
      </trkpt>
      <trkpt lat="48.40223" lon="7.29934">
        <ele>771.2</ele>
        <time>2026-03-16T12:52:40Z</time>
      </trkpt>
      <trkpt lat="48.40223" lon="7.29934">
        <ele>771.2</ele>
        <time>2026-03-16T12:52:45Z</time>
      </trkpt>
      <trkpt lat="48.40223" lon="7.29934">
        <ele>771.2</ele>
        <time>2026-03-16T12:52:50Z</time>
      </trkpt>
      <trkpt lat="48.40223" lon="7.29934">
        <ele>771.2</ele>
        <time>2026-03-16T12:52:55Z</time>
      </trkpt>
      <trkpt lat="48.40223" lon="7.29934">
        <ele>771.2</ele>
        <time>2026-03-16T12:53:00Z</time>
      </trkpt>
      <trkpt lat="48.40223" lon="7.29934">
        <ele>771.2</ele>
        <time>2026-03-16T12:53:05Z</time>
      </trkpt>
      <trkpt lat="48.40223" lon="7.29934">
        <ele>771.2</ele>
        <time>2026-03-16T12:53:10Z</time>
      </trkpt>
      <trkpt lat="48.40223" lon="7.29934">
        <ele>771.2</ele>
        <time>2026-03-16T12:53:15Z</time>
      </trkpt>
      <trkpt lat="48.40223" lon="7.29934">
        <ele>771.2</ele>
        <time>2026-03-16T12:53:20Z</time>
      </trkpt>
      <trkpt lat="48.40223" lon="7.29934">
        <ele>771.2</ele>
        <time>2026-03-16T12:53:25Z</time>
      </trkpt>
      <trkpt lat="48.40223" lon="7.29934">
        <ele>771.2</ele>
        <time>2026-03-16T12:53:30Z</time>
      </trkpt>
      <trkpt lat="48.40223" lon="7.29934">
        <ele>771.2</ele>
        <time>2026-03-16T12:53:35Z</time>
      </trkpt>
      <trkpt lat="48.40223" lon="7.29934">
        <ele>771.2</ele>
        <time>2026-03-16T12:53:40Z</time>
      </trkpt>
      <trkpt lat="48.40223" lon="7.29934">
        <ele>771.2</ele>
        <time>2026-03-16T12:53:45Z</time>
      </trkpt>
      <trkpt lat="48.40223" lon="7.29934">
        <ele>771.2</ele>
        <time>2026-03-16T12:53:50Z</time>
      </trkpt>
      <trkpt lat="48.40223" lon="7.29934">
        <ele>771.2</ele>
        <time>2026-03-16T12:53:55Z</time>
      </trkpt>
      <trkpt lat="48.40223" lon="7.29934">
        <ele>771.2</ele>
        <time>2026-03-16T12:54:00Z</time>
      </trkpt>
      <trkpt lat="48.40223" lon="7.29934">
        <ele>771.2</ele>
        <time>2026-03-16T12:54:05Z</time>
      </trkpt>
      <trkpt lat="48.40223" lon="7.29934">
        <ele>771.2</ele>
        <time>2026-03-16T12:54:10Z</time>
      </trkpt>
      <trkpt lat="48.40223" lon="7.29934">
        <ele>771.2</ele>
        <time>2026-03-16T12:54:15Z</time>
      </trkpt>
      <trkpt lat="48.40223" lon="7.29934">
        <ele>771.2</ele>
        <time>2026-03-16T12:54:20Z</time>
      </trkpt>
      <trkpt lat="48.40223" lon="7.29934">
        <ele>771.2</ele>
        <time>2026-03-16T12:54:25Z</time>
      </trkpt>
      <trkpt lat="48.40223" lon="7.29934">
        <ele>771.2</ele>
        <time>2026-03-16T12:54:30Z</time>
      </trkpt>
      <trkpt lat="48.40233" lon="7.29936">
        <ele>772.9</ele>
        <time>2026-03-16T12:54:35Z</time>
      </trkpt>
      <trkpt lat="48.40239" lon="7.29949">
        <ele>772.8</ele>
        <time>2026-03-16T12:54:40Z</time>
      </trkpt>
      <trkpt lat="48.4024" lon="7.29949">
        <ele>773</ele>
        <time>2026-03-16T12:54:45Z</time>
      </trkpt>
      <trkpt lat="48.40244" lon="7.29963">
        <ele>772.4</ele>
        <time>2026-03-16T12:54:50Z</time>
      </trkpt>
      <trkpt lat="48.40243" lon="7.29969">
        <ele>771.6</ele>
        <time>2026-03-16T12:54:55Z</time>
      </trkpt>
      <trkpt lat="48.40239" lon="7.29984">
        <ele>769.4</ele>
        <time>2026-03-16T12:55:00Z</time>
      </trkpt>
      <trkpt lat="48.40231" lon="7.29999">
        <ele>766.4</ele>
        <time>2026-03-16T12:55:05Z</time>
      </trkpt>
      <trkpt lat="48.40224" lon="7.30003">
        <ele>764.6</ele>
        <time>2026-03-16T12:55:10Z</time>
      </trkpt>
      <trkpt lat="48.40223" lon="7.30003">
        <ele>764.4</ele>
        <time>2026-03-16T12:55:15Z</time>
      </trkpt>
      <trkpt lat="48.40223" lon="7.30003">
        <ele>764.4</ele>
        <time>2026-03-16T12:55:20Z</time>
      </trkpt>
      <trkpt lat="48.40209" lon="7.30009">
        <ele>760.8</ele>
        <time>2026-03-16T12:55:25Z</time>
      </trkpt>
      <trkpt lat="48.40209" lon="7.30009">
        <ele>760.8</ele>
        <time>2026-03-16T12:55:30Z</time>
      </trkpt>
      <trkpt lat="48.40198" lon="7.30019">
        <ele>757.2</ele>
        <time>2026-03-16T12:55:35Z</time>
      </trkpt>
      <trkpt lat="48.40186" lon="7.30024">
        <ele>754.2</ele>
        <time>2026-03-16T12:55:40Z</time>
      </trkpt>
      <trkpt lat="48.40185" lon="7.30025">
        <ele>753.9</ele>
        <time>2026-03-16T12:55:45Z</time>
      </trkpt>
      <trkpt lat="48.40185" lon="7.30025">
        <ele>753.9</ele>
        <time>2026-03-16T12:55:50Z</time>
      </trkpt>
      <trkpt lat="48.40172" lon="7.30024">
        <ele>751.5</ele>
        <time>2026-03-16T12:55:55Z</time>
      </trkpt>
      <trkpt lat="48.40172" lon="7.30024">
        <ele>751.5</ele>
        <time>2026-03-16T12:56:00Z</time>
      </trkpt>
      <trkpt lat="48.4016" lon="7.30019">
        <ele>751</ele>
        <time>2026-03-16T12:56:05Z</time>
      </trkpt>
      <trkpt lat="48.40149" lon="7.30015">
        <ele>751</ele>
        <time>2026-03-16T12:56:10Z</time>
      </trkpt>
      <trkpt lat="48.40146" lon="7.30015">
        <ele>750.9</ele>
        <time>2026-03-16T12:56:15Z</time>
      </trkpt>
      <trkpt lat="48.40146" lon="7.30015">
        <ele>750.9</ele>
        <time>2026-03-16T12:56:20Z</time>
      </trkpt>
      <trkpt lat="48.40134" lon="7.30015">
        <ele>750.3</ele>
        <time>2026-03-16T12:56:25Z</time>
      </trkpt>
      <trkpt lat="48.40133" lon="7.30015">
        <ele>750.3</ele>
        <time>2026-03-16T12:56:30Z</time>
      </trkpt>
      <trkpt lat="48.40123" lon="7.30016">
        <ele>749.7</ele>
        <time>2026-03-16T12:56:35Z</time>
      </trkpt>
      <trkpt lat="48.4012" lon="7.30017">
        <ele>749.4</ele>
        <time>2026-03-16T12:56:40Z</time>
      </trkpt>
      <trkpt lat="48.40112" lon="7.30024">
        <ele>748.1</ele>
        <time>2026-03-16T12:56:45Z</time>
      </trkpt>
      <trkpt lat="48.40108" lon="7.30026">
        <ele>747.7</ele>
        <time>2026-03-16T12:56:50Z</time>
      </trkpt>
      <trkpt lat="48.40097" lon="7.30029">
        <ele>746.8</ele>
        <time>2026-03-16T12:56:55Z</time>
      </trkpt>
      <trkpt lat="48.40095" lon="7.30028">
        <ele>746.8</ele>
        <time>2026-03-16T12:57:00Z</time>
      </trkpt>
      <trkpt lat="48.40095" lon="7.30028">
        <ele>746.8</ele>
        <time>2026-03-16T12:57:05Z</time>
      </trkpt>
      <trkpt lat="48.40082" lon="7.30027">
        <ele>746.4</ele>
        <time>2026-03-16T12:57:10Z</time>
      </trkpt>
      <trkpt lat="48.40082" lon="7.30027">
        <ele>746.4</ele>
        <time>2026-03-16T12:57:15Z</time>
      </trkpt>
      <trkpt lat="48.40082" lon="7.30027">
        <ele>746.4</ele>
        <time>2026-03-16T12:57:20Z</time>
      </trkpt>
      <trkpt lat="48.40072" lon="7.30027">
        <ele>746</ele>
        <time>2026-03-16T12:57:25Z</time>
      </trkpt>
      <trkpt lat="48.40072" lon="7.30027">
        <ele>746</ele>
        <time>2026-03-16T12:57:30Z</time>
      </trkpt>
      <trkpt lat="48.40072" lon="7.30027">
        <ele>746</ele>
        <time>2026-03-16T12:57:35Z</time>
      </trkpt>
      <trkpt lat="48.40061" lon="7.30041">
        <ele>743.5</ele>
        <time>2026-03-16T12:57:40Z</time>
      </trkpt>
      <trkpt lat="48.40061" lon="7.30041">
        <ele>743.5</ele>
        <time>2026-03-16T12:57:45Z</time>
      </trkpt>
      <trkpt lat="48.40061" lon="7.30046">
        <ele>742.8</ele>
        <time>2026-03-16T12:57:50Z</time>
      </trkpt>
      <trkpt lat="48.40055" lon="7.30053">
        <ele>741.5</ele>
        <time>2026-03-16T12:57:55Z</time>
      </trkpt>
      <trkpt lat="48.40056" lon="7.3006">
        <ele>740.5</ele>
        <time>2026-03-16T12:58:00Z</time>
      </trkpt>
      <trkpt lat="48.40056" lon="7.30065">
        <ele>739.7</ele>
        <time>2026-03-16T12:58:05Z</time>
      </trkpt>
      <trkpt lat="48.40054" lon="7.3007">
        <ele>738.9</ele>
        <time>2026-03-16T12:58:10Z</time>
      </trkpt>
      <trkpt lat="48.40053" lon="7.3007">
        <ele>738.8</ele>
        <time>2026-03-16T12:58:15Z</time>
      </trkpt>
      <trkpt lat="48.40053" lon="7.3007">
        <ele>738.8</ele>
        <time>2026-03-16T12:58:20Z</time>
      </trkpt>
      <trkpt lat="48.40051" lon="7.30083">
        <ele>736.7</ele>
        <time>2026-03-16T12:58:25Z</time>
      </trkpt>
      <trkpt lat="48.40051" lon="7.30085">
        <ele>736.4</ele>
        <time>2026-03-16T12:58:30Z</time>
      </trkpt>
      <trkpt lat="48.40051" lon="7.30085">
        <ele>736.4</ele>
        <time>2026-03-16T12:58:35Z</time>
      </trkpt>
      <trkpt lat="48.40053" lon="7.30103">
        <ele>733.1</ele>
        <time>2026-03-16T12:58:40Z</time>
      </trkpt>
      <trkpt lat="48.40053" lon="7.30103">
        <ele>733.1</ele>
        <time>2026-03-16T12:58:45Z</time>
      </trkpt>
      <trkpt lat="48.40053" lon="7.30103">
        <ele>733.1</ele>
        <time>2026-03-16T12:58:50Z</time>
      </trkpt>
      <trkpt lat="48.40052" lon="7.30121">
        <ele>729.6</ele>
        <time>2026-03-16T12:58:55Z</time>
      </trkpt>
      <trkpt lat="48.40052" lon="7.30121">
        <ele>729.6</ele>
        <time>2026-03-16T12:59:00Z</time>
      </trkpt>
      <trkpt lat="48.40052" lon="7.30121">
        <ele>729.6</ele>
        <time>2026-03-16T12:59:05Z</time>
      </trkpt>
      <trkpt lat="48.40052" lon="7.30121">
        <ele>729.6</ele>
        <time>2026-03-16T12:59:10Z</time>
      </trkpt>
      <trkpt lat="48.40052" lon="7.30121">
        <ele>729.6</ele>
        <time>2026-03-16T12:59:15Z</time>
      </trkpt>
      <trkpt lat="48.40052" lon="7.30121">
        <ele>729.6</ele>
        <time>2026-03-16T12:59:20Z</time>
      </trkpt>
      <trkpt lat="48.40052" lon="7.30121">
        <ele>729.6</ele>
        <time>2026-03-16T12:59:25Z</time>
      </trkpt>
      <trkpt lat="48.40052" lon="7.30121">
        <ele>729.6</ele>
        <time>2026-03-16T12:59:30Z</time>
      </trkpt>
      <trkpt lat="48.40052" lon="7.30121">
        <ele>729.6</ele>
        <time>2026-03-16T12:59:35Z</time>
      </trkpt>
      <trkpt lat="48.40058" lon="7.30134">
        <ele>727.4</ele>
        <time>2026-03-16T12:59:40Z</time>
      </trkpt>
      <trkpt lat="48.40059" lon="7.30136">
        <ele>727.1</ele>
        <time>2026-03-16T12:59:45Z</time>
      </trkpt>
      <trkpt lat="48.40059" lon="7.30136">
        <ele>727.1</ele>
        <time>2026-03-16T12:59:50Z</time>
      </trkpt>
      <trkpt lat="48.40068" lon="7.30149">
        <ele>724.9</ele>
        <time>2026-03-16T12:59:55Z</time>
      </trkpt>
      <trkpt lat="48.40068" lon="7.30149">
        <ele>724.9</ele>
        <time>2026-03-16T13:00:00Z</time>
      </trkpt>
      <trkpt lat="48.40068" lon="7.30149">
        <ele>724.9</ele>
        <time>2026-03-16T13:00:05Z</time>
      </trkpt>
      <trkpt lat="48.40068" lon="7.30149">
        <ele>724.9</ele>
        <time>2026-03-16T13:00:10Z</time>
      </trkpt>
      <trkpt lat="48.40068" lon="7.30149">
        <ele>724.9</ele>
        <time>2026-03-16T13:00:15Z</time>
      </trkpt>
      <trkpt lat="48.40068" lon="7.30149">
        <ele>724.9</ele>
        <time>2026-03-16T13:00:20Z</time>
      </trkpt>
      <trkpt lat="48.40068" lon="7.30149">
        <ele>724.9</ele>
        <time>2026-03-16T13:00:25Z</time>
      </trkpt>
      <trkpt lat="48.40068" lon="7.30149">
        <ele>724.9</ele>
        <time>2026-03-16T13:00:30Z</time>
      </trkpt>
      <trkpt lat="48.40068" lon="7.30149">
        <ele>724.9</ele>
        <time>2026-03-16T13:00:35Z</time>
      </trkpt>
      <trkpt lat="48.40068" lon="7.30149">
        <ele>724.9</ele>
        <time>2026-03-16T13:00:40Z</time>
      </trkpt>
      <trkpt lat="48.40068" lon="7.30149">
        <ele>724.9</ele>
        <time>2026-03-16T13:00:45Z</time>
      </trkpt>
      <trkpt lat="48.40068" lon="7.30149">
        <ele>724.9</ele>
        <time>2026-03-16T13:00:50Z</time>
      </trkpt>
      <trkpt lat="48.40068" lon="7.30149">
        <ele>724.9</ele>
        <time>2026-03-16T13:00:55Z</time>
      </trkpt>
      <trkpt lat="48.40068" lon="7.30149">
        <ele>724.9</ele>
        <time>2026-03-16T13:01:00Z</time>
      </trkpt>
      <trkpt lat="48.40066" lon="7.30149">
        <ele>724.8</ele>
        <time>2026-03-16T13:01:05Z</time>
      </trkpt>
      <trkpt lat="48.40066" lon="7.30149">
        <ele>724.8</ele>
        <time>2026-03-16T13:01:10Z</time>
      </trkpt>
      <trkpt lat="48.40066" lon="7.30149">
        <ele>724.8</ele>
        <time>2026-03-16T13:01:15Z</time>
      </trkpt>
      <trkpt lat="48.40066" lon="7.30149">
        <ele>724.8</ele>
        <time>2026-03-16T13:01:20Z</time>
      </trkpt>
      <trkpt lat="48.40066" lon="7.30149">
        <ele>724.8</ele>
        <time>2026-03-16T13:01:25Z</time>
      </trkpt>
      <trkpt lat="48.40066" lon="7.30149">
        <ele>724.8</ele>
        <time>2026-03-16T13:01:30Z</time>
      </trkpt>
      <trkpt lat="48.40066" lon="7.30149">
        <ele>724.8</ele>
        <time>2026-03-16T13:01:35Z</time>
      </trkpt>
      <trkpt lat="48.40066" lon="7.30149">
        <ele>724.8</ele>
        <time>2026-03-16T13:01:40Z</time>
      </trkpt>
      <trkpt lat="48.40066" lon="7.30149">
        <ele>724.8</ele>
        <time>2026-03-16T13:01:45Z</time>
      </trkpt>
      <trkpt lat="48.40066" lon="7.30149">
        <ele>724.8</ele>
        <time>2026-03-16T13:01:50Z</time>
      </trkpt>
      <trkpt lat="48.40066" lon="7.30149">
        <ele>724.8</ele>
        <time>2026-03-16T13:01:55Z</time>
      </trkpt>
      <trkpt lat="48.40058" lon="7.30133">
        <ele>727.6</ele>
        <time>2026-03-16T13:02:00Z</time>
      </trkpt>
      <trkpt lat="48.40058" lon="7.30133">
        <ele>727.6</ele>
        <time>2026-03-16T13:02:05Z</time>
      </trkpt>
      <trkpt lat="48.40058" lon="7.30133">
        <ele>727.6</ele>
        <time>2026-03-16T13:02:10Z</time>
      </trkpt>
      <trkpt lat="48.40058" lon="7.30133">
        <ele>727.6</ele>
        <time>2026-03-16T13:02:15Z</time>
      </trkpt>
      <trkpt lat="48.40058" lon="7.30153">
        <ele>723.7</ele>
        <time>2026-03-16T13:02:20Z</time>
      </trkpt>
      <trkpt lat="48.40058" lon="7.30153">
        <ele>723.7</ele>
        <time>2026-03-16T13:02:25Z</time>
      </trkpt>
      <trkpt lat="48.4006" lon="7.3017">
        <ele>720.7</ele>
        <time>2026-03-16T13:02:30Z</time>
      </trkpt>
      <trkpt lat="48.4006" lon="7.30171">
        <ele>720.5</ele>
        <time>2026-03-16T13:02:35Z</time>
      </trkpt>
      <trkpt lat="48.40053" lon="7.30182">
        <ele>718.6</ele>
        <time>2026-03-16T13:02:40Z</time>
      </trkpt>
      <trkpt lat="48.40051" lon="7.30184">
        <ele>718.3</ele>
        <time>2026-03-16T13:02:45Z</time>
      </trkpt>
      <trkpt lat="48.40051" lon="7.30184">
        <ele>718.3</ele>
        <time>2026-03-16T13:02:50Z</time>
      </trkpt>
      <trkpt lat="48.40044" lon="7.30195">
        <ele>716.3</ele>
        <time>2026-03-16T13:02:55Z</time>
      </trkpt>
      <trkpt lat="48.40041" lon="7.30199">
        <ele>715.6</ele>
        <time>2026-03-16T13:03:00Z</time>
      </trkpt>
      <trkpt lat="48.40041" lon="7.30199">
        <ele>715.6</ele>
        <time>2026-03-16T13:03:05Z</time>
      </trkpt>
      <trkpt lat="48.40041" lon="7.30184">
        <ele>717.9</ele>
        <time>2026-03-16T13:03:10Z</time>
      </trkpt>
      <trkpt lat="48.40042" lon="7.3018">
        <ele>718.5</ele>
        <time>2026-03-16T13:03:15Z</time>
      </trkpt>
      <trkpt lat="48.40044" lon="7.30166">
        <ele>720.7</ele>
        <time>2026-03-16T13:03:20Z</time>
      </trkpt>
      <trkpt lat="48.40043" lon="7.30162">
        <ele>721.4</ele>
        <time>2026-03-16T13:03:25Z</time>
      </trkpt>
      <trkpt lat="48.40043" lon="7.30162">
        <ele>721.4</ele>
        <time>2026-03-16T13:03:30Z</time>
      </trkpt>
      <trkpt lat="48.40036" lon="7.30148">
        <ele>723.7</ele>
        <time>2026-03-16T13:03:35Z</time>
      </trkpt>
      <trkpt lat="48.40036" lon="7.30148">
        <ele>723.7</ele>
        <time>2026-03-16T13:03:40Z</time>
      </trkpt>
      <trkpt lat="48.40033" lon="7.30161">
        <ele>721.2</ele>
        <time>2026-03-16T13:03:45Z</time>
      </trkpt>
      <trkpt lat="48.40031" lon="7.30166">
        <ele>720.2</ele>
        <time>2026-03-16T13:03:50Z</time>
      </trkpt>
      <trkpt lat="48.40026" lon="7.30178">
        <ele>718.2</ele>
        <time>2026-03-16T13:03:55Z</time>
      </trkpt>
      <trkpt lat="48.40024" lon="7.30181">
        <ele>717.7</ele>
        <time>2026-03-16T13:04:00Z</time>
      </trkpt>
      <trkpt lat="48.40024" lon="7.30181">
        <ele>717.7</ele>
        <time>2026-03-16T13:04:05Z</time>
      </trkpt>
      <trkpt lat="48.40024" lon="7.30181">
        <ele>717.7</ele>
        <time>2026-03-16T13:04:10Z</time>
      </trkpt>
      <trkpt lat="48.40024" lon="7.30181">
        <ele>717.7</ele>
        <time>2026-03-16T13:04:15Z</time>
      </trkpt>
      <trkpt lat="48.40024" lon="7.30181">
        <ele>717.7</ele>
        <time>2026-03-16T13:04:20Z</time>
      </trkpt>
      <trkpt lat="48.40024" lon="7.30181">
        <ele>717.7</ele>
        <time>2026-03-16T13:04:25Z</time>
      </trkpt>
      <trkpt lat="48.40024" lon="7.30181">
        <ele>717.7</ele>
        <time>2026-03-16T13:04:30Z</time>
      </trkpt>
      <trkpt lat="48.40024" lon="7.30181">
        <ele>717.7</ele>
        <time>2026-03-16T13:04:35Z</time>
      </trkpt>
      <trkpt lat="48.40024" lon="7.30181">
        <ele>717.7</ele>
        <time>2026-03-16T13:04:40Z</time>
      </trkpt>
      <trkpt lat="48.40024" lon="7.30181">
        <ele>717.7</ele>
        <time>2026-03-16T13:04:45Z</time>
      </trkpt>
      <trkpt lat="48.40024" lon="7.30181">
        <ele>717.7</ele>
        <time>2026-03-16T13:04:50Z</time>
      </trkpt>
      <trkpt lat="48.40028" lon="7.30171">
        <ele>719.3</ele>
        <time>2026-03-16T13:04:55Z</time>
      </trkpt>
      <trkpt lat="48.40019" lon="7.30155">
        <ele>721.7</ele>
        <time>2026-03-16T13:05:00Z</time>
      </trkpt>
      <trkpt lat="48.40016" lon="7.30146">
        <ele>723.2</ele>
        <time>2026-03-16T13:05:05Z</time>
      </trkpt>
      <trkpt lat="48.40015" lon="7.30161">
        <ele>720.5</ele>
        <time>2026-03-16T13:05:10Z</time>
      </trkpt>
      <trkpt lat="48.40022" lon="7.3018">
        <ele>717.8</ele>
        <time>2026-03-16T13:05:15Z</time>
      </trkpt>
      <trkpt lat="48.40023" lon="7.3018">
        <ele>717.8</ele>
        <time>2026-03-16T13:05:20Z</time>
      </trkpt>
      <trkpt lat="48.40032" lon="7.30165">
        <ele>720.5</ele>
        <time>2026-03-16T13:05:25Z</time>
      </trkpt>
      <trkpt lat="48.40032" lon="7.3016">
        <ele>721.4</ele>
        <time>2026-03-16T13:05:30Z</time>
      </trkpt>
      <trkpt lat="48.40032" lon="7.3016">
        <ele>721.4</ele>
        <time>2026-03-16T13:05:35Z</time>
      </trkpt>
      <trkpt lat="48.40032" lon="7.3016">
        <ele>721.4</ele>
        <time>2026-03-16T13:05:40Z</time>
      </trkpt>
      <trkpt lat="48.40032" lon="7.3016">
        <ele>721.4</ele>
        <time>2026-03-16T13:05:45Z</time>
      </trkpt>
      <trkpt lat="48.40031" lon="7.30145">
        <ele>724</ele>
        <time>2026-03-16T13:05:50Z</time>
      </trkpt>
      <trkpt lat="48.40031" lon="7.30145">
        <ele>724</ele>
        <time>2026-03-16T13:05:55Z</time>
      </trkpt>
      <trkpt lat="48.40031" lon="7.30145">
        <ele>724</ele>
        <time>2026-03-16T13:06:00Z</time>
      </trkpt>
      <trkpt lat="48.40031" lon="7.30145">
        <ele>724</ele>
        <time>2026-03-16T13:06:05Z</time>
      </trkpt>
      <trkpt lat="48.40031" lon="7.30145">
        <ele>724</ele>
        <time>2026-03-16T13:06:10Z</time>
      </trkpt>
      <trkpt lat="48.40031" lon="7.30145">
        <ele>724</ele>
        <time>2026-03-16T13:06:15Z</time>
      </trkpt>
      <trkpt lat="48.40031" lon="7.30145">
        <ele>724</ele>
        <time>2026-03-16T13:06:20Z</time>
      </trkpt>
      <trkpt lat="48.40031" lon="7.30145">
        <ele>724</ele>
        <time>2026-03-16T13:06:25Z</time>
      </trkpt>
      <trkpt lat="48.40031" lon="7.30145">
        <ele>724</ele>
        <time>2026-03-16T13:06:30Z</time>
      </trkpt>
      <trkpt lat="48.40031" lon="7.30145">
        <ele>724</ele>
        <time>2026-03-16T13:06:35Z</time>
      </trkpt>
      <trkpt lat="48.40031" lon="7.30145">
        <ele>724</ele>
        <time>2026-03-16T13:06:40Z</time>
      </trkpt>
      <trkpt lat="48.40035" lon="7.30141">
        <ele>725</ele>
        <time>2026-03-16T13:06:45Z</time>
      </trkpt>
      <trkpt lat="48.40035" lon="7.30141">
        <ele>725</ele>
        <time>2026-03-16T13:06:50Z</time>
      </trkpt>
      <trkpt lat="48.40035" lon="7.30141">
        <ele>725</ele>
        <time>2026-03-16T13:06:55Z</time>
      </trkpt>
      <trkpt lat="48.40035" lon="7.30141">
        <ele>725</ele>
        <time>2026-03-16T13:07:00Z</time>
      </trkpt>
      <trkpt lat="48.40035" lon="7.30141">
        <ele>725</ele>
        <time>2026-03-16T13:07:05Z</time>
      </trkpt>
      <trkpt lat="48.40035" lon="7.30141">
        <ele>725</ele>
        <time>2026-03-16T13:07:10Z</time>
      </trkpt>
      <trkpt lat="48.40035" lon="7.30141">
        <ele>725</ele>
        <time>2026-03-16T13:07:15Z</time>
      </trkpt>
      <trkpt lat="48.40035" lon="7.30141">
        <ele>725</ele>
        <time>2026-03-16T13:07:20Z</time>
      </trkpt>
      <trkpt lat="48.40035" lon="7.30141">
        <ele>725</ele>
        <time>2026-03-16T13:07:25Z</time>
      </trkpt>
      <trkpt lat="48.40035" lon="7.30141">
        <ele>725</ele>
        <time>2026-03-16T13:07:30Z</time>
      </trkpt>
      <trkpt lat="48.40035" lon="7.30141">
        <ele>725</ele>
        <time>2026-03-16T13:07:35Z</time>
      </trkpt>
      <trkpt lat="48.40035" lon="7.30141">
        <ele>725</ele>
        <time>2026-03-16T13:07:40Z</time>
      </trkpt>
      <trkpt lat="48.40035" lon="7.30141">
        <ele>725</ele>
        <time>2026-03-16T13:07:45Z</time>
      </trkpt>
      <trkpt lat="48.40035" lon="7.30141">
        <ele>725</ele>
        <time>2026-03-16T13:07:50Z</time>
      </trkpt>
      <trkpt lat="48.40042" lon="7.30162">
        <ele>721.4</ele>
        <time>2026-03-16T13:07:55Z</time>
      </trkpt>
      <trkpt lat="48.40039" lon="7.30169">
        <ele>720.1</ele>
        <time>2026-03-16T13:08:00Z</time>
      </trkpt>
      <trkpt lat="48.40039" lon="7.30169">
        <ele>720.1</ele>
        <time>2026-03-16T13:08:05Z</time>
      </trkpt>
      <trkpt lat="48.40039" lon="7.30169">
        <ele>720.1</ele>
        <time>2026-03-16T13:08:10Z</time>
      </trkpt>
      <trkpt lat="48.40039" lon="7.30169">
        <ele>720.1</ele>
        <time>2026-03-16T13:08:15Z</time>
      </trkpt>
      <trkpt lat="48.40039" lon="7.30169">
        <ele>720.1</ele>
        <time>2026-03-16T13:08:20Z</time>
      </trkpt>
      <trkpt lat="48.40041" lon="7.30186">
        <ele>717.6</ele>
        <time>2026-03-16T13:08:25Z</time>
      </trkpt>
      <trkpt lat="48.40041" lon="7.30186">
        <ele>717.6</ele>
        <time>2026-03-16T13:08:30Z</time>
      </trkpt>
      <trkpt lat="48.40043" lon="7.302">
        <ele>715.6</ele>
        <time>2026-03-16T13:08:35Z</time>
      </trkpt>
      <trkpt lat="48.40044" lon="7.30203">
        <ele>715.1</ele>
        <time>2026-03-16T13:08:40Z</time>
      </trkpt>
      <trkpt lat="48.40053" lon="7.30196">
        <ele>716.6</ele>
        <time>2026-03-16T13:08:45Z</time>
      </trkpt>
      <trkpt lat="48.40056" lon="7.30192">
        <ele>717.3</ele>
        <time>2026-03-16T13:08:50Z</time>
      </trkpt>
      <trkpt lat="48.40061" lon="7.3018">
        <ele>719.2</ele>
        <time>2026-03-16T13:08:55Z</time>
      </trkpt>
      <trkpt lat="48.40062" lon="7.30176">
        <ele>719.9</ele>
        <time>2026-03-16T13:09:00Z</time>
      </trkpt>
      <trkpt lat="48.40062" lon="7.30176">
        <ele>719.9</ele>
        <time>2026-03-16T13:09:05Z</time>
      </trkpt>
      <trkpt lat="48.40065" lon="7.30163">
        <ele>722.1</ele>
        <time>2026-03-16T13:09:10Z</time>
      </trkpt>
      <trkpt lat="48.40066" lon="7.3016">
        <ele>722.7</ele>
        <time>2026-03-16T13:09:15Z</time>
      </trkpt>
      <trkpt lat="48.40066" lon="7.3016">
        <ele>722.7</ele>
        <time>2026-03-16T13:09:20Z</time>
      </trkpt>
      <trkpt lat="48.40066" lon="7.3016">
        <ele>722.7</ele>
        <time>2026-03-16T13:09:25Z</time>
      </trkpt>
      <trkpt lat="48.40059" lon="7.30145">
        <ele>725.3</ele>
        <time>2026-03-16T13:09:30Z</time>
      </trkpt>
      <trkpt lat="48.40059" lon="7.30145">
        <ele>725.3</ele>
        <time>2026-03-16T13:09:35Z</time>
      </trkpt>
      <trkpt lat="48.40059" lon="7.30145">
        <ele>725.3</ele>
        <time>2026-03-16T13:09:40Z</time>
      </trkpt>
      <trkpt lat="48.40056" lon="7.30132">
        <ele>727.7</ele>
        <time>2026-03-16T13:09:45Z</time>
      </trkpt>
      <trkpt lat="48.40057" lon="7.30128">
        <ele>728.5</ele>
        <time>2026-03-16T13:09:50Z</time>
      </trkpt>
      <trkpt lat="48.40057" lon="7.30128">
        <ele>728.5</ele>
        <time>2026-03-16T13:09:55Z</time>
      </trkpt>
      <trkpt lat="48.40057" lon="7.30128">
        <ele>728.5</ele>
        <time>2026-03-16T13:10:00Z</time>
      </trkpt>
      <trkpt lat="48.40063" lon="7.30143">
        <ele>725.9</ele>
        <time>2026-03-16T13:10:05Z</time>
      </trkpt>
      <trkpt lat="48.40063" lon="7.30143">
        <ele>725.9</ele>
        <time>2026-03-16T13:10:10Z</time>
      </trkpt>
      <trkpt lat="48.40063" lon="7.30143">
        <ele>725.9</ele>
        <time>2026-03-16T13:10:15Z</time>
      </trkpt>
      <trkpt lat="48.40063" lon="7.30143">
        <ele>725.9</ele>
        <time>2026-03-16T13:10:20Z</time>
      </trkpt>
      <trkpt lat="48.40063" lon="7.30143">
        <ele>725.9</ele>
        <time>2026-03-16T13:10:25Z</time>
      </trkpt>
      <trkpt lat="48.40063" lon="7.30143">
        <ele>725.9</ele>
        <time>2026-03-16T13:10:30Z</time>
      </trkpt>
      <trkpt lat="48.40072" lon="7.30144">
        <ele>726.1</ele>
        <time>2026-03-16T13:10:35Z</time>
      </trkpt>
      <trkpt lat="48.40073" lon="7.30144">
        <ele>726.2</ele>
        <time>2026-03-16T13:10:40Z</time>
      </trkpt>
      <trkpt lat="48.40073" lon="7.30144">
        <ele>726.2</ele>
        <time>2026-03-16T13:10:45Z</time>
      </trkpt>
      <trkpt lat="48.40073" lon="7.30144">
        <ele>726.2</ele>
        <time>2026-03-16T13:10:50Z</time>
      </trkpt>
      <trkpt lat="48.40073" lon="7.30144">
        <ele>726.2</ele>
        <time>2026-03-16T13:10:55Z</time>
      </trkpt>
      <trkpt lat="48.40083" lon="7.30154">
        <ele>724.6</ele>
        <time>2026-03-16T13:11:00Z</time>
      </trkpt>
      <trkpt lat="48.40083" lon="7.30154">
        <ele>724.6</ele>
        <time>2026-03-16T13:11:05Z</time>
      </trkpt>
      <trkpt lat="48.40096" lon="7.30155">
        <ele>725.2</ele>
        <time>2026-03-16T13:11:10Z</time>
      </trkpt>
      <trkpt lat="48.40096" lon="7.30155">
        <ele>725.2</ele>
        <time>2026-03-16T13:11:15Z</time>
      </trkpt>
      <trkpt lat="48.40107" lon="7.30169">
        <ele>723.4</ele>
        <time>2026-03-16T13:11:20Z</time>
      </trkpt>
      <trkpt lat="48.40107" lon="7.30169">
        <ele>723.4</ele>
        <time>2026-03-16T13:11:25Z</time>
      </trkpt>
      <trkpt lat="48.40113" lon="7.3018">
        <ele>722.5</ele>
        <time>2026-03-16T13:11:30Z</time>
      </trkpt>
      <trkpt lat="48.40114" lon="7.30183">
        <ele>722.2</ele>
        <time>2026-03-16T13:11:35Z</time>
      </trkpt>
      <trkpt lat="48.40114" lon="7.30183">
        <ele>722.2</ele>
        <time>2026-03-16T13:11:40Z</time>
      </trkpt>
      <trkpt lat="48.40121" lon="7.30199">
        <ele>720.9</ele>
        <time>2026-03-16T13:11:45Z</time>
      </trkpt>
      <trkpt lat="48.40121" lon="7.30199">
        <ele>720.9</ele>
        <time>2026-03-16T13:11:50Z</time>
      </trkpt>
      <trkpt lat="48.40129" lon="7.30213">
        <ele>720.1</ele>
        <time>2026-03-16T13:11:55Z</time>
      </trkpt>
      <trkpt lat="48.40129" lon="7.30213">
        <ele>720.1</ele>
        <time>2026-03-16T13:12:00Z</time>
      </trkpt>
      <trkpt lat="48.40139" lon="7.30226">
        <ele>719.8</ele>
        <time>2026-03-16T13:12:05Z</time>
      </trkpt>
      <trkpt lat="48.40139" lon="7.30226">
        <ele>719.8</ele>
        <time>2026-03-16T13:12:10Z</time>
      </trkpt>
      <trkpt lat="48.40147" lon="7.30243">
        <ele>719.1</ele>
        <time>2026-03-16T13:12:15Z</time>
      </trkpt>
      <trkpt lat="48.40151" lon="7.30252">
        <ele>718.7</ele>
        <time>2026-03-16T13:12:20Z</time>
      </trkpt>
      <trkpt lat="48.40156" lon="7.30256">
        <ele>718.9</ele>
        <time>2026-03-16T13:12:25Z</time>
      </trkpt>
      <trkpt lat="48.40164" lon="7.3026">
        <ele>719.5</ele>
        <time>2026-03-16T13:12:30Z</time>
      </trkpt>
      <trkpt lat="48.40168" lon="7.30259">
        <ele>720.1</ele>
        <time>2026-03-16T13:12:35Z</time>
      </trkpt>
      <trkpt lat="48.40168" lon="7.30259">
        <ele>720.1</ele>
        <time>2026-03-16T13:12:40Z</time>
      </trkpt>
      <trkpt lat="48.40168" lon="7.30259">
        <ele>720.1</ele>
        <time>2026-03-16T13:12:45Z</time>
      </trkpt>
      <trkpt lat="48.40168" lon="7.30259">
        <ele>720.1</ele>
        <time>2026-03-16T13:12:50Z</time>
      </trkpt>
      <trkpt lat="48.40168" lon="7.30259">
        <ele>720.1</ele>
        <time>2026-03-16T13:12:55Z</time>
      </trkpt>
      <trkpt lat="48.40168" lon="7.30259">
        <ele>720.1</ele>
        <time>2026-03-16T13:13:00Z</time>
      </trkpt>
      <trkpt lat="48.40168" lon="7.30259">
        <ele>720.1</ele>
        <time>2026-03-16T13:13:05Z</time>
      </trkpt>
      <trkpt lat="48.40168" lon="7.30259">
        <ele>720.1</ele>
        <time>2026-03-16T13:13:10Z</time>
      </trkpt>
      <trkpt lat="48.40173" lon="7.30271">
        <ele>719.2</ele>
        <time>2026-03-16T13:13:15Z</time>
      </trkpt>
      <trkpt lat="48.40174" lon="7.30279">
        <ele>718.3</ele>
        <time>2026-03-16T13:13:20Z</time>
      </trkpt>
      <trkpt lat="48.40178" lon="7.30281">
        <ele>718.5</ele>
        <time>2026-03-16T13:13:25Z</time>
      </trkpt>
      <trkpt lat="48.40178" lon="7.30281">
        <ele>718.5</ele>
        <time>2026-03-16T13:13:30Z</time>
      </trkpt>
      <trkpt lat="48.40178" lon="7.30281">
        <ele>718.5</ele>
        <time>2026-03-16T13:13:35Z</time>
      </trkpt>
      <trkpt lat="48.40178" lon="7.30281">
        <ele>718.5</ele>
        <time>2026-03-16T13:13:40Z</time>
      </trkpt>
      <trkpt lat="48.40178" lon="7.30281">
        <ele>718.5</ele>
        <time>2026-03-16T13:13:45Z</time>
      </trkpt>
      <trkpt lat="48.40178" lon="7.30281">
        <ele>718.5</ele>
        <time>2026-03-16T13:13:50Z</time>
      </trkpt>
      <trkpt lat="48.40178" lon="7.30281">
        <ele>718.5</ele>
        <time>2026-03-16T13:13:55Z</time>
      </trkpt>
      <trkpt lat="48.40178" lon="7.30281">
        <ele>718.5</ele>
        <time>2026-03-16T13:14:00Z</time>
      </trkpt>
      <trkpt lat="48.40178" lon="7.30281">
        <ele>718.5</ele>
        <time>2026-03-16T13:14:05Z</time>
      </trkpt>
      <trkpt lat="48.40178" lon="7.30281">
        <ele>718.5</ele>
        <time>2026-03-16T13:14:10Z</time>
      </trkpt>
      <trkpt lat="48.40178" lon="7.30281">
        <ele>718.5</ele>
        <time>2026-03-16T13:14:15Z</time>
      </trkpt>
      <trkpt lat="48.40187" lon="7.30275">
        <ele>720.3</ele>
        <time>2026-03-16T13:14:20Z</time>
      </trkpt>
      <trkpt lat="48.40188" lon="7.30276">
        <ele>720.3</ele>
        <time>2026-03-16T13:14:25Z</time>
      </trkpt>
      <trkpt lat="48.40188" lon="7.30276">
        <ele>720.3</ele>
        <time>2026-03-16T13:14:30Z</time>
      </trkpt>
      <trkpt lat="48.40188" lon="7.30276">
        <ele>720.3</ele>
        <time>2026-03-16T13:14:35Z</time>
      </trkpt>
      <trkpt lat="48.40188" lon="7.30276">
        <ele>720.3</ele>
        <time>2026-03-16T13:14:40Z</time>
      </trkpt>
      <trkpt lat="48.40188" lon="7.30276">
        <ele>720.3</ele>
        <time>2026-03-16T13:14:45Z</time>
      </trkpt>
      <trkpt lat="48.40188" lon="7.30276">
        <ele>720.3</ele>
        <time>2026-03-16T13:14:50Z</time>
      </trkpt>
      <trkpt lat="48.40188" lon="7.30276">
        <ele>720.3</ele>
        <time>2026-03-16T13:14:55Z</time>
      </trkpt>
      <trkpt lat="48.40188" lon="7.30276">
        <ele>720.3</ele>
        <time>2026-03-16T13:15:00Z</time>
      </trkpt>
      <trkpt lat="48.40188" lon="7.30276">
        <ele>720.3</ele>
        <time>2026-03-16T13:15:05Z</time>
      </trkpt>
      <trkpt lat="48.40188" lon="7.30276">
        <ele>720.3</ele>
        <time>2026-03-16T13:15:10Z</time>
      </trkpt>
      <trkpt lat="48.40188" lon="7.30276">
        <ele>720.3</ele>
        <time>2026-03-16T13:15:15Z</time>
      </trkpt>
      <trkpt lat="48.40188" lon="7.30276">
        <ele>720.3</ele>
        <time>2026-03-16T13:15:20Z</time>
      </trkpt>
      <trkpt lat="48.40188" lon="7.30276">
        <ele>720.3</ele>
        <time>2026-03-16T13:15:25Z</time>
      </trkpt>
      <trkpt lat="48.40188" lon="7.30276">
        <ele>720.3</ele>
        <time>2026-03-16T13:15:30Z</time>
      </trkpt>
      <trkpt lat="48.40188" lon="7.30276">
        <ele>720.3</ele>
        <time>2026-03-16T13:15:35Z</time>
      </trkpt>
      <trkpt lat="48.40188" lon="7.30276">
        <ele>720.3</ele>
        <time>2026-03-16T13:15:40Z</time>
      </trkpt>
      <trkpt lat="48.40188" lon="7.30276">
        <ele>720.3</ele>
        <time>2026-03-16T13:15:45Z</time>
      </trkpt>
      <trkpt lat="48.40188" lon="7.30276">
        <ele>720.3</ele>
        <time>2026-03-16T13:15:50Z</time>
      </trkpt>
      <trkpt lat="48.40188" lon="7.30276">
        <ele>720.3</ele>
        <time>2026-03-16T13:15:55Z</time>
      </trkpt>
      <trkpt lat="48.40199" lon="7.3028">
        <ele>721</ele>
        <time>2026-03-16T13:16:00Z</time>
      </trkpt>
      <trkpt lat="48.40199" lon="7.3028">
        <ele>721</ele>
        <time>2026-03-16T13:16:05Z</time>
      </trkpt>
      <trkpt lat="48.40199" lon="7.3028">
        <ele>721</ele>
        <time>2026-03-16T13:16:10Z</time>
      </trkpt>
      <trkpt lat="48.40199" lon="7.3028">
        <ele>721</ele>
        <time>2026-03-16T13:16:15Z</time>
      </trkpt>
      <trkpt lat="48.40199" lon="7.3028">
        <ele>721</ele>
        <time>2026-03-16T13:16:20Z</time>
      </trkpt>
      <trkpt lat="48.40199" lon="7.3028">
        <ele>721</ele>
        <time>2026-03-16T13:16:25Z</time>
      </trkpt>
      <trkpt lat="48.40199" lon="7.3028">
        <ele>721</ele>
        <time>2026-03-16T13:16:30Z</time>
      </trkpt>
      <trkpt lat="48.40199" lon="7.3028">
        <ele>721</ele>
        <time>2026-03-16T13:16:35Z</time>
      </trkpt>
      <trkpt lat="48.40199" lon="7.3028">
        <ele>721</ele>
        <time>2026-03-16T13:16:40Z</time>
      </trkpt>
      <trkpt lat="48.40199" lon="7.3028">
        <ele>721</ele>
        <time>2026-03-16T13:16:45Z</time>
      </trkpt>
      <trkpt lat="48.40199" lon="7.3028">
        <ele>721</ele>
        <time>2026-03-16T13:16:50Z</time>
      </trkpt>
      <trkpt lat="48.40199" lon="7.3028">
        <ele>721</ele>
        <time>2026-03-16T13:16:55Z</time>
      </trkpt>
      <trkpt lat="48.40199" lon="7.3028">
        <ele>721</ele>
        <time>2026-03-16T13:17:00Z</time>
      </trkpt>
      <trkpt lat="48.40199" lon="7.3028">
        <ele>721</ele>
        <time>2026-03-16T13:17:05Z</time>
      </trkpt>
      <trkpt lat="48.40199" lon="7.3028">
        <ele>721</ele>
        <time>2026-03-16T13:17:10Z</time>
      </trkpt>
      <trkpt lat="48.40199" lon="7.3028">
        <ele>721</ele>
        <time>2026-03-16T13:17:15Z</time>
      </trkpt>
      <trkpt lat="48.40199" lon="7.3028">
        <ele>721</ele>
        <time>2026-03-16T13:17:20Z</time>
      </trkpt>
      <trkpt lat="48.40199" lon="7.3028">
        <ele>721</ele>
        <time>2026-03-16T13:17:25Z</time>
      </trkpt>
      <trkpt lat="48.40199" lon="7.3028">
        <ele>721</ele>
        <time>2026-03-16T13:17:30Z</time>
      </trkpt>
      <trkpt lat="48.40199" lon="7.3028">
        <ele>721</ele>
        <time>2026-03-16T13:17:35Z</time>
      </trkpt>
      <trkpt lat="48.40199" lon="7.3028">
        <ele>721</ele>
        <time>2026-03-16T13:17:40Z</time>
      </trkpt>
      <trkpt lat="48.40199" lon="7.3028">
        <ele>721</ele>
        <time>2026-03-16T13:17:45Z</time>
      </trkpt>
      <trkpt lat="48.40199" lon="7.3028">
        <ele>721</ele>
        <time>2026-03-16T13:17:50Z</time>
      </trkpt>
      <trkpt lat="48.40199" lon="7.3028">
        <ele>721</ele>
        <time>2026-03-16T13:17:55Z</time>
      </trkpt>
      <trkpt lat="48.40199" lon="7.3028">
        <ele>721</ele>
        <time>2026-03-16T13:18:00Z</time>
      </trkpt>
      <trkpt lat="48.40199" lon="7.3028">
        <ele>721</ele>
        <time>2026-03-16T13:18:05Z</time>
      </trkpt>
      <trkpt lat="48.40199" lon="7.3028">
        <ele>721</ele>
        <time>2026-03-16T13:18:10Z</time>
      </trkpt>
      <trkpt lat="48.40199" lon="7.3028">
        <ele>721</ele>
        <time>2026-03-16T13:18:15Z</time>
      </trkpt>
      <trkpt lat="48.40199" lon="7.3028">
        <ele>721</ele>
        <time>2026-03-16T13:18:20Z</time>
      </trkpt>
      <trkpt lat="48.40199" lon="7.3028">
        <ele>721</ele>
        <time>2026-03-16T13:18:25Z</time>
      </trkpt>
      <trkpt lat="48.40199" lon="7.3028">
        <ele>721</ele>
        <time>2026-03-16T13:18:30Z</time>
      </trkpt>
      <trkpt lat="48.40199" lon="7.3028">
        <ele>721</ele>
        <time>2026-03-16T13:18:35Z</time>
      </trkpt>
      <trkpt lat="48.40199" lon="7.3028">
        <ele>721</ele>
        <time>2026-03-16T13:18:40Z</time>
      </trkpt>
      <trkpt lat="48.40199" lon="7.3028">
        <ele>721</ele>
        <time>2026-03-16T13:18:45Z</time>
      </trkpt>
      <trkpt lat="48.40199" lon="7.3028">
        <ele>721</ele>
        <time>2026-03-16T13:18:50Z</time>
      </trkpt>
      <trkpt lat="48.40203" lon="7.30296">
        <ele>719.4</ele>
        <time>2026-03-16T13:18:55Z</time>
      </trkpt>
      <trkpt lat="48.4021" lon="7.30302">
        <ele>719.3</ele>
        <time>2026-03-16T13:19:00Z</time>
      </trkpt>
      <trkpt lat="48.40215" lon="7.30306">
        <ele>719.3</ele>
        <time>2026-03-16T13:19:05Z</time>
      </trkpt>
      <trkpt lat="48.40216" lon="7.30307">
        <ele>719.3</ele>
        <time>2026-03-16T13:19:10Z</time>
      </trkpt>
      <trkpt lat="48.40216" lon="7.30307">
        <ele>719.3</ele>
        <time>2026-03-16T13:19:15Z</time>
      </trkpt>
      <trkpt lat="48.40227" lon="7.30318">
        <ele>718.9</ele>
        <time>2026-03-16T13:19:20Z</time>
      </trkpt>
      <trkpt lat="48.40227" lon="7.30318">
        <ele>718.9</ele>
        <time>2026-03-16T13:19:25Z</time>
      </trkpt>
      <trkpt lat="48.4024" lon="7.30327">
        <ele>718.9</ele>
        <time>2026-03-16T13:19:30Z</time>
      </trkpt>
      <trkpt lat="48.40249" lon="7.3033">
        <ele>719.4</ele>
        <time>2026-03-16T13:19:35Z</time>
      </trkpt>
      <trkpt lat="48.40253" lon="7.30331">
        <ele>719.7</ele>
        <time>2026-03-16T13:19:40Z</time>
      </trkpt>
      <trkpt lat="48.40253" lon="7.30331">
        <ele>719.7</ele>
        <time>2026-03-16T13:19:45Z</time>
      </trkpt>
      <trkpt lat="48.40266" lon="7.30328">
        <ele>721.5</ele>
        <time>2026-03-16T13:19:50Z</time>
      </trkpt>
      <trkpt lat="48.40269" lon="7.30327">
        <ele>722</ele>
        <time>2026-03-16T13:19:55Z</time>
      </trkpt>
      <trkpt lat="48.4028" lon="7.30323">
        <ele>723.8</ele>
        <time>2026-03-16T13:20:00Z</time>
      </trkpt>
      <trkpt lat="48.40283" lon="7.30323">
        <ele>724.1</ele>
        <time>2026-03-16T13:20:05Z</time>
      </trkpt>
      <trkpt lat="48.40295" lon="7.30322">
        <ele>725.6</ele>
        <time>2026-03-16T13:20:10Z</time>
      </trkpt>
      <trkpt lat="48.40295" lon="7.30322">
        <ele>725.6</ele>
        <time>2026-03-16T13:20:15Z</time>
      </trkpt>
      <trkpt lat="48.40295" lon="7.30322">
        <ele>725.6</ele>
        <time>2026-03-16T13:20:20Z</time>
      </trkpt>
      <trkpt lat="48.40303" lon="7.30331">
        <ele>725.1</ele>
        <time>2026-03-16T13:20:25Z</time>
      </trkpt>
      <trkpt lat="48.40304" lon="7.30336">
        <ele>724.4</ele>
        <time>2026-03-16T13:20:30Z</time>
      </trkpt>
      <trkpt lat="48.40305" lon="7.30352">
        <ele>721.8</ele>
        <time>2026-03-16T13:20:35Z</time>
      </trkpt>
      <trkpt lat="48.40307" lon="7.30356">
        <ele>721.3</ele>
        <time>2026-03-16T13:20:40Z</time>
      </trkpt>
      <trkpt lat="48.4031" lon="7.30371">
        <ele>719.2</ele>
        <time>2026-03-16T13:20:45Z</time>
      </trkpt>
      <trkpt lat="48.4031" lon="7.30373">
        <ele>718.8</ele>
        <time>2026-03-16T13:20:50Z</time>
      </trkpt>
      <trkpt lat="48.4031" lon="7.30373">
        <ele>718.8</ele>
        <time>2026-03-16T13:20:55Z</time>
      </trkpt>
      <trkpt lat="48.40317" lon="7.30391">
        <ele>716.5</ele>
        <time>2026-03-16T13:21:00Z</time>
      </trkpt>
      <trkpt lat="48.40317" lon="7.30391">
        <ele>716.5</ele>
        <time>2026-03-16T13:21:05Z</time>
      </trkpt>
      <trkpt lat="48.40321" lon="7.30409">
        <ele>714</ele>
        <time>2026-03-16T13:21:10Z</time>
      </trkpt>
      <trkpt lat="48.40321" lon="7.30409">
        <ele>714</ele>
        <time>2026-03-16T13:21:15Z</time>
      </trkpt>
      <trkpt lat="48.40329" lon="7.30421">
        <ele>713.1</ele>
        <time>2026-03-16T13:21:20Z</time>
      </trkpt>
      <trkpt lat="48.4033" lon="7.30422">
        <ele>713.1</ele>
        <time>2026-03-16T13:21:25Z</time>
      </trkpt>
      <trkpt lat="48.4034" lon="7.30429">
        <ele>714.2</ele>
        <time>2026-03-16T13:21:30Z</time>
      </trkpt>
      <trkpt lat="48.40344" lon="7.30433">
        <ele>714.6</ele>
        <time>2026-03-16T13:21:35Z</time>
      </trkpt>
      <trkpt lat="48.40354" lon="7.30442">
        <ele>715.6</ele>
        <time>2026-03-16T13:21:40Z</time>
      </trkpt>
      <trkpt lat="48.40358" lon="7.30447">
        <ele>715.9</ele>
        <time>2026-03-16T13:21:45Z</time>
      </trkpt>
      <trkpt lat="48.40364" lon="7.30459">
        <ele>715.8</ele>
        <time>2026-03-16T13:21:50Z</time>
      </trkpt>
      <trkpt lat="48.40365" lon="7.30466">
        <ele>715.3</ele>
        <time>2026-03-16T13:21:55Z</time>
      </trkpt>
      <trkpt lat="48.40367" lon="7.30488">
        <ele>713.3</ele>
        <time>2026-03-16T13:22:00Z</time>
      </trkpt>
      <trkpt lat="48.40367" lon="7.30498">
        <ele>712.3</ele>
        <time>2026-03-16T13:22:05Z</time>
      </trkpt>
      <trkpt lat="48.40367" lon="7.30498">
        <ele>712.3</ele>
        <time>2026-03-16T13:22:10Z</time>
      </trkpt>
      <trkpt lat="48.40363" lon="7.30523">
        <ele>709.7</ele>
        <time>2026-03-16T13:22:15Z</time>
      </trkpt>
      <trkpt lat="48.40363" lon="7.30525">
        <ele>709.5</ele>
        <time>2026-03-16T13:22:20Z</time>
      </trkpt>
      <trkpt lat="48.40366" lon="7.30546">
        <ele>708.5</ele>
        <time>2026-03-16T13:22:25Z</time>
      </trkpt>
      <trkpt lat="48.40366" lon="7.30546">
        <ele>708.5</ele>
        <time>2026-03-16T13:22:30Z</time>
      </trkpt>
      <trkpt lat="48.40371" lon="7.30566">
        <ele>707.7</ele>
        <time>2026-03-16T13:22:35Z</time>
      </trkpt>
      <trkpt lat="48.40371" lon="7.30566">
        <ele>707.7</ele>
        <time>2026-03-16T13:22:40Z</time>
      </trkpt>
      <trkpt lat="48.40375" lon="7.30582">
        <ele>707.1</ele>
        <time>2026-03-16T13:22:45Z</time>
      </trkpt>
      <trkpt lat="48.40375" lon="7.30584">
        <ele>707</ele>
        <time>2026-03-16T13:22:50Z</time>
      </trkpt>
      <trkpt lat="48.40379" lon="7.30603">
        <ele>706.6</ele>
        <time>2026-03-16T13:22:55Z</time>
      </trkpt>
      <trkpt lat="48.40382" lon="7.30621">
        <ele>706.1</ele>
        <time>2026-03-16T13:23:00Z</time>
      </trkpt>
      <trkpt lat="48.40384" lon="7.30629">
        <ele>706</ele>
        <time>2026-03-16T13:23:05Z</time>
      </trkpt>
      <trkpt lat="48.40387" lon="7.30645">
        <ele>705.6</ele>
        <time>2026-03-16T13:23:10Z</time>
      </trkpt>
      <trkpt lat="48.40389" lon="7.3065">
        <ele>705.5</ele>
        <time>2026-03-16T13:23:15Z</time>
      </trkpt>
      <trkpt lat="48.40391" lon="7.30664">
        <ele>705.1</ele>
        <time>2026-03-16T13:23:20Z</time>
      </trkpt>
      <trkpt lat="48.40392" lon="7.30668">
        <ele>705</ele>
        <time>2026-03-16T13:23:25Z</time>
      </trkpt>
      <trkpt lat="48.40399" lon="7.30679">
        <ele>705.4</ele>
        <time>2026-03-16T13:23:30Z</time>
      </trkpt>
      <trkpt lat="48.40404" lon="7.30691">
        <ele>705.5</ele>
        <time>2026-03-16T13:23:35Z</time>
      </trkpt>
      <trkpt lat="48.40407" lon="7.30697">
        <ele>705.7</ele>
        <time>2026-03-16T13:23:40Z</time>
      </trkpt>
      <trkpt lat="48.40407" lon="7.30697">
        <ele>705.7</ele>
        <time>2026-03-16T13:23:45Z</time>
      </trkpt>
      <trkpt lat="48.40415" lon="7.30713">
        <ele>706.1</ele>
        <time>2026-03-16T13:23:50Z</time>
      </trkpt>
      <trkpt lat="48.40415" lon="7.30713">
        <ele>706.1</ele>
        <time>2026-03-16T13:23:55Z</time>
      </trkpt>
      <trkpt lat="48.4042" lon="7.30733">
        <ele>706</ele>
        <time>2026-03-16T13:24:00Z</time>
      </trkpt>
      <trkpt lat="48.40425" lon="7.3075">
        <ele>705.8</ele>
        <time>2026-03-16T13:24:05Z</time>
      </trkpt>
      <trkpt lat="48.40427" lon="7.30755">
        <ele>705.7</ele>
        <time>2026-03-16T13:24:10Z</time>
      </trkpt>
      <trkpt lat="48.40433" lon="7.30771">
        <ele>705.4</ele>
        <time>2026-03-16T13:24:15Z</time>
      </trkpt>
      <trkpt lat="48.40434" lon="7.30775">
        <ele>705.3</ele>
        <time>2026-03-16T13:24:20Z</time>
      </trkpt>
      <trkpt lat="48.40441" lon="7.30789">
        <ele>705.1</ele>
        <time>2026-03-16T13:24:25Z</time>
      </trkpt>
      <trkpt lat="48.40441" lon="7.3079">
        <ele>705</ele>
        <time>2026-03-16T13:24:30Z</time>
      </trkpt>
      <trkpt lat="48.40441" lon="7.3079">
        <ele>705</ele>
        <time>2026-03-16T13:24:35Z</time>
      </trkpt>
      <trkpt lat="48.40454" lon="7.30795">
        <ele>705.7</ele>
        <time>2026-03-16T13:24:40Z</time>
      </trkpt>
      <trkpt lat="48.40464" lon="7.30794">
        <ele>706.5</ele>
        <time>2026-03-16T13:24:45Z</time>
      </trkpt>
      <trkpt lat="48.4047" lon="7.30794">
        <ele>707</ele>
        <time>2026-03-16T13:24:50Z</time>
      </trkpt>
      <trkpt lat="48.40482" lon="7.30795">
        <ele>707.8</ele>
        <time>2026-03-16T13:24:55Z</time>
      </trkpt>
      <trkpt lat="48.40491" lon="7.30791">
        <ele>708.9</ele>
        <time>2026-03-16T13:25:00Z</time>
      </trkpt>
      <trkpt lat="48.40502" lon="7.3079">
        <ele>709.7</ele>
        <time>2026-03-16T13:25:05Z</time>
      </trkpt>
      <trkpt lat="48.40505" lon="7.30789">
        <ele>709.9</ele>
        <time>2026-03-16T13:25:10Z</time>
      </trkpt>
      <trkpt lat="48.40505" lon="7.30789">
        <ele>709.9</ele>
        <time>2026-03-16T13:25:15Z</time>
      </trkpt>
      <trkpt lat="48.40518" lon="7.30789">
        <ele>710.2</ele>
        <time>2026-03-16T13:25:20Z</time>
      </trkpt>
      <trkpt lat="48.40518" lon="7.30789">
        <ele>710.2</ele>
        <time>2026-03-16T13:25:25Z</time>
      </trkpt>
      <trkpt lat="48.40533" lon="7.3078">
        <ele>711.8</ele>
        <time>2026-03-16T13:25:30Z</time>
      </trkpt>
      <trkpt lat="48.40544" lon="7.30777">
        <ele>712.7</ele>
        <time>2026-03-16T13:25:35Z</time>
      </trkpt>
      <trkpt lat="48.40549" lon="7.30781">
        <ele>712.3</ele>
        <time>2026-03-16T13:25:40Z</time>
      </trkpt>
      <trkpt lat="48.40549" lon="7.30781">
        <ele>712.3</ele>
        <time>2026-03-16T13:25:45Z</time>
      </trkpt>
      <trkpt lat="48.40564" lon="7.30779">
        <ele>713.3</ele>
        <time>2026-03-16T13:25:50Z</time>
      </trkpt>
      <trkpt lat="48.40564" lon="7.30779">
        <ele>713.3</ele>
        <time>2026-03-16T13:25:55Z</time>
      </trkpt>
      <trkpt lat="48.40577" lon="7.30778">
        <ele>714</ele>
        <time>2026-03-16T13:26:00Z</time>
      </trkpt>
      <trkpt lat="48.40577" lon="7.30778">
        <ele>714</ele>
        <time>2026-03-16T13:26:05Z</time>
      </trkpt>
      <trkpt lat="48.40592" lon="7.30781">
        <ele>713.6</ele>
        <time>2026-03-16T13:26:10Z</time>
      </trkpt>
      <trkpt lat="48.406" lon="7.30783">
        <ele>713</ele>
        <time>2026-03-16T13:26:15Z</time>
      </trkpt>
      <trkpt lat="48.40603" lon="7.30783">
        <ele>712.9</ele>
        <time>2026-03-16T13:26:20Z</time>
      </trkpt>
      <trkpt lat="48.40603" lon="7.30783">
        <ele>712.9</ele>
        <time>2026-03-16T13:26:25Z</time>
      </trkpt>
      <trkpt lat="48.40615" lon="7.30789">
        <ele>711.2</ele>
        <time>2026-03-16T13:26:30Z</time>
      </trkpt>
      <trkpt lat="48.40625" lon="7.30789">
        <ele>711</ele>
        <time>2026-03-16T13:26:35Z</time>
      </trkpt>
      <trkpt lat="48.40627" lon="7.3079">
        <ele>710.6</ele>
        <time>2026-03-16T13:26:40Z</time>
      </trkpt>
      <trkpt lat="48.4064" lon="7.30797">
        <ele>708.2</ele>
        <time>2026-03-16T13:26:45Z</time>
      </trkpt>
      <trkpt lat="48.40641" lon="7.30799">
        <ele>707.6</ele>
        <time>2026-03-16T13:26:50Z</time>
      </trkpt>
      <trkpt lat="48.40652" lon="7.30799">
        <ele>707.1</ele>
        <time>2026-03-16T13:26:55Z</time>
      </trkpt>
      <trkpt lat="48.40655" lon="7.30799">
        <ele>707</ele>
        <time>2026-03-16T13:27:00Z</time>
      </trkpt>
      <trkpt lat="48.40664" lon="7.30803">
        <ele>705.3</ele>
        <time>2026-03-16T13:27:05Z</time>
      </trkpt>
      <trkpt lat="48.40667" lon="7.30807">
        <ele>703.9</ele>
        <time>2026-03-16T13:27:10Z</time>
      </trkpt>
      <trkpt lat="48.40667" lon="7.30807">
        <ele>703.9</ele>
        <time>2026-03-16T13:27:15Z</time>
      </trkpt>
      <trkpt lat="48.40682" lon="7.30809">
        <ele>704.2</ele>
        <time>2026-03-16T13:27:20Z</time>
      </trkpt>
      <trkpt lat="48.40684" lon="7.3081">
        <ele>704</ele>
        <time>2026-03-16T13:27:25Z</time>
      </trkpt>
      <trkpt lat="48.40696" lon="7.30809">
        <ele>705.1</ele>
        <time>2026-03-16T13:27:30Z</time>
      </trkpt>
      <trkpt lat="48.40696" lon="7.30809">
        <ele>705.1</ele>
        <time>2026-03-16T13:27:35Z</time>
      </trkpt>
      <trkpt lat="48.40705" lon="7.30813">
        <ele>704.4</ele>
        <time>2026-03-16T13:27:40Z</time>
      </trkpt>
      <trkpt lat="48.40707" lon="7.30816">
        <ele>703.5</ele>
        <time>2026-03-16T13:27:45Z</time>
      </trkpt>
      <trkpt lat="48.40707" lon="7.30816">
        <ele>703.5</ele>
        <time>2026-03-16T13:27:50Z</time>
      </trkpt>
      <trkpt lat="48.40718" lon="7.30826">
        <ele>701.1</ele>
        <time>2026-03-16T13:27:55Z</time>
      </trkpt>
      <trkpt lat="48.40718" lon="7.30826">
        <ele>701.1</ele>
        <time>2026-03-16T13:28:00Z</time>
      </trkpt>
      <trkpt lat="48.40718" lon="7.30826">
        <ele>701.1</ele>
        <time>2026-03-16T13:28:05Z</time>
      </trkpt>
      <trkpt lat="48.40718" lon="7.30826">
        <ele>701.1</ele>
        <time>2026-03-16T13:28:10Z</time>
      </trkpt>
      <trkpt lat="48.40718" lon="7.30826">
        <ele>701.1</ele>
        <time>2026-03-16T13:28:15Z</time>
      </trkpt>
      <trkpt lat="48.40718" lon="7.30826">
        <ele>701.1</ele>
        <time>2026-03-16T13:28:20Z</time>
      </trkpt>
      <trkpt lat="48.40718" lon="7.30826">
        <ele>701.1</ele>
        <time>2026-03-16T13:28:25Z</time>
      </trkpt>
      <trkpt lat="48.40718" lon="7.30826">
        <ele>701.1</ele>
        <time>2026-03-16T13:28:30Z</time>
      </trkpt>
      <trkpt lat="48.40718" lon="7.30826">
        <ele>701.1</ele>
        <time>2026-03-16T13:28:35Z</time>
      </trkpt>
      <trkpt lat="48.40718" lon="7.30826">
        <ele>701.1</ele>
        <time>2026-03-16T13:28:40Z</time>
      </trkpt>
      <trkpt lat="48.40706" lon="7.30833">
        <ele>697.9</ele>
        <time>2026-03-16T13:28:45Z</time>
      </trkpt>
      <trkpt lat="48.40706" lon="7.30833">
        <ele>697.9</ele>
        <time>2026-03-16T13:28:50Z</time>
      </trkpt>
      <trkpt lat="48.40706" lon="7.30833">
        <ele>697.9</ele>
        <time>2026-03-16T13:28:55Z</time>
      </trkpt>
      <trkpt lat="48.40696" lon="7.30832">
        <ele>697.5</ele>
        <time>2026-03-16T13:29:00Z</time>
      </trkpt>
      <trkpt lat="48.40696" lon="7.30832">
        <ele>697.5</ele>
        <time>2026-03-16T13:29:05Z</time>
      </trkpt>
      <trkpt lat="48.40687" lon="7.30834">
        <ele>696.5</ele>
        <time>2026-03-16T13:29:10Z</time>
      </trkpt>
      <trkpt lat="48.40685" lon="7.30834">
        <ele>696.3</ele>
        <time>2026-03-16T13:29:15Z</time>
      </trkpt>
      <trkpt lat="48.40676" lon="7.30843">
        <ele>695.4</ele>
        <time>2026-03-16T13:29:20Z</time>
      </trkpt>
      <trkpt lat="48.40674" lon="7.30845">
        <ele>695.2</ele>
        <time>2026-03-16T13:29:25Z</time>
      </trkpt>
      <trkpt lat="48.40674" lon="7.30845">
        <ele>695.2</ele>
        <time>2026-03-16T13:29:30Z</time>
      </trkpt>
      <trkpt lat="48.40663" lon="7.30845">
        <ele>694.8</ele>
        <time>2026-03-16T13:29:35Z</time>
      </trkpt>
      <trkpt lat="48.40662" lon="7.30845">
        <ele>694.9</ele>
        <time>2026-03-16T13:29:40Z</time>
      </trkpt>
      <trkpt lat="48.40662" lon="7.30845">
        <ele>694.9</ele>
        <time>2026-03-16T13:29:45Z</time>
      </trkpt>
      <trkpt lat="48.40649" lon="7.30849">
        <ele>695.6</ele>
        <time>2026-03-16T13:29:50Z</time>
      </trkpt>
      <trkpt lat="48.40648" lon="7.3085">
        <ele>695.6</ele>
        <time>2026-03-16T13:29:55Z</time>
      </trkpt>
      <trkpt lat="48.40637" lon="7.30859">
        <ele>695.4</ele>
        <time>2026-03-16T13:30:00Z</time>
      </trkpt>
      <trkpt lat="48.40636" lon="7.30861">
        <ele>695.2</ele>
        <time>2026-03-16T13:30:05Z</time>
      </trkpt>
      <trkpt lat="48.40624" lon="7.30863">
        <ele>695.5</ele>
        <time>2026-03-16T13:30:10Z</time>
      </trkpt>
      <trkpt lat="48.40623" lon="7.30863">
        <ele>695.5</ele>
        <time>2026-03-16T13:30:15Z</time>
      </trkpt>
      <trkpt lat="48.40614" lon="7.30867">
        <ele>695.3</ele>
        <time>2026-03-16T13:30:20Z</time>
      </trkpt>
      <trkpt lat="48.4061" lon="7.30867">
        <ele>695.4</ele>
        <time>2026-03-16T13:30:25Z</time>
      </trkpt>
      <trkpt lat="48.40602" lon="7.30875">
        <ele>694.3</ele>
        <time>2026-03-16T13:30:30Z</time>
      </trkpt>
      <trkpt lat="48.40599" lon="7.30878">
        <ele>693.8</ele>
        <time>2026-03-16T13:30:35Z</time>
      </trkpt>
      <trkpt lat="48.40599" lon="7.30878">
        <ele>693.8</ele>
        <time>2026-03-16T13:30:40Z</time>
      </trkpt>
      <trkpt lat="48.40592" lon="7.30896">
        <ele>690.5</ele>
        <time>2026-03-16T13:30:45Z</time>
      </trkpt>
      <trkpt lat="48.40592" lon="7.30896">
        <ele>690.5</ele>
        <time>2026-03-16T13:30:50Z</time>
      </trkpt>
      <trkpt lat="48.40586" lon="7.30913">
        <ele>686.9</ele>
        <time>2026-03-16T13:30:55Z</time>
      </trkpt>
      <trkpt lat="48.40586" lon="7.30913">
        <ele>686.9</ele>
        <time>2026-03-16T13:31:00Z</time>
      </trkpt>
      <trkpt lat="48.40579" lon="7.30927">
        <ele>685.8</ele>
        <time>2026-03-16T13:31:05Z</time>
      </trkpt>
      <trkpt lat="48.40579" lon="7.30928">
        <ele>685.8</ele>
        <time>2026-03-16T13:31:10Z</time>
      </trkpt>
      <trkpt lat="48.40572" lon="7.30943">
        <ele>685.2</ele>
        <time>2026-03-16T13:31:15Z</time>
      </trkpt>
      <trkpt lat="48.40569" lon="7.30948">
        <ele>684.9</ele>
        <time>2026-03-16T13:31:20Z</time>
      </trkpt>
      <trkpt lat="48.40561" lon="7.30963">
        <ele>683.6</ele>
        <time>2026-03-16T13:31:25Z</time>
      </trkpt>
      <trkpt lat="48.4056" lon="7.30965">
        <ele>683.4</ele>
        <time>2026-03-16T13:31:30Z</time>
      </trkpt>
      <trkpt lat="48.40548" lon="7.30975">
        <ele>681.7</ele>
        <time>2026-03-16T13:31:35Z</time>
      </trkpt>
      <trkpt lat="48.40548" lon="7.30975">
        <ele>681.7</ele>
        <time>2026-03-16T13:31:40Z</time>
      </trkpt>
      <trkpt lat="48.40536" lon="7.30979">
        <ele>680.3</ele>
        <time>2026-03-16T13:31:45Z</time>
      </trkpt>
      <trkpt lat="48.40535" lon="7.3098">
        <ele>680</ele>
        <time>2026-03-16T13:31:50Z</time>
      </trkpt>
      <trkpt lat="48.40525" lon="7.30985">
        <ele>678.4</ele>
        <time>2026-03-16T13:31:55Z</time>
      </trkpt>
      <trkpt lat="48.40522" lon="7.30988">
        <ele>677.7</ele>
        <time>2026-03-16T13:32:00Z</time>
      </trkpt>
      <trkpt lat="48.40522" lon="7.30988">
        <ele>677.7</ele>
        <time>2026-03-16T13:32:05Z</time>
      </trkpt>
      <trkpt lat="48.40512" lon="7.31003">
        <ele>674.6</ele>
        <time>2026-03-16T13:32:10Z</time>
      </trkpt>
      <trkpt lat="48.40507" lon="7.31018">
        <ele>674</ele>
        <time>2026-03-16T13:32:15Z</time>
      </trkpt>
      <trkpt lat="48.40505" lon="7.31026">
        <ele>673.7</ele>
        <time>2026-03-16T13:32:20Z</time>
      </trkpt>
      <trkpt lat="48.405" lon="7.31041">
        <ele>673</ele>
        <time>2026-03-16T13:32:25Z</time>
      </trkpt>
      <trkpt lat="48.40497" lon="7.31043">
        <ele>672.5</ele>
        <time>2026-03-16T13:32:30Z</time>
      </trkpt>
      <trkpt lat="48.40487" lon="7.31053">
        <ele>670.8</ele>
        <time>2026-03-16T13:32:35Z</time>
      </trkpt>
      <trkpt lat="48.40486" lon="7.31055">
        <ele>670.6</ele>
        <time>2026-03-16T13:32:40Z</time>
      </trkpt>
      <trkpt lat="48.40476" lon="7.3106">
        <ele>668.7</ele>
        <time>2026-03-16T13:32:45Z</time>
      </trkpt>
      <trkpt lat="48.40471" lon="7.31062">
        <ele>667.7</ele>
        <time>2026-03-16T13:32:50Z</time>
      </trkpt>
      <trkpt lat="48.40461" lon="7.3107">
        <ele>665.4</ele>
        <time>2026-03-16T13:32:55Z</time>
      </trkpt>
      <trkpt lat="48.40458" lon="7.31072">
        <ele>664.7</ele>
        <time>2026-03-16T13:33:00Z</time>
      </trkpt>
      <trkpt lat="48.4045" lon="7.31083">
        <ele>662.2</ele>
        <time>2026-03-16T13:33:05Z</time>
      </trkpt>
      <trkpt lat="48.40448" lon="7.31086">
        <ele>661.8</ele>
        <time>2026-03-16T13:33:10Z</time>
      </trkpt>
      <trkpt lat="48.40439" lon="7.31103">
        <ele>660.1</ele>
        <time>2026-03-16T13:33:15Z</time>
      </trkpt>
      <trkpt lat="48.40439" lon="7.31104">
        <ele>660.1</ele>
        <time>2026-03-16T13:33:20Z</time>
      </trkpt>
      <trkpt lat="48.40434" lon="7.31122">
        <ele>659.1</ele>
        <time>2026-03-16T13:33:25Z</time>
      </trkpt>
      <trkpt lat="48.40434" lon="7.31124">
        <ele>659.1</ele>
        <time>2026-03-16T13:33:30Z</time>
      </trkpt>
      <trkpt lat="48.40434" lon="7.31124">
        <ele>659.1</ele>
        <time>2026-03-16T13:33:35Z</time>
      </trkpt>
      <trkpt lat="48.40425" lon="7.31135">
        <ele>656.7</ele>
        <time>2026-03-16T13:33:40Z</time>
      </trkpt>
      <trkpt lat="48.40425" lon="7.31135">
        <ele>656.7</ele>
        <time>2026-03-16T13:33:45Z</time>
      </trkpt>
      <trkpt lat="48.40415" lon="7.31143">
        <ele>653.8</ele>
        <time>2026-03-16T13:33:50Z</time>
      </trkpt>
      <trkpt lat="48.40415" lon="7.31143">
        <ele>653.8</ele>
        <time>2026-03-16T13:33:55Z</time>
      </trkpt>
      <trkpt lat="48.40405" lon="7.31152">
        <ele>650.8</ele>
        <time>2026-03-16T13:34:00Z</time>
      </trkpt>
      <trkpt lat="48.40404" lon="7.31153">
        <ele>650.5</ele>
        <time>2026-03-16T13:34:05Z</time>
      </trkpt>
      <trkpt lat="48.40397" lon="7.31161">
        <ele>648.1</ele>
        <time>2026-03-16T13:34:10Z</time>
      </trkpt>
      <trkpt lat="48.40393" lon="7.31164">
        <ele>646.8</ele>
        <time>2026-03-16T13:34:15Z</time>
      </trkpt>
      <trkpt lat="48.40393" lon="7.31164">
        <ele>646.8</ele>
        <time>2026-03-16T13:34:20Z</time>
      </trkpt>
      <trkpt lat="48.40382" lon="7.3117">
        <ele>643</ele>
        <time>2026-03-16T13:34:25Z</time>
      </trkpt>
      <trkpt lat="48.40382" lon="7.3117">
        <ele>643</ele>
        <time>2026-03-16T13:34:30Z</time>
      </trkpt>
      <trkpt lat="48.40374" lon="7.31178">
        <ele>639.9</ele>
        <time>2026-03-16T13:34:35Z</time>
      </trkpt>
      <trkpt lat="48.40372" lon="7.31184">
        <ele>638.8</ele>
        <time>2026-03-16T13:34:40Z</time>
      </trkpt>
      <trkpt lat="48.40372" lon="7.31184">
        <ele>638.8</ele>
        <time>2026-03-16T13:34:45Z</time>
      </trkpt>
      <trkpt lat="48.4037" lon="7.31202">
        <ele>636.8</ele>
        <time>2026-03-16T13:34:50Z</time>
      </trkpt>
      <trkpt lat="48.4037" lon="7.31202">
        <ele>636.8</ele>
        <time>2026-03-16T13:34:55Z</time>
      </trkpt>
      <trkpt lat="48.40373" lon="7.31218">
        <ele>636.7</ele>
        <time>2026-03-16T13:35:00Z</time>
      </trkpt>
      <trkpt lat="48.40374" lon="7.31221">
        <ele>636.8</ele>
        <time>2026-03-16T13:35:05Z</time>
      </trkpt>
      <trkpt lat="48.40381" lon="7.31235">
        <ele>638.1</ele>
        <time>2026-03-16T13:35:10Z</time>
      </trkpt>
      <trkpt lat="48.40382" lon="7.31237">
        <ele>638.3</ele>
        <time>2026-03-16T13:35:15Z</time>
      </trkpt>
      <trkpt lat="48.40385" lon="7.31258">
        <ele>637.6</ele>
        <time>2026-03-16T13:35:20Z</time>
      </trkpt>
      <trkpt lat="48.40385" lon="7.31258">
        <ele>637.6</ele>
        <time>2026-03-16T13:35:25Z</time>
      </trkpt>
      <trkpt lat="48.40386" lon="7.31277">
        <ele>636</ele>
        <time>2026-03-16T13:35:30Z</time>
      </trkpt>
      <trkpt lat="48.40386" lon="7.31277">
        <ele>636</ele>
        <time>2026-03-16T13:35:35Z</time>
      </trkpt>
      <trkpt lat="48.40386" lon="7.31277">
        <ele>636</ele>
        <time>2026-03-16T13:35:40Z</time>
      </trkpt>
      <trkpt lat="48.40392" lon="7.31294">
        <ele>636</ele>
        <time>2026-03-16T13:35:45Z</time>
      </trkpt>
      <trkpt lat="48.40392" lon="7.31294">
        <ele>636</ele>
        <time>2026-03-16T13:35:50Z</time>
      </trkpt>
      <trkpt lat="48.40402" lon="7.31304">
        <ele>637.7</ele>
        <time>2026-03-16T13:35:55Z</time>
      </trkpt>
      <trkpt lat="48.40402" lon="7.31305">
        <ele>637.6</ele>
        <time>2026-03-16T13:36:00Z</time>
      </trkpt>
      <trkpt lat="48.40402" lon="7.31305">
        <ele>637.6</ele>
        <time>2026-03-16T13:36:05Z</time>
      </trkpt>
      <trkpt lat="48.40411" lon="7.31318">
        <ele>638.5</ele>
        <time>2026-03-16T13:36:10Z</time>
      </trkpt>
      <trkpt lat="48.40411" lon="7.31318">
        <ele>638.5</ele>
        <time>2026-03-16T13:36:15Z</time>
      </trkpt>
      <trkpt lat="48.4042" lon="7.31325">
        <ele>640.3</ele>
        <time>2026-03-16T13:36:20Z</time>
      </trkpt>
      <trkpt lat="48.40423" lon="7.31329">
        <ele>640.9</ele>
        <time>2026-03-16T13:36:25Z</time>
      </trkpt>
      <trkpt lat="48.40431" lon="7.31338">
        <ele>643</ele>
        <time>2026-03-16T13:36:30Z</time>
      </trkpt>
      <trkpt lat="48.40433" lon="7.31345">
        <ele>643.2</ele>
        <time>2026-03-16T13:36:35Z</time>
      </trkpt>
      <trkpt lat="48.40433" lon="7.31345">
        <ele>643.2</ele>
        <time>2026-03-16T13:36:40Z</time>
      </trkpt>
      <trkpt lat="48.4044" lon="7.31362">
        <ele>644.5</ele>
        <time>2026-03-16T13:36:45Z</time>
      </trkpt>
      <trkpt lat="48.4044" lon="7.31362">
        <ele>644.5</ele>
        <time>2026-03-16T13:36:50Z</time>
      </trkpt>
      <trkpt lat="48.40441" lon="7.31382">
        <ele>643.3</ele>
        <time>2026-03-16T13:36:55Z</time>
      </trkpt>
      <trkpt lat="48.40441" lon="7.31382">
        <ele>643.3</ele>
        <time>2026-03-16T13:37:00Z</time>
      </trkpt>
      <trkpt lat="48.40441" lon="7.314">
        <ele>641.9</ele>
        <time>2026-03-16T13:37:05Z</time>
      </trkpt>
      <trkpt lat="48.40441" lon="7.31401">
        <ele>641.8</ele>
        <time>2026-03-16T13:37:10Z</time>
      </trkpt>
      <trkpt lat="48.40445" lon="7.31417">
        <ele>641.8</ele>
        <time>2026-03-16T13:37:15Z</time>
      </trkpt>
      <trkpt lat="48.40445" lon="7.31418">
        <ele>641.7</ele>
        <time>2026-03-16T13:37:20Z</time>
      </trkpt>
      <trkpt lat="48.40451" lon="7.31431">
        <ele>641.9</ele>
        <time>2026-03-16T13:37:25Z</time>
      </trkpt>
      <trkpt lat="48.40455" lon="7.31439">
        <ele>642.1</ele>
        <time>2026-03-16T13:37:30Z</time>
      </trkpt>
      <trkpt lat="48.40463" lon="7.31456">
        <ele>642.5</ele>
        <time>2026-03-16T13:37:35Z</time>
      </trkpt>
      <trkpt lat="48.40463" lon="7.31456">
        <ele>642.5</ele>
        <time>2026-03-16T13:37:40Z</time>
      </trkpt>
      <trkpt lat="48.40474" lon="7.31473">
        <ele>643.9</ele>
        <time>2026-03-16T13:37:45Z</time>
      </trkpt>
      <trkpt lat="48.40474" lon="7.31473">
        <ele>643.9</ele>
        <time>2026-03-16T13:37:50Z</time>
      </trkpt>
      <trkpt lat="48.40482" lon="7.3149">
        <ele>644.4</ele>
        <time>2026-03-16T13:37:55Z</time>
      </trkpt>
      <trkpt lat="48.40482" lon="7.3149">
        <ele>644.4</ele>
        <time>2026-03-16T13:38:00Z</time>
      </trkpt>
      <trkpt lat="48.40488" lon="7.31508">
        <ele>644.4</ele>
        <time>2026-03-16T13:38:05Z</time>
      </trkpt>
      <trkpt lat="48.40488" lon="7.31508">
        <ele>644.4</ele>
        <time>2026-03-16T13:38:10Z</time>
      </trkpt>
      <trkpt lat="48.4049" lon="7.31525">
        <ele>643.5</ele>
        <time>2026-03-16T13:38:15Z</time>
      </trkpt>
      <trkpt lat="48.40493" lon="7.31535">
        <ele>643.5</ele>
        <time>2026-03-16T13:38:20Z</time>
      </trkpt>
      <trkpt lat="48.405" lon="7.31549">
        <ele>644.3</ele>
        <time>2026-03-16T13:38:25Z</time>
      </trkpt>
      <trkpt lat="48.40502" lon="7.31554">
        <ele>644.3</ele>
        <time>2026-03-16T13:38:30Z</time>
      </trkpt>
      <trkpt lat="48.40507" lon="7.31564">
        <ele>644.7</ele>
        <time>2026-03-16T13:38:35Z</time>
      </trkpt>
      <trkpt lat="48.40511" lon="7.31574">
        <ele>644.7</ele>
        <time>2026-03-16T13:38:40Z</time>
      </trkpt>
      <trkpt lat="48.40515" lon="7.31584">
        <ele>644.7</ele>
        <time>2026-03-16T13:38:45Z</time>
      </trkpt>
      <trkpt lat="48.40517" lon="7.31591">
        <ele>644.8</ele>
        <time>2026-03-16T13:38:50Z</time>
      </trkpt>
      <trkpt lat="48.40518" lon="7.31591">
        <ele>645.1</ele>
        <time>2026-03-16T13:38:55Z</time>
      </trkpt>
      <trkpt lat="48.40518" lon="7.31591">
        <ele>645.1</ele>
        <time>2026-03-16T13:39:00Z</time>
      </trkpt>
      <trkpt lat="48.4053" lon="7.31604">
        <ele>646.9</ele>
        <time>2026-03-16T13:39:05Z</time>
      </trkpt>
      <trkpt lat="48.40539" lon="7.31607">
        <ele>648.6</ele>
        <time>2026-03-16T13:39:10Z</time>
      </trkpt>
      <trkpt lat="48.40549" lon="7.31614">
        <ele>650.1</ele>
        <time>2026-03-16T13:39:15Z</time>
      </trkpt>
      <trkpt lat="48.40559" lon="7.31623">
        <ele>651.1</ele>
        <time>2026-03-16T13:39:20Z</time>
      </trkpt>
      <trkpt lat="48.40567" lon="7.31626">
        <ele>652.2</ele>
        <time>2026-03-16T13:39:25Z</time>
      </trkpt>
      <trkpt lat="48.40575" lon="7.31628">
        <ele>653.5</ele>
        <time>2026-03-16T13:39:30Z</time>
      </trkpt>
      <trkpt lat="48.40581" lon="7.31631">
        <ele>654.1</ele>
        <time>2026-03-16T13:39:35Z</time>
      </trkpt>
      <trkpt lat="48.40585" lon="7.31635">
        <ele>654.2</ele>
        <time>2026-03-16T13:39:40Z</time>
      </trkpt>
      <trkpt lat="48.40586" lon="7.31635">
        <ele>654.3</ele>
        <time>2026-03-16T13:39:45Z</time>
      </trkpt>
      <trkpt lat="48.40586" lon="7.31635">
        <ele>654.3</ele>
        <time>2026-03-16T13:39:50Z</time>
      </trkpt>
      <trkpt lat="48.40599" lon="7.3164">
        <ele>655.4</ele>
        <time>2026-03-16T13:39:55Z</time>
      </trkpt>
      <trkpt lat="48.40599" lon="7.3164">
        <ele>655.4</ele>
        <time>2026-03-16T13:40:00Z</time>
      </trkpt>
      <trkpt lat="48.40594" lon="7.3165">
        <ele>653.1</ele>
        <time>2026-03-16T13:40:05Z</time>
      </trkpt>
      <trkpt lat="48.4059" lon="7.31662">
        <ele>650.7</ele>
        <time>2026-03-16T13:40:10Z</time>
      </trkpt>
      <trkpt lat="48.4059" lon="7.31675">
        <ele>649.2</ele>
        <time>2026-03-16T13:40:15Z</time>
      </trkpt>
      <trkpt lat="48.40592" lon="7.31686">
        <ele>648.4</ele>
        <time>2026-03-16T13:40:20Z</time>
      </trkpt>
      <trkpt lat="48.40593" lon="7.31689">
        <ele>648.3</ele>
        <time>2026-03-16T13:40:25Z</time>
      </trkpt>
      <trkpt lat="48.40595" lon="7.31705">
        <ele>647.1</ele>
        <time>2026-03-16T13:40:30Z</time>
      </trkpt>
      <trkpt lat="48.40596" lon="7.31708">
        <ele>647</ele>
        <time>2026-03-16T13:40:35Z</time>
      </trkpt>
      <trkpt lat="48.40604" lon="7.31724">
        <ele>646.8</ele>
        <time>2026-03-16T13:40:40Z</time>
      </trkpt>
      <trkpt lat="48.40604" lon="7.31725">
        <ele>646.7</ele>
        <time>2026-03-16T13:40:45Z</time>
      </trkpt>
      <trkpt lat="48.40611" lon="7.31738">
        <ele>646.7</ele>
        <time>2026-03-16T13:40:50Z</time>
      </trkpt>
      <trkpt lat="48.40612" lon="7.31741">
        <ele>646.6</ele>
        <time>2026-03-16T13:40:55Z</time>
      </trkpt>
      <trkpt lat="48.40614" lon="7.31758">
        <ele>645.8</ele>
        <time>2026-03-16T13:41:00Z</time>
      </trkpt>
      <trkpt lat="48.40615" lon="7.31763">
        <ele>645.7</ele>
        <time>2026-03-16T13:41:05Z</time>
      </trkpt>
      <trkpt lat="48.40615" lon="7.31763">
        <ele>645.7</ele>
        <time>2026-03-16T13:41:10Z</time>
      </trkpt>
      <trkpt lat="48.40615" lon="7.31781">
        <ele>644.9</ele>
        <time>2026-03-16T13:41:15Z</time>
      </trkpt>
      <trkpt lat="48.40615" lon="7.31781">
        <ele>644.9</ele>
        <time>2026-03-16T13:41:20Z</time>
      </trkpt>
      <trkpt lat="48.4061" lon="7.31802">
        <ele>643.2</ele>
        <time>2026-03-16T13:41:25Z</time>
      </trkpt>
      <trkpt lat="48.40605" lon="7.31814">
        <ele>642.1</ele>
        <time>2026-03-16T13:41:30Z</time>
      </trkpt>
      <trkpt lat="48.40603" lon="7.31819">
        <ele>641.7</ele>
        <time>2026-03-16T13:41:35Z</time>
      </trkpt>
      <trkpt lat="48.40603" lon="7.31819">
        <ele>641.7</ele>
        <time>2026-03-16T13:41:40Z</time>
      </trkpt>
      <trkpt lat="48.40595" lon="7.31838">
        <ele>640.1</ele>
        <time>2026-03-16T13:41:45Z</time>
      </trkpt>
      <trkpt lat="48.40595" lon="7.31838">
        <ele>640.1</ele>
        <time>2026-03-16T13:41:50Z</time>
      </trkpt>
      <trkpt lat="48.40594" lon="7.31855">
        <ele>639.6</ele>
        <time>2026-03-16T13:41:55Z</time>
      </trkpt>
      <trkpt lat="48.40594" lon="7.31855">
        <ele>639.6</ele>
        <time>2026-03-16T13:42:00Z</time>
      </trkpt>
      <trkpt lat="48.40599" lon="7.31872">
        <ele>639.6</ele>
        <time>2026-03-16T13:42:05Z</time>
      </trkpt>
      <trkpt lat="48.40599" lon="7.31887">
        <ele>639.2</ele>
        <time>2026-03-16T13:42:10Z</time>
      </trkpt>
      <trkpt lat="48.40599" lon="7.31891">
        <ele>639</ele>
        <time>2026-03-16T13:42:15Z</time>
      </trkpt>
      <trkpt lat="48.40602" lon="7.31911">
        <ele>638.7</ele>
        <time>2026-03-16T13:42:20Z</time>
      </trkpt>
      <trkpt lat="48.40603" lon="7.31925">
        <ele>638.2</ele>
        <time>2026-03-16T13:42:25Z</time>
      </trkpt>
      <trkpt lat="48.40603" lon="7.31928">
        <ele>638</ele>
        <time>2026-03-16T13:42:30Z</time>
      </trkpt>
      <trkpt lat="48.40603" lon="7.31928">
        <ele>638</ele>
        <time>2026-03-16T13:42:35Z</time>
      </trkpt>
      <trkpt lat="48.40607" lon="7.31946">
        <ele>637.2</ele>
        <time>2026-03-16T13:42:40Z</time>
      </trkpt>
      <trkpt lat="48.40607" lon="7.31946">
        <ele>637.2</ele>
        <time>2026-03-16T13:42:45Z</time>
      </trkpt>
      <trkpt lat="48.4061" lon="7.31966">
        <ele>636.3</ele>
        <time>2026-03-16T13:42:50Z</time>
      </trkpt>
      <trkpt lat="48.4061" lon="7.31966">
        <ele>636.3</ele>
        <time>2026-03-16T13:42:55Z</time>
      </trkpt>
      <trkpt lat="48.40614" lon="7.31986">
        <ele>635.4</ele>
        <time>2026-03-16T13:43:00Z</time>
      </trkpt>
      <trkpt lat="48.4062" lon="7.32002">
        <ele>634.8</ele>
        <time>2026-03-16T13:43:05Z</time>
      </trkpt>
      <trkpt lat="48.40622" lon="7.32004">
        <ele>634.6</ele>
        <time>2026-03-16T13:43:10Z</time>
      </trkpt>
      <trkpt lat="48.40622" lon="7.32004">
        <ele>634.6</ele>
        <time>2026-03-16T13:43:15Z</time>
      </trkpt>
      <trkpt lat="48.40632" lon="7.32015">
        <ele>633.8</ele>
        <time>2026-03-16T13:43:20Z</time>
      </trkpt>
      <trkpt lat="48.40642" lon="7.3202">
        <ele>633.9</ele>
        <time>2026-03-16T13:43:25Z</time>
      </trkpt>
      <trkpt lat="48.40648" lon="7.32021">
        <ele>634.2</ele>
        <time>2026-03-16T13:43:30Z</time>
      </trkpt>
      <trkpt lat="48.40659" lon="7.32024">
        <ele>634.6</ele>
        <time>2026-03-16T13:43:35Z</time>
      </trkpt>
      <trkpt lat="48.40663" lon="7.32026">
        <ele>634.6</ele>
        <time>2026-03-16T13:43:40Z</time>
      </trkpt>
      <trkpt lat="48.40674" lon="7.32028">
        <ele>635.3</ele>
        <time>2026-03-16T13:43:45Z</time>
      </trkpt>
      <trkpt lat="48.40675" lon="7.32029">
        <ele>635.3</ele>
        <time>2026-03-16T13:43:50Z</time>
      </trkpt>
      <trkpt lat="48.40685" lon="7.32038">
        <ele>634.7</ele>
        <time>2026-03-16T13:43:55Z</time>
      </trkpt>
      <trkpt lat="48.40686" lon="7.3204">
        <ele>634.4</ele>
        <time>2026-03-16T13:44:00Z</time>
      </trkpt>
      <trkpt lat="48.40686" lon="7.3204">
        <ele>634.4</ele>
        <time>2026-03-16T13:44:05Z</time>
      </trkpt>
      <trkpt lat="48.40688" lon="7.32058">
        <ele>631.4</ele>
        <time>2026-03-16T13:44:10Z</time>
      </trkpt>
      <trkpt lat="48.40688" lon="7.32058">
        <ele>631.4</ele>
        <time>2026-03-16T13:44:15Z</time>
      </trkpt>
      <trkpt lat="48.40692" lon="7.32073">
        <ele>629.1</ele>
        <time>2026-03-16T13:44:20Z</time>
      </trkpt>
      <trkpt lat="48.40692" lon="7.32077">
        <ele>628.3</ele>
        <time>2026-03-16T13:44:25Z</time>
      </trkpt>
      <trkpt lat="48.40698" lon="7.3209">
        <ele>626.7</ele>
        <time>2026-03-16T13:44:30Z</time>
      </trkpt>
      <trkpt lat="48.40698" lon="7.32093">
        <ele>626.4</ele>
        <time>2026-03-16T13:44:35Z</time>
      </trkpt>
      <trkpt lat="48.40698" lon="7.32093">
        <ele>626.4</ele>
        <time>2026-03-16T13:44:40Z</time>
      </trkpt>
      <trkpt lat="48.40705" lon="7.32114">
        <ele>624.2</ele>
        <time>2026-03-16T13:44:45Z</time>
      </trkpt>
      <trkpt lat="48.40705" lon="7.32114">
        <ele>624.2</ele>
        <time>2026-03-16T13:44:50Z</time>
      </trkpt>
      <trkpt lat="48.40712" lon="7.32134">
        <ele>622</ele>
        <time>2026-03-16T13:44:55Z</time>
      </trkpt>
      <trkpt lat="48.40712" lon="7.32134">
        <ele>622</ele>
        <time>2026-03-16T13:45:00Z</time>
      </trkpt>
      <trkpt lat="48.40712" lon="7.32154">
        <ele>619.6</ele>
        <time>2026-03-16T13:45:05Z</time>
      </trkpt>
      <trkpt lat="48.40712" lon="7.32154">
        <ele>619.6</ele>
        <time>2026-03-16T13:45:10Z</time>
      </trkpt>
      <trkpt lat="48.40716" lon="7.32172">
        <ele>618.3</ele>
        <time>2026-03-16T13:45:15Z</time>
      </trkpt>
      <trkpt lat="48.40716" lon="7.32174">
        <ele>618.3</ele>
        <time>2026-03-16T13:45:20Z</time>
      </trkpt>
      <trkpt lat="48.40717" lon="7.3219">
        <ele>618.6</ele>
        <time>2026-03-16T13:45:25Z</time>
      </trkpt>
      <trkpt lat="48.40716" lon="7.32193">
        <ele>618.6</ele>
        <time>2026-03-16T13:45:30Z</time>
      </trkpt>
      <trkpt lat="48.4071" lon="7.32207">
        <ele>618.6</ele>
        <time>2026-03-16T13:45:35Z</time>
      </trkpt>
      <trkpt lat="48.40709" lon="7.32212">
        <ele>618.6</ele>
        <time>2026-03-16T13:45:40Z</time>
      </trkpt>
      <trkpt lat="48.40704" lon="7.3223">
        <ele>618.5</ele>
        <time>2026-03-16T13:45:45Z</time>
      </trkpt>
      <trkpt lat="48.40704" lon="7.32237">
        <ele>618.6</ele>
        <time>2026-03-16T13:45:50Z</time>
      </trkpt>
      <trkpt lat="48.40704" lon="7.32237">
        <ele>618.6</ele>
        <time>2026-03-16T13:45:55Z</time>
      </trkpt>
      <trkpt lat="48.40696" lon="7.32255">
        <ele>618.2</ele>
        <time>2026-03-16T13:46:00Z</time>
      </trkpt>
      <trkpt lat="48.40696" lon="7.32255">
        <ele>618.2</ele>
        <time>2026-03-16T13:46:05Z</time>
      </trkpt>
      <trkpt lat="48.40688" lon="7.32274">
        <ele>618.1</ele>
        <time>2026-03-16T13:46:10Z</time>
      </trkpt>
      <trkpt lat="48.40682" lon="7.32286">
        <ele>618</ele>
        <time>2026-03-16T13:46:15Z</time>
      </trkpt>
      <trkpt lat="48.4068" lon="7.3229">
        <ele>617.9</ele>
        <time>2026-03-16T13:46:20Z</time>
      </trkpt>
      <trkpt lat="48.4068" lon="7.3229">
        <ele>617.9</ele>
        <time>2026-03-16T13:46:25Z</time>
      </trkpt>
      <trkpt lat="48.4068" lon="7.3229">
        <ele>617.9</ele>
        <time>2026-03-16T13:46:30Z</time>
      </trkpt>
      <trkpt lat="48.4068" lon="7.3229">
        <ele>617.9</ele>
        <time>2026-03-16T13:46:35Z</time>
      </trkpt>
      <trkpt lat="48.40674" lon="7.32302">
        <ele>617.8</ele>
        <time>2026-03-16T13:46:40Z</time>
      </trkpt>
      <trkpt lat="48.40664" lon="7.3231">
        <ele>617.3</ele>
        <time>2026-03-16T13:46:45Z</time>
      </trkpt>
      <trkpt lat="48.40664" lon="7.3231">
        <ele>617.3</ele>
        <time>2026-03-16T13:46:50Z</time>
      </trkpt>
      <trkpt lat="48.40651" lon="7.32321">
        <ele>616.7</ele>
        <time>2026-03-16T13:46:55Z</time>
      </trkpt>
      <trkpt lat="48.40644" lon="7.32326">
        <ele>616.4</ele>
        <time>2026-03-16T13:47:00Z</time>
      </trkpt>
      <trkpt lat="48.40643" lon="7.32326">
        <ele>616.4</ele>
        <time>2026-03-16T13:47:05Z</time>
      </trkpt>
      <trkpt lat="48.40632" lon="7.32336">
        <ele>615.9</ele>
        <time>2026-03-16T13:47:10Z</time>
      </trkpt>
      <trkpt lat="48.40626" lon="7.32342">
        <ele>615.6</ele>
        <time>2026-03-16T13:47:15Z</time>
      </trkpt>
      <trkpt lat="48.40625" lon="7.32343">
        <ele>615.5</ele>
        <time>2026-03-16T13:47:20Z</time>
      </trkpt>
      <trkpt lat="48.40617" lon="7.32359">
        <ele>615.1</ele>
        <time>2026-03-16T13:47:25Z</time>
      </trkpt>
      <trkpt lat="48.40617" lon="7.32359">
        <ele>615.1</ele>
        <time>2026-03-16T13:47:30Z</time>
      </trkpt>
      <trkpt lat="48.40606" lon="7.32371">
        <ele>614.6</ele>
        <time>2026-03-16T13:47:35Z</time>
      </trkpt>
      <trkpt lat="48.40606" lon="7.32371">
        <ele>614.6</ele>
        <time>2026-03-16T13:47:40Z</time>
      </trkpt>
      <trkpt lat="48.40593" lon="7.32384">
        <ele>614</ele>
        <time>2026-03-16T13:47:45Z</time>
      </trkpt>
      <trkpt lat="48.40587" lon="7.32391">
        <ele>613.9</ele>
        <time>2026-03-16T13:47:50Z</time>
      </trkpt>
      <trkpt lat="48.40582" lon="7.32397">
        <ele>613.7</ele>
        <time>2026-03-16T13:47:55Z</time>
      </trkpt>
      <trkpt lat="48.40578" lon="7.32406">
        <ele>613.5</ele>
        <time>2026-03-16T13:48:00Z</time>
      </trkpt>
      <trkpt lat="48.40574" lon="7.32415">
        <ele>613.3</ele>
        <time>2026-03-16T13:48:05Z</time>
      </trkpt>
      <trkpt lat="48.40569" lon="7.32423">
        <ele>612.7</ele>
        <time>2026-03-16T13:48:10Z</time>
      </trkpt>
      <trkpt lat="48.40564" lon="7.3243">
        <ele>611.9</ele>
        <time>2026-03-16T13:48:15Z</time>
      </trkpt>
      <trkpt lat="48.40561" lon="7.32438">
        <ele>611.3</ele>
        <time>2026-03-16T13:48:20Z</time>
      </trkpt>
      <trkpt lat="48.40558" lon="7.32444">
        <ele>610.8</ele>
        <time>2026-03-16T13:48:25Z</time>
      </trkpt>
      <trkpt lat="48.40552" lon="7.32451">
        <ele>609.9</ele>
        <time>2026-03-16T13:48:30Z</time>
      </trkpt>
      <trkpt lat="48.40547" lon="7.32458">
        <ele>609.2</ele>
        <time>2026-03-16T13:48:35Z</time>
      </trkpt>
      <trkpt lat="48.40544" lon="7.32465">
        <ele>608.6</ele>
        <time>2026-03-16T13:48:40Z</time>
      </trkpt>
      <trkpt lat="48.40538" lon="7.32473">
        <ele>607.7</ele>
        <time>2026-03-16T13:48:45Z</time>
      </trkpt>
      <trkpt lat="48.40533" lon="7.32481">
        <ele>606.8</ele>
        <time>2026-03-16T13:48:50Z</time>
      </trkpt>
      <trkpt lat="48.40532" lon="7.32482">
        <ele>606.7</ele>
        <time>2026-03-16T13:48:55Z</time>
      </trkpt>
      <trkpt lat="48.40525" lon="7.32497">
        <ele>605.3</ele>
        <time>2026-03-16T13:49:00Z</time>
      </trkpt>
      <trkpt lat="48.40518" lon="7.32505">
        <ele>604.2</ele>
        <time>2026-03-16T13:49:05Z</time>
      </trkpt>
      <trkpt lat="48.40512" lon="7.32512">
        <ele>603.3</ele>
        <time>2026-03-16T13:49:10Z</time>
      </trkpt>
      <trkpt lat="48.40507" lon="7.32522">
        <ele>602.3</ele>
        <time>2026-03-16T13:49:15Z</time>
      </trkpt>
      <trkpt lat="48.40501" lon="7.32529">
        <ele>601.3</ele>
        <time>2026-03-16T13:49:20Z</time>
      </trkpt>
      <trkpt lat="48.40495" lon="7.32534">
        <ele>600.3</ele>
        <time>2026-03-16T13:49:25Z</time>
      </trkpt>
      <trkpt lat="48.40491" lon="7.32538">
        <ele>599.6</ele>
        <time>2026-03-16T13:49:30Z</time>
      </trkpt>
      <trkpt lat="48.40485" lon="7.32539">
        <ele>598.8</ele>
        <time>2026-03-16T13:49:35Z</time>
      </trkpt>
      <trkpt lat="48.40485" lon="7.3254">
        <ele>598.8</ele>
        <time>2026-03-16T13:49:40Z</time>
      </trkpt>
      <trkpt lat="48.40485" lon="7.3254">
        <ele>598.8</ele>
        <time>2026-03-16T13:49:45Z</time>
      </trkpt>
      <trkpt lat="48.40485" lon="7.3254">
        <ele>598.8</ele>
        <time>2026-03-16T13:49:50Z</time>
      </trkpt>
      <trkpt lat="48.40478" lon="7.32546">
        <ele>597.6</ele>
        <time>2026-03-16T13:49:55Z</time>
      </trkpt>
      <trkpt lat="48.40471" lon="7.32551">
        <ele>596.5</ele>
        <time>2026-03-16T13:50:00Z</time>
      </trkpt>
      <trkpt lat="48.40466" lon="7.32555">
        <ele>595.8</ele>
        <time>2026-03-16T13:50:05Z</time>
      </trkpt>
      <trkpt lat="48.40465" lon="7.32556">
        <ele>595.6</ele>
        <time>2026-03-16T13:50:10Z</time>
      </trkpt>
      <trkpt lat="48.40452" lon="7.32565">
        <ele>593.7</ele>
        <time>2026-03-16T13:50:15Z</time>
      </trkpt>
      <trkpt lat="48.40445" lon="7.3257">
        <ele>592.6</ele>
        <time>2026-03-16T13:50:20Z</time>
      </trkpt>
      <trkpt lat="48.4044" lon="7.32575">
        <ele>591.9</ele>
        <time>2026-03-16T13:50:25Z</time>
      </trkpt>
      <trkpt lat="48.40434" lon="7.32582">
        <ele>590.9</ele>
        <time>2026-03-16T13:50:30Z</time>
      </trkpt>
      <trkpt lat="48.4043" lon="7.32586">
        <ele>590.2</ele>
        <time>2026-03-16T13:50:35Z</time>
      </trkpt>
      <trkpt lat="48.40425" lon="7.32591">
        <ele>589.3</ele>
        <time>2026-03-16T13:50:40Z</time>
      </trkpt>
      <trkpt lat="48.40418" lon="7.32599">
        <ele>587.8</ele>
        <time>2026-03-16T13:50:45Z</time>
      </trkpt>
      <trkpt lat="48.40414" lon="7.32606">
        <ele>586.8</ele>
        <time>2026-03-16T13:50:50Z</time>
      </trkpt>
      <trkpt lat="48.40414" lon="7.32606">
        <ele>586.8</ele>
        <time>2026-03-16T13:50:55Z</time>
      </trkpt>
      <trkpt lat="48.40409" lon="7.32619">
        <ele>585.1</ele>
        <time>2026-03-16T13:51:00Z</time>
      </trkpt>
      <trkpt lat="48.40406" lon="7.32634">
        <ele>583.5</ele>
        <time>2026-03-16T13:51:05Z</time>
      </trkpt>
      <trkpt lat="48.40407" lon="7.32642">
        <ele>583</ele>
        <time>2026-03-16T13:51:10Z</time>
      </trkpt>
      <trkpt lat="48.40407" lon="7.32655">
        <ele>581.9</ele>
        <time>2026-03-16T13:51:15Z</time>
      </trkpt>
      <trkpt lat="48.40407" lon="7.32655">
        <ele>581.9</ele>
        <time>2026-03-16T13:51:20Z</time>
      </trkpt>
      <trkpt lat="48.4041" lon="7.32675">
        <ele>580.7</ele>
        <time>2026-03-16T13:51:25Z</time>
      </trkpt>
      <trkpt lat="48.4041" lon="7.32686">
        <ele>580</ele>
        <time>2026-03-16T13:51:30Z</time>
      </trkpt>
      <trkpt lat="48.40413" lon="7.32698">
        <ele>579.4</ele>
        <time>2026-03-16T13:51:35Z</time>
      </trkpt>
      <trkpt lat="48.40413" lon="7.327">
        <ele>579.3</ele>
        <time>2026-03-16T13:51:40Z</time>
      </trkpt>
      <trkpt lat="48.40416" lon="7.32721">
        <ele>578</ele>
        <time>2026-03-16T13:51:45Z</time>
      </trkpt>
      <trkpt lat="48.40418" lon="7.32733">
        <ele>577.3</ele>
        <time>2026-03-16T13:51:50Z</time>
      </trkpt>
      <trkpt lat="48.40418" lon="7.32737">
        <ele>577</ele>
        <time>2026-03-16T13:51:55Z</time>
      </trkpt>
      <trkpt lat="48.40418" lon="7.32737">
        <ele>577</ele>
        <time>2026-03-16T13:52:00Z</time>
      </trkpt>
      <trkpt lat="48.40421" lon="7.32754">
        <ele>576.1</ele>
        <time>2026-03-16T13:52:05Z</time>
      </trkpt>
      <trkpt lat="48.40421" lon="7.32754">
        <ele>576.1</ele>
        <time>2026-03-16T13:52:10Z</time>
      </trkpt>
      <trkpt lat="48.40422" lon="7.32779">
        <ele>574.8</ele>
        <time>2026-03-16T13:52:15Z</time>
      </trkpt>
      <trkpt lat="48.40422" lon="7.3279">
        <ele>574.3</ele>
        <time>2026-03-16T13:52:20Z</time>
      </trkpt>
      <trkpt lat="48.40422" lon="7.32795">
        <ele>574</ele>
        <time>2026-03-16T13:52:25Z</time>
      </trkpt>
      <trkpt lat="48.40417" lon="7.32805">
        <ele>573.4</ele>
        <time>2026-03-16T13:52:30Z</time>
      </trkpt>
      <trkpt lat="48.4041" lon="7.32811">
        <ele>573</ele>
        <time>2026-03-16T13:52:35Z</time>
      </trkpt>
      <trkpt lat="48.40407" lon="7.32816">
        <ele>572.8</ele>
        <time>2026-03-16T13:52:40Z</time>
      </trkpt>
      <trkpt lat="48.40407" lon="7.32816">
        <ele>572.8</ele>
        <time>2026-03-16T13:52:45Z</time>
      </trkpt>
      <trkpt lat="48.40407" lon="7.32816">
        <ele>572.8</ele>
        <time>2026-03-16T13:52:50Z</time>
      </trkpt>
      <trkpt lat="48.40396" lon="7.32827">
        <ele>572.2</ele>
        <time>2026-03-16T13:52:55Z</time>
      </trkpt>
      <trkpt lat="48.40396" lon="7.32827">
        <ele>572.2</ele>
        <time>2026-03-16T13:53:00Z</time>
      </trkpt>
      <trkpt lat="48.40404" lon="7.32849">
        <ele>571.5</ele>
        <time>2026-03-16T13:53:05Z</time>
      </trkpt>
      <trkpt lat="48.40407" lon="7.3286">
        <ele>571.2</ele>
        <time>2026-03-16T13:53:10Z</time>
      </trkpt>
      <trkpt lat="48.40408" lon="7.32863">
        <ele>571</ele>
        <time>2026-03-16T13:53:15Z</time>
      </trkpt>
      <trkpt lat="48.40408" lon="7.32863">
        <ele>571</ele>
        <time>2026-03-16T13:53:20Z</time>
      </trkpt>
      <trkpt lat="48.40412" lon="7.3288">
        <ele>570.4</ele>
        <time>2026-03-16T13:53:25Z</time>
      </trkpt>
      <trkpt lat="48.40412" lon="7.32882">
        <ele>570.3</ele>
        <time>2026-03-16T13:53:30Z</time>
      </trkpt>
      <trkpt lat="48.4041" lon="7.32901">
        <ele>569.8</ele>
        <time>2026-03-16T13:53:35Z</time>
      </trkpt>
      <trkpt lat="48.4041" lon="7.32901">
        <ele>569.8</ele>
        <time>2026-03-16T13:53:40Z</time>
      </trkpt>
      <trkpt lat="48.40407" lon="7.32929">
        <ele>569.5</ele>
        <time>2026-03-16T13:53:45Z</time>
      </trkpt>
      <trkpt lat="48.40404" lon="7.32939">
        <ele>569.6</ele>
        <time>2026-03-16T13:53:50Z</time>
      </trkpt>
      <trkpt lat="48.40401" lon="7.32948">
        <ele>569.8</ele>
        <time>2026-03-16T13:53:55Z</time>
      </trkpt>
      <trkpt lat="48.40397" lon="7.32955">
        <ele>570</ele>
        <time>2026-03-16T13:54:00Z</time>
      </trkpt>
      <trkpt lat="48.40394" lon="7.32967">
        <ele>570.1</ele>
        <time>2026-03-16T13:54:05Z</time>
      </trkpt>
      <trkpt lat="48.4039" lon="7.32971">
        <ele>570.2</ele>
        <time>2026-03-16T13:54:10Z</time>
      </trkpt>
      <trkpt lat="48.40388" lon="7.32975">
        <ele>570.3</ele>
        <time>2026-03-16T13:54:15Z</time>
      </trkpt>
      <trkpt lat="48.40388" lon="7.32976">
        <ele>570.3</ele>
        <time>2026-03-16T13:54:20Z</time>
      </trkpt>
      <trkpt lat="48.40383" lon="7.32987">
        <ele>570.4</ele>
        <time>2026-03-16T13:54:25Z</time>
      </trkpt>
      <trkpt lat="48.40376" lon="7.32994">
        <ele>570.5</ele>
        <time>2026-03-16T13:54:30Z</time>
      </trkpt>
      <trkpt lat="48.40367" lon="7.33">
        <ele>570.6</ele>
        <time>2026-03-16T13:54:35Z</time>
      </trkpt>
      <trkpt lat="48.40361" lon="7.32998">
        <ele>570.7</ele>
        <time>2026-03-16T13:54:40Z</time>
      </trkpt>
      <trkpt lat="48.40361" lon="7.32998">
        <ele>570.7</ele>
        <time>2026-03-16T13:54:45Z</time>
      </trkpt>
      <trkpt lat="48.40361" lon="7.32998">
        <ele>570.7</ele>
        <time>2026-03-16T13:54:50Z</time>
      </trkpt>
      <trkpt lat="48.40361" lon="7.32998">
        <ele>570.7</ele>
        <time>2026-03-16T13:54:55Z</time>
      </trkpt>
      <trkpt lat="48.40361" lon="7.32998">
        <ele>570.7</ele>
        <time>2026-03-16T13:55:00Z</time>
      </trkpt>
      <trkpt lat="48.40361" lon="7.33007">
        <ele>571</ele>
        <time>2026-03-16T13:55:05Z</time>
      </trkpt>
      <trkpt lat="48.40361" lon="7.33007">
        <ele>571</ele>
        <time>2026-03-16T13:55:10Z</time>
      </trkpt>
      <trkpt lat="48.40361" lon="7.33007">
        <ele>571</ele>
        <time>2026-03-16T13:55:15Z</time>
      </trkpt>
      <trkpt lat="48.40361" lon="7.33007">
        <ele>571</ele>
        <time>2026-03-16T13:55:20Z</time>
      </trkpt>
      <trkpt lat="48.4037" lon="7.33019">
        <ele>571.7</ele>
        <time>2026-03-16T13:55:25Z</time>
      </trkpt>
      <trkpt lat="48.40374" lon="7.33024">
        <ele>572.1</ele>
        <time>2026-03-16T13:55:30Z</time>
      </trkpt>
      <trkpt lat="48.40377" lon="7.33031">
        <ele>572.6</ele>
        <time>2026-03-16T13:55:35Z</time>
      </trkpt>
      <trkpt lat="48.40377" lon="7.33031">
        <ele>572.6</ele>
        <time>2026-03-16T13:55:40Z</time>
      </trkpt>
      <trkpt lat="48.40385" lon="7.33046">
        <ele>574.1</ele>
        <time>2026-03-16T13:55:45Z</time>
      </trkpt>
      <trkpt lat="48.40385" lon="7.33046">
        <ele>574.1</ele>
        <time>2026-03-16T13:55:50Z</time>
      </trkpt>
      <trkpt lat="48.40385" lon="7.33046">
        <ele>574.1</ele>
        <time>2026-03-16T13:55:55Z</time>
      </trkpt>
      <trkpt lat="48.40394" lon="7.33057">
        <ele>575.7</ele>
        <time>2026-03-16T13:56:00Z</time>
      </trkpt>
      <trkpt lat="48.40394" lon="7.33057">
        <ele>575.7</ele>
        <time>2026-03-16T13:56:05Z</time>
      </trkpt>
      <trkpt lat="48.40401" lon="7.33068">
        <ele>577.5</ele>
        <time>2026-03-16T13:56:10Z</time>
      </trkpt>
      <trkpt lat="48.40401" lon="7.33068">
        <ele>577.5</ele>
        <time>2026-03-16T13:56:15Z</time>
      </trkpt>
      <trkpt lat="48.40409" lon="7.3308">
        <ele>579.7</ele>
        <time>2026-03-16T13:56:20Z</time>
      </trkpt>
      <trkpt lat="48.40411" lon="7.33083">
        <ele>580.3</ele>
        <time>2026-03-16T13:56:25Z</time>
      </trkpt>
      <trkpt lat="48.40411" lon="7.33083">
        <ele>580.3</ele>
        <time>2026-03-16T13:56:30Z</time>
      </trkpt>
      <trkpt lat="48.4042" lon="7.33098">
        <ele>583.7</ele>
        <time>2026-03-16T13:56:35Z</time>
      </trkpt>
      <trkpt lat="48.4042" lon="7.33098">
        <ele>583.7</ele>
        <time>2026-03-16T13:56:40Z</time>
      </trkpt>
      <trkpt lat="48.4042" lon="7.33098">
        <ele>583.7</ele>
        <time>2026-03-16T13:56:45Z</time>
      </trkpt>
      <trkpt lat="48.40428" lon="7.33093">
        <ele>582.9</ele>
        <time>2026-03-16T13:56:50Z</time>
      </trkpt>
      <trkpt lat="48.40429" lon="7.33091">
        <ele>582.6</ele>
        <time>2026-03-16T13:56:55Z</time>
      </trkpt>
      <trkpt lat="48.40429" lon="7.33091">
        <ele>582.6</ele>
        <time>2026-03-16T13:57:00Z</time>
      </trkpt>
      <trkpt lat="48.40437" lon="7.33101">
        <ele>584.5</ele>
        <time>2026-03-16T13:57:05Z</time>
      </trkpt>
      <trkpt lat="48.40437" lon="7.33105">
        <ele>585.1</ele>
        <time>2026-03-16T13:57:10Z</time>
      </trkpt>
      <trkpt lat="48.40443" lon="7.33118">
        <ele>587.3</ele>
        <time>2026-03-16T13:57:15Z</time>
      </trkpt>
      <trkpt lat="48.40447" lon="7.33125">
        <ele>588.5</ele>
        <time>2026-03-16T13:57:20Z</time>
      </trkpt>
      <trkpt lat="48.40451" lon="7.33126">
        <ele>588.7</ele>
        <time>2026-03-16T13:57:25Z</time>
      </trkpt>
      <trkpt lat="48.40451" lon="7.33129">
        <ele>589.1</ele>
        <time>2026-03-16T13:57:30Z</time>
      </trkpt>
      <trkpt lat="48.40451" lon="7.33129">
        <ele>589.1</ele>
        <time>2026-03-16T13:57:35Z</time>
      </trkpt>
      <trkpt lat="48.40451" lon="7.33129">
        <ele>589.1</ele>
        <time>2026-03-16T13:57:40Z</time>
      </trkpt>
      <trkpt lat="48.40451" lon="7.33129">
        <ele>589.1</ele>
        <time>2026-03-16T13:57:45Z</time>
      </trkpt>
      <trkpt lat="48.40451" lon="7.33143">
        <ele>591.4</ele>
        <time>2026-03-16T13:57:50Z</time>
      </trkpt>
      <trkpt lat="48.4045" lon="7.33157">
        <ele>593.6</ele>
        <time>2026-03-16T13:57:55Z</time>
      </trkpt>
      <trkpt lat="48.40448" lon="7.3317">
        <ele>595.9</ele>
        <time>2026-03-16T13:58:00Z</time>
      </trkpt>
      <trkpt lat="48.40447" lon="7.33182">
        <ele>598.2</ele>
        <time>2026-03-16T13:58:05Z</time>
      </trkpt>
      <trkpt lat="48.40449" lon="7.33185">
        <ele>598.7</ele>
        <time>2026-03-16T13:58:10Z</time>
      </trkpt>
      <trkpt lat="48.4045" lon="7.33185">
        <ele>598.7</ele>
        <time>2026-03-16T13:58:15Z</time>
      </trkpt>
      <trkpt lat="48.4045" lon="7.33185">
        <ele>598.7</ele>
        <time>2026-03-16T13:58:20Z</time>
      </trkpt>
      <trkpt lat="48.4045" lon="7.33185">
        <ele>598.7</ele>
        <time>2026-03-16T13:58:25Z</time>
      </trkpt>
      <trkpt lat="48.4045" lon="7.33185">
        <ele>598.7</ele>
        <time>2026-03-16T13:58:30Z</time>
      </trkpt>
      <trkpt lat="48.4045" lon="7.33185">
        <ele>598.7</ele>
        <time>2026-03-16T13:58:35Z</time>
      </trkpt>
      <trkpt lat="48.40459" lon="7.33195">
        <ele>600.4</ele>
        <time>2026-03-16T13:58:40Z</time>
      </trkpt>
      <trkpt lat="48.4046" lon="7.33196">
        <ele>600.6</ele>
        <time>2026-03-16T13:58:45Z</time>
      </trkpt>
      <trkpt lat="48.4046" lon="7.33196">
        <ele>600.6</ele>
        <time>2026-03-16T13:58:50Z</time>
      </trkpt>
      <trkpt lat="48.4046" lon="7.33196">
        <ele>600.6</ele>
        <time>2026-03-16T13:58:55Z</time>
      </trkpt>
      <trkpt lat="48.40467" lon="7.3321">
        <ele>603.2</ele>
        <time>2026-03-16T13:59:00Z</time>
      </trkpt>
      <trkpt lat="48.40467" lon="7.3321">
        <ele>603.2</ele>
        <time>2026-03-16T13:59:05Z</time>
      </trkpt>
      <trkpt lat="48.40467" lon="7.3321">
        <ele>603.2</ele>
        <time>2026-03-16T13:59:10Z</time>
      </trkpt>
      <trkpt lat="48.40475" lon="7.33222">
        <ele>605.5</ele>
        <time>2026-03-16T13:59:15Z</time>
      </trkpt>
      <trkpt lat="48.40475" lon="7.33222">
        <ele>605.5</ele>
        <time>2026-03-16T13:59:20Z</time>
      </trkpt>
      <trkpt lat="48.40475" lon="7.33222">
        <ele>605.5</ele>
        <time>2026-03-16T13:59:25Z</time>
      </trkpt>
      <trkpt lat="48.40479" lon="7.33236">
        <ele>608.2</ele>
        <time>2026-03-16T13:59:30Z</time>
      </trkpt>
      <trkpt lat="48.4048" lon="7.33238">
        <ele>608.6</ele>
        <time>2026-03-16T13:59:35Z</time>
      </trkpt>
      <trkpt lat="48.4048" lon="7.33238">
        <ele>608.6</ele>
        <time>2026-03-16T13:59:40Z</time>
      </trkpt>
      <trkpt lat="48.40486" lon="7.33252">
        <ele>611.3</ele>
        <time>2026-03-16T13:59:45Z</time>
      </trkpt>
      <trkpt lat="48.40487" lon="7.33255">
        <ele>611.7</ele>
        <time>2026-03-16T13:59:50Z</time>
      </trkpt>
      <trkpt lat="48.40487" lon="7.33255">
        <ele>611.7</ele>
        <time>2026-03-16T13:59:55Z</time>
      </trkpt>
      <trkpt lat="48.40495" lon="7.3327">
        <ele>613.9</ele>
        <time>2026-03-16T14:00:00Z</time>
      </trkpt>
      <trkpt lat="48.40495" lon="7.3327">
        <ele>613.9</ele>
        <time>2026-03-16T14:00:05Z</time>
      </trkpt>
      <trkpt lat="48.40503" lon="7.33279">
        <ele>614.8</ele>
        <time>2026-03-16T14:00:10Z</time>
      </trkpt>
      <trkpt lat="48.40504" lon="7.33281">
        <ele>614.9</ele>
        <time>2026-03-16T14:00:15Z</time>
      </trkpt>
      <trkpt lat="48.40504" lon="7.33281">
        <ele>614.9</ele>
        <time>2026-03-16T14:00:20Z</time>
      </trkpt>
      <trkpt lat="48.40514" lon="7.3329">
        <ele>615</ele>
        <time>2026-03-16T14:00:25Z</time>
      </trkpt>
      <trkpt lat="48.40514" lon="7.3329">
        <ele>615</ele>
        <time>2026-03-16T14:00:30Z</time>
      </trkpt>
      <trkpt lat="48.40514" lon="7.3329">
        <ele>615</ele>
        <time>2026-03-16T14:00:35Z</time>
      </trkpt>
      <trkpt lat="48.40521" lon="7.333">
        <ele>615.6</ele>
        <time>2026-03-16T14:00:40Z</time>
      </trkpt>
      <trkpt lat="48.40522" lon="7.33303">
        <ele>616</ele>
        <time>2026-03-16T14:00:45Z</time>
      </trkpt>
      <trkpt lat="48.40522" lon="7.33303">
        <ele>616</ele>
        <time>2026-03-16T14:00:50Z</time>
      </trkpt>
      <trkpt lat="48.40522" lon="7.33303">
        <ele>616</ele>
        <time>2026-03-16T14:00:55Z</time>
      </trkpt>
      <trkpt lat="48.40532" lon="7.33308">
        <ele>615.5</ele>
        <time>2026-03-16T14:01:00Z</time>
      </trkpt>
      <trkpt lat="48.40535" lon="7.33308">
        <ele>615.2</ele>
        <time>2026-03-16T14:01:05Z</time>
      </trkpt>
      <trkpt lat="48.40535" lon="7.33308">
        <ele>615.2</ele>
        <time>2026-03-16T14:01:10Z</time>
      </trkpt>
      <trkpt lat="48.40546" lon="7.33313">
        <ele>614.7</ele>
        <time>2026-03-16T14:01:15Z</time>
      </trkpt>
      <trkpt lat="48.40547" lon="7.33314">
        <ele>614.7</ele>
        <time>2026-03-16T14:01:20Z</time>
      </trkpt>
      <trkpt lat="48.40547" lon="7.33314">
        <ele>614.7</ele>
        <time>2026-03-16T14:01:25Z</time>
      </trkpt>
      <trkpt lat="48.40557" lon="7.33325">
        <ele>615.4</ele>
        <time>2026-03-16T14:01:30Z</time>
      </trkpt>
      <trkpt lat="48.40557" lon="7.33325">
        <ele>615.4</ele>
        <time>2026-03-16T14:01:35Z</time>
      </trkpt>
      <trkpt lat="48.40566" lon="7.33336">
        <ele>616.2</ele>
        <time>2026-03-16T14:01:40Z</time>
      </trkpt>
      <trkpt lat="48.40567" lon="7.33337">
        <ele>616.3</ele>
        <time>2026-03-16T14:01:45Z</time>
      </trkpt>
      <trkpt lat="48.40567" lon="7.33337">
        <ele>616.3</ele>
        <time>2026-03-16T14:01:50Z</time>
      </trkpt>
      <trkpt lat="48.40567" lon="7.33337">
        <ele>616.3</ele>
        <time>2026-03-16T14:01:55Z</time>
      </trkpt>
      <trkpt lat="48.40567" lon="7.33337">
        <ele>616.3</ele>
        <time>2026-03-16T14:02:00Z</time>
      </trkpt>
      <trkpt lat="48.40567" lon="7.33337">
        <ele>616.3</ele>
        <time>2026-03-16T14:02:05Z</time>
      </trkpt>
      <trkpt lat="48.40572" lon="7.33349">
        <ele>617.5</ele>
        <time>2026-03-16T14:02:10Z</time>
      </trkpt>
      <trkpt lat="48.40572" lon="7.3335">
        <ele>617.7</ele>
        <time>2026-03-16T14:02:15Z</time>
      </trkpt>
      <trkpt lat="48.40572" lon="7.3335">
        <ele>617.7</ele>
        <time>2026-03-16T14:02:20Z</time>
      </trkpt>
      <trkpt lat="48.40572" lon="7.3335">
        <ele>617.7</ele>
        <time>2026-03-16T14:02:25Z</time>
      </trkpt>
      <trkpt lat="48.40572" lon="7.3335">
        <ele>617.7</ele>
        <time>2026-03-16T14:02:30Z</time>
      </trkpt>
      <trkpt lat="48.40572" lon="7.3335">
        <ele>617.7</ele>
        <time>2026-03-16T14:02:35Z</time>
      </trkpt>
      <trkpt lat="48.40572" lon="7.3335">
        <ele>617.7</ele>
        <time>2026-03-16T14:02:40Z</time>
      </trkpt>
      <trkpt lat="48.40572" lon="7.3335">
        <ele>617.7</ele>
        <time>2026-03-16T14:02:45Z</time>
      </trkpt>
      <trkpt lat="48.40572" lon="7.3335">
        <ele>617.7</ele>
        <time>2026-03-16T14:02:50Z</time>
      </trkpt>
      <trkpt lat="48.40572" lon="7.3335">
        <ele>617.7</ele>
        <time>2026-03-16T14:02:55Z</time>
      </trkpt>
      <trkpt lat="48.40572" lon="7.3335">
        <ele>617.7</ele>
        <time>2026-03-16T14:03:00Z</time>
      </trkpt>
      <trkpt lat="48.40572" lon="7.3335">
        <ele>617.7</ele>
        <time>2026-03-16T14:03:05Z</time>
      </trkpt>
      <trkpt lat="48.40572" lon="7.3335">
        <ele>617.7</ele>
        <time>2026-03-16T14:03:10Z</time>
      </trkpt>
      <trkpt lat="48.40572" lon="7.3335">
        <ele>617.7</ele>
        <time>2026-03-16T14:03:15Z</time>
      </trkpt>
      <trkpt lat="48.40572" lon="7.3335">
        <ele>617.7</ele>
        <time>2026-03-16T14:03:20Z</time>
      </trkpt>
      <trkpt lat="48.40572" lon="7.3335">
        <ele>617.7</ele>
        <time>2026-03-16T14:03:25Z</time>
      </trkpt>
      <trkpt lat="48.40572" lon="7.3335">
        <ele>617.7</ele>
        <time>2026-03-16T14:03:30Z</time>
      </trkpt>
      <trkpt lat="48.40572" lon="7.3335">
        <ele>617.7</ele>
        <time>2026-03-16T14:03:35Z</time>
      </trkpt>
      <trkpt lat="48.40572" lon="7.3335">
        <ele>617.7</ele>
        <time>2026-03-16T14:03:40Z</time>
      </trkpt>
      <trkpt lat="48.40572" lon="7.3335">
        <ele>617.7</ele>
        <time>2026-03-16T14:03:45Z</time>
      </trkpt>
      <trkpt lat="48.40572" lon="7.3335">
        <ele>617.7</ele>
        <time>2026-03-16T14:03:50Z</time>
      </trkpt>
      <trkpt lat="48.40572" lon="7.3335">
        <ele>617.7</ele>
        <time>2026-03-16T14:03:55Z</time>
      </trkpt>
      <trkpt lat="48.40572" lon="7.3335">
        <ele>617.7</ele>
        <time>2026-03-16T14:04:00Z</time>
      </trkpt>
      <trkpt lat="48.40572" lon="7.3335">
        <ele>617.7</ele>
        <time>2026-03-16T14:04:05Z</time>
      </trkpt>
      <trkpt lat="48.40572" lon="7.3335">
        <ele>617.7</ele>
        <time>2026-03-16T14:04:10Z</time>
      </trkpt>
      <trkpt lat="48.40572" lon="7.3335">
        <ele>617.7</ele>
        <time>2026-03-16T14:04:15Z</time>
      </trkpt>
      <trkpt lat="48.40572" lon="7.3335">
        <ele>617.7</ele>
        <time>2026-03-16T14:04:20Z</time>
      </trkpt>
      <trkpt lat="48.40572" lon="7.3335">
        <ele>617.7</ele>
        <time>2026-03-16T14:04:25Z</time>
      </trkpt>
      <trkpt lat="48.40572" lon="7.3335">
        <ele>617.7</ele>
        <time>2026-03-16T14:04:30Z</time>
      </trkpt>
      <trkpt lat="48.40572" lon="7.3335">
        <ele>617.7</ele>
        <time>2026-03-16T14:04:35Z</time>
      </trkpt>
      <trkpt lat="48.40572" lon="7.3335">
        <ele>617.7</ele>
        <time>2026-03-16T14:04:40Z</time>
      </trkpt>
      <trkpt lat="48.40572" lon="7.3335">
        <ele>617.7</ele>
        <time>2026-03-16T14:04:45Z</time>
      </trkpt>
      <trkpt lat="48.40572" lon="7.3335">
        <ele>617.7</ele>
        <time>2026-03-16T14:04:50Z</time>
      </trkpt>
      <trkpt lat="48.40572" lon="7.3335">
        <ele>617.7</ele>
        <time>2026-03-16T14:04:55Z</time>
      </trkpt>
      <trkpt lat="48.40572" lon="7.3335">
        <ele>617.7</ele>
        <time>2026-03-16T14:05:00Z</time>
      </trkpt>
      <trkpt lat="48.40572" lon="7.3335">
        <ele>617.7</ele>
        <time>2026-03-16T14:05:05Z</time>
      </trkpt>
      <trkpt lat="48.40572" lon="7.3335">
        <ele>617.7</ele>
        <time>2026-03-16T14:05:10Z</time>
      </trkpt>
      <trkpt lat="48.40572" lon="7.3335">
        <ele>617.7</ele>
        <time>2026-03-16T14:05:15Z</time>
      </trkpt>
      <trkpt lat="48.40572" lon="7.3335">
        <ele>617.7</ele>
        <time>2026-03-16T14:05:20Z</time>
      </trkpt>
      <trkpt lat="48.40572" lon="7.3335">
        <ele>617.7</ele>
        <time>2026-03-16T14:05:25Z</time>
      </trkpt>
      <trkpt lat="48.40572" lon="7.3335">
        <ele>617.7</ele>
        <time>2026-03-16T14:05:30Z</time>
      </trkpt>
      <trkpt lat="48.40572" lon="7.3335">
        <ele>617.7</ele>
        <time>2026-03-16T14:05:35Z</time>
      </trkpt>
      <trkpt lat="48.40572" lon="7.3335">
        <ele>617.7</ele>
        <time>2026-03-16T14:05:40Z</time>
      </trkpt>
      <trkpt lat="48.40572" lon="7.3335">
        <ele>617.7</ele>
        <time>2026-03-16T14:05:45Z</time>
      </trkpt>
      <trkpt lat="48.40572" lon="7.3335">
        <ele>617.7</ele>
        <time>2026-03-16T14:05:50Z</time>
      </trkpt>
      <trkpt lat="48.40572" lon="7.3335">
        <ele>617.7</ele>
        <time>2026-03-16T14:05:55Z</time>
      </trkpt>
      <trkpt lat="48.40572" lon="7.3335">
        <ele>617.7</ele>
        <time>2026-03-16T14:06:00Z</time>
      </trkpt>
      <trkpt lat="48.40572" lon="7.3335">
        <ele>617.7</ele>
        <time>2026-03-16T14:06:05Z</time>
      </trkpt>
      <trkpt lat="48.40572" lon="7.3335">
        <ele>617.7</ele>
        <time>2026-03-16T14:06:10Z</time>
      </trkpt>
      <trkpt lat="48.40572" lon="7.3335">
        <ele>617.7</ele>
        <time>2026-03-16T14:06:15Z</time>
      </trkpt>
      <trkpt lat="48.40572" lon="7.3335">
        <ele>617.7</ele>
        <time>2026-03-16T14:06:20Z</time>
      </trkpt>
      <trkpt lat="48.40583" lon="7.33351">
        <ele>616.8</ele>
        <time>2026-03-16T14:06:25Z</time>
      </trkpt>
      <trkpt lat="48.40583" lon="7.33353">
        <ele>617.1</ele>
        <time>2026-03-16T14:06:30Z</time>
      </trkpt>
      <trkpt lat="48.40583" lon="7.33353">
        <ele>617.1</ele>
        <time>2026-03-16T14:06:35Z</time>
      </trkpt>
      <trkpt lat="48.40583" lon="7.33353">
        <ele>617.1</ele>
        <time>2026-03-16T14:06:40Z</time>
      </trkpt>
      <trkpt lat="48.40583" lon="7.33353">
        <ele>617.1</ele>
        <time>2026-03-16T14:06:45Z</time>
      </trkpt>
      <trkpt lat="48.40583" lon="7.33353">
        <ele>617.1</ele>
        <time>2026-03-16T14:06:50Z</time>
      </trkpt>
      <trkpt lat="48.40583" lon="7.33353">
        <ele>617.1</ele>
        <time>2026-03-16T14:06:55Z</time>
      </trkpt>
      <trkpt lat="48.40583" lon="7.33353">
        <ele>617.1</ele>
        <time>2026-03-16T14:07:00Z</time>
      </trkpt>
      <trkpt lat="48.40585" lon="7.33367">
        <ele>619.1</ele>
        <time>2026-03-16T14:07:05Z</time>
      </trkpt>
      <trkpt lat="48.40584" lon="7.33371">
        <ele>619.8</ele>
        <time>2026-03-16T14:07:10Z</time>
      </trkpt>
      <trkpt lat="48.40584" lon="7.33371">
        <ele>619.8</ele>
        <time>2026-03-16T14:07:15Z</time>
      </trkpt>
      <trkpt lat="48.40589" lon="7.33387">
        <ele>621.9</ele>
        <time>2026-03-16T14:07:20Z</time>
      </trkpt>
      <trkpt lat="48.4059" lon="7.33389">
        <ele>622.1</ele>
        <time>2026-03-16T14:07:25Z</time>
      </trkpt>
      <trkpt lat="48.40597" lon="7.33399">
        <ele>622.9</ele>
        <time>2026-03-16T14:07:30Z</time>
      </trkpt>
      <trkpt lat="48.406" lon="7.33402">
        <ele>623.1</ele>
        <time>2026-03-16T14:07:35Z</time>
      </trkpt>
      <trkpt lat="48.406" lon="7.33402">
        <ele>623.1</ele>
        <time>2026-03-16T14:07:40Z</time>
      </trkpt>
      <trkpt lat="48.40604" lon="7.33414">
        <ele>624.4</ele>
        <time>2026-03-16T14:07:45Z</time>
      </trkpt>
      <trkpt lat="48.40604" lon="7.33415">
        <ele>624.5</ele>
        <time>2026-03-16T14:07:50Z</time>
      </trkpt>
      <trkpt lat="48.40604" lon="7.33415">
        <ele>624.5</ele>
        <time>2026-03-16T14:07:55Z</time>
      </trkpt>
      <trkpt lat="48.40604" lon="7.33415">
        <ele>624.5</ele>
        <time>2026-03-16T14:08:00Z</time>
      </trkpt>
      <trkpt lat="48.40604" lon="7.33415">
        <ele>624.5</ele>
        <time>2026-03-16T14:08:05Z</time>
      </trkpt>
      <trkpt lat="48.40604" lon="7.33415">
        <ele>624.5</ele>
        <time>2026-03-16T14:08:10Z</time>
      </trkpt>
      <trkpt lat="48.40604" lon="7.33415">
        <ele>624.5</ele>
        <time>2026-03-16T14:08:15Z</time>
      </trkpt>
      <trkpt lat="48.40604" lon="7.33415">
        <ele>624.5</ele>
        <time>2026-03-16T14:08:20Z</time>
      </trkpt>
      <trkpt lat="48.40611" lon="7.33424">
        <ele>624.9</ele>
        <time>2026-03-16T14:08:25Z</time>
      </trkpt>
      <trkpt lat="48.40614" lon="7.33431">
        <ele>625.3</ele>
        <time>2026-03-16T14:08:30Z</time>
      </trkpt>
      <trkpt lat="48.40614" lon="7.33431">
        <ele>625.3</ele>
        <time>2026-03-16T14:08:35Z</time>
      </trkpt>
      <trkpt lat="48.40618" lon="7.33449">
        <ele>627</ele>
        <time>2026-03-16T14:08:40Z</time>
      </trkpt>
      <trkpt lat="48.40618" lon="7.33449">
        <ele>627</ele>
        <time>2026-03-16T14:08:45Z</time>
      </trkpt>
      <trkpt lat="48.40618" lon="7.33449">
        <ele>627</ele>
        <time>2026-03-16T14:08:50Z</time>
      </trkpt>
      <trkpt lat="48.40624" lon="7.33465">
        <ele>628.1</ele>
        <time>2026-03-16T14:08:55Z</time>
      </trkpt>
      <trkpt lat="48.40624" lon="7.33465">
        <ele>628.1</ele>
        <time>2026-03-16T14:09:00Z</time>
      </trkpt>
      <trkpt lat="48.40631" lon="7.3348">
        <ele>629</ele>
        <time>2026-03-16T14:09:05Z</time>
      </trkpt>
      <trkpt lat="48.40631" lon="7.3348">
        <ele>629</ele>
        <time>2026-03-16T14:09:10Z</time>
      </trkpt>
      <trkpt lat="48.40631" lon="7.3348">
        <ele>629</ele>
        <time>2026-03-16T14:09:15Z</time>
      </trkpt>
      <trkpt lat="48.40635" lon="7.33496">
        <ele>630.3</ele>
        <time>2026-03-16T14:09:20Z</time>
      </trkpt>
      <trkpt lat="48.40635" lon="7.33496">
        <ele>630.3</ele>
        <time>2026-03-16T14:09:25Z</time>
      </trkpt>
      <trkpt lat="48.40639" lon="7.33513">
        <ele>631.6</ele>
        <time>2026-03-16T14:09:30Z</time>
      </trkpt>
      <trkpt lat="48.40639" lon="7.33513">
        <ele>631.6</ele>
        <time>2026-03-16T14:09:35Z</time>
      </trkpt>
      <trkpt lat="48.40639" lon="7.33513">
        <ele>631.6</ele>
        <time>2026-03-16T14:09:40Z</time>
      </trkpt>
      <trkpt lat="48.40639" lon="7.33529">
        <ele>633.1</ele>
        <time>2026-03-16T14:09:45Z</time>
      </trkpt>
      <trkpt lat="48.40639" lon="7.33529">
        <ele>633.1</ele>
        <time>2026-03-16T14:09:50Z</time>
      </trkpt>
      <trkpt lat="48.40639" lon="7.33529">
        <ele>633.1</ele>
        <time>2026-03-16T14:09:55Z</time>
      </trkpt>
      <trkpt lat="48.40639" lon="7.33529">
        <ele>633.1</ele>
        <time>2026-03-16T14:10:00Z</time>
      </trkpt>
      <trkpt lat="48.40645" lon="7.33541">
        <ele>633.9</ele>
        <time>2026-03-16T14:10:05Z</time>
      </trkpt>
      <trkpt lat="48.40645" lon="7.33541">
        <ele>633.9</ele>
        <time>2026-03-16T14:10:10Z</time>
      </trkpt>
      <trkpt lat="48.40645" lon="7.33541">
        <ele>633.9</ele>
        <time>2026-03-16T14:10:15Z</time>
      </trkpt>
      <trkpt lat="48.40645" lon="7.33541">
        <ele>633.9</ele>
        <time>2026-03-16T14:10:20Z</time>
      </trkpt>
      <trkpt lat="48.40645" lon="7.33541">
        <ele>633.9</ele>
        <time>2026-03-16T14:10:25Z</time>
      </trkpt>
      <trkpt lat="48.40645" lon="7.33541">
        <ele>633.9</ele>
        <time>2026-03-16T14:10:30Z</time>
      </trkpt>
      <trkpt lat="48.40645" lon="7.33541">
        <ele>633.9</ele>
        <time>2026-03-16T14:10:35Z</time>
      </trkpt>
      <trkpt lat="48.40645" lon="7.33541">
        <ele>633.9</ele>
        <time>2026-03-16T14:10:40Z</time>
      </trkpt>
      <trkpt lat="48.40644" lon="7.33555">
        <ele>635.4</ele>
        <time>2026-03-16T14:10:45Z</time>
      </trkpt>
      <trkpt lat="48.40644" lon="7.33559">
        <ele>635.8</ele>
        <time>2026-03-16T14:10:50Z</time>
      </trkpt>
      <trkpt lat="48.40644" lon="7.33559">
        <ele>635.8</ele>
        <time>2026-03-16T14:10:55Z</time>
      </trkpt>
      <trkpt lat="48.40646" lon="7.33575">
        <ele>637.4</ele>
        <time>2026-03-16T14:11:00Z</time>
      </trkpt>
      <trkpt lat="48.40649" lon="7.3359">
        <ele>638.4</ele>
        <time>2026-03-16T14:11:05Z</time>
      </trkpt>
      <trkpt lat="48.40649" lon="7.33604">
        <ele>638.9</ele>
        <time>2026-03-16T14:11:10Z</time>
      </trkpt>
      <trkpt lat="48.40653" lon="7.33612">
        <ele>639.3</ele>
        <time>2026-03-16T14:11:15Z</time>
      </trkpt>
      <trkpt lat="48.40656" lon="7.33621">
        <ele>639.8</ele>
        <time>2026-03-16T14:11:20Z</time>
      </trkpt>
      <trkpt lat="48.40659" lon="7.33628">
        <ele>640.3</ele>
        <time>2026-03-16T14:11:25Z</time>
      </trkpt>
      <trkpt lat="48.40659" lon="7.33628">
        <ele>640.3</ele>
        <time>2026-03-16T14:11:30Z</time>
      </trkpt>
      <trkpt lat="48.40661" lon="7.33645">
        <ele>641.3</ele>
        <time>2026-03-16T14:11:35Z</time>
      </trkpt>
      <trkpt lat="48.40662" lon="7.33647">
        <ele>641.4</ele>
        <time>2026-03-16T14:11:40Z</time>
      </trkpt>
      <trkpt lat="48.40662" lon="7.33647">
        <ele>641.4</ele>
        <time>2026-03-16T14:11:45Z</time>
      </trkpt>
      <trkpt lat="48.40667" lon="7.3366">
        <ele>642.6</ele>
        <time>2026-03-16T14:11:50Z</time>
      </trkpt>
      <trkpt lat="48.40667" lon="7.3366">
        <ele>642.6</ele>
        <time>2026-03-16T14:11:55Z</time>
      </trkpt>
      <trkpt lat="48.40667" lon="7.3366">
        <ele>642.6</ele>
        <time>2026-03-16T14:12:00Z</time>
      </trkpt>
      <trkpt lat="48.40667" lon="7.3366">
        <ele>642.6</ele>
        <time>2026-03-16T14:12:05Z</time>
      </trkpt>
      <trkpt lat="48.40667" lon="7.3366">
        <ele>642.6</ele>
        <time>2026-03-16T14:12:10Z</time>
      </trkpt>
      <trkpt lat="48.40667" lon="7.3366">
        <ele>642.6</ele>
        <time>2026-03-16T14:12:15Z</time>
      </trkpt>
      <trkpt lat="48.40667" lon="7.3366">
        <ele>642.6</ele>
        <time>2026-03-16T14:12:20Z</time>
      </trkpt>
      <trkpt lat="48.40667" lon="7.33675">
        <ele>642.3</ele>
        <time>2026-03-16T14:12:25Z</time>
      </trkpt>
      <trkpt lat="48.40668" lon="7.33676">
        <ele>642.2</ele>
        <time>2026-03-16T14:12:30Z</time>
      </trkpt>
      <trkpt lat="48.40674" lon="7.33687">
        <ele>641.3</ele>
        <time>2026-03-16T14:12:35Z</time>
      </trkpt>
      <trkpt lat="48.40676" lon="7.3369">
        <ele>641.1</ele>
        <time>2026-03-16T14:12:40Z</time>
      </trkpt>
      <trkpt lat="48.40676" lon="7.3369">
        <ele>641.1</ele>
        <time>2026-03-16T14:12:45Z</time>
      </trkpt>
      <trkpt lat="48.40678" lon="7.33704">
        <ele>640.1</ele>
        <time>2026-03-16T14:12:50Z</time>
      </trkpt>
      <trkpt lat="48.4068" lon="7.33707">
        <ele>639.9</ele>
        <time>2026-03-16T14:12:55Z</time>
      </trkpt>
      <trkpt lat="48.4068" lon="7.33707">
        <ele>639.9</ele>
        <time>2026-03-16T14:13:00Z</time>
      </trkpt>
      <trkpt lat="48.40685" lon="7.33725">
        <ele>638.9</ele>
        <time>2026-03-16T14:13:05Z</time>
      </trkpt>
      <trkpt lat="48.40685" lon="7.33725">
        <ele>638.9</ele>
        <time>2026-03-16T14:13:10Z</time>
      </trkpt>
      <trkpt lat="48.40688" lon="7.33739">
        <ele>638.2</ele>
        <time>2026-03-16T14:13:15Z</time>
      </trkpt>
      <trkpt lat="48.40689" lon="7.3374">
        <ele>638.2</ele>
        <time>2026-03-16T14:13:20Z</time>
      </trkpt>
      <trkpt lat="48.40697" lon="7.33748">
        <ele>638.3</ele>
        <time>2026-03-16T14:13:25Z</time>
      </trkpt>
      <trkpt lat="48.40699" lon="7.33752">
        <ele>638.4</ele>
        <time>2026-03-16T14:13:30Z</time>
      </trkpt>
      <trkpt lat="48.40699" lon="7.33752">
        <ele>638.4</ele>
        <time>2026-03-16T14:13:35Z</time>
      </trkpt>
      <trkpt lat="48.40708" lon="7.33764">
        <ele>639.1</ele>
        <time>2026-03-16T14:13:40Z</time>
      </trkpt>
      <trkpt lat="48.40709" lon="7.33765">
        <ele>639.2</ele>
        <time>2026-03-16T14:13:45Z</time>
      </trkpt>
      <trkpt lat="48.40719" lon="7.33769">
        <ele>639.9</ele>
        <time>2026-03-16T14:13:50Z</time>
      </trkpt>
      <trkpt lat="48.4072" lon="7.3377">
        <ele>640</ele>
        <time>2026-03-16T14:13:55Z</time>
      </trkpt>
      <trkpt lat="48.4072" lon="7.3377">
        <ele>640</ele>
        <time>2026-03-16T14:14:00Z</time>
      </trkpt>
      <trkpt lat="48.4073" lon="7.33777">
        <ele>640.7</ele>
        <time>2026-03-16T14:14:05Z</time>
      </trkpt>
      <trkpt lat="48.4073" lon="7.33777">
        <ele>640.7</ele>
        <time>2026-03-16T14:14:10Z</time>
      </trkpt>
      <trkpt lat="48.40741" lon="7.33781">
        <ele>641.4</ele>
        <time>2026-03-16T14:14:15Z</time>
      </trkpt>
      <trkpt lat="48.40741" lon="7.33781">
        <ele>641.4</ele>
        <time>2026-03-16T14:14:20Z</time>
      </trkpt>
      <trkpt lat="48.40741" lon="7.33781">
        <ele>641.4</ele>
        <time>2026-03-16T14:14:25Z</time>
      </trkpt>
      <trkpt lat="48.40751" lon="7.33783">
        <ele>642.2</ele>
        <time>2026-03-16T14:14:30Z</time>
      </trkpt>
      <trkpt lat="48.40753" lon="7.33783">
        <ele>642.5</ele>
        <time>2026-03-16T14:14:35Z</time>
      </trkpt>
      <trkpt lat="48.40753" lon="7.33783">
        <ele>642.5</ele>
        <time>2026-03-16T14:14:40Z</time>
      </trkpt>
      <trkpt lat="48.40766" lon="7.33773">
        <ele>644.8</ele>
        <time>2026-03-16T14:14:45Z</time>
      </trkpt>
      <trkpt lat="48.40766" lon="7.33773">
        <ele>644.8</ele>
        <time>2026-03-16T14:14:50Z</time>
      </trkpt>
      <trkpt lat="48.40775" lon="7.33766">
        <ele>646.4</ele>
        <time>2026-03-16T14:14:55Z</time>
      </trkpt>
      <trkpt lat="48.40775" lon="7.33765">
        <ele>646.4</ele>
        <time>2026-03-16T14:15:00Z</time>
      </trkpt>
      <trkpt lat="48.40785" lon="7.33763">
        <ele>648.1</ele>
        <time>2026-03-16T14:15:05Z</time>
      </trkpt>
      <trkpt lat="48.40788" lon="7.33763">
        <ele>648.6</ele>
        <time>2026-03-16T14:15:10Z</time>
      </trkpt>
      <trkpt lat="48.40788" lon="7.33763">
        <ele>648.6</ele>
        <time>2026-03-16T14:15:15Z</time>
      </trkpt>
      <trkpt lat="48.40798" lon="7.33774">
        <ele>650.6</ele>
        <time>2026-03-16T14:15:20Z</time>
      </trkpt>
      <trkpt lat="48.40798" lon="7.33776">
        <ele>650.6</ele>
        <time>2026-03-16T14:15:25Z</time>
      </trkpt>
      <trkpt lat="48.40798" lon="7.33776">
        <ele>650.6</ele>
        <time>2026-03-16T14:15:30Z</time>
      </trkpt>
      <trkpt lat="48.40807" lon="7.33791">
        <ele>652.6</ele>
        <time>2026-03-16T14:15:35Z</time>
      </trkpt>
      <trkpt lat="48.40807" lon="7.33791">
        <ele>652.6</ele>
        <time>2026-03-16T14:15:40Z</time>
      </trkpt>
      <trkpt lat="48.40815" lon="7.338">
        <ele>654.3</ele>
        <time>2026-03-16T14:15:45Z</time>
      </trkpt>
      <trkpt lat="48.40816" lon="7.33801">
        <ele>654.5</ele>
        <time>2026-03-16T14:15:50Z</time>
      </trkpt>
      <trkpt lat="48.40816" lon="7.33801">
        <ele>654.5</ele>
        <time>2026-03-16T14:15:55Z</time>
      </trkpt>
      <trkpt lat="48.40816" lon="7.33801">
        <ele>654.5</ele>
        <time>2026-03-16T14:16:00Z</time>
      </trkpt>
      <trkpt lat="48.40824" lon="7.33815">
        <ele>656.5</ele>
        <time>2026-03-16T14:16:05Z</time>
      </trkpt>
      <trkpt lat="48.40824" lon="7.33816">
        <ele>656.5</ele>
        <time>2026-03-16T14:16:10Z</time>
      </trkpt>
      <trkpt lat="48.40824" lon="7.33816">
        <ele>656.5</ele>
        <time>2026-03-16T14:16:15Z</time>
      </trkpt>
      <trkpt lat="48.40824" lon="7.33816">
        <ele>656.5</ele>
        <time>2026-03-16T14:16:20Z</time>
      </trkpt>
      <trkpt lat="48.40832" lon="7.33825">
        <ele>658.4</ele>
        <time>2026-03-16T14:16:25Z</time>
      </trkpt>
      <trkpt lat="48.40832" lon="7.33825">
        <ele>658.4</ele>
        <time>2026-03-16T14:16:30Z</time>
      </trkpt>
      <trkpt lat="48.40832" lon="7.33825">
        <ele>658.4</ele>
        <time>2026-03-16T14:16:35Z</time>
      </trkpt>
      <trkpt lat="48.40832" lon="7.33825">
        <ele>658.4</ele>
        <time>2026-03-16T14:16:40Z</time>
      </trkpt>
      <trkpt lat="48.40832" lon="7.33825">
        <ele>658.4</ele>
        <time>2026-03-16T14:16:45Z</time>
      </trkpt>
      <trkpt lat="48.40832" lon="7.33825">
        <ele>658.4</ele>
        <time>2026-03-16T14:16:50Z</time>
      </trkpt>
      <trkpt lat="48.40832" lon="7.33825">
        <ele>658.4</ele>
        <time>2026-03-16T14:16:55Z</time>
      </trkpt>
      <trkpt lat="48.40832" lon="7.33825">
        <ele>658.4</ele>
        <time>2026-03-16T14:17:00Z</time>
      </trkpt>
      <trkpt lat="48.40832" lon="7.33825">
        <ele>658.4</ele>
        <time>2026-03-16T14:17:05Z</time>
      </trkpt>
      <trkpt lat="48.40832" lon="7.33825">
        <ele>658.4</ele>
        <time>2026-03-16T14:17:10Z</time>
      </trkpt>
      <trkpt lat="48.40837" lon="7.33836">
        <ele>659.6</ele>
        <time>2026-03-16T14:17:15Z</time>
      </trkpt>
      <trkpt lat="48.40839" lon="7.33838">
        <ele>659.9</ele>
        <time>2026-03-16T14:17:20Z</time>
      </trkpt>
      <trkpt lat="48.40839" lon="7.33838">
        <ele>659.9</ele>
        <time>2026-03-16T14:17:25Z</time>
      </trkpt>
      <trkpt lat="48.40842" lon="7.33856">
        <ele>660.7</ele>
        <time>2026-03-16T14:17:30Z</time>
      </trkpt>
      <trkpt lat="48.40843" lon="7.33858">
        <ele>660.9</ele>
        <time>2026-03-16T14:17:35Z</time>
      </trkpt>
      <trkpt lat="48.4085" lon="7.33873">
        <ele>662.2</ele>
        <time>2026-03-16T14:17:40Z</time>
      </trkpt>
      <trkpt lat="48.4085" lon="7.33873">
        <ele>662.2</ele>
        <time>2026-03-16T14:17:45Z</time>
      </trkpt>
      <trkpt lat="48.40862" lon="7.33875">
        <ele>663.8</ele>
        <time>2026-03-16T14:17:50Z</time>
      </trkpt>
      <trkpt lat="48.40863" lon="7.33876">
        <ele>663.9</ele>
        <time>2026-03-16T14:17:55Z</time>
      </trkpt>
      <trkpt lat="48.40875" lon="7.33883">
        <ele>665.6</ele>
        <time>2026-03-16T14:18:00Z</time>
      </trkpt>
      <trkpt lat="48.40876" lon="7.33883">
        <ele>665.7</ele>
        <time>2026-03-16T14:18:05Z</time>
      </trkpt>
      <trkpt lat="48.40886" lon="7.33889">
        <ele>667.1</ele>
        <time>2026-03-16T14:18:10Z</time>
      </trkpt>
      <trkpt lat="48.40888" lon="7.33891">
        <ele>667.3</ele>
        <time>2026-03-16T14:18:15Z</time>
      </trkpt>
      <trkpt lat="48.40897" lon="7.33898">
        <ele>668.5</ele>
        <time>2026-03-16T14:18:20Z</time>
      </trkpt>
      <trkpt lat="48.40898" lon="7.33899">
        <ele>668.7</ele>
        <time>2026-03-16T14:18:25Z</time>
      </trkpt>
      <trkpt lat="48.40898" lon="7.33899">
        <ele>668.7</ele>
        <time>2026-03-16T14:18:30Z</time>
      </trkpt>
      <trkpt lat="48.40906" lon="7.33913">
        <ele>669.7</ele>
        <time>2026-03-16T14:18:35Z</time>
      </trkpt>
      <trkpt lat="48.40906" lon="7.33913">
        <ele>669.7</ele>
        <time>2026-03-16T14:18:40Z</time>
      </trkpt>
      <trkpt lat="48.40914" lon="7.33923">
        <ele>670.1</ele>
        <time>2026-03-16T14:18:45Z</time>
      </trkpt>
      <trkpt lat="48.40915" lon="7.33924">
        <ele>670.1</ele>
        <time>2026-03-16T14:18:50Z</time>
      </trkpt>
      <trkpt lat="48.4092" lon="7.33937">
        <ele>669.5</ele>
        <time>2026-03-16T14:18:55Z</time>
      </trkpt>
      <trkpt lat="48.4092" lon="7.33943">
        <ele>668.9</ele>
        <time>2026-03-16T14:19:00Z</time>
      </trkpt>
      <trkpt lat="48.4092" lon="7.33943">
        <ele>668.9</ele>
        <time>2026-03-16T14:19:05Z</time>
      </trkpt>
      <trkpt lat="48.40923" lon="7.33961">
        <ele>667.6</ele>
        <time>2026-03-16T14:19:10Z</time>
      </trkpt>
      <trkpt lat="48.40924" lon="7.33962">
        <ele>667.6</ele>
        <time>2026-03-16T14:19:15Z</time>
      </trkpt>
      <trkpt lat="48.40924" lon="7.33962">
        <ele>667.6</ele>
        <time>2026-03-16T14:19:20Z</time>
      </trkpt>
      <trkpt lat="48.4093" lon="7.33976">
        <ele>667.1</ele>
        <time>2026-03-16T14:19:25Z</time>
      </trkpt>
      <trkpt lat="48.4093" lon="7.33977">
        <ele>667</ele>
        <time>2026-03-16T14:19:30Z</time>
      </trkpt>
      <trkpt lat="48.40938" lon="7.33986">
        <ele>667.3</ele>
        <time>2026-03-16T14:19:35Z</time>
      </trkpt>
      <trkpt lat="48.40942" lon="7.33989">
        <ele>667.6</ele>
        <time>2026-03-16T14:19:40Z</time>
      </trkpt>
      <trkpt lat="48.40942" lon="7.33989">
        <ele>667.6</ele>
        <time>2026-03-16T14:19:45Z</time>
      </trkpt>
      <trkpt lat="48.40952" lon="7.33997">
        <ele>668.3</ele>
        <time>2026-03-16T14:19:50Z</time>
      </trkpt>
      <trkpt lat="48.40953" lon="7.33997">
        <ele>668.5</ele>
        <time>2026-03-16T14:19:55Z</time>
      </trkpt>
      <trkpt lat="48.40963" lon="7.33994">
        <ele>670.2</ele>
        <time>2026-03-16T14:20:00Z</time>
      </trkpt>
      <trkpt lat="48.40965" lon="7.33993">
        <ele>670.5</ele>
        <time>2026-03-16T14:20:05Z</time>
      </trkpt>
      <trkpt lat="48.40965" lon="7.33993">
        <ele>670.5</ele>
        <time>2026-03-16T14:20:10Z</time>
      </trkpt>
      <trkpt lat="48.40976" lon="7.3398">
        <ele>673.1</ele>
        <time>2026-03-16T14:20:15Z</time>
      </trkpt>
      <trkpt lat="48.40976" lon="7.3398">
        <ele>673.1</ele>
        <time>2026-03-16T14:20:20Z</time>
      </trkpt>
      <trkpt lat="48.40987" lon="7.33976">
        <ele>674.9</ele>
        <time>2026-03-16T14:20:25Z</time>
      </trkpt>
      <trkpt lat="48.40989" lon="7.33977">
        <ele>675.1</ele>
        <time>2026-03-16T14:20:30Z</time>
      </trkpt>
      <trkpt lat="48.41001" lon="7.33973">
        <ele>676.9</ele>
        <time>2026-03-16T14:20:35Z</time>
      </trkpt>
      <trkpt lat="48.41002" lon="7.33973">
        <ele>676.9</ele>
        <time>2026-03-16T14:20:40Z</time>
      </trkpt>
      <trkpt lat="48.41012" lon="7.33967">
        <ele>677.3</ele>
        <time>2026-03-16T14:20:45Z</time>
      </trkpt>
      <trkpt lat="48.41013" lon="7.33966">
        <ele>677.3</ele>
        <time>2026-03-16T14:20:50Z</time>
      </trkpt>
      <trkpt lat="48.41013" lon="7.33966">
        <ele>677.3</ele>
        <time>2026-03-16T14:20:55Z</time>
      </trkpt>
      <trkpt lat="48.41023" lon="7.33951">
        <ele>678.2</ele>
        <time>2026-03-16T14:21:00Z</time>
      </trkpt>
      <trkpt lat="48.41023" lon="7.33951">
        <ele>678.2</ele>
        <time>2026-03-16T14:21:05Z</time>
      </trkpt>
      <trkpt lat="48.41032" lon="7.33933">
        <ele>679.2</ele>
        <time>2026-03-16T14:21:10Z</time>
      </trkpt>
      <trkpt lat="48.41032" lon="7.33933">
        <ele>679.2</ele>
        <time>2026-03-16T14:21:15Z</time>
      </trkpt>
      <trkpt lat="48.41032" lon="7.33933">
        <ele>679.2</ele>
        <time>2026-03-16T14:21:20Z</time>
      </trkpt>
      <trkpt lat="48.41039" lon="7.33918">
        <ele>680</ele>
        <time>2026-03-16T14:21:25Z</time>
      </trkpt>
      <trkpt lat="48.41039" lon="7.33918">
        <ele>680</ele>
        <time>2026-03-16T14:21:30Z</time>
      </trkpt>
      <trkpt lat="48.4105" lon="7.33912">
        <ele>679.7</ele>
        <time>2026-03-16T14:21:35Z</time>
      </trkpt>
      <trkpt lat="48.41052" lon="7.33911">
        <ele>679.6</ele>
        <time>2026-03-16T14:21:40Z</time>
      </trkpt>
      <trkpt lat="48.41052" lon="7.33911">
        <ele>679.6</ele>
        <time>2026-03-16T14:21:45Z</time>
      </trkpt>
      <trkpt lat="48.41052" lon="7.33911">
        <ele>679.6</ele>
        <time>2026-03-16T14:21:50Z</time>
      </trkpt>
      <trkpt lat="48.41061" lon="7.33908">
        <ele>679.3</ele>
        <time>2026-03-16T14:21:55Z</time>
      </trkpt>
      <trkpt lat="48.41063" lon="7.33908">
        <ele>679.3</ele>
        <time>2026-03-16T14:22:00Z</time>
      </trkpt>
      <trkpt lat="48.41063" lon="7.33908">
        <ele>679.3</ele>
        <time>2026-03-16T14:22:05Z</time>
      </trkpt>
      <trkpt lat="48.41074" lon="7.3391">
        <ele>679.1</ele>
        <time>2026-03-16T14:22:10Z</time>
      </trkpt>
      <trkpt lat="48.41076" lon="7.3391">
        <ele>679.1</ele>
        <time>2026-03-16T14:22:15Z</time>
      </trkpt>
      <trkpt lat="48.41076" lon="7.3391">
        <ele>679.1</ele>
        <time>2026-03-16T14:22:20Z</time>
      </trkpt>
      <trkpt lat="48.41076" lon="7.3391">
        <ele>679.1</ele>
        <time>2026-03-16T14:22:25Z</time>
      </trkpt>
      <trkpt lat="48.41076" lon="7.3391">
        <ele>679.1</ele>
        <time>2026-03-16T14:22:30Z</time>
      </trkpt>
      <trkpt lat="48.41076" lon="7.3391">
        <ele>679.1</ele>
        <time>2026-03-16T14:22:35Z</time>
      </trkpt>
      <trkpt lat="48.41076" lon="7.3391">
        <ele>679.1</ele>
        <time>2026-03-16T14:22:40Z</time>
      </trkpt>
      <trkpt lat="48.41076" lon="7.3391">
        <ele>679.1</ele>
        <time>2026-03-16T14:22:45Z</time>
      </trkpt>
      <trkpt lat="48.41076" lon="7.3391">
        <ele>679.1</ele>
        <time>2026-03-16T14:22:50Z</time>
      </trkpt>
      <trkpt lat="48.41076" lon="7.3391">
        <ele>679.1</ele>
        <time>2026-03-16T14:22:55Z</time>
      </trkpt>
      <trkpt lat="48.41076" lon="7.3391">
        <ele>679.1</ele>
        <time>2026-03-16T14:23:00Z</time>
      </trkpt>
      <trkpt lat="48.41076" lon="7.3391">
        <ele>679.1</ele>
        <time>2026-03-16T14:23:05Z</time>
      </trkpt>
      <trkpt lat="48.41085" lon="7.33904">
        <ele>679.1</ele>
        <time>2026-03-16T14:23:10Z</time>
      </trkpt>
      <trkpt lat="48.41086" lon="7.33904">
        <ele>679.3</ele>
        <time>2026-03-16T14:23:15Z</time>
      </trkpt>
      <trkpt lat="48.41086" lon="7.33904">
        <ele>679.3</ele>
        <time>2026-03-16T14:23:20Z</time>
      </trkpt>
      <trkpt lat="48.41086" lon="7.33904">
        <ele>679.3</ele>
        <time>2026-03-16T14:23:25Z</time>
      </trkpt>
      <trkpt lat="48.41097" lon="7.3391">
        <ele>681</ele>
        <time>2026-03-16T14:23:30Z</time>
      </trkpt>
      <trkpt lat="48.41097" lon="7.3391">
        <ele>681</ele>
        <time>2026-03-16T14:23:35Z</time>
      </trkpt>
      <trkpt lat="48.41097" lon="7.3391">
        <ele>681</ele>
        <time>2026-03-16T14:23:40Z</time>
      </trkpt>
      <trkpt lat="48.41109" lon="7.33911">
        <ele>682.7</ele>
        <time>2026-03-16T14:23:45Z</time>
      </trkpt>
      <trkpt lat="48.41109" lon="7.33911">
        <ele>682.7</ele>
        <time>2026-03-16T14:23:50Z</time>
      </trkpt>
      <trkpt lat="48.41109" lon="7.33911">
        <ele>682.7</ele>
        <time>2026-03-16T14:23:55Z</time>
      </trkpt>
      <trkpt lat="48.4112" lon="7.33915">
        <ele>684.3</ele>
        <time>2026-03-16T14:24:00Z</time>
      </trkpt>
      <trkpt lat="48.4112" lon="7.33915">
        <ele>684.3</ele>
        <time>2026-03-16T14:24:05Z</time>
      </trkpt>
      <trkpt lat="48.4112" lon="7.33915">
        <ele>684.3</ele>
        <time>2026-03-16T14:24:10Z</time>
      </trkpt>
      <trkpt lat="48.4113" lon="7.33918">
        <ele>685.6</ele>
        <time>2026-03-16T14:24:15Z</time>
      </trkpt>
      <trkpt lat="48.4113" lon="7.33918">
        <ele>685.6</ele>
        <time>2026-03-16T14:24:20Z</time>
      </trkpt>
      <trkpt lat="48.41139" lon="7.33915">
        <ele>687.1</ele>
        <time>2026-03-16T14:24:25Z</time>
      </trkpt>
      <trkpt lat="48.41141" lon="7.33913">
        <ele>687.4</ele>
        <time>2026-03-16T14:24:30Z</time>
      </trkpt>
      <trkpt lat="48.41141" lon="7.33913">
        <ele>687.4</ele>
        <time>2026-03-16T14:24:35Z</time>
      </trkpt>
      <trkpt lat="48.4115" lon="7.33913">
        <ele>688.7</ele>
        <time>2026-03-16T14:24:40Z</time>
      </trkpt>
      <trkpt lat="48.41153" lon="7.33913">
        <ele>689.2</ele>
        <time>2026-03-16T14:24:45Z</time>
      </trkpt>
      <trkpt lat="48.41153" lon="7.33913">
        <ele>689.2</ele>
        <time>2026-03-16T14:24:50Z</time>
      </trkpt>
      <trkpt lat="48.41164" lon="7.33914">
        <ele>690.7</ele>
        <time>2026-03-16T14:24:55Z</time>
      </trkpt>
      <trkpt lat="48.41165" lon="7.33914">
        <ele>690.9</ele>
        <time>2026-03-16T14:25:00Z</time>
      </trkpt>
      <trkpt lat="48.41165" lon="7.33914">
        <ele>690.9</ele>
        <time>2026-03-16T14:25:05Z</time>
      </trkpt>
      <trkpt lat="48.41176" lon="7.33919">
        <ele>692.3</ele>
        <time>2026-03-16T14:25:10Z</time>
      </trkpt>
      <trkpt lat="48.41177" lon="7.33919">
        <ele>692.4</ele>
        <time>2026-03-16T14:25:15Z</time>
      </trkpt>
      <trkpt lat="48.41177" lon="7.33919">
        <ele>692.4</ele>
        <time>2026-03-16T14:25:20Z</time>
      </trkpt>
      <trkpt lat="48.41187" lon="7.33926">
        <ele>693.2</ele>
        <time>2026-03-16T14:25:25Z</time>
      </trkpt>
      <trkpt lat="48.41188" lon="7.33926">
        <ele>693.3</ele>
        <time>2026-03-16T14:25:30Z</time>
      </trkpt>
      <trkpt lat="48.41197" lon="7.33929">
        <ele>694.4</ele>
        <time>2026-03-16T14:25:35Z</time>
      </trkpt>
      <trkpt lat="48.412" lon="7.3393">
        <ele>694.8</ele>
        <time>2026-03-16T14:25:40Z</time>
      </trkpt>
      <trkpt lat="48.412" lon="7.3393">
        <ele>694.8</ele>
        <time>2026-03-16T14:25:45Z</time>
      </trkpt>
      <trkpt lat="48.41211" lon="7.33932">
        <ele>696.3</ele>
        <time>2026-03-16T14:25:50Z</time>
      </trkpt>
      <trkpt lat="48.41211" lon="7.33932">
        <ele>696.3</ele>
        <time>2026-03-16T14:25:55Z</time>
      </trkpt>
      <trkpt lat="48.41211" lon="7.33932">
        <ele>696.3</ele>
        <time>2026-03-16T14:26:00Z</time>
      </trkpt>
      <trkpt lat="48.41223" lon="7.33933">
        <ele>698.2</ele>
        <time>2026-03-16T14:26:05Z</time>
      </trkpt>
      <trkpt lat="48.41223" lon="7.33933">
        <ele>698.2</ele>
        <time>2026-03-16T14:26:10Z</time>
      </trkpt>
      <trkpt lat="48.41223" lon="7.33933">
        <ele>698.2</ele>
        <time>2026-03-16T14:26:15Z</time>
      </trkpt>
      <trkpt lat="48.41223" lon="7.33933">
        <ele>698.2</ele>
        <time>2026-03-16T14:26:20Z</time>
      </trkpt>
      <trkpt lat="48.41223" lon="7.33933">
        <ele>698.2</ele>
        <time>2026-03-16T14:26:25Z</time>
      </trkpt>
      <trkpt lat="48.41223" lon="7.33933">
        <ele>698.2</ele>
        <time>2026-03-16T14:26:30Z</time>
      </trkpt>
      <trkpt lat="48.41235" lon="7.33929">
        <ele>700.7</ele>
        <time>2026-03-16T14:26:35Z</time>
      </trkpt>
      <trkpt lat="48.41235" lon="7.33929">
        <ele>700.7</ele>
        <time>2026-03-16T14:26:40Z</time>
      </trkpt>
      <trkpt lat="48.41235" lon="7.33929">
        <ele>700.7</ele>
        <time>2026-03-16T14:26:45Z</time>
      </trkpt>
      <trkpt lat="48.41235" lon="7.33929">
        <ele>700.7</ele>
        <time>2026-03-16T14:26:50Z</time>
      </trkpt>
      <trkpt lat="48.41235" lon="7.33929">
        <ele>700.7</ele>
        <time>2026-03-16T14:26:55Z</time>
      </trkpt>
      <trkpt lat="48.41235" lon="7.33929">
        <ele>700.7</ele>
        <time>2026-03-16T14:27:00Z</time>
      </trkpt>
      <trkpt lat="48.41246" lon="7.33927">
        <ele>702.8</ele>
        <time>2026-03-16T14:27:05Z</time>
      </trkpt>
      <trkpt lat="48.41246" lon="7.33927">
        <ele>702.8</ele>
        <time>2026-03-16T14:27:10Z</time>
      </trkpt>
      <trkpt lat="48.41257" lon="7.33927">
        <ele>703.7</ele>
        <time>2026-03-16T14:27:15Z</time>
      </trkpt>
      <trkpt lat="48.41264" lon="7.33926">
        <ele>704</ele>
        <time>2026-03-16T14:27:20Z</time>
      </trkpt>
      <trkpt lat="48.41264" lon="7.33926">
        <ele>704</ele>
        <time>2026-03-16T14:27:25Z</time>
      </trkpt>
      <trkpt lat="48.41264" lon="7.33926">
        <ele>704</ele>
        <time>2026-03-16T14:27:30Z</time>
      </trkpt>
      <trkpt lat="48.41276" lon="7.33924">
        <ele>704.6</ele>
        <time>2026-03-16T14:27:35Z</time>
      </trkpt>
      <trkpt lat="48.41276" lon="7.33924">
        <ele>704.6</ele>
        <time>2026-03-16T14:27:40Z</time>
      </trkpt>
      <trkpt lat="48.41286" lon="7.33921">
        <ele>705.2</ele>
        <time>2026-03-16T14:27:45Z</time>
      </trkpt>
      <trkpt lat="48.41289" lon="7.3392">
        <ele>705.5</ele>
        <time>2026-03-16T14:27:50Z</time>
      </trkpt>
      <trkpt lat="48.41289" lon="7.3392">
        <ele>705.5</ele>
        <time>2026-03-16T14:27:55Z</time>
      </trkpt>
      <trkpt lat="48.41299" lon="7.3392">
        <ele>705.7</ele>
        <time>2026-03-16T14:28:00Z</time>
      </trkpt>
      <trkpt lat="48.413" lon="7.3392">
        <ele>705.7</ele>
        <time>2026-03-16T14:28:05Z</time>
      </trkpt>
      <trkpt lat="48.4131" lon="7.33921">
        <ele>705.8</ele>
        <time>2026-03-16T14:28:10Z</time>
      </trkpt>
      <trkpt lat="48.41313" lon="7.33921">
        <ele>705.9</ele>
        <time>2026-03-16T14:28:15Z</time>
      </trkpt>
      <trkpt lat="48.41313" lon="7.33921">
        <ele>705.9</ele>
        <time>2026-03-16T14:28:20Z</time>
      </trkpt>
      <trkpt lat="48.41327" lon="7.33923">
        <ele>705.9</ele>
        <time>2026-03-16T14:28:25Z</time>
      </trkpt>
      <trkpt lat="48.41327" lon="7.33924">
        <ele>705.8</ele>
        <time>2026-03-16T14:28:30Z</time>
      </trkpt>
      <trkpt lat="48.41327" lon="7.33924">
        <ele>705.8</ele>
        <time>2026-03-16T14:28:35Z</time>
      </trkpt>
      <trkpt lat="48.41338" lon="7.33928">
        <ele>705.8</ele>
        <time>2026-03-16T14:28:40Z</time>
      </trkpt>
      <trkpt lat="48.4134" lon="7.33929">
        <ele>705.8</ele>
        <time>2026-03-16T14:28:45Z</time>
      </trkpt>
      <trkpt lat="48.41353" lon="7.33931">
        <ele>706.7</ele>
        <time>2026-03-16T14:28:50Z</time>
      </trkpt>
      <trkpt lat="48.41355" lon="7.33931">
        <ele>706.9</ele>
        <time>2026-03-16T14:28:55Z</time>
      </trkpt>
      <trkpt lat="48.41366" lon="7.3393">
        <ele>708</ele>
        <time>2026-03-16T14:29:00Z</time>
      </trkpt>
      <trkpt lat="48.41367" lon="7.3393">
        <ele>708.1</ele>
        <time>2026-03-16T14:29:05Z</time>
      </trkpt>
      <trkpt lat="48.41381" lon="7.3393">
        <ele>709.4</ele>
        <time>2026-03-16T14:29:10Z</time>
      </trkpt>
      <trkpt lat="48.41385" lon="7.33931">
        <ele>709.6</ele>
        <time>2026-03-16T14:29:15Z</time>
      </trkpt>
      <trkpt lat="48.41399" lon="7.33932">
        <ele>710.7</ele>
        <time>2026-03-16T14:29:20Z</time>
      </trkpt>
      <trkpt lat="48.41401" lon="7.33933">
        <ele>710.8</ele>
        <time>2026-03-16T14:29:25Z</time>
      </trkpt>
      <trkpt lat="48.41401" lon="7.33933">
        <ele>710.8</ele>
        <time>2026-03-16T14:29:30Z</time>
      </trkpt>
      <trkpt lat="48.41412" lon="7.33939">
        <ele>711.2</ele>
        <time>2026-03-16T14:29:35Z</time>
      </trkpt>
      <trkpt lat="48.41412" lon="7.33939">
        <ele>711.2</ele>
        <time>2026-03-16T14:29:40Z</time>
      </trkpt>
      <trkpt lat="48.41425" lon="7.33948">
        <ele>711.9</ele>
        <time>2026-03-16T14:29:45Z</time>
      </trkpt>
      <trkpt lat="48.41427" lon="7.33949">
        <ele>712.1</ele>
        <time>2026-03-16T14:29:50Z</time>
      </trkpt>
      <trkpt lat="48.41436" lon="7.33956">
        <ele>712.9</ele>
        <time>2026-03-16T14:29:55Z</time>
      </trkpt>
      <trkpt lat="48.41437" lon="7.33957">
        <ele>712.9</ele>
        <time>2026-03-16T14:30:00Z</time>
      </trkpt>
      <trkpt lat="48.41437" lon="7.33957">
        <ele>712.9</ele>
        <time>2026-03-16T14:30:05Z</time>
      </trkpt>
      <trkpt lat="48.41447" lon="7.3396">
        <ele>714.3</ele>
        <time>2026-03-16T14:30:10Z</time>
      </trkpt>
      <trkpt lat="48.41451" lon="7.33961">
        <ele>714.8</ele>
        <time>2026-03-16T14:30:15Z</time>
      </trkpt>
      <trkpt lat="48.41451" lon="7.33961">
        <ele>714.8</ele>
        <time>2026-03-16T14:30:20Z</time>
      </trkpt>
      <trkpt lat="48.41462" lon="7.33969">
        <ele>715.9</ele>
        <time>2026-03-16T14:30:25Z</time>
      </trkpt>
      <trkpt lat="48.41462" lon="7.33969">
        <ele>715.9</ele>
        <time>2026-03-16T14:30:30Z</time>
      </trkpt>
      <trkpt lat="48.41462" lon="7.33969">
        <ele>715.9</ele>
        <time>2026-03-16T14:30:35Z</time>
      </trkpt>
      <trkpt lat="48.41476" lon="7.33978">
        <ele>717.5</ele>
        <time>2026-03-16T14:30:40Z</time>
      </trkpt>
      <trkpt lat="48.41485" lon="7.33984">
        <ele>718.6</ele>
        <time>2026-03-16T14:30:45Z</time>
      </trkpt>
      <trkpt lat="48.4149" lon="7.33994">
        <ele>718.7</ele>
        <time>2026-03-16T14:30:50Z</time>
      </trkpt>
      <trkpt lat="48.41491" lon="7.33997">
        <ele>718.6</ele>
        <time>2026-03-16T14:30:55Z</time>
      </trkpt>
      <trkpt lat="48.41498" lon="7.34013">
        <ele>718.7</ele>
        <time>2026-03-16T14:31:00Z</time>
      </trkpt>
      <trkpt lat="48.41499" lon="7.34016">
        <ele>718.7</ele>
        <time>2026-03-16T14:31:05Z</time>
      </trkpt>
      <trkpt lat="48.41499" lon="7.34016">
        <ele>718.7</ele>
        <time>2026-03-16T14:31:10Z</time>
      </trkpt>
      <trkpt lat="48.41509" lon="7.34008">
        <ele>720.1</ele>
        <time>2026-03-16T14:31:15Z</time>
      </trkpt>
      <trkpt lat="48.4151" lon="7.34005">
        <ele>720.4</ele>
        <time>2026-03-16T14:31:20Z</time>
      </trkpt>
      <trkpt lat="48.4152" lon="7.3398">
        <ele>723.2</ele>
        <time>2026-03-16T14:31:25Z</time>
      </trkpt>
      <trkpt lat="48.4152" lon="7.3398">
        <ele>723.2</ele>
        <time>2026-03-16T14:31:30Z</time>
      </trkpt>
      <trkpt lat="48.4153" lon="7.33964">
        <ele>725.7</ele>
        <time>2026-03-16T14:31:35Z</time>
      </trkpt>
      <trkpt lat="48.4153" lon="7.33964">
        <ele>725.7</ele>
        <time>2026-03-16T14:31:40Z</time>
      </trkpt>
      <trkpt lat="48.4154" lon="7.33954">
        <ele>727.8</ele>
        <time>2026-03-16T14:31:45Z</time>
      </trkpt>
      <trkpt lat="48.41551" lon="7.33946">
        <ele>729.9</ele>
        <time>2026-03-16T14:31:50Z</time>
      </trkpt>
      <trkpt lat="48.41554" lon="7.33945">
        <ele>730.4</ele>
        <time>2026-03-16T14:31:55Z</time>
      </trkpt>
      <trkpt lat="48.41568" lon="7.33938">
        <ele>733</ele>
        <time>2026-03-16T14:32:00Z</time>
      </trkpt>
      <trkpt lat="48.41575" lon="7.33935">
        <ele>734.3</ele>
        <time>2026-03-16T14:32:05Z</time>
      </trkpt>
      <trkpt lat="48.41581" lon="7.33934">
        <ele>735.2</ele>
        <time>2026-03-16T14:32:10Z</time>
      </trkpt>
      <trkpt lat="48.41588" lon="7.33935">
        <ele>735.6</ele>
        <time>2026-03-16T14:32:15Z</time>
      </trkpt>
      <trkpt lat="48.41595" lon="7.33935">
        <ele>735.9</ele>
        <time>2026-03-16T14:32:20Z</time>
      </trkpt>
      <trkpt lat="48.41603" lon="7.33939">
        <ele>735.7</ele>
        <time>2026-03-16T14:32:25Z</time>
      </trkpt>
      <trkpt lat="48.41603" lon="7.33939">
        <ele>735.7</ele>
        <time>2026-03-16T14:32:30Z</time>
      </trkpt>
      <trkpt lat="48.41614" lon="7.3395">
        <ele>734.5</ele>
        <time>2026-03-16T14:32:35Z</time>
      </trkpt>
      <trkpt lat="48.41619" lon="7.33957">
        <ele>733.5</ele>
        <time>2026-03-16T14:32:40Z</time>
      </trkpt>
      <trkpt lat="48.41625" lon="7.33961">
        <ele>733.1</ele>
        <time>2026-03-16T14:32:45Z</time>
      </trkpt>
      <trkpt lat="48.41632" lon="7.33968">
        <ele>732.1</ele>
        <time>2026-03-16T14:32:50Z</time>
      </trkpt>
      <trkpt lat="48.41636" lon="7.33976">
        <ele>730.8</ele>
        <time>2026-03-16T14:32:55Z</time>
      </trkpt>
      <trkpt lat="48.41642" lon="7.33981">
        <ele>730.1</ele>
        <time>2026-03-16T14:33:00Z</time>
      </trkpt>
      <trkpt lat="48.41645" lon="7.33996">
        <ele>727.5</ele>
        <time>2026-03-16T14:33:05Z</time>
      </trkpt>
      <trkpt lat="48.41645" lon="7.34001">
        <ele>726.7</ele>
        <time>2026-03-16T14:33:10Z</time>
      </trkpt>
      <trkpt lat="48.41642" lon="7.34018">
        <ele>726.5</ele>
        <time>2026-03-16T14:33:15Z</time>
      </trkpt>
      <trkpt lat="48.41636" lon="7.34023">
        <ele>726.3</ele>
        <time>2026-03-16T14:33:20Z</time>
      </trkpt>
      <trkpt lat="48.41636" lon="7.34023">
        <ele>726.3</ele>
        <time>2026-03-16T14:33:25Z</time>
      </trkpt>
      <trkpt lat="48.41636" lon="7.34023">
        <ele>726.3</ele>
        <time>2026-03-16T14:33:30Z</time>
      </trkpt>
      <trkpt lat="48.41636" lon="7.34023">
        <ele>726.3</ele>
        <time>2026-03-16T14:33:35Z</time>
      </trkpt>
      <trkpt lat="48.41629" lon="7.34037">
        <ele>725.8</ele>
        <time>2026-03-16T14:33:40Z</time>
      </trkpt>
      <trkpt lat="48.41629" lon="7.34037">
        <ele>725.8</ele>
        <time>2026-03-16T14:33:45Z</time>
      </trkpt>
      <trkpt lat="48.41629" lon="7.34037">
        <ele>725.8</ele>
        <time>2026-03-16T14:33:50Z</time>
      </trkpt>
      <trkpt lat="48.41626" lon="7.34056">
        <ele>725.2</ele>
        <time>2026-03-16T14:33:55Z</time>
      </trkpt>
      <trkpt lat="48.41626" lon="7.34056">
        <ele>725.2</ele>
        <time>2026-03-16T14:34:00Z</time>
      </trkpt>
      <trkpt lat="48.41626" lon="7.34056">
        <ele>725.2</ele>
        <time>2026-03-16T14:34:05Z</time>
      </trkpt>
      <trkpt lat="48.41617" lon="7.34067">
        <ele>724.3</ele>
        <time>2026-03-16T14:34:10Z</time>
      </trkpt>
      <trkpt lat="48.41617" lon="7.34067">
        <ele>724.3</ele>
        <time>2026-03-16T14:34:15Z</time>
      </trkpt>
      <trkpt lat="48.41608" lon="7.34079">
        <ele>723.2</ele>
        <time>2026-03-16T14:34:20Z</time>
      </trkpt>
      <trkpt lat="48.41608" lon="7.34079">
        <ele>723.2</ele>
        <time>2026-03-16T14:34:25Z</time>
      </trkpt>
      <trkpt lat="48.41603" lon="7.34094">
        <ele>722.1</ele>
        <time>2026-03-16T14:34:30Z</time>
      </trkpt>
      <trkpt lat="48.41602" lon="7.34098">
        <ele>721.8</ele>
        <time>2026-03-16T14:34:35Z</time>
      </trkpt>
      <trkpt lat="48.41602" lon="7.34098">
        <ele>721.8</ele>
        <time>2026-03-16T14:34:40Z</time>
      </trkpt>
      <trkpt lat="48.416" lon="7.34116">
        <ele>720.5</ele>
        <time>2026-03-16T14:34:45Z</time>
      </trkpt>
      <trkpt lat="48.416" lon="7.34116">
        <ele>720.5</ele>
        <time>2026-03-16T14:34:50Z</time>
      </trkpt>
      <trkpt lat="48.41595" lon="7.34134">
        <ele>718.7</ele>
        <time>2026-03-16T14:34:55Z</time>
      </trkpt>
      <trkpt lat="48.41595" lon="7.34134">
        <ele>718.7</ele>
        <time>2026-03-16T14:35:00Z</time>
      </trkpt>
      <trkpt lat="48.41595" lon="7.34134">
        <ele>718.7</ele>
        <time>2026-03-16T14:35:05Z</time>
      </trkpt>
      <trkpt lat="48.41593" lon="7.34151">
        <ele>717.2</ele>
        <time>2026-03-16T14:35:10Z</time>
      </trkpt>
      <trkpt lat="48.41592" lon="7.34152">
        <ele>716.9</ele>
        <time>2026-03-16T14:35:15Z</time>
      </trkpt>
      <trkpt lat="48.4159" lon="7.34167">
        <ele>715.5</ele>
        <time>2026-03-16T14:35:20Z</time>
      </trkpt>
      <trkpt lat="48.4159" lon="7.34172">
        <ele>715.8</ele>
        <time>2026-03-16T14:35:25Z</time>
      </trkpt>
      <trkpt lat="48.41589" lon="7.34185">
        <ele>716.5</ele>
        <time>2026-03-16T14:35:30Z</time>
      </trkpt>
      <trkpt lat="48.41587" lon="7.342">
        <ele>717.2</ele>
        <time>2026-03-16T14:35:35Z</time>
      </trkpt>
      <trkpt lat="48.41586" lon="7.3421">
        <ele>717.7</ele>
        <time>2026-03-16T14:35:40Z</time>
      </trkpt>
      <trkpt lat="48.41582" lon="7.3422">
        <ele>717.7</ele>
        <time>2026-03-16T14:35:45Z</time>
      </trkpt>
      <trkpt lat="48.41582" lon="7.34222">
        <ele>717.8</ele>
        <time>2026-03-16T14:35:50Z</time>
      </trkpt>
      <trkpt lat="48.41574" lon="7.3424">
        <ele>718</ele>
        <time>2026-03-16T14:35:55Z</time>
      </trkpt>
      <trkpt lat="48.41573" lon="7.34243">
        <ele>718.1</ele>
        <time>2026-03-16T14:36:00Z</time>
      </trkpt>
      <trkpt lat="48.41572" lon="7.34257">
        <ele>719.7</ele>
        <time>2026-03-16T14:36:05Z</time>
      </trkpt>
      <trkpt lat="48.41567" lon="7.34271">
        <ele>721.6</ele>
        <time>2026-03-16T14:36:10Z</time>
      </trkpt>
      <trkpt lat="48.41567" lon="7.34274">
        <ele>722.1</ele>
        <time>2026-03-16T14:36:15Z</time>
      </trkpt>
      <trkpt lat="48.41563" lon="7.34288">
        <ele>724.1</ele>
        <time>2026-03-16T14:36:20Z</time>
      </trkpt>
      <trkpt lat="48.41563" lon="7.34294">
        <ele>725.2</ele>
        <time>2026-03-16T14:36:25Z</time>
      </trkpt>
      <trkpt lat="48.4156" lon="7.34304">
        <ele>726.7</ele>
        <time>2026-03-16T14:36:30Z</time>
      </trkpt>
      <trkpt lat="48.4156" lon="7.34306">
        <ele>727.1</ele>
        <time>2026-03-16T14:36:35Z</time>
      </trkpt>
      <trkpt lat="48.41557" lon="7.34324">
        <ele>730.1</ele>
        <time>2026-03-16T14:36:40Z</time>
      </trkpt>
      <trkpt lat="48.41554" lon="7.34333">
        <ele>731.5</ele>
        <time>2026-03-16T14:36:45Z</time>
      </trkpt>
      <trkpt lat="48.41554" lon="7.34333">
        <ele>731.5</ele>
        <time>2026-03-16T14:36:50Z</time>
      </trkpt>
      <trkpt lat="48.41551" lon="7.34349">
        <ele>733.5</ele>
        <time>2026-03-16T14:36:55Z</time>
      </trkpt>
      <trkpt lat="48.41551" lon="7.3435">
        <ele>733.6</ele>
        <time>2026-03-16T14:37:00Z</time>
      </trkpt>
      <trkpt lat="48.41544" lon="7.34368">
        <ele>735.5</ele>
        <time>2026-03-16T14:37:05Z</time>
      </trkpt>
      <trkpt lat="48.41544" lon="7.34368">
        <ele>735.5</ele>
        <time>2026-03-16T14:37:10Z</time>
      </trkpt>
      <trkpt lat="48.41544" lon="7.34368">
        <ele>735.5</ele>
        <time>2026-03-16T14:37:15Z</time>
      </trkpt>
      <trkpt lat="48.41537" lon="7.34382">
        <ele>736.8</ele>
        <time>2026-03-16T14:37:20Z</time>
      </trkpt>
      <trkpt lat="48.41537" lon="7.34384">
        <ele>737.1</ele>
        <time>2026-03-16T14:37:25Z</time>
      </trkpt>
      <trkpt lat="48.41532" lon="7.34398">
        <ele>738.5</ele>
        <time>2026-03-16T14:37:30Z</time>
      </trkpt>
      <trkpt lat="48.41531" lon="7.34401">
        <ele>738.8</ele>
        <time>2026-03-16T14:37:35Z</time>
      </trkpt>
      <trkpt lat="48.41531" lon="7.34401">
        <ele>738.8</ele>
        <time>2026-03-16T14:37:40Z</time>
      </trkpt>
      <trkpt lat="48.41526" lon="7.34415">
        <ele>740.3</ele>
        <time>2026-03-16T14:37:45Z</time>
      </trkpt>
      <trkpt lat="48.41526" lon="7.34415">
        <ele>740.3</ele>
        <time>2026-03-16T14:37:50Z</time>
      </trkpt>
      <trkpt lat="48.41523" lon="7.3443">
        <ele>742.1</ele>
        <time>2026-03-16T14:37:55Z</time>
      </trkpt>
      <trkpt lat="48.41522" lon="7.34434">
        <ele>742.6</ele>
        <time>2026-03-16T14:38:00Z</time>
      </trkpt>
      <trkpt lat="48.41522" lon="7.34434">
        <ele>742.6</ele>
        <time>2026-03-16T14:38:05Z</time>
      </trkpt>
      <trkpt lat="48.41517" lon="7.34451">
        <ele>744.5</ele>
        <time>2026-03-16T14:38:10Z</time>
      </trkpt>
      <trkpt lat="48.41517" lon="7.34451">
        <ele>744.5</ele>
        <time>2026-03-16T14:38:15Z</time>
      </trkpt>
      <trkpt lat="48.41508" lon="7.34461">
        <ele>745.1</ele>
        <time>2026-03-16T14:38:20Z</time>
      </trkpt>
      <trkpt lat="48.41508" lon="7.34462">
        <ele>745.2</ele>
        <time>2026-03-16T14:38:25Z</time>
      </trkpt>
      <trkpt lat="48.41508" lon="7.34462">
        <ele>745.2</ele>
        <time>2026-03-16T14:38:30Z</time>
      </trkpt>
      <trkpt lat="48.41499" lon="7.3447">
        <ele>745.5</ele>
        <time>2026-03-16T14:38:35Z</time>
      </trkpt>
      <trkpt lat="48.41498" lon="7.34471">
        <ele>745.5</ele>
        <time>2026-03-16T14:38:40Z</time>
      </trkpt>
      <trkpt lat="48.41498" lon="7.34471">
        <ele>745.5</ele>
        <time>2026-03-16T14:38:45Z</time>
      </trkpt>
      <trkpt lat="48.41488" lon="7.34477">
        <ele>744.5</ele>
        <time>2026-03-16T14:38:50Z</time>
      </trkpt>
      <trkpt lat="48.41486" lon="7.34478">
        <ele>744.2</ele>
        <time>2026-03-16T14:38:55Z</time>
      </trkpt>
      <trkpt lat="48.41475" lon="7.34484">
        <ele>743</ele>
        <time>2026-03-16T14:39:00Z</time>
      </trkpt>
      <trkpt lat="48.41473" lon="7.34485">
        <ele>742.8</ele>
        <time>2026-03-16T14:39:05Z</time>
      </trkpt>
      <trkpt lat="48.41473" lon="7.34485">
        <ele>742.8</ele>
        <time>2026-03-16T14:39:10Z</time>
      </trkpt>
      <trkpt lat="48.41462" lon="7.34496">
        <ele>742.2</ele>
        <time>2026-03-16T14:39:15Z</time>
      </trkpt>
      <trkpt lat="48.41462" lon="7.34496">
        <ele>742.2</ele>
        <time>2026-03-16T14:39:20Z</time>
      </trkpt>
      <trkpt lat="48.4145" lon="7.34505">
        <ele>741.2</ele>
        <time>2026-03-16T14:39:25Z</time>
      </trkpt>
      <trkpt lat="48.41449" lon="7.34506">
        <ele>741.1</ele>
        <time>2026-03-16T14:39:30Z</time>
      </trkpt>
      <trkpt lat="48.41443" lon="7.34517">
        <ele>741.7</ele>
        <time>2026-03-16T14:39:35Z</time>
      </trkpt>
      <trkpt lat="48.41441" lon="7.3452">
        <ele>741.8</ele>
        <time>2026-03-16T14:39:40Z</time>
      </trkpt>
      <trkpt lat="48.41441" lon="7.3452">
        <ele>741.8</ele>
        <time>2026-03-16T14:39:45Z</time>
      </trkpt>
      <trkpt lat="48.41435" lon="7.34537">
        <ele>743.4</ele>
        <time>2026-03-16T14:39:50Z</time>
      </trkpt>
      <trkpt lat="48.41435" lon="7.34537">
        <ele>743.4</ele>
        <time>2026-03-16T14:39:55Z</time>
      </trkpt>
      <trkpt lat="48.41433" lon="7.34552">
        <ele>745.5</ele>
        <time>2026-03-16T14:40:00Z</time>
      </trkpt>
      <trkpt lat="48.41432" lon="7.34555">
        <ele>745.8</ele>
        <time>2026-03-16T14:40:05Z</time>
      </trkpt>
      <trkpt lat="48.41432" lon="7.34555">
        <ele>745.8</ele>
        <time>2026-03-16T14:40:10Z</time>
      </trkpt>
      <trkpt lat="48.41429" lon="7.34568">
        <ele>747.4</ele>
        <time>2026-03-16T14:40:15Z</time>
      </trkpt>
      <trkpt lat="48.41429" lon="7.34571">
        <ele>747.9</ele>
        <time>2026-03-16T14:40:20Z</time>
      </trkpt>
      <trkpt lat="48.41429" lon="7.34571">
        <ele>747.9</ele>
        <time>2026-03-16T14:40:25Z</time>
      </trkpt>
      <trkpt lat="48.41424" lon="7.34585">
        <ele>749.4</ele>
        <time>2026-03-16T14:40:30Z</time>
      </trkpt>
      <trkpt lat="48.41424" lon="7.34587">
        <ele>749.7</ele>
        <time>2026-03-16T14:40:35Z</time>
      </trkpt>
      <trkpt lat="48.41424" lon="7.34587">
        <ele>749.7</ele>
        <time>2026-03-16T14:40:40Z</time>
      </trkpt>
      <trkpt lat="48.41421" lon="7.34603">
        <ele>751.7</ele>
        <time>2026-03-16T14:40:45Z</time>
      </trkpt>
      <trkpt lat="48.4142" lon="7.34604">
        <ele>751.7</ele>
        <time>2026-03-16T14:40:50Z</time>
      </trkpt>
      <trkpt lat="48.4142" lon="7.34604">
        <ele>751.7</ele>
        <time>2026-03-16T14:40:55Z</time>
      </trkpt>
      <trkpt lat="48.41422" lon="7.34619">
        <ele>754.3</ele>
        <time>2026-03-16T14:41:00Z</time>
      </trkpt>
      <trkpt lat="48.41423" lon="7.34623">
        <ele>755.1</ele>
        <time>2026-03-16T14:41:05Z</time>
      </trkpt>
      <trkpt lat="48.41423" lon="7.34623">
        <ele>755.1</ele>
        <time>2026-03-16T14:41:10Z</time>
      </trkpt>
      <trkpt lat="48.4142" lon="7.34638">
        <ele>757</ele>
        <time>2026-03-16T14:41:15Z</time>
      </trkpt>
      <trkpt lat="48.4142" lon="7.34639">
        <ele>757.1</ele>
        <time>2026-03-16T14:41:20Z</time>
      </trkpt>
      <trkpt lat="48.4142" lon="7.34639">
        <ele>757.1</ele>
        <time>2026-03-16T14:41:25Z</time>
      </trkpt>
      <trkpt lat="48.41416" lon="7.34652">
        <ele>758.6</ele>
        <time>2026-03-16T14:41:30Z</time>
      </trkpt>
      <trkpt lat="48.41416" lon="7.34656">
        <ele>759.2</ele>
        <time>2026-03-16T14:41:35Z</time>
      </trkpt>
      <trkpt lat="48.41416" lon="7.34656">
        <ele>759.2</ele>
        <time>2026-03-16T14:41:40Z</time>
      </trkpt>
      <trkpt lat="48.41411" lon="7.3467">
        <ele>760.6</ele>
        <time>2026-03-16T14:41:45Z</time>
      </trkpt>
      <trkpt lat="48.41411" lon="7.34673">
        <ele>760.9</ele>
        <time>2026-03-16T14:41:50Z</time>
      </trkpt>
      <trkpt lat="48.41411" lon="7.34673">
        <ele>760.9</ele>
        <time>2026-03-16T14:41:55Z</time>
      </trkpt>
      <trkpt lat="48.41415" lon="7.34692">
        <ele>764.1</ele>
        <time>2026-03-16T14:42:00Z</time>
      </trkpt>
      <trkpt lat="48.41415" lon="7.34692">
        <ele>764.1</ele>
        <time>2026-03-16T14:42:05Z</time>
      </trkpt>
      <trkpt lat="48.41415" lon="7.34692">
        <ele>764.1</ele>
        <time>2026-03-16T14:42:10Z</time>
      </trkpt>
      <trkpt lat="48.41416" lon="7.34709">
        <ele>766.5</ele>
        <time>2026-03-16T14:42:15Z</time>
      </trkpt>
      <trkpt lat="48.41416" lon="7.34709">
        <ele>766.5</ele>
        <time>2026-03-16T14:42:20Z</time>
      </trkpt>
      <trkpt lat="48.41415" lon="7.34723">
        <ele>768.2</ele>
        <time>2026-03-16T14:42:25Z</time>
      </trkpt>
      <trkpt lat="48.41416" lon="7.34729">
        <ele>769.1</ele>
        <time>2026-03-16T14:42:30Z</time>
      </trkpt>
      <trkpt lat="48.41416" lon="7.34729">
        <ele>769.1</ele>
        <time>2026-03-16T14:42:35Z</time>
      </trkpt>
      <trkpt lat="48.4142" lon="7.34745">
        <ele>771.6</ele>
        <time>2026-03-16T14:42:40Z</time>
      </trkpt>
      <trkpt lat="48.4142" lon="7.34746">
        <ele>771.7</ele>
        <time>2026-03-16T14:42:45Z</time>
      </trkpt>
      <trkpt lat="48.41418" lon="7.34761">
        <ele>773.3</ele>
        <time>2026-03-16T14:42:50Z</time>
      </trkpt>
      <trkpt lat="48.41417" lon="7.34764">
        <ele>773.5</ele>
        <time>2026-03-16T14:42:55Z</time>
      </trkpt>
      <trkpt lat="48.41417" lon="7.34764">
        <ele>773.5</ele>
        <time>2026-03-16T14:43:00Z</time>
      </trkpt>
      <trkpt lat="48.41412" lon="7.34781">
        <ele>774.5</ele>
        <time>2026-03-16T14:43:05Z</time>
      </trkpt>
      <trkpt lat="48.41412" lon="7.34781">
        <ele>774.5</ele>
        <time>2026-03-16T14:43:10Z</time>
      </trkpt>
      <trkpt lat="48.41415" lon="7.34794">
        <ele>776.5</ele>
        <time>2026-03-16T14:43:15Z</time>
      </trkpt>
      <trkpt lat="48.41416" lon="7.34796">
        <ele>776.8</ele>
        <time>2026-03-16T14:43:20Z</time>
      </trkpt>
      <trkpt lat="48.41416" lon="7.34796">
        <ele>776.8</ele>
        <time>2026-03-16T14:43:25Z</time>
      </trkpt>
      <trkpt lat="48.41415" lon="7.34812">
        <ele>778.4</ele>
        <time>2026-03-16T14:43:30Z</time>
      </trkpt>
      <trkpt lat="48.41415" lon="7.34815">
        <ele>778.7</ele>
        <time>2026-03-16T14:43:35Z</time>
      </trkpt>
      <trkpt lat="48.41415" lon="7.34815">
        <ele>778.7</ele>
        <time>2026-03-16T14:43:40Z</time>
      </trkpt>
      <trkpt lat="48.41414" lon="7.34833">
        <ele>780.5</ele>
        <time>2026-03-16T14:43:45Z</time>
      </trkpt>
      <trkpt lat="48.41414" lon="7.34833">
        <ele>780.5</ele>
        <time>2026-03-16T14:43:50Z</time>
      </trkpt>
      <trkpt lat="48.41414" lon="7.34833">
        <ele>780.5</ele>
        <time>2026-03-16T14:43:55Z</time>
      </trkpt>
      <trkpt lat="48.41408" lon="7.34847">
        <ele>779.9</ele>
        <time>2026-03-16T14:44:00Z</time>
      </trkpt>
      <trkpt lat="48.41408" lon="7.34847">
        <ele>779.9</ele>
        <time>2026-03-16T14:44:05Z</time>
      </trkpt>
      <trkpt lat="48.41408" lon="7.34847">
        <ele>779.9</ele>
        <time>2026-03-16T14:44:10Z</time>
      </trkpt>
      <trkpt lat="48.41403" lon="7.34866">
        <ele>779.8</ele>
        <time>2026-03-16T14:44:15Z</time>
      </trkpt>
      <trkpt lat="48.41403" lon="7.34866">
        <ele>779.8</ele>
        <time>2026-03-16T14:44:20Z</time>
      </trkpt>
      <trkpt lat="48.41403" lon="7.34882">
        <ele>780.5</ele>
        <time>2026-03-16T14:44:25Z</time>
      </trkpt>
      <trkpt lat="48.41402" lon="7.34884">
        <ele>780.4</ele>
        <time>2026-03-16T14:44:30Z</time>
      </trkpt>
      <trkpt lat="48.41399" lon="7.34898">
        <ele>780.6</ele>
        <time>2026-03-16T14:44:35Z</time>
      </trkpt>
      <trkpt lat="48.41399" lon="7.34902">
        <ele>780.8</ele>
        <time>2026-03-16T14:44:40Z</time>
      </trkpt>
      <trkpt lat="48.41399" lon="7.34902">
        <ele>780.8</ele>
        <time>2026-03-16T14:44:45Z</time>
      </trkpt>
      <trkpt lat="48.41399" lon="7.34902">
        <ele>780.8</ele>
        <time>2026-03-16T14:44:50Z</time>
      </trkpt>
      <trkpt lat="48.41399" lon="7.34902">
        <ele>780.8</ele>
        <time>2026-03-16T14:44:55Z</time>
      </trkpt>
      <trkpt lat="48.41399" lon="7.34902">
        <ele>780.8</ele>
        <time>2026-03-16T14:45:00Z</time>
      </trkpt>
      <trkpt lat="48.41401" lon="7.34917">
        <ele>781.8</ele>
        <time>2026-03-16T14:45:05Z</time>
      </trkpt>
      <trkpt lat="48.41401" lon="7.34917">
        <ele>781.8</ele>
        <time>2026-03-16T14:45:10Z</time>
      </trkpt>
      <trkpt lat="48.41401" lon="7.34917">
        <ele>781.8</ele>
        <time>2026-03-16T14:45:15Z</time>
      </trkpt>
      <trkpt lat="48.41401" lon="7.34917">
        <ele>781.8</ele>
        <time>2026-03-16T14:45:20Z</time>
      </trkpt>
      <trkpt lat="48.414" lon="7.34933">
        <ele>782.5</ele>
        <time>2026-03-16T14:45:25Z</time>
      </trkpt>
      <trkpt lat="48.41399" lon="7.34944">
        <ele>783</ele>
        <time>2026-03-16T14:45:30Z</time>
      </trkpt>
      <trkpt lat="48.41396" lon="7.34956">
        <ele>783.4</ele>
        <time>2026-03-16T14:45:35Z</time>
      </trkpt>
      <trkpt lat="48.41396" lon="7.34956">
        <ele>783.4</ele>
        <time>2026-03-16T14:45:40Z</time>
      </trkpt>
      <trkpt lat="48.41396" lon="7.34956">
        <ele>783.4</ele>
        <time>2026-03-16T14:45:45Z</time>
      </trkpt>
      <trkpt lat="48.41396" lon="7.34956">
        <ele>783.4</ele>
        <time>2026-03-16T14:45:50Z</time>
      </trkpt>
      <trkpt lat="48.41396" lon="7.34956">
        <ele>783.4</ele>
        <time>2026-03-16T14:45:55Z</time>
      </trkpt>
      <trkpt lat="48.41396" lon="7.34956">
        <ele>783.4</ele>
        <time>2026-03-16T14:46:00Z</time>
      </trkpt>
      <trkpt lat="48.41396" lon="7.34956">
        <ele>783.4</ele>
        <time>2026-03-16T14:46:05Z</time>
      </trkpt>
      <trkpt lat="48.41396" lon="7.34956">
        <ele>783.4</ele>
        <time>2026-03-16T14:46:10Z</time>
      </trkpt>
      <trkpt lat="48.41396" lon="7.34956">
        <ele>783.4</ele>
        <time>2026-03-16T14:46:15Z</time>
      </trkpt>
      <trkpt lat="48.41396" lon="7.34956">
        <ele>783.4</ele>
        <time>2026-03-16T14:46:20Z</time>
      </trkpt>
      <trkpt lat="48.41396" lon="7.34956">
        <ele>783.4</ele>
        <time>2026-03-16T14:46:25Z</time>
      </trkpt>
      <trkpt lat="48.41396" lon="7.34956">
        <ele>783.4</ele>
        <time>2026-03-16T14:46:30Z</time>
      </trkpt>
      <trkpt lat="48.41396" lon="7.34956">
        <ele>783.4</ele>
        <time>2026-03-16T14:46:35Z</time>
      </trkpt>
      <trkpt lat="48.41404" lon="7.34949">
        <ele>784</ele>
        <time>2026-03-16T14:46:40Z</time>
      </trkpt>
      <trkpt lat="48.41409" lon="7.34941">
        <ele>784.2</ele>
        <time>2026-03-16T14:46:45Z</time>
      </trkpt>
      <trkpt lat="48.41412" lon="7.34933">
        <ele>784.2</ele>
        <time>2026-03-16T14:46:50Z</time>
      </trkpt>
      <trkpt lat="48.41415" lon="7.34923">
        <ele>784.1</ele>
        <time>2026-03-16T14:46:55Z</time>
      </trkpt>
      <trkpt lat="48.41417" lon="7.34915">
        <ele>783.9</ele>
        <time>2026-03-16T14:47:00Z</time>
      </trkpt>
      <trkpt lat="48.41422" lon="7.34907">
        <ele>783.6</ele>
        <time>2026-03-16T14:47:05Z</time>
      </trkpt>
      <trkpt lat="48.41425" lon="7.34901">
        <ele>783.3</ele>
        <time>2026-03-16T14:47:10Z</time>
      </trkpt>
      <trkpt lat="48.41427" lon="7.34893">
        <ele>783</ele>
        <time>2026-03-16T14:47:15Z</time>
      </trkpt>
      <trkpt lat="48.4143" lon="7.34884">
        <ele>782.8</ele>
        <time>2026-03-16T14:47:20Z</time>
      </trkpt>
      <trkpt lat="48.41433" lon="7.34875">
        <ele>782.5</ele>
        <time>2026-03-16T14:47:25Z</time>
      </trkpt>
      <trkpt lat="48.41438" lon="7.34869">
        <ele>782.4</ele>
        <time>2026-03-16T14:47:30Z</time>
      </trkpt>
      <trkpt lat="48.4144" lon="7.34862">
        <ele>782.2</ele>
        <time>2026-03-16T14:47:35Z</time>
      </trkpt>
      <trkpt lat="48.41445" lon="7.34854">
        <ele>782.1</ele>
        <time>2026-03-16T14:47:40Z</time>
      </trkpt>
      <trkpt lat="48.41446" lon="7.3485">
        <ele>782</ele>
        <time>2026-03-16T14:47:45Z</time>
      </trkpt>
      <trkpt lat="48.41456" lon="7.3484">
        <ele>782</ele>
        <time>2026-03-16T14:47:50Z</time>
      </trkpt>
      <trkpt lat="48.41463" lon="7.34832">
        <ele>782</ele>
        <time>2026-03-16T14:47:55Z</time>
      </trkpt>
      <trkpt lat="48.41469" lon="7.34826">
        <ele>781.7</ele>
        <time>2026-03-16T14:48:00Z</time>
      </trkpt>
      <trkpt lat="48.41474" lon="7.3482">
        <ele>781.4</ele>
        <time>2026-03-16T14:48:05Z</time>
      </trkpt>
      <trkpt lat="48.4148" lon="7.34817">
        <ele>781.4</ele>
        <time>2026-03-16T14:48:10Z</time>
      </trkpt>
      <trkpt lat="48.41483" lon="7.34813">
        <ele>781.2</ele>
        <time>2026-03-16T14:48:15Z</time>
      </trkpt>
      <trkpt lat="48.41483" lon="7.34813">
        <ele>781.2</ele>
        <time>2026-03-16T14:48:20Z</time>
      </trkpt>
      <trkpt lat="48.41483" lon="7.34813">
        <ele>781.2</ele>
        <time>2026-03-16T14:48:25Z</time>
      </trkpt>
      <trkpt lat="48.41487" lon="7.3483">
        <ele>782.5</ele>
        <time>2026-03-16T14:48:30Z</time>
      </trkpt>
      <trkpt lat="48.41487" lon="7.3483">
        <ele>782.5</ele>
        <time>2026-03-16T14:48:35Z</time>
      </trkpt>
      <trkpt lat="48.41488" lon="7.34844">
        <ele>782.7</ele>
        <time>2026-03-16T14:48:40Z</time>
      </trkpt>
      <trkpt lat="48.4149" lon="7.34853">
        <ele>782.6</ele>
        <time>2026-03-16T14:48:45Z</time>
      </trkpt>
      <trkpt lat="48.41492" lon="7.3486">
        <ele>782.6</ele>
        <time>2026-03-16T14:48:50Z</time>
      </trkpt>
      <trkpt lat="48.41492" lon="7.3486">
        <ele>782.6</ele>
        <time>2026-03-16T14:48:55Z</time>
      </trkpt>
      <trkpt lat="48.41495" lon="7.34877">
        <ele>782.5</ele>
        <time>2026-03-16T14:49:00Z</time>
      </trkpt>
      <trkpt lat="48.41494" lon="7.34884">
        <ele>782.4</ele>
        <time>2026-03-16T14:49:05Z</time>
      </trkpt>
      <trkpt lat="48.41492" lon="7.34891">
        <ele>782.4</ele>
        <time>2026-03-16T14:49:10Z</time>
      </trkpt>
      <trkpt lat="48.41491" lon="7.34902">
        <ele>782.3</ele>
        <time>2026-03-16T14:49:15Z</time>
      </trkpt>
      <trkpt lat="48.41487" lon="7.34911">
        <ele>782.3</ele>
        <time>2026-03-16T14:49:20Z</time>
      </trkpt>
      <trkpt lat="48.41487" lon="7.34921">
        <ele>782.3</ele>
        <time>2026-03-16T14:49:25Z</time>
      </trkpt>
      <trkpt lat="48.41489" lon="7.34926">
        <ele>782.3</ele>
        <time>2026-03-16T14:49:30Z</time>
      </trkpt>
      <trkpt lat="48.41488" lon="7.34937">
        <ele>782.4</ele>
        <time>2026-03-16T14:49:35Z</time>
      </trkpt>
      <trkpt lat="48.4149" lon="7.34943">
        <ele>782.4</ele>
        <time>2026-03-16T14:49:40Z</time>
      </trkpt>
      <trkpt lat="48.4149" lon="7.34943">
        <ele>782.4</ele>
        <time>2026-03-16T14:49:45Z</time>
      </trkpt>
      <trkpt lat="48.415" lon="7.3495">
        <ele>782</ele>
        <time>2026-03-16T14:49:50Z</time>
      </trkpt>
      <trkpt lat="48.41501" lon="7.34952">
        <ele>782.1</ele>
        <time>2026-03-16T14:49:55Z</time>
      </trkpt>
      <trkpt lat="48.41507" lon="7.34959">
        <ele>782.4</ele>
        <time>2026-03-16T14:50:00Z</time>
      </trkpt>
      <trkpt lat="48.41509" lon="7.34963">
        <ele>782.5</ele>
        <time>2026-03-16T14:50:05Z</time>
      </trkpt>
      <trkpt lat="48.41516" lon="7.34971">
        <ele>782.8</ele>
        <time>2026-03-16T14:50:10Z</time>
      </trkpt>
      <trkpt lat="48.41517" lon="7.34976">
        <ele>782.8</ele>
        <time>2026-03-16T14:50:15Z</time>
      </trkpt>
      <trkpt lat="48.41517" lon="7.34976">
        <ele>782.8</ele>
        <time>2026-03-16T14:50:20Z</time>
      </trkpt>
      <trkpt lat="48.41523" lon="7.34995">
        <ele>782.9</ele>
        <time>2026-03-16T14:50:25Z</time>
      </trkpt>
      <trkpt lat="48.41524" lon="7.34997">
        <ele>782.9</ele>
        <time>2026-03-16T14:50:30Z</time>
      </trkpt>
      <trkpt lat="48.41524" lon="7.34997">
        <ele>782.9</ele>
        <time>2026-03-16T14:50:35Z</time>
      </trkpt>
      <trkpt lat="48.41531" lon="7.3501">
        <ele>782.6</ele>
        <time>2026-03-16T14:50:40Z</time>
      </trkpt>
      <trkpt lat="48.41531" lon="7.3501">
        <ele>782.6</ele>
        <time>2026-03-16T14:50:45Z</time>
      </trkpt>
      <trkpt lat="48.41531" lon="7.3501">
        <ele>782.6</ele>
        <time>2026-03-16T14:50:50Z</time>
      </trkpt>
      <trkpt lat="48.41533" lon="7.35024">
        <ele>781.9</ele>
        <time>2026-03-16T14:50:55Z</time>
      </trkpt>
      <trkpt lat="48.41534" lon="7.35026">
        <ele>781.8</ele>
        <time>2026-03-16T14:51:00Z</time>
      </trkpt>
      <trkpt lat="48.41536" lon="7.35039">
        <ele>781.1</ele>
        <time>2026-03-16T14:51:05Z</time>
      </trkpt>
      <trkpt lat="48.41544" lon="7.35044">
        <ele>780.9</ele>
        <time>2026-03-16T14:51:10Z</time>
      </trkpt>
      <trkpt lat="48.41549" lon="7.35054">
        <ele>780.2</ele>
        <time>2026-03-16T14:51:15Z</time>
      </trkpt>
      <trkpt lat="48.41553" lon="7.35059">
        <ele>779.8</ele>
        <time>2026-03-16T14:51:20Z</time>
      </trkpt>
      <trkpt lat="48.4155" lon="7.35064">
        <ele>779.5</ele>
        <time>2026-03-16T14:51:25Z</time>
      </trkpt>
      <trkpt lat="48.4155" lon="7.35072">
        <ele>779</ele>
        <time>2026-03-16T14:51:30Z</time>
      </trkpt>
      <trkpt lat="48.41552" lon="7.3508">
        <ele>778.4</ele>
        <time>2026-03-16T14:51:35Z</time>
      </trkpt>
      <trkpt lat="48.41558" lon="7.35087">
        <ele>777.6</ele>
        <time>2026-03-16T14:51:40Z</time>
      </trkpt>
      <trkpt lat="48.41565" lon="7.35095">
        <ele>776.6</ele>
        <time>2026-03-16T14:51:45Z</time>
      </trkpt>
      <trkpt lat="48.41567" lon="7.35097">
        <ele>776.3</ele>
        <time>2026-03-16T14:51:50Z</time>
      </trkpt>
      <trkpt lat="48.41567" lon="7.35097">
        <ele>776.3</ele>
        <time>2026-03-16T14:51:55Z</time>
      </trkpt>
      <trkpt lat="48.41579" lon="7.35107">
        <ele>774.9</ele>
        <time>2026-03-16T14:52:00Z</time>
      </trkpt>
      <trkpt lat="48.41585" lon="7.35113">
        <ele>774.2</ele>
        <time>2026-03-16T14:52:05Z</time>
      </trkpt>
      <trkpt lat="48.4159" lon="7.35116">
        <ele>774.1</ele>
        <time>2026-03-16T14:52:10Z</time>
      </trkpt>
      <trkpt lat="48.41596" lon="7.35119">
        <ele>774</ele>
        <time>2026-03-16T14:52:15Z</time>
      </trkpt>
      <trkpt lat="48.41597" lon="7.35119">
        <ele>774</ele>
        <time>2026-03-16T14:52:20Z</time>
      </trkpt>
      <trkpt lat="48.4161" lon="7.35131">
        <ele>773.1</ele>
        <time>2026-03-16T14:52:25Z</time>
      </trkpt>
      <trkpt lat="48.41616" lon="7.35136">
        <ele>772.7</ele>
        <time>2026-03-16T14:52:30Z</time>
      </trkpt>
      <trkpt lat="48.41623" lon="7.35141">
        <ele>772.2</ele>
        <time>2026-03-16T14:52:35Z</time>
      </trkpt>
      <trkpt lat="48.41624" lon="7.35142">
        <ele>772.1</ele>
        <time>2026-03-16T14:52:40Z</time>
      </trkpt>
      <trkpt lat="48.41624" lon="7.35142">
        <ele>772.1</ele>
        <time>2026-03-16T14:52:45Z</time>
      </trkpt>
      <trkpt lat="48.41641" lon="7.35147">
        <ele>771.7</ele>
        <time>2026-03-16T14:52:50Z</time>
      </trkpt>
      <trkpt lat="48.41641" lon="7.35147">
        <ele>771.7</ele>
        <time>2026-03-16T14:52:55Z</time>
      </trkpt>
      <trkpt lat="48.41651" lon="7.35151">
        <ele>771.3</ele>
        <time>2026-03-16T14:53:00Z</time>
      </trkpt>
      <trkpt lat="48.41654" lon="7.35153">
        <ele>771</ele>
        <time>2026-03-16T14:53:05Z</time>
      </trkpt>
      <trkpt lat="48.41662" lon="7.35161">
        <ele>769.9</ele>
        <time>2026-03-16T14:53:10Z</time>
      </trkpt>
      <trkpt lat="48.41668" lon="7.35164">
        <ele>769.5</ele>
        <time>2026-03-16T14:53:15Z</time>
      </trkpt>
      <trkpt lat="48.41682" lon="7.35172">
        <ele>769.7</ele>
        <time>2026-03-16T14:53:20Z</time>
      </trkpt>
      <trkpt lat="48.41683" lon="7.35173">
        <ele>769.6</ele>
        <time>2026-03-16T14:53:25Z</time>
      </trkpt>
      <trkpt lat="48.41692" lon="7.35183">
        <ele>768.9</ele>
        <time>2026-03-16T14:53:30Z</time>
      </trkpt>
      <trkpt lat="48.41695" lon="7.35186">
        <ele>768.7</ele>
        <time>2026-03-16T14:53:35Z</time>
      </trkpt>
      <trkpt lat="48.41706" lon="7.35195">
        <ele>768.1</ele>
        <time>2026-03-16T14:53:40Z</time>
      </trkpt>
      <trkpt lat="48.41708" lon="7.35197">
        <ele>767.9</ele>
        <time>2026-03-16T14:53:45Z</time>
      </trkpt>
      <trkpt lat="48.41713" lon="7.35209">
        <ele>766.2</ele>
        <time>2026-03-16T14:53:50Z</time>
      </trkpt>
      <trkpt lat="48.41715" lon="7.35212">
        <ele>765.8</ele>
        <time>2026-03-16T14:53:55Z</time>
      </trkpt>
      <trkpt lat="48.41715" lon="7.35212">
        <ele>765.8</ele>
        <time>2026-03-16T14:54:00Z</time>
      </trkpt>
      <trkpt lat="48.41725" lon="7.35234">
        <ele>762.3</ele>
        <time>2026-03-16T14:54:05Z</time>
      </trkpt>
      <trkpt lat="48.4173" lon="7.35245">
        <ele>760.5</ele>
        <time>2026-03-16T14:54:10Z</time>
      </trkpt>
      <trkpt lat="48.4173" lon="7.35245">
        <ele>760.5</ele>
        <time>2026-03-16T14:54:15Z</time>
      </trkpt>
      <trkpt lat="48.41742" lon="7.35265">
        <ele>757.5</ele>
        <time>2026-03-16T14:54:20Z</time>
      </trkpt>
      <trkpt lat="48.41742" lon="7.35265">
        <ele>757.5</ele>
        <time>2026-03-16T14:54:25Z</time>
      </trkpt>
      <trkpt lat="48.41752" lon="7.35279">
        <ele>755.8</ele>
        <time>2026-03-16T14:54:30Z</time>
      </trkpt>
      <trkpt lat="48.41759" lon="7.35284">
        <ele>756</ele>
        <time>2026-03-16T14:54:35Z</time>
      </trkpt>
      <trkpt lat="48.41766" lon="7.35289">
        <ele>756.3</ele>
        <time>2026-03-16T14:54:40Z</time>
      </trkpt>
      <trkpt lat="48.41775" lon="7.35293">
        <ele>757</ele>
        <time>2026-03-16T14:54:45Z</time>
      </trkpt>
      <trkpt lat="48.41779" lon="7.35295">
        <ele>757.3</ele>
        <time>2026-03-16T14:54:50Z</time>
      </trkpt>
      <trkpt lat="48.41779" lon="7.35295">
        <ele>757.3</ele>
        <time>2026-03-16T14:54:55Z</time>
      </trkpt>
      <trkpt lat="48.41782" lon="7.35313">
        <ele>755.1</ele>
        <time>2026-03-16T14:55:00Z</time>
      </trkpt>
      <trkpt lat="48.41783" lon="7.3532">
        <ele>754.2</ele>
        <time>2026-03-16T14:55:05Z</time>
      </trkpt>
      <trkpt lat="48.41781" lon="7.35339">
        <ele>751.2</ele>
        <time>2026-03-16T14:55:10Z</time>
      </trkpt>
      <trkpt lat="48.41776" lon="7.35348">
        <ele>749.5</ele>
        <time>2026-03-16T14:55:15Z</time>
      </trkpt>
      <trkpt lat="48.41775" lon="7.35352">
        <ele>748.9</ele>
        <time>2026-03-16T14:55:20Z</time>
      </trkpt>
      <trkpt lat="48.41779" lon="7.35365">
        <ele>748.1</ele>
        <time>2026-03-16T14:55:25Z</time>
      </trkpt>
      <trkpt lat="48.41779" lon="7.35366">
        <ele>748</ele>
        <time>2026-03-16T14:55:30Z</time>
      </trkpt>
      <trkpt lat="48.41786" lon="7.3538">
        <ele>747.6</ele>
        <time>2026-03-16T14:55:35Z</time>
      </trkpt>
      <trkpt lat="48.41789" lon="7.35384">
        <ele>747.6</ele>
        <time>2026-03-16T14:55:40Z</time>
      </trkpt>
      <trkpt lat="48.41793" lon="7.35403">
        <ele>746.2</ele>
        <time>2026-03-16T14:55:45Z</time>
      </trkpt>
      <trkpt lat="48.41793" lon="7.35403">
        <ele>746.2</ele>
        <time>2026-03-16T14:55:50Z</time>
      </trkpt>
      <trkpt lat="48.41797" lon="7.35421">
        <ele>745</ele>
        <time>2026-03-16T14:55:55Z</time>
      </trkpt>
      <trkpt lat="48.41799" lon="7.35434">
        <ele>744.4</ele>
        <time>2026-03-16T14:56:00Z</time>
      </trkpt>
      <trkpt lat="48.418" lon="7.35447">
        <ele>743.6</ele>
        <time>2026-03-16T14:56:05Z</time>
      </trkpt>
      <trkpt lat="48.418" lon="7.35447">
        <ele>743.6</ele>
        <time>2026-03-16T14:56:10Z</time>
      </trkpt>
      <trkpt lat="48.41802" lon="7.35467">
        <ele>742.5</ele>
        <time>2026-03-16T14:56:15Z</time>
      </trkpt>
      <trkpt lat="48.41802" lon="7.35467">
        <ele>742.5</ele>
        <time>2026-03-16T14:56:20Z</time>
      </trkpt>
      <trkpt lat="48.41809" lon="7.35489">
        <ele>742</ele>
        <time>2026-03-16T14:56:25Z</time>
      </trkpt>
      <trkpt lat="48.41811" lon="7.35497">
        <ele>741.7</ele>
        <time>2026-03-16T14:56:30Z</time>
      </trkpt>
      <trkpt lat="48.41811" lon="7.35497">
        <ele>741.7</ele>
        <time>2026-03-16T14:56:35Z</time>
      </trkpt>
      <trkpt lat="48.41823" lon="7.35511">
        <ele>742.4</ele>
        <time>2026-03-16T14:56:40Z</time>
      </trkpt>
      <trkpt lat="48.41824" lon="7.35512">
        <ele>742.5</ele>
        <time>2026-03-16T14:56:45Z</time>
      </trkpt>
      <trkpt lat="48.41831" lon="7.35527">
        <ele>742.3</ele>
        <time>2026-03-16T14:56:50Z</time>
      </trkpt>
      <trkpt lat="48.41835" lon="7.35544">
        <ele>741.7</ele>
        <time>2026-03-16T14:56:55Z</time>
      </trkpt>
      <trkpt lat="48.41836" lon="7.35549">
        <ele>741.4</ele>
        <time>2026-03-16T14:57:00Z</time>
      </trkpt>
      <trkpt lat="48.41844" lon="7.35561">
        <ele>742</ele>
        <time>2026-03-16T14:57:05Z</time>
      </trkpt>
      <trkpt lat="48.41848" lon="7.35564">
        <ele>742.5</ele>
        <time>2026-03-16T14:57:10Z</time>
      </trkpt>
      <trkpt lat="48.41857" lon="7.35573">
        <ele>743.3</ele>
        <time>2026-03-16T14:57:15Z</time>
      </trkpt>
      <trkpt lat="48.41859" lon="7.35576">
        <ele>743.4</ele>
        <time>2026-03-16T14:57:20Z</time>
      </trkpt>
      <trkpt lat="48.41865" lon="7.35587">
        <ele>743.5</ele>
        <time>2026-03-16T14:57:25Z</time>
      </trkpt>
      <trkpt lat="48.41871" lon="7.35596">
        <ele>744</ele>
        <time>2026-03-16T14:57:30Z</time>
      </trkpt>
      <trkpt lat="48.41879" lon="7.35603">
        <ele>744.9</ele>
        <time>2026-03-16T14:57:35Z</time>
      </trkpt>
      <trkpt lat="48.41886" lon="7.3561">
        <ele>745.5</ele>
        <time>2026-03-16T14:57:40Z</time>
      </trkpt>
      <trkpt lat="48.41887" lon="7.35612">
        <ele>745.5</ele>
        <time>2026-03-16T14:57:45Z</time>
      </trkpt>
      <trkpt lat="48.41896" lon="7.3562">
        <ele>746.3</ele>
        <time>2026-03-16T14:57:50Z</time>
      </trkpt>
      <trkpt lat="48.41898" lon="7.35622">
        <ele>746.4</ele>
        <time>2026-03-16T14:57:55Z</time>
      </trkpt>
      <trkpt lat="48.41911" lon="7.35631">
        <ele>747.6</ele>
        <time>2026-03-16T14:58:00Z</time>
      </trkpt>
      <trkpt lat="48.41914" lon="7.35633">
        <ele>747.8</ele>
        <time>2026-03-16T14:58:05Z</time>
      </trkpt>
      <trkpt lat="48.41922" lon="7.3564">
        <ele>747.9</ele>
        <time>2026-03-16T14:58:10Z</time>
      </trkpt>
      <trkpt lat="48.41924" lon="7.35642">
        <ele>747.8</ele>
        <time>2026-03-16T14:58:15Z</time>
      </trkpt>
      <trkpt lat="48.41924" lon="7.35642">
        <ele>747.8</ele>
        <time>2026-03-16T14:58:20Z</time>
      </trkpt>
      <trkpt lat="48.41944" lon="7.35642">
        <ele>748.9</ele>
        <time>2026-03-16T14:58:25Z</time>
      </trkpt>
      <trkpt lat="48.41952" lon="7.35643">
        <ele>749.2</ele>
        <time>2026-03-16T14:58:30Z</time>
      </trkpt>
      <trkpt lat="48.41952" lon="7.35643">
        <ele>749.2</ele>
        <time>2026-03-16T14:58:35Z</time>
      </trkpt>
      <trkpt lat="48.41962" lon="7.35639">
        <ele>750.4</ele>
        <time>2026-03-16T14:58:40Z</time>
      </trkpt>
      <trkpt lat="48.41965" lon="7.35638">
        <ele>750.7</ele>
        <time>2026-03-16T14:58:45Z</time>
      </trkpt>
      <trkpt lat="48.41976" lon="7.35627">
        <ele>753.3</ele>
        <time>2026-03-16T14:58:50Z</time>
      </trkpt>
      <trkpt lat="48.41977" lon="7.35626">
        <ele>753.5</ele>
        <time>2026-03-16T14:58:55Z</time>
      </trkpt>
      <trkpt lat="48.41977" lon="7.35626">
        <ele>753.5</ele>
        <time>2026-03-16T14:59:00Z</time>
      </trkpt>
      <trkpt lat="48.4199" lon="7.35616">
        <ele>756.4</ele>
        <time>2026-03-16T14:59:05Z</time>
      </trkpt>
      <trkpt lat="48.4199" lon="7.35616">
        <ele>756.4</ele>
        <time>2026-03-16T14:59:10Z</time>
      </trkpt>
      <trkpt lat="48.42015" lon="7.35606">
        <ele>759.4</ele>
        <time>2026-03-16T14:59:15Z</time>
      </trkpt>
      <trkpt lat="48.42018" lon="7.35605">
        <ele>759.6</ele>
        <time>2026-03-16T14:59:20Z</time>
      </trkpt>
      <trkpt lat="48.42018" lon="7.35605">
        <ele>759.6</ele>
        <time>2026-03-16T14:59:25Z</time>
      </trkpt>
      <trkpt lat="48.42026" lon="7.35599">
        <ele>760.9</ele>
        <time>2026-03-16T14:59:30Z</time>
      </trkpt>
      <trkpt lat="48.42029" lon="7.35597">
        <ele>761.3</ele>
        <time>2026-03-16T14:59:35Z</time>
      </trkpt>
      <trkpt lat="48.42029" lon="7.35597">
        <ele>761.3</ele>
        <time>2026-03-16T14:59:40Z</time>
      </trkpt>
      <trkpt lat="48.4204" lon="7.35589">
        <ele>762.9</ele>
        <time>2026-03-16T14:59:45Z</time>
      </trkpt>
      <trkpt lat="48.42041" lon="7.35588">
        <ele>763.1</ele>
        <time>2026-03-16T14:59:50Z</time>
      </trkpt>
      <trkpt lat="48.42052" lon="7.35585">
        <ele>763.7</ele>
        <time>2026-03-16T14:59:55Z</time>
      </trkpt>
      <trkpt lat="48.42053" lon="7.35585">
        <ele>763.7</ele>
        <time>2026-03-16T15:00:00Z</time>
      </trkpt>
      <trkpt lat="48.42064" lon="7.35586">
        <ele>763.5</ele>
        <time>2026-03-16T15:00:05Z</time>
      </trkpt>
      <trkpt lat="48.42064" lon="7.35587">
        <ele>763.3</ele>
        <time>2026-03-16T15:00:10Z</time>
      </trkpt>
      <trkpt lat="48.42064" lon="7.35587">
        <ele>763.3</ele>
        <time>2026-03-16T15:00:15Z</time>
      </trkpt>
      <trkpt lat="48.42064" lon="7.35587">
        <ele>763.3</ele>
        <time>2026-03-16T15:00:20Z</time>
      </trkpt>
      <trkpt lat="48.4206" lon="7.35599">
        <ele>760.9</ele>
        <time>2026-03-16T15:00:25Z</time>
      </trkpt>
      <trkpt lat="48.42059" lon="7.35598">
        <ele>761.1</ele>
        <time>2026-03-16T15:00:30Z</time>
      </trkpt>
      <trkpt lat="48.42059" lon="7.35598">
        <ele>761.1</ele>
        <time>2026-03-16T15:00:35Z</time>
      </trkpt>
      <trkpt lat="48.42059" lon="7.35598">
        <ele>761.1</ele>
        <time>2026-03-16T15:00:40Z</time>
      </trkpt>
      <trkpt lat="48.42059" lon="7.35598">
        <ele>761.1</ele>
        <time>2026-03-16T15:00:45Z</time>
      </trkpt>
      <trkpt lat="48.42049" lon="7.35605">
        <ele>759.7</ele>
        <time>2026-03-16T15:00:50Z</time>
      </trkpt>
      <trkpt lat="48.42047" lon="7.35605">
        <ele>759.7</ele>
        <time>2026-03-16T15:00:55Z</time>
      </trkpt>
      <trkpt lat="48.42047" lon="7.35605">
        <ele>759.7</ele>
        <time>2026-03-16T15:01:00Z</time>
      </trkpt>
      <trkpt lat="48.42052" lon="7.3562">
        <ele>756.8</ele>
        <time>2026-03-16T15:01:05Z</time>
      </trkpt>
      <trkpt lat="48.42061" lon="7.35634">
        <ele>754.1</ele>
        <time>2026-03-16T15:01:10Z</time>
      </trkpt>
      <trkpt lat="48.42062" lon="7.35649">
        <ele>751.2</ele>
        <time>2026-03-16T15:01:15Z</time>
      </trkpt>
      <trkpt lat="48.42059" lon="7.3566">
        <ele>749</ele>
        <time>2026-03-16T15:01:20Z</time>
      </trkpt>
      <trkpt lat="48.42059" lon="7.35664">
        <ele>748.2</ele>
        <time>2026-03-16T15:01:25Z</time>
      </trkpt>
      <trkpt lat="48.42059" lon="7.35664">
        <ele>748.2</ele>
        <time>2026-03-16T15:01:30Z</time>
      </trkpt>
      <trkpt lat="48.42057" lon="7.35684">
        <ele>746</ele>
        <time>2026-03-16T15:01:35Z</time>
      </trkpt>
      <trkpt lat="48.42061" lon="7.35697">
        <ele>745</ele>
        <time>2026-03-16T15:01:40Z</time>
      </trkpt>
      <trkpt lat="48.42062" lon="7.35701">
        <ele>744.7</ele>
        <time>2026-03-16T15:01:45Z</time>
      </trkpt>
      <trkpt lat="48.42065" lon="7.35719">
        <ele>743.5</ele>
        <time>2026-03-16T15:01:50Z</time>
      </trkpt>
      <trkpt lat="48.42066" lon="7.35722">
        <ele>743.3</ele>
        <time>2026-03-16T15:01:55Z</time>
      </trkpt>
      <trkpt lat="48.42072" lon="7.35732">
        <ele>743.3</ele>
        <time>2026-03-16T15:02:00Z</time>
      </trkpt>
      <trkpt lat="48.42073" lon="7.35745">
        <ele>742.6</ele>
        <time>2026-03-16T15:02:05Z</time>
      </trkpt>
      <trkpt lat="48.42073" lon="7.35751">
        <ele>742.3</ele>
        <time>2026-03-16T15:02:10Z</time>
      </trkpt>
      <trkpt lat="48.42067" lon="7.35762">
        <ele>741.8</ele>
        <time>2026-03-16T15:02:15Z</time>
      </trkpt>
      <trkpt lat="48.42066" lon="7.35763">
        <ele>741.7</ele>
        <time>2026-03-16T15:02:20Z</time>
      </trkpt>
      <trkpt lat="48.42066" lon="7.35763">
        <ele>741.7</ele>
        <time>2026-03-16T15:02:25Z</time>
      </trkpt>
      <trkpt lat="48.42061" lon="7.35778">
        <ele>741.4</ele>
        <time>2026-03-16T15:02:30Z</time>
      </trkpt>
      <trkpt lat="48.42057" lon="7.35788">
        <ele>741</ele>
        <time>2026-03-16T15:02:35Z</time>
      </trkpt>
      <trkpt lat="48.42057" lon="7.35788">
        <ele>741</ele>
        <time>2026-03-16T15:02:40Z</time>
      </trkpt>
      <trkpt lat="48.42056" lon="7.35806">
        <ele>741.4</ele>
        <time>2026-03-16T15:02:45Z</time>
      </trkpt>
      <trkpt lat="48.42056" lon="7.35806">
        <ele>741.4</ele>
        <time>2026-03-16T15:02:50Z</time>
      </trkpt>
      <trkpt lat="48.42056" lon="7.35829">
        <ele>742.3</ele>
        <time>2026-03-16T15:02:55Z</time>
      </trkpt>
      <trkpt lat="48.42056" lon="7.35829">
        <ele>742.3</ele>
        <time>2026-03-16T15:03:00Z</time>
      </trkpt>
      <trkpt lat="48.42051" lon="7.35841">
        <ele>742</ele>
        <time>2026-03-16T15:03:05Z</time>
      </trkpt>
      <trkpt lat="48.4205" lon="7.35844">
        <ele>742.1</ele>
        <time>2026-03-16T15:03:10Z</time>
      </trkpt>
      <trkpt lat="48.42043" lon="7.35853">
        <ele>741.4</ele>
        <time>2026-03-16T15:03:15Z</time>
      </trkpt>
      <trkpt lat="48.4204" lon="7.35853">
        <ele>740.7</ele>
        <time>2026-03-16T15:03:20Z</time>
      </trkpt>
      <trkpt lat="48.4204" lon="7.35853">
        <ele>740.7</ele>
        <time>2026-03-16T15:03:25Z</time>
      </trkpt>
      <trkpt lat="48.4204" lon="7.35853">
        <ele>740.7</ele>
        <time>2026-03-16T15:03:30Z</time>
      </trkpt>
      <trkpt lat="48.42029" lon="7.35854">
        <ele>738.3</ele>
        <time>2026-03-16T15:03:35Z</time>
      </trkpt>
      <trkpt lat="48.42029" lon="7.35854">
        <ele>738.3</ele>
        <time>2026-03-16T15:03:40Z</time>
      </trkpt>
      <trkpt lat="48.42029" lon="7.35854">
        <ele>738.3</ele>
        <time>2026-03-16T15:03:45Z</time>
      </trkpt>
      <trkpt lat="48.42018" lon="7.35861">
        <ele>736.5</ele>
        <time>2026-03-16T15:03:50Z</time>
      </trkpt>
      <trkpt lat="48.42016" lon="7.35864">
        <ele>736.4</ele>
        <time>2026-03-16T15:03:55Z</time>
      </trkpt>
      <trkpt lat="48.42008" lon="7.35872">
        <ele>735.5</ele>
        <time>2026-03-16T15:04:00Z</time>
      </trkpt>
      <trkpt lat="48.42004" lon="7.35881">
        <ele>735.6</ele>
        <time>2026-03-16T15:04:05Z</time>
      </trkpt>
      <trkpt lat="48.42001" lon="7.35885">
        <ele>735.4</ele>
        <time>2026-03-16T15:04:10Z</time>
      </trkpt>
      <trkpt lat="48.42" lon="7.35887">
        <ele>735.4</ele>
        <time>2026-03-16T15:04:15Z</time>
      </trkpt>
      <trkpt lat="48.42" lon="7.35887">
        <ele>735.4</ele>
        <time>2026-03-16T15:04:20Z</time>
      </trkpt>
      <trkpt lat="48.41992" lon="7.35898">
        <ele>734.8</ele>
        <time>2026-03-16T15:04:25Z</time>
      </trkpt>
      <trkpt lat="48.41988" lon="7.35903">
        <ele>734.4</ele>
        <time>2026-03-16T15:04:30Z</time>
      </trkpt>
      <trkpt lat="48.41989" lon="7.35903">
        <ele>734.6</ele>
        <time>2026-03-16T15:04:35Z</time>
      </trkpt>
      <trkpt lat="48.41989" lon="7.35903">
        <ele>734.6</ele>
        <time>2026-03-16T15:04:40Z</time>
      </trkpt>
      <trkpt lat="48.4198" lon="7.35911">
        <ele>733.2</ele>
        <time>2026-03-16T15:04:45Z</time>
      </trkpt>
      <trkpt lat="48.41979" lon="7.35914">
        <ele>733.2</ele>
        <time>2026-03-16T15:04:50Z</time>
      </trkpt>
      <trkpt lat="48.41971" lon="7.3592">
        <ele>731.5</ele>
        <time>2026-03-16T15:04:55Z</time>
      </trkpt>
      <trkpt lat="48.41971" lon="7.3592">
        <ele>731.5</ele>
        <time>2026-03-16T15:05:00Z</time>
      </trkpt>
      <trkpt lat="48.41959" lon="7.3593">
        <ele>728.8</ele>
        <time>2026-03-16T15:05:05Z</time>
      </trkpt>
      <trkpt lat="48.41956" lon="7.35935">
        <ele>728.3</ele>
        <time>2026-03-16T15:05:10Z</time>
      </trkpt>
      <trkpt lat="48.41953" lon="7.3594">
        <ele>727.7</ele>
        <time>2026-03-16T15:05:15Z</time>
      </trkpt>
      <trkpt lat="48.41952" lon="7.35941">
        <ele>727.5</ele>
        <time>2026-03-16T15:05:20Z</time>
      </trkpt>
      <trkpt lat="48.41943" lon="7.35948">
        <ele>725.5</ele>
        <time>2026-03-16T15:05:25Z</time>
      </trkpt>
      <trkpt lat="48.41937" lon="7.35954">
        <ele>724.2</ele>
        <time>2026-03-16T15:05:30Z</time>
      </trkpt>
      <trkpt lat="48.41929" lon="7.35963">
        <ele>722.5</ele>
        <time>2026-03-16T15:05:35Z</time>
      </trkpt>
      <trkpt lat="48.41925" lon="7.35972">
        <ele>721.9</ele>
        <time>2026-03-16T15:05:40Z</time>
      </trkpt>
      <trkpt lat="48.41922" lon="7.35981">
        <ele>721.5</ele>
        <time>2026-03-16T15:05:45Z</time>
      </trkpt>
      <trkpt lat="48.41919" lon="7.35989">
        <ele>721.1</ele>
        <time>2026-03-16T15:05:50Z</time>
      </trkpt>
      <trkpt lat="48.41919" lon="7.35989">
        <ele>721.1</ele>
        <time>2026-03-16T15:05:55Z</time>
      </trkpt>
      <trkpt lat="48.4192" lon="7.36005">
        <ele>721.6</ele>
        <time>2026-03-16T15:06:00Z</time>
      </trkpt>
      <trkpt lat="48.4192" lon="7.36005">
        <ele>721.6</ele>
        <time>2026-03-16T15:06:05Z</time>
      </trkpt>
      <trkpt lat="48.41922" lon="7.36019">
        <ele>721.5</ele>
        <time>2026-03-16T15:06:10Z</time>
      </trkpt>
      <trkpt lat="48.41921" lon="7.36023">
        <ele>721</ele>
        <time>2026-03-16T15:06:15Z</time>
      </trkpt>
      <trkpt lat="48.41921" lon="7.36023">
        <ele>721</ele>
        <time>2026-03-16T15:06:20Z</time>
      </trkpt>
      <trkpt lat="48.4192" lon="7.3605">
        <ele>719.4</ele>
        <time>2026-03-16T15:06:25Z</time>
      </trkpt>
      <trkpt lat="48.41919" lon="7.36063">
        <ele>718.5</ele>
        <time>2026-03-16T15:06:30Z</time>
      </trkpt>
      <trkpt lat="48.41919" lon="7.36063">
        <ele>718.5</ele>
        <time>2026-03-16T15:06:35Z</time>
      </trkpt>
      <trkpt lat="48.41919" lon="7.36079">
        <ele>717.7</ele>
        <time>2026-03-16T15:06:40Z</time>
      </trkpt>
      <trkpt lat="48.4192" lon="7.36095">
        <ele>716.2</ele>
        <time>2026-03-16T15:06:45Z</time>
      </trkpt>
      <trkpt lat="48.4192" lon="7.36098">
        <ele>715.8</ele>
        <time>2026-03-16T15:06:50Z</time>
      </trkpt>
      <trkpt lat="48.41926" lon="7.36109">
        <ele>715.6</ele>
        <time>2026-03-16T15:06:55Z</time>
      </trkpt>
      <trkpt lat="48.41928" lon="7.36115">
        <ele>715.2</ele>
        <time>2026-03-16T15:07:00Z</time>
      </trkpt>
      <trkpt lat="48.41933" lon="7.36127">
        <ele>714.7</ele>
        <time>2026-03-16T15:07:05Z</time>
      </trkpt>
      <trkpt lat="48.41935" lon="7.36132">
        <ele>714.4</ele>
        <time>2026-03-16T15:07:10Z</time>
      </trkpt>
      <trkpt lat="48.41939" lon="7.36144">
        <ele>713.5</ele>
        <time>2026-03-16T15:07:15Z</time>
      </trkpt>
      <trkpt lat="48.41941" lon="7.36149">
        <ele>713.2</ele>
        <time>2026-03-16T15:07:20Z</time>
      </trkpt>
      <trkpt lat="48.41941" lon="7.36149">
        <ele>713.2</ele>
        <time>2026-03-16T15:07:25Z</time>
      </trkpt>
      <trkpt lat="48.41949" lon="7.36164">
        <ele>712.6</ele>
        <time>2026-03-16T15:07:30Z</time>
      </trkpt>
      <trkpt lat="48.41949" lon="7.36164">
        <ele>712.6</ele>
        <time>2026-03-16T15:07:35Z</time>
      </trkpt>
      <trkpt lat="48.41952" lon="7.3618">
        <ele>710.6</ele>
        <time>2026-03-16T15:07:40Z</time>
      </trkpt>
      <trkpt lat="48.41953" lon="7.36181">
        <ele>710.6</ele>
        <time>2026-03-16T15:07:45Z</time>
      </trkpt>
      <trkpt lat="48.41953" lon="7.36181">
        <ele>710.6</ele>
        <time>2026-03-16T15:07:50Z</time>
      </trkpt>
      <trkpt lat="48.41964" lon="7.36194">
        <ele>710.7</ele>
        <time>2026-03-16T15:07:55Z</time>
      </trkpt>
      <trkpt lat="48.41964" lon="7.36194">
        <ele>710.7</ele>
        <time>2026-03-16T15:08:00Z</time>
      </trkpt>
      <trkpt lat="48.41973" lon="7.36203">
        <ele>711.2</ele>
        <time>2026-03-16T15:08:05Z</time>
      </trkpt>
      <trkpt lat="48.41976" lon="7.36207">
        <ele>711.2</ele>
        <time>2026-03-16T15:08:10Z</time>
      </trkpt>
      <trkpt lat="48.41983" lon="7.36217">
        <ele>711.1</ele>
        <time>2026-03-16T15:08:15Z</time>
      </trkpt>
      <trkpt lat="48.41986" lon="7.36221">
        <ele>711.2</ele>
        <time>2026-03-16T15:08:20Z</time>
      </trkpt>
      <trkpt lat="48.41993" lon="7.36233">
        <ele>710.9</ele>
        <time>2026-03-16T15:08:25Z</time>
      </trkpt>
      <trkpt lat="48.41997" lon="7.36238">
        <ele>711.1</ele>
        <time>2026-03-16T15:08:30Z</time>
      </trkpt>
      <trkpt lat="48.42005" lon="7.3625">
        <ele>711.3</ele>
        <time>2026-03-16T15:08:35Z</time>
      </trkpt>
      <trkpt lat="48.4201" lon="7.36258">
        <ele>711.5</ele>
        <time>2026-03-16T15:08:40Z</time>
      </trkpt>
      <trkpt lat="48.42013" lon="7.36262">
        <ele>711.8</ele>
        <time>2026-03-16T15:08:45Z</time>
      </trkpt>
      <trkpt lat="48.42023" lon="7.36276">
        <ele>712.6</ele>
        <time>2026-03-16T15:08:50Z</time>
      </trkpt>
      <trkpt lat="48.42024" lon="7.36279">
        <ele>712.5</ele>
        <time>2026-03-16T15:08:55Z</time>
      </trkpt>
      <trkpt lat="48.42036" lon="7.36289">
        <ele>714.2</ele>
        <time>2026-03-16T15:09:00Z</time>
      </trkpt>
      <trkpt lat="48.42045" lon="7.36294">
        <ele>715.8</ele>
        <time>2026-03-16T15:09:05Z</time>
      </trkpt>
      <trkpt lat="48.42054" lon="7.36296">
        <ele>717.7</ele>
        <time>2026-03-16T15:09:10Z</time>
      </trkpt>
      <trkpt lat="48.42057" lon="7.36297">
        <ele>718.3</ele>
        <time>2026-03-16T15:09:15Z</time>
      </trkpt>
      <trkpt lat="48.42068" lon="7.363">
        <ele>720.6</ele>
        <time>2026-03-16T15:09:20Z</time>
      </trkpt>
      <trkpt lat="48.42072" lon="7.36301">
        <ele>721.5</ele>
        <time>2026-03-16T15:09:25Z</time>
      </trkpt>
      <trkpt lat="48.42072" lon="7.36301">
        <ele>721.5</ele>
        <time>2026-03-16T15:09:30Z</time>
      </trkpt>
      <trkpt lat="48.42087" lon="7.36302">
        <ele>724.6</ele>
        <time>2026-03-16T15:09:35Z</time>
      </trkpt>
      <trkpt lat="48.42087" lon="7.36302">
        <ele>724.6</ele>
        <time>2026-03-16T15:09:40Z</time>
      </trkpt>
      <trkpt lat="48.42097" lon="7.36304">
        <ele>725.5</ele>
        <time>2026-03-16T15:09:45Z</time>
      </trkpt>
      <trkpt lat="48.421" lon="7.36304">
        <ele>725.9</ele>
        <time>2026-03-16T15:09:50Z</time>
      </trkpt>
      <trkpt lat="48.42116" lon="7.3631">
        <ele>726.9</ele>
        <time>2026-03-16T15:09:55Z</time>
      </trkpt>
      <trkpt lat="48.42121" lon="7.36314">
        <ele>726.9</ele>
        <time>2026-03-16T15:10:00Z</time>
      </trkpt>
      <trkpt lat="48.42121" lon="7.36314">
        <ele>726.9</ele>
        <time>2026-03-16T15:10:05Z</time>
      </trkpt>
      <trkpt lat="48.42133" lon="7.36318">
        <ele>727.7</ele>
        <time>2026-03-16T15:10:10Z</time>
      </trkpt>
      <trkpt lat="48.42134" lon="7.36318">
        <ele>727.8</ele>
        <time>2026-03-16T15:10:15Z</time>
      </trkpt>
      <trkpt lat="48.42144" lon="7.36328">
        <ele>727.4</ele>
        <time>2026-03-16T15:10:20Z</time>
      </trkpt>
      <trkpt lat="48.42145" lon="7.36328">
        <ele>727.5</ele>
        <time>2026-03-16T15:10:25Z</time>
      </trkpt>
      <trkpt lat="48.42145" lon="7.36328">
        <ele>727.5</ele>
        <time>2026-03-16T15:10:30Z</time>
      </trkpt>
      <trkpt lat="48.42156" lon="7.36333">
        <ele>727.9</ele>
        <time>2026-03-16T15:10:35Z</time>
      </trkpt>
      <trkpt lat="48.42156" lon="7.36333">
        <ele>727.9</ele>
        <time>2026-03-16T15:10:40Z</time>
      </trkpt>
      <trkpt lat="48.42162" lon="7.36346">
        <ele>724.9</ele>
        <time>2026-03-16T15:10:45Z</time>
      </trkpt>
      <trkpt lat="48.42164" lon="7.36349">
        <ele>724.2</ele>
        <time>2026-03-16T15:10:50Z</time>
      </trkpt>
      <trkpt lat="48.42164" lon="7.36349">
        <ele>724.2</ele>
        <time>2026-03-16T15:10:55Z</time>
      </trkpt>
      <trkpt lat="48.42168" lon="7.36364">
        <ele>720.3</ele>
        <time>2026-03-16T15:11:00Z</time>
      </trkpt>
      <trkpt lat="48.42168" lon="7.36365">
        <ele>720</ele>
        <time>2026-03-16T15:11:05Z</time>
      </trkpt>
      <trkpt lat="48.42168" lon="7.36365">
        <ele>720</ele>
        <time>2026-03-16T15:11:10Z</time>
      </trkpt>
      <trkpt lat="48.42172" lon="7.36385">
        <ele>714.9</ele>
        <time>2026-03-16T15:11:15Z</time>
      </trkpt>
      <trkpt lat="48.42172" lon="7.36385">
        <ele>714.9</ele>
        <time>2026-03-16T15:11:20Z</time>
      </trkpt>
      <trkpt lat="48.42177" lon="7.36399">
        <ele>711.8</ele>
        <time>2026-03-16T15:11:25Z</time>
      </trkpt>
      <trkpt lat="48.42177" lon="7.36399">
        <ele>711.8</ele>
        <time>2026-03-16T15:11:30Z</time>
      </trkpt>
      <trkpt lat="48.42177" lon="7.36399">
        <ele>711.8</ele>
        <time>2026-03-16T15:11:35Z</time>
      </trkpt>
      <trkpt lat="48.42186" lon="7.36414">
        <ele>709.4</ele>
        <time>2026-03-16T15:11:40Z</time>
      </trkpt>
      <trkpt lat="48.42186" lon="7.36414">
        <ele>709.4</ele>
        <time>2026-03-16T15:11:45Z</time>
      </trkpt>
      <trkpt lat="48.42193" lon="7.36431">
        <ele>707.3</ele>
        <time>2026-03-16T15:11:50Z</time>
      </trkpt>
      <trkpt lat="48.42193" lon="7.36431">
        <ele>707.3</ele>
        <time>2026-03-16T15:11:55Z</time>
      </trkpt>
      <trkpt lat="48.42197" lon="7.3645">
        <ele>704.5</ele>
        <time>2026-03-16T15:12:00Z</time>
      </trkpt>
      <trkpt lat="48.42197" lon="7.3645">
        <ele>704.5</ele>
        <time>2026-03-16T15:12:05Z</time>
      </trkpt>
      <trkpt lat="48.42203" lon="7.36473">
        <ele>701.4</ele>
        <time>2026-03-16T15:12:10Z</time>
      </trkpt>
      <trkpt lat="48.42207" lon="7.36486">
        <ele>699.8</ele>
        <time>2026-03-16T15:12:15Z</time>
      </trkpt>
      <trkpt lat="48.42209" lon="7.36493">
        <ele>699</ele>
        <time>2026-03-16T15:12:20Z</time>
      </trkpt>
      <trkpt lat="48.42209" lon="7.36493">
        <ele>699</ele>
        <time>2026-03-16T15:12:25Z</time>
      </trkpt>
      <trkpt lat="48.42214" lon="7.36506">
        <ele>697.9</ele>
        <time>2026-03-16T15:12:30Z</time>
      </trkpt>
      <trkpt lat="48.42215" lon="7.36508">
        <ele>697.9</ele>
        <time>2026-03-16T15:12:35Z</time>
      </trkpt>
      <trkpt lat="48.42215" lon="7.36508">
        <ele>697.9</ele>
        <time>2026-03-16T15:12:40Z</time>
      </trkpt>
      <trkpt lat="48.42224" lon="7.36524">
        <ele>697.6</ele>
        <time>2026-03-16T15:12:45Z</time>
      </trkpt>
      <trkpt lat="48.42224" lon="7.36524">
        <ele>697.6</ele>
        <time>2026-03-16T15:12:50Z</time>
      </trkpt>
      <trkpt lat="48.4223" lon="7.36539">
        <ele>696.8</ele>
        <time>2026-03-16T15:12:55Z</time>
      </trkpt>
      <trkpt lat="48.42233" lon="7.36553">
        <ele>695.5</ele>
        <time>2026-03-16T15:13:00Z</time>
      </trkpt>
      <trkpt lat="48.42235" lon="7.36557">
        <ele>695.4</ele>
        <time>2026-03-16T15:13:05Z</time>
      </trkpt>
      <trkpt lat="48.42235" lon="7.36557">
        <ele>695.4</ele>
        <time>2026-03-16T15:13:10Z</time>
      </trkpt>
      <trkpt lat="48.42239" lon="7.36573">
        <ele>694</ele>
        <time>2026-03-16T15:13:15Z</time>
      </trkpt>
      <trkpt lat="48.42239" lon="7.36573">
        <ele>694</ele>
        <time>2026-03-16T15:13:20Z</time>
      </trkpt>
      <trkpt lat="48.42244" lon="7.36585">
        <ele>693.4</ele>
        <time>2026-03-16T15:13:25Z</time>
      </trkpt>
      <trkpt lat="48.42247" lon="7.3659">
        <ele>693.4</ele>
        <time>2026-03-16T15:13:30Z</time>
      </trkpt>
      <trkpt lat="48.42258" lon="7.36611">
        <ele>693.4</ele>
        <time>2026-03-16T15:13:35Z</time>
      </trkpt>
      <trkpt lat="48.42258" lon="7.36612">
        <ele>693.2</ele>
        <time>2026-03-16T15:13:40Z</time>
      </trkpt>
      <trkpt lat="48.4227" lon="7.36636">
        <ele>692.8</ele>
        <time>2026-03-16T15:13:45Z</time>
      </trkpt>
      <trkpt lat="48.42277" lon="7.36651">
        <ele>692.2</ele>
        <time>2026-03-16T15:13:50Z</time>
      </trkpt>
      <trkpt lat="48.42278" lon="7.36652">
        <ele>692.2</ele>
        <time>2026-03-16T15:13:55Z</time>
      </trkpt>
      <trkpt lat="48.42278" lon="7.36652">
        <ele>692.2</ele>
        <time>2026-03-16T15:14:00Z</time>
      </trkpt>
      <trkpt lat="48.42289" lon="7.36661">
        <ele>693.4</ele>
        <time>2026-03-16T15:14:05Z</time>
      </trkpt>
      <trkpt lat="48.42289" lon="7.36661">
        <ele>693.4</ele>
        <time>2026-03-16T15:14:10Z</time>
      </trkpt>
      <trkpt lat="48.42301" lon="7.3667">
        <ele>694.7</ele>
        <time>2026-03-16T15:14:15Z</time>
      </trkpt>
      <trkpt lat="48.42302" lon="7.36672">
        <ele>694.5</ele>
        <time>2026-03-16T15:14:20Z</time>
      </trkpt>
      <trkpt lat="48.42315" lon="7.36684">
        <ele>695.5</ele>
        <time>2026-03-16T15:14:25Z</time>
      </trkpt>
      <trkpt lat="48.42315" lon="7.36684">
        <ele>695.5</ele>
        <time>2026-03-16T15:14:30Z</time>
      </trkpt>
      <trkpt lat="48.42325" lon="7.36704">
        <ele>694.3</ele>
        <time>2026-03-16T15:14:35Z</time>
      </trkpt>
      <trkpt lat="48.42326" lon="7.36718">
        <ele>692.1</ele>
        <time>2026-03-16T15:14:40Z</time>
      </trkpt>
      <trkpt lat="48.42326" lon="7.36718">
        <ele>692.1</ele>
        <time>2026-03-16T15:14:45Z</time>
      </trkpt>
      <trkpt lat="48.42335" lon="7.36736">
        <ele>691</ele>
        <time>2026-03-16T15:14:50Z</time>
      </trkpt>
      <trkpt lat="48.42336" lon="7.36738">
        <ele>690.9</ele>
        <time>2026-03-16T15:14:55Z</time>
      </trkpt>
      <trkpt lat="48.42336" lon="7.36738">
        <ele>690.9</ele>
        <time>2026-03-16T15:15:00Z</time>
      </trkpt>
      <trkpt lat="48.42346" lon="7.36755">
        <ele>690.7</ele>
        <time>2026-03-16T15:15:05Z</time>
      </trkpt>
      <trkpt lat="48.42346" lon="7.36755">
        <ele>690.7</ele>
        <time>2026-03-16T15:15:10Z</time>
      </trkpt>
      <trkpt lat="48.42356" lon="7.36773">
        <ele>690.6</ele>
        <time>2026-03-16T15:15:15Z</time>
      </trkpt>
      <trkpt lat="48.42364" lon="7.36786">
        <ele>690.6</ele>
        <time>2026-03-16T15:15:20Z</time>
      </trkpt>
      <trkpt lat="48.42371" lon="7.36799">
        <ele>690.3</ele>
        <time>2026-03-16T15:15:25Z</time>
      </trkpt>
      <trkpt lat="48.42376" lon="7.36807">
        <ele>690.2</ele>
        <time>2026-03-16T15:15:30Z</time>
      </trkpt>
      <trkpt lat="48.4238" lon="7.3681">
        <ele>690.6</ele>
        <time>2026-03-16T15:15:35Z</time>
      </trkpt>
      <trkpt lat="48.4238" lon="7.3681">
        <ele>690.6</ele>
        <time>2026-03-16T15:15:40Z</time>
      </trkpt>
      <trkpt lat="48.42387" lon="7.36823">
        <ele>690</ele>
        <time>2026-03-16T15:15:45Z</time>
      </trkpt>
      <trkpt lat="48.42395" lon="7.36826">
        <ele>691.4</ele>
        <time>2026-03-16T15:15:50Z</time>
      </trkpt>
      <trkpt lat="48.42404" lon="7.36827">
        <ele>693.3</ele>
        <time>2026-03-16T15:15:55Z</time>
      </trkpt>
      <trkpt lat="48.42409" lon="7.36835">
        <ele>693</ele>
        <time>2026-03-16T15:16:00Z</time>
      </trkpt>
      <trkpt lat="48.42415" lon="7.36838">
        <ele>694.1</ele>
        <time>2026-03-16T15:16:05Z</time>
      </trkpt>
      <trkpt lat="48.42416" lon="7.36838">
        <ele>694.3</ele>
        <time>2026-03-16T15:16:10Z</time>
      </trkpt>
      <trkpt lat="48.42423" lon="7.36846">
        <ele>695.2</ele>
        <time>2026-03-16T15:16:15Z</time>
      </trkpt>
      <trkpt lat="48.42426" lon="7.36849">
        <ele>695.6</ele>
        <time>2026-03-16T15:16:20Z</time>
      </trkpt>
      <trkpt lat="48.42426" lon="7.36849">
        <ele>695.6</ele>
        <time>2026-03-16T15:16:25Z</time>
      </trkpt>
      <trkpt lat="48.42438" lon="7.36849">
        <ele>698.7</ele>
        <time>2026-03-16T15:16:30Z</time>
      </trkpt>
      <trkpt lat="48.4244" lon="7.36848">
        <ele>699.4</ele>
        <time>2026-03-16T15:16:35Z</time>
      </trkpt>
      <trkpt lat="48.4245" lon="7.36852">
        <ele>701.4</ele>
        <time>2026-03-16T15:16:40Z</time>
      </trkpt>
      <trkpt lat="48.42456" lon="7.36858">
        <ele>702.1</ele>
        <time>2026-03-16T15:16:45Z</time>
      </trkpt>
      <trkpt lat="48.42462" lon="7.36861">
        <ele>703.1</ele>
        <time>2026-03-16T15:16:50Z</time>
      </trkpt>
      <trkpt lat="48.42462" lon="7.36861">
        <ele>703.1</ele>
        <time>2026-03-16T15:16:55Z</time>
      </trkpt>
      <trkpt lat="48.4247" lon="7.36876">
        <ele>702.6</ele>
        <time>2026-03-16T15:17:00Z</time>
      </trkpt>
      <trkpt lat="48.4247" lon="7.36876">
        <ele>702.6</ele>
        <time>2026-03-16T15:17:05Z</time>
      </trkpt>
      <trkpt lat="48.4248" lon="7.36874">
        <ele>705.4</ele>
        <time>2026-03-16T15:17:10Z</time>
      </trkpt>
      <trkpt lat="48.42482" lon="7.36875">
        <ele>705.7</ele>
        <time>2026-03-16T15:17:15Z</time>
      </trkpt>
      <trkpt lat="48.42482" lon="7.36875">
        <ele>705.7</ele>
        <time>2026-03-16T15:17:20Z</time>
      </trkpt>
      <trkpt lat="48.42482" lon="7.36875">
        <ele>705.7</ele>
        <time>2026-03-16T15:17:25Z</time>
      </trkpt>
      <trkpt lat="48.42482" lon="7.36875">
        <ele>705.7</ele>
        <time>2026-03-16T15:17:30Z</time>
      </trkpt>
      <trkpt lat="48.42482" lon="7.36875">
        <ele>705.7</ele>
        <time>2026-03-16T15:17:35Z</time>
      </trkpt>
      <trkpt lat="48.42482" lon="7.36875">
        <ele>705.7</ele>
        <time>2026-03-16T15:17:40Z</time>
      </trkpt>
      <trkpt lat="48.42482" lon="7.36875">
        <ele>705.7</ele>
        <time>2026-03-16T15:17:45Z</time>
      </trkpt>
      <trkpt lat="48.42482" lon="7.36875">
        <ele>705.7</ele>
        <time>2026-03-16T15:17:50Z</time>
      </trkpt>
      <trkpt lat="48.42482" lon="7.36875">
        <ele>705.7</ele>
        <time>2026-03-16T15:17:55Z</time>
      </trkpt>
      <trkpt lat="48.42482" lon="7.36875">
        <ele>705.7</ele>
        <time>2026-03-16T15:18:00Z</time>
      </trkpt>
      <trkpt lat="48.42482" lon="7.36875">
        <ele>705.7</ele>
        <time>2026-03-16T15:18:05Z</time>
      </trkpt>
      <trkpt lat="48.42482" lon="7.36875">
        <ele>705.7</ele>
        <time>2026-03-16T15:18:10Z</time>
      </trkpt>
      <trkpt lat="48.4249" lon="7.36889">
        <ele>705</ele>
        <time>2026-03-16T15:18:15Z</time>
      </trkpt>
      <trkpt lat="48.4249" lon="7.36899">
        <ele>703.2</ele>
        <time>2026-03-16T15:18:20Z</time>
      </trkpt>
      <trkpt lat="48.42492" lon="7.36912">
        <ele>701.2</ele>
        <time>2026-03-16T15:18:25Z</time>
      </trkpt>
      <trkpt lat="48.42489" lon="7.36924">
        <ele>699.1</ele>
        <time>2026-03-16T15:18:30Z</time>
      </trkpt>
      <trkpt lat="48.42494" lon="7.3693">
        <ele>699.5</ele>
        <time>2026-03-16T15:18:35Z</time>
      </trkpt>
      <trkpt lat="48.42496" lon="7.36941">
        <ele>698.9</ele>
        <time>2026-03-16T15:18:40Z</time>
      </trkpt>
      <trkpt lat="48.42503" lon="7.36953">
        <ele>698.9</ele>
        <time>2026-03-16T15:18:45Z</time>
      </trkpt>
      <trkpt lat="48.42507" lon="7.36959">
        <ele>698.9</ele>
        <time>2026-03-16T15:18:50Z</time>
      </trkpt>
      <trkpt lat="48.42507" lon="7.36962">
        <ele>698.6</ele>
        <time>2026-03-16T15:18:55Z</time>
      </trkpt>
      <trkpt lat="48.42517" lon="7.36978">
        <ele>698.5</ele>
        <time>2026-03-16T15:19:00Z</time>
      </trkpt>
      <trkpt lat="48.42523" lon="7.36991">
        <ele>698</ele>
        <time>2026-03-16T15:19:05Z</time>
      </trkpt>
      <trkpt lat="48.42531" lon="7.36998">
        <ele>698.3</ele>
        <time>2026-03-16T15:19:10Z</time>
      </trkpt>
      <trkpt lat="48.42538" lon="7.37009">
        <ele>698.4</ele>
        <time>2026-03-16T15:19:15Z</time>
      </trkpt>
      <trkpt lat="48.42541" lon="7.37019">
        <ele>698.2</ele>
        <time>2026-03-16T15:19:20Z</time>
      </trkpt>
      <trkpt lat="48.42545" lon="7.37026">
        <ele>698.2</ele>
        <time>2026-03-16T15:19:25Z</time>
      </trkpt>
      <trkpt lat="48.4255" lon="7.37032">
        <ele>698.5</ele>
        <time>2026-03-16T15:19:30Z</time>
      </trkpt>
      <trkpt lat="48.42555" lon="7.37037">
        <ele>698.9</ele>
        <time>2026-03-16T15:19:35Z</time>
      </trkpt>
      <trkpt lat="48.42556" lon="7.37039">
        <ele>698.9</ele>
        <time>2026-03-16T15:19:40Z</time>
      </trkpt>
      <trkpt lat="48.42558" lon="7.37057">
        <ele>698</ele>
        <time>2026-03-16T15:19:45Z</time>
      </trkpt>
      <trkpt lat="48.4256" lon="7.37066">
        <ele>697.7</ele>
        <time>2026-03-16T15:19:50Z</time>
      </trkpt>
      <trkpt lat="48.42566" lon="7.37073">
        <ele>698.1</ele>
        <time>2026-03-16T15:19:55Z</time>
      </trkpt>
      <trkpt lat="48.4257" lon="7.37081">
        <ele>698.2</ele>
        <time>2026-03-16T15:20:00Z</time>
      </trkpt>
      <trkpt lat="48.42575" lon="7.37091">
        <ele>698.4</ele>
        <time>2026-03-16T15:20:05Z</time>
      </trkpt>
      <trkpt lat="48.42581" lon="7.37102">
        <ele>698.8</ele>
        <time>2026-03-16T15:20:10Z</time>
      </trkpt>
      <trkpt lat="48.42583" lon="7.37104">
        <ele>699</ele>
        <time>2026-03-16T15:20:15Z</time>
      </trkpt>
      <trkpt lat="48.42591" lon="7.37111">
        <ele>699.3</ele>
        <time>2026-03-16T15:20:20Z</time>
      </trkpt>
      <trkpt lat="48.42591" lon="7.37111">
        <ele>699.3</ele>
        <time>2026-03-16T15:20:25Z</time>
      </trkpt>
      <trkpt lat="48.4259" lon="7.37126">
        <ele>698.5</ele>
        <time>2026-03-16T15:20:30Z</time>
      </trkpt>
      <trkpt lat="48.42589" lon="7.37131">
        <ele>698.2</ele>
        <time>2026-03-16T15:20:35Z</time>
      </trkpt>
      <trkpt lat="48.42582" lon="7.37147">
        <ele>696.7</ele>
        <time>2026-03-16T15:20:40Z</time>
      </trkpt>
      <trkpt lat="48.42578" lon="7.37158">
        <ele>695.6</ele>
        <time>2026-03-16T15:20:45Z</time>
      </trkpt>
      <trkpt lat="48.42575" lon="7.37167">
        <ele>694.7</ele>
        <time>2026-03-16T15:20:50Z</time>
      </trkpt>
      <trkpt lat="48.42574" lon="7.37177">
        <ele>693.9</ele>
        <time>2026-03-16T15:20:55Z</time>
      </trkpt>
      <trkpt lat="48.42572" lon="7.37185">
        <ele>693.1</ele>
        <time>2026-03-16T15:21:00Z</time>
      </trkpt>
      <trkpt lat="48.42572" lon="7.37185">
        <ele>693.1</ele>
        <time>2026-03-16T15:21:05Z</time>
      </trkpt>
      <trkpt lat="48.42567" lon="7.37207">
        <ele>691</ele>
        <time>2026-03-16T15:21:10Z</time>
      </trkpt>
      <trkpt lat="48.42566" lon="7.37218">
        <ele>690.2</ele>
        <time>2026-03-16T15:21:15Z</time>
      </trkpt>
      <trkpt lat="48.42566" lon="7.37221">
        <ele>690.1</ele>
        <time>2026-03-16T15:21:20Z</time>
      </trkpt>
      <trkpt lat="48.42566" lon="7.37221">
        <ele>690.1</ele>
        <time>2026-03-16T15:21:25Z</time>
      </trkpt>
      <trkpt lat="48.42563" lon="7.37241">
        <ele>688.6</ele>
        <time>2026-03-16T15:21:30Z</time>
      </trkpt>
      <trkpt lat="48.42563" lon="7.37241">
        <ele>688.6</ele>
        <time>2026-03-16T15:21:35Z</time>
      </trkpt>
      <trkpt lat="48.42558" lon="7.37267">
        <ele>687.1</ele>
        <time>2026-03-16T15:21:40Z</time>
      </trkpt>
      <trkpt lat="48.42556" lon="7.37278">
        <ele>686.6</ele>
        <time>2026-03-16T15:21:45Z</time>
      </trkpt>
      <trkpt lat="48.42554" lon="7.37291">
        <ele>686.1</ele>
        <time>2026-03-16T15:21:50Z</time>
      </trkpt>
      <trkpt lat="48.42554" lon="7.37294">
        <ele>686</ele>
        <time>2026-03-16T15:21:55Z</time>
      </trkpt>
      <trkpt lat="48.42554" lon="7.37294">
        <ele>686</ele>
        <time>2026-03-16T15:22:00Z</time>
      </trkpt>
      <trkpt lat="48.4255" lon="7.37313">
        <ele>685.1</ele>
        <time>2026-03-16T15:22:05Z</time>
      </trkpt>
      <trkpt lat="48.4255" lon="7.37313">
        <ele>685.1</ele>
        <time>2026-03-16T15:22:10Z</time>
      </trkpt>
      <trkpt lat="48.42548" lon="7.37329">
        <ele>684.6</ele>
        <time>2026-03-16T15:22:15Z</time>
      </trkpt>
      <trkpt lat="48.42548" lon="7.37332">
        <ele>684.5</ele>
        <time>2026-03-16T15:22:20Z</time>
      </trkpt>
      <trkpt lat="48.42541" lon="7.37349">
        <ele>685.6</ele>
        <time>2026-03-16T15:22:25Z</time>
      </trkpt>
      <trkpt lat="48.42541" lon="7.37349">
        <ele>685.6</ele>
        <time>2026-03-16T15:22:30Z</time>
      </trkpt>
      <trkpt lat="48.42534" lon="7.37363">
        <ele>686.6</ele>
        <time>2026-03-16T15:22:35Z</time>
      </trkpt>
      <trkpt lat="48.42534" lon="7.37365">
        <ele>686.9</ele>
        <time>2026-03-16T15:22:40Z</time>
      </trkpt>
      <trkpt lat="48.4253" lon="7.3738">
        <ele>688.3</ele>
        <time>2026-03-16T15:22:45Z</time>
      </trkpt>
      <trkpt lat="48.42529" lon="7.37383">
        <ele>688.6</ele>
        <time>2026-03-16T15:22:50Z</time>
      </trkpt>
      <trkpt lat="48.42523" lon="7.37396">
        <ele>689.9</ele>
        <time>2026-03-16T15:22:55Z</time>
      </trkpt>
      <trkpt lat="48.42522" lon="7.37398">
        <ele>690.1</ele>
        <time>2026-03-16T15:23:00Z</time>
      </trkpt>
      <trkpt lat="48.42522" lon="7.37398">
        <ele>690.1</ele>
        <time>2026-03-16T15:23:05Z</time>
      </trkpt>
      <trkpt lat="48.42509" lon="7.37413">
        <ele>691.6</ele>
        <time>2026-03-16T15:23:10Z</time>
      </trkpt>
      <trkpt lat="48.42509" lon="7.37413">
        <ele>691.6</ele>
        <time>2026-03-16T15:23:15Z</time>
      </trkpt>
      <trkpt lat="48.42499" lon="7.37427">
        <ele>694</ele>
        <time>2026-03-16T15:23:20Z</time>
      </trkpt>
      <trkpt lat="48.42499" lon="7.37427">
        <ele>694</ele>
        <time>2026-03-16T15:23:25Z</time>
      </trkpt>
      <trkpt lat="48.42486" lon="7.37441">
        <ele>695.9</ele>
        <time>2026-03-16T15:23:30Z</time>
      </trkpt>
      <trkpt lat="48.42485" lon="7.37442">
        <ele>696</ele>
        <time>2026-03-16T15:23:35Z</time>
      </trkpt>
      <trkpt lat="48.42485" lon="7.37442">
        <ele>696</ele>
        <time>2026-03-16T15:23:40Z</time>
      </trkpt>
      <trkpt lat="48.42475" lon="7.37456">
        <ele>697.9</ele>
        <time>2026-03-16T15:23:45Z</time>
      </trkpt>
      <trkpt lat="48.42475" lon="7.37456">
        <ele>697.9</ele>
        <time>2026-03-16T15:23:50Z</time>
      </trkpt>
      <trkpt lat="48.42464" lon="7.37465">
        <ele>698.8</ele>
        <time>2026-03-16T15:23:55Z</time>
      </trkpt>
      <trkpt lat="48.42464" lon="7.37465">
        <ele>698.8</ele>
        <time>2026-03-16T15:24:00Z</time>
      </trkpt>
      <trkpt lat="48.42449" lon="7.37477">
        <ele>699.7</ele>
        <time>2026-03-16T15:24:05Z</time>
      </trkpt>
      <trkpt lat="48.42438" lon="7.37482">
        <ele>699.7</ele>
        <time>2026-03-16T15:24:10Z</time>
      </trkpt>
      <trkpt lat="48.42428" lon="7.37483">
        <ele>699</ele>
        <time>2026-03-16T15:24:15Z</time>
      </trkpt>
      <trkpt lat="48.42426" lon="7.37483">
        <ele>698.8</ele>
        <time>2026-03-16T15:24:20Z</time>
      </trkpt>
      <trkpt lat="48.42414" lon="7.37485">
        <ele>697.8</ele>
        <time>2026-03-16T15:24:25Z</time>
      </trkpt>
      <trkpt lat="48.42413" lon="7.37484">
        <ele>697.4</ele>
        <time>2026-03-16T15:24:30Z</time>
      </trkpt>
      <trkpt lat="48.42404" lon="7.37483">
        <ele>695.5</ele>
        <time>2026-03-16T15:24:35Z</time>
      </trkpt>
      <trkpt lat="48.42402" lon="7.37483">
        <ele>695.1</ele>
        <time>2026-03-16T15:24:40Z</time>
      </trkpt>
      <trkpt lat="48.42393" lon="7.37488">
        <ele>694.2</ele>
        <time>2026-03-16T15:24:45Z</time>
      </trkpt>
      <trkpt lat="48.42389" lon="7.37489">
        <ele>693.6</ele>
        <time>2026-03-16T15:24:50Z</time>
      </trkpt>
      <trkpt lat="48.42379" lon="7.37494">
        <ele>692.4</ele>
        <time>2026-03-16T15:24:55Z</time>
      </trkpt>
      <trkpt lat="48.42379" lon="7.37494">
        <ele>692.4</ele>
        <time>2026-03-16T15:25:00Z</time>
      </trkpt>
      <trkpt lat="48.42367" lon="7.37498">
        <ele>690.6</ele>
        <time>2026-03-16T15:25:05Z</time>
      </trkpt>
      <trkpt lat="48.42367" lon="7.37498">
        <ele>690.6</ele>
        <time>2026-03-16T15:25:10Z</time>
      </trkpt>
      <trkpt lat="48.42353" lon="7.37502">
        <ele>688.4</ele>
        <time>2026-03-16T15:25:15Z</time>
      </trkpt>
      <trkpt lat="48.42342" lon="7.37503">
        <ele>686.3</ele>
        <time>2026-03-16T15:25:20Z</time>
      </trkpt>
      <trkpt lat="48.42336" lon="7.37506">
        <ele>685.7</ele>
        <time>2026-03-16T15:25:25Z</time>
      </trkpt>
      <trkpt lat="48.42335" lon="7.37506">
        <ele>685.5</ele>
        <time>2026-03-16T15:25:30Z</time>
      </trkpt>
      <trkpt lat="48.42335" lon="7.37506">
        <ele>685.5</ele>
        <time>2026-03-16T15:25:35Z</time>
      </trkpt>
      <trkpt lat="48.42324" lon="7.37513">
        <ele>684</ele>
        <time>2026-03-16T15:25:40Z</time>
      </trkpt>
      <trkpt lat="48.42324" lon="7.37513">
        <ele>684</ele>
        <time>2026-03-16T15:25:45Z</time>
      </trkpt>
      <trkpt lat="48.4231" lon="7.37521">
        <ele>681.7</ele>
        <time>2026-03-16T15:25:50Z</time>
      </trkpt>
      <trkpt lat="48.42309" lon="7.37522">
        <ele>681.6</ele>
        <time>2026-03-16T15:25:55Z</time>
      </trkpt>
      <trkpt lat="48.42294" lon="7.37529">
        <ele>678.9</ele>
        <time>2026-03-16T15:26:00Z</time>
      </trkpt>
      <trkpt lat="48.42291" lon="7.3753">
        <ele>678.2</ele>
        <time>2026-03-16T15:26:05Z</time>
      </trkpt>
      <trkpt lat="48.42291" lon="7.3753">
        <ele>678.2</ele>
        <time>2026-03-16T15:26:10Z</time>
      </trkpt>
      <trkpt lat="48.42274" lon="7.37544">
        <ele>676</ele>
        <time>2026-03-16T15:26:15Z</time>
      </trkpt>
      <trkpt lat="48.42273" lon="7.37544">
        <ele>675.8</ele>
        <time>2026-03-16T15:26:20Z</time>
      </trkpt>
      <trkpt lat="48.42273" lon="7.37544">
        <ele>675.8</ele>
        <time>2026-03-16T15:26:25Z</time>
      </trkpt>
      <trkpt lat="48.42262" lon="7.3755">
        <ele>673.7</ele>
        <time>2026-03-16T15:26:30Z</time>
      </trkpt>
      <trkpt lat="48.42262" lon="7.3755">
        <ele>673.7</ele>
        <time>2026-03-16T15:26:35Z</time>
      </trkpt>
      <trkpt lat="48.42249" lon="7.3755">
        <ele>670.1</ele>
        <time>2026-03-16T15:26:40Z</time>
      </trkpt>
      <trkpt lat="48.42239" lon="7.37552">
        <ele>667.3</ele>
        <time>2026-03-16T15:26:45Z</time>
      </trkpt>
      <trkpt lat="48.42236" lon="7.37554">
        <ele>666.7</ele>
        <time>2026-03-16T15:26:50Z</time>
      </trkpt>
      <trkpt lat="48.42229" lon="7.37565">
        <ele>666.2</ele>
        <time>2026-03-16T15:26:55Z</time>
      </trkpt>
      <trkpt lat="48.42226" lon="7.37571">
        <ele>666.2</ele>
        <time>2026-03-16T15:27:00Z</time>
      </trkpt>
      <trkpt lat="48.42228" lon="7.37586">
        <ele>669.4</ele>
        <time>2026-03-16T15:27:05Z</time>
      </trkpt>
      <trkpt lat="48.4223" lon="7.3759">
        <ele>670.7</ele>
        <time>2026-03-16T15:27:10Z</time>
      </trkpt>
      <trkpt lat="48.4223" lon="7.3759">
        <ele>670.7</ele>
        <time>2026-03-16T15:27:15Z</time>
      </trkpt>
      <trkpt lat="48.4223" lon="7.3759">
        <ele>670.7</ele>
        <time>2026-03-16T15:27:20Z</time>
      </trkpt>
      <trkpt lat="48.4223" lon="7.3759">
        <ele>670.7</ele>
        <time>2026-03-16T15:27:25Z</time>
      </trkpt>
      <trkpt lat="48.42226" lon="7.37604">
        <ele>671.9</ele>
        <time>2026-03-16T15:27:30Z</time>
      </trkpt>
      <trkpt lat="48.42225" lon="7.37604">
        <ele>671.6</ele>
        <time>2026-03-16T15:27:35Z</time>
      </trkpt>
      <trkpt lat="48.42225" lon="7.37604">
        <ele>671.6</ele>
        <time>2026-03-16T15:27:40Z</time>
      </trkpt>
      <trkpt lat="48.42218" lon="7.37615">
        <ele>671.1</ele>
        <time>2026-03-16T15:27:45Z</time>
      </trkpt>
      <trkpt lat="48.42212" lon="7.37623">
        <ele>670.4</ele>
        <time>2026-03-16T15:27:50Z</time>
      </trkpt>
      <trkpt lat="48.42212" lon="7.37623">
        <ele>670.4</ele>
        <time>2026-03-16T15:27:55Z</time>
      </trkpt>
      <trkpt lat="48.42205" lon="7.37636">
        <ele>670.2</ele>
        <time>2026-03-16T15:28:00Z</time>
      </trkpt>
      <trkpt lat="48.42199" lon="7.37645">
        <ele>669.5</ele>
        <time>2026-03-16T15:28:05Z</time>
      </trkpt>
      <trkpt lat="48.42198" lon="7.37648">
        <ele>669.6</ele>
        <time>2026-03-16T15:28:10Z</time>
      </trkpt>
      <trkpt lat="48.42191" lon="7.37658">
        <ele>668.7</ele>
        <time>2026-03-16T15:28:15Z</time>
      </trkpt>
      <trkpt lat="48.42187" lon="7.37663">
        <ele>668</ele>
        <time>2026-03-16T15:28:20Z</time>
      </trkpt>
      <trkpt lat="48.42182" lon="7.37676">
        <ele>667.9</ele>
        <time>2026-03-16T15:28:25Z</time>
      </trkpt>
      <trkpt lat="48.42177" lon="7.37688">
        <ele>667.5</ele>
        <time>2026-03-16T15:28:30Z</time>
      </trkpt>
      <trkpt lat="48.42175" lon="7.37699">
        <ele>668.1</ele>
        <time>2026-03-16T15:28:35Z</time>
      </trkpt>
      <trkpt lat="48.4217" lon="7.37708">
        <ele>667.2</ele>
        <time>2026-03-16T15:28:40Z</time>
      </trkpt>
      <trkpt lat="48.42167" lon="7.37719">
        <ele>667.4</ele>
        <time>2026-03-16T15:28:45Z</time>
      </trkpt>
      <trkpt lat="48.42163" lon="7.37729">
        <ele>667</ele>
        <time>2026-03-16T15:28:50Z</time>
      </trkpt>
      <trkpt lat="48.4216" lon="7.37736">
        <ele>666.6</ele>
        <time>2026-03-16T15:28:55Z</time>
      </trkpt>
      <trkpt lat="48.42158" lon="7.37746">
        <ele>667</ele>
        <time>2026-03-16T15:29:00Z</time>
      </trkpt>
      <trkpt lat="48.42152" lon="7.37757">
        <ele>665.9</ele>
        <time>2026-03-16T15:29:05Z</time>
      </trkpt>
      <trkpt lat="48.42152" lon="7.37766">
        <ele>667</ele>
        <time>2026-03-16T15:29:10Z</time>
      </trkpt>
      <trkpt lat="48.42152" lon="7.37767">
        <ele>667.1</ele>
        <time>2026-03-16T15:29:15Z</time>
      </trkpt>
      <trkpt lat="48.42146" lon="7.37783">
        <ele>666.4</ele>
        <time>2026-03-16T15:29:20Z</time>
      </trkpt>
      <trkpt lat="48.42141" lon="7.37799">
        <ele>666.1</ele>
        <time>2026-03-16T15:29:25Z</time>
      </trkpt>
      <trkpt lat="48.42138" lon="7.37807">
        <ele>665.7</ele>
        <time>2026-03-16T15:29:30Z</time>
      </trkpt>
      <trkpt lat="48.42138" lon="7.37807">
        <ele>665.7</ele>
        <time>2026-03-16T15:29:35Z</time>
      </trkpt>
      <trkpt lat="48.42132" lon="7.37822">
        <ele>664.6</ele>
        <time>2026-03-16T15:29:40Z</time>
      </trkpt>
      <trkpt lat="48.42132" lon="7.37822">
        <ele>664.6</ele>
        <time>2026-03-16T15:29:45Z</time>
      </trkpt>
      <trkpt lat="48.42131" lon="7.37847">
        <ele>666.8</ele>
        <time>2026-03-16T15:29:50Z</time>
      </trkpt>
      <trkpt lat="48.42131" lon="7.37848">
        <ele>666.9</ele>
        <time>2026-03-16T15:29:55Z</time>
      </trkpt>
      <trkpt lat="48.42128" lon="7.37866">
        <ele>667.4</ele>
        <time>2026-03-16T15:30:00Z</time>
      </trkpt>
      <trkpt lat="48.42126" lon="7.37879">
        <ele>667.9</ele>
        <time>2026-03-16T15:30:05Z</time>
      </trkpt>
      <trkpt lat="48.42126" lon="7.37881">
        <ele>668.1</ele>
        <time>2026-03-16T15:30:10Z</time>
      </trkpt>
      <trkpt lat="48.42121" lon="7.37895">
        <ele>667.3</ele>
        <time>2026-03-16T15:30:15Z</time>
      </trkpt>
      <trkpt lat="48.42118" lon="7.37902">
        <ele>666.6</ele>
        <time>2026-03-16T15:30:20Z</time>
      </trkpt>
      <trkpt lat="48.42112" lon="7.37919">
        <ele>665.6</ele>
        <time>2026-03-16T15:30:25Z</time>
      </trkpt>
      <trkpt lat="48.4211" lon="7.37924">
        <ele>665.1</ele>
        <time>2026-03-16T15:30:30Z</time>
      </trkpt>
      <trkpt lat="48.4211" lon="7.37924">
        <ele>665.1</ele>
        <time>2026-03-16T15:30:35Z</time>
      </trkpt>
      <trkpt lat="48.42104" lon="7.3794">
        <ele>663.5</ele>
        <time>2026-03-16T15:30:40Z</time>
      </trkpt>
      <trkpt lat="48.42104" lon="7.3794">
        <ele>663.5</ele>
        <time>2026-03-16T15:30:45Z</time>
      </trkpt>
      <trkpt lat="48.421" lon="7.37958">
        <ele>662.9</ele>
        <time>2026-03-16T15:30:50Z</time>
      </trkpt>
      <trkpt lat="48.42096" lon="7.37971">
        <ele>661.8</ele>
        <time>2026-03-16T15:30:55Z</time>
      </trkpt>
      <trkpt lat="48.42095" lon="7.37978">
        <ele>661.8</ele>
        <time>2026-03-16T15:31:00Z</time>
      </trkpt>
      <trkpt lat="48.42092" lon="7.37992">
        <ele>661.1</ele>
        <time>2026-03-16T15:31:05Z</time>
      </trkpt>
      <trkpt lat="48.42092" lon="7.37992">
        <ele>661.1</ele>
        <time>2026-03-16T15:31:10Z</time>
      </trkpt>
      <trkpt lat="48.42089" lon="7.38008">
        <ele>660.5</ele>
        <time>2026-03-16T15:31:15Z</time>
      </trkpt>
      <trkpt lat="48.42086" lon="7.3802">
        <ele>659.4</ele>
        <time>2026-03-16T15:31:20Z</time>
      </trkpt>
      <trkpt lat="48.42085" lon="7.38032">
        <ele>659.5</ele>
        <time>2026-03-16T15:31:25Z</time>
      </trkpt>
      <trkpt lat="48.42085" lon="7.38036">
        <ele>659.7</ele>
        <time>2026-03-16T15:31:30Z</time>
      </trkpt>
      <trkpt lat="48.42085" lon="7.38036">
        <ele>659.7</ele>
        <time>2026-03-16T15:31:35Z</time>
      </trkpt>
      <trkpt lat="48.4208" lon="7.3806">
        <ele>658.5</ele>
        <time>2026-03-16T15:31:40Z</time>
      </trkpt>
      <trkpt lat="48.4208" lon="7.3806">
        <ele>658.5</ele>
        <time>2026-03-16T15:31:45Z</time>
      </trkpt>
      <trkpt lat="48.42072" lon="7.38084">
        <ele>656.1</ele>
        <time>2026-03-16T15:31:50Z</time>
      </trkpt>
      <trkpt lat="48.42072" lon="7.38084">
        <ele>656.1</ele>
        <time>2026-03-16T15:31:55Z</time>
      </trkpt>
      <trkpt lat="48.42074" lon="7.38102">
        <ele>657.5</ele>
        <time>2026-03-16T15:32:00Z</time>
      </trkpt>
      <trkpt lat="48.42074" lon="7.38104">
        <ele>657.6</ele>
        <time>2026-03-16T15:32:05Z</time>
      </trkpt>
      <trkpt lat="48.42075" lon="7.38121">
        <ele>658.6</ele>
        <time>2026-03-16T15:32:10Z</time>
      </trkpt>
      <trkpt lat="48.42072" lon="7.38138">
        <ele>657.7</ele>
        <time>2026-03-16T15:32:15Z</time>
      </trkpt>
      <trkpt lat="48.42072" lon="7.38141">
        <ele>657.8</ele>
        <time>2026-03-16T15:32:20Z</time>
      </trkpt>
      <trkpt lat="48.42072" lon="7.38141">
        <ele>657.8</ele>
        <time>2026-03-16T15:32:25Z</time>
      </trkpt>
      <trkpt lat="48.42069" lon="7.38162">
        <ele>657</ele>
        <time>2026-03-16T15:32:30Z</time>
      </trkpt>
      <trkpt lat="48.4207" lon="7.38178">
        <ele>657.6</ele>
        <time>2026-03-16T15:32:35Z</time>
      </trkpt>
      <trkpt lat="48.4207" lon="7.38187">
        <ele>657.5</ele>
        <time>2026-03-16T15:32:40Z</time>
      </trkpt>
      <trkpt lat="48.4207" lon="7.38187">
        <ele>657.5</ele>
        <time>2026-03-16T15:32:45Z</time>
      </trkpt>
      <trkpt lat="48.42075" lon="7.38204">
        <ele>659.9</ele>
        <time>2026-03-16T15:32:50Z</time>
      </trkpt>
      <trkpt lat="48.42077" lon="7.38215">
        <ele>660.9</ele>
        <time>2026-03-16T15:32:55Z</time>
      </trkpt>
      <trkpt lat="48.42077" lon="7.38215">
        <ele>660.9</ele>
        <time>2026-03-16T15:33:00Z</time>
      </trkpt>
      <trkpt lat="48.42077" lon="7.38239">
        <ele>660.8</ele>
        <time>2026-03-16T15:33:05Z</time>
      </trkpt>
      <trkpt lat="48.42077" lon="7.38241">
        <ele>660.8</ele>
        <time>2026-03-16T15:33:10Z</time>
      </trkpt>
      <trkpt lat="48.42081" lon="7.38259">
        <ele>661.9</ele>
        <time>2026-03-16T15:33:15Z</time>
      </trkpt>
      <trkpt lat="48.42081" lon="7.38268">
        <ele>660.9</ele>
        <time>2026-03-16T15:33:20Z</time>
      </trkpt>
      <trkpt lat="48.42083" lon="7.38277">
        <ele>660.9</ele>
        <time>2026-03-16T15:33:25Z</time>
      </trkpt>
      <trkpt lat="48.42085" lon="7.38281">
        <ele>661.6</ele>
        <time>2026-03-16T15:33:30Z</time>
      </trkpt>
      <trkpt lat="48.42085" lon="7.38281">
        <ele>661.6</ele>
        <time>2026-03-16T15:33:35Z</time>
      </trkpt>
      <trkpt lat="48.42091" lon="7.383">
        <ele>663.1</ele>
        <time>2026-03-16T15:33:40Z</time>
      </trkpt>
      <trkpt lat="48.42094" lon="7.38313">
        <ele>663.4</ele>
        <time>2026-03-16T15:33:45Z</time>
      </trkpt>
      <trkpt lat="48.42095" lon="7.38317">
        <ele>663.6</ele>
        <time>2026-03-16T15:33:50Z</time>
      </trkpt>
      <trkpt lat="48.42095" lon="7.38317">
        <ele>663.6</ele>
        <time>2026-03-16T15:33:55Z</time>
      </trkpt>
      <trkpt lat="48.42099" lon="7.38335">
        <ele>664.1</ele>
        <time>2026-03-16T15:34:00Z</time>
      </trkpt>
      <trkpt lat="48.42099" lon="7.38335">
        <ele>664.1</ele>
        <time>2026-03-16T15:34:05Z</time>
      </trkpt>
      <trkpt lat="48.42103" lon="7.38355">
        <ele>664.7</ele>
        <time>2026-03-16T15:34:10Z</time>
      </trkpt>
      <trkpt lat="48.42105" lon="7.3837">
        <ele>664.6</ele>
        <time>2026-03-16T15:34:15Z</time>
      </trkpt>
      <trkpt lat="48.42106" lon="7.38377">
        <ele>664.6</ele>
        <time>2026-03-16T15:34:20Z</time>
      </trkpt>
      <trkpt lat="48.42106" lon="7.38377">
        <ele>664.6</ele>
        <time>2026-03-16T15:34:25Z</time>
      </trkpt>
      <trkpt lat="48.42111" lon="7.38394">
        <ele>666.2</ele>
        <time>2026-03-16T15:34:30Z</time>
      </trkpt>
      <trkpt lat="48.42111" lon="7.38394">
        <ele>666.2</ele>
        <time>2026-03-16T15:34:35Z</time>
      </trkpt>
      <trkpt lat="48.42116" lon="7.38409">
        <ele>668</ele>
        <time>2026-03-16T15:34:40Z</time>
      </trkpt>
      <trkpt lat="48.42118" lon="7.38411">
        <ele>669.1</ele>
        <time>2026-03-16T15:34:45Z</time>
      </trkpt>
      <trkpt lat="48.42119" lon="7.38426">
        <ele>668.4</ele>
        <time>2026-03-16T15:34:50Z</time>
      </trkpt>
      <trkpt lat="48.4212" lon="7.38443">
        <ele>667.6</ele>
        <time>2026-03-16T15:34:55Z</time>
      </trkpt>
      <trkpt lat="48.4212" lon="7.38445">
        <ele>667.4</ele>
        <time>2026-03-16T15:35:00Z</time>
      </trkpt>
      <trkpt lat="48.4212" lon="7.38445">
        <ele>667.4</ele>
        <time>2026-03-16T15:35:05Z</time>
      </trkpt>
      <trkpt lat="48.42117" lon="7.38469">
        <ele>663.5</ele>
        <time>2026-03-16T15:35:10Z</time>
      </trkpt>
      <trkpt lat="48.42117" lon="7.3847">
        <ele>663.4</ele>
        <time>2026-03-16T15:35:15Z</time>
      </trkpt>
      <trkpt lat="48.42117" lon="7.3847">
        <ele>663.4</ele>
        <time>2026-03-16T15:35:20Z</time>
      </trkpt>
      <trkpt lat="48.42115" lon="7.38492">
        <ele>660.3</ele>
        <time>2026-03-16T15:35:25Z</time>
      </trkpt>
      <trkpt lat="48.42118" lon="7.38501">
        <ele>661.4</ele>
        <time>2026-03-16T15:35:30Z</time>
      </trkpt>
      <trkpt lat="48.42121" lon="7.3851">
        <ele>662.8</ele>
        <time>2026-03-16T15:35:35Z</time>
      </trkpt>
      <trkpt lat="48.42121" lon="7.38519">
        <ele>662.5</ele>
        <time>2026-03-16T15:35:40Z</time>
      </trkpt>
      <trkpt lat="48.4212" lon="7.38521">
        <ele>661.9</ele>
        <time>2026-03-16T15:35:45Z</time>
      </trkpt>
      <trkpt lat="48.4212" lon="7.38521">
        <ele>661.9</ele>
        <time>2026-03-16T15:35:50Z</time>
      </trkpt>
      <trkpt lat="48.42121" lon="7.38532">
        <ele>662.1</ele>
        <time>2026-03-16T15:35:55Z</time>
      </trkpt>
      <trkpt lat="48.42119" lon="7.3854">
        <ele>660.7</ele>
        <time>2026-03-16T15:36:00Z</time>
      </trkpt>
      <trkpt lat="48.42118" lon="7.38554">
        <ele>659.7</ele>
        <time>2026-03-16T15:36:05Z</time>
      </trkpt>
      <trkpt lat="48.42118" lon="7.38556">
        <ele>659.6</ele>
        <time>2026-03-16T15:36:10Z</time>
      </trkpt>
      <trkpt lat="48.42122" lon="7.38571">
        <ele>661.3</ele>
        <time>2026-03-16T15:36:15Z</time>
      </trkpt>
      <trkpt lat="48.42121" lon="7.38582">
        <ele>660.4</ele>
        <time>2026-03-16T15:36:20Z</time>
      </trkpt>
      <trkpt lat="48.42122" lon="7.38593">
        <ele>662.2</ele>
        <time>2026-03-16T15:36:25Z</time>
      </trkpt>
      <trkpt lat="48.4212" lon="7.38605">
        <ele>662.7</ele>
        <time>2026-03-16T15:36:30Z</time>
      </trkpt>
      <trkpt lat="48.42117" lon="7.38616">
        <ele>662.6</ele>
        <time>2026-03-16T15:36:35Z</time>
      </trkpt>
      <trkpt lat="48.42116" lon="7.38619">
        <ele>662.4</ele>
        <time>2026-03-16T15:36:40Z</time>
      </trkpt>
      <trkpt lat="48.42115" lon="7.38634">
        <ele>663.9</ele>
        <time>2026-03-16T15:36:45Z</time>
      </trkpt>
      <trkpt lat="48.42113" lon="7.38642">
        <ele>664</ele>
        <time>2026-03-16T15:36:50Z</time>
      </trkpt>
      <trkpt lat="48.42113" lon="7.38642">
        <ele>664</ele>
        <time>2026-03-16T15:36:55Z</time>
      </trkpt>
      <trkpt lat="48.42113" lon="7.38642">
        <ele>664</ele>
        <time>2026-03-16T15:37:00Z</time>
      </trkpt>
      <trkpt lat="48.42108" lon="7.38659">
        <ele>663.7</ele>
        <time>2026-03-16T15:37:05Z</time>
      </trkpt>
      <trkpt lat="48.42107" lon="7.3866">
        <ele>663.3</ele>
        <time>2026-03-16T15:37:10Z</time>
      </trkpt>
      <trkpt lat="48.42102" lon="7.38674">
        <ele>663.7</ele>
        <time>2026-03-16T15:37:15Z</time>
      </trkpt>
      <trkpt lat="48.42101" lon="7.38676">
        <ele>663.8</ele>
        <time>2026-03-16T15:37:20Z</time>
      </trkpt>
      <trkpt lat="48.42094" lon="7.38689">
        <ele>663.9</ele>
        <time>2026-03-16T15:37:25Z</time>
      </trkpt>
      <trkpt lat="48.4209" lon="7.38704">
        <ele>666.2</ele>
        <time>2026-03-16T15:37:30Z</time>
      </trkpt>
      <trkpt lat="48.4209" lon="7.38705">
        <ele>666.4</ele>
        <time>2026-03-16T15:37:35Z</time>
      </trkpt>
      <trkpt lat="48.42083" lon="7.38719">
        <ele>667</ele>
        <time>2026-03-16T15:37:40Z</time>
      </trkpt>
      <trkpt lat="48.42084" lon="7.38724">
        <ele>668.9</ele>
        <time>2026-03-16T15:37:45Z</time>
      </trkpt>
      <trkpt lat="48.42084" lon="7.38724">
        <ele>668.9</ele>
        <time>2026-03-16T15:37:50Z</time>
      </trkpt>
      <trkpt lat="48.42076" lon="7.38735">
        <ele>668.9</ele>
        <time>2026-03-16T15:37:55Z</time>
      </trkpt>
      <trkpt lat="48.42076" lon="7.38735">
        <ele>668.9</ele>
        <time>2026-03-16T15:38:00Z</time>
      </trkpt>
      <trkpt lat="48.42076" lon="7.38735">
        <ele>668.9</ele>
        <time>2026-03-16T15:38:05Z</time>
      </trkpt>
      <trkpt lat="48.42076" lon="7.38735">
        <ele>668.9</ele>
        <time>2026-03-16T15:38:10Z</time>
      </trkpt>
      <trkpt lat="48.42066" lon="7.38742">
        <ele>667</ele>
        <time>2026-03-16T15:38:15Z</time>
      </trkpt>
      <trkpt lat="48.42064" lon="7.38744">
        <ele>666.7</ele>
        <time>2026-03-16T15:38:20Z</time>
      </trkpt>
      <trkpt lat="48.42058" lon="7.38755">
        <ele>667.2</ele>
        <time>2026-03-16T15:38:25Z</time>
      </trkpt>
      <trkpt lat="48.42057" lon="7.38758">
        <ele>667.6</ele>
        <time>2026-03-16T15:38:30Z</time>
      </trkpt>
      <trkpt lat="48.4205" lon="7.38766">
        <ele>666.7</ele>
        <time>2026-03-16T15:38:35Z</time>
      </trkpt>
      <trkpt lat="48.42044" lon="7.38769">
        <ele>664.9</ele>
        <time>2026-03-16T15:38:40Z</time>
      </trkpt>
      <trkpt lat="48.42044" lon="7.38769">
        <ele>664.9</ele>
        <time>2026-03-16T15:38:45Z</time>
      </trkpt>
      <trkpt lat="48.42036" lon="7.38782">
        <ele>664.6</ele>
        <time>2026-03-16T15:38:50Z</time>
      </trkpt>
      <trkpt lat="48.42035" lon="7.38784">
        <ele>664.6</ele>
        <time>2026-03-16T15:38:55Z</time>
      </trkpt>
      <trkpt lat="48.42027" lon="7.38798">
        <ele>664.2</ele>
        <time>2026-03-16T15:39:00Z</time>
      </trkpt>
      <trkpt lat="48.42026" lon="7.388">
        <ele>664.2</ele>
        <time>2026-03-16T15:39:05Z</time>
      </trkpt>
      <trkpt lat="48.42019" lon="7.38816">
        <ele>664.5</ele>
        <time>2026-03-16T15:39:10Z</time>
      </trkpt>
      <trkpt lat="48.42018" lon="7.38831">
        <ele>667.1</ele>
        <time>2026-03-16T15:39:15Z</time>
      </trkpt>
      <trkpt lat="48.42011" lon="7.38838">
        <ele>665.1</ele>
        <time>2026-03-16T15:39:20Z</time>
      </trkpt>
      <trkpt lat="48.42006" lon="7.38845">
        <ele>663.9</ele>
        <time>2026-03-16T15:39:25Z</time>
      </trkpt>
      <trkpt lat="48.42005" lon="7.3885">
        <ele>664.2</ele>
        <time>2026-03-16T15:39:30Z</time>
      </trkpt>
      <trkpt lat="48.41998" lon="7.38863">
        <ele>663.2</ele>
        <time>2026-03-16T15:39:35Z</time>
      </trkpt>
      <trkpt lat="48.41997" lon="7.38864">
        <ele>663</ele>
        <time>2026-03-16T15:39:40Z</time>
      </trkpt>
      <trkpt lat="48.41997" lon="7.38864">
        <ele>663</ele>
        <time>2026-03-16T15:39:45Z</time>
      </trkpt>
      <trkpt lat="48.4199" lon="7.38881">
        <ele>662.9</ele>
        <time>2026-03-16T15:39:50Z</time>
      </trkpt>
      <trkpt lat="48.4199" lon="7.38881">
        <ele>662.9</ele>
        <time>2026-03-16T15:39:55Z</time>
      </trkpt>
      <trkpt lat="48.41984" lon="7.38902">
        <ele>663.5</ele>
        <time>2026-03-16T15:40:00Z</time>
      </trkpt>
      <trkpt lat="48.41984" lon="7.38903">
        <ele>663.7</ele>
        <time>2026-03-16T15:40:05Z</time>
      </trkpt>
      <trkpt lat="48.41979" lon="7.3892">
        <ele>663.6</ele>
        <time>2026-03-16T15:40:10Z</time>
      </trkpt>
      <trkpt lat="48.41978" lon="7.38924">
        <ele>663.4</ele>
        <time>2026-03-16T15:40:15Z</time>
      </trkpt>
      <trkpt lat="48.41978" lon="7.38924">
        <ele>663.4</ele>
        <time>2026-03-16T15:40:20Z</time>
      </trkpt>
      <trkpt lat="48.41973" lon="7.38945">
        <ele>662.3</ele>
        <time>2026-03-16T15:40:25Z</time>
      </trkpt>
      <trkpt lat="48.41973" lon="7.38945">
        <ele>662.3</ele>
        <time>2026-03-16T15:40:30Z</time>
      </trkpt>
      <trkpt lat="48.41972" lon="7.38964">
        <ele>662.9</ele>
        <time>2026-03-16T15:40:35Z</time>
      </trkpt>
      <trkpt lat="48.4197" lon="7.38979">
        <ele>662.8</ele>
        <time>2026-03-16T15:40:40Z</time>
      </trkpt>
      <trkpt lat="48.41968" lon="7.38986">
        <ele>662.2</ele>
        <time>2026-03-16T15:40:45Z</time>
      </trkpt>
      <trkpt lat="48.41968" lon="7.38986">
        <ele>662.2</ele>
        <time>2026-03-16T15:40:50Z</time>
      </trkpt>
      <trkpt lat="48.41971" lon="7.39008">
        <ele>664</ele>
        <time>2026-03-16T15:40:55Z</time>
      </trkpt>
      <trkpt lat="48.41971" lon="7.39008">
        <ele>664</ele>
        <time>2026-03-16T15:41:00Z</time>
      </trkpt>
      <trkpt lat="48.41974" lon="7.39028">
        <ele>664.2</ele>
        <time>2026-03-16T15:41:05Z</time>
      </trkpt>
      <trkpt lat="48.41974" lon="7.39028">
        <ele>664.2</ele>
        <time>2026-03-16T15:41:10Z</time>
      </trkpt>
      <trkpt lat="48.41978" lon="7.39043">
        <ele>665</ele>
        <time>2026-03-16T15:41:15Z</time>
      </trkpt>
      <trkpt lat="48.41978" lon="7.39047">
        <ele>664.8</ele>
        <time>2026-03-16T15:41:20Z</time>
      </trkpt>
      <trkpt lat="48.41978" lon="7.39047">
        <ele>664.8</ele>
        <time>2026-03-16T15:41:25Z</time>
      </trkpt>
      <trkpt lat="48.41978" lon="7.39047">
        <ele>664.8</ele>
        <time>2026-03-16T15:41:30Z</time>
      </trkpt>
      <trkpt lat="48.41978" lon="7.39047">
        <ele>664.8</ele>
        <time>2026-03-16T15:41:35Z</time>
      </trkpt>
      <trkpt lat="48.41978" lon="7.39047">
        <ele>664.8</ele>
        <time>2026-03-16T15:41:40Z</time>
      </trkpt>
      <trkpt lat="48.41978" lon="7.39047">
        <ele>664.8</ele>
        <time>2026-03-16T15:41:45Z</time>
      </trkpt>
      <trkpt lat="48.41978" lon="7.39047">
        <ele>664.8</ele>
        <time>2026-03-16T15:41:50Z</time>
      </trkpt>
      <trkpt lat="48.41978" lon="7.39047">
        <ele>664.8</ele>
        <time>2026-03-16T15:41:55Z</time>
      </trkpt>
      <trkpt lat="48.41978" lon="7.39047">
        <ele>664.8</ele>
        <time>2026-03-16T15:42:00Z</time>
      </trkpt>
      <trkpt lat="48.41978" lon="7.39047">
        <ele>664.8</ele>
        <time>2026-03-16T15:42:05Z</time>
      </trkpt>
      <trkpt lat="48.41978" lon="7.39047">
        <ele>664.8</ele>
        <time>2026-03-16T15:42:10Z</time>
      </trkpt>
      <trkpt lat="48.41978" lon="7.39047">
        <ele>664.8</ele>
        <time>2026-03-16T15:42:15Z</time>
      </trkpt>
      <trkpt lat="48.4197" lon="7.39054">
        <ele>661.1</ele>
        <time>2026-03-16T15:42:20Z</time>
      </trkpt>
      <trkpt lat="48.4197" lon="7.39055">
        <ele>661</ele>
        <time>2026-03-16T15:42:25Z</time>
      </trkpt>
      <trkpt lat="48.4197" lon="7.39055">
        <ele>661</ele>
        <time>2026-03-16T15:42:31Z</time>
      </trkpt>
      <trkpt lat="48.4197" lon="7.39055">
        <ele>661</ele>
        <time>2026-03-16T15:42:36Z</time>
      </trkpt>
      <trkpt lat="48.4197" lon="7.39055">
        <ele>661</ele>
        <time>2026-03-16T15:42:41Z</time>
      </trkpt>
      <trkpt lat="48.41979" lon="7.3906">
        <ele>664.4</ele>
        <time>2026-03-16T15:42:46Z</time>
      </trkpt>
      <trkpt lat="48.41982" lon="7.39067">
        <ele>665.2</ele>
        <time>2026-03-16T15:42:51Z</time>
      </trkpt>
      <trkpt lat="48.41987" lon="7.39074">
        <ele>666.7</ele>
        <time>2026-03-16T15:42:56Z</time>
      </trkpt>
      <trkpt lat="48.41988" lon="7.39076">
        <ele>666.9</ele>
        <time>2026-03-16T15:43:01Z</time>
      </trkpt>
      <trkpt lat="48.41994" lon="7.39091">
        <ele>667.7</ele>
        <time>2026-03-16T15:43:06Z</time>
      </trkpt>
      <trkpt lat="48.41997" lon="7.39092">
        <ele>668.7</ele>
        <time>2026-03-16T15:43:11Z</time>
      </trkpt>
      <trkpt lat="48.41997" lon="7.39092">
        <ele>668.7</ele>
        <time>2026-03-16T15:43:16Z</time>
      </trkpt>
      <trkpt lat="48.42008" lon="7.39102">
        <ele>672.4</ele>
        <time>2026-03-16T15:43:21Z</time>
      </trkpt>
      <trkpt lat="48.42008" lon="7.39102">
        <ele>672.4</ele>
        <time>2026-03-16T15:43:26Z</time>
      </trkpt>
      <trkpt lat="48.42019" lon="7.39115">
        <ele>675.5</ele>
        <time>2026-03-16T15:43:31Z</time>
      </trkpt>
      <trkpt lat="48.4202" lon="7.39115">
        <ele>676</ele>
        <time>2026-03-16T15:43:36Z</time>
      </trkpt>
      <trkpt lat="48.4203" lon="7.39123">
        <ele>679</ele>
        <time>2026-03-16T15:43:41Z</time>
      </trkpt>
      <trkpt lat="48.42032" lon="7.39125">
        <ele>679.5</ele>
        <time>2026-03-16T15:43:46Z</time>
      </trkpt>
      <trkpt lat="48.42044" lon="7.3913">
        <ele>683.7</ele>
        <time>2026-03-16T15:43:51Z</time>
      </trkpt>
      <trkpt lat="48.42048" lon="7.3913">
        <ele>685.4</ele>
        <time>2026-03-16T15:43:56Z</time>
      </trkpt>
      <trkpt lat="48.42058" lon="7.39136">
        <ele>688.3</ele>
        <time>2026-03-16T15:44:01Z</time>
      </trkpt>
      <trkpt lat="48.42062" lon="7.39138">
        <ele>689.4</ele>
        <time>2026-03-16T15:44:06Z</time>
      </trkpt>
      <trkpt lat="48.42062" lon="7.39138">
        <ele>689.4</ele>
        <time>2026-03-16T15:44:11Z</time>
      </trkpt>
      <trkpt lat="48.42078" lon="7.39149">
        <ele>693</ele>
        <time>2026-03-16T15:44:16Z</time>
      </trkpt>
      <trkpt lat="48.42085" lon="7.39155">
        <ele>693.8</ele>
        <time>2026-03-16T15:44:21Z</time>
      </trkpt>
      <trkpt lat="48.42085" lon="7.39155">
        <ele>693.8</ele>
        <time>2026-03-16T15:44:26Z</time>
      </trkpt>
      <trkpt lat="48.42094" lon="7.39162">
        <ele>694.1</ele>
        <time>2026-03-16T15:44:31Z</time>
      </trkpt>
      <trkpt lat="48.421" lon="7.39165">
        <ele>694.7</ele>
        <time>2026-03-16T15:44:36Z</time>
      </trkpt>
      <trkpt lat="48.42109" lon="7.3917">
        <ele>695.5</ele>
        <time>2026-03-16T15:44:41Z</time>
      </trkpt>
      <trkpt lat="48.42111" lon="7.39173">
        <ele>695.1</ele>
        <time>2026-03-16T15:44:46Z</time>
      </trkpt>
      <trkpt lat="48.42111" lon="7.39173">
        <ele>695.1</ele>
        <time>2026-03-16T15:44:51Z</time>
      </trkpt>
      <trkpt lat="48.42123" lon="7.39181">
        <ele>695.5</ele>
        <time>2026-03-16T15:44:56Z</time>
      </trkpt>
      <trkpt lat="48.42123" lon="7.39181">
        <ele>695.5</ele>
        <time>2026-03-16T15:45:01Z</time>
      </trkpt>
      <trkpt lat="48.42133" lon="7.39191">
        <ele>694.5</ele>
        <time>2026-03-16T15:45:06Z</time>
      </trkpt>
      <trkpt lat="48.42134" lon="7.39193">
        <ele>694.1</ele>
        <time>2026-03-16T15:45:11Z</time>
      </trkpt>
      <trkpt lat="48.42145" lon="7.39204">
        <ele>692.7</ele>
        <time>2026-03-16T15:45:16Z</time>
      </trkpt>
      <trkpt lat="48.42145" lon="7.39205">
        <ele>692.4</ele>
        <time>2026-03-16T15:45:21Z</time>
      </trkpt>
      <trkpt lat="48.42153" lon="7.39213">
        <ele>691.1</ele>
        <time>2026-03-16T15:45:26Z</time>
      </trkpt>
      <trkpt lat="48.4216" lon="7.39218">
        <ele>690.7</ele>
        <time>2026-03-16T15:45:31Z</time>
      </trkpt>
      <trkpt lat="48.42168" lon="7.39228">
        <ele>688.5</ele>
        <time>2026-03-16T15:45:36Z</time>
      </trkpt>
      <trkpt lat="48.42169" lon="7.39229">
        <ele>688.4</ele>
        <time>2026-03-16T15:45:41Z</time>
      </trkpt>
      <trkpt lat="48.42176" lon="7.39237">
        <ele>687.3</ele>
        <time>2026-03-16T15:45:46Z</time>
      </trkpt>
      <trkpt lat="48.42179" lon="7.39242">
        <ele>686.4</ele>
        <time>2026-03-16T15:45:51Z</time>
      </trkpt>
      <trkpt lat="48.42186" lon="7.39253">
        <ele>685</ele>
        <time>2026-03-16T15:45:56Z</time>
      </trkpt>
      <trkpt lat="48.42191" lon="7.39256">
        <ele>686</ele>
        <time>2026-03-16T15:46:01Z</time>
      </trkpt>
      <trkpt lat="48.42191" lon="7.39256">
        <ele>686</ele>
        <time>2026-03-16T15:46:06Z</time>
      </trkpt>
      <trkpt lat="48.42202" lon="7.39272">
        <ele>686.4</ele>
        <time>2026-03-16T15:46:11Z</time>
      </trkpt>
      <trkpt lat="48.42202" lon="7.39272">
        <ele>686.4</ele>
        <time>2026-03-16T15:46:16Z</time>
      </trkpt>
      <trkpt lat="48.42211" lon="7.39285">
        <ele>686.9</ele>
        <time>2026-03-16T15:46:21Z</time>
      </trkpt>
      <trkpt lat="48.42211" lon="7.39285">
        <ele>686.9</ele>
        <time>2026-03-16T15:46:26Z</time>
      </trkpt>
      <trkpt lat="48.42219" lon="7.39299">
        <ele>687</ele>
        <time>2026-03-16T15:46:31Z</time>
      </trkpt>
      <trkpt lat="48.4222" lon="7.393">
        <ele>687.1</ele>
        <time>2026-03-16T15:46:36Z</time>
      </trkpt>
      <trkpt lat="48.4222" lon="7.393">
        <ele>687.1</ele>
        <time>2026-03-16T15:46:41Z</time>
      </trkpt>
      <trkpt lat="48.42229" lon="7.39314">
        <ele>687.6</ele>
        <time>2026-03-16T15:46:46Z</time>
      </trkpt>
      <trkpt lat="48.42229" lon="7.39314">
        <ele>687.6</ele>
        <time>2026-03-16T15:46:51Z</time>
      </trkpt>
      <trkpt lat="48.42237" lon="7.39323">
        <ele>688.6</ele>
        <time>2026-03-16T15:46:56Z</time>
      </trkpt>
      <trkpt lat="48.42239" lon="7.39326">
        <ele>688.7</ele>
        <time>2026-03-16T15:47:01Z</time>
      </trkpt>
      <trkpt lat="48.42239" lon="7.39326">
        <ele>688.7</ele>
        <time>2026-03-16T15:47:06Z</time>
      </trkpt>
      <trkpt lat="48.42241" lon="7.39343">
        <ele>687.1</ele>
        <time>2026-03-16T15:47:11Z</time>
      </trkpt>
      <trkpt lat="48.42242" lon="7.39347">
        <ele>687</ele>
        <time>2026-03-16T15:47:16Z</time>
      </trkpt>
      <trkpt lat="48.42242" lon="7.39347">
        <ele>687</ele>
        <time>2026-03-16T15:47:21Z</time>
      </trkpt>
      <trkpt lat="48.42242" lon="7.39363">
        <ele>685.2</ele>
        <time>2026-03-16T15:47:26Z</time>
      </trkpt>
      <trkpt lat="48.42243" lon="7.39367">
        <ele>685</ele>
        <time>2026-03-16T15:47:31Z</time>
      </trkpt>
      <trkpt lat="48.42249" lon="7.39386">
        <ele>685</ele>
        <time>2026-03-16T15:47:36Z</time>
      </trkpt>
      <trkpt lat="48.42249" lon="7.39388">
        <ele>684.8</ele>
        <time>2026-03-16T15:47:41Z</time>
      </trkpt>
      <trkpt lat="48.4225" lon="7.39406">
        <ele>683.2</ele>
        <time>2026-03-16T15:47:46Z</time>
      </trkpt>
      <trkpt lat="48.4225" lon="7.39406">
        <ele>683.2</ele>
        <time>2026-03-16T15:47:51Z</time>
      </trkpt>
      <trkpt lat="48.4225" lon="7.39406">
        <ele>683.2</ele>
        <time>2026-03-16T15:47:56Z</time>
      </trkpt>
      <trkpt lat="48.4225" lon="7.39421">
        <ele>681.8</ele>
        <time>2026-03-16T15:48:01Z</time>
      </trkpt>
      <trkpt lat="48.4225" lon="7.39429">
        <ele>681.6</ele>
        <time>2026-03-16T15:48:06Z</time>
      </trkpt>
      <trkpt lat="48.4225" lon="7.39429">
        <ele>681.6</ele>
        <time>2026-03-16T15:48:11Z</time>
      </trkpt>
      <trkpt lat="48.42253" lon="7.39447">
        <ele>682.1</ele>
        <time>2026-03-16T15:48:16Z</time>
      </trkpt>
      <trkpt lat="48.42253" lon="7.39448">
        <ele>682.1</ele>
        <time>2026-03-16T15:48:21Z</time>
      </trkpt>
      <trkpt lat="48.42253" lon="7.39463">
        <ele>681.6</ele>
        <time>2026-03-16T15:48:26Z</time>
      </trkpt>
      <trkpt lat="48.42253" lon="7.39465">
        <ele>681.5</ele>
        <time>2026-03-16T15:48:31Z</time>
      </trkpt>
      <trkpt lat="48.42253" lon="7.39465">
        <ele>681.5</ele>
        <time>2026-03-16T15:48:36Z</time>
      </trkpt>
      <trkpt lat="48.42257" lon="7.39484">
        <ele>682.5</ele>
        <time>2026-03-16T15:48:41Z</time>
      </trkpt>
      <trkpt lat="48.42257" lon="7.39484">
        <ele>682.5</ele>
        <time>2026-03-16T15:48:46Z</time>
      </trkpt>
      <trkpt lat="48.42255" lon="7.39502">
        <ele>681.1</ele>
        <time>2026-03-16T15:48:51Z</time>
      </trkpt>
      <trkpt lat="48.42255" lon="7.39502">
        <ele>681.1</ele>
        <time>2026-03-16T15:48:56Z</time>
      </trkpt>
      <trkpt lat="48.42257" lon="7.39518">
        <ele>681.5</ele>
        <time>2026-03-16T15:49:01Z</time>
      </trkpt>
      <trkpt lat="48.42257" lon="7.3952">
        <ele>681.5</ele>
        <time>2026-03-16T15:49:06Z</time>
      </trkpt>
      <trkpt lat="48.42258" lon="7.39539">
        <ele>681.5</ele>
        <time>2026-03-16T15:49:11Z</time>
      </trkpt>
      <trkpt lat="48.42258" lon="7.39541">
        <ele>681.4</ele>
        <time>2026-03-16T15:49:16Z</time>
      </trkpt>
      <trkpt lat="48.42259" lon="7.39558">
        <ele>681.5</ele>
        <time>2026-03-16T15:49:21Z</time>
      </trkpt>
      <trkpt lat="48.42259" lon="7.39562">
        <ele>681.4</ele>
        <time>2026-03-16T15:49:26Z</time>
      </trkpt>
      <trkpt lat="48.42258" lon="7.39578">
        <ele>680.6</ele>
        <time>2026-03-16T15:49:31Z</time>
      </trkpt>
      <trkpt lat="48.42258" lon="7.39582">
        <ele>680.5</ele>
        <time>2026-03-16T15:49:36Z</time>
      </trkpt>
      <trkpt lat="48.42256" lon="7.39599">
        <ele>679.4</ele>
        <time>2026-03-16T15:49:41Z</time>
      </trkpt>
      <trkpt lat="48.42256" lon="7.39603">
        <ele>679.4</ele>
        <time>2026-03-16T15:49:46Z</time>
      </trkpt>
      <trkpt lat="48.42254" lon="7.39621">
        <ele>678.3</ele>
        <time>2026-03-16T15:49:51Z</time>
      </trkpt>
      <trkpt lat="48.42254" lon="7.39622">
        <ele>678.3</ele>
        <time>2026-03-16T15:49:56Z</time>
      </trkpt>
      <trkpt lat="48.42252" lon="7.39638">
        <ele>677.2</ele>
        <time>2026-03-16T15:50:01Z</time>
      </trkpt>
      <trkpt lat="48.42251" lon="7.3964">
        <ele>676.8</ele>
        <time>2026-03-16T15:50:06Z</time>
      </trkpt>
      <trkpt lat="48.42251" lon="7.3964">
        <ele>676.8</ele>
        <time>2026-03-16T15:50:11Z</time>
      </trkpt>
      <trkpt lat="48.42253" lon="7.39655">
        <ele>677.5</ele>
        <time>2026-03-16T15:50:16Z</time>
      </trkpt>
      <trkpt lat="48.42251" lon="7.39661">
        <ele>676.5</ele>
        <time>2026-03-16T15:50:21Z</time>
      </trkpt>
      <trkpt lat="48.4225" lon="7.39672">
        <ele>676.3</ele>
        <time>2026-03-16T15:50:26Z</time>
      </trkpt>
      <trkpt lat="48.42251" lon="7.39687">
        <ele>677.7</ele>
        <time>2026-03-16T15:50:31Z</time>
      </trkpt>
      <trkpt lat="48.42253" lon="7.39697">
        <ele>679.1</ele>
        <time>2026-03-16T15:50:36Z</time>
      </trkpt>
      <trkpt lat="48.42255" lon="7.39705">
        <ele>680.4</ele>
        <time>2026-03-16T15:50:41Z</time>
      </trkpt>
      <trkpt lat="48.42257" lon="7.39715">
        <ele>681.8</ele>
        <time>2026-03-16T15:50:46Z</time>
      </trkpt>
      <trkpt lat="48.42258" lon="7.39719">
        <ele>682.5</ele>
        <time>2026-03-16T15:50:51Z</time>
      </trkpt>
      <trkpt lat="48.42258" lon="7.39719">
        <ele>682.5</ele>
        <time>2026-03-16T15:50:56Z</time>
      </trkpt>
      <trkpt lat="48.42258" lon="7.39719">
        <ele>682.5</ele>
        <time>2026-03-16T15:51:01Z</time>
      </trkpt>
      <trkpt lat="48.42271" lon="7.39702">
        <ele>687.2</ele>
        <time>2026-03-16T15:51:06Z</time>
      </trkpt>
      <trkpt lat="48.42271" lon="7.3969">
        <ele>686.6</ele>
        <time>2026-03-16T15:51:11Z</time>
      </trkpt>
      <trkpt lat="48.4227" lon="7.39689">
        <ele>686.1</ele>
        <time>2026-03-16T15:51:16Z</time>
      </trkpt>
      <trkpt lat="48.4227" lon="7.39689">
        <ele>686.1</ele>
        <time>2026-03-16T15:51:21Z</time>
      </trkpt>
      <trkpt lat="48.4227" lon="7.39689">
        <ele>686.1</ele>
        <time>2026-03-16T15:51:26Z</time>
      </trkpt>
      <trkpt lat="48.4227" lon="7.39689">
        <ele>686.1</ele>
        <time>2026-03-16T15:51:31Z</time>
      </trkpt>
      <trkpt lat="48.4227" lon="7.39689">
        <ele>686.1</ele>
        <time>2026-03-16T15:51:36Z</time>
      </trkpt>
      <trkpt lat="48.4227" lon="7.39689">
        <ele>686.1</ele>
        <time>2026-03-16T15:51:41Z</time>
      </trkpt>
      <trkpt lat="48.42278" lon="7.39702">
        <ele>690.2</ele>
        <time>2026-03-16T15:51:46Z</time>
      </trkpt>
      <trkpt lat="48.42278" lon="7.39705">
        <ele>690.3</ele>
        <time>2026-03-16T15:51:51Z</time>
      </trkpt>
      <trkpt lat="48.42272" lon="7.39718">
        <ele>688.3</ele>
        <time>2026-03-16T15:51:56Z</time>
      </trkpt>
      <trkpt lat="48.42272" lon="7.39718">
        <ele>688.3</ele>
        <time>2026-03-16T15:52:01Z</time>
      </trkpt>
      <trkpt lat="48.42272" lon="7.39718">
        <ele>688.3</ele>
        <time>2026-03-16T15:52:06Z</time>
      </trkpt>
      <trkpt lat="48.42272" lon="7.39718">
        <ele>688.3</ele>
        <time>2026-03-16T15:52:11Z</time>
      </trkpt>
      <trkpt lat="48.42272" lon="7.39718">
        <ele>688.3</ele>
        <time>2026-03-16T15:52:16Z</time>
      </trkpt>
      <trkpt lat="48.42272" lon="7.39718">
        <ele>688.3</ele>
        <time>2026-03-16T15:52:21Z</time>
      </trkpt>
    </trkseg>
  </trk>
</gpx>